<?xml version='1.0' encoding='UTF-8'?><gpx version="1.1" creator="JPX - https://github.com/jenetics/jpx" xmlns="http://www.topografix.com/GPX/1/1"><trk><trkseg><trkpt lat="43.30804879065085" lon="11.316398084143765"><ele>231.66666666666666</ele><time>2026-04-08T07:06:19Z</time></trkpt><trkpt lat="43.30807383793396" lon="11.316496917605562"><ele>232.33333333333331</ele><time>2026-04-08T07:06:23Z</time></trkpt><trkpt lat="43.30805723105337" lon="11.316581898022815"><ele>233.0</ele><time>2026-04-08T07:06:27Z</time></trkpt><trkpt lat="43.30798291362071" lon="11.316609342303389"><ele>233.66666666666666</ele><time>2026-04-08T07:06:33Z</time></trkpt><trkpt lat="43.30787865157877" lon="11.316710428260985"><ele>234.33333333333331</ele><time>2026-04-08T07:06:35Z</time></trkpt><trkpt lat="43.30781261226757" lon="11.316764262115134"><ele>235.0</ele><time>2026-04-08T07:06:36Z</time></trkpt><trkpt lat="43.30774961029925" lon="11.316815715376395"><ele>234.99999999999997</ele><time>2026-04-08T07:06:37Z</time></trkpt><trkpt lat="43.307682018067254" lon="11.31687069643454"><ele>235.0</ele><time>2026-04-08T07:06:38Z</time></trkpt><trkpt lat="43.307619643398105" lon="11.316939859119694"><ele>235.0</ele><time>2026-04-08T07:06:39Z</time></trkpt><trkpt lat="43.307561567512955" lon="11.317010713104924"><ele>235.0</ele><time>2026-04-08T07:06:40Z</time></trkpt><trkpt lat="43.307506093673595" lon="11.317085515734526"><ele>234.99999999999997</ele><time>2026-04-08T07:06:41Z</time></trkpt><trkpt lat="43.30745825075344" lon="11.31718206722111"><ele>235.0</ele><time>2026-04-08T07:06:42Z</time></trkpt><trkpt lat="43.30741192456528" lon="11.317272583583904"><ele>234.4</ele><time>2026-04-08T07:06:43Z</time></trkpt><trkpt lat="43.30733450321457" lon="11.317410728841317"><ele>233.8</ele><time>2026-04-08T07:06:45Z</time></trkpt><trkpt lat="43.307257118566014" lon="11.317544734930946"><ele>233.2</ele><time>2026-04-08T07:06:47Z</time></trkpt><trkpt lat="43.307203039343655" lon="11.317642953756"><ele>232.6</ele><time>2026-04-08T07:06:49Z</time></trkpt><trkpt lat="43.30715277508611" lon="11.317705787631159"><ele>232.0</ele><time>2026-04-08T07:06:52Z</time></trkpt><trkpt lat="43.30707764151707" lon="11.31771141583051"><ele>232.0</ele><time>2026-04-08T07:06:55Z</time></trkpt><trkpt lat="43.306969096048746" lon="11.317668430219054"><ele>232.0</ele><time>2026-04-08T07:06:57Z</time></trkpt><trkpt lat="43.30686352048665" lon="11.31763578506076"><ele>232.0</ele><time>2026-04-08T07:06:59Z</time></trkpt><trkpt lat="43.30677280973711" lon="11.317593370710739"><ele>232.0</ele><time>2026-04-08T07:07:01Z</time></trkpt><trkpt lat="43.3066747009786" lon="11.317696954412746"><ele>232.0</ele><time>2026-04-08T07:07:03Z</time></trkpt><trkpt lat="43.306608466447436" lon="11.317737576370638"><ele>231.99999999999997</ele><time>2026-04-08T07:07:10Z</time></trkpt><trkpt lat="43.30651256545757" lon="11.317687516212692"><ele>232.0</ele><time>2026-04-08T07:07:11.999Z</time></trkpt><trkpt lat="43.30644789822723" lon="11.317664151521303"><ele>232.0</ele><time>2026-04-08T07:07:12.999Z</time></trkpt><trkpt lat="43.306382696087454" lon="11.317667058318273"><ele>232.0</ele><time>2026-04-08T07:07:13.999Z</time></trkpt><trkpt lat="43.306318191175926" lon="11.317702239693935"><ele>231.99999999999997</ele><time>2026-04-08T07:07:14.999Z</time></trkpt><trkpt lat="43.306269965760265" lon="11.317769732162876"><ele>232.0</ele><time>2026-04-08T07:07:15.999Z</time></trkpt><trkpt lat="43.30621128144997" lon="11.317871345126003"><ele>231.2</ele><time>2026-04-08T07:07:16.999Z</time></trkpt><trkpt lat="43.306152617329225" lon="11.317966365379286"><ele>230.39999999999998</ele><time>2026-04-08T07:07:17.999Z</time></trkpt><trkpt lat="43.30608317455912" lon="11.318062199794918"><ele>229.60000000000002</ele><time>2026-04-08T07:07:18.999Z</time></trkpt><trkpt lat="43.30601533266295" lon="11.31815432703413"><ele>228.8</ele><time>2026-04-08T07:07:19.999Z</time></trkpt><trkpt lat="43.30594906197448" lon="11.318260922393621"><ele>228.0</ele><time>2026-04-08T07:07:20.999Z</time></trkpt><trkpt lat="43.30588196941463" lon="11.31836425507993"><ele>228.0</ele><time>2026-04-08T07:07:21.999Z</time></trkpt><trkpt lat="43.305811955640316" lon="11.318466924033237"><ele>228.0</ele><time>2026-04-08T07:07:22.999Z</time></trkpt><trkpt lat="43.30573934975387" lon="11.31857480027131"><ele>228.0</ele><time>2026-04-08T07:07:23.999Z</time></trkpt><trkpt lat="43.305673505402645" lon="11.318688655487602"><ele>228.0</ele><time>2026-04-08T07:07:24.999Z</time></trkpt><trkpt lat="43.30561415155079" lon="11.318783771158685"><ele>228.0</ele><time>2026-04-08T07:07:25.999Z</time></trkpt><trkpt lat="43.30555278095006" lon="11.318886258839298"><ele>227.8</ele><time>2026-04-08T07:07:26.999Z</time></trkpt><trkpt lat="43.305488959212234" lon="11.318994203248128"><ele>227.60000000000002</ele><time>2026-04-08T07:07:27.999Z</time></trkpt><trkpt lat="43.305424463510306" lon="11.319101314906096"><ele>227.39999999999998</ele><time>2026-04-08T07:07:28.999Z</time></trkpt><trkpt lat="43.30535832919252" lon="11.319214414978566"><ele>227.2</ele><time>2026-04-08T07:07:29.999Z</time></trkpt><trkpt lat="43.30529607006253" lon="11.319334890414467"><ele>227.0</ele><time>2026-04-08T07:07:30.999Z</time></trkpt><trkpt lat="43.305232964291704" lon="11.319462707700449"><ele>227.0</ele><time>2026-04-08T07:07:31.999Z</time></trkpt><trkpt lat="43.305168723068576" lon="11.319597242571398"><ele>227.0</ele><time>2026-04-08T07:07:32.999Z</time></trkpt><trkpt lat="43.30511175958361" lon="11.319710928054354"><ele>227.0</ele><time>2026-04-08T07:07:33.999Z</time></trkpt><trkpt lat="43.305060281196525" lon="11.319827962195614"><ele>227.0</ele><time>2026-04-08T07:07:34.999Z</time></trkpt><trkpt lat="43.30500805137348" lon="11.319947856200065"><ele>227.0</ele><time>2026-04-08T07:07:35.999Z</time></trkpt><trkpt lat="43.30496117400124" lon="11.320061047021888"><ele>227.39999999999998</ele><time>2026-04-08T07:07:36.999Z</time></trkpt><trkpt lat="43.304916854098074" lon="11.320170592843748"><ele>227.79999999999998</ele><time>2026-04-08T07:07:37.999Z</time></trkpt><trkpt lat="43.30486926368317" lon="11.320286195150118"><ele>228.2</ele><time>2026-04-08T07:07:38.999Z</time></trkpt><trkpt lat="43.30482172333033" lon="11.320406054527002"><ele>228.6</ele><time>2026-04-08T07:07:39.999Z</time></trkpt><trkpt lat="43.304774750620936" lon="11.320521467080887"><ele>229.0</ele><time>2026-04-08T07:07:40.999Z</time></trkpt><trkpt lat="43.30472795251301" lon="11.320637675633758"><ele>228.2</ele><time>2026-04-08T07:07:41.999Z</time></trkpt><trkpt lat="43.30468152460004" lon="11.320751847417688"><ele>227.39999999999998</ele><time>2026-04-08T07:07:42.999Z</time></trkpt><trkpt lat="43.304632638284595" lon="11.320871576881386"><ele>226.6</ele><time>2026-04-08T07:07:43.999Z</time></trkpt><trkpt lat="43.30458462871329" lon="11.320999536995139"><ele>225.8</ele><time>2026-04-08T07:07:44.999Z</time></trkpt><trkpt lat="43.3045348353907" lon="11.321127931157108"><ele>225.0</ele><time>2026-04-08T07:07:45.999Z</time></trkpt><trkpt lat="43.30448537263641" lon="11.321246677037243"><ele>225.0</ele><time>2026-04-08T07:07:46.999Z</time></trkpt><trkpt lat="43.304441562963774" lon="11.321347318517828"><ele>225.0</ele><time>2026-04-08T07:07:47.999Z</time></trkpt><trkpt lat="43.30439888642353" lon="11.321456369881608"><ele>225.0</ele><time>2026-04-08T07:07:48.999Z</time></trkpt><trkpt lat="43.30435597291405" lon="11.32156732744672"><ele>225.0</ele><time>2026-04-08T07:07:49.999Z</time></trkpt><trkpt lat="43.30431399248575" lon="11.321680418581094"><ele>225.0</ele><time>2026-04-08T07:07:50.999Z</time></trkpt><trkpt lat="43.304271776950785" lon="11.321793626018879"><ele>225.0</ele><time>2026-04-08T07:07:51.999Z</time></trkpt><trkpt lat="43.304226911884435" lon="11.321911809121154"><ele>225.0</ele><time>2026-04-08T07:07:52.999Z</time></trkpt><trkpt lat="43.30418476521604" lon="11.322025681925224"><ele>225.0</ele><time>2026-04-08T07:07:53.999Z</time></trkpt><trkpt lat="43.30414265784443" lon="11.322138102760087"><ele>225.0</ele><time>2026-04-08T07:07:54.999Z</time></trkpt><trkpt lat="43.30410441051502" lon="11.32222511436889"><ele>225.0</ele><time>2026-04-08T07:07:55.999Z</time></trkpt><trkpt lat="43.304078132587065" lon="11.322309834092039"><ele>225.0</ele><time>2026-04-08T07:07:56.999Z</time></trkpt><trkpt lat="43.304039298731816" lon="11.322465766246996"><ele>224.6</ele><time>2026-04-08T07:07:59Z</time></trkpt><trkpt lat="43.30402298801567" lon="11.322558832838661"><ele>224.2</ele><time>2026-04-08T07:08:00Z</time></trkpt><trkpt lat="43.303990270465334" lon="11.32265507325581"><ele>223.8</ele><time>2026-04-08T07:08:01Z</time></trkpt><trkpt lat="43.30392693668942" lon="11.322739850665661"><ele>223.4</ele><time>2026-04-08T07:08:03Z</time></trkpt><trkpt lat="43.30384558099234" lon="11.322894056761317"><ele>223.0</ele><time>2026-04-08T07:08:05Z</time></trkpt><trkpt lat="43.30382234810014" lon="11.322998588568288"><ele>223.4</ele><time>2026-04-08T07:08:06Z</time></trkpt><trkpt lat="43.303794470315694" lon="11.323113958353249"><ele>223.8</ele><time>2026-04-08T07:08:07Z</time></trkpt><trkpt lat="43.30379697437021" lon="11.32323464083773"><ele>224.2</ele><time>2026-04-08T07:08:08Z</time></trkpt><trkpt lat="43.303673191499506" lon="11.323292043088841"><ele>224.6</ele><time>2026-04-08T07:08:09Z</time></trkpt><trkpt lat="43.303592445318756" lon="11.323358729565374"><ele>225.0</ele><time>2026-04-08T07:08:10Z</time></trkpt><trkpt lat="43.30350462326487" lon="11.32344147447783"><ele>225.0</ele><time>2026-04-08T07:08:11Z</time></trkpt><trkpt lat="43.30339851854688" lon="11.32352437253115"><ele>225.0</ele><time>2026-04-08T07:08:12Z</time></trkpt><trkpt lat="43.303295239952945" lon="11.323614565168022"><ele>225.0</ele><time>2026-04-08T07:08:13Z</time></trkpt><trkpt lat="43.303211986330716" lon="11.323684656171993"><ele>225.0</ele><time>2026-04-08T07:08:14Z</time></trkpt><trkpt lat="43.3031334044375" lon="11.3237484766181"><ele>225.0</ele><time>2026-04-08T07:08:15Z</time></trkpt><trkpt lat="43.30305060297582" lon="11.323811917093094"><ele>224.8</ele><time>2026-04-08T07:08:16Z</time></trkpt><trkpt lat="43.30295150128938" lon="11.32387594990042"><ele>224.6</ele><time>2026-04-08T07:08:17Z</time></trkpt><trkpt lat="43.30285098840748" lon="11.323918563058518"><ele>224.39999999999998</ele><time>2026-04-08T07:08:18Z</time></trkpt><trkpt lat="43.30275478439013" lon="11.32394607801084"><ele>224.2</ele><time>2026-04-08T07:08:19Z</time></trkpt><trkpt lat="43.30265354536656" lon="11.3239850189641"><ele>224.0</ele><time>2026-04-08T07:08:20Z</time></trkpt><trkpt lat="43.302555255741275" lon="11.324042221148154"><ele>224.0</ele><time>2026-04-08T07:08:21Z</time></trkpt><trkpt lat="43.302462288766506" lon="11.32411013167194"><ele>223.99999999999997</ele><time>2026-04-08T07:08:22Z</time></trkpt><trkpt lat="43.30236933734773" lon="11.324183833144772"><ele>223.99999999999997</ele><time>2026-04-08T07:08:23Z</time></trkpt><trkpt lat="43.30227777340105" lon="11.324261164619307"><ele>224.0</ele><time>2026-04-08T07:08:24Z</time></trkpt><trkpt lat="43.30218344319844" lon="11.32433904144984"><ele>224.0</ele><time>2026-04-08T07:08:25Z</time></trkpt><trkpt lat="43.30208466700222" lon="11.324418751794248"><ele>223.25</ele><time>2026-04-08T07:08:26Z</time></trkpt><trkpt lat="43.3019859518173" lon="11.3244883881796"><ele>222.5</ele><time>2026-04-08T07:08:27Z</time></trkpt><trkpt lat="43.30189154578034" lon="11.324550432496535"><ele>221.75</ele><time>2026-04-08T07:08:28Z</time></trkpt><trkpt lat="43.3017851825257" lon="11.324615609361986"><ele>221.0</ele><time>2026-04-08T07:08:29Z</time></trkpt><trkpt lat="43.301671465117636" lon="11.32470300419389"><ele>221.75</ele><time>2026-04-08T07:08:30Z</time></trkpt><trkpt lat="43.30155963755793" lon="11.324793830463427"><ele>222.5</ele><time>2026-04-08T07:08:31Z</time></trkpt><trkpt lat="43.30146083069907" lon="11.324876683194063"><ele>223.25</ele><time>2026-04-08T07:08:32Z</time></trkpt><trkpt lat="43.301357577562506" lon="11.324963608302681"><ele>224.0</ele><time>2026-04-08T07:08:33Z</time></trkpt><trkpt lat="43.30126002390371" lon="11.325048487944521"><ele>224.00000000000003</ele><time>2026-04-08T07:08:34Z</time></trkpt><trkpt lat="43.301176316403975" lon="11.325125560478881"><ele>224.0</ele><time>2026-04-08T07:08:35Z</time></trkpt><trkpt lat="43.3011022800664" lon="11.32520291494294"><ele>224.0</ele><time>2026-04-08T07:08:36Z</time></trkpt><trkpt lat="43.30103018572668" lon="11.325295436769762"><ele>224.0</ele><time>2026-04-08T07:08:37Z</time></trkpt><trkpt lat="43.300969649878816" lon="11.325386247657068"><ele>224.00000000000003</ele><time>2026-04-08T07:08:38Z</time></trkpt><trkpt lat="43.300936727126945" lon="11.325460121085563"><ele>224.0</ele><time>2026-04-08T07:08:39Z</time></trkpt><trkpt lat="43.300895914848056" lon="11.325545119450753"><ele>224.39999999999998</ele><time>2026-04-08T07:08:41Z</time></trkpt><trkpt lat="43.30084630594857" lon="11.32565185656821"><ele>224.79999999999998</ele><time>2026-04-08T07:08:46Z</time></trkpt><trkpt lat="43.30080864007116" lon="11.325737250627471"><ele>225.20000000000002</ele><time>2026-04-08T07:08:47Z</time></trkpt><trkpt lat="43.30077051828514" lon="11.32581967214945"><ele>225.60000000000002</ele><time>2026-04-08T07:08:48Z</time></trkpt><trkpt lat="43.30069276762492" lon="11.325997171945254"><ele>226.0</ele><time>2026-04-08T07:08:50Z</time></trkpt><trkpt lat="43.30064538040187" lon="11.326103284833879"><ele>226.0</ele><time>2026-04-08T07:08:51Z</time></trkpt><trkpt lat="43.30059883648456" lon="11.326223789126592"><ele>226.00000000000003</ele><time>2026-04-08T07:08:52Z</time></trkpt><trkpt lat="43.30055416113561" lon="11.326355108199285"><ele>226.00000000000003</ele><time>2026-04-08T07:08:53Z</time></trkpt><trkpt lat="43.3005061917227" lon="11.326482085890063"><ele>226.0</ele><time>2026-04-08T07:08:54Z</time></trkpt><trkpt lat="43.300451373900756" lon="11.326613559595012"><ele>226.0</ele><time>2026-04-08T07:08:55Z</time></trkpt><trkpt lat="43.30040394973033" lon="11.3267191176323"><ele>225.20000000000002</ele><time>2026-04-08T07:08:56Z</time></trkpt><trkpt lat="43.30035746543804" lon="11.326815996380695"><ele>224.40000000000003</ele><time>2026-04-08T07:08:57Z</time></trkpt><trkpt lat="43.300301248736446" lon="11.32692332482067"><ele>223.6</ele><time>2026-04-08T07:08:58Z</time></trkpt><trkpt lat="43.300227419872975" lon="11.327011484555557"><ele>222.8</ele><time>2026-04-08T07:08:59Z</time></trkpt><trkpt lat="43.300131256771735" lon="11.327087362219967"><ele>222.0</ele><time>2026-04-08T07:09:00Z</time></trkpt><trkpt lat="43.30005468466074" lon="11.327154230981103"><ele>222.2</ele><time>2026-04-08T07:09:01Z</time></trkpt><trkpt lat="43.30000239557595" lon="11.327243954870715"><ele>222.39999999999998</ele><time>2026-04-08T07:09:02Z</time></trkpt><trkpt lat="43.299988135247496" lon="11.32737456147469"><ele>222.60000000000002</ele><time>2026-04-08T07:09:03Z</time></trkpt><trkpt lat="43.299979356521966" lon="11.32750726404771"><ele>222.8</ele><time>2026-04-08T07:09:04Z</time></trkpt><trkpt lat="43.29996599662985" lon="11.327656719852296"><ele>223.0</ele><time>2026-04-08T07:09:05Z</time></trkpt><trkpt lat="43.2999235225333" lon="11.327809336921005"><ele>223.0</ele><time>2026-04-08T07:09:06Z</time></trkpt><trkpt lat="43.299868913300116" lon="11.32794839904685"><ele>223.0</ele><time>2026-04-08T07:09:07Z</time></trkpt><trkpt lat="43.29980951353792" lon="11.328086065317093"><ele>223.0</ele><time>2026-04-08T07:09:08Z</time></trkpt><trkpt lat="43.29975924881485" lon="11.32820681927137"><ele>223.0</ele><time>2026-04-08T07:09:09Z</time></trkpt><trkpt lat="43.299716082427736" lon="11.328319496151169"><ele>223.0</ele><time>2026-04-08T07:09:10Z</time></trkpt><trkpt lat="43.299670866706066" lon="11.328429861211626"><ele>222.66666666666666</ele><time>2026-04-08T07:09:11Z</time></trkpt><trkpt lat="43.29962652674979" lon="11.32854748077703"><ele>222.33333333333331</ele><time>2026-04-08T07:09:11.999Z</time></trkpt><trkpt lat="43.2995860094856" lon="11.32865403671191"><ele>222.0</ele><time>2026-04-08T07:09:12.999Z</time></trkpt><trkpt lat="43.29954781971853" lon="11.328733156336048"><ele>221.66666666666669</ele><time>2026-04-08T07:09:13.999Z</time></trkpt><trkpt lat="43.299514369453014" lon="11.328811447844444"><ele>221.33333333333334</ele><time>2026-04-08T07:09:17.999Z</time></trkpt><trkpt lat="43.29949490723489" lon="11.328946127797414"><ele>221.0</ele><time>2026-04-08T07:10:13Z</time></trkpt><trkpt lat="43.29946874708398" lon="11.32905275725034"><ele>221.8</ele><time>2026-04-08T07:10:14Z</time></trkpt><trkpt lat="43.29942259449303" lon="11.329143196830163"><ele>222.60000000000002</ele><time>2026-04-08T07:10:15Z</time></trkpt><trkpt lat="43.29938195212836" lon="11.329265280986546"><ele>223.4</ele><time>2026-04-08T07:10:16Z</time></trkpt><trkpt lat="43.29935578213891" lon="11.32939536212962"><ele>224.2</ele><time>2026-04-08T07:10:17Z</time></trkpt><trkpt lat="43.299307529828425" lon="11.329520081638925"><ele>225.0</ele><time>2026-04-08T07:10:18Z</time></trkpt><trkpt lat="43.29925006148674" lon="11.329642011608923"><ele>225.5</ele><time>2026-04-08T07:10:19Z</time></trkpt><trkpt lat="43.29918475594419" lon="11.329783181703588"><ele>226.0</ele><time>2026-04-08T07:10:20Z</time></trkpt><trkpt lat="43.29910466091017" lon="11.329932739285262"><ele>226.5</ele><time>2026-04-08T07:10:21Z</time></trkpt><trkpt lat="43.29902861314141" lon="11.33005138438439"><ele>227.0</ele><time>2026-04-08T07:10:22Z</time></trkpt><trkpt lat="43.298948121117704" lon="11.330160122843191"><ele>227.0</ele><time>2026-04-08T07:10:23Z</time></trkpt><trkpt lat="43.298857040747755" lon="11.330271037598047"><ele>227.0</ele><time>2026-04-08T07:10:24Z</time></trkpt><trkpt lat="43.29877084750997" lon="11.330368495627411"><ele>227.0</ele><time>2026-04-08T07:10:25Z</time></trkpt><trkpt lat="43.298678474665984" lon="11.330468963549"><ele>227.0</ele><time>2026-04-08T07:10:26Z</time></trkpt><trkpt lat="43.298583213048765" lon="11.330576416897792"><ele>227.0</ele><time>2026-04-08T07:10:27Z</time></trkpt><trkpt lat="43.29849012184476" lon="11.330705691146713"><ele>227.0</ele><time>2026-04-08T07:10:28Z</time></trkpt><trkpt lat="43.29839505082869" lon="11.33083509010115"><ele>227.0</ele><time>2026-04-08T07:10:29Z</time></trkpt><trkpt lat="43.29830737129495" lon="11.330951059581038"><ele>227.0</ele><time>2026-04-08T07:10:30Z</time></trkpt><trkpt lat="43.29823478333522" lon="11.331067895118723"><ele>227.0</ele><time>2026-04-08T07:10:31Z</time></trkpt><trkpt lat="43.29817669900069" lon="11.331183590173048"><ele>227.0</ele><time>2026-04-08T07:10:32Z</time></trkpt><trkpt lat="43.29812327810365" lon="11.331301651470875"><ele>227.0</ele><time>2026-04-08T07:10:33Z</time></trkpt><trkpt lat="43.29807454151355" lon="11.331419654003659"><ele>227.0</ele><time>2026-04-08T07:10:34Z</time></trkpt><trkpt lat="43.298024423396114" lon="11.331545608004049"><ele>227.0</ele><time>2026-04-08T07:10:35Z</time></trkpt><trkpt lat="43.29797773980725" lon="11.33167610935873"><ele>226.5</ele><time>2026-04-08T07:10:36Z</time></trkpt><trkpt lat="43.29792333605309" lon="11.3318148189194"><ele>226.0</ele><time>2026-04-08T07:10:37Z</time></trkpt><trkpt lat="43.297863291427205" lon="11.331958594038351"><ele>225.5</ele><time>2026-04-08T07:10:38Z</time></trkpt><trkpt lat="43.29779654555568" lon="11.332105553203208"><ele>225.0</ele><time>2026-04-08T07:10:39Z</time></trkpt><trkpt lat="43.29771452869557" lon="11.332240425371277"><ele>225.0</ele><time>2026-04-08T07:10:40Z</time></trkpt><trkpt lat="43.29762359633724" lon="11.332343842319036"><ele>225.0</ele><time>2026-04-08T07:10:41Z</time></trkpt><trkpt lat="43.29751752742253" lon="11.332428731648664"><ele>225.0</ele><time>2026-04-08T07:10:42Z</time></trkpt><trkpt lat="43.297392421956225" lon="11.332504405752147"><ele>225.0</ele><time>2026-04-08T07:10:43Z</time></trkpt><trkpt lat="43.29725525402232" lon="11.332567573159547"><ele>223.25</ele><time>2026-04-08T07:10:44Z</time></trkpt><trkpt lat="43.297125639875745" lon="11.332625588851172"><ele>221.5</ele><time>2026-04-08T07:10:45Z</time></trkpt><trkpt lat="43.29701122935923" lon="11.332692736050694"><ele>219.75</ele><time>2026-04-08T07:10:46Z</time></trkpt><trkpt lat="43.296909886932916" lon="11.332780039315974"><ele>218.0</ele><time>2026-04-08T07:10:47Z</time></trkpt><trkpt lat="43.296819825122526" lon="11.332874834532092"><ele>218.0</ele><time>2026-04-08T07:10:48Z</time></trkpt><trkpt lat="43.29673559685093" lon="11.332986791029228"><ele>218.0</ele><time>2026-04-08T07:10:49Z</time></trkpt><trkpt lat="43.29666226161724" lon="11.333122894208993"><ele>218.0</ele><time>2026-04-08T07:10:50Z</time></trkpt><trkpt lat="43.29659686532707" lon="11.333269294606737"><ele>218.0</ele><time>2026-04-08T07:10:51Z</time></trkpt><trkpt lat="43.296547676029626" lon="11.333392584265379"><ele>217.83333333333334</ele><time>2026-04-08T07:10:52Z</time></trkpt><trkpt lat="43.29650299271324" lon="11.333502369105501"><ele>217.66666666666669</ele><time>2026-04-08T07:10:53Z</time></trkpt><trkpt lat="43.2964640809724" lon="11.333608047707397"><ele>217.5</ele><time>2026-04-08T07:10:54Z</time></trkpt><trkpt lat="43.29643342427267" lon="11.333701679681695"><ele>217.33333333333331</ele><time>2026-04-08T07:10:55Z</time></trkpt><trkpt lat="43.29640759411471" lon="11.333786544165479"><ele>217.16666666666666</ele><time>2026-04-08T07:10:56Z</time></trkpt><trkpt lat="43.29638319912156" lon="11.333875658112548"><ele>217.0</ele><time>2026-04-08T07:10:57Z</time></trkpt><trkpt lat="43.296319906159894" lon="11.333978859198307"><ele>216.2</ele><time>2026-04-08T07:10:58Z</time></trkpt><trkpt lat="43.29628937944393" lon="11.334099170968424"><ele>215.39999999999998</ele><time>2026-04-08T07:10:59Z</time></trkpt><trkpt lat="43.29626622792684" lon="11.334236757330126"><ele>214.60000000000002</ele><time>2026-04-08T07:11:00Z</time></trkpt><trkpt lat="43.29620397250265" lon="11.334372103462334"><ele>213.8</ele><time>2026-04-08T07:11:01Z</time></trkpt><trkpt lat="43.296125639187814" lon="11.334508512384065"><ele>213.0</ele><time>2026-04-08T07:11:02Z</time></trkpt><trkpt lat="43.29603414144486" lon="11.334663790403022"><ele>213.0</ele><time>2026-04-08T07:11:03Z</time></trkpt><trkpt lat="43.29594563809515" lon="11.334810517340111"><ele>213.0</ele><time>2026-04-08T07:11:04Z</time></trkpt><trkpt lat="43.2958654698544" lon="11.334934297470195"><ele>213.0</ele><time>2026-04-08T07:11:05Z</time></trkpt><trkpt lat="43.29578352674812" lon="11.335060275923349"><ele>213.0</ele><time>2026-04-08T07:11:06Z</time></trkpt><trkpt lat="43.29571039951059" lon="11.335175560301009"><ele>213.0</ele><time>2026-04-08T07:11:07Z</time></trkpt><trkpt lat="43.29563193268851" lon="11.335296269744136"><ele>213.0</ele><time>2026-04-08T07:11:08Z</time></trkpt><trkpt lat="43.29554787241387" lon="11.335425149718581"><ele>213.0</ele><time>2026-04-08T07:11:09Z</time></trkpt><trkpt lat="43.29546114240135" lon="11.335567120704793"><ele>213.0</ele><time>2026-04-08T07:11:10Z</time></trkpt><trkpt lat="43.29539304404183" lon="11.335700589672484"><ele>212.75</ele><time>2026-04-08T07:11:11Z</time></trkpt><trkpt lat="43.29534085322458" lon="11.335826310864206"><ele>212.5</ele><time>2026-04-08T07:11:12Z</time></trkpt><trkpt lat="43.29528882477147" lon="11.335964093110277"><ele>212.25</ele><time>2026-04-08T07:11:13Z</time></trkpt><trkpt lat="43.29525952763904" lon="11.336119762873189"><ele>212.0</ele><time>2026-04-08T07:11:14Z</time></trkpt><trkpt lat="43.29527094475749" lon="11.336289790369383"><ele>212.25</ele><time>2026-04-08T07:11:15Z</time></trkpt><trkpt lat="43.29526732535357" lon="11.336468640173429"><ele>212.5</ele><time>2026-04-08T07:11:16Z</time></trkpt><trkpt lat="43.29530103683129" lon="11.336630574545135"><ele>212.75</ele><time>2026-04-08T07:11:17Z</time></trkpt><trkpt lat="43.29534835115049" lon="11.336770381750654"><ele>213.0</ele><time>2026-04-08T07:11:18Z</time></trkpt><trkpt lat="43.29540025511764" lon="11.33690786424931"><ele>213.0</ele><time>2026-04-08T07:11:19Z</time></trkpt><trkpt lat="43.29549758137931" lon="11.337024633836135"><ele>213.0</ele><time>2026-04-08T07:11:19.999Z</time></trkpt><trkpt lat="43.295595148849316" lon="11.337146358872289"><ele>213.0</ele><time>2026-04-08T07:11:20.999Z</time></trkpt><trkpt lat="43.29569818346069" lon="11.3372574872239"><ele>213.0</ele><time>2026-04-08T07:11:21.999Z</time></trkpt><trkpt lat="43.295813888747965" lon="11.337359112343263"><ele>214.5</ele><time>2026-04-08T07:11:22.999Z</time></trkpt><trkpt lat="43.2959315783617" lon="11.337454562954665"><ele>216.0</ele><time>2026-04-08T07:11:23.999Z</time></trkpt><trkpt lat="43.29605414148416" lon="11.337548070935616"><ele>217.5</ele><time>2026-04-08T07:11:24.999Z</time></trkpt><trkpt lat="43.29617732768234" lon="11.337636200133966"><ele>219.0</ele><time>2026-04-08T07:11:25.999Z</time></trkpt><trkpt lat="43.29629897360763" lon="11.337727301663259"><ele>219.0</ele><time>2026-04-08T07:11:26.999Z</time></trkpt><trkpt lat="43.29640506747729" lon="11.337820715046258"><ele>218.99999999999997</ele><time>2026-04-08T07:11:27.999Z</time></trkpt><trkpt lat="43.296476582992014" lon="11.33793623292993"><ele>218.99999999999997</ele><time>2026-04-08T07:11:28.999Z</time></trkpt><trkpt lat="43.29650911192256" lon="11.338069076599426"><ele>219.0</ele><time>2026-04-08T07:11:29.999Z</time></trkpt><trkpt lat="43.29651484016554" lon="11.338216863943634"><ele>219.0</ele><time>2026-04-08T07:11:30.999Z</time></trkpt><trkpt lat="43.2964805627669" lon="11.338359541818342"><ele>220.0</ele><time>2026-04-08T07:11:31.999Z</time></trkpt><trkpt lat="43.29641204510764" lon="11.338477226766571"><ele>220.99999999999997</ele><time>2026-04-08T07:11:32.999Z</time></trkpt><trkpt lat="43.29632487518848" lon="11.338551081819265"><ele>221.99999999999997</ele><time>2026-04-08T07:11:33.999Z</time></trkpt><trkpt lat="43.2962217038063" lon="11.338579526991467"><ele>223.0</ele><time>2026-04-08T07:11:34.999Z</time></trkpt><trkpt lat="43.29610572869662" lon="11.338566644139824"><ele>224.0</ele><time>2026-04-08T07:11:35.999Z</time></trkpt><trkpt lat="43.29598263086991" lon="11.338537341422217"><ele>224.0</ele><time>2026-04-08T07:11:36.999Z</time></trkpt><trkpt lat="43.29585423188653" lon="11.33856042127639"><ele>224.0</ele><time>2026-04-08T07:11:37.999Z</time></trkpt><trkpt lat="43.29572479989394" lon="11.338631385985149"><ele>224.0</ele><time>2026-04-08T07:11:38.999Z</time></trkpt><trkpt lat="43.295605072464745" lon="11.338721867079043"><ele>224.0</ele><time>2026-04-08T07:11:39.999Z</time></trkpt><trkpt lat="43.29550640192013" lon="11.33880900960452"><ele>223.5</ele><time>2026-04-08T07:11:40.999Z</time></trkpt><trkpt lat="43.29542102512019" lon="11.338913558563233"><ele>223.0</ele><time>2026-04-08T07:11:41.999Z</time></trkpt><trkpt lat="43.2953419481414" lon="11.33904185550115"><ele>222.5</ele><time>2026-04-08T07:11:42.999Z</time></trkpt><trkpt lat="43.29528436019504" lon="11.339186890316268"><ele>222.0</ele><time>2026-04-08T07:11:43.999Z</time></trkpt><trkpt lat="43.29524344229655" lon="11.339310017327078"><ele>222.0</ele><time>2026-04-08T07:11:44.999Z</time></trkpt><trkpt lat="43.29520382338496" lon="11.339432368811314"><ele>222.0</ele><time>2026-04-08T07:11:45.999Z</time></trkpt><trkpt lat="43.2951601343007" lon="11.339558049324935"><ele>222.0</ele><time>2026-04-08T07:11:46.999Z</time></trkpt><trkpt lat="43.29511460459139" lon="11.339692078247287"><ele>222.0</ele><time>2026-04-08T07:11:47.999Z</time></trkpt><trkpt lat="43.295077583131174" lon="11.339833834526734"><ele>222.0</ele><time>2026-04-08T07:11:48.999Z</time></trkpt><trkpt lat="43.29504819678" lon="11.339983071150561"><ele>224.5</ele><time>2026-04-08T07:11:49.999Z</time></trkpt><trkpt lat="43.29502881711159" lon="11.340140412385367"><ele>227.0</ele><time>2026-04-08T07:11:50.999Z</time></trkpt><trkpt lat="43.2950178359184" lon="11.34030238530018"><ele>229.5</ele><time>2026-04-08T07:11:51.999Z</time></trkpt><trkpt lat="43.29500556258981" lon="11.34046273457202"><ele>232.0</ele><time>2026-04-08T07:11:52.999Z</time></trkpt><trkpt lat="43.29499725005293" lon="11.340598926646852"><ele>232.8</ele><time>2026-04-08T07:11:53.999Z</time></trkpt><trkpt lat="43.294991161240844" lon="11.340735114325033"><ele>233.6</ele><time>2026-04-08T07:11:54.999Z</time></trkpt><trkpt lat="43.294994188114096" lon="11.340867125186971"><ele>234.40000000000003</ele><time>2026-04-08T07:11:55.999Z</time></trkpt><trkpt lat="43.295012575830135" lon="11.340976042107068"><ele>235.20000000000002</ele><time>2026-04-08T07:11:56.999Z</time></trkpt><trkpt lat="43.29504260975119" lon="11.341063568674311"><ele>236.0</ele><time>2026-04-08T07:11:57.999Z</time></trkpt><trkpt lat="43.2951318893202" lon="11.34119444605789"><ele>236.00000000000003</ele><time>2026-04-08T07:11:59.999Z</time></trkpt><trkpt lat="43.29520824834409" lon="11.341255723482181"><ele>236.0</ele><time>2026-04-08T07:12:00.999Z</time></trkpt><trkpt lat="43.295295859579504" lon="11.34131843814503"><ele>236.0</ele><time>2026-04-08T07:12:01.999Z</time></trkpt><trkpt lat="43.29537682798134" lon="11.341354612480142"><ele>236.0</ele><time>2026-04-08T07:12:02.999Z</time></trkpt><trkpt lat="43.29547343562457" lon="11.341380208494998"><ele>236.00000000000003</ele><time>2026-04-08T07:12:04.999Z</time></trkpt><trkpt lat="43.295544105998" lon="11.3413955459278"><ele>236.0</ele><time>2026-04-08T07:12:06.999Z</time></trkpt><trkpt lat="43.295610540791515" lon="11.34140413416273"><ele>237.8</ele><time>2026-04-08T07:12:08.999Z</time></trkpt><trkpt lat="43.29567284505422" lon="11.341427058846314"><ele>239.60000000000002</ele><time>2026-04-08T07:12:11Z</time></trkpt><trkpt lat="43.2957348443021" lon="11.341483711501422"><ele>241.4</ele><time>2026-04-08T07:12:13Z</time></trkpt><trkpt lat="43.29585961881048" lon="11.341508728185785"><ele>243.2</ele><time>2026-04-08T07:13:02Z</time></trkpt><trkpt lat="43.295938931619354" lon="11.341539654009477"><ele>245.0</ele><time>2026-04-08T07:13:04Z</time></trkpt><trkpt lat="43.29602001463707" lon="11.341394172482609"><ele>245.0</ele><time>2026-04-08T07:13:05Z</time></trkpt><trkpt lat="43.29605902181602" lon="11.341300736710073"><ele>245.0</ele><time>2026-04-08T07:13:06Z</time></trkpt><trkpt lat="43.296107165930145" lon="11.34118665913786"><ele>245.0</ele><time>2026-04-08T07:13:07Z</time></trkpt><trkpt lat="43.296147828440155" lon="11.341054622983018"><ele>245.0</ele><time>2026-04-08T07:13:08Z</time></trkpt><trkpt lat="43.29620844535077" lon="11.34092402670608"><ele>245.0</ele><time>2026-04-08T07:13:09Z</time></trkpt><trkpt lat="43.296276740138836" lon="11.34076853460426"><ele>245.0</ele><time>2026-04-08T07:13:10Z</time></trkpt><trkpt lat="43.29634183273059" lon="11.340620806397148"><ele>245.0</ele><time>2026-04-08T07:13:11Z</time></trkpt><trkpt lat="43.29639856481408" lon="11.340489682281722"><ele>245.0</ele><time>2026-04-08T07:13:12Z</time></trkpt><trkpt lat="43.296454819453636" lon="11.340364861843362"><ele>245.0</ele><time>2026-04-08T07:13:13Z</time></trkpt><trkpt lat="43.29651813113558" lon="11.340242321414332"><ele>244.25</ele><time>2026-04-08T07:13:14Z</time></trkpt><trkpt lat="43.29659142306938" lon="11.340117904012823"><ele>243.5</ele><time>2026-04-08T07:13:15Z</time></trkpt><trkpt lat="43.29667389746124" lon="11.339985702425368"><ele>242.75</ele><time>2026-04-08T07:13:16Z</time></trkpt><trkpt lat="43.29675310466841" lon="11.339864885577326"><ele>242.0</ele><time>2026-04-08T07:13:17Z</time></trkpt><trkpt lat="43.29682579296534" lon="11.33975755723021"><ele>241.5</ele><time>2026-04-08T07:13:18Z</time></trkpt><trkpt lat="43.29690415473129" lon="11.339648275392491"><ele>241.0</ele><time>2026-04-08T07:13:19Z</time></trkpt><trkpt lat="43.29698516381689" lon="11.339529864436345"><ele>240.5</ele><time>2026-04-08T07:13:19.999Z</time></trkpt><trkpt lat="43.29706849399383" lon="11.33941964888818"><ele>240.0</ele><time>2026-04-08T07:13:20.999Z</time></trkpt><trkpt lat="43.29715704972597" lon="11.339303990023163"><ele>240.0</ele><time>2026-04-08T07:13:21.999Z</time></trkpt><trkpt lat="43.29724970069611" lon="11.339184246079153"><ele>240.0</ele><time>2026-04-08T07:13:22.999Z</time></trkpt><trkpt lat="43.2973495194973" lon="11.339051598568028"><ele>240.0</ele><time>2026-04-08T07:13:23.999Z</time></trkpt><trkpt lat="43.297447529577646" lon="11.338917852564242"><ele>240.0</ele><time>2026-04-08T07:13:24.999Z</time></trkpt><trkpt lat="43.297555967326154" lon="11.338778834710805"><ele>240.25</ele><time>2026-04-08T07:13:25.999Z</time></trkpt><trkpt lat="43.29764993468428" lon="11.33864980502374"><ele>240.5</ele><time>2026-04-08T07:13:26.999Z</time></trkpt><trkpt lat="43.29773576858423" lon="11.338532395318337"><ele>240.75</ele><time>2026-04-08T07:13:27.999Z</time></trkpt><trkpt lat="43.29781073232977" lon="11.338424118184536"><ele>241.0</ele><time>2026-04-08T07:13:28.999Z</time></trkpt><trkpt lat="43.297888793157924" lon="11.338313221695369"><ele>241.0</ele><time>2026-04-08T07:13:29.999Z</time></trkpt><trkpt lat="43.297971602653234" lon="11.33819928964375"><ele>241.0</ele><time>2026-04-08T07:13:30.999Z</time></trkpt><trkpt lat="43.29806144474305" lon="11.338070346979004"><ele>241.0</ele><time>2026-04-08T07:13:31.999Z</time></trkpt><trkpt lat="43.29816207925256" lon="11.337930821863335"><ele>241.0</ele><time>2026-04-08T07:13:32.999Z</time></trkpt><trkpt lat="43.29826847563071" lon="11.337792468643906"><ele>241.75</ele><time>2026-04-08T07:13:33.999Z</time></trkpt><trkpt lat="43.29837493875834" lon="11.337704735029048"><ele>242.5</ele><time>2026-04-08T07:13:34.999Z</time></trkpt><trkpt lat="43.29848452721918" lon="11.337619102901561"><ele>243.25</ele><time>2026-04-08T07:13:35.999Z</time></trkpt><trkpt lat="43.29859711022555" lon="11.337544509848449"><ele>244.0</ele><time>2026-04-08T07:13:36.999Z</time></trkpt><trkpt lat="43.298720424378246" lon="11.337469080076028"><ele>244.0</ele><time>2026-04-08T07:13:37.999Z</time></trkpt><trkpt lat="43.29885238520117" lon="11.33739474963295"><ele>244.0</ele><time>2026-04-08T07:13:38.999Z</time></trkpt><trkpt lat="43.29899665313885" lon="11.337330700742548"><ele>244.0</ele><time>2026-04-08T07:13:39.999Z</time></trkpt><trkpt lat="43.29913621121908" lon="11.337287364611813"><ele>244.0</ele><time>2026-04-08T07:13:40.999Z</time></trkpt><trkpt lat="43.29925792783133" lon="11.337248182869269"><ele>244.0</ele><time>2026-04-08T07:13:41.999Z</time></trkpt><trkpt lat="43.299381783718204" lon="11.337220640861705"><ele>244.0</ele><time>2026-04-08T07:13:42.999Z</time></trkpt><trkpt lat="43.29951177535467" lon="11.337195953521897"><ele>244.0</ele><time>2026-04-08T07:13:43.999Z</time></trkpt><trkpt lat="43.299621699936615" lon="11.337184641360857"><ele>244.0</ele><time>2026-04-08T07:13:44.999Z</time></trkpt><trkpt lat="43.299712976101716" lon="11.337192031065387"><ele>244.66666666666666</ele><time>2026-04-08T07:13:45.999Z</time></trkpt><trkpt lat="43.299808305326465" lon="11.337199601428212"><ele>245.33333333333331</ele><time>2026-04-08T07:13:46.999Z</time></trkpt><trkpt lat="43.29989493248537" lon="11.33723231005744"><ele>246.0</ele><time>2026-04-08T07:13:47.999Z</time></trkpt><trkpt lat="43.29995822431086" lon="11.337244583717792"><ele>246.66666666666669</ele><time>2026-04-08T07:13:48.999Z</time></trkpt><trkpt lat="43.30007520131397" lon="11.337271194721449"><ele>247.33333333333334</ele><time>2026-04-08T07:13:50.999Z</time></trkpt><trkpt lat="43.30015122239019" lon="11.337306450970212"><ele>248.0</ele><time>2026-04-08T07:13:52.999Z</time></trkpt><trkpt lat="43.30021718418879" lon="11.337333169245053"><ele>248.00000000000003</ele><time>2026-04-08T07:14:23Z</time></trkpt><trkpt lat="43.30013626734051" lon="11.337267548331724"><ele>248.0</ele><time>2026-04-08T07:14:34Z</time></trkpt><trkpt lat="43.300053794180236" lon="11.337216944949482"><ele>248.0</ele><time>2026-04-08T07:14:35Z</time></trkpt><trkpt lat="43.299989665308786" lon="11.337192601460146"><ele>248.0</ele><time>2026-04-08T07:14:36Z</time></trkpt><trkpt lat="43.29992981532058" lon="11.337231123810373"><ele>248.00000000000003</ele><time>2026-04-08T07:14:38Z</time></trkpt><trkpt lat="43.29990305775912" lon="11.337364099060265"><ele>248.0</ele><time>2026-04-08T07:14:40Z</time></trkpt><trkpt lat="43.29990672087976" lon="11.337452193047117"><ele>249.2</ele><time>2026-04-08T07:14:41Z</time></trkpt><trkpt lat="43.29988617235717" lon="11.337534485861175"><ele>250.4</ele><time>2026-04-08T07:14:42Z</time></trkpt><trkpt lat="43.29986595866319" lon="11.337707768289775"><ele>251.59999999999997</ele><time>2026-04-08T07:14:44Z</time></trkpt><trkpt lat="43.29985333265375" lon="11.337813401803833"><ele>252.79999999999998</ele><time>2026-04-08T07:14:45Z</time></trkpt><trkpt lat="43.29985497587835" lon="11.337962853761464"><ele>254.0</ele><time>2026-04-08T07:14:47Z</time></trkpt><trkpt lat="43.299873526025365" lon="11.338100965170431"><ele>254.2</ele><time>2026-04-08T07:14:49Z</time></trkpt><trkpt lat="43.29995023236564" lon="11.338228608526617"><ele>254.39999999999998</ele><time>2026-04-08T07:14:51Z</time></trkpt><trkpt lat="43.29999027454487" lon="11.338372227806984"><ele>254.6</ele><time>2026-04-08T07:14:53Z</time></trkpt><trkpt lat="43.29998766397938" lon="11.33846020781408"><ele>254.8</ele><time>2026-04-08T07:14:54Z</time></trkpt><trkpt lat="43.29997906700701" lon="11.338637068706038"><ele>255.0</ele><time>2026-04-08T07:14:56Z</time></trkpt><trkpt lat="43.299964333531044" lon="11.33872739367531"><ele>255.0</ele><time>2026-04-08T07:14:57Z</time></trkpt><trkpt lat="43.29993989982692" lon="11.338809588594827"><ele>255.00000000000003</ele><time>2026-04-08T07:14:58Z</time></trkpt><trkpt lat="43.29991198373041" lon="11.338901247253315"><ele>255.0</ele><time>2026-04-08T07:14:59Z</time></trkpt><trkpt lat="43.29987563537394" lon="11.33899125134746"><ele>255.0</ele><time>2026-04-08T07:15:00Z</time></trkpt><trkpt lat="43.29982996156069" lon="11.339068527771882"><ele>255.00000000000003</ele><time>2026-04-08T07:15:01Z</time></trkpt><trkpt lat="43.29978513253036" lon="11.339145349345078"><ele>255.0</ele><time>2026-04-08T07:15:02Z</time></trkpt><trkpt lat="43.29973831055537" lon="11.339224728639872"><ele>255.0</ele><time>2026-04-08T07:15:03Z</time></trkpt><trkpt lat="43.2997022319801" lon="11.339300049585697"><ele>254.66666666666666</ele><time>2026-04-08T07:15:04Z</time></trkpt><trkpt lat="43.299680681042936" lon="11.339396266130612"><ele>254.33333333333331</ele><time>2026-04-08T07:15:05Z</time></trkpt><trkpt lat="43.29967780228618" lon="11.33950789206677"><ele>254.0</ele><time>2026-04-08T07:15:06Z</time></trkpt><trkpt lat="43.29968849143751" lon="11.339620918873331"><ele>253.66666666666666</ele><time>2026-04-08T07:15:07Z</time></trkpt><trkpt lat="43.299732291557234" lon="11.339733045334455"><ele>253.33333333333331</ele><time>2026-04-08T07:15:08Z</time></trkpt><trkpt lat="43.29977918699339" lon="11.33982786389765"><ele>253.0</ele><time>2026-04-08T07:15:09Z</time></trkpt><trkpt lat="43.299820530790655" lon="11.339924512995099"><ele>252.99999999999997</ele><time>2026-04-08T07:15:10Z</time></trkpt><trkpt lat="43.29985873058708" lon="11.340029224850861"><ele>253.0</ele><time>2026-04-08T07:15:11Z</time></trkpt><trkpt lat="43.299856243545" lon="11.3401417133979"><ele>253.0</ele><time>2026-04-08T07:15:12Z</time></trkpt><trkpt lat="43.299840796064544" lon="11.340248401438847"><ele>253.0</ele><time>2026-04-08T07:15:13Z</time></trkpt><trkpt lat="43.299812535913304" lon="11.340369990501307"><ele>252.99999999999997</ele><time>2026-04-08T07:15:14Z</time></trkpt><trkpt lat="43.29976798829885" lon="11.340478871941011"><ele>253.0</ele><time>2026-04-08T07:15:15Z</time></trkpt><trkpt lat="43.29972159575964" lon="11.340576743189468"><ele>252.4</ele><time>2026-04-08T07:15:16Z</time></trkpt><trkpt lat="43.29968222841693" lon="11.340659572109043"><ele>251.8</ele><time>2026-04-08T07:15:17Z</time></trkpt><trkpt lat="43.29963446889914" lon="11.340755900968752"><ele>251.2</ele><time>2026-04-08T07:15:20Z</time></trkpt><trkpt lat="43.299691850523914" lon="11.340962338096315"><ele>250.6</ele><time>2026-04-08T07:15:23Z</time></trkpt><trkpt lat="43.29974999265971" lon="11.341003143251928"><ele>250.0</ele><time>2026-04-08T07:15:24Z</time></trkpt><trkpt lat="43.29982380211966" lon="11.34106681787945"><ele>249.99999999999997</ele><time>2026-04-08T07:15:25.999Z</time></trkpt><trkpt lat="43.29988633471466" lon="11.341127724392761"><ele>250.0</ele><time>2026-04-08T07:15:28.999Z</time></trkpt><trkpt lat="43.299945339124065" lon="11.341172193049802"><ele>250.0</ele><time>2026-04-08T07:15:32.999Z</time></trkpt><trkpt lat="43.300020188651246" lon="11.34120137355657"><ele>250.0</ele><time>2026-04-08T07:15:36.999Z</time></trkpt><trkpt lat="43.30008200248841" lon="11.341236952097947"><ele>249.99999999999997</ele><time>2026-04-08T07:15:39.999Z</time></trkpt><trkpt lat="43.30016671271067" lon="11.341297509578816"><ele>250.0</ele><time>2026-04-08T07:15:43.999Z</time></trkpt><trkpt lat="43.300260282537465" lon="11.341352360839055"><ele>249.99999999999997</ele><time>2026-04-08T07:15:45.999Z</time></trkpt><trkpt lat="43.300329922375035" lon="11.341393632063035"><ele>250.0</ele><time>2026-04-08T07:15:47.999Z</time></trkpt><trkpt lat="43.30040258821087" lon="11.341407020584766"><ele>250.0</ele><time>2026-04-08T07:15:50.999Z</time></trkpt><trkpt lat="43.30048854980757" lon="11.3413843605009"><ele>250.0</ele><time>2026-04-08T07:15:54.999Z</time></trkpt><trkpt lat="43.300542422042795" lon="11.341317803399821"><ele>249.99999999999997</ele><time>2026-04-08T07:15:56.999Z</time></trkpt><trkpt lat="43.300600958079485" lon="11.341214055725434"><ele>250.0</ele><time>2026-04-08T07:15:58.999Z</time></trkpt><trkpt lat="43.300659796019886" lon="11.341134394182395"><ele>249.99999999999997</ele><time>2026-04-08T07:16:00.999Z</time></trkpt><trkpt lat="43.30072448556935" lon="11.341120148314555"><ele>250.0</ele><time>2026-04-08T07:16:03.999Z</time></trkpt><trkpt lat="43.30078179378421" lon="11.341077271304153"><ele>250.0</ele><time>2026-04-08T07:16:09.999Z</time></trkpt><trkpt lat="43.30070814316267" lon="11.341124597802418"><ele>250.0</ele><time>2026-04-08T07:16:15.999Z</time></trkpt><trkpt lat="43.30062764959095" lon="11.341221966013151"><ele>249.99999999999997</ele><time>2026-04-08T07:16:17.999Z</time></trkpt><trkpt lat="43.30053672576023" lon="11.341201146072919"><ele>250.0</ele><time>2026-04-08T07:16:18.999Z</time></trkpt><trkpt lat="43.300526511282605" lon="11.341350699480227"><ele>249.99999999999997</ele><time>2026-04-08T07:16:19.999Z</time></trkpt><trkpt lat="43.30045550046743" lon="11.341410498288756"><ele>250.0</ele><time>2026-04-08T07:16:21.999Z</time></trkpt><trkpt lat="43.30037259725594" lon="11.341402259456867"><ele>250.0</ele><time>2026-04-08T07:16:24Z</time></trkpt><trkpt lat="43.30025535884955" lon="11.341338675014756"><ele>250.0</ele><time>2026-04-08T07:16:26Z</time></trkpt><trkpt lat="43.30018731019959" lon="11.34130092659421"><ele>249.99999999999997</ele><time>2026-04-08T07:16:27Z</time></trkpt><trkpt lat="43.3001303495934" lon="11.341261052982679"><ele>250.0</ele><time>2026-04-08T07:16:28Z</time></trkpt><trkpt lat="43.30006441823205" lon="11.34123301965186"><ele>249.99999999999997</ele><time>2026-04-08T07:16:29Z</time></trkpt><trkpt lat="43.2999842769007" lon="11.341195243293344"><ele>250.0</ele><time>2026-04-08T07:16:31Z</time></trkpt><trkpt lat="43.29991924162608" lon="11.341172100842627"><ele>250.0</ele><time>2026-04-08T07:16:33Z</time></trkpt><trkpt lat="43.2998604203333" lon="11.341092761189284"><ele>250.0</ele><time>2026-04-08T07:16:59Z</time></trkpt><trkpt lat="43.299772909691455" lon="11.341009324165155"><ele>249.99999999999997</ele><time>2026-04-08T07:17:01Z</time></trkpt><trkpt lat="43.29971612869884" lon="11.340949139231219"><ele>250.0</ele><time>2026-04-08T07:17:03Z</time></trkpt><trkpt lat="43.29968141523565" lon="11.340866810936843"><ele>250.49999999999997</ele><time>2026-04-08T07:17:05Z</time></trkpt><trkpt lat="43.29966930741288" lon="11.340763200850787"><ele>251.0</ele><time>2026-04-08T07:17:07Z</time></trkpt><trkpt lat="43.29971305218369" lon="11.340650197312893"><ele>251.5</ele><time>2026-04-08T07:18:04.999Z</time></trkpt><trkpt lat="43.29974903229955" lon="11.340571764995198"><ele>252.0</ele><time>2026-04-08T07:18:05.999Z</time></trkpt><trkpt lat="43.29979712247263" lon="11.340471189373503"><ele>252.49999999999997</ele><time>2026-04-08T07:18:06.999Z</time></trkpt><trkpt lat="43.29983250597585" lon="11.340383475334894"><ele>253.0</ele><time>2026-04-08T07:18:07.999Z</time></trkpt><trkpt lat="43.29985363796967" lon="11.340284422141288"><ele>253.0</ele><time>2026-04-08T07:18:08.999Z</time></trkpt><trkpt lat="43.299872256762384" lon="11.34016750231341"><ele>253.0</ele><time>2026-04-08T07:18:09.999Z</time></trkpt><trkpt lat="43.29987331750022" lon="11.340038152221595"><ele>253.0</ele><time>2026-04-08T07:18:10.999Z</time></trkpt><trkpt lat="43.299864335938" lon="11.339909627937848"><ele>253.0</ele><time>2026-04-08T07:18:11.999Z</time></trkpt><trkpt lat="43.299800718118306" lon="11.33979434873412"><ele>253.0</ele><time>2026-04-08T07:18:12.999Z</time></trkpt><trkpt lat="43.29975179142045" lon="11.339692736046711"><ele>253.66666666666666</ele><time>2026-04-08T07:18:13.999Z</time></trkpt><trkpt lat="43.29970817631451" lon="11.339582149283373"><ele>254.33333333333331</ele><time>2026-04-08T07:18:14.999Z</time></trkpt><trkpt lat="43.29968969950466" lon="11.339478344512996"><ele>255.0</ele><time>2026-04-08T07:18:15.999Z</time></trkpt><trkpt lat="43.29971483913727" lon="11.339383719994274"><ele>255.66666666666669</ele><time>2026-04-08T07:18:16.999Z</time></trkpt><trkpt lat="43.29972835068728" lon="11.339286749327764"><ele>256.33333333333337</ele><time>2026-04-08T07:18:17.999Z</time></trkpt><trkpt lat="43.2997876049584" lon="11.339210336422957"><ele>257.0</ele><time>2026-04-08T07:18:18.999Z</time></trkpt><trkpt lat="43.29983988985364" lon="11.339124560346027"><ele>257.0</ele><time>2026-04-08T07:18:19.999Z</time></trkpt><trkpt lat="43.299881411811924" lon="11.339026401939481"><ele>257.0</ele><time>2026-04-08T07:18:20.999Z</time></trkpt><trkpt lat="43.29993804761437" lon="11.338934951269646"><ele>257.0</ele><time>2026-04-08T07:18:21.999Z</time></trkpt><trkpt lat="43.29995995815728" lon="11.338818914289565"><ele>257.0</ele><time>2026-04-08T07:18:22.999Z</time></trkpt><trkpt lat="43.29999521571925" lon="11.338696431639763"><ele>257.0</ele><time>2026-04-08T07:18:23.999Z</time></trkpt><trkpt lat="43.30000812810896" lon="11.33860423883558"><ele>257.0</ele><time>2026-04-08T07:18:24.999Z</time></trkpt><trkpt lat="43.30000690976894" lon="11.338505825952671"><ele>256.6666666666667</ele><time>2026-04-08T07:18:25.999Z</time></trkpt><trkpt lat="43.30001884971383" lon="11.338400327630172"><ele>256.33333333333337</ele><time>2026-04-08T07:18:26.999Z</time></trkpt><trkpt lat="43.300006223646385" lon="11.338286298433223"><ele>256.0</ele><time>2026-04-08T07:18:27.999Z</time></trkpt><trkpt lat="43.299967720611896" lon="11.33817314649079"><ele>255.66666666666669</ele><time>2026-04-08T07:18:29Z</time></trkpt><trkpt lat="43.29991256801504" lon="11.338106400086744"><ele>255.33333333333334</ele><time>2026-04-08T07:18:30Z</time></trkpt><trkpt lat="43.29987255552042" lon="11.33803796575994"><ele>255.0</ele><time>2026-04-08T07:18:31Z</time></trkpt><trkpt lat="43.29985923923975" lon="11.337914083008137"><ele>254.83333333333334</ele><time>2026-04-08T07:18:33Z</time></trkpt><trkpt lat="43.299882219027516" lon="11.337823570260458"><ele>254.66666666666669</ele><time>2026-04-08T07:18:34Z</time></trkpt><trkpt lat="43.29990186072458" lon="11.337717766799107"><ele>254.5</ele><time>2026-04-08T07:18:35Z</time></trkpt><trkpt lat="43.29992313239112" lon="11.337602396895427"><ele>254.33333333333334</ele><time>2026-04-08T07:18:36Z</time></trkpt><trkpt lat="43.29993911904003" lon="11.337503836851305"><ele>254.16666666666669</ele><time>2026-04-08T07:18:37Z</time></trkpt><trkpt lat="43.29993176185535" lon="11.33736322641342"><ele>254.0</ele><time>2026-04-08T07:18:39Z</time></trkpt><trkpt lat="43.29995013278186" lon="11.337270495683173"><ele>254.0</ele><time>2026-04-08T07:18:42Z</time></trkpt><trkpt lat="43.30006307467484" lon="11.337239866240873"><ele>253.99999999999997</ele><time>2026-04-08T07:18:50Z</time></trkpt><trkpt lat="43.30015314441557" lon="11.337277705075781"><ele>253.99999999999997</ele><time>2026-04-08T07:18:51Z</time></trkpt><trkpt lat="43.300250649075245" lon="11.337305143406931"><ele>254.0</ele><time>2026-04-08T07:18:52Z</time></trkpt><trkpt lat="43.3003560487964" lon="11.337327886854277"><ele>254.0</ele><time>2026-04-08T07:18:53Z</time></trkpt><trkpt lat="43.30045112922874" lon="11.337362140331175"><ele>254.0</ele><time>2026-04-08T07:18:54Z</time></trkpt><trkpt lat="43.30055186263709" lon="11.337412039507898"><ele>253.99999999999997</ele><time>2026-04-08T07:18:55Z</time></trkpt><trkpt lat="43.30065810740921" lon="11.337482546800368"><ele>253.99999999999997</ele><time>2026-04-08T07:18:56Z</time></trkpt><trkpt lat="43.30075867101916" lon="11.337558941078855"><ele>254.0</ele><time>2026-04-08T07:18:57Z</time></trkpt><trkpt lat="43.30085129678447" lon="11.337634234027915"><ele>254.0</ele><time>2026-04-08T07:18:58Z</time></trkpt><trkpt lat="43.30094557704763" lon="11.337714135135519"><ele>253.75</ele><time>2026-04-08T07:18:59Z</time></trkpt><trkpt lat="43.3010462849294" lon="11.337784346723218"><ele>253.5</ele><time>2026-04-08T07:19:00Z</time></trkpt><trkpt lat="43.301152717210705" lon="11.337860399335758"><ele>253.25</ele><time>2026-04-08T07:19:01Z</time></trkpt><trkpt lat="43.30126095203095" lon="11.337922347132547"><ele>253.0</ele><time>2026-04-08T07:19:02Z</time></trkpt><trkpt lat="43.30137781508713" lon="11.337971587717737"><ele>253.75</ele><time>2026-04-08T07:19:03Z</time></trkpt><trkpt lat="43.30149899803085" lon="11.338015272324055"><ele>254.5</ele><time>2026-04-08T07:19:04Z</time></trkpt><trkpt lat="43.30162392875365" lon="11.338042863275"><ele>255.25</ele><time>2026-04-08T07:19:05Z</time></trkpt><trkpt lat="43.30175255942549" lon="11.33804609483429"><ele>256.0</ele><time>2026-04-08T07:19:06Z</time></trkpt><trkpt lat="43.30188025538054" lon="11.338028013030025"><ele>256.0</ele><time>2026-04-08T07:19:07Z</time></trkpt><trkpt lat="43.30201867113496" lon="11.337995687048348"><ele>256.0</ele><time>2026-04-08T07:19:08Z</time></trkpt><trkpt lat="43.30215169878635" lon="11.337960351873999"><ele>256.0</ele><time>2026-04-08T07:19:09Z</time></trkpt><trkpt lat="43.30227159974463" lon="11.337935018607814"><ele>256.0</ele><time>2026-04-08T07:19:10Z</time></trkpt><trkpt lat="43.30237965129772" lon="11.337900524063876"><ele>259.0</ele><time>2026-04-08T07:19:11Z</time></trkpt><trkpt lat="43.302483846529306" lon="11.337850873616409"><ele>262.0</ele><time>2026-04-08T07:19:12Z</time></trkpt><trkpt lat="43.30259466897086" lon="11.337801455473494"><ele>265.0</ele><time>2026-04-08T07:19:13Z</time></trkpt><trkpt lat="43.30269243615347" lon="11.33769177553434"><ele>268.0</ele><time>2026-04-08T07:19:14Z</time></trkpt><trkpt lat="43.30280716153045" lon="11.337602660533609"><ele>268.0</ele><time>2026-04-08T07:19:15Z</time></trkpt><trkpt lat="43.302933688611496" lon="11.337519318621458"><ele>268.0</ele><time>2026-04-08T07:19:16Z</time></trkpt><trkpt lat="43.303055041161905" lon="11.3374457664974"><ele>268.0</ele><time>2026-04-08T07:19:17Z</time></trkpt><trkpt lat="43.303158616961824" lon="11.337390678951948"><ele>268.0</ele><time>2026-04-08T07:19:18Z</time></trkpt><trkpt lat="43.30326378687038" lon="11.33733569055848"><ele>268.5</ele><time>2026-04-08T07:19:19Z</time></trkpt><trkpt lat="43.3033759502647" lon="11.33727576876162"><ele>269.0</ele><time>2026-04-08T07:19:20Z</time></trkpt><trkpt lat="43.30349790842215" lon="11.337231077620817"><ele>269.5</ele><time>2026-04-08T07:19:21Z</time></trkpt><trkpt lat="43.3036217468195" lon="11.337177784785677"><ele>270.0</ele><time>2026-04-08T07:19:22Z</time></trkpt><trkpt lat="43.303744122251935" lon="11.33712528440138"><ele>270.25</ele><time>2026-04-08T07:19:23Z</time></trkpt><trkpt lat="43.30385752025189" lon="11.337088909065647"><ele>270.5</ele><time>2026-04-08T07:19:24Z</time></trkpt><trkpt lat="43.303972878937586" lon="11.337049400398607"><ele>270.75</ele><time>2026-04-08T07:19:25Z</time></trkpt><trkpt lat="43.3040833791229" lon="11.33702508561329"><ele>271.0</ele><time>2026-04-08T07:19:26Z</time></trkpt><trkpt lat="43.3042040716444" lon="11.33702057149569"><ele>271.0</ele><time>2026-04-08T07:19:27Z</time></trkpt><trkpt lat="43.30431970354368" lon="11.337028474385967"><ele>271.0</ele><time>2026-04-08T07:19:28Z</time></trkpt><trkpt lat="43.30442728711604" lon="11.337118168171653"><ele>271.0</ele><time>2026-04-08T07:19:29Z</time></trkpt><trkpt lat="43.304548692307435" lon="11.337209577051896"><ele>271.0</ele><time>2026-04-08T07:19:30Z</time></trkpt><trkpt lat="43.30467590425449" lon="11.33729636530892"><ele>273.0</ele><time>2026-04-08T07:19:31Z</time></trkpt><trkpt lat="43.304809474593526" lon="11.337393595680686"><ele>275.0</ele><time>2026-04-08T07:19:31.999Z</time></trkpt><trkpt lat="43.304925279689435" lon="11.33747055578993"><ele>277.0</ele><time>2026-04-08T07:19:32.999Z</time></trkpt><trkpt lat="43.305025444334525" lon="11.337527079951478"><ele>279.0</ele><time>2026-04-08T07:19:33.999Z</time></trkpt><trkpt lat="43.30512745586794" lon="11.337590411722513"><ele>279.0</ele><time>2026-04-08T07:19:34.999Z</time></trkpt><trkpt lat="43.305231355207546" lon="11.33766854579201"><ele>279.0</ele><time>2026-04-08T07:19:35.999Z</time></trkpt><trkpt lat="43.30530349176615" lon="11.337765408811043"><ele>279.0</ele><time>2026-04-08T07:19:36.999Z</time></trkpt><trkpt lat="43.30537065138702" lon="11.337866795784839"><ele>279.0</ele><time>2026-04-08T07:19:37.999Z</time></trkpt><trkpt lat="43.30544076899181" lon="11.337968405762478"><ele>279.0</ele><time>2026-04-08T07:19:38.999Z</time></trkpt><trkpt lat="43.30551504287627" lon="11.338072896331354"><ele>279.25</ele><time>2026-04-08T07:19:39.999Z</time></trkpt><trkpt lat="43.30559606137996" lon="11.338181182444702"><ele>279.5</ele><time>2026-04-08T07:19:40.999Z</time></trkpt><trkpt lat="43.3056848703581" lon="11.338286323290502"><ele>279.75</ele><time>2026-04-08T07:19:41.999Z</time></trkpt><trkpt lat="43.30576368989271" lon="11.338395843203077"><ele>280.0</ele><time>2026-04-08T07:19:42.999Z</time></trkpt><trkpt lat="43.30584873521632" lon="11.338512680383724"><ele>280.0</ele><time>2026-04-08T07:19:43.999Z</time></trkpt><trkpt lat="43.30593262679687" lon="11.338617047750896"><ele>280.0</ele><time>2026-04-08T07:19:44.999Z</time></trkpt><trkpt lat="43.30600585896856" lon="11.338718058549462"><ele>280.0</ele><time>2026-04-08T07:19:45.999Z</time></trkpt><trkpt lat="43.306083946184316" lon="11.338814663395834"><ele>280.0</ele><time>2026-04-08T07:19:46.999Z</time></trkpt><trkpt lat="43.306169393601" lon="11.3389102230513"><ele>280.0</ele><time>2026-04-08T07:19:47.999Z</time></trkpt><trkpt lat="43.306257706288164" lon="11.338991596716497"><ele>280.2</ele><time>2026-04-08T07:19:48.999Z</time></trkpt><trkpt lat="43.30634692166919" lon="11.339041120928847"><ele>280.4</ele><time>2026-04-08T07:19:49.999Z</time></trkpt><trkpt lat="43.30644080381352" lon="11.33910011148138"><ele>280.6</ele><time>2026-04-08T07:19:50.999Z</time></trkpt><trkpt lat="43.30653903065768" lon="11.339140594770749"><ele>280.8</ele><time>2026-04-08T07:19:51.999Z</time></trkpt><trkpt lat="43.306630446761616" lon="11.339174829437072"><ele>281.0</ele><time>2026-04-08T07:19:52.999Z</time></trkpt><trkpt lat="43.306701921088234" lon="11.3391863461977"><ele>281.0</ele><time>2026-04-08T07:19:53.999Z</time></trkpt><trkpt lat="43.3067673223103" lon="11.339206862162966"><ele>281.0</ele><time>2026-04-08T07:19:54.999Z</time></trkpt><trkpt lat="43.306838363126545" lon="11.339261060194536"><ele>281.0</ele><time>2026-04-08T07:19:56.999Z</time></trkpt><trkpt lat="43.306753189642826" lon="11.339365496216013"><ele>281.0</ele><time>2026-04-08T07:20:01.999Z</time></trkpt><trkpt lat="43.30672529683938" lon="11.3394806763239"><ele>281.0</ele><time>2026-04-08T07:20:02.999Z</time></trkpt><trkpt lat="43.30667021230854" lon="11.339533460233838"><ele>281.0</ele><time>2026-04-08T07:20:03.999Z</time></trkpt><trkpt lat="43.306624266795446" lon="11.339603286847723"><ele>281.0</ele><time>2026-04-08T07:20:04.999Z</time></trkpt><trkpt lat="43.3065763765646" lon="11.339692827566758"><ele>281.0</ele><time>2026-04-08T07:20:05.999Z</time></trkpt><trkpt lat="43.30651579298166" lon="11.339792839041392"><ele>281.0</ele><time>2026-04-08T07:20:06.999Z</time></trkpt><trkpt lat="43.30646126250675" lon="11.339878061025763"><ele>281.0</ele><time>2026-04-08T07:20:07.999Z</time></trkpt><trkpt lat="43.30641785301821" lon="11.339949856097187"><ele>281.0</ele><time>2026-04-08T07:20:08.999Z</time></trkpt><trkpt lat="43.30633034126811" lon="11.340030586697324"><ele>281.0</ele><time>2026-04-08T07:20:10.999Z</time></trkpt><trkpt lat="43.30627079931251" lon="11.340143313399047"><ele>280.2</ele><time>2026-04-08T07:20:12.999Z</time></trkpt><trkpt lat="43.30620464968147" lon="11.340257050586"><ele>279.40000000000003</ele><time>2026-04-08T07:20:14.999Z</time></trkpt><trkpt lat="43.306118954834155" lon="11.340373006525256"><ele>278.6</ele><time>2026-04-08T07:20:16.999Z</time></trkpt><trkpt lat="43.30607064646286" lon="11.340443420160543"><ele>277.8</ele><time>2026-04-08T07:20:17.999Z</time></trkpt><trkpt lat="43.30601795596006" lon="11.340521205216984"><ele>277.0</ele><time>2026-04-08T07:20:18.999Z</time></trkpt><trkpt lat="43.30596214174674" lon="11.340607129091145"><ele>277.0</ele><time>2026-04-08T07:20:19.999Z</time></trkpt><trkpt lat="43.30590410079546" lon="11.340698727357749"><ele>277.0</ele><time>2026-04-08T07:20:20.999Z</time></trkpt><trkpt lat="43.305839262463856" lon="11.340790420839099"><ele>277.0</ele><time>2026-04-08T07:20:21.999Z</time></trkpt><trkpt lat="43.30576541759532" lon="11.340868701974031"><ele>277.0</ele><time>2026-04-08T07:20:22.999Z</time></trkpt><trkpt lat="43.30569462708462" lon="11.340951339636092"><ele>277.0</ele><time>2026-04-08T07:20:23.999Z</time></trkpt><trkpt lat="43.305629071347134" lon="11.341024662941038"><ele>276.4</ele><time>2026-04-08T07:20:24.999Z</time></trkpt><trkpt lat="43.30555238656525" lon="11.341110323101447"><ele>275.79999999999995</ele><time>2026-04-08T07:20:25.999Z</time></trkpt><trkpt lat="43.305474506822264" lon="11.341193349973764"><ele>275.2</ele><time>2026-04-08T07:20:26.999Z</time></trkpt><trkpt lat="43.3054029084047" lon="11.341265290421486"><ele>274.59999999999997</ele><time>2026-04-08T07:20:27.999Z</time></trkpt><trkpt lat="43.30533113688526" lon="11.341336756912389"><ele>274.0</ele><time>2026-04-08T07:20:28.999Z</time></trkpt><trkpt lat="43.30524609068589" lon="11.341422109861242"><ele>273.4</ele><time>2026-04-08T07:20:29.999Z</time></trkpt><trkpt lat="43.30516066631437" lon="11.341508431457555"><ele>272.79999999999995</ele><time>2026-04-08T07:20:30.999Z</time></trkpt><trkpt lat="43.30507758475893" lon="11.341590914123037"><ele>272.20000000000005</ele><time>2026-04-08T07:20:31.999Z</time></trkpt><trkpt lat="43.30501973905236" lon="11.341688896741838"><ele>271.6</ele><time>2026-04-08T07:20:32.999Z</time></trkpt><trkpt lat="43.30496709616175" lon="11.34179689723122"><ele>271.0</ele><time>2026-04-08T07:20:33.999Z</time></trkpt><trkpt lat="43.304907128935106" lon="11.341921880645723"><ele>271.0</ele><time>2026-04-08T07:20:35Z</time></trkpt><trkpt lat="43.30485251579727" lon="11.342038363795208"><ele>271.0</ele><time>2026-04-08T07:20:36Z</time></trkpt><trkpt lat="43.304803886079455" lon="11.342144446667907"><ele>271.0</ele><time>2026-04-08T07:20:37Z</time></trkpt><trkpt lat="43.30476463467118" lon="11.342241189379989"><ele>271.0</ele><time>2026-04-08T07:20:38Z</time></trkpt><trkpt lat="43.30473519119121" lon="11.342324773049667"><ele>271.0</ele><time>2026-04-08T07:20:39Z</time></trkpt><trkpt lat="43.30470940090769" lon="11.342405188648112"><ele>271.0</ele><time>2026-04-08T07:20:40Z</time></trkpt><trkpt lat="43.30467942697147" lon="11.34250530826077"><ele>269.8333333333333</ele><time>2026-04-08T07:20:41Z</time></trkpt><trkpt lat="43.30464060857498" lon="11.342611266515021"><ele>268.66666666666663</ele><time>2026-04-08T07:20:42Z</time></trkpt><trkpt lat="43.30458476487941" lon="11.342680043161407"><ele>267.5</ele><time>2026-04-08T07:20:43Z</time></trkpt><trkpt lat="43.30453224212565" lon="11.342745679066514"><ele>266.3333333333333</ele><time>2026-04-08T07:20:44Z</time></trkpt><trkpt lat="43.3044755278524" lon="11.34283645015271"><ele>265.1666666666667</ele><time>2026-04-08T07:20:45Z</time></trkpt><trkpt lat="43.30440630766595" lon="11.342918045738136"><ele>264.0</ele><time>2026-04-08T07:20:46Z</time></trkpt><trkpt lat="43.30433189607412" lon="11.343002138420337"><ele>263.3333333333333</ele><time>2026-04-08T07:20:47Z</time></trkpt><trkpt lat="43.30426004241941" lon="11.343088954118171"><ele>262.6666666666667</ele><time>2026-04-08T07:20:48Z</time></trkpt><trkpt lat="43.304192007642165" lon="11.343179602040335"><ele>262.0</ele><time>2026-04-08T07:20:49Z</time></trkpt><trkpt lat="43.30413857044568" lon="11.343269593011923"><ele>261.33333333333337</ele><time>2026-04-08T07:20:50Z</time></trkpt><trkpt lat="43.304091276115415" lon="11.343352792093798"><ele>260.6666666666667</ele><time>2026-04-08T07:20:51Z</time></trkpt><trkpt lat="43.30405714049281" lon="11.343438354626391"><ele>260.0</ele><time>2026-04-08T07:20:52Z</time></trkpt><trkpt lat="43.304025929624" lon="11.343528871233392"><ele>260.0</ele><time>2026-04-08T07:20:53Z</time></trkpt><trkpt lat="43.304001808529335" lon="11.343651622314562"><ele>260.0</ele><time>2026-04-08T07:20:54Z</time></trkpt><trkpt lat="43.30399880172122" lon="11.343794465656213"><ele>260.0</ele><time>2026-04-08T07:20:55Z</time></trkpt><trkpt lat="43.30396905640649" lon="11.34394567880236"><ele>260.0</ele><time>2026-04-08T07:20:56Z</time></trkpt><trkpt lat="43.30396029418188" lon="11.344105321766678"><ele>260.0</ele><time>2026-04-08T07:20:57Z</time></trkpt><trkpt lat="43.3039350543501" lon="11.344240809520413"><ele>259.6</ele><time>2026-04-08T07:20:58Z</time></trkpt><trkpt lat="43.30388264480671" lon="11.344348475538776"><ele>259.2</ele><time>2026-04-08T07:20:59Z</time></trkpt><trkpt lat="43.30385036463952" lon="11.344440659889575"><ele>258.8</ele><time>2026-04-08T07:21:00Z</time></trkpt><trkpt lat="43.30380575375105" lon="11.34455937071477"><ele>258.4</ele><time>2026-04-08T07:21:01Z</time></trkpt><trkpt lat="43.303759205653826" lon="11.344678237310065"><ele>258.0</ele><time>2026-04-08T07:21:02Z</time></trkpt><trkpt lat="43.303714140728985" lon="11.34479297747299"><ele>258.0</ele><time>2026-04-08T07:21:03Z</time></trkpt><trkpt lat="43.30368892821579" lon="11.344897824725205"><ele>258.0</ele><time>2026-04-08T07:21:04Z</time></trkpt><trkpt lat="43.303651889056134" lon="11.344995410021859"><ele>258.0</ele><time>2026-04-08T07:21:05Z</time></trkpt><trkpt lat="43.30360201066247" lon="11.345096832075502"><ele>258.0</ele><time>2026-04-08T07:21:06Z</time></trkpt><trkpt lat="43.30356835621498" lon="11.345216614971577"><ele>258.0</ele><time>2026-04-08T07:21:07Z</time></trkpt><trkpt lat="43.303530751298126" lon="11.345350483763097"><ele>258.0</ele><time>2026-04-08T07:21:08Z</time></trkpt><trkpt lat="43.30348292746658" lon="11.345490087546013"><ele>258.2</ele><time>2026-04-08T07:21:09Z</time></trkpt><trkpt lat="43.30343579400615" lon="11.345632060372214"><ele>258.4</ele><time>2026-04-08T07:21:10Z</time></trkpt><trkpt lat="43.30339951820431" lon="11.34576179807847"><ele>258.59999999999997</ele><time>2026-04-08T07:21:11Z</time></trkpt><trkpt lat="43.30335601270917" lon="11.345880374606876"><ele>258.8</ele><time>2026-04-08T07:21:12Z</time></trkpt><trkpt lat="43.303324244216185" lon="11.345991952894934"><ele>259.0</ele><time>2026-04-08T07:21:13Z</time></trkpt><trkpt lat="43.30330008507784" lon="11.34608467507834"><ele>259.0</ele><time>2026-04-08T07:21:14Z</time></trkpt><trkpt lat="43.30324213632945" lon="11.346217027516367"><ele>259.0</ele><time>2026-04-08T07:21:16Z</time></trkpt><trkpt lat="43.303272154942356" lon="11.346393349055875"><ele>259.0</ele><time>2026-04-08T07:21:18Z</time></trkpt><trkpt lat="43.303259500200554" lon="11.346554595973444"><ele>259.0</ele><time>2026-04-08T07:21:20Z</time></trkpt><trkpt lat="43.30324688092384" lon="11.346650686738752"><ele>259.0</ele><time>2026-04-08T07:21:21Z</time></trkpt><trkpt lat="43.30322044779846" lon="11.346781363314877"><ele>258.4</ele><time>2026-04-08T07:21:22Z</time></trkpt><trkpt lat="43.30317732964795" lon="11.346911242178242"><ele>257.79999999999995</ele><time>2026-04-08T07:21:23Z</time></trkpt><trkpt lat="43.303137767941934" lon="11.34702560736314"><ele>257.20000000000005</ele><time>2026-04-08T07:21:24Z</time></trkpt><trkpt lat="43.30310423531607" lon="11.347115947214565"><ele>256.6</ele><time>2026-04-08T07:21:25Z</time></trkpt><trkpt lat="43.303078778015454" lon="11.347204110154642"><ele>256.0</ele><time>2026-04-08T07:21:26Z</time></trkpt><trkpt lat="43.303039243498844" lon="11.34735022923176"><ele>255.33333333333331</ele><time>2026-04-08T07:21:28Z</time></trkpt><trkpt lat="43.303018421493235" lon="11.347465870987918"><ele>254.66666666666666</ele><time>2026-04-08T07:21:30Z</time></trkpt><trkpt lat="43.302995141927305" lon="11.347576929906031"><ele>254.0</ele><time>2026-04-08T07:21:32Z</time></trkpt><trkpt lat="43.30296364940931" lon="11.347664748768246"><ele>253.33333333333331</ele><time>2026-04-08T07:21:34Z</time></trkpt><trkpt lat="43.302938626470336" lon="11.347757842591294"><ele>252.66666666666666</ele><time>2026-04-08T07:21:37Z</time></trkpt><trkpt lat="43.30291604027504" lon="11.347846369284357"><ele>252.0</ele><time>2026-04-08T07:21:40.999Z</time></trkpt><trkpt lat="43.30287684938997" lon="11.347927789506224"><ele>252.0</ele><time>2026-04-08T07:21:44.999Z</time></trkpt><trkpt lat="43.302853200429126" lon="11.348008638047386"><ele>252.0</ele><time>2026-04-08T07:21:51.999Z</time></trkpt><trkpt lat="43.30284856798239" lon="11.347917168128076"><ele>252.0</ele><time>2026-04-08T07:23:07Z</time></trkpt><trkpt lat="43.302706662245484" lon="11.347829081450021"><ele>252.0</ele><time>2026-04-08T07:23:08Z</time></trkpt><trkpt lat="43.30262401760397" lon="11.347777253319787"><ele>252.0</ele><time>2026-04-08T07:23:10Z</time></trkpt><trkpt lat="43.302558237046306" lon="11.347732566792399"><ele>252.0</ele><time>2026-04-08T07:23:12Z</time></trkpt><trkpt lat="43.30247707505462" lon="11.34773599495353"><ele>252.0</ele><time>2026-04-08T07:23:14Z</time></trkpt><trkpt lat="43.30240640361377" lon="11.347758590613887"><ele>252.0</ele><time>2026-04-08T07:23:16Z</time></trkpt><trkpt lat="43.30233412231098" lon="11.347773769350255"><ele>252.0</ele><time>2026-04-08T07:23:18Z</time></trkpt><trkpt lat="43.30226017161083" lon="11.347787802409423"><ele>252.0</ele><time>2026-04-08T07:23:20Z</time></trkpt><trkpt lat="43.30217362600571" lon="11.347800638582836"><ele>252.0</ele><time>2026-04-08T07:23:30Z</time></trkpt><trkpt lat="43.302103959525546" lon="11.34782084252029"><ele>252.0</ele><time>2026-04-08T07:23:36Z</time></trkpt><trkpt lat="43.30204784471083" lon="11.34786042929083"><ele>252.0</ele><time>2026-04-08T07:23:43.999Z</time></trkpt><trkpt lat="43.302047187042824" lon="11.347951376350432"><ele>252.0</ele><time>2026-04-08T07:23:51.999Z</time></trkpt><trkpt lat="43.302044507048194" lon="11.347859167200331"><ele>252.0</ele><time>2026-04-08T07:24:18.999Z</time></trkpt><trkpt lat="43.30210371143393" lon="11.347811672650662"><ele>252.0</ele><time>2026-04-08T07:24:29.999Z</time></trkpt><trkpt lat="43.302197336921495" lon="11.347807410844734"><ele>252.0</ele><time>2026-04-08T07:24:37.999Z</time></trkpt><trkpt lat="43.30231325930646" lon="11.347784248757188"><ele>252.0</ele><time>2026-04-08T07:24:39.999Z</time></trkpt><trkpt lat="43.30238841338736" lon="11.347758603697422"><ele>252.0</ele><time>2026-04-08T07:24:40.999Z</time></trkpt><trkpt lat="43.302460098484886" lon="11.347737638045134"><ele>252.0</ele><time>2026-04-08T07:24:41.999Z</time></trkpt><trkpt lat="43.30254678242904" lon="11.3477396883977"><ele>252.0</ele><time>2026-04-08T07:24:43.999Z</time></trkpt><trkpt lat="43.30262518313395" lon="11.347771809050503"><ele>252.0</ele><time>2026-04-08T07:24:45.999Z</time></trkpt><trkpt lat="43.302731272218814" lon="11.347862561614997"><ele>252.0</ele><time>2026-04-08T07:24:48Z</time></trkpt><trkpt lat="43.30278689164853" lon="11.347915340871337"><ele>252.0</ele><time>2026-04-08T07:24:49Z</time></trkpt><trkpt lat="43.30286111726394" lon="11.34797132147728"><ele>252.0</ele><time>2026-04-08T07:24:52Z</time></trkpt><trkpt lat="43.30291701885146" lon="11.347921451815301"><ele>252.0</ele><time>2026-04-08T07:24:55Z</time></trkpt><trkpt lat="43.30295027752104" lon="11.347826762879247"><ele>252.0</ele><time>2026-04-08T07:24:57Z</time></trkpt><trkpt lat="43.302997969247244" lon="11.34766447360286"><ele>252.0</ele><time>2026-04-08T07:24:59Z</time></trkpt><trkpt lat="43.303027140259495" lon="11.347568324595793"><ele>252.0</ele><time>2026-04-08T07:25:00Z</time></trkpt><trkpt lat="43.303044731400725" lon="11.347474533212548"><ele>252.0</ele><time>2026-04-08T07:25:01Z</time></trkpt><trkpt lat="43.303067204672296" lon="11.347375428838394"><ele>252.0</ele><time>2026-04-08T07:25:03Z</time></trkpt><trkpt lat="43.30311063569627" lon="11.347283709745195"><ele>252.0</ele><time>2026-04-08T07:25:24Z</time></trkpt><trkpt lat="43.30313534551406" lon="11.347201492214307"><ele>252.0</ele><time>2026-04-08T07:25:25Z</time></trkpt><trkpt lat="43.30316886458265" lon="11.347102371347026"><ele>252.0</ele><time>2026-04-08T07:25:26Z</time></trkpt><trkpt lat="43.303197035900624" lon="11.34701756869235"><ele>252.0</ele><time>2026-04-08T07:25:27Z</time></trkpt><trkpt lat="43.303223491174656" lon="11.346926067666622"><ele>252.0</ele><time>2026-04-08T07:25:28Z</time></trkpt><trkpt lat="43.30324873147159" lon="11.346831428005874"><ele>252.33333333333334</ele><time>2026-04-08T07:25:29Z</time></trkpt><trkpt lat="43.30327501345887" lon="11.346738229710725"><ele>252.66666666666669</ele><time>2026-04-08T07:25:30Z</time></trkpt><trkpt lat="43.303300486837315" lon="11.346635887614438"><ele>253.0</ele><time>2026-04-08T07:25:31Z</time></trkpt><trkpt lat="43.30331484006259" lon="11.346526209270595"><ele>253.33333333333334</ele><time>2026-04-08T07:25:32Z</time></trkpt><trkpt lat="43.303317726842785" lon="11.346377837544216"><ele>253.66666666666669</ele><time>2026-04-08T07:25:34Z</time></trkpt><trkpt lat="43.30329975624074" lon="11.346250693905036"><ele>254.0</ele><time>2026-04-08T07:25:36Z</time></trkpt><trkpt lat="43.30335231683362" lon="11.346060820871463"><ele>254.79999999999998</ele><time>2026-04-08T07:25:38Z</time></trkpt><trkpt lat="43.30338379815862" lon="11.345941461893084"><ele>255.59999999999997</ele><time>2026-04-08T07:25:39Z</time></trkpt><trkpt lat="43.303424645328064" lon="11.34580091170316"><ele>256.4</ele><time>2026-04-08T07:25:40Z</time></trkpt><trkpt lat="43.303470264657506" lon="11.345658929187342"><ele>257.2</ele><time>2026-04-08T07:25:41Z</time></trkpt><trkpt lat="43.30351605639956" lon="11.345516982121955"><ele>258.0</ele><time>2026-04-08T07:25:42Z</time></trkpt><trkpt lat="43.30356036670868" lon="11.345378334594598"><ele>258.0</ele><time>2026-04-08T07:25:43Z</time></trkpt><trkpt lat="43.30360499993418" lon="11.345230442422087"><ele>258.0</ele><time>2026-04-08T07:25:44Z</time></trkpt><trkpt lat="43.30364798259411" lon="11.345087292338734"><ele>258.0</ele><time>2026-04-08T07:25:45Z</time></trkpt><trkpt lat="43.30370098069754" lon="11.344942738135385"><ele>258.0</ele><time>2026-04-08T07:25:46Z</time></trkpt><trkpt lat="43.30375765456538" lon="11.344798089589698"><ele>258.0</ele><time>2026-04-08T07:25:47Z</time></trkpt><trkpt lat="43.303811999192135" lon="11.344655293361598"><ele>258.0</ele><time>2026-04-08T07:25:48Z</time></trkpt><trkpt lat="43.303859491183815" lon="11.344532188064452"><ele>258.0</ele><time>2026-04-08T07:25:49Z</time></trkpt><trkpt lat="43.30390528882872" lon="11.344422241945063"><ele>258.0</ele><time>2026-04-08T07:25:49.999Z</time></trkpt><trkpt lat="43.3039408379446" lon="11.34431283315354"><ele>258.0</ele><time>2026-04-08T07:25:50.999Z</time></trkpt><trkpt lat="43.303971664371794" lon="11.344180452999217"><ele>257.5</ele><time>2026-04-08T07:25:51.999Z</time></trkpt><trkpt lat="43.30400603826445" lon="11.3440191494255"><ele>257.0</ele><time>2026-04-08T07:25:52.999Z</time></trkpt><trkpt lat="43.30402896001396" lon="11.343838398702887"><ele>256.5</ele><time>2026-04-08T07:25:53.999Z</time></trkpt><trkpt lat="43.30404223844659" lon="11.343680308228336"><ele>256.0</ele><time>2026-04-08T07:25:54.999Z</time></trkpt><trkpt lat="43.3040554242661" lon="11.343553254367903"><ele>256.8</ele><time>2026-04-08T07:25:55.999Z</time></trkpt><trkpt lat="43.30407823100873" lon="11.343428628218781"><ele>257.6</ele><time>2026-04-08T07:25:56.999Z</time></trkpt><trkpt lat="43.3041346655334" lon="11.343304977970638"><ele>258.4</ele><time>2026-04-08T07:25:57.999Z</time></trkpt><trkpt lat="43.304210948334585" lon="11.343189091808418"><ele>259.2</ele><time>2026-04-08T07:25:58.999Z</time></trkpt><trkpt lat="43.304292141685785" lon="11.343075911009421"><ele>260.0</ele><time>2026-04-08T07:25:59.999Z</time></trkpt><trkpt lat="43.30437132878334" lon="11.3429768326327"><ele>260.8</ele><time>2026-04-08T07:26:00.999Z</time></trkpt><trkpt lat="43.304442179921836" lon="11.342904295226235"><ele>261.6</ele><time>2026-04-08T07:26:01.999Z</time></trkpt><trkpt lat="43.30450637152167" lon="11.342832296605685"><ele>262.4</ele><time>2026-04-08T07:26:02.999Z</time></trkpt><trkpt lat="43.30457634117466" lon="11.342749133818362"><ele>263.2</ele><time>2026-04-08T07:26:03.999Z</time></trkpt><trkpt lat="43.30464181473471" lon="11.342660527660298"><ele>264.0</ele><time>2026-04-08T07:26:04.999Z</time></trkpt><trkpt lat="43.3047038907486" lon="11.34254095590876"><ele>263.75</ele><time>2026-04-08T07:26:05.999Z</time></trkpt><trkpt lat="43.30475398136451" lon="11.342392844967227"><ele>263.5</ele><time>2026-04-08T07:26:06.999Z</time></trkpt><trkpt lat="43.30479983306783" lon="11.342220256880704"><ele>263.25</ele><time>2026-04-08T07:26:07.999Z</time></trkpt><trkpt lat="43.30486973346204" lon="11.34205060301256"><ele>263.0</ele><time>2026-04-08T07:26:08.999Z</time></trkpt><trkpt lat="43.30493462514684" lon="11.34191833680583"><ele>264.6</ele><time>2026-04-08T07:26:09.999Z</time></trkpt><trkpt lat="43.30498466013464" lon="11.341810661337895"><ele>266.20000000000005</ele><time>2026-04-08T07:26:10.999Z</time></trkpt><trkpt lat="43.305048570730015" lon="11.341700433112546"><ele>267.8</ele><time>2026-04-08T07:26:11.999Z</time></trkpt><trkpt lat="43.30512501157863" lon="11.341576586100492"><ele>269.40000000000003</ele><time>2026-04-08T07:26:12.999Z</time></trkpt><trkpt lat="43.3052125316484" lon="11.341471082696396"><ele>271.0</ele><time>2026-04-08T07:26:13.999Z</time></trkpt><trkpt lat="43.30531007987091" lon="11.341372394177034"><ele>271.75</ele><time>2026-04-08T07:26:14.999Z</time></trkpt><trkpt lat="43.30541832636326" lon="11.341273841770867"><ele>272.5</ele><time>2026-04-08T07:26:15.999Z</time></trkpt><trkpt lat="43.30552512142744" lon="11.341164084780099"><ele>273.25</ele><time>2026-04-08T07:26:16.999Z</time></trkpt><trkpt lat="43.30563704770923" lon="11.341044047319935"><ele>274.0</ele><time>2026-04-08T07:26:17.999Z</time></trkpt><trkpt lat="43.30574306866616" lon="11.340928931670325"><ele>274.59999999999997</ele><time>2026-04-08T07:26:18.999Z</time></trkpt><trkpt lat="43.30583112780384" lon="11.340825622551362"><ele>275.2</ele><time>2026-04-08T07:26:19.999Z</time></trkpt><trkpt lat="43.305907968440884" lon="11.340712097919646"><ele>275.79999999999995</ele><time>2026-04-08T07:26:20.999Z</time></trkpt><trkpt lat="43.30598814580649" lon="11.340614545048371"><ele>276.4</ele><time>2026-04-08T07:26:21.999Z</time></trkpt><trkpt lat="43.30605915518395" lon="11.340492641893261"><ele>277.0</ele><time>2026-04-08T07:26:22.999Z</time></trkpt><trkpt lat="43.30613625638965" lon="11.340375305820709"><ele>278.2</ele><time>2026-04-08T07:26:23.999Z</time></trkpt><trkpt lat="43.30620905063516" lon="11.340274039457869"><ele>279.4</ele><time>2026-04-08T07:26:24.999Z</time></trkpt><trkpt lat="43.30627439379225" lon="11.340169317017747"><ele>280.6</ele><time>2026-04-08T07:26:25.999Z</time></trkpt><trkpt lat="43.306346134389884" lon="11.340069469262039"><ele>281.8</ele><time>2026-04-08T07:26:26.999Z</time></trkpt><trkpt lat="43.30640504573189" lon="11.339974564134396"><ele>283.0</ele><time>2026-04-08T07:26:27.999Z</time></trkpt><trkpt lat="43.306471619528295" lon="11.339878083208557"><ele>283.0</ele><time>2026-04-08T07:26:28.999Z</time></trkpt><trkpt lat="43.30652887570624" lon="11.339779434974684"><ele>283.0</ele><time>2026-04-08T07:26:29.999Z</time></trkpt><trkpt lat="43.30658196770681" lon="11.339693177046332"><ele>283.0</ele><time>2026-04-08T07:26:30.999Z</time></trkpt><trkpt lat="43.306633320594514" lon="11.339620311399095"><ele>283.0</ele><time>2026-04-08T07:26:31.999Z</time></trkpt><trkpt lat="43.30667679883341" lon="11.339549763085135"><ele>283.0</ele><time>2026-04-08T07:26:32.999Z</time></trkpt><trkpt lat="43.30671829647874" lon="11.339484281652648"><ele>283.0</ele><time>2026-04-08T07:26:33.999Z</time></trkpt><trkpt lat="43.306806679368925" lon="11.339357333023417"><ele>282.6</ele><time>2026-04-08T07:26:35.999Z</time></trkpt><trkpt lat="43.30687276654064" lon="11.339292244064056"><ele>282.20000000000005</ele><time>2026-04-08T07:26:37.999Z</time></trkpt><trkpt lat="43.30681096804452" lon="11.339164072627346"><ele>281.8</ele><time>2026-04-08T07:26:47.999Z</time></trkpt><trkpt lat="43.306716233519126" lon="11.339162527520672"><ele>281.40000000000003</ele><time>2026-04-08T07:26:49.999Z</time></trkpt><trkpt lat="43.306637592523046" lon="11.339127719685147"><ele>281.0</ele><time>2026-04-08T07:26:50.999Z</time></trkpt><trkpt lat="43.30655084393265" lon="11.33910352582254"><ele>281.0</ele><time>2026-04-08T07:26:51.999Z</time></trkpt><trkpt lat="43.30645255625899" lon="11.339085687886255"><ele>281.0</ele><time>2026-04-08T07:26:53Z</time></trkpt><trkpt lat="43.30636207156954" lon="11.339033247762487"><ele>281.0</ele><time>2026-04-08T07:26:54Z</time></trkpt><trkpt lat="43.30627041469963" lon="11.338973842126231"><ele>281.0</ele><time>2026-04-08T07:26:55Z</time></trkpt><trkpt lat="43.30619717283047" lon="11.33888457446055"><ele>281.0</ele><time>2026-04-08T07:26:56Z</time></trkpt><trkpt lat="43.30611355987257" lon="11.33879826394862"><ele>280.8</ele><time>2026-04-08T07:26:57Z</time></trkpt><trkpt lat="43.30603451879351" lon="11.338698285651306"><ele>280.6</ele><time>2026-04-08T07:26:58Z</time></trkpt><trkpt lat="43.305942400556624" lon="11.338600823267107"><ele>280.4</ele><time>2026-04-08T07:26:59Z</time></trkpt><trkpt lat="43.30587128218752" lon="11.338493382705977"><ele>280.2</ele><time>2026-04-08T07:27:00Z</time></trkpt><trkpt lat="43.305795944795975" lon="11.338399072074491"><ele>280.0</ele><time>2026-04-08T07:27:01Z</time></trkpt><trkpt lat="43.30572769279604" lon="11.338309459561563"><ele>280.0</ele><time>2026-04-08T07:27:02Z</time></trkpt><trkpt lat="43.30565845179237" lon="11.338219620686377"><ele>280.0</ele><time>2026-04-08T07:27:03Z</time></trkpt><trkpt lat="43.30559422628825" lon="11.338132313852347"><ele>280.0</ele><time>2026-04-08T07:27:04Z</time></trkpt><trkpt lat="43.305534938390124" lon="11.338055988914345"><ele>280.0</ele><time>2026-04-08T07:27:05Z</time></trkpt><trkpt lat="43.30547835269397" lon="11.337982028402829"><ele>280.0</ele><time>2026-04-08T07:27:06Z</time></trkpt><trkpt lat="43.3054187344482" lon="11.33789541035529"><ele>280.0</ele><time>2026-04-08T07:27:07Z</time></trkpt><trkpt lat="43.30535519350404" lon="11.337815844374726"><ele>279.8</ele><time>2026-04-08T07:27:08Z</time></trkpt><trkpt lat="43.30528834319956" lon="11.337727830859349"><ele>279.6</ele><time>2026-04-08T07:27:09Z</time></trkpt><trkpt lat="43.30521613773021" lon="11.337633132321793"><ele>279.4</ele><time>2026-04-08T07:27:10Z</time></trkpt><trkpt lat="43.30512692022264" lon="11.337549785697163"><ele>279.2</ele><time>2026-04-08T07:27:11Z</time></trkpt><trkpt lat="43.3050243720146" lon="11.33748450070395"><ele>279.0</ele><time>2026-04-08T07:27:12Z</time></trkpt><trkpt lat="43.30492241915356" lon="11.337432463105273"><ele>279.0</ele><time>2026-04-08T07:27:13Z</time></trkpt><trkpt lat="43.304826417001806" lon="11.3373850627328"><ele>279.0</ele><time>2026-04-08T07:27:14Z</time></trkpt><trkpt lat="43.30473055629441" lon="11.337319072585075"><ele>279.0</ele><time>2026-04-08T07:27:15Z</time></trkpt><trkpt lat="43.30463202166845" lon="11.337245903969063"><ele>279.0</ele><time>2026-04-08T07:27:16Z</time></trkpt><trkpt lat="43.30454290629153" lon="11.337176312493188"><ele>279.0</ele><time>2026-04-08T07:27:17Z</time></trkpt><trkpt lat="43.30445378108136" lon="11.337103264304966"><ele>277.4</ele><time>2026-04-08T07:27:18Z</time></trkpt><trkpt lat="43.30435273214392" lon="11.337038073661372"><ele>275.79999999999995</ele><time>2026-04-08T07:27:19Z</time></trkpt><trkpt lat="43.30426080537656" lon="11.336991040076038"><ele>274.20000000000005</ele><time>2026-04-08T07:27:20Z</time></trkpt><trkpt lat="43.30416396204203" lon="11.336976118693483"><ele>272.6</ele><time>2026-04-08T07:27:21Z</time></trkpt><trkpt lat="43.30406688254326" lon="11.336985158853084"><ele>271.0</ele><time>2026-04-08T07:27:22Z</time></trkpt><trkpt lat="43.30395998676749" lon="11.337021710707631"><ele>270.8</ele><time>2026-04-08T07:27:23Z</time></trkpt><trkpt lat="43.30383991075735" lon="11.337070770159974"><ele>270.6</ele><time>2026-04-08T07:27:24Z</time></trkpt><trkpt lat="43.30372680726917" lon="11.337112594524019"><ele>270.4</ele><time>2026-04-08T07:27:25Z</time></trkpt><trkpt lat="43.303630163201824" lon="11.337152324898828"><ele>270.2</ele><time>2026-04-08T07:27:26Z</time></trkpt><trkpt lat="43.303540112447166" lon="11.337186698915861"><ele>270.0</ele><time>2026-04-08T07:27:27Z</time></trkpt><trkpt lat="43.30345447277831" lon="11.337225449551628"><ele>270.0</ele><time>2026-04-08T07:27:28Z</time></trkpt><trkpt lat="43.303355869605085" lon="11.337272435027792"><ele>270.0</ele><time>2026-04-08T07:27:29Z</time></trkpt><trkpt lat="43.30325623812094" lon="11.337323269282631"><ele>270.0</ele><time>2026-04-08T07:27:30Z</time></trkpt><trkpt lat="43.3031551176652" lon="11.33737763581984"><ele>270.0</ele><time>2026-04-08T07:27:31Z</time></trkpt><trkpt lat="43.303062698283426" lon="11.33742293224558"><ele>270.0</ele><time>2026-04-08T07:27:32Z</time></trkpt><trkpt lat="43.302981551604525" lon="11.337467710367537"><ele>269.6</ele><time>2026-04-08T07:27:33Z</time></trkpt><trkpt lat="43.302898501495434" lon="11.337527234519248"><ele>269.2</ele><time>2026-04-08T07:27:34Z</time></trkpt><trkpt lat="43.30280345346613" lon="11.337590929311231"><ele>268.8</ele><time>2026-04-08T07:27:35Z</time></trkpt><trkpt lat="43.30271076020602" lon="11.337659273424395"><ele>268.4</ele><time>2026-04-08T07:27:36Z</time></trkpt><trkpt lat="43.30262562642524" lon="11.3377215420054"><ele>268.0</ele><time>2026-04-08T07:27:37Z</time></trkpt><trkpt lat="43.30254758411017" lon="11.337781751148933"><ele>268.0</ele><time>2026-04-08T07:27:38Z</time></trkpt><trkpt lat="43.30246843017247" lon="11.3378316647607"><ele>268.0</ele><time>2026-04-08T07:27:39Z</time></trkpt><trkpt lat="43.30237919778198" lon="11.33787160264858"><ele>268.0</ele><time>2026-04-08T07:27:40Z</time></trkpt><trkpt lat="43.3022710726016" lon="11.337901085618977"><ele>268.0</ele><time>2026-04-08T07:27:41Z</time></trkpt><trkpt lat="43.30214552929415" lon="11.337930102123282"><ele>268.0</ele><time>2026-04-08T07:27:42Z</time></trkpt><trkpt lat="43.30201188768919" lon="11.337967558929291"><ele>265.0</ele><time>2026-04-08T07:27:43Z</time></trkpt><trkpt lat="43.30189289397908" lon="11.337999410258229"><ele>262.0</ele><time>2026-04-08T07:27:44Z</time></trkpt><trkpt lat="43.30178336089797" lon="11.338026331997108"><ele>259.0</ele><time>2026-04-08T07:27:45Z</time></trkpt><trkpt lat="43.30167480753973" lon="11.338030820659785"><ele>256.0</ele><time>2026-04-08T07:27:46Z</time></trkpt><trkpt lat="43.30155062612303" lon="11.33801722334735"><ele>256.0</ele><time>2026-04-08T07:27:47Z</time></trkpt><trkpt lat="43.301415659351896" lon="11.337980091202477"><ele>256.0</ele><time>2026-04-08T07:27:48Z</time></trkpt><trkpt lat="43.30128928616563" lon="11.337920573733523"><ele>256.0</ele><time>2026-04-08T07:27:49Z</time></trkpt><trkpt lat="43.30118355186707" lon="11.337866232447363"><ele>256.0</ele><time>2026-04-08T07:27:50Z</time></trkpt><trkpt lat="43.301089941307744" lon="11.33780436086576"><ele>255.49999999999997</ele><time>2026-04-08T07:27:51Z</time></trkpt><trkpt lat="43.30100914146041" lon="11.33773518413346"><ele>255.0</ele><time>2026-04-08T07:27:52Z</time></trkpt><trkpt lat="43.30093612556779" lon="11.337672225622864"><ele>254.5</ele><time>2026-04-08T07:27:53Z</time></trkpt><trkpt lat="43.30086125260718" lon="11.337604409888364"><ele>254.0</ele><time>2026-04-08T07:27:54Z</time></trkpt><trkpt lat="43.30077950275216" lon="11.337531884211332"><ele>253.49999999999997</ele><time>2026-04-08T07:27:55Z</time></trkpt><trkpt lat="43.30071276634614" lon="11.337481295393301"><ele>253.0</ele><time>2026-04-08T07:27:55.999Z</time></trkpt><trkpt lat="43.30065884456658" lon="11.337435288439405"><ele>253.2</ele><time>2026-04-08T07:27:56.999Z</time></trkpt><trkpt lat="43.30057165229434" lon="11.337368470743767"><ele>253.4</ele><time>2026-04-08T07:27:58.999Z</time></trkpt><trkpt lat="43.30047298073164" lon="11.337325931390248"><ele>253.59999999999997</ele><time>2026-04-08T07:28:00.999Z</time></trkpt><trkpt lat="43.3003535406199" lon="11.33728666035551"><ele>253.79999999999998</ele><time>2026-04-08T07:28:02.999Z</time></trkpt><trkpt lat="43.30024936992129" lon="11.33725619167773"><ele>254.0</ele><time>2026-04-08T07:28:04.999Z</time></trkpt><trkpt lat="43.30018567488104" lon="11.33724342024225"><ele>254.00000000000003</ele><time>2026-04-08T07:28:05.999Z</time></trkpt><trkpt lat="43.30011250871772" lon="11.337227000487122"><ele>254.0</ele><time>2026-04-08T07:28:06.999Z</time></trkpt><trkpt lat="43.30003052731166" lon="11.337209616363559"><ele>254.0</ele><time>2026-04-08T07:28:07.999Z</time></trkpt><trkpt lat="43.29994417545939" lon="11.337188850645802"><ele>254.0</ele><time>2026-04-08T07:28:08.999Z</time></trkpt><trkpt lat="43.29985164690321" lon="11.337171133728956"><ele>254.00000000000003</ele><time>2026-04-08T07:28:09.999Z</time></trkpt><trkpt lat="43.299757197566045" lon="11.33715890499147"><ele>254.0</ele><time>2026-04-08T07:28:10.999Z</time></trkpt><trkpt lat="43.29966552739841" lon="11.337149052640077"><ele>252.79999999999998</ele><time>2026-04-08T07:28:11.999Z</time></trkpt><trkpt lat="43.299567943674894" lon="11.33714233641092"><ele>251.59999999999997</ele><time>2026-04-08T07:28:12.999Z</time></trkpt><trkpt lat="43.29946690473251" lon="11.33715369365048"><ele>250.4</ele><time>2026-04-08T07:28:13.999Z</time></trkpt><trkpt lat="43.29935990488782" lon="11.33717755025375"><ele>249.2</ele><time>2026-04-08T07:28:14.999Z</time></trkpt><trkpt lat="43.29925661817923" lon="11.337200017800935"><ele>248.0</ele><time>2026-04-08T07:28:15.999Z</time></trkpt><trkpt lat="43.299143091440556" lon="11.337234094479953"><ele>248.0</ele><time>2026-04-08T07:28:16.999Z</time></trkpt><trkpt lat="43.299036802637616" lon="11.33726247063049"><ele>248.0</ele><time>2026-04-08T07:28:17.999Z</time></trkpt><trkpt lat="43.298941979273316" lon="11.33729260891449"><ele>248.0</ele><time>2026-04-08T07:28:18.999Z</time></trkpt><trkpt lat="43.29884819669565" lon="11.337332676194377"><ele>248.0</ele><time>2026-04-08T07:28:19.999Z</time></trkpt><trkpt lat="43.29875353519426" lon="11.337380467813151"><ele>248.0</ele><time>2026-04-08T07:28:20.999Z</time></trkpt><trkpt lat="43.298660698910986" lon="11.337437243389578"><ele>247.0</ele><time>2026-04-08T07:28:21.999Z</time></trkpt><trkpt lat="43.29856487121541" lon="11.337505597472918"><ele>246.0</ele><time>2026-04-08T07:28:22.999Z</time></trkpt><trkpt lat="43.29845996793876" lon="11.337584041060676"><ele>245.0</ele><time>2026-04-08T07:28:23.999Z</time></trkpt><trkpt lat="43.29834618610684" lon="11.337677989201413"><ele>244.0</ele><time>2026-04-08T07:28:24.999Z</time></trkpt><trkpt lat="43.29823846730963" lon="11.337784115617131"><ele>244.0</ele><time>2026-04-08T07:28:25.999Z</time></trkpt><trkpt lat="43.29814224081435" lon="11.337896421153452"><ele>244.0</ele><time>2026-04-08T07:28:26.999Z</time></trkpt><trkpt lat="43.298055749047805" lon="11.338008021490952"><ele>244.0</ele><time>2026-04-08T07:28:27.999Z</time></trkpt><trkpt lat="43.297970691210985" lon="11.338126132439253"><ele>244.0</ele><time>2026-04-08T07:28:28.999Z</time></trkpt><trkpt lat="43.297882507603276" lon="11.33825670410162"><ele>243.25</ele><time>2026-04-08T07:28:29.999Z</time></trkpt><trkpt lat="43.29777938313122" lon="11.33841196034514"><ele>242.5</ele><time>2026-04-08T07:28:30.999Z</time></trkpt><trkpt lat="43.29767077399253" lon="11.338558738409036"><ele>241.75</ele><time>2026-04-08T07:28:31.999Z</time></trkpt><trkpt lat="43.29757659899494" lon="11.338693109659511"><ele>241.0</ele><time>2026-04-08T07:28:32.999Z</time></trkpt><trkpt lat="43.297485379933754" lon="11.338815894286656"><ele>240.75</ele><time>2026-04-08T07:28:33.999Z</time></trkpt><trkpt lat="43.2973968009224" lon="11.338924508407741"><ele>240.5</ele><time>2026-04-08T07:28:34.999Z</time></trkpt><trkpt lat="43.297312848181654" lon="11.339033651331773"><ele>240.25</ele><time>2026-04-08T07:28:35.999Z</time></trkpt><trkpt lat="43.297222935401145" lon="11.339152121610159"><ele>240.0</ele><time>2026-04-08T07:28:36.999Z</time></trkpt><trkpt lat="43.297121146765576" lon="11.339280070890892"><ele>240.0</ele><time>2026-04-08T07:28:37.999Z</time></trkpt><trkpt lat="43.29702320946884" lon="11.339416481671497"><ele>240.0</ele><time>2026-04-08T07:28:38.999Z</time></trkpt><trkpt lat="43.29693138680911" lon="11.339544697168474"><ele>240.0</ele><time>2026-04-08T07:28:39.999Z</time></trkpt><trkpt lat="43.29685915044645" lon="11.339662258278496"><ele>240.0</ele><time>2026-04-08T07:28:40.999Z</time></trkpt><trkpt lat="43.29678669704368" lon="11.339772281109777"><ele>240.4</ele><time>2026-04-08T07:28:41.999Z</time></trkpt><trkpt lat="43.29670574088873" lon="11.339890231289866"><ele>240.8</ele><time>2026-04-08T07:28:42.999Z</time></trkpt><trkpt lat="43.29663400896103" lon="11.339999969376912"><ele>241.2</ele><time>2026-04-08T07:28:43.999Z</time></trkpt><trkpt lat="43.29657079914337" lon="11.340104044886969"><ele>241.6</ele><time>2026-04-08T07:28:44.999Z</time></trkpt><trkpt lat="43.296523205231615" lon="11.340203244695923"><ele>242.0</ele><time>2026-04-08T07:28:45.999Z</time></trkpt><trkpt lat="43.29646304918537" lon="11.340304973882894"><ele>242.33333333333334</ele><time>2026-04-08T07:28:46.999Z</time></trkpt><trkpt lat="43.29641962963367" lon="11.340391847328945"><ele>242.66666666666669</ele><time>2026-04-08T07:28:47.999Z</time></trkpt><trkpt lat="43.29638310806312" lon="11.340464809567564"><ele>243.0</ele><time>2026-04-08T07:28:48.999Z</time></trkpt><trkpt lat="43.29632299720471" lon="11.340594072700258"><ele>243.33333333333331</ele><time>2026-04-08T07:28:50.999Z</time></trkpt><trkpt lat="43.296287042501746" lon="11.34068456614006"><ele>243.66666666666666</ele><time>2026-04-08T07:28:52.999Z</time></trkpt><trkpt lat="43.29623596796061" lon="11.340788781992016"><ele>244.0</ele><time>2026-04-08T07:28:55.999Z</time></trkpt><trkpt lat="43.29619687065788" lon="11.34092498416394"><ele>244.2</ele><time>2026-04-08T07:28:57.999Z</time></trkpt><trkpt lat="43.296139408804045" lon="11.341051407427306"><ele>244.39999999999998</ele><time>2026-04-08T07:29:00Z</time></trkpt><trkpt lat="43.29609804250085" lon="11.341155683484882"><ele>244.6</ele><time>2026-04-08T07:29:02Z</time></trkpt><trkpt lat="43.29603574077027" lon="11.34123309402179"><ele>244.8</ele><time>2026-04-08T07:29:05Z</time></trkpt><trkpt lat="43.29595313334349" lon="11.341299399606054"><ele>245.0</ele><time>2026-04-08T07:29:07Z</time></trkpt><trkpt lat="43.29583392704979" lon="11.341355071791103"><ele>245.0</ele><time>2026-04-08T07:29:09Z</time></trkpt><trkpt lat="43.29577290140259" lon="11.34141997848777"><ele>245.0</ele><time>2026-04-08T07:29:11Z</time></trkpt><trkpt lat="43.29567370897978" lon="11.341356520192496"><ele>245.0</ele><time>2026-04-08T07:29:12Z</time></trkpt><trkpt lat="43.29560049541767" lon="11.341337876734631"><ele>245.0</ele><time>2026-04-08T07:29:15Z</time></trkpt><trkpt lat="43.295606857577795" lon="11.34118480402022"><ele>245.0</ele><time>2026-04-08T07:29:16Z</time></trkpt><trkpt lat="43.29551905840921" lon="11.341163153501194"><ele>243.2</ele><time>2026-04-08T07:29:19Z</time></trkpt><trkpt lat="43.29543249765876" lon="11.341278212699505"><ele>241.4</ele><time>2026-04-08T07:29:21Z</time></trkpt><trkpt lat="43.295369123853376" lon="11.34125154894696"><ele>239.60000000000002</ele><time>2026-04-08T07:29:27Z</time></trkpt><trkpt lat="43.29531276582692" lon="11.341205076392816"><ele>237.8</ele><time>2026-04-08T07:36:26.999Z</time></trkpt><trkpt lat="43.29521713633548" lon="11.341141006439717"><ele>236.0</ele><time>2026-04-08T07:36:28.999Z</time></trkpt><trkpt lat="43.29513641868439" lon="11.341064041302168"><ele>236.0</ele><time>2026-04-08T07:36:30.999Z</time></trkpt><trkpt lat="43.29509003642479" lon="11.34098937344256"><ele>236.0</ele><time>2026-04-08T07:36:32.999Z</time></trkpt><trkpt lat="43.29502369609004" lon="11.340695556718584"><ele>236.0</ele><time>2026-04-08T07:36:47.999Z</time></trkpt><trkpt lat="43.295028291493516" lon="11.340568232098398"><ele>236.0</ele><time>2026-04-08T07:36:48.999Z</time></trkpt><trkpt lat="43.29503473816338" lon="11.340439359467622"><ele>235.20000000000002</ele><time>2026-04-08T07:36:49.999Z</time></trkpt><trkpt lat="43.295045501948735" lon="11.340300538388599"><ele>234.40000000000003</ele><time>2026-04-08T07:36:50.999Z</time></trkpt><trkpt lat="43.295056906855926" lon="11.340175249978913"><ele>233.6</ele><time>2026-04-08T07:36:51.999Z</time></trkpt><trkpt lat="43.2950713118431" lon="11.340061316835143"><ele>232.8</ele><time>2026-04-08T07:36:52.999Z</time></trkpt><trkpt lat="43.295090646035526" lon="11.339923663445036"><ele>232.0</ele><time>2026-04-08T07:36:53.999Z</time></trkpt><trkpt lat="43.29512537813627" lon="11.33978264080795"><ele>230.0</ele><time>2026-04-08T07:36:54.999Z</time></trkpt><trkpt lat="43.29516598271543" lon="11.33965011822548"><ele>228.0</ele><time>2026-04-08T07:36:55.999Z</time></trkpt><trkpt lat="43.295214610866275" lon="11.339514863800476"><ele>226.0</ele><time>2026-04-08T07:36:56.999Z</time></trkpt><trkpt lat="43.29526301796484" lon="11.339384302106088"><ele>224.0</ele><time>2026-04-08T07:36:57.999Z</time></trkpt><trkpt lat="43.29531403601522" lon="11.339255474318858"><ele>222.0</ele><time>2026-04-08T07:36:58.999Z</time></trkpt><trkpt lat="43.295374814075004" lon="11.339113016216075"><ele>222.0</ele><time>2026-04-08T07:36:59.999Z</time></trkpt><trkpt lat="43.295456262716435" lon="11.338976257820946"><ele>222.0</ele><time>2026-04-08T07:37:00.999Z</time></trkpt><trkpt lat="43.29554398434842" lon="11.338868466663774"><ele>222.0</ele><time>2026-04-08T07:37:01.999Z</time></trkpt><trkpt lat="43.29563968712432" lon="11.33877749366773"><ele>222.0</ele><time>2026-04-08T07:37:02.999Z</time></trkpt><trkpt lat="43.295731281076485" lon="11.338691830069763"><ele>222.5</ele><time>2026-04-08T07:37:03.999Z</time></trkpt><trkpt lat="43.29583173848616" lon="11.338629684586"><ele>223.0</ele><time>2026-04-08T07:37:04.999Z</time></trkpt><trkpt lat="43.29593921650529" lon="11.338594875179139"><ele>223.5</ele><time>2026-04-08T07:37:05.999Z</time></trkpt><trkpt lat="43.29606089875875" lon="11.338598015173687"><ele>224.0</ele><time>2026-04-08T07:37:06.999Z</time></trkpt><trkpt lat="43.29617431693149" lon="11.33862186347367"><ele>224.0</ele><time>2026-04-08T07:37:07.999Z</time></trkpt><trkpt lat="43.29626444100494" lon="11.33861606017569"><ele>223.99999999999997</ele><time>2026-04-08T07:37:08.999Z</time></trkpt><trkpt lat="43.29634621370015" lon="11.338579064408501"><ele>223.99999999999997</ele><time>2026-04-08T07:37:09.999Z</time></trkpt><trkpt lat="43.29641970456758" lon="11.338517792913512"><ele>224.0</ele><time>2026-04-08T07:37:10.999Z</time></trkpt><trkpt lat="43.296478164822105" lon="11.338418120879359"><ele>224.0</ele><time>2026-04-08T07:37:11.999Z</time></trkpt><trkpt lat="43.2965170218161" lon="11.338280399159054"><ele>224.39999999999998</ele><time>2026-04-08T07:37:12.999Z</time></trkpt><trkpt lat="43.296552064765386" lon="11.338143279448357"><ele>224.79999999999998</ele><time>2026-04-08T07:37:13.999Z</time></trkpt><trkpt lat="43.29650823623808" lon="11.337993270530305"><ele>225.20000000000002</ele><time>2026-04-08T07:37:14.999Z</time></trkpt><trkpt lat="43.29647612918729" lon="11.337857366420474"><ele>225.60000000000002</ele><time>2026-04-08T07:37:15.999Z</time></trkpt><trkpt lat="43.29638528106327" lon="11.337766081729956"><ele>226.0</ele><time>2026-04-08T07:37:16.999Z</time></trkpt><trkpt lat="43.29628530542616" lon="11.337684054241919"><ele>224.60000000000002</ele><time>2026-04-08T07:37:17.999Z</time></trkpt><trkpt lat="43.296182410325784" lon="11.337604161626492"><ele>223.20000000000002</ele><time>2026-04-08T07:37:18.999Z</time></trkpt><trkpt lat="43.296086786478746" lon="11.337535571009228"><ele>221.79999999999998</ele><time>2026-04-08T07:37:19.999Z</time></trkpt><trkpt lat="43.29600442271209" lon="11.337452465523372"><ele>220.39999999999998</ele><time>2026-04-08T07:37:20.999Z</time></trkpt><trkpt lat="43.29593263657239" lon="11.337394913998533"><ele>219.0</ele><time>2026-04-08T07:37:21.999Z</time></trkpt><trkpt lat="43.29586792652477" lon="11.33734207045647"><ele>219.0</ele><time>2026-04-08T07:37:23Z</time></trkpt><trkpt lat="43.29577629933046" lon="11.337292388449521"><ele>219.0</ele><time>2026-04-08T07:37:25Z</time></trkpt><trkpt lat="43.29571319613167" lon="11.337232339056802"><ele>219.0</ele><time>2026-04-08T07:37:27Z</time></trkpt><trkpt lat="43.29566951081892" lon="11.337165847384725"><ele>219.0</ele><time>2026-04-08T07:37:30Z</time></trkpt><trkpt lat="43.29555720665647" lon="11.337260349228494"><ele>219.0</ele><time>2026-04-08T07:37:42Z</time></trkpt><trkpt lat="43.295501875638976" lon="11.33732464549441"><ele>219.0</ele><time>2026-04-08T07:37:43Z</time></trkpt><trkpt lat="43.29543095773138" lon="11.337416853781361"><ele>218.0</ele><time>2026-04-08T07:37:44Z</time></trkpt><trkpt lat="43.29535956333253" lon="11.33751499912626"><ele>217.0</ele><time>2026-04-08T07:37:45Z</time></trkpt><trkpt lat="43.29529678073377" lon="11.337603606130621"><ele>216.0</ele><time>2026-04-08T07:37:46Z</time></trkpt><trkpt lat="43.29524008080485" lon="11.337677329239103"><ele>215.0</ele><time>2026-04-08T07:37:47Z</time></trkpt><trkpt lat="43.29519038857308" lon="11.337771233056896"><ele>214.0</ele><time>2026-04-08T07:37:49Z</time></trkpt><trkpt lat="43.295267161296835" lon="11.337776488967291"><ele>213.0</ele><time>2026-04-08T07:37:54Z</time></trkpt><trkpt lat="43.29537672159849" lon="11.337678846867249"><ele>213.0</ele><time>2026-04-08T07:37:56Z</time></trkpt><trkpt lat="43.29545694693275" lon="11.337614311415502"><ele>213.0</ele><time>2026-04-08T07:37:57Z</time></trkpt><trkpt lat="43.295529887009266" lon="11.337548564626442"><ele>213.0</ele><time>2026-04-08T07:37:58Z</time></trkpt><trkpt lat="43.295615359065216" lon="11.337479166723584"><ele>213.0</ele><time>2026-04-08T07:37:59Z</time></trkpt><trkpt lat="43.29569226439752" lon="11.337428018239143"><ele>213.0</ele><time>2026-04-08T07:38:00Z</time></trkpt><trkpt lat="43.29575875673124" lon="11.33740961145525"><ele>213.0</ele><time>2026-04-08T07:38:01Z</time></trkpt><trkpt lat="43.29582650840019" lon="11.337417083031772"><ele>214.5</ele><time>2026-04-08T07:38:02Z</time></trkpt><trkpt lat="43.295907734523645" lon="11.33741260488506"><ele>216.0</ele><time>2026-04-08T07:38:03Z</time></trkpt><trkpt lat="43.29599692130087" lon="11.337520774976992"><ele>217.5</ele><time>2026-04-08T07:38:04Z</time></trkpt><trkpt lat="43.29610812309933" lon="11.337605799879833"><ele>219.0</ele><time>2026-04-08T07:38:05Z</time></trkpt><trkpt lat="43.296219238150556" lon="11.337682073012186"><ele>219.0</ele><time>2026-04-08T07:38:06Z</time></trkpt><trkpt lat="43.29634214980177" lon="11.33777176966764"><ele>219.0</ele><time>2026-04-08T07:38:07Z</time></trkpt><trkpt lat="43.29643771428649" lon="11.337870540504031"><ele>219.0</ele><time>2026-04-08T07:38:08Z</time></trkpt><trkpt lat="43.29648720173758" lon="11.33799657027736"><ele>219.0</ele><time>2026-04-08T07:38:09Z</time></trkpt><trkpt lat="43.296505997139406" lon="11.338153877751484"><ele>220.0</ele><time>2026-04-08T07:38:10Z</time></trkpt><trkpt lat="43.29648697900254" lon="11.338316037820874"><ele>220.99999999999997</ele><time>2026-04-08T07:38:11Z</time></trkpt><trkpt lat="43.2964322374772" lon="11.338455200999455"><ele>221.99999999999997</ele><time>2026-04-08T07:38:12Z</time></trkpt><trkpt lat="43.296353844342406" lon="11.338536633679167"><ele>223.0</ele><time>2026-04-08T07:38:13Z</time></trkpt><trkpt lat="43.29624638155307" lon="11.338579824438149"><ele>224.0</ele><time>2026-04-08T07:38:14Z</time></trkpt><trkpt lat="43.29612316421366" lon="11.33858543544557"><ele>224.0</ele><time>2026-04-08T07:38:15Z</time></trkpt><trkpt lat="43.29598284089425" lon="11.338543458842414"><ele>224.0</ele><time>2026-04-08T07:38:16Z</time></trkpt><trkpt lat="43.2958694291292" lon="11.338565083875235"><ele>224.0</ele><time>2026-04-08T07:38:17Z</time></trkpt><trkpt lat="43.29574410504309" lon="11.338622725401581"><ele>224.0</ele><time>2026-04-08T07:38:18Z</time></trkpt><trkpt lat="43.2956161685992" lon="11.338721116856698"><ele>223.5</ele><time>2026-04-08T07:38:19Z</time></trkpt><trkpt lat="43.2954958085209" lon="11.33885448870663"><ele>223.0</ele><time>2026-04-08T07:38:20Z</time></trkpt><trkpt lat="43.29539230755025" lon="11.338987092946315"><ele>222.5</ele><time>2026-04-08T07:38:21Z</time></trkpt><trkpt lat="43.295313458149536" lon="11.339130659931264"><ele>222.0</ele><time>2026-04-08T07:38:22Z</time></trkpt><trkpt lat="43.29524877842896" lon="11.339303491671954"><ele>222.0</ele><time>2026-04-08T07:38:23Z</time></trkpt><trkpt lat="43.29518669476119" lon="11.339496858145253"><ele>222.0</ele><time>2026-04-08T07:38:24Z</time></trkpt><trkpt lat="43.29512557681947" lon="11.339677429537328"><ele>222.0</ele><time>2026-04-08T07:38:25Z</time></trkpt><trkpt lat="43.29507261574506" lon="11.339850946051296"><ele>222.0</ele><time>2026-04-08T07:38:26Z</time></trkpt><trkpt lat="43.29503632150348" lon="11.340040887628268"><ele>224.5</ele><time>2026-04-08T07:38:26.999Z</time></trkpt><trkpt lat="43.29501967654956" lon="11.340252040019191"><ele>227.0</ele><time>2026-04-08T07:38:27.999Z</time></trkpt><trkpt lat="43.295006970400046" lon="11.340466074439808"><ele>229.5</ele><time>2026-04-08T07:38:28.999Z</time></trkpt><trkpt lat="43.29499518503704" lon="11.340651397763923"><ele>232.0</ele><time>2026-04-08T07:38:29.999Z</time></trkpt><trkpt lat="43.29498963927262" lon="11.340830500749714"><ele>232.8</ele><time>2026-04-08T07:38:30.999Z</time></trkpt><trkpt lat="43.295005938617024" lon="11.340984706249367"><ele>233.6</ele><time>2026-04-08T07:38:31.999Z</time></trkpt><trkpt lat="43.29503994673661" lon="11.341087386524872"><ele>234.40000000000003</ele><time>2026-04-08T07:38:32.999Z</time></trkpt><trkpt lat="43.29509290500623" lon="11.34116598090333"><ele>235.20000000000002</ele><time>2026-04-08T07:38:33.999Z</time></trkpt><trkpt lat="43.29516512793354" lon="11.34123640574316"><ele>236.0</ele><time>2026-04-08T07:38:34.999Z</time></trkpt><trkpt lat="43.29524972157235" lon="11.341290378318655"><ele>236.00000000000003</ele><time>2026-04-08T07:38:35.999Z</time></trkpt><trkpt lat="43.29531866388836" lon="11.341322168658143"><ele>236.0</ele><time>2026-04-08T07:38:36.999Z</time></trkpt><trkpt lat="43.29538002058125" lon="11.341357186522156"><ele>236.0</ele><time>2026-04-08T07:38:38.999Z</time></trkpt><trkpt lat="43.295443246062575" lon="11.341392443867388"><ele>236.0</ele><time>2026-04-08T07:38:47.999Z</time></trkpt><trkpt lat="43.29555440466583" lon="11.341446713835143"><ele>236.00000000000003</ele><time>2026-04-08T07:38:49.999Z</time></trkpt><trkpt lat="43.29561737765611" lon="11.341468754731073"><ele>236.0</ele><time>2026-04-08T07:38:50.999Z</time></trkpt><trkpt lat="43.29571280172513" lon="11.34151013149493"><ele>237.8</ele><time>2026-04-08T07:38:52.999Z</time></trkpt><trkpt lat="43.295783473371024" lon="11.341596979916018"><ele>239.60000000000002</ele><time>2026-04-08T07:38:54.999Z</time></trkpt><trkpt lat="43.29581610914014" lon="11.341713204097399"><ele>241.4</ele><time>2026-04-08T07:38:56.999Z</time></trkpt><trkpt lat="43.295826589649465" lon="11.341863989750362"><ele>243.2</ele><time>2026-04-08T07:38:58.999Z</time></trkpt><trkpt lat="43.295711318611296" lon="11.341954500466773"><ele>245.0</ele><time>2026-04-08T07:38:59.999Z</time></trkpt><trkpt lat="43.295654748224614" lon="11.342029949610868"><ele>245.0</ele><time>2026-04-08T07:39:00.999Z</time></trkpt><trkpt lat="43.29559011620367" lon="11.342113294138803"><ele>245.0</ele><time>2026-04-08T07:39:01.999Z</time></trkpt><trkpt lat="43.295517093205454" lon="11.34220032009562"><ele>245.0</ele><time>2026-04-08T07:39:02.999Z</time></trkpt><trkpt lat="43.295448190311056" lon="11.342262142632048"><ele>245.0</ele><time>2026-04-08T07:39:03.999Z</time></trkpt><trkpt lat="43.29537522857737" lon="11.342330547034193"><ele>245.0</ele><time>2026-04-08T07:39:04.999Z</time></trkpt><trkpt lat="43.29528874711896" lon="11.342414319027906"><ele>245.0</ele><time>2026-04-08T07:39:05.999Z</time></trkpt><trkpt lat="43.29520632402779" lon="11.342482191114192"><ele>245.0</ele><time>2026-04-08T07:39:06.999Z</time></trkpt><trkpt lat="43.295104328073" lon="11.34254810226019"><ele>245.0</ele><time>2026-04-08T07:39:07.999Z</time></trkpt><trkpt lat="43.29500074380106" lon="11.342619897299494"><ele>245.0</ele><time>2026-04-08T07:39:08.999Z</time></trkpt><trkpt lat="43.2948936395825" lon="11.342688468990008"><ele>245.0</ele><time>2026-04-08T07:39:09.999Z</time></trkpt><trkpt lat="43.29480025206827" lon="11.342748866223795"><ele>244.2</ele><time>2026-04-08T07:39:10.999Z</time></trkpt><trkpt lat="43.294709030886175" lon="11.342798094238342"><ele>243.4</ele><time>2026-04-08T07:39:11.999Z</time></trkpt><trkpt lat="43.29462961103485" lon="11.342845026277597"><ele>242.60000000000002</ele><time>2026-04-08T07:39:12.999Z</time></trkpt><trkpt lat="43.294555090672816" lon="11.342888548896385"><ele>241.8</ele><time>2026-04-08T07:39:13.999Z</time></trkpt><trkpt lat="43.294469897530206" lon="11.342932784944148"><ele>241.0</ele><time>2026-04-08T07:39:14.999Z</time></trkpt><trkpt lat="43.29437467180092" lon="11.342977126870897"><ele>241.0</ele><time>2026-04-08T07:39:15.999Z</time></trkpt><trkpt lat="43.294275790082764" lon="11.343016813863809"><ele>241.00000000000003</ele><time>2026-04-08T07:39:16.999Z</time></trkpt><trkpt lat="43.294167230313654" lon="11.343055110057206"><ele>241.00000000000003</ele><time>2026-04-08T07:39:17.999Z</time></trkpt><trkpt lat="43.29406768446293" lon="11.343088062035305"><ele>241.0</ele><time>2026-04-08T07:39:18.999Z</time></trkpt><trkpt lat="43.29397363502001" lon="11.34311356898189"><ele>241.0</ele><time>2026-04-08T07:39:19.999Z</time></trkpt><trkpt lat="43.29387200311842" lon="11.343138763651831"><ele>241.4</ele><time>2026-04-08T07:39:20.999Z</time></trkpt><trkpt lat="43.29377025622958" lon="11.343167611612948"><ele>241.8</ele><time>2026-04-08T07:39:21.999Z</time></trkpt><trkpt lat="43.29367241983225" lon="11.343190744959466"><ele>242.20000000000002</ele><time>2026-04-08T07:39:22.999Z</time></trkpt><trkpt lat="43.29358107193534" lon="11.343215372081302"><ele>242.60000000000002</ele><time>2026-04-08T07:39:23.999Z</time></trkpt><trkpt lat="43.29348895275695" lon="11.343240036615699"><ele>243.0</ele><time>2026-04-08T07:39:24.999Z</time></trkpt><trkpt lat="43.293416859247905" lon="11.34325779654296"><ele>243.0</ele><time>2026-04-08T07:39:25.999Z</time></trkpt><trkpt lat="43.293352735683456" lon="11.343270845199154"><ele>243.0</ele><time>2026-04-08T07:39:26.999Z</time></trkpt><trkpt lat="43.29328978918558" lon="11.34325423669135"><ele>243.0</ele><time>2026-04-08T07:39:27.999Z</time></trkpt><trkpt lat="43.29323542253512" lon="11.343210093023778"><ele>243.0</ele><time>2026-04-08T07:39:29Z</time></trkpt><trkpt lat="43.293172620200714" lon="11.343102414916412"><ele>243.0</ele><time>2026-04-08T07:39:31Z</time></trkpt><trkpt lat="43.29311568480794" lon="11.343049232309305"><ele>243.0</ele><time>2026-04-08T07:39:33Z</time></trkpt><trkpt lat="43.29306272973468" lon="11.343113732904852"><ele>243.0</ele><time>2026-04-08T07:40:38.999Z</time></trkpt><trkpt lat="43.29299665021295" lon="11.343148265281199"><ele>243.8</ele><time>2026-04-08T07:40:44.999Z</time></trkpt><trkpt lat="43.29293320540984" lon="11.343066857043441"><ele>244.60000000000002</ele><time>2026-04-08T07:48:32Z</time></trkpt><trkpt lat="43.292843751231324" lon="11.343208761222673"><ele>245.39999999999998</ele><time>2026-04-08T07:48:34Z</time></trkpt><trkpt lat="43.29283112915806" lon="11.34334539367343"><ele>246.2</ele><time>2026-04-08T07:48:36Z</time></trkpt><trkpt lat="43.2928165852471" lon="11.343430974815362"><ele>247.0</ele><time>2026-04-08T07:49:11.999Z</time></trkpt><trkpt lat="43.29274108505578" lon="11.343483792155107"><ele>246.99999999999997</ele><time>2026-04-08T07:49:13.999Z</time></trkpt><trkpt lat="43.2926688403887" lon="11.343515887000779"><ele>247.0</ele><time>2026-04-08T07:49:14.999Z</time></trkpt><trkpt lat="43.29258075006875" lon="11.34355918309036"><ele>247.0</ele><time>2026-04-08T07:49:15.999Z</time></trkpt><trkpt lat="43.29249644224924" lon="11.343562343714868"><ele>247.0</ele><time>2026-04-08T07:49:16.999Z</time></trkpt><trkpt lat="43.29241199241805" lon="11.343596804352238"><ele>246.99999999999997</ele><time>2026-04-08T07:49:17.999Z</time></trkpt><trkpt lat="43.292324336863416" lon="11.34365299818664"><ele>247.0</ele><time>2026-04-08T07:49:18.999Z</time></trkpt><trkpt lat="43.292225973682356" lon="11.343692758855912"><ele>246.39999999999998</ele><time>2026-04-08T07:49:19.999Z</time></trkpt><trkpt lat="43.29212374025676" lon="11.343729376720844"><ele>245.79999999999998</ele><time>2026-04-08T07:49:20.999Z</time></trkpt><trkpt lat="43.29202618793974" lon="11.343759504642621"><ele>245.2</ele><time>2026-04-08T07:49:21.999Z</time></trkpt><trkpt lat="43.29193137784664" lon="11.343782639598516"><ele>244.6</ele><time>2026-04-08T07:49:22.999Z</time></trkpt><trkpt lat="43.291829153328315" lon="11.343802750850998"><ele>244.0</ele><time>2026-04-08T07:49:23.999Z</time></trkpt><trkpt lat="43.291725607227676" lon="11.34382188069111"><ele>244.0</ele><time>2026-04-08T07:49:24.999Z</time></trkpt><trkpt lat="43.29161999574236" lon="11.343844427763091"><ele>244.0</ele><time>2026-04-08T07:49:25.999Z</time></trkpt><trkpt lat="43.29150386869006" lon="11.343869446751299"><ele>244.0</ele><time>2026-04-08T07:49:26.999Z</time></trkpt><trkpt lat="43.291382280945484" lon="11.343892584948314"><ele>244.0</ele><time>2026-04-08T07:49:27.999Z</time></trkpt><trkpt lat="43.2912707223929" lon="11.343908123615495"><ele>244.0</ele><time>2026-04-08T07:49:28.999Z</time></trkpt><trkpt lat="43.2911905257586" lon="11.343916681510883"><ele>243.99999999999997</ele><time>2026-04-08T07:49:29.999Z</time></trkpt><trkpt lat="43.2911164635979" lon="11.343921612298013"><ele>243.99999999999997</ele><time>2026-04-08T07:49:30.999Z</time></trkpt><trkpt lat="43.29100384611386" lon="11.343929091662321"><ele>244.0</ele><time>2026-04-08T07:49:32.999Z</time></trkpt><trkpt lat="43.2908810504757" lon="11.3439343879127"><ele>244.0</ele><time>2026-04-08T07:49:34.999Z</time></trkpt><trkpt lat="43.29081647656672" lon="11.343936921094107"><ele>243.99999999999997</ele><time>2026-04-08T07:49:35.999Z</time></trkpt><trkpt lat="43.29074367377706" lon="11.343936264516437"><ele>244.0</ele><time>2026-04-08T07:49:36.999Z</time></trkpt><trkpt lat="43.290663780639456" lon="11.343934760172571"><ele>244.0</ele><time>2026-04-08T07:49:37.999Z</time></trkpt><trkpt lat="43.290575097497026" lon="11.343930986973577"><ele>244.0</ele><time>2026-04-08T07:49:38.999Z</time></trkpt><trkpt lat="43.29047715877049" lon="11.343920045288353"><ele>243.99999999999997</ele><time>2026-04-08T07:49:39.999Z</time></trkpt><trkpt lat="43.29038049796915" lon="11.343907123641785"><ele>244.0</ele><time>2026-04-08T07:49:40.999Z</time></trkpt><trkpt lat="43.290279814618096" lon="11.343890180815341"><ele>244.75</ele><time>2026-04-08T07:49:41.999Z</time></trkpt><trkpt lat="43.2901773774433" lon="11.343858297665104"><ele>245.5</ele><time>2026-04-08T07:49:42.999Z</time></trkpt><trkpt lat="43.29006454444916" lon="11.343817849579583"><ele>246.25</ele><time>2026-04-08T07:49:43.999Z</time></trkpt><trkpt lat="43.28994815134853" lon="11.343786988331841"><ele>247.0</ele><time>2026-04-08T07:49:44.999Z</time></trkpt><trkpt lat="43.289827774761605" lon="11.343760175893635"><ele>247.2</ele><time>2026-04-08T07:49:45.999Z</time></trkpt><trkpt lat="43.289729135856874" lon="11.343719289359324"><ele>247.39999999999998</ele><time>2026-04-08T07:49:46.999Z</time></trkpt><trkpt lat="43.28962867256019" lon="11.343711637126523"><ele>247.60000000000002</ele><time>2026-04-08T07:49:47.999Z</time></trkpt><trkpt lat="43.289523350942524" lon="11.343739409450981"><ele>247.8</ele><time>2026-04-08T07:49:48.999Z</time></trkpt><trkpt lat="43.28941136788554" lon="11.343754508902096"><ele>248.0</ele><time>2026-04-08T07:49:49.999Z</time></trkpt><trkpt lat="43.28931334963845" lon="11.34377433146904"><ele>248.00000000000003</ele><time>2026-04-08T07:49:50.999Z</time></trkpt><trkpt lat="43.28922481288094" lon="11.343784815141772"><ele>248.0</ele><time>2026-04-08T07:49:51.999Z</time></trkpt><trkpt lat="43.28914599047447" lon="11.343800774980943"><ele>248.0</ele><time>2026-04-08T07:49:52.999Z</time></trkpt><trkpt lat="43.2890818937431" lon="11.343816686884605"><ele>248.0</ele><time>2026-04-08T07:49:53.999Z</time></trkpt><trkpt lat="43.289012943577426" lon="11.34383058398411"><ele>248.00000000000003</ele><time>2026-04-08T07:49:54.999Z</time></trkpt><trkpt lat="43.28893483079196" lon="11.343846598013393"><ele>248.0</ele><time>2026-04-08T07:49:55.999Z</time></trkpt><trkpt lat="43.288844166493575" lon="11.343869312686882"><ele>247.4</ele><time>2026-04-08T07:49:56.999Z</time></trkpt><trkpt lat="43.288748120287174" lon="11.343890414789541"><ele>246.8</ele><time>2026-04-08T07:49:57.999Z</time></trkpt><trkpt lat="43.288651728862995" lon="11.34391087462172"><ele>246.2</ele><time>2026-04-08T07:49:59Z</time></trkpt><trkpt lat="43.28854027061994" lon="11.343936547976671"><ele>245.6</ele><time>2026-04-08T07:50:00Z</time></trkpt><trkpt lat="43.288416869276894" lon="11.343967502439709"><ele>245.0</ele><time>2026-04-08T07:50:01Z</time></trkpt><trkpt lat="43.28830920271543" lon="11.343992559359911"><ele>245.0</ele><time>2026-04-08T07:50:02Z</time></trkpt><trkpt lat="43.28821620521152" lon="11.344021987150688"><ele>245.0</ele><time>2026-04-08T07:50:03Z</time></trkpt><trkpt lat="43.288120154320275" lon="11.344056643486185"><ele>245.0</ele><time>2026-04-08T07:50:04Z</time></trkpt><trkpt lat="43.28801967268631" lon="11.344102147759617"><ele>245.0</ele><time>2026-04-08T07:50:05Z</time></trkpt><trkpt lat="43.287910983115964" lon="11.344167884690513"><ele>245.0</ele><time>2026-04-08T07:50:06Z</time></trkpt><trkpt lat="43.28782374775719" lon="11.344226160000053"><ele>245.75</ele><time>2026-04-08T07:50:07Z</time></trkpt><trkpt lat="43.287738067665906" lon="11.34430381689247"><ele>246.5</ele><time>2026-04-08T07:50:08Z</time></trkpt><trkpt lat="43.28764539689575" lon="11.344404075734513"><ele>247.25</ele><time>2026-04-08T07:50:09Z</time></trkpt><trkpt lat="43.28754683609917" lon="11.344498288517284"><ele>248.0</ele><time>2026-04-08T07:50:10Z</time></trkpt><trkpt lat="43.287470315053916" lon="11.34462357946369"><ele>247.2</ele><time>2026-04-08T07:50:11Z</time></trkpt><trkpt lat="43.287392300472405" lon="11.344723772743688"><ele>246.4</ele><time>2026-04-08T07:50:12Z</time></trkpt><trkpt lat="43.287324254912924" lon="11.344813850333006"><ele>245.59999999999997</ele><time>2026-04-08T07:50:13Z</time></trkpt><trkpt lat="43.28726303364743" lon="11.344897908084508"><ele>244.79999999999998</ele><time>2026-04-08T07:50:14Z</time></trkpt><trkpt lat="43.28720171312564" lon="11.344996422786654"><ele>244.0</ele><time>2026-04-08T07:50:15Z</time></trkpt><trkpt lat="43.28714105329772" lon="11.345110630339052"><ele>244.0</ele><time>2026-04-08T07:50:16Z</time></trkpt><trkpt lat="43.28706508720994" lon="11.345231702649173"><ele>244.0</ele><time>2026-04-08T07:50:17Z</time></trkpt><trkpt lat="43.28699175361445" lon="11.345372320156576"><ele>244.0</ele><time>2026-04-08T07:50:18Z</time></trkpt><trkpt lat="43.28692581720281" lon="11.345515585700674"><ele>244.0</ele><time>2026-04-08T07:50:19Z</time></trkpt><trkpt lat="43.286874985880736" lon="11.345645533887962"><ele>244.25</ele><time>2026-04-08T07:50:20Z</time></trkpt><trkpt lat="43.286830063553154" lon="11.345784847266216"><ele>244.5</ele><time>2026-04-08T07:50:21Z</time></trkpt><trkpt lat="43.28679444957543" lon="11.34594189035877"><ele>244.75</ele><time>2026-04-08T07:50:22Z</time></trkpt><trkpt lat="43.28676598070744" lon="11.34610658633253"><ele>245.0</ele><time>2026-04-08T07:50:23Z</time></trkpt><trkpt lat="43.286738757146814" lon="11.34626962509111"><ele>244.2</ele><time>2026-04-08T07:50:24Z</time></trkpt><trkpt lat="43.286714934734974" lon="11.346414561551816"><ele>243.4</ele><time>2026-04-08T07:50:25Z</time></trkpt><trkpt lat="43.28670694186642" lon="11.346547216406334"><ele>242.60000000000002</ele><time>2026-04-08T07:50:26Z</time></trkpt><trkpt lat="43.286694214077826" lon="11.346702527416396"><ele>241.8</ele><time>2026-04-08T07:50:27Z</time></trkpt><trkpt lat="43.286687075272" lon="11.346874577108848"><ele>241.0</ele><time>2026-04-08T07:50:28Z</time></trkpt><trkpt lat="43.28667290118417" lon="11.347060555518011"><ele>241.0</ele><time>2026-04-08T07:50:29Z</time></trkpt><trkpt lat="43.28665955543426" lon="11.347228514264392"><ele>241.0</ele><time>2026-04-08T07:50:30Z</time></trkpt><trkpt lat="43.28663337895781" lon="11.34738823636164"><ele>241.0</ele><time>2026-04-08T07:50:31Z</time></trkpt><trkpt lat="43.2866004377249" lon="11.34753991621743"><ele>241.0</ele><time>2026-04-08T07:50:32Z</time></trkpt><trkpt lat="43.286567272578196" lon="11.347669342625602"><ele>241.0</ele><time>2026-04-08T07:50:33Z</time></trkpt><trkpt lat="43.28652455773849" lon="11.347807654990302"><ele>241.0</ele><time>2026-04-08T07:50:34Z</time></trkpt><trkpt lat="43.286475318724364" lon="11.347970154996746"><ele>241.0</ele><time>2026-04-08T07:50:35Z</time></trkpt><trkpt lat="43.28642094405096" lon="11.348140893345212"><ele>241.0</ele><time>2026-04-08T07:50:36Z</time></trkpt><trkpt lat="43.28637467521531" lon="11.34830837928937"><ele>239.25</ele><time>2026-04-08T07:50:37Z</time></trkpt><trkpt lat="43.28631996402544" lon="11.348463763772552"><ele>237.5</ele><time>2026-04-08T07:50:38Z</time></trkpt><trkpt lat="43.28626523892148" lon="11.348604705982611"><ele>235.75</ele><time>2026-04-08T07:50:39Z</time></trkpt><trkpt lat="43.28619303061829" lon="11.348747875882662"><ele>234.0</ele><time>2026-04-08T07:50:40Z</time></trkpt><trkpt lat="43.28612386721195" lon="11.348906620351201"><ele>234.0</ele><time>2026-04-08T07:50:41Z</time></trkpt><trkpt lat="43.28606453760548" lon="11.349064978876786"><ele>234.0</ele><time>2026-04-08T07:50:42Z</time></trkpt><trkpt lat="43.28599334705067" lon="11.349221218653577"><ele>234.0</ele><time>2026-04-08T07:50:43Z</time></trkpt><trkpt lat="43.285923561896965" lon="11.349392359207156"><ele>234.0</ele><time>2026-04-08T07:50:44Z</time></trkpt><trkpt lat="43.28585714136119" lon="11.34956396733216"><ele>234.25</ele><time>2026-04-08T07:50:45Z</time></trkpt><trkpt lat="43.285800566983774" lon="11.349725450402978"><ele>234.5</ele><time>2026-04-08T07:50:46Z</time></trkpt><trkpt lat="43.28574505476134" lon="11.349880544568736"><ele>234.75</ele><time>2026-04-08T07:50:47Z</time></trkpt><trkpt lat="43.28568657100265" lon="11.350031870352716"><ele>235.0</ele><time>2026-04-08T07:50:48Z</time></trkpt><trkpt lat="43.28563065187026" lon="11.350194000045112"><ele>235.75</ele><time>2026-04-08T07:50:49Z</time></trkpt><trkpt lat="43.28557618649317" lon="11.350355059893268"><ele>236.5</ele><time>2026-04-08T07:50:50Z</time></trkpt><trkpt lat="43.28553148518514" lon="11.350506340796684"><ele>237.25</ele><time>2026-04-08T07:50:51Z</time></trkpt><trkpt lat="43.285486396988496" lon="11.3506487293176"><ele>238.0</ele><time>2026-04-08T07:50:52Z</time></trkpt><trkpt lat="43.285436841105664" lon="11.350794885164143"><ele>238.0</ele><time>2026-04-08T07:50:53Z</time></trkpt><trkpt lat="43.28538529373109" lon="11.350945641186009"><ele>238.0</ele><time>2026-04-08T07:50:54Z</time></trkpt><trkpt lat="43.28533082044361" lon="11.351102045570116"><ele>238.0</ele><time>2026-04-08T07:50:55Z</time></trkpt><trkpt lat="43.285275940142924" lon="11.35126730249472"><ele>238.0</ele><time>2026-04-08T07:50:56Z</time></trkpt><trkpt lat="43.28522981100529" lon="11.351420115144238"><ele>237.25</ele><time>2026-04-08T07:50:57Z</time></trkpt><trkpt lat="43.285186816233" lon="11.351568237201825"><ele>236.5</ele><time>2026-04-08T07:50:58Z</time></trkpt><trkpt lat="43.28513651137526" lon="11.351723018471649"><ele>235.75</ele><time>2026-04-08T07:50:59Z</time></trkpt><trkpt lat="43.285083212513584" lon="11.35188721934724"><ele>235.0</ele><time>2026-04-08T07:51:00Z</time></trkpt><trkpt lat="43.28503109575448" lon="11.352058275859362"><ele>235.75</ele><time>2026-04-08T07:51:00.999Z</time></trkpt><trkpt lat="43.28497398034002" lon="11.352236436113019"><ele>236.5</ele><time>2026-04-08T07:51:01.999Z</time></trkpt><trkpt lat="43.28491960269499" lon="11.352408635893017"><ele>237.25</ele><time>2026-04-08T07:51:02.999Z</time></trkpt><trkpt lat="43.28485809830485" lon="11.352572814217224"><ele>238.0</ele><time>2026-04-08T07:51:03.999Z</time></trkpt><trkpt lat="43.28480052279407" lon="11.352711269611524"><ele>237.60000000000002</ele><time>2026-04-08T07:51:04.999Z</time></trkpt><trkpt lat="43.284733633152804" lon="11.352824535901048"><ele>237.20000000000002</ele><time>2026-04-08T07:51:05.999Z</time></trkpt><trkpt lat="43.28467319713412" lon="11.352926493939076"><ele>236.8</ele><time>2026-04-08T07:51:06.999Z</time></trkpt><trkpt lat="43.28460903198312" lon="11.35301382170385"><ele>236.4</ele><time>2026-04-08T07:51:07.999Z</time></trkpt><trkpt lat="43.284549138446785" lon="11.353092392650778"><ele>236.0</ele><time>2026-04-08T07:51:08.999Z</time></trkpt><trkpt lat="43.284476820098035" lon="11.35316833871199"><ele>236.0</ele><time>2026-04-08T07:51:09.999Z</time></trkpt><trkpt lat="43.284392721128434" lon="11.353249339359863"><ele>236.00000000000003</ele><time>2026-04-08T07:51:10.999Z</time></trkpt><trkpt lat="43.28429923369127" lon="11.353330095512193"><ele>236.00000000000003</ele><time>2026-04-08T07:51:11.999Z</time></trkpt><trkpt lat="43.28420766362827" lon="11.353411171589226"><ele>236.0</ele><time>2026-04-08T07:51:12.999Z</time></trkpt><trkpt lat="43.284125895529115" lon="11.353479131719425"><ele>236.0</ele><time>2026-04-08T07:51:13.999Z</time></trkpt><trkpt lat="43.284040033818656" lon="11.353530321101523"><ele>236.0</ele><time>2026-04-08T07:51:14.999Z</time></trkpt><trkpt lat="43.28393375360631" lon="11.35357270979263"><ele>236.0</ele><time>2026-04-08T07:51:15.999Z</time></trkpt><trkpt lat="43.28380612575287" lon="11.353622505200015"><ele>236.0</ele><time>2026-04-08T07:51:16.999Z</time></trkpt><trkpt lat="43.283679769921065" lon="11.353660542986717"><ele>236.0</ele><time>2026-04-08T07:51:17.999Z</time></trkpt><trkpt lat="43.28356070769931" lon="11.353684821757748"><ele>236.5</ele><time>2026-04-08T07:51:18.999Z</time></trkpt><trkpt lat="43.28343911579522" lon="11.353690207793912"><ele>237.0</ele><time>2026-04-08T07:51:19.999Z</time></trkpt><trkpt lat="43.28330667518565" lon="11.353684146447781"><ele>237.5</ele><time>2026-04-08T07:51:20.999Z</time></trkpt><trkpt lat="43.28316472455348" lon="11.353659296492085"><ele>238.0</ele><time>2026-04-08T07:51:21.999Z</time></trkpt><trkpt lat="43.283025498944774" lon="11.353631734095604"><ele>238.0</ele><time>2026-04-08T07:51:22.999Z</time></trkpt><trkpt lat="43.28289806524807" lon="11.353601688585847"><ele>238.0</ele><time>2026-04-08T07:51:23.999Z</time></trkpt><trkpt lat="43.28277488324894" lon="11.35357925928691"><ele>238.0</ele><time>2026-04-08T07:51:24.999Z</time></trkpt><trkpt lat="43.282646890651904" lon="11.353553166993338"><ele>238.0</ele><time>2026-04-08T07:51:25.999Z</time></trkpt><trkpt lat="43.282501608306866" lon="11.353519118305801"><ele>238.0</ele><time>2026-04-08T07:51:26.999Z</time></trkpt><trkpt lat="43.28236228541107" lon="11.353484083587224"><ele>238.0</ele><time>2026-04-08T07:51:27.999Z</time></trkpt><trkpt lat="43.28223777411568" lon="11.35345741826488"><ele>238.0</ele><time>2026-04-08T07:51:28.999Z</time></trkpt><trkpt lat="43.28212031924841" lon="11.353432197530278"><ele>238.0</ele><time>2026-04-08T07:51:29.999Z</time></trkpt><trkpt lat="43.28199608405603" lon="11.353409614519117"><ele>238.0</ele><time>2026-04-08T07:51:30.999Z</time></trkpt><trkpt lat="43.281863234787785" lon="11.353381825388295"><ele>238.0</ele><time>2026-04-08T07:51:31.999Z</time></trkpt><trkpt lat="43.28171393129637" lon="11.353348023346864"><ele>238.0</ele><time>2026-04-08T07:51:32.999Z</time></trkpt><trkpt lat="43.28155858755294" lon="11.353308374908758"><ele>238.0</ele><time>2026-04-08T07:51:33.999Z</time></trkpt><trkpt lat="43.28141790323306" lon="11.353270272588514"><ele>238.0</ele><time>2026-04-08T07:51:34.999Z</time></trkpt><trkpt lat="43.281283225537294" lon="11.353230507936118"><ele>238.0</ele><time>2026-04-08T07:51:35.999Z</time></trkpt><trkpt lat="43.281150128072305" lon="11.353192869229032"><ele>238.0</ele><time>2026-04-08T07:51:36.999Z</time></trkpt><trkpt lat="43.28101421783417" lon="11.353151025441482"><ele>238.0</ele><time>2026-04-08T07:51:37.999Z</time></trkpt><trkpt lat="43.28086956546314" lon="11.353103854854803"><ele>238.0</ele><time>2026-04-08T07:51:38.999Z</time></trkpt><trkpt lat="43.28073424031573" lon="11.353055709756962"><ele>238.0</ele><time>2026-04-08T07:51:39.999Z</time></trkpt><trkpt lat="43.280605804313794" lon="11.353012221541404"><ele>238.0</ele><time>2026-04-08T07:51:40.999Z</time></trkpt><trkpt lat="43.28047666168029" lon="11.352967371628617"><ele>238.0</ele><time>2026-04-08T07:51:41.999Z</time></trkpt><trkpt lat="43.28033711441142" lon="11.352915894687198"><ele>235.33333333333331</ele><time>2026-04-08T07:51:42.999Z</time></trkpt><trkpt lat="43.28018856357009" lon="11.352862732908521"><ele>232.66666666666669</ele><time>2026-04-08T07:51:43.999Z</time></trkpt><trkpt lat="43.28003253993199" lon="11.352815763952183"><ele>230.0</ele><time>2026-04-08T07:51:44.999Z</time></trkpt><trkpt lat="43.27988654327555" lon="11.352777090490726"><ele>229.25</ele><time>2026-04-08T07:51:45.999Z</time></trkpt><trkpt lat="43.27975140593015" lon="11.352734504051051"><ele>228.5</ele><time>2026-04-08T07:51:46.999Z</time></trkpt><trkpt lat="43.279618818483684" lon="11.352702738226945"><ele>227.75</ele><time>2026-04-08T07:51:47.999Z</time></trkpt><trkpt lat="43.27948165123724" lon="11.352679845718072"><ele>227.0</ele><time>2026-04-08T07:51:48.999Z</time></trkpt><trkpt lat="43.279346411302825" lon="11.352662074302115"><ele>227.0</ele><time>2026-04-08T07:51:49.999Z</time></trkpt><trkpt lat="43.279219091666185" lon="11.352649685182447"><ele>227.0</ele><time>2026-04-08T07:51:50.999Z</time></trkpt><trkpt lat="43.27908253191413" lon="11.352638848752974"><ele>227.0</ele><time>2026-04-08T07:51:51.999Z</time></trkpt><trkpt lat="43.27893718164293" lon="11.352621566604055"><ele>227.0</ele><time>2026-04-08T07:51:52.999Z</time></trkpt><trkpt lat="43.278787670662275" lon="11.352649474727471"><ele>227.0</ele><time>2026-04-08T07:51:53.999Z</time></trkpt><trkpt lat="43.278644216379064" lon="11.352704663190913"><ele>227.0</ele><time>2026-04-08T07:51:54.999Z</time></trkpt><trkpt lat="43.27852352417841" lon="11.352774529522907"><ele>227.0</ele><time>2026-04-08T07:51:55.999Z</time></trkpt><trkpt lat="43.27840892634463" lon="11.352872352793463"><ele>227.0</ele><time>2026-04-08T07:51:56.999Z</time></trkpt><trkpt lat="43.27828469177166" lon="11.35294900222106"><ele>227.0</ele><time>2026-04-08T07:51:57.999Z</time></trkpt><trkpt lat="43.27815543309771" lon="11.35302257035744"><ele>227.0</ele><time>2026-04-08T07:51:58.999Z</time></trkpt><trkpt lat="43.27802496265119" lon="11.353099186619891"><ele>227.0</ele><time>2026-04-08T07:51:59.999Z</time></trkpt><trkpt lat="43.27789720354932" lon="11.353179602751613"><ele>227.0</ele><time>2026-04-08T07:52:00.999Z</time></trkpt><trkpt lat="43.277774677278664" lon="11.353264562157916"><ele>228.0</ele><time>2026-04-08T07:52:01.999Z</time></trkpt><trkpt lat="43.27764612188391" lon="11.353347156851973"><ele>229.0</ele><time>2026-04-08T07:52:02.999Z</time></trkpt><trkpt lat="43.27751440391985" lon="11.353420328827735"><ele>230.0</ele><time>2026-04-08T07:52:03.999Z</time></trkpt><trkpt lat="43.277403799388566" lon="11.353489879103723"><ele>231.0</ele><time>2026-04-08T07:52:05Z</time></trkpt><trkpt lat="43.27728591508017" lon="11.353546481808639"><ele>231.25</ele><time>2026-04-08T07:52:06Z</time></trkpt><trkpt lat="43.277156569287044" lon="11.3536010268809"><ele>231.5</ele><time>2026-04-08T07:52:07Z</time></trkpt><trkpt lat="43.27701557060398" lon="11.353652972791654"><ele>231.75</ele><time>2026-04-08T07:52:08Z</time></trkpt><trkpt lat="43.27686428367345" lon="11.353697423428663"><ele>232.0</ele><time>2026-04-08T07:52:09Z</time></trkpt><trkpt lat="43.27669907258503" lon="11.353731818059368"><ele>232.0</ele><time>2026-04-08T07:52:10Z</time></trkpt><trkpt lat="43.27652229046943" lon="11.353768285007558"><ele>232.0</ele><time>2026-04-08T07:52:11Z</time></trkpt><trkpt lat="43.276358070865896" lon="11.353798687261072"><ele>232.0</ele><time>2026-04-08T07:52:12Z</time></trkpt><trkpt lat="43.27620483492915" lon="11.35382835405909"><ele>230.75</ele><time>2026-04-08T07:52:13Z</time></trkpt><trkpt lat="43.276060795366476" lon="11.35385671638486"><ele>229.5</ele><time>2026-04-08T07:52:14Z</time></trkpt><trkpt lat="43.27592369320253" lon="11.353881964753059"><ele>228.25</ele><time>2026-04-08T07:52:15Z</time></trkpt><trkpt lat="43.275771337236044" lon="11.353912350967851"><ele>227.0</ele><time>2026-04-08T07:52:16Z</time></trkpt><trkpt lat="43.275613772997886" lon="11.353941969399957"><ele>225.75</ele><time>2026-04-08T07:52:17Z</time></trkpt><trkpt lat="43.275464788829126" lon="11.3539682012414"><ele>224.5</ele><time>2026-04-08T07:52:18Z</time></trkpt><trkpt lat="43.27532635559982" lon="11.353997239012969"><ele>223.25</ele><time>2026-04-08T07:52:19Z</time></trkpt><trkpt lat="43.27518476471706" lon="11.354029476317727"><ele>222.0</ele><time>2026-04-08T07:52:20Z</time></trkpt><trkpt lat="43.275028563622435" lon="11.354066283788736"><ele>222.0</ele><time>2026-04-08T07:52:21Z</time></trkpt><trkpt lat="43.27485993759604" lon="11.354094163519726"><ele>222.0</ele><time>2026-04-08T07:52:22Z</time></trkpt><trkpt lat="43.27469118926662" lon="11.354166883540739"><ele>222.0</ele><time>2026-04-08T07:52:23Z</time></trkpt><trkpt lat="43.274545698971465" lon="11.354272419970425"><ele>222.0</ele><time>2026-04-08T07:52:24Z</time></trkpt><trkpt lat="43.27442788615257" lon="11.354399038745637"><ele>222.0</ele><time>2026-04-08T07:52:25Z</time></trkpt><trkpt lat="43.27430852546218" lon="11.35455854720636"><ele>222.0</ele><time>2026-04-08T07:52:26Z</time></trkpt><trkpt lat="43.274197038786724" lon="11.354726365291382"><ele>222.0</ele><time>2026-04-08T07:52:27Z</time></trkpt><trkpt lat="43.274075200235195" lon="11.354914370219038"><ele>222.0</ele><time>2026-04-08T07:52:28Z</time></trkpt><trkpt lat="43.27395770924348" lon="11.35507161085418"><ele>222.0</ele><time>2026-04-08T07:52:29Z</time></trkpt><trkpt lat="43.27384176837201" lon="11.35520396574837"><ele>222.25</ele><time>2026-04-08T07:52:30Z</time></trkpt><trkpt lat="43.27373788668038" lon="11.355322301512702"><ele>222.5</ele><time>2026-04-08T07:52:31Z</time></trkpt><trkpt lat="43.27363423750261" lon="11.35546405159673"><ele>222.75</ele><time>2026-04-08T07:52:32Z</time></trkpt><trkpt lat="43.27351169144314" lon="11.355602882541453"><ele>223.0</ele><time>2026-04-08T07:52:33Z</time></trkpt><trkpt lat="43.27338539076644" lon="11.355746013313006"><ele>223.0</ele><time>2026-04-08T07:52:34Z</time></trkpt><trkpt lat="43.273253728286676" lon="11.355894494853295"><ele>223.0</ele><time>2026-04-08T07:52:35Z</time></trkpt><trkpt lat="43.273122587437456" lon="11.35604220047214"><ele>223.0</ele><time>2026-04-08T07:52:36Z</time></trkpt><trkpt lat="43.27300522523857" lon="11.356169013643287"><ele>224.0</ele><time>2026-04-08T07:52:37Z</time></trkpt><trkpt lat="43.272901891464166" lon="11.35628318629186"><ele>225.0</ele><time>2026-04-08T07:52:38Z</time></trkpt><trkpt lat="43.27279811907893" lon="11.356395834248163"><ele>226.0</ele><time>2026-04-08T07:52:39Z</time></trkpt><trkpt lat="43.27269111064389" lon="11.356515198218952"><ele>227.0</ele><time>2026-04-08T07:52:40Z</time></trkpt><trkpt lat="43.27257714481108" lon="11.356641368429917"><ele>227.0</ele><time>2026-04-08T07:52:41Z</time></trkpt><trkpt lat="43.27246635022837" lon="11.356774314367147"><ele>227.0</ele><time>2026-04-08T07:52:42Z</time></trkpt><trkpt lat="43.27234759860444" lon="11.356905682388073"><ele>227.0</ele><time>2026-04-08T07:52:43Z</time></trkpt><trkpt lat="43.27224311168381" lon="11.357019382676679"><ele>227.0</ele><time>2026-04-08T07:52:44Z</time></trkpt><trkpt lat="43.27214486302049" lon="11.357122883169303"><ele>226.2</ele><time>2026-04-08T07:52:45Z</time></trkpt><trkpt lat="43.27206474300307" lon="11.357218954140524"><ele>225.39999999999998</ele><time>2026-04-08T07:52:46Z</time></trkpt><trkpt lat="43.2719880488659" lon="11.357304210639757"><ele>224.60000000000002</ele><time>2026-04-08T07:52:47Z</time></trkpt><trkpt lat="43.27193103878023" lon="11.357373853048486"><ele>223.8</ele><time>2026-04-08T07:52:48Z</time></trkpt><trkpt lat="43.271818905728836" lon="11.357398994936135"><ele>223.0</ele><time>2026-04-08T07:52:50Z</time></trkpt><trkpt lat="43.27175675530047" lon="11.357359835752407"><ele>222.99999999999997</ele><time>2026-04-08T07:52:51Z</time></trkpt><trkpt lat="43.271694067245065" lon="11.357303390076032"><ele>223.0</ele><time>2026-04-08T07:52:52Z</time></trkpt><trkpt lat="43.271623685096934" lon="11.357226820522428"><ele>223.0</ele><time>2026-04-08T07:52:53Z</time></trkpt><trkpt lat="43.27156690797352" lon="11.35716810289129"><ele>223.0</ele><time>2026-04-08T07:52:54Z</time></trkpt><trkpt lat="43.271492549040175" lon="11.35708968334826"><ele>222.99999999999997</ele><time>2026-04-08T07:52:56Z</time></trkpt><trkpt lat="43.271424759781034" lon="11.357021691814179"><ele>223.0</ele><time>2026-04-08T07:53:10.999Z</time></trkpt><trkpt lat="43.271378073455956" lon="11.356941227618144"><ele>222.83333333333331</ele><time>2026-04-08T07:53:11.999Z</time></trkpt><trkpt lat="43.27130290976686" lon="11.356857624861947"><ele>222.66666666666666</ele><time>2026-04-08T07:53:12.999Z</time></trkpt><trkpt lat="43.27124374467409" lon="11.356793617731132"><ele>222.5</ele><time>2026-04-08T07:53:13.999Z</time></trkpt><trkpt lat="43.27118160945079" lon="11.356749137041549"><ele>222.33333333333331</ele><time>2026-04-08T07:53:14.999Z</time></trkpt><trkpt lat="43.27108975524436" lon="11.356634120294327"><ele>222.16666666666666</ele><time>2026-04-08T07:53:16.999Z</time></trkpt><trkpt lat="43.27103130946903" lon="11.356570195805789"><ele>222.0</ele><time>2026-04-08T07:53:17.999Z</time></trkpt><trkpt lat="43.27096907167867" lon="11.356532737626628"><ele>222.0</ele><time>2026-04-08T07:53:18.999Z</time></trkpt><trkpt lat="43.270900922705714" lon="11.356466951518904"><ele>222.0</ele><time>2026-04-08T07:53:19.999Z</time></trkpt><trkpt lat="43.270826911963496" lon="11.356391306635151"><ele>222.0</ele><time>2026-04-08T07:53:20.999Z</time></trkpt><trkpt lat="43.27075992854911" lon="11.35631770581024"><ele>222.0</ele><time>2026-04-08T07:53:21.999Z</time></trkpt><trkpt lat="43.27070253311245" lon="11.356257703905943"><ele>222.0</ele><time>2026-04-08T07:53:22.999Z</time></trkpt><trkpt lat="43.270652277942325" lon="11.3562026750696"><ele>222.0</ele><time>2026-04-08T07:53:23.999Z</time></trkpt><trkpt lat="43.27059257079531" lon="11.356140921669635"><ele>220.0</ele><time>2026-04-08T07:53:24.999Z</time></trkpt><trkpt lat="43.27052304508829" lon="11.356068628254533"><ele>218.0</ele><time>2026-04-08T07:53:25.999Z</time></trkpt><trkpt lat="43.270439737351445" lon="11.355990233703778"><ele>216.0</ele><time>2026-04-08T07:53:26.999Z</time></trkpt><trkpt lat="43.27036433353781" lon="11.355947038455179"><ele>214.0</ele><time>2026-04-08T07:53:27.999Z</time></trkpt><trkpt lat="43.270298703380085" lon="11.355901687380813"><ele>212.0</ele><time>2026-04-08T07:53:28.999Z</time></trkpt><trkpt lat="43.2702046109529" lon="11.355878875516824"><ele>210.0</ele><time>2026-04-08T07:53:29.999Z</time></trkpt><trkpt lat="43.270099909055844" lon="11.355876451374515"><ele>210.0</ele><time>2026-04-08T07:53:30.999Z</time></trkpt><trkpt lat="43.27001817383488" lon="11.355881950072083"><ele>210.0</ele><time>2026-04-08T07:53:31.999Z</time></trkpt><trkpt lat="43.269944597381794" lon="11.355891944525602"><ele>210.0</ele><time>2026-04-08T07:53:32.999Z</time></trkpt><trkpt lat="43.269862932588715" lon="11.355928616096932"><ele>210.0</ele><time>2026-04-08T07:53:33.999Z</time></trkpt><trkpt lat="43.2697808712839" lon="11.355951293428054"><ele>210.0</ele><time>2026-04-08T07:53:34.999Z</time></trkpt><trkpt lat="43.269704325698484" lon="11.35595535679562"><ele>210.0</ele><time>2026-04-08T07:53:35.999Z</time></trkpt><trkpt lat="43.26962478813935" lon="11.355995039004373"><ele>208.66666666666666</ele><time>2026-04-08T07:53:36.999Z</time></trkpt><trkpt lat="43.26955738874921" lon="11.356065623475477"><ele>207.33333333333331</ele><time>2026-04-08T07:53:37.999Z</time></trkpt><trkpt lat="43.26948806252548" lon="11.35609752991135"><ele>206.0</ele><time>2026-04-08T07:53:38.999Z</time></trkpt><trkpt lat="43.26942114102362" lon="11.356158681229163"><ele>204.66666666666666</ele><time>2026-04-08T07:53:39.999Z</time></trkpt><trkpt lat="43.26935037824211" lon="11.356230407585452"><ele>203.33333333333331</ele><time>2026-04-08T07:53:40.999Z</time></trkpt><trkpt lat="43.269289406207335" lon="11.35630409995041"><ele>202.0</ele><time>2026-04-08T07:53:41.999Z</time></trkpt><trkpt lat="43.26923640180352" lon="11.356378337661106"><ele>202.0</ele><time>2026-04-08T07:53:42.999Z</time></trkpt><trkpt lat="43.26917515939965" lon="11.356460986117646"><ele>202.0</ele><time>2026-04-08T07:53:43.999Z</time></trkpt><trkpt lat="43.2691184334489" lon="11.35657121322879"><ele>202.0</ele><time>2026-04-08T07:53:44.999Z</time></trkpt><trkpt lat="43.26906642217074" lon="11.356687524130479"><ele>202.0</ele><time>2026-04-08T07:53:45.999Z</time></trkpt><trkpt lat="43.26901764695319" lon="11.356814942526764"><ele>202.0</ele><time>2026-04-08T07:53:46.999Z</time></trkpt><trkpt lat="43.26897984649461" lon="11.356930414564696"><ele>201.99999999999997</ele><time>2026-04-08T07:53:47.999Z</time></trkpt><trkpt lat="43.26895721875239" lon="11.3570393375943"><ele>202.0</ele><time>2026-04-08T07:53:48.999Z</time></trkpt><trkpt lat="43.26894108232961" lon="11.357152050109162"><ele>202.0</ele><time>2026-04-08T07:53:49.999Z</time></trkpt><trkpt lat="43.268931821335116" lon="11.35728400696354"><ele>202.0</ele><time>2026-04-08T07:53:50.999Z</time></trkpt><trkpt lat="43.2689260645543" lon="11.357409954536218"><ele>201.99999999999997</ele><time>2026-04-08T07:53:51.999Z</time></trkpt><trkpt lat="43.26892159562798" lon="11.357538699048087"><ele>202.0</ele><time>2026-04-08T07:53:52.999Z</time></trkpt><trkpt lat="43.268936016069006" lon="11.357688729500005"><ele>199.39999999999998</ele><time>2026-04-08T07:53:53.999Z</time></trkpt><trkpt lat="43.26892893382037" lon="11.357846166201165"><ele>196.79999999999998</ele><time>2026-04-08T07:53:54.999Z</time></trkpt><trkpt lat="43.2689338246979" lon="11.357990517150947"><ele>194.2</ele><time>2026-04-08T07:53:55.999Z</time></trkpt><trkpt lat="43.26892875813449" lon="11.358114163500751"><ele>191.6</ele><time>2026-04-08T07:53:56.999Z</time></trkpt><trkpt lat="43.26890506575285" lon="11.358235374504448"><ele>189.0</ele><time>2026-04-08T07:53:57.999Z</time></trkpt><trkpt lat="43.268893441695354" lon="11.35834633327661"><ele>189.0</ele><time>2026-04-08T07:53:58.999Z</time></trkpt><trkpt lat="43.2688779571592" lon="11.358459067153818"><ele>189.0</ele><time>2026-04-08T07:53:59.999Z</time></trkpt><trkpt lat="43.268860951655775" lon="11.358583168081942"><ele>189.0</ele><time>2026-04-08T07:54:00.999Z</time></trkpt><trkpt lat="43.268822793041466" lon="11.358716961704094"><ele>189.0</ele><time>2026-04-08T07:54:01.999Z</time></trkpt><trkpt lat="43.26876126166406" lon="11.358831524481019"><ele>189.0</ele><time>2026-04-08T07:54:02.999Z</time></trkpt><trkpt lat="43.2687043800385" lon="11.358935149048262"><ele>189.2</ele><time>2026-04-08T07:54:03.999Z</time></trkpt><trkpt lat="43.26864327740734" lon="11.359026013163037"><ele>189.39999999999998</ele><time>2026-04-08T07:54:04.999Z</time></trkpt><trkpt lat="43.268572411273745" lon="11.359105189041319"><ele>189.6</ele><time>2026-04-08T07:54:05.999Z</time></trkpt><trkpt lat="43.26848945570957" lon="11.359188502539443"><ele>189.8</ele><time>2026-04-08T07:54:06.999Z</time></trkpt><trkpt lat="43.26839148801095" lon="11.359259448176612"><ele>190.0</ele><time>2026-04-08T07:54:07.999Z</time></trkpt><trkpt lat="43.26827591143672" lon="11.359319984686456"><ele>190.0</ele><time>2026-04-08T07:54:08.999Z</time></trkpt><trkpt lat="43.26816021435315" lon="11.359368222921892"><ele>190.0</ele><time>2026-04-08T07:54:09.999Z</time></trkpt><trkpt lat="43.26805697361785" lon="11.35939115364465"><ele>190.0</ele><time>2026-04-08T07:54:11Z</time></trkpt><trkpt lat="43.26795396696787" lon="11.359386323186438"><ele>190.0</ele><time>2026-04-08T07:54:12Z</time></trkpt><trkpt lat="43.26783205427213" lon="11.359362254802294"><ele>189.0</ele><time>2026-04-08T07:54:13Z</time></trkpt><trkpt lat="43.2676999830185" lon="11.359322294243476"><ele>188.0</ele><time>2026-04-08T07:54:14Z</time></trkpt><trkpt lat="43.26755798204219" lon="11.359270566917795"><ele>187.0</ele><time>2026-04-08T07:54:15Z</time></trkpt><trkpt lat="43.26743846955654" lon="11.359224202981437"><ele>186.0</ele><time>2026-04-08T07:54:16Z</time></trkpt><trkpt lat="43.267324905488536" lon="11.359188328718814"><ele>185.75</ele><time>2026-04-08T07:54:17Z</time></trkpt><trkpt lat="43.26720491782029" lon="11.359131602474793"><ele>185.5</ele><time>2026-04-08T07:54:18Z</time></trkpt><trkpt lat="43.26706846506582" lon="11.359078874262801"><ele>185.25</ele><time>2026-04-08T07:54:19Z</time></trkpt><trkpt lat="43.26694501075147" lon="11.359030064501518"><ele>185.0</ele><time>2026-04-08T07:54:20Z</time></trkpt><trkpt lat="43.26683892677927" lon="11.358988859221554"><ele>185.0</ele><time>2026-04-08T07:54:21Z</time></trkpt><trkpt lat="43.266723662795705" lon="11.35893951045684"><ele>185.0</ele><time>2026-04-08T07:54:22Z</time></trkpt><trkpt lat="43.26660188197032" lon="11.358883737381497"><ele>185.0</ele><time>2026-04-08T07:54:23Z</time></trkpt><trkpt lat="43.26649107335823" lon="11.358832161017766"><ele>185.0</ele><time>2026-04-08T07:54:24Z</time></trkpt><trkpt lat="43.26639084145742" lon="11.358789683156058"><ele>185.0</ele><time>2026-04-08T07:54:25Z</time></trkpt><trkpt lat="43.26628221431514" lon="11.358747993455978"><ele>185.0</ele><time>2026-04-08T07:54:26Z</time></trkpt><trkpt lat="43.2661712046344" lon="11.358703323093618"><ele>185.0</ele><time>2026-04-08T07:54:27Z</time></trkpt><trkpt lat="43.26605526037376" lon="11.358653825209657"><ele>185.0</ele><time>2026-04-08T07:54:28Z</time></trkpt><trkpt lat="43.26594026206554" lon="11.358602469177864"><ele>185.0</ele><time>2026-04-08T07:54:29Z</time></trkpt><trkpt lat="43.26582378112249" lon="11.358547565506559"><ele>185.0</ele><time>2026-04-08T07:54:30Z</time></trkpt><trkpt lat="43.26570926358893" lon="11.358482366209257"><ele>185.0</ele><time>2026-04-08T07:54:31Z</time></trkpt><trkpt lat="43.2656099317737" lon="11.358460193130911"><ele>185.0</ele><time>2026-04-08T07:54:32Z</time></trkpt><trkpt lat="43.26552773090296" lon="11.35840353845082"><ele>185.0</ele><time>2026-04-08T07:54:33Z</time></trkpt><trkpt lat="43.26543719669686" lon="11.35838936794032"><ele>184.8</ele><time>2026-04-08T07:54:34Z</time></trkpt><trkpt lat="43.265345627064384" lon="11.358348274800473"><ele>184.6</ele><time>2026-04-08T07:54:35Z</time></trkpt><trkpt lat="43.26525064217239" lon="11.358302650522345"><ele>184.39999999999998</ele><time>2026-04-08T07:54:36Z</time></trkpt><trkpt lat="43.2651597799418" lon="11.358268622106682"><ele>184.2</ele><time>2026-04-08T07:54:37Z</time></trkpt><trkpt lat="43.26507832308907" lon="11.358231681316678"><ele>184.0</ele><time>2026-04-08T07:54:38Z</time></trkpt><trkpt lat="43.26499356071174" lon="11.35820265784202"><ele>184.0</ele><time>2026-04-08T07:54:39Z</time></trkpt><trkpt lat="43.26491753153582" lon="11.358192213122644"><ele>184.0</ele><time>2026-04-08T07:54:40Z</time></trkpt><trkpt lat="43.26484376817131" lon="11.358179006438222"><ele>184.0</ele><time>2026-04-08T07:54:41Z</time></trkpt><trkpt lat="43.264764062780685" lon="11.358198314950151"><ele>184.0</ele><time>2026-04-08T07:54:42Z</time></trkpt><trkpt lat="43.26467713611401" lon="11.35825294892458"><ele>184.0</ele><time>2026-04-08T07:54:43Z</time></trkpt><trkpt lat="43.26460044650899" lon="11.358323300287667"><ele>184.0</ele><time>2026-04-08T07:54:44Z</time></trkpt><trkpt lat="43.26453823584156" lon="11.358439354309047"><ele>184.0</ele><time>2026-04-08T07:54:45Z</time></trkpt><trkpt lat="43.26446203106543" lon="11.358580804059489"><ele>184.0</ele><time>2026-04-08T07:54:46Z</time></trkpt><trkpt lat="43.26437589306196" lon="11.358738405232131"><ele>184.0</ele><time>2026-04-08T07:54:47Z</time></trkpt><trkpt lat="43.2643066901514" lon="11.358860690158236"><ele>184.0</ele><time>2026-04-08T07:54:48Z</time></trkpt><trkpt lat="43.26423625727999" lon="11.358975500008613"><ele>184.0</ele><time>2026-04-08T07:54:49Z</time></trkpt><trkpt lat="43.26416429311774" lon="11.359077583653233"><ele>184.0</ele><time>2026-04-08T07:54:50Z</time></trkpt><trkpt lat="43.26408363599399" lon="11.359165767993986"><ele>184.0</ele><time>2026-04-08T07:54:51Z</time></trkpt><trkpt lat="43.26398971528038" lon="11.35925291881139"><ele>184.0</ele><time>2026-04-08T07:54:52Z</time></trkpt><trkpt lat="43.26387945861017" lon="11.359336094708324"><ele>184.0</ele><time>2026-04-08T07:54:53Z</time></trkpt><trkpt lat="43.26377454108076" lon="11.35940998475868"><ele>183.79999999999998</ele><time>2026-04-08T07:54:54Z</time></trkpt><trkpt lat="43.263678728559896" lon="11.35947142530833"><ele>183.6</ele><time>2026-04-08T07:54:55Z</time></trkpt><trkpt lat="43.26358805380882" lon="11.35955038704026"><ele>183.4</ele><time>2026-04-08T07:54:56Z</time></trkpt><trkpt lat="43.26350106696017" lon="11.359616470827131"><ele>183.2</ele><time>2026-04-08T07:54:57Z</time></trkpt><trkpt lat="43.263396246836244" lon="11.359691142124023"><ele>183.0</ele><time>2026-04-08T07:54:58Z</time></trkpt><trkpt lat="43.26329435085069" lon="11.359788609436881"><ele>182.8</ele><time>2026-04-08T07:54:59Z</time></trkpt><trkpt lat="43.26320786533008" lon="11.359876754809683"><ele>182.60000000000002</ele><time>2026-04-08T07:55:00Z</time></trkpt><trkpt lat="43.26312854173126" lon="11.359962578378385"><ele>182.39999999999998</ele><time>2026-04-08T07:55:01Z</time></trkpt><trkpt lat="43.26305763453261" lon="11.360070373501662"><ele>182.2</ele><time>2026-04-08T07:55:02Z</time></trkpt><trkpt lat="43.26296718023069" lon="11.360159948016584"><ele>182.0</ele><time>2026-04-08T07:55:03Z</time></trkpt><trkpt lat="43.26287878218371" lon="11.360271384491671"><ele>182.25</ele><time>2026-04-08T07:55:04Z</time></trkpt><trkpt lat="43.26277685436536" lon="11.360376855027619"><ele>182.5</ele><time>2026-04-08T07:55:05Z</time></trkpt><trkpt lat="43.26267342307166" lon="11.360486992823576"><ele>182.75</ele><time>2026-04-08T07:55:06Z</time></trkpt><trkpt lat="43.26258960163985" lon="11.360596038809458"><ele>183.0</ele><time>2026-04-08T07:55:07Z</time></trkpt><trkpt lat="43.26250473997739" lon="11.360696099169504"><ele>183.0</ele><time>2026-04-08T07:55:08Z</time></trkpt><trkpt lat="43.26241297066016" lon="11.360816583133426"><ele>183.0</ele><time>2026-04-08T07:55:09Z</time></trkpt><trkpt lat="43.262318050148245" lon="11.360936771146125"><ele>183.0</ele><time>2026-04-08T07:55:10Z</time></trkpt><trkpt lat="43.262237640160436" lon="11.361045995605414"><ele>183.0</ele><time>2026-04-08T07:55:11Z</time></trkpt><trkpt lat="43.26216838946589" lon="11.361131684643057"><ele>182.75</ele><time>2026-04-08T07:55:12Z</time></trkpt><trkpt lat="43.262085704138094" lon="11.361201922186053"><ele>182.5</ele><time>2026-04-08T07:55:13Z</time></trkpt><trkpt lat="43.26200372989501" lon="11.361313979620888"><ele>182.25</ele><time>2026-04-08T07:55:14Z</time></trkpt><trkpt lat="43.26189718975379" lon="11.361389247914964"><ele>182.0</ele><time>2026-04-08T07:55:15Z</time></trkpt><trkpt lat="43.26180061408635" lon="11.361496491671682"><ele>182.0</ele><time>2026-04-08T07:55:15.999Z</time></trkpt><trkpt lat="43.261691504884155" lon="11.361577124144214"><ele>182.0</ele><time>2026-04-08T07:55:16.999Z</time></trkpt><trkpt lat="43.26159074211811" lon="11.361645661715695"><ele>182.0</ele><time>2026-04-08T07:55:17.999Z</time></trkpt><trkpt lat="43.261491657618016" lon="11.361710132286136"><ele>182.0</ele><time>2026-04-08T07:55:18.999Z</time></trkpt><trkpt lat="43.26138455086116" lon="11.36174709182382"><ele>182.0</ele><time>2026-04-08T07:55:19.999Z</time></trkpt><trkpt lat="43.261286787708364" lon="11.361821047164396"><ele>182.0</ele><time>2026-04-08T07:55:20.999Z</time></trkpt><trkpt lat="43.261194887840915" lon="11.361840295286703"><ele>182.0</ele><time>2026-04-08T07:55:21.999Z</time></trkpt><trkpt lat="43.26110647253934" lon="11.361877115534218"><ele>182.0</ele><time>2026-04-08T07:55:22.999Z</time></trkpt><trkpt lat="43.260993343684774" lon="11.361913011291666"><ele>182.0</ele><time>2026-04-08T07:55:23.999Z</time></trkpt><trkpt lat="43.260867449572615" lon="11.361937165082088"><ele>182.0</ele><time>2026-04-08T07:55:24.999Z</time></trkpt><trkpt lat="43.26073354461124" lon="11.361945444446944"><ele>182.0</ele><time>2026-04-08T07:55:25.999Z</time></trkpt><trkpt lat="43.2605997888097" lon="11.361936384005144"><ele>182.0</ele><time>2026-04-08T07:55:26.999Z</time></trkpt><trkpt lat="43.26049495980891" lon="11.361940132365632"><ele>182.0</ele><time>2026-04-08T07:55:27.999Z</time></trkpt><trkpt lat="43.260395900979994" lon="11.361917269353928"><ele>182.75</ele><time>2026-04-08T07:55:28.999Z</time></trkpt><trkpt lat="43.26028449854733" lon="11.361893938735317"><ele>183.5</ele><time>2026-04-08T07:55:29.999Z</time></trkpt><trkpt lat="43.26016167024906" lon="11.361859420394698"><ele>184.25</ele><time>2026-04-08T07:55:30.999Z</time></trkpt><trkpt lat="43.2600335729781" lon="11.361823715271704"><ele>185.0</ele><time>2026-04-08T07:55:31.999Z</time></trkpt><trkpt lat="43.25992254488329" lon="11.361786471142548"><ele>185.0</ele><time>2026-04-08T07:55:32.999Z</time></trkpt><trkpt lat="43.25983277657055" lon="11.361759164884425"><ele>185.0</ele><time>2026-04-08T07:55:33.999Z</time></trkpt><trkpt lat="43.259729899762114" lon="11.361723544112094"><ele>185.0</ele><time>2026-04-08T07:55:34.999Z</time></trkpt><trkpt lat="43.25962245709" lon="11.361675409982823"><ele>185.0</ele><time>2026-04-08T07:55:35.999Z</time></trkpt><trkpt lat="43.25950401199156" lon="11.361624882492679"><ele>185.0</ele><time>2026-04-08T07:55:36.999Z</time></trkpt><trkpt lat="43.25940071921649" lon="11.361563016743947"><ele>185.0</ele><time>2026-04-08T07:55:37.999Z</time></trkpt><trkpt lat="43.25931174508963" lon="11.361515841650004"><ele>185.0</ele><time>2026-04-08T07:55:38.999Z</time></trkpt><trkpt lat="43.2592104265425" lon="11.36147204528166"><ele>185.0</ele><time>2026-04-08T07:55:39.999Z</time></trkpt><trkpt lat="43.25910161829923" lon="11.36141305385546"><ele>185.0</ele><time>2026-04-08T07:55:40.999Z</time></trkpt><trkpt lat="43.258989590413776" lon="11.361347322875808"><ele>185.0</ele><time>2026-04-08T07:55:41.999Z</time></trkpt><trkpt lat="43.25887579471984" lon="11.361276125246912"><ele>187.0</ele><time>2026-04-08T07:55:42.999Z</time></trkpt><trkpt lat="43.25879322197372" lon="11.361209678956973"><ele>189.0</ele><time>2026-04-08T07:55:43.999Z</time></trkpt><trkpt lat="43.258700506799535" lon="11.36113020059852"><ele>191.0</ele><time>2026-04-08T07:55:44.999Z</time></trkpt><trkpt lat="43.25860145399114" lon="11.361036777911819"><ele>193.0</ele><time>2026-04-08T07:55:45.999Z</time></trkpt><trkpt lat="43.25850007489564" lon="11.360943453658022"><ele>195.0</ele><time>2026-04-08T07:55:46.999Z</time></trkpt><trkpt lat="43.25841705011917" lon="11.36086403290128"><ele>195.0</ele><time>2026-04-08T07:55:47.999Z</time></trkpt><trkpt lat="43.258338900259275" lon="11.360794520039299"><ele>195.0</ele><time>2026-04-08T07:55:48.999Z</time></trkpt><trkpt lat="43.25824588136146" lon="11.360706178782646"><ele>195.0</ele><time>2026-04-08T07:55:49.999Z</time></trkpt><trkpt lat="43.25816018492204" lon="11.360619991929374"><ele>195.0</ele><time>2026-04-08T07:55:50.999Z</time></trkpt><trkpt lat="43.25807937110162" lon="11.360540124239463"><ele>195.0</ele><time>2026-04-08T07:55:51.999Z</time></trkpt><trkpt lat="43.258002186784786" lon="11.36046411246965"><ele>195.0</ele><time>2026-04-08T07:55:52.999Z</time></trkpt><trkpt lat="43.25791577351856" lon="11.360409703974712"><ele>195.0</ele><time>2026-04-08T07:55:53.999Z</time></trkpt><trkpt lat="43.257816732014724" lon="11.36036334026715"><ele>195.0</ele><time>2026-04-08T07:55:54.999Z</time></trkpt><trkpt lat="43.25771160126586" lon="11.360315043663446"><ele>195.0</ele><time>2026-04-08T07:55:55.999Z</time></trkpt><trkpt lat="43.25759962838579" lon="11.360265936923396"><ele>195.0</ele><time>2026-04-08T07:55:56.999Z</time></trkpt><trkpt lat="43.25749975377428" lon="11.360223686435015"><ele>195.0</ele><time>2026-04-08T07:55:57.999Z</time></trkpt><trkpt lat="43.2574094896056" lon="11.36018756535551"><ele>195.0</ele><time>2026-04-08T07:55:58.999Z</time></trkpt><trkpt lat="43.25730660669579" lon="11.36015058755569"><ele>195.0</ele><time>2026-04-08T07:55:59.999Z</time></trkpt><trkpt lat="43.257202418813165" lon="11.360116080888998"><ele>195.0</ele><time>2026-04-08T07:56:00.999Z</time></trkpt><trkpt lat="43.25709511072757" lon="11.360095130802707"><ele>195.0</ele><time>2026-04-08T07:56:01.999Z</time></trkpt><trkpt lat="43.25698295010525" lon="11.360084755553315"><ele>196.0</ele><time>2026-04-08T07:56:02.999Z</time></trkpt><trkpt lat="43.256870829412655" lon="11.360060934577758"><ele>197.0</ele><time>2026-04-08T07:56:03.999Z</time></trkpt><trkpt lat="43.25675429847034" lon="11.360066291248392"><ele>198.0</ele><time>2026-04-08T07:56:04.999Z</time></trkpt><trkpt lat="43.256633417951655" lon="11.360080952059207"><ele>199.0</ele><time>2026-04-08T07:56:05.999Z</time></trkpt><trkpt lat="43.25650332060406" lon="11.360104172535952"><ele>199.79999999999998</ele><time>2026-04-08T07:56:06.999Z</time></trkpt><trkpt lat="43.25638457954309" lon="11.360131997738572"><ele>200.6</ele><time>2026-04-08T07:56:07.999Z</time></trkpt><trkpt lat="43.25628840493958" lon="11.360157569306164"><ele>201.4</ele><time>2026-04-08T07:56:08.999Z</time></trkpt><trkpt lat="43.25619372038396" lon="11.360186032477522"><ele>202.2</ele><time>2026-04-08T07:56:09.999Z</time></trkpt><trkpt lat="43.256096311715716" lon="11.360225567776181"><ele>203.0</ele><time>2026-04-08T07:56:10.999Z</time></trkpt><trkpt lat="43.25600596407121" lon="11.36028147398526"><ele>203.00000000000003</ele><time>2026-04-08T07:56:11.999Z</time></trkpt><trkpt lat="43.25593199012407" lon="11.360338611805743"><ele>203.0</ele><time>2026-04-08T07:56:12.999Z</time></trkpt><trkpt lat="43.2558638276948" lon="11.360388174059665"><ele>203.0</ele><time>2026-04-08T07:56:13.999Z</time></trkpt><trkpt lat="43.25578716820758" lon="11.360440166681446"><ele>203.0</ele><time>2026-04-08T07:56:14.999Z</time></trkpt><trkpt lat="43.25570857403129" lon="11.360493471504043"><ele>203.00000000000003</ele><time>2026-04-08T07:56:15.999Z</time></trkpt><trkpt lat="43.25562711341592" lon="11.360549785548383"><ele>203.0</ele><time>2026-04-08T07:56:17Z</time></trkpt><trkpt lat="43.255547058004396" lon="11.360606742406619"><ele>205.2</ele><time>2026-04-08T07:56:18Z</time></trkpt><trkpt lat="43.25547289481719" lon="11.360683748221195"><ele>207.4</ele><time>2026-04-08T07:56:19Z</time></trkpt><trkpt lat="43.255383932127124" lon="11.36073261806501"><ele>209.59999999999997</ele><time>2026-04-08T07:56:20Z</time></trkpt><trkpt lat="43.25530337012054" lon="11.36081378211728"><ele>211.79999999999998</ele><time>2026-04-08T07:56:21Z</time></trkpt><trkpt lat="43.25522622913889" lon="11.360899272478232"><ele>214.0</ele><time>2026-04-08T07:56:22Z</time></trkpt><trkpt lat="43.25515464164639" lon="11.360995351457111"><ele>214.0</ele><time>2026-04-08T07:56:23Z</time></trkpt><trkpt lat="43.25508116356279" lon="11.361115708999241"><ele>214.0</ele><time>2026-04-08T07:56:24Z</time></trkpt><trkpt lat="43.25500580769817" lon="11.361252359624267"><ele>214.0</ele><time>2026-04-08T07:56:25Z</time></trkpt><trkpt lat="43.25492363495978" lon="11.361390264771046"><ele>214.0</ele><time>2026-04-08T07:56:26Z</time></trkpt><trkpt lat="43.25486226659322" lon="11.361524513674919"><ele>214.0</ele><time>2026-04-08T07:56:27Z</time></trkpt><trkpt lat="43.25480948414073" lon="11.361633060351819"><ele>213.99999999999997</ele><time>2026-04-08T07:56:28Z</time></trkpt><trkpt lat="43.25475301602575" lon="11.361752036715178"><ele>213.99999999999997</ele><time>2026-04-08T07:56:29Z</time></trkpt><trkpt lat="43.25468620896907" lon="11.361880716988328"><ele>214.0</ele><time>2026-04-08T07:56:30Z</time></trkpt><trkpt lat="43.25459333876728" lon="11.361982937621352"><ele>214.0</ele><time>2026-04-08T07:56:31Z</time></trkpt><trkpt lat="43.25449924097202" lon="11.362074882401922"><ele>215.2</ele><time>2026-04-08T07:56:32Z</time></trkpt><trkpt lat="43.25442033517322" lon="11.362141079628447"><ele>216.39999999999998</ele><time>2026-04-08T07:56:33Z</time></trkpt><trkpt lat="43.25434660951027" lon="11.362191919152682"><ele>217.6</ele><time>2026-04-08T07:56:34Z</time></trkpt><trkpt lat="43.25426054018165" lon="11.36224462516511"><ele>218.8</ele><time>2026-04-08T07:56:35Z</time></trkpt><trkpt lat="43.25417382699805" lon="11.362291308937346"><ele>220.0</ele><time>2026-04-08T07:56:36Z</time></trkpt><trkpt lat="43.25407914718179" lon="11.36233003527641"><ele>220.0</ele><time>2026-04-08T07:56:37Z</time></trkpt><trkpt lat="43.253981495369" lon="11.362346954574516"><ele>220.0</ele><time>2026-04-08T07:56:38Z</time></trkpt><trkpt lat="43.25388050626405" lon="11.362356747177541"><ele>220.0</ele><time>2026-04-08T07:56:39Z</time></trkpt><trkpt lat="43.25378361030625" lon="11.362372600599599"><ele>220.0</ele><time>2026-04-08T07:56:40Z</time></trkpt><trkpt lat="43.25368599722829" lon="11.36240722785791"><ele>220.0</ele><time>2026-04-08T07:56:41Z</time></trkpt><trkpt lat="43.25358126621815" lon="11.362417971937045"><ele>221.0</ele><time>2026-04-08T07:56:42Z</time></trkpt><trkpt lat="43.25346431133694" lon="11.36244423613723"><ele>222.0</ele><time>2026-04-08T07:56:43Z</time></trkpt><trkpt lat="43.25335393209883" lon="11.362484691595673"><ele>223.0</ele><time>2026-04-08T07:56:44Z</time></trkpt><trkpt lat="43.25326976875905" lon="11.362511229015055"><ele>224.0</ele><time>2026-04-08T07:56:45Z</time></trkpt><trkpt lat="43.25318817698929" lon="11.362537489901811"><ele>225.0</ele><time>2026-04-08T07:56:47Z</time></trkpt><trkpt lat="43.253252268515226" lon="11.362499836588094"><ele>225.0</ele><time>2026-04-08T07:57:56.999Z</time></trkpt><trkpt lat="43.25319503850826" lon="11.362568421200026"><ele>225.0</ele><time>2026-04-08T07:59:42.999Z</time></trkpt><trkpt lat="43.25308259431166" lon="11.362619488599208"><ele>225.0</ele><time>2026-04-08T07:59:44.999Z</time></trkpt><trkpt lat="43.25302008039485" lon="11.362646748759985"><ele>225.0</ele><time>2026-04-08T07:59:45.999Z</time></trkpt><trkpt lat="43.252944626178135" lon="11.362648127087013"><ele>225.0</ele><time>2026-04-08T07:59:46.999Z</time></trkpt><trkpt lat="43.25286742321104" lon="11.362691200553751"><ele>225.0</ele><time>2026-04-08T07:59:47.999Z</time></trkpt><trkpt lat="43.25279579311776" lon="11.362733870024734"><ele>225.5</ele><time>2026-04-08T07:59:48.999Z</time></trkpt><trkpt lat="43.25273186836449" lon="11.362771541824324"><ele>226.0</ele><time>2026-04-08T07:59:49.999Z</time></trkpt><trkpt lat="43.25266359797048" lon="11.362812523684404"><ele>226.5</ele><time>2026-04-08T07:59:50.999Z</time></trkpt><trkpt lat="43.25259440481984" lon="11.362857200698613"><ele>227.0</ele><time>2026-04-08T07:59:51.999Z</time></trkpt><trkpt lat="43.25252374059799" lon="11.36290624399439"><ele>227.5</ele><time>2026-04-08T07:59:52.999Z</time></trkpt><trkpt lat="43.25245425365656" lon="11.36296215669548"><ele>228.0</ele><time>2026-04-08T07:59:53.999Z</time></trkpt><trkpt lat="43.25238830382649" lon="11.363023744232978"><ele>228.83333333333334</ele><time>2026-04-08T07:59:54.999Z</time></trkpt><trkpt lat="43.2523219143643" lon="11.363089673814548"><ele>229.66666666666669</ele><time>2026-04-08T07:59:55.999Z</time></trkpt><trkpt lat="43.25225414686801" lon="11.363158533398472"><ele>230.5</ele><time>2026-04-08T07:59:56.999Z</time></trkpt><trkpt lat="43.252182878220204" lon="11.363235741097522"><ele>231.33333333333334</ele><time>2026-04-08T07:59:57.999Z</time></trkpt><trkpt lat="43.25211553425475" lon="11.363313268760566"><ele>232.16666666666669</ele><time>2026-04-08T07:59:58.999Z</time></trkpt><trkpt lat="43.25206434538141" lon="11.363369577324876"><ele>233.0</ele><time>2026-04-08T07:59:59.999Z</time></trkpt><trkpt lat="43.25200257328904" lon="11.363423663829979"><ele>233.00000000000003</ele><time>2026-04-08T08:00:00.999Z</time></trkpt><trkpt lat="43.251928746192874" lon="11.363479674927499"><ele>233.0</ele><time>2026-04-08T08:00:01.999Z</time></trkpt><trkpt lat="43.251846625949156" lon="11.363528408841011"><ele>233.0</ele><time>2026-04-08T08:00:02.999Z</time></trkpt><trkpt lat="43.251776651611195" lon="11.363585652620507"><ele>233.0</ele><time>2026-04-08T08:00:03.999Z</time></trkpt><trkpt lat="43.25169210124892" lon="11.363589370852447"><ele>233.00000000000003</ele><time>2026-04-08T08:00:04.999Z</time></trkpt><trkpt lat="43.2516082895383" lon="11.363598955662399"><ele>233.0</ele><time>2026-04-08T08:00:05.999Z</time></trkpt><trkpt lat="43.25152837087352" lon="11.363598424765957"><ele>231.66666666666669</ele><time>2026-04-08T08:00:06.999Z</time></trkpt><trkpt lat="43.25145526696832" lon="11.363591339298079"><ele>230.33333333333334</ele><time>2026-04-08T08:00:07.999Z</time></trkpt><trkpt lat="43.25138881058534" lon="11.36358277191889"><ele>229.0</ele><time>2026-04-08T08:00:08.999Z</time></trkpt><trkpt lat="43.251317005736084" lon="11.363563246090706"><ele>227.66666666666669</ele><time>2026-04-08T08:00:09.999Z</time></trkpt><trkpt lat="43.25123518914548" lon="11.363534752355973"><ele>226.33333333333334</ele><time>2026-04-08T08:00:10.999Z</time></trkpt><trkpt lat="43.25114263986341" lon="11.36349339494781"><ele>225.0</ele><time>2026-04-08T08:00:11.999Z</time></trkpt><trkpt lat="43.25104734932067" lon="11.363448780221288"><ele>225.0</ele><time>2026-04-08T08:00:12.999Z</time></trkpt><trkpt lat="43.25096081704094" lon="11.363411112912454"><ele>225.0</ele><time>2026-04-08T08:00:13.999Z</time></trkpt><trkpt lat="43.250866850341524" lon="11.363394954247426"><ele>225.0</ele><time>2026-04-08T08:00:14.999Z</time></trkpt><trkpt lat="43.25076367351134" lon="11.363348801025289"><ele>225.0</ele><time>2026-04-08T08:00:15.999Z</time></trkpt><trkpt lat="43.250650143899165" lon="11.36331146174614"><ele>225.0</ele><time>2026-04-08T08:00:16.999Z</time></trkpt><trkpt lat="43.25055542985199" lon="11.363269799412134"><ele>224.6</ele><time>2026-04-08T08:00:17.999Z</time></trkpt><trkpt lat="43.2504693267948" lon="11.363249902456962"><ele>224.2</ele><time>2026-04-08T08:00:18.999Z</time></trkpt><trkpt lat="43.2503726538722" lon="11.363228558599861"><ele>223.8</ele><time>2026-04-08T08:00:19.999Z</time></trkpt><trkpt lat="43.25026628709796" lon="11.36321835048762"><ele>223.4</ele><time>2026-04-08T08:00:20.999Z</time></trkpt><trkpt lat="43.25015573206322" lon="11.363188637434964"><ele>223.0</ele><time>2026-04-08T08:00:21.999Z</time></trkpt><trkpt lat="43.25003165736256" lon="11.363150166319564"><ele>223.0</ele><time>2026-04-08T08:00:22.999Z</time></trkpt><trkpt lat="43.2499184536122" lon="11.363113609754087"><ele>223.0</ele><time>2026-04-08T08:00:23.999Z</time></trkpt><trkpt lat="43.24982237783695" lon="11.36308630716562"><ele>223.0</ele><time>2026-04-08T08:00:24.999Z</time></trkpt><trkpt lat="43.249734381615674" lon="11.363070690019216"><ele>223.0</ele><time>2026-04-08T08:00:25.999Z</time></trkpt><trkpt lat="43.2496319788486" lon="11.36306901491477"><ele>223.0</ele><time>2026-04-08T08:00:26.999Z</time></trkpt><trkpt lat="43.249529106432426" lon="11.363072176568975"><ele>224.25</ele><time>2026-04-08T08:00:27.999Z</time></trkpt><trkpt lat="43.24942077458389" lon="11.363101539628763"><ele>225.5</ele><time>2026-04-08T08:00:29Z</time></trkpt><trkpt lat="43.24932221860238" lon="11.363148202720263"><ele>226.75</ele><time>2026-04-08T08:00:30Z</time></trkpt><trkpt lat="43.24921580278088" lon="11.363198548261717"><ele>228.0</ele><time>2026-04-08T08:00:31Z</time></trkpt><trkpt lat="43.24910553963734" lon="11.363296056906492"><ele>228.0</ele><time>2026-04-08T08:00:32Z</time></trkpt><trkpt lat="43.24901692910839" lon="11.363383744325063"><ele>228.0</ele><time>2026-04-08T08:00:33Z</time></trkpt><trkpt lat="43.248950119482494" lon="11.363466864149869"><ele>228.0</ele><time>2026-04-08T08:00:34Z</time></trkpt><trkpt lat="43.248889976558786" lon="11.36357930163294"><ele>228.0</ele><time>2026-04-08T08:00:35Z</time></trkpt><trkpt lat="43.24880739166447" lon="11.363665809475318"><ele>228.0</ele><time>2026-04-08T08:00:36Z</time></trkpt><trkpt lat="43.24873295823934" lon="11.36377581421005"><ele>227.75</ele><time>2026-04-08T08:00:37Z</time></trkpt><trkpt lat="43.24866055124739" lon="11.363902924621877"><ele>227.5</ele><time>2026-04-08T08:00:38Z</time></trkpt><trkpt lat="43.24857670835912" lon="11.364022887336478"><ele>227.25</ele><time>2026-04-08T08:00:39Z</time></trkpt><trkpt lat="43.24849087252006" lon="11.364134040742956"><ele>227.0</ele><time>2026-04-08T08:00:40Z</time></trkpt><trkpt lat="43.24842374323431" lon="11.364234592088717"><ele>227.0</ele><time>2026-04-08T08:00:41Z</time></trkpt><trkpt lat="43.24837119609751" lon="11.36431360847959"><ele>227.0</ele><time>2026-04-08T08:00:42Z</time></trkpt><trkpt lat="43.248322038431574" lon="11.3644150599663"><ele>227.0</ele><time>2026-04-08T08:00:43Z</time></trkpt><trkpt lat="43.24827907505827" lon="11.364541511614496"><ele>227.0</ele><time>2026-04-08T08:00:44Z</time></trkpt><trkpt lat="43.24825506984778" lon="11.364696726432808"><ele>227.0</ele><time>2026-04-08T08:00:45Z</time></trkpt><trkpt lat="43.24825558442266" lon="11.36485853118621"><ele>226.6</ele><time>2026-04-08T08:00:46Z</time></trkpt><trkpt lat="43.24826348645225" lon="11.36498904967611"><ele>226.2</ele><time>2026-04-08T08:00:47Z</time></trkpt><trkpt lat="43.24824263181985" lon="11.36510482217507"><ele>225.8</ele><time>2026-04-08T08:00:48Z</time></trkpt><trkpt lat="43.24823193372213" lon="11.36522563925246"><ele>225.4</ele><time>2026-04-08T08:00:49Z</time></trkpt><trkpt lat="43.24821231386655" lon="11.365351849577275"><ele>225.0</ele><time>2026-04-08T08:00:50Z</time></trkpt><trkpt lat="43.248168656809256" lon="11.365454047994138"><ele>224.66666666666666</ele><time>2026-04-08T08:00:51Z</time></trkpt><trkpt lat="43.24812394560091" lon="11.365531562321069"><ele>224.33333333333331</ele><time>2026-04-08T08:00:52Z</time></trkpt><trkpt lat="43.24807423978771" lon="11.365614237106035"><ele>224.0</ele><time>2026-04-08T08:00:53Z</time></trkpt><trkpt lat="43.24801564348125" lon="11.365702445932552"><ele>223.66666666666666</ele><time>2026-04-08T08:00:54Z</time></trkpt><trkpt lat="43.247950744183726" lon="11.36579223432899"><ele>223.33333333333331</ele><time>2026-04-08T08:00:55Z</time></trkpt><trkpt lat="43.2478796530548" lon="11.365879598102708"><ele>223.0</ele><time>2026-04-08T08:00:56Z</time></trkpt><trkpt lat="43.2478042379017" lon="11.365955890736622"><ele>223.0</ele><time>2026-04-08T08:00:57Z</time></trkpt><trkpt lat="43.247729558663885" lon="11.36599401239028"><ele>223.0</ele><time>2026-04-08T08:00:58Z</time></trkpt><trkpt lat="43.247644512340116" lon="11.366018216811126"><ele>223.0</ele><time>2026-04-08T08:00:59Z</time></trkpt><trkpt lat="43.2475410491286" lon="11.366041352156765"><ele>223.0</ele><time>2026-04-08T08:01:00Z</time></trkpt><trkpt lat="43.24742519697247" lon="11.36606402745023"><ele>223.0</ele><time>2026-04-08T08:01:01Z</time></trkpt><trkpt lat="43.24730117199262" lon="11.366084568475266"><ele>222.60000000000002</ele><time>2026-04-08T08:01:02Z</time></trkpt><trkpt lat="43.24717623314692" lon="11.366117164250971"><ele>222.20000000000002</ele><time>2026-04-08T08:01:03Z</time></trkpt><trkpt lat="43.24707079570518" lon="11.366152484158475"><ele>221.8</ele><time>2026-04-08T08:01:04Z</time></trkpt><trkpt lat="43.246975109656624" lon="11.36618636729351"><ele>221.4</ele><time>2026-04-08T08:01:05Z</time></trkpt><trkpt lat="43.24686844928939" lon="11.36622466516238"><ele>221.0</ele><time>2026-04-08T08:01:06Z</time></trkpt><trkpt lat="43.24674879704722" lon="11.366271054902986"><ele>221.0</ele><time>2026-04-08T08:01:07Z</time></trkpt><trkpt lat="43.246638088811835" lon="11.366320309719908"><ele>221.00000000000003</ele><time>2026-04-08T08:01:08Z</time></trkpt><trkpt lat="43.24654601401985" lon="11.366366780916659"><ele>221.00000000000003</ele><time>2026-04-08T08:01:09Z</time></trkpt><trkpt lat="43.24645576080952" lon="11.366440503989358"><ele>221.0</ele><time>2026-04-08T08:01:10Z</time></trkpt><trkpt lat="43.24635192298307" lon="11.366479157260418"><ele>221.0</ele><time>2026-04-08T08:01:11Z</time></trkpt><trkpt lat="43.24627567093849" lon="11.366531249606311"><ele>221.60000000000002</ele><time>2026-04-08T08:01:12Z</time></trkpt><trkpt lat="43.24620482156017" lon="11.366589976687694"><ele>222.20000000000002</ele><time>2026-04-08T08:01:13Z</time></trkpt><trkpt lat="43.246133616651846" lon="11.366663676451509"><ele>222.79999999999998</ele><time>2026-04-08T08:01:14Z</time></trkpt><trkpt lat="43.246072601009615" lon="11.36675660200351"><ele>223.39999999999998</ele><time>2026-04-08T08:01:15Z</time></trkpt><trkpt lat="43.24600429908643" lon="11.366834048477566"><ele>224.0</ele><time>2026-04-08T08:01:16Z</time></trkpt><trkpt lat="43.24590954752632" lon="11.366909016534938"><ele>224.0</ele><time>2026-04-08T08:01:17Z</time></trkpt><trkpt lat="43.24581649661818" lon="11.36700677846979"><ele>224.0</ele><time>2026-04-08T08:01:18Z</time></trkpt><trkpt lat="43.24572086413369" lon="11.367104865391003"><ele>224.0</ele><time>2026-04-08T08:01:19Z</time></trkpt><trkpt lat="43.24563444659822" lon="11.367200360884052"><ele>224.0</ele><time>2026-04-08T08:01:20Z</time></trkpt><trkpt lat="43.245532825037714" lon="11.367285098567798"><ele>223.0</ele><time>2026-04-08T08:01:21Z</time></trkpt><trkpt lat="43.245405811175914" lon="11.367333788266137"><ele>222.0</ele><time>2026-04-08T08:01:22Z</time></trkpt><trkpt lat="43.24527419824523" lon="11.367395445616014"><ele>221.0</ele><time>2026-04-08T08:01:23Z</time></trkpt><trkpt lat="43.245161485327685" lon="11.36746236062512"><ele>220.0</ele><time>2026-04-08T08:01:24Z</time></trkpt><trkpt lat="43.245046616654285" lon="11.367497550522996"><ele>220.0</ele><time>2026-04-08T08:01:25Z</time></trkpt><trkpt lat="43.24492231441533" lon="11.367535063497664"><ele>220.0</ele><time>2026-04-08T08:01:26Z</time></trkpt><trkpt lat="43.24480773283261" lon="11.367571433829024"><ele>220.0</ele><time>2026-04-08T08:01:27Z</time></trkpt><trkpt lat="43.24469120242447" lon="11.367604339544016"><ele>220.0</ele><time>2026-04-08T08:01:28Z</time></trkpt><trkpt lat="43.24456433070457" lon="11.367622123926289"><ele>220.6</ele><time>2026-04-08T08:01:29Z</time></trkpt><trkpt lat="43.24446978200105" lon="11.367675662210935"><ele>221.2</ele><time>2026-04-08T08:01:30Z</time></trkpt><trkpt lat="43.24437772924212" lon="11.367705101734037"><ele>221.8</ele><time>2026-04-08T08:01:31Z</time></trkpt><trkpt lat="43.244275925433314" lon="11.367737500574362"><ele>222.4</ele><time>2026-04-08T08:01:32Z</time></trkpt><trkpt lat="43.2441638718902" lon="11.367773942887013"><ele>223.0</ele><time>2026-04-08T08:01:33Z</time></trkpt><trkpt lat="43.24405151871385" lon="11.367811703915361"><ele>223.60000000000002</ele><time>2026-04-08T08:01:33.999Z</time></trkpt><trkpt lat="43.2439536864623" lon="11.367827686319004"><ele>224.20000000000002</ele><time>2026-04-08T08:01:34.999Z</time></trkpt><trkpt lat="43.243862117326486" lon="11.367876721002743"><ele>224.8</ele><time>2026-04-08T08:01:35.999Z</time></trkpt><trkpt lat="43.24376005013961" lon="11.36790763022841"><ele>225.4</ele><time>2026-04-08T08:01:36.999Z</time></trkpt><trkpt lat="43.2436678329819" lon="11.367933030099952"><ele>226.0</ele><time>2026-04-08T08:01:37.999Z</time></trkpt><trkpt lat="43.243581747384404" lon="11.36795522997372"><ele>225.99999999999997</ele><time>2026-04-08T08:01:38.999Z</time></trkpt><trkpt lat="43.24349869719667" lon="11.367953490461424"><ele>226.0</ele><time>2026-04-08T08:01:39.999Z</time></trkpt><trkpt lat="43.243419805197554" lon="11.367964193434334"><ele>226.0</ele><time>2026-04-08T08:01:40.999Z</time></trkpt><trkpt lat="43.243349050398116" lon="11.367993215707095"><ele>226.0</ele><time>2026-04-08T08:01:41.999Z</time></trkpt><trkpt lat="43.24327232002453" lon="11.367991961688674"><ele>225.99999999999997</ele><time>2026-04-08T08:01:42.999Z</time></trkpt><trkpt lat="43.243185631430485" lon="11.3680348038362"><ele>226.0</ele><time>2026-04-08T08:01:43.999Z</time></trkpt><trkpt lat="43.24308365855837" lon="11.368061818513015"><ele>225.20000000000002</ele><time>2026-04-08T08:01:44.999Z</time></trkpt><trkpt lat="43.242985605749304" lon="11.368103154665278"><ele>224.40000000000003</ele><time>2026-04-08T08:01:45.999Z</time></trkpt><trkpt lat="43.24289249991683" lon="11.368125264078296"><ele>223.6</ele><time>2026-04-08T08:01:46.999Z</time></trkpt><trkpt lat="43.24280040840156" lon="11.368169904879347"><ele>222.8</ele><time>2026-04-08T08:01:47.999Z</time></trkpt><trkpt lat="43.242722392257804" lon="11.368216433923719"><ele>222.0</ele><time>2026-04-08T08:01:48.999Z</time></trkpt><trkpt lat="43.24264582795184" lon="11.36828412110441"><ele>222.0</ele><time>2026-04-08T08:01:49.999Z</time></trkpt><trkpt lat="43.242569670301705" lon="11.368358837518567"><ele>222.0</ele><time>2026-04-08T08:01:50.999Z</time></trkpt><trkpt lat="43.24248667170327" lon="11.368453066970963"><ele>222.0</ele><time>2026-04-08T08:01:51.999Z</time></trkpt><trkpt lat="43.2424141292447" lon="11.36854073096423"><ele>222.0</ele><time>2026-04-08T08:01:52.999Z</time></trkpt><trkpt lat="43.24234717665508" lon="11.36862537199418"><ele>222.0</ele><time>2026-04-08T08:01:53.999Z</time></trkpt><trkpt lat="43.242276148127274" lon="11.368715430804423"><ele>222.2</ele><time>2026-04-08T08:01:54.999Z</time></trkpt><trkpt lat="43.24220278240281" lon="11.368811196077738"><ele>222.39999999999998</ele><time>2026-04-08T08:01:55.999Z</time></trkpt><trkpt lat="43.24212229063175" lon="11.36891738206576"><ele>222.60000000000002</ele><time>2026-04-08T08:01:56.999Z</time></trkpt><trkpt lat="43.242041815599094" lon="11.369023545902674"><ele>222.8</ele><time>2026-04-08T08:01:57.999Z</time></trkpt><trkpt lat="43.24197080105164" lon="11.3691172294465"><ele>223.0</ele><time>2026-04-08T08:01:58.999Z</time></trkpt><trkpt lat="43.241902079363435" lon="11.36920782927605"><ele>222.4</ele><time>2026-04-08T08:01:59.999Z</time></trkpt><trkpt lat="43.24182716843599" lon="11.369304750130599"><ele>221.8</ele><time>2026-04-08T08:02:00.999Z</time></trkpt><trkpt lat="43.24174776733932" lon="11.36940592018437"><ele>221.2</ele><time>2026-04-08T08:02:01.999Z</time></trkpt><trkpt lat="43.24166642730552" lon="11.369505134968836"><ele>220.6</ele><time>2026-04-08T08:02:02.999Z</time></trkpt><trkpt lat="43.24159713723536" lon="11.36958789815381"><ele>220.0</ele><time>2026-04-08T08:02:03.999Z</time></trkpt><trkpt lat="43.24153375772234" lon="11.36966176609551"><ele>219.4</ele><time>2026-04-08T08:02:04.999Z</time></trkpt><trkpt lat="43.241468622575155" lon="11.369758029195669"><ele>218.8</ele><time>2026-04-08T08:02:05.999Z</time></trkpt><trkpt lat="43.24138389187392" lon="11.369849306778141"><ele>218.2</ele><time>2026-04-08T08:02:06.999Z</time></trkpt><trkpt lat="43.24128490245309" lon="11.369930580107159"><ele>217.6</ele><time>2026-04-08T08:02:07.999Z</time></trkpt><trkpt lat="43.24119495924025" lon="11.37003953024275"><ele>217.0</ele><time>2026-04-08T08:02:08.999Z</time></trkpt><trkpt lat="43.24109601747415" lon="11.370111325240021"><ele>216.5</ele><time>2026-04-08T08:02:09.999Z</time></trkpt><trkpt lat="43.24100571688334" lon="11.370218513182838"><ele>216.0</ele><time>2026-04-08T08:02:10.999Z</time></trkpt><trkpt lat="43.24090631429937" lon="11.370290507790823"><ele>215.5</ele><time>2026-04-08T08:02:11.999Z</time></trkpt><trkpt lat="43.24081518309298" lon="11.370377137828564"><ele>215.0</ele><time>2026-04-08T08:02:12.999Z</time></trkpt><trkpt lat="43.24072401468761" lon="11.370463213266598"><ele>215.0</ele><time>2026-04-08T08:02:13.999Z</time></trkpt><trkpt lat="43.24064269917641" lon="11.370546045036951"><ele>215.0</ele><time>2026-04-08T08:02:14.999Z</time></trkpt><trkpt lat="43.24056198279984" lon="11.370617500150585"><ele>215.0</ele><time>2026-04-08T08:02:15.999Z</time></trkpt><trkpt lat="43.24048348344801" lon="11.370716468830562"><ele>215.0</ele><time>2026-04-08T08:02:16.999Z</time></trkpt><trkpt lat="43.240420403756254" lon="11.370852495461573"><ele>215.0</ele><time>2026-04-08T08:02:17.999Z</time></trkpt><trkpt lat="43.240329433355264" lon="11.370966504186788"><ele>214.75</ele><time>2026-04-08T08:02:18.999Z</time></trkpt><trkpt lat="43.240243548159924" lon="11.371106883609212"><ele>214.5</ele><time>2026-04-08T08:02:19.999Z</time></trkpt><trkpt lat="43.24016459033156" lon="11.3712427575547"><ele>214.25</ele><time>2026-04-08T08:02:20.999Z</time></trkpt><trkpt lat="43.24009398465983" lon="11.371370320989488"><ele>214.0</ele><time>2026-04-08T08:02:21.999Z</time></trkpt><trkpt lat="43.240045716483756" lon="11.371500298642715"><ele>214.0</ele><time>2026-04-08T08:02:22.999Z</time></trkpt><trkpt lat="43.23997138902354" lon="11.371620078938781"><ele>214.0</ele><time>2026-04-08T08:02:23.999Z</time></trkpt><trkpt lat="43.23990977320197" lon="11.371751490289464"><ele>214.0</ele><time>2026-04-08T08:02:24.999Z</time></trkpt><trkpt lat="43.23984605434081" lon="11.371888545419301"><ele>214.0</ele><time>2026-04-08T08:02:25.999Z</time></trkpt><trkpt lat="43.239781145279714" lon="11.37202849580695"><ele>213.83333333333331</ele><time>2026-04-08T08:02:26.999Z</time></trkpt><trkpt lat="43.23972137320915" lon="11.372155802477648"><ele>213.66666666666666</ele><time>2026-04-08T08:02:27.999Z</time></trkpt><trkpt lat="43.2396723202743" lon="11.372268924466383"><ele>213.5</ele><time>2026-04-08T08:02:28.999Z</time></trkpt><trkpt lat="43.23962031234515" lon="11.372359104081472"><ele>213.33333333333331</ele><time>2026-04-08T08:02:29.999Z</time></trkpt><trkpt lat="43.239584635530534" lon="11.372449022469535"><ele>213.16666666666666</ele><time>2026-04-08T08:02:30.999Z</time></trkpt><trkpt lat="43.239538160119174" lon="11.37253604071498"><ele>213.0</ele><time>2026-04-08T08:02:31.999Z</time></trkpt><trkpt lat="43.239484742540526" lon="11.372605137752256"><ele>213.0</ele><time>2026-04-08T08:02:32.999Z</time></trkpt><trkpt lat="43.239417354790305" lon="11.37265515088868"><ele>213.0</ele><time>2026-04-08T08:02:33.999Z</time></trkpt><trkpt lat="43.239340781996404" lon="11.372684053620326"><ele>213.0</ele><time>2026-04-08T08:02:35Z</time></trkpt><trkpt lat="43.23925314674914" lon="11.372679618645819"><ele>213.0</ele><time>2026-04-08T08:02:36Z</time></trkpt><trkpt lat="43.23916320134045" lon="11.372680956970699"><ele>213.0</ele><time>2026-04-08T08:02:37Z</time></trkpt><trkpt lat="43.23906766041422" lon="11.372672371853648"><ele>213.0</ele><time>2026-04-08T08:02:38Z</time></trkpt><trkpt lat="43.23896622017431" lon="11.372671030558895"><ele>213.0</ele><time>2026-04-08T08:02:39Z</time></trkpt><trkpt lat="43.2388629604312" lon="11.372696352797542"><ele>213.0</ele><time>2026-04-08T08:02:40Z</time></trkpt><trkpt lat="43.2387635903323" lon="11.372696409414472"><ele>213.0</ele><time>2026-04-08T08:02:41Z</time></trkpt><trkpt lat="43.238676331738674" lon="11.372732462875446"><ele>213.0</ele><time>2026-04-08T08:02:42Z</time></trkpt><trkpt lat="43.23859247312776" lon="11.37277551216336"><ele>213.0</ele><time>2026-04-08T08:02:43Z</time></trkpt><trkpt lat="43.238517104690494" lon="11.37284556904806"><ele>213.0</ele><time>2026-04-08T08:02:44Z</time></trkpt><trkpt lat="43.23844348299119" lon="11.372886525716275"><ele>213.0</ele><time>2026-04-08T08:02:45Z</time></trkpt><trkpt lat="43.23837939336431" lon="11.372931639346328"><ele>213.0</ele><time>2026-04-08T08:02:46Z</time></trkpt><trkpt lat="43.23828168231847" lon="11.37304008336167"><ele>213.0</ele><time>2026-04-08T08:02:48Z</time></trkpt><trkpt lat="43.23822131882776" lon="11.373109151590688"><ele>213.0</ele><time>2026-04-08T08:02:49Z</time></trkpt><trkpt lat="43.23819914627308" lon="11.373232566330513"><ele>213.0</ele><time>2026-04-08T08:02:50Z</time></trkpt><trkpt lat="43.23819439839599" lon="11.373361140004766"><ele>211.4</ele><time>2026-04-08T08:02:51Z</time></trkpt><trkpt lat="43.23820120405154" lon="11.373492201255662"><ele>209.8</ele><time>2026-04-08T08:02:52Z</time></trkpt><trkpt lat="43.23822408280758" lon="11.373614685110086"><ele>208.2</ele><time>2026-04-08T08:02:53Z</time></trkpt><trkpt lat="43.23823570299683" lon="11.373742672510575"><ele>206.6</ele><time>2026-04-08T08:02:54Z</time></trkpt><trkpt lat="43.23824760729919" lon="11.373881249025912"><ele>205.0</ele><time>2026-04-08T08:02:55Z</time></trkpt><trkpt lat="43.23825514479781" lon="11.374031026869645"><ele>204.8</ele><time>2026-04-08T08:02:56Z</time></trkpt><trkpt lat="43.23826446095205" lon="11.374176045680779"><ele>204.6</ele><time>2026-04-08T08:02:57Z</time></trkpt><trkpt lat="43.23827404022319" lon="11.374304498939798"><ele>204.39999999999998</ele><time>2026-04-08T08:02:58Z</time></trkpt><trkpt lat="43.23828565132696" lon="11.374435071950746"><ele>204.2</ele><time>2026-04-08T08:02:59Z</time></trkpt><trkpt lat="43.23827720780467" lon="11.374555300957205"><ele>204.0</ele><time>2026-04-08T08:03:00Z</time></trkpt><trkpt lat="43.23827814848713" lon="11.374667732577075"><ele>204.0</ele><time>2026-04-08T08:03:01Z</time></trkpt><trkpt lat="43.23827309939011" lon="11.37478053848926"><ele>204.0</ele><time>2026-04-08T08:03:02Z</time></trkpt><trkpt lat="43.238259345570576" lon="11.374885585666984"><ele>204.0</ele><time>2026-04-08T08:03:03Z</time></trkpt><trkpt lat="43.2382506361254" lon="11.374982790511869"><ele>204.0</ele><time>2026-04-08T08:03:04Z</time></trkpt><trkpt lat="43.238174811401386" lon="11.375119796166869"><ele>204.0</ele><time>2026-04-08T08:03:06Z</time></trkpt><trkpt lat="43.238094509791196" lon="11.37515659678407"><ele>204.0</ele><time>2026-04-08T08:03:07Z</time></trkpt><trkpt lat="43.238011248034596" lon="11.375230208019893"><ele>204.0</ele><time>2026-04-08T08:03:08Z</time></trkpt><trkpt lat="43.23791847927101" lon="11.375312387617138"><ele>204.0</ele><time>2026-04-08T08:03:09Z</time></trkpt><trkpt lat="43.23783923717602" lon="11.375382584555018"><ele>204.0</ele><time>2026-04-08T08:03:10Z</time></trkpt><trkpt lat="43.237760258839614" lon="11.37545579630072"><ele>204.0</ele><time>2026-04-08T08:03:11Z</time></trkpt><trkpt lat="43.23768133789225" lon="11.3755584611368"><ele>204.0</ele><time>2026-04-08T08:03:12Z</time></trkpt><trkpt lat="43.23758393778176" lon="11.375649224171324"><ele>203.0</ele><time>2026-04-08T08:03:13Z</time></trkpt><trkpt lat="43.2375014400639" lon="11.3757514773613"><ele>202.0</ele><time>2026-04-08T08:03:14Z</time></trkpt><trkpt lat="43.237421628550024" lon="11.375836103039049"><ele>201.0</ele><time>2026-04-08T08:03:15Z</time></trkpt><trkpt lat="43.23733981218227" lon="11.375926051743606"><ele>200.0</ele><time>2026-04-08T08:03:16Z</time></trkpt><trkpt lat="43.23725567782891" lon="11.376028287749612"><ele>199.0</ele><time>2026-04-08T08:03:17Z</time></trkpt><trkpt lat="43.23717776769595" lon="11.376114145841136"><ele>198.49999999999997</ele><time>2026-04-08T08:03:18Z</time></trkpt><trkpt lat="43.23710457945465" lon="11.376184184257971"><ele>198.0</ele><time>2026-04-08T08:03:19Z</time></trkpt><trkpt lat="43.23703863461819" lon="11.376238702593838"><ele>197.5</ele><time>2026-04-08T08:03:20Z</time></trkpt><trkpt lat="43.236987054915424" lon="11.376307551379668"><ele>197.0</ele><time>2026-04-08T08:03:21Z</time></trkpt><trkpt lat="43.23690639464198" lon="11.376349644763257"><ele>196.49999999999997</ele><time>2026-04-08T08:03:22Z</time></trkpt><trkpt lat="43.236807863257276" lon="11.376379710566708"><ele>196.0</ele><time>2026-04-08T08:03:23Z</time></trkpt><trkpt lat="43.23669991531313" lon="11.376392812755025"><ele>195.99999999999997</ele><time>2026-04-08T08:03:24Z</time></trkpt><trkpt lat="43.23660590050427" lon="11.37635229472998"><ele>196.0</ele><time>2026-04-08T08:03:25Z</time></trkpt><trkpt lat="43.23651946053738" lon="11.376346568153851"><ele>196.0</ele><time>2026-04-08T08:03:26Z</time></trkpt><trkpt lat="43.236446837330476" lon="11.376305944844693"><ele>196.0</ele><time>2026-04-08T08:03:27Z</time></trkpt><trkpt lat="43.236376091697444" lon="11.376247220161558"><ele>195.99999999999997</ele><time>2026-04-08T08:03:28Z</time></trkpt><trkpt lat="43.23630492068833" lon="11.376152980361883"><ele>196.0</ele><time>2026-04-08T08:03:29Z</time></trkpt><trkpt lat="43.23627275683124" lon="11.376036356134582"><ele>194.33333333333331</ele><time>2026-04-08T08:03:30Z</time></trkpt><trkpt lat="43.23624147672063" lon="11.375935485152478"><ele>192.66666666666666</ele><time>2026-04-08T08:03:31Z</time></trkpt><trkpt lat="43.23621964905713" lon="11.37582108459516"><ele>191.0</ele><time>2026-04-08T08:03:32Z</time></trkpt><trkpt lat="43.23619360521891" lon="11.375711148228358"><ele>189.33333333333331</ele><time>2026-04-08T08:03:33Z</time></trkpt><trkpt lat="43.23619494290796" lon="11.375595318071978"><ele>187.66666666666666</ele><time>2026-04-08T08:03:34Z</time></trkpt><trkpt lat="43.23619507553606" lon="11.375469169804157"><ele>186.0</ele><time>2026-04-08T08:03:35Z</time></trkpt><trkpt lat="43.2362044457181" lon="11.375351109797158"><ele>185.33333333333334</ele><time>2026-04-08T08:03:36Z</time></trkpt><trkpt lat="43.23622595059145" lon="11.375250996606207"><ele>184.66666666666666</ele><time>2026-04-08T08:03:37Z</time></trkpt><trkpt lat="43.23626305964755" lon="11.375153227591545"><ele>184.0</ele><time>2026-04-08T08:03:38Z</time></trkpt><trkpt lat="43.236314114480635" lon="11.37504932030564"><ele>183.33333333333331</ele><time>2026-04-08T08:03:39Z</time></trkpt><trkpt lat="43.23636816930878" lon="11.374958523829992"><ele>182.66666666666666</ele><time>2026-04-08T08:03:40Z</time></trkpt><trkpt lat="43.236414609483624" lon="11.37486739224865"><ele>182.0</ele><time>2026-04-08T08:03:41Z</time></trkpt><trkpt lat="43.2364575126398" lon="11.374748506245902"><ele>183.5</ele><time>2026-04-08T08:03:41.999Z</time></trkpt><trkpt lat="43.236484981553275" lon="11.37462565781581"><ele>185.0</ele><time>2026-04-08T08:03:42.999Z</time></trkpt><trkpt lat="43.23650921181276" lon="11.37450752948379"><ele>186.5</ele><time>2026-04-08T08:03:43.999Z</time></trkpt><trkpt lat="43.23653209625333" lon="11.374383645413289"><ele>188.0</ele><time>2026-04-08T08:03:44.999Z</time></trkpt><trkpt lat="43.2365513950991" lon="11.374272026085372"><ele>189.5</ele><time>2026-04-08T08:03:45.999Z</time></trkpt><trkpt lat="43.236566942879136" lon="11.374170628275671"><ele>191.0</ele><time>2026-04-08T08:03:46.999Z</time></trkpt><trkpt lat="43.236576095653355" lon="11.374076400981757"><ele>191.0</ele><time>2026-04-08T08:03:47.999Z</time></trkpt><trkpt lat="43.23657947106822" lon="11.37396728786747"><ele>191.0</ele><time>2026-04-08T08:03:48.999Z</time></trkpt><trkpt lat="43.23658376809013" lon="11.37384458847493"><ele>191.0</ele><time>2026-04-08T08:03:49.999Z</time></trkpt><trkpt lat="43.23655138937119" lon="11.373704263893323"><ele>191.0</ele><time>2026-04-08T08:03:50.999Z</time></trkpt><trkpt lat="43.2364992880491" lon="11.373585834805771"><ele>191.0</ele><time>2026-04-08T08:03:51.999Z</time></trkpt><trkpt lat="43.23644006622588" lon="11.373497548451882"><ele>188.75</ele><time>2026-04-08T08:03:52.999Z</time></trkpt><trkpt lat="43.23635903030255" lon="11.373429849311757"><ele>186.5</ele><time>2026-04-08T08:03:53.999Z</time></trkpt><trkpt lat="43.23624925341026" lon="11.373380143423763"><ele>184.25</ele><time>2026-04-08T08:03:54.999Z</time></trkpt><trkpt lat="43.236129682707585" lon="11.373372527292622"><ele>182.0</ele><time>2026-04-08T08:03:55.999Z</time></trkpt><trkpt lat="43.23598744909798" lon="11.373380050801071"><ele>182.0</ele><time>2026-04-08T08:03:56.999Z</time></trkpt><trkpt lat="43.23583388382221" lon="11.373396177441858"><ele>182.0</ele><time>2026-04-08T08:03:57.999Z</time></trkpt><trkpt lat="43.23567688809348" lon="11.373414560860148"><ele>182.0</ele><time>2026-04-08T08:03:58.999Z</time></trkpt><trkpt lat="43.235526631282546" lon="11.373434825052998"><ele>180.75</ele><time>2026-04-08T08:03:59.999Z</time></trkpt><trkpt lat="43.23539673098304" lon="11.373448053721537"><ele>179.5</ele><time>2026-04-08T08:04:00.999Z</time></trkpt><trkpt lat="43.23527928068481" lon="11.373459062858236"><ele>178.25</ele><time>2026-04-08T08:04:01.999Z</time></trkpt><trkpt lat="43.235162750229456" lon="11.373469985760446"><ele>177.0</ele><time>2026-04-08T08:04:02.999Z</time></trkpt><trkpt lat="43.23504465333186" lon="11.373481055489652"><ele>177.0</ele><time>2026-04-08T08:04:03.999Z</time></trkpt><trkpt lat="43.23493315103159" lon="11.373491507093147"><ele>177.0</ele><time>2026-04-08T08:04:04.999Z</time></trkpt><trkpt lat="43.234811525859975" lon="11.373502907566428"><ele>177.0</ele><time>2026-04-08T08:04:05.999Z</time></trkpt><trkpt lat="43.234679958260315" lon="11.373514942586635"><ele>177.0</ele><time>2026-04-08T08:04:06.999Z</time></trkpt><trkpt lat="43.23454579586406" lon="11.373525331170525"><ele>177.25</ele><time>2026-04-08T08:04:07.999Z</time></trkpt><trkpt lat="43.23442732914226" lon="11.373534448338441"><ele>177.5</ele><time>2026-04-08T08:04:08.999Z</time></trkpt><trkpt lat="43.23431521298234" lon="11.373542604575658"><ele>177.75</ele><time>2026-04-08T08:04:09.999Z</time></trkpt><trkpt lat="43.23419473695947" lon="11.373552324262779"><ele>178.0</ele><time>2026-04-08T08:04:10.999Z</time></trkpt><trkpt lat="43.234087026271176" lon="11.373562215507759"><ele>178.0</ele><time>2026-04-08T08:04:11.999Z</time></trkpt><trkpt lat="43.23398741499777" lon="11.373571966815943"><ele>178.0</ele><time>2026-04-08T08:04:12.999Z</time></trkpt><trkpt lat="43.233902775939875" lon="11.373601083152309"><ele>178.0</ele><time>2026-04-08T08:04:13.999Z</time></trkpt><trkpt lat="43.233812615459705" lon="11.373611390036448"><ele>178.0</ele><time>2026-04-08T08:04:14.999Z</time></trkpt><trkpt lat="43.23371322748057" lon="11.373621466155766"><ele>178.0</ele><time>2026-04-08T08:04:15.999Z</time></trkpt><trkpt lat="43.23359105067327" lon="11.373683825174218"><ele>178.25</ele><time>2026-04-08T08:04:16.999Z</time></trkpt><trkpt lat="43.233469801813236" lon="11.373773688174452"><ele>178.5</ele><time>2026-04-08T08:04:17.999Z</time></trkpt><trkpt lat="43.23335757922272" lon="11.373879889752951"><ele>178.75</ele><time>2026-04-08T08:04:18.999Z</time></trkpt><trkpt lat="43.23323073875943" lon="11.373944758398116"><ele>179.0</ele><time>2026-04-08T08:04:19.999Z</time></trkpt><trkpt lat="43.2331099355936" lon="11.37402682242285"><ele>179.0</ele><time>2026-04-08T08:04:20.999Z</time></trkpt><trkpt lat="43.232999404342266" lon="11.374101908483372"><ele>179.0</ele><time>2026-04-08T08:04:21.999Z</time></trkpt><trkpt lat="43.232882964581535" lon="11.374181008293286"><ele>179.0</ele><time>2026-04-08T08:04:22.999Z</time></trkpt><trkpt lat="43.23274740929629" lon="11.37427309370628"><ele>179.0</ele><time>2026-04-08T08:04:23.999Z</time></trkpt><trkpt lat="43.23257670313385" lon="11.374389057835527"><ele>179.0</ele><time>2026-04-08T08:04:24.999Z</time></trkpt><trkpt lat="43.23239569103931" lon="11.374515071266012"><ele>179.0</ele><time>2026-04-08T08:04:25.999Z</time></trkpt><trkpt lat="43.23220137215851" lon="11.374655254414215"><ele>179.0</ele><time>2026-04-08T08:04:26.999Z</time></trkpt><trkpt lat="43.23199228503806" lon="11.374806091769534"><ele>179.0</ele><time>2026-04-08T08:04:27.999Z</time></trkpt><trkpt lat="43.23179934333064" lon="11.374966351181573"><ele>179.0</ele><time>2026-04-08T08:04:28.999Z</time></trkpt><trkpt lat="43.23163017129637" lon="11.375088871735775"><ele>179.0</ele><time>2026-04-08T08:04:29.999Z</time></trkpt><trkpt lat="43.2314733556988" lon="11.375201556772383"><ele>180.66666666666666</ele><time>2026-04-08T08:04:30.999Z</time></trkpt><trkpt lat="43.23133117970002" lon="11.375303210348692"><ele>182.33333333333334</ele><time>2026-04-08T08:04:31.999Z</time></trkpt><trkpt lat="43.231178764026104" lon="11.375414931643991"><ele>184.0</ele><time>2026-04-08T08:04:32.999Z</time></trkpt><trkpt lat="43.23101452463926" lon="11.375504465270168"><ele>184.0</ele><time>2026-04-08T08:04:33.999Z</time></trkpt><trkpt lat="43.23085579471797" lon="11.375615351398002"><ele>184.0</ele><time>2026-04-08T08:04:34.999Z</time></trkpt><trkpt lat="43.23071223659641" lon="11.375716021064857"><ele>184.0</ele><time>2026-04-08T08:04:35.999Z</time></trkpt><trkpt lat="43.23058319547346" lon="11.375809373089684"><ele>184.0</ele><time>2026-04-08T08:04:36.999Z</time></trkpt><trkpt lat="43.230462391084785" lon="11.375896766539313"><ele>184.0</ele><time>2026-04-08T08:04:37.999Z</time></trkpt><trkpt lat="43.23033450849631" lon="11.375989280890627"><ele>184.0</ele><time>2026-04-08T08:04:38.999Z</time></trkpt><trkpt lat="43.230196489792554" lon="11.37608953403038"><ele>184.0</ele><time>2026-04-08T08:04:39.999Z</time></trkpt><trkpt lat="43.23005032734765" lon="11.376197670584993"><ele>184.0</ele><time>2026-04-08T08:04:41Z</time></trkpt><trkpt lat="43.22989656435148" lon="11.376312170804104"><ele>184.0</ele><time>2026-04-08T08:04:42Z</time></trkpt><trkpt lat="43.22975683176521" lon="11.37642117699914"><ele>184.0</ele><time>2026-04-08T08:04:43Z</time></trkpt><trkpt lat="43.229632590405785" lon="11.376526756147726"><ele>184.5</ele><time>2026-04-08T08:04:44Z</time></trkpt><trkpt lat="43.229524226922706" lon="11.37661932880682"><ele>185.0</ele><time>2026-04-08T08:04:45Z</time></trkpt><trkpt lat="43.22941498659392" lon="11.376712809075622"><ele>185.5</ele><time>2026-04-08T08:04:46Z</time></trkpt><trkpt lat="43.22930011162186" lon="11.376835869424172"><ele>186.0</ele><time>2026-04-08T08:04:47Z</time></trkpt><trkpt lat="43.229179992375066" lon="11.37693075942365"><ele>186.0</ele><time>2026-04-08T08:04:48Z</time></trkpt><trkpt lat="43.22907586952453" lon="11.377016131684382"><ele>186.0</ele><time>2026-04-08T08:04:49Z</time></trkpt><trkpt lat="43.22895669199498" lon="11.377096079591583"><ele>186.0</ele><time>2026-04-08T08:04:50Z</time></trkpt><trkpt lat="43.2288124260611" lon="11.377142291650214"><ele>186.0</ele><time>2026-04-08T08:04:51Z</time></trkpt><trkpt lat="43.22865515318681" lon="11.377194560468553"><ele>183.33333333333334</ele><time>2026-04-08T08:04:52Z</time></trkpt><trkpt lat="43.22850622368359" lon="11.37722631202078"><ele>180.66666666666669</ele><time>2026-04-08T08:04:53Z</time></trkpt><trkpt lat="43.22835102582443" lon="11.377246371789802"><ele>178.0</ele><time>2026-04-08T08:04:54Z</time></trkpt><trkpt lat="43.228182022683505" lon="11.37726236399587"><ele>178.0</ele><time>2026-04-08T08:04:55Z</time></trkpt><trkpt lat="43.22803069811745" lon="11.377284749821765"><ele>178.0</ele><time>2026-04-08T08:04:56Z</time></trkpt><trkpt lat="43.22789792165573" lon="11.377304728582985"><ele>178.0</ele><time>2026-04-08T08:04:57Z</time></trkpt><trkpt lat="43.227765592787605" lon="11.377290003761834"><ele>178.0</ele><time>2026-04-08T08:04:58Z</time></trkpt><trkpt lat="43.22762079000957" lon="11.37729469827217"><ele>178.0</ele><time>2026-04-08T08:04:59Z</time></trkpt><trkpt lat="43.22746228685987" lon="11.37731441074179"><ele>178.0</ele><time>2026-04-08T08:05:00Z</time></trkpt><trkpt lat="43.22731434449568" lon="11.37729148838431"><ele>178.0</ele><time>2026-04-08T08:05:01Z</time></trkpt><trkpt lat="43.22718060183971" lon="11.377244775776822"><ele>178.0</ele><time>2026-04-08T08:05:02Z</time></trkpt><trkpt lat="43.22703852290429" lon="11.377172776145585"><ele>179.0</ele><time>2026-04-08T08:05:03Z</time></trkpt><trkpt lat="43.22688085036958" lon="11.37707242379676"><ele>180.0</ele><time>2026-04-08T08:05:04Z</time></trkpt><trkpt lat="43.22671498705908" lon="11.376946201133752"><ele>181.0</ele><time>2026-04-08T08:05:05Z</time></trkpt><trkpt lat="43.22656650742164" lon="11.37680970439551"><ele>180.33333333333334</ele><time>2026-04-08T08:05:06Z</time></trkpt><trkpt lat="43.226442893039156" lon="11.376673225195919"><ele>179.66666666666666</ele><time>2026-04-08T08:05:07Z</time></trkpt><trkpt lat="43.22632737025935" lon="11.376511568324885"><ele>179.0</ele><time>2026-04-08T08:05:08Z</time></trkpt><trkpt lat="43.22623211865337" lon="11.37634122451105"><ele>179.0</ele><time>2026-04-08T08:05:09Z</time></trkpt><trkpt lat="43.22616427735581" lon="11.376170204392842"><ele>179.0</ele><time>2026-04-08T08:05:10Z</time></trkpt><trkpt lat="43.2261056841089" lon="11.375984975266157"><ele>179.0</ele><time>2026-04-08T08:05:11Z</time></trkpt><trkpt lat="43.22605469268162" lon="11.375783759309455"><ele>179.0</ele><time>2026-04-08T08:05:12Z</time></trkpt><trkpt lat="43.226025981013144" lon="11.375601010340544"><ele>178.75</ele><time>2026-04-08T08:05:13Z</time></trkpt><trkpt lat="43.22601045104055" lon="11.375432401432063"><ele>178.5</ele><time>2026-04-08T08:05:14Z</time></trkpt><trkpt lat="43.226017968481074" lon="11.375251354582922"><ele>178.25</ele><time>2026-04-08T08:05:15Z</time></trkpt><trkpt lat="43.22604100139386" lon="11.375051747073842"><ele>178.0</ele><time>2026-04-08T08:05:16Z</time></trkpt><trkpt lat="43.22606764974786" lon="11.374848192857444"><ele>177.75</ele><time>2026-04-08T08:05:17Z</time></trkpt><trkpt lat="43.226088928126636" lon="11.374648342093785"><ele>177.5</ele><time>2026-04-08T08:05:18Z</time></trkpt><trkpt lat="43.22610558936882" lon="11.374473160976564"><ele>177.25</ele><time>2026-04-08T08:05:19Z</time></trkpt><trkpt lat="43.22611755540793" lon="11.37431126380062"><ele>177.0</ele><time>2026-04-08T08:05:20Z</time></trkpt><trkpt lat="43.226127117029066" lon="11.374153555031357"><ele>177.0</ele><time>2026-04-08T08:05:21Z</time></trkpt><trkpt lat="43.22613372463026" lon="11.374013777601713"><ele>177.0</ele><time>2026-04-08T08:05:22Z</time></trkpt><trkpt lat="43.22613381958648" lon="11.3738783436852"><ele>177.0</ele><time>2026-04-08T08:05:23Z</time></trkpt><trkpt lat="43.226123949756946" lon="11.373736914108418"><ele>177.0</ele><time>2026-04-08T08:05:24Z</time></trkpt><trkpt lat="43.22611965052698" lon="11.373603185268468"><ele>177.0</ele><time>2026-04-08T08:05:25Z</time></trkpt><trkpt lat="43.226078119180634" lon="11.373487213161857"><ele>177.2</ele><time>2026-04-08T08:05:26Z</time></trkpt><trkpt lat="43.22604337363281" lon="11.373361634852053"><ele>177.39999999999998</ele><time>2026-04-08T08:05:27Z</time></trkpt><trkpt lat="43.22602276650224" lon="11.373228180189642"><ele>177.60000000000002</ele><time>2026-04-08T08:05:28Z</time></trkpt><trkpt lat="43.22598519298841" lon="11.373101398380115"><ele>177.8</ele><time>2026-04-08T08:05:29Z</time></trkpt><trkpt lat="43.225944144776555" lon="11.372971488403381"><ele>178.0</ele><time>2026-04-08T08:05:30Z</time></trkpt><trkpt lat="43.22590621191211" lon="11.372852234077783"><ele>178.66666666666669</ele><time>2026-04-08T08:05:31Z</time></trkpt><trkpt lat="43.2258733085846" lon="11.372748791663883"><ele>179.33333333333334</ele><time>2026-04-08T08:05:32Z</time></trkpt><trkpt lat="43.22584232178584" lon="11.372647891748741"><ele>180.0</ele><time>2026-04-08T08:05:33Z</time></trkpt><trkpt lat="43.22581268657471" lon="11.372549787054092"><ele>180.66666666666666</ele><time>2026-04-08T08:05:34Z</time></trkpt><trkpt lat="43.22578235869407" lon="11.372452483606555"><ele>181.33333333333331</ele><time>2026-04-08T08:05:35Z</time></trkpt><trkpt lat="43.22575500569591" lon="11.372371211235164"><ele>182.0</ele><time>2026-04-08T08:05:36Z</time></trkpt><trkpt lat="43.225676815757325" lon="11.372233703301937"><ele>181.83333333333331</ele><time>2026-04-08T08:05:38Z</time></trkpt><trkpt lat="43.22562348530444" lon="11.372174554656375"><ele>181.66666666666666</ele><time>2026-04-08T08:05:39Z</time></trkpt><trkpt lat="43.225547047371364" lon="11.372129298334643"><ele>181.5</ele><time>2026-04-08T08:05:40Z</time></trkpt><trkpt lat="43.225451333070225" lon="11.372135927674663"><ele>181.33333333333334</ele><time>2026-04-08T08:05:41Z</time></trkpt><trkpt lat="43.225365355114235" lon="11.372210499559296"><ele>181.16666666666669</ele><time>2026-04-08T08:05:42Z</time></trkpt><trkpt lat="43.22530645412725" lon="11.372292800762764"><ele>181.0</ele><time>2026-04-08T08:05:43Z</time></trkpt><trkpt lat="43.2252480003961" lon="11.372402148939063"><ele>180.75</ele><time>2026-04-08T08:05:44Z</time></trkpt><trkpt lat="43.225196016662956" lon="11.372546123984632"><ele>180.5</ele><time>2026-04-08T08:05:45Z</time></trkpt><trkpt lat="43.22514786775914" lon="11.372691639642529"><ele>180.25</ele><time>2026-04-08T08:05:46Z</time></trkpt><trkpt lat="43.22509546256795" lon="11.37284098483839"><ele>180.0</ele><time>2026-04-08T08:05:46.999Z</time></trkpt><trkpt lat="43.22503399732173" lon="11.372982544724573"><ele>180.0</ele><time>2026-04-08T08:05:47.999Z</time></trkpt><trkpt lat="43.22497063410694" lon="11.373114464375558"><ele>180.0</ele><time>2026-04-08T08:05:48.999Z</time></trkpt><trkpt lat="43.22491211263021" lon="11.373217657584181"><ele>180.0</ele><time>2026-04-08T08:05:49.999Z</time></trkpt><trkpt lat="43.22484129082576" lon="11.373317564974244"><ele>180.0</ele><time>2026-04-08T08:05:50.999Z</time></trkpt><trkpt lat="43.22475415593406" lon="11.37339059162516"><ele>180.0</ele><time>2026-04-08T08:05:51.999Z</time></trkpt><trkpt lat="43.22465555650845" lon="11.373449161590713"><ele>181.6</ele><time>2026-04-08T08:05:52.999Z</time></trkpt><trkpt lat="43.224545794293036" lon="11.373498235339545"><ele>183.2</ele><time>2026-04-08T08:05:53.999Z</time></trkpt><trkpt lat="43.22443227494742" lon="11.373524255560753"><ele>184.8</ele><time>2026-04-08T08:05:54.999Z</time></trkpt><trkpt lat="43.224324897510066" lon="11.373519808329657"><ele>186.4</ele><time>2026-04-08T08:05:55.999Z</time></trkpt><trkpt lat="43.224239590546844" lon="11.373500492402027"><ele>188.0</ele><time>2026-04-08T08:05:56.999Z</time></trkpt><trkpt lat="43.224149378546" lon="11.373469626998313"><ele>188.0</ele><time>2026-04-08T08:05:57.999Z</time></trkpt><trkpt lat="43.2240594834782" lon="11.373425709776278"><ele>188.0</ele><time>2026-04-08T08:05:58.999Z</time></trkpt><trkpt lat="43.223969843956255" lon="11.373366682564338"><ele>188.0</ele><time>2026-04-08T08:05:59.999Z</time></trkpt><trkpt lat="43.22388656304514" lon="11.37329408046814"><ele>188.0</ele><time>2026-04-08T08:06:00.999Z</time></trkpt><trkpt lat="43.22381083484061" lon="11.373217209195582"><ele>188.0</ele><time>2026-04-08T08:06:01.999Z</time></trkpt><trkpt lat="43.22374681157284" lon="11.373130363702606"><ele>191.0</ele><time>2026-04-08T08:06:02.999Z</time></trkpt><trkpt lat="43.22368552164417" lon="11.373027097868626"><ele>194.0</ele><time>2026-04-08T08:06:03.999Z</time></trkpt><trkpt lat="43.22363727459741" lon="11.372944464289375"><ele>197.0</ele><time>2026-04-08T08:06:04.999Z</time></trkpt><trkpt lat="43.223608292996786" lon="11.372841402053043"><ele>200.0</ele><time>2026-04-08T08:06:05.999Z</time></trkpt><trkpt lat="43.22358433465579" lon="11.372730939662567"><ele>203.00000000000003</ele><time>2026-04-08T08:06:06.999Z</time></trkpt><trkpt lat="43.22359493860445" lon="11.372600464317115"><ele>206.0</ele><time>2026-04-08T08:06:07.999Z</time></trkpt><trkpt lat="43.22360269489723" lon="11.372464734416926"><ele>206.0</ele><time>2026-04-08T08:06:08.999Z</time></trkpt><trkpt lat="43.22361522177412" lon="11.37230426788644"><ele>206.0</ele><time>2026-04-08T08:06:09.999Z</time></trkpt><trkpt lat="43.2236434696764" lon="11.372159244975311"><ele>206.0</ele><time>2026-04-08T08:06:10.999Z</time></trkpt><trkpt lat="43.223649413047745" lon="11.372044657406931"><ele>206.0</ele><time>2026-04-08T08:06:11.999Z</time></trkpt><trkpt lat="43.22365449024584" lon="11.371936148399826"><ele>206.0</ele><time>2026-04-08T08:06:12.999Z</time></trkpt><trkpt lat="43.22364189355175" lon="11.371816942477526"><ele>206.0</ele><time>2026-04-08T08:06:13.999Z</time></trkpt><trkpt lat="43.22361859748832" lon="11.371703823044795"><ele>206.0</ele><time>2026-04-08T08:06:14.999Z</time></trkpt><trkpt lat="43.22359490529882" lon="11.371579283518471"><ele>206.0</ele><time>2026-04-08T08:06:15.999Z</time></trkpt><trkpt lat="43.22352935136773" lon="11.371453714560058"><ele>206.0</ele><time>2026-04-08T08:06:16.999Z</time></trkpt><trkpt lat="43.223441699517686" lon="11.371324063092358"><ele>206.0</ele><time>2026-04-08T08:06:17.999Z</time></trkpt><trkpt lat="43.22335184853366" lon="11.37122203748198"><ele>205.20000000000002</ele><time>2026-04-08T08:06:18.999Z</time></trkpt><trkpt lat="43.22327884197415" lon="11.371163455677708"><ele>204.4</ele><time>2026-04-08T08:06:19.999Z</time></trkpt><trkpt lat="43.22317997934676" lon="11.371131410119107"><ele>203.6</ele><time>2026-04-08T08:06:20.999Z</time></trkpt><trkpt lat="43.22308132213405" lon="11.371157661761787"><ele>202.8</ele><time>2026-04-08T08:06:21.999Z</time></trkpt><trkpt lat="43.22298988571793" lon="11.371217091179023"><ele>202.0</ele><time>2026-04-08T08:06:22.999Z</time></trkpt><trkpt lat="43.22288941786789" lon="11.371323780118146"><ele>204.0</ele><time>2026-04-08T08:06:23.999Z</time></trkpt><trkpt lat="43.22281019507035" lon="11.371484343098206"><ele>206.0</ele><time>2026-04-08T08:06:24.999Z</time></trkpt><trkpt lat="43.22271714897311" lon="11.371663626249033"><ele>208.0</ele><time>2026-04-08T08:06:25.999Z</time></trkpt><trkpt lat="43.222613719710075" lon="11.371854400036115"><ele>208.0</ele><time>2026-04-08T08:06:26.999Z</time></trkpt><trkpt lat="43.22252107807378" lon="11.37201739318048"><ele>208.0</ele><time>2026-04-08T08:06:27.999Z</time></trkpt><trkpt lat="43.22241444749906" lon="11.37213258283367"><ele>208.0</ele><time>2026-04-08T08:06:28.999Z</time></trkpt><trkpt lat="43.222299662119006" lon="11.372260564299026"><ele>208.0</ele><time>2026-04-08T08:06:29.999Z</time></trkpt><trkpt lat="43.22217147787822" lon="11.37239625040502"><ele>211.25</ele><time>2026-04-08T08:06:30.999Z</time></trkpt><trkpt lat="43.22204235821295" lon="11.372508685006125"><ele>214.5</ele><time>2026-04-08T08:06:31.999Z</time></trkpt><trkpt lat="43.22193078466615" lon="11.372578651621597"><ele>217.75</ele><time>2026-04-08T08:06:32.999Z</time></trkpt><trkpt lat="43.221820680054535" lon="11.372620313726186"><ele>221.0</ele><time>2026-04-08T08:06:33.999Z</time></trkpt><trkpt lat="43.221689541028105" lon="11.372655338068652"><ele>221.0</ele><time>2026-04-08T08:06:34.999Z</time></trkpt><trkpt lat="43.22153890289132" lon="11.372691516901105"><ele>221.0</ele><time>2026-04-08T08:06:35.999Z</time></trkpt><trkpt lat="43.22137429810133" lon="11.372727984522596"><ele>221.0</ele><time>2026-04-08T08:06:36.999Z</time></trkpt><trkpt lat="43.221197660596346" lon="11.372765656595146"><ele>223.0</ele><time>2026-04-08T08:06:37.999Z</time></trkpt><trkpt lat="43.221014849445915" lon="11.372803016754192"><ele>225.0</ele><time>2026-04-08T08:06:38.999Z</time></trkpt><trkpt lat="43.22086050997559" lon="11.372834474766316"><ele>227.0</ele><time>2026-04-08T08:06:39.999Z</time></trkpt><trkpt lat="43.22073098000115" lon="11.372861898147804"><ele>229.0</ele><time>2026-04-08T08:06:40.999Z</time></trkpt><trkpt lat="43.22061190508188" lon="11.372887381130989"><ele>231.0</ele><time>2026-04-08T08:06:41.999Z</time></trkpt><trkpt lat="43.22048566880149" lon="11.372914501427541"><ele>233.0</ele><time>2026-04-08T08:06:42.999Z</time></trkpt><trkpt lat="43.22034947592329" lon="11.372943789004195"><ele>235.0</ele><time>2026-04-08T08:06:43.999Z</time></trkpt><trkpt lat="43.22019810963862" lon="11.372976339542287"><ele>235.0</ele><time>2026-04-08T08:06:44.999Z</time></trkpt><trkpt lat="43.22006170916613" lon="11.373004704692999"><ele>235.0</ele><time>2026-04-08T08:06:45.999Z</time></trkpt><trkpt lat="43.2199538536953" lon="11.373025074359232"><ele>235.0</ele><time>2026-04-08T08:06:47Z</time></trkpt><trkpt lat="43.21984422086255" lon="11.373042404319023"><ele>235.0</ele><time>2026-04-08T08:06:48Z</time></trkpt><trkpt lat="43.21972617951611" lon="11.3730578973144"><ele>236.8</ele><time>2026-04-08T08:06:49Z</time></trkpt><trkpt lat="43.21962514953721" lon="11.373066072442063"><ele>238.6</ele><time>2026-04-08T08:06:50Z</time></trkpt><trkpt lat="43.21954134497336" lon="11.373086225454308"><ele>240.39999999999998</ele><time>2026-04-08T08:06:51Z</time></trkpt><trkpt lat="43.219434154430886" lon="11.373076246890799"><ele>242.2</ele><time>2026-04-08T08:06:52Z</time></trkpt><trkpt lat="43.21931453726541" lon="11.373067387694507"><ele>244.0</ele><time>2026-04-08T08:06:53Z</time></trkpt><trkpt lat="43.21922089695515" lon="11.373052536608004"><ele>243.99999999999997</ele><time>2026-04-08T08:06:54Z</time></trkpt><trkpt lat="43.21912989683884" lon="11.373031839675342"><ele>244.0</ele><time>2026-04-08T08:06:55Z</time></trkpt><trkpt lat="43.21902076611362" lon="11.373016062105927"><ele>244.0</ele><time>2026-04-08T08:06:56Z</time></trkpt><trkpt lat="43.21893538156056" lon="11.37296580070356"><ele>244.0</ele><time>2026-04-08T08:06:57Z</time></trkpt><trkpt lat="43.218867887967875" lon="11.372938503527848"><ele>243.99999999999997</ele><time>2026-04-08T08:06:58Z</time></trkpt><trkpt lat="43.2188020528584" lon="11.372907794015523"><ele>244.0</ele><time>2026-04-08T08:06:59Z</time></trkpt><trkpt lat="43.21871971740427" lon="11.372893340910004"><ele>245.1428571428571</ele><time>2026-04-08T08:07:00Z</time></trkpt><trkpt lat="43.21865738227018" lon="11.372840972314078"><ele>246.28571428571428</ele><time>2026-04-08T08:07:01Z</time></trkpt><trkpt lat="43.218592053728635" lon="11.372822314577979"><ele>247.42857142857142</ele><time>2026-04-08T08:07:02Z</time></trkpt><trkpt lat="43.21852902235588" lon="11.372793979073307"><ele>248.57142857142856</ele><time>2026-04-08T08:07:03Z</time></trkpt><trkpt lat="43.21846706787816" lon="11.372768379730037"><ele>249.71428571428572</ele><time>2026-04-08T08:07:04Z</time></trkpt><trkpt lat="43.218402756209336" lon="11.372739238629569"><ele>250.85714285714286</ele><time>2026-04-08T08:07:05Z</time></trkpt><trkpt lat="43.218334967584774" lon="11.372705528946064"><ele>252.0</ele><time>2026-04-08T08:07:06Z</time></trkpt><trkpt lat="43.218268094023976" lon="11.37266992770619"><ele>252.0</ele><time>2026-04-08T08:07:07Z</time></trkpt><trkpt lat="43.21820697163271" lon="11.372627360241367"><ele>252.0</ele><time>2026-04-08T08:07:08Z</time></trkpt><trkpt lat="43.21809227514072" lon="11.37257029514599"><ele>252.0</ele><time>2026-04-08T08:07:10Z</time></trkpt><trkpt lat="43.21797653519414" lon="11.372514128924925"><ele>252.0</ele><time>2026-04-08T08:07:12Z</time></trkpt><trkpt lat="43.21786453890763" lon="11.372460454818537"><ele>252.0</ele><time>2026-04-08T08:07:14Z</time></trkpt><trkpt lat="43.21774978557989" lon="11.372401764841287"><ele>250.0</ele><time>2026-04-08T08:07:16Z</time></trkpt><trkpt lat="43.21763475356902" lon="11.37233280043322"><ele>248.0</ele><time>2026-04-08T08:07:18Z</time></trkpt><trkpt lat="43.21752843952164" lon="11.37227573434597"><ele>246.0</ele><time>2026-04-08T08:07:20Z</time></trkpt><trkpt lat="43.217461935254796" lon="11.372242391257934"><ele>244.0</ele><time>2026-04-08T08:07:22Z</time></trkpt><trkpt lat="43.21739301438594" lon="11.372200812978841"><ele>242.0</ele><time>2026-04-08T08:07:25Z</time></trkpt><trkpt lat="43.21732091213633" lon="11.372177084232412"><ele>241.2</ele><time>2026-04-08T08:07:27Z</time></trkpt><trkpt lat="43.217197062307484" lon="11.372125644372643"><ele>240.39999999999998</ele><time>2026-04-08T08:07:29Z</time></trkpt><trkpt lat="43.21713047347425" lon="11.372066732235094"><ele>239.60000000000002</ele><time>2026-04-08T08:07:30Z</time></trkpt><trkpt lat="43.21704123932978" lon="11.372043132674452"><ele>238.8</ele><time>2026-04-08T08:07:31Z</time></trkpt><trkpt lat="43.21695068538403" lon="11.371996960811684"><ele>238.0</ele><time>2026-04-08T08:07:32Z</time></trkpt><trkpt lat="43.216866956236245" lon="11.37195385052337"><ele>238.0</ele><time>2026-04-08T08:07:33Z</time></trkpt><trkpt lat="43.21677018961359" lon="11.371900946874872"><ele>238.0</ele><time>2026-04-08T08:07:34Z</time></trkpt><trkpt lat="43.2166659168769" lon="11.371848086395087"><ele>238.0</ele><time>2026-04-08T08:07:35Z</time></trkpt><trkpt lat="43.216552039771095" lon="11.371790536016512"><ele>238.0</ele><time>2026-04-08T08:07:36Z</time></trkpt><trkpt lat="43.21642982202354" lon="11.371728217782794"><ele>239.5</ele><time>2026-04-08T08:07:37Z</time></trkpt><trkpt lat="43.21630062929375" lon="11.371662235840812"><ele>241.0</ele><time>2026-04-08T08:07:38Z</time></trkpt><trkpt lat="43.21616481463966" lon="11.371593439108826"><ele>242.5</ele><time>2026-04-08T08:07:39Z</time></trkpt><trkpt lat="43.21604100210076" lon="11.37152672439878"><ele>244.0</ele><time>2026-04-08T08:07:40Z</time></trkpt><trkpt lat="43.21593458819458" lon="11.371470341281617"><ele>244.0</ele><time>2026-04-08T08:07:41Z</time></trkpt><trkpt lat="43.215840031734245" lon="11.371405758748248"><ele>243.99999999999997</ele><time>2026-04-08T08:07:42Z</time></trkpt><trkpt lat="43.21576847030081" lon="11.37132315719878"><ele>243.99999999999997</ele><time>2026-04-08T08:07:43Z</time></trkpt><trkpt lat="43.215703261840176" lon="11.371245183286735"><ele>244.0</ele><time>2026-04-08T08:07:44Z</time></trkpt><trkpt lat="43.215635103672476" lon="11.371162424490748"><ele>244.0</ele><time>2026-04-08T08:07:45Z</time></trkpt><trkpt lat="43.21555688699034" lon="11.371071454273057"><ele>243.2</ele><time>2026-04-08T08:07:46Z</time></trkpt><trkpt lat="43.21546742625687" lon="11.37098596859968"><ele>242.39999999999998</ele><time>2026-04-08T08:07:47Z</time></trkpt><trkpt lat="43.21536684077353" lon="11.370902320451728"><ele>241.6</ele><time>2026-04-08T08:07:48Z</time></trkpt><trkpt lat="43.215268842381896" lon="11.370829874100046"><ele>240.8</ele><time>2026-04-08T08:07:49Z</time></trkpt><trkpt lat="43.215172164783" lon="11.370770334027386"><ele>240.0</ele><time>2026-04-08T08:07:50Z</time></trkpt><trkpt lat="43.2150790780182" lon="11.370724705521305"><ele>240.0</ele><time>2026-04-08T08:07:51Z</time></trkpt><trkpt lat="43.21498326252176" lon="11.37069228901955"><ele>240.0</ele><time>2026-04-08T08:07:52Z</time></trkpt><trkpt lat="43.21488850775578" lon="11.370670342014185"><ele>240.0</ele><time>2026-04-08T08:07:53Z</time></trkpt><trkpt lat="43.214800524411196" lon="11.37066188931648"><ele>240.0</ele><time>2026-04-08T08:07:54Z</time></trkpt><trkpt lat="43.21469277261825" lon="11.370687862344363"><ele>240.0</ele><time>2026-04-08T08:07:55Z</time></trkpt><trkpt lat="43.21459163737407" lon="11.370734959290637"><ele>237.6</ele><time>2026-04-08T08:07:55.999Z</time></trkpt><trkpt lat="43.21450364018203" lon="11.370785518784569"><ele>235.2</ele><time>2026-04-08T08:07:56.999Z</time></trkpt><trkpt lat="43.21439953091914" lon="11.370849259729434"><ele>232.8</ele><time>2026-04-08T08:07:57.999Z</time></trkpt><trkpt lat="43.21428744721564" lon="11.370921736081124"><ele>230.4</ele><time>2026-04-08T08:07:58.999Z</time></trkpt><trkpt lat="43.2141862633739" lon="11.370988560184093"><ele>228.0</ele><time>2026-04-08T08:07:59.999Z</time></trkpt><trkpt lat="43.21408702272293" lon="11.371054100956064"><ele>228.0</ele><time>2026-04-08T08:08:00.999Z</time></trkpt><trkpt lat="43.21399777858379" lon="11.371113039799866"><ele>228.0</ele><time>2026-04-08T08:08:01.999Z</time></trkpt><trkpt lat="43.21391992271099" lon="11.371162955488598"><ele>228.0</ele><time>2026-04-08T08:08:02.999Z</time></trkpt><trkpt lat="43.21384242171481" lon="11.371209777037818"><ele>228.0</ele><time>2026-04-08T08:08:03.999Z</time></trkpt><trkpt lat="43.2137704837306" lon="11.371252888067685"><ele>228.0</ele><time>2026-04-08T08:08:04.999Z</time></trkpt><trkpt lat="43.21369383794214" lon="11.371297017494332"><ele>228.0</ele><time>2026-04-08T08:08:05.999Z</time></trkpt><trkpt lat="43.21360748897047" lon="11.371339923648792"><ele>227.0</ele><time>2026-04-08T08:08:06.999Z</time></trkpt><trkpt lat="43.213529839270194" lon="11.371392623531632"><ele>226.0</ele><time>2026-04-08T08:08:07.999Z</time></trkpt><trkpt lat="43.213455734215025" lon="11.371394866056667"><ele>225.0</ele><time>2026-04-08T08:08:08.999Z</time></trkpt><trkpt lat="43.21338405411157" lon="11.371363837443402"><ele>224.0</ele><time>2026-04-08T08:08:09.999Z</time></trkpt><trkpt lat="43.2133136178338" lon="11.371301456671976"><ele>223.0</ele><time>2026-04-08T08:08:10.999Z</time></trkpt><trkpt lat="43.21324335814139" lon="11.37121138864746"><ele>222.0</ele><time>2026-04-08T08:08:11.999Z</time></trkpt><trkpt lat="43.21317886506265" lon="11.371106795523346"><ele>222.0</ele><time>2026-04-08T08:08:12.999Z</time></trkpt><trkpt lat="43.21311800205897" lon="11.370994320814207"><ele>222.0</ele><time>2026-04-08T08:08:13.999Z</time></trkpt><trkpt lat="43.213063835425594" lon="11.370897952863096"><ele>222.0</ele><time>2026-04-08T08:08:14.999Z</time></trkpt><trkpt lat="43.213019437033346" lon="11.370809764025838"><ele>222.0</ele><time>2026-04-08T08:08:15.999Z</time></trkpt><trkpt lat="43.21297374389009" lon="11.370717554820011"><ele>222.0</ele><time>2026-04-08T08:08:16.999Z</time></trkpt><trkpt lat="43.21293181114732" lon="11.370625762389402"><ele>222.0</ele><time>2026-04-08T08:08:17.999Z</time></trkpt><trkpt lat="43.21288494365556" lon="11.370532493445433"><ele>223.0</ele><time>2026-04-08T08:08:18.999Z</time></trkpt><trkpt lat="43.21283969875989" lon="11.370437031803167"><ele>224.0</ele><time>2026-04-08T08:08:19.999Z</time></trkpt><trkpt lat="43.212789748951" lon="11.370345326259592"><ele>225.0</ele><time>2026-04-08T08:08:20.999Z</time></trkpt><trkpt lat="43.212743164897574" lon="11.370246168953644"><ele>226.0</ele><time>2026-04-08T08:08:21.999Z</time></trkpt><trkpt lat="43.21269304575244" lon="11.370141573182554"><ele>227.0</ele><time>2026-04-08T08:08:22.999Z</time></trkpt><trkpt lat="43.212633229772116" lon="11.370021112595417"><ele>227.0</ele><time>2026-04-08T08:08:23.999Z</time></trkpt><trkpt lat="43.21256686395017" lon="11.369907034966127"><ele>227.0</ele><time>2026-04-08T08:08:24.999Z</time></trkpt><trkpt lat="43.21249850725076" lon="11.36979303117478"><ele>227.0</ele><time>2026-04-08T08:08:25.999Z</time></trkpt><trkpt lat="43.21242710676684" lon="11.36967875566955"><ele>227.0</ele><time>2026-04-08T08:08:26.999Z</time></trkpt><trkpt lat="43.21235055393692" lon="11.36956439209887"><ele>227.0</ele><time>2026-04-08T08:08:27.999Z</time></trkpt><trkpt lat="43.212274730694524" lon="11.369424316687653"><ele>228.75</ele><time>2026-04-08T08:08:28.999Z</time></trkpt><trkpt lat="43.212177690022514" lon="11.369278835065456"><ele>230.5</ele><time>2026-04-08T08:08:29.999Z</time></trkpt><trkpt lat="43.21207887188958" lon="11.369161948499464"><ele>232.25</ele><time>2026-04-08T08:08:30.999Z</time></trkpt><trkpt lat="43.21198727214648" lon="11.369073569946499"><ele>234.0</ele><time>2026-04-08T08:08:31.999Z</time></trkpt><trkpt lat="43.21187013260156" lon="11.368980842494302"><ele>234.0</ele><time>2026-04-08T08:08:32.999Z</time></trkpt><trkpt lat="43.21171459584505" lon="11.368880412973327"><ele>234.0</ele><time>2026-04-08T08:08:33.999Z</time></trkpt><trkpt lat="43.21155703801209" lon="11.368822080167517"><ele>234.0</ele><time>2026-04-08T08:08:34.999Z</time></trkpt><trkpt lat="43.21141315209036" lon="11.368755277607795"><ele>233.66666666666669</ele><time>2026-04-08T08:08:35.999Z</time></trkpt><trkpt lat="43.21125449753796" lon="11.3686695468518"><ele>233.33333333333334</ele><time>2026-04-08T08:08:36.999Z</time></trkpt><trkpt lat="43.21107721196438" lon="11.36860274771463"><ele>233.0</ele><time>2026-04-08T08:08:37.999Z</time></trkpt><trkpt lat="43.210925563712415" lon="11.368552271295046"><ele>233.0</ele><time>2026-04-08T08:08:38.999Z</time></trkpt><trkpt lat="43.21078457102016" lon="11.36850534331155"><ele>233.0</ele><time>2026-04-08T08:08:39.999Z</time></trkpt><trkpt lat="43.21063527225573" lon="11.368455648969947"><ele>233.0</ele><time>2026-04-08T08:08:40.999Z</time></trkpt><trkpt lat="43.210471172476446" lon="11.368401028056377"><ele>232.5</ele><time>2026-04-08T08:08:41.999Z</time></trkpt><trkpt lat="43.21032340029717" lon="11.36835030837329"><ele>232.0</ele><time>2026-04-08T08:08:42.999Z</time></trkpt><trkpt lat="43.21020132880614" lon="11.368307648842876"><ele>231.5</ele><time>2026-04-08T08:08:43.999Z</time></trkpt><trkpt lat="43.210090644016766" lon="11.368270007034042"><ele>231.0</ele><time>2026-04-08T08:08:44.999Z</time></trkpt><trkpt lat="43.20999198309827" lon="11.368239301120227"><ele>231.0</ele><time>2026-04-08T08:08:45.999Z</time></trkpt><trkpt lat="43.209894875976765" lon="11.368209078756614"><ele>231.00000000000003</ele><time>2026-04-08T08:08:46.999Z</time></trkpt><trkpt lat="43.209806964762365" lon="11.36818831399436"><ele>231.00000000000003</ele><time>2026-04-08T08:08:47.999Z</time></trkpt><trkpt lat="43.209714910994556" lon="11.36819173703767"><ele>231.0</ele><time>2026-04-08T08:08:48.999Z</time></trkpt><trkpt lat="43.209610844953374" lon="11.368236352765338"><ele>231.0</ele><time>2026-04-08T08:08:49.999Z</time></trkpt><trkpt lat="43.20951937514014" lon="11.368343531300981"><ele>235.66666666666669</ele><time>2026-04-08T08:08:50.999Z</time></trkpt><trkpt lat="43.20943079398003" lon="11.368475641479558"><ele>240.33333333333334</ele><time>2026-04-08T08:08:51.999Z</time></trkpt><trkpt lat="43.209332102503794" lon="11.368636657270667"><ele>245.0</ele><time>2026-04-08T08:08:53Z</time></trkpt><trkpt lat="43.20922088432157" lon="11.3688148903598"><ele>243.5</ele><time>2026-04-08T08:08:54Z</time></trkpt><trkpt lat="43.20910975083057" lon="11.368980309627604"><ele>242.0</ele><time>2026-04-08T08:08:55Z</time></trkpt><trkpt lat="43.209021826086435" lon="11.36910751176505"><ele>240.5</ele><time>2026-04-08T08:08:56Z</time></trkpt><trkpt lat="43.208940933754434" lon="11.369223551200289"><ele>239.0</ele><time>2026-04-08T08:08:57Z</time></trkpt><trkpt lat="43.20885334214562" lon="11.36934514571419"><ele>242.5</ele><time>2026-04-08T08:08:58Z</time></trkpt><trkpt lat="43.20876132794085" lon="11.36947241413592"><ele>246.0</ele><time>2026-04-08T08:08:59Z</time></trkpt><trkpt lat="43.208665061903304" lon="11.36960186017921"><ele>249.5</ele><time>2026-04-08T08:09:00Z</time></trkpt><trkpt lat="43.208568397131955" lon="11.369731842415513"><ele>253.0</ele><time>2026-04-08T08:09:01Z</time></trkpt><trkpt lat="43.20846557876164" lon="11.369870099166176"><ele>253.0</ele><time>2026-04-08T08:09:02Z</time></trkpt><trkpt lat="43.20836296321563" lon="11.370008581830943"><ele>253.0</ele><time>2026-04-08T08:09:03Z</time></trkpt><trkpt lat="43.20826176927733" lon="11.370148112840214"><ele>253.0</ele><time>2026-04-08T08:09:04Z</time></trkpt><trkpt lat="43.20817089875665" lon="11.370273527122993"><ele>253.0</ele><time>2026-04-08T08:09:05Z</time></trkpt><trkpt lat="43.2080807450131" lon="11.370399903385476"><ele>258.66666666666663</ele><time>2026-04-08T08:09:06Z</time></trkpt><trkpt lat="43.20797930935615" lon="11.370542094443302"><ele>264.3333333333333</ele><time>2026-04-08T08:09:07Z</time></trkpt><trkpt lat="43.207870163564685" lon="11.370694713489685"><ele>270.0</ele><time>2026-04-08T08:09:08Z</time></trkpt><trkpt lat="43.207757099191205" lon="11.370852069570804"><ele>270.0</ele><time>2026-04-08T08:09:09Z</time></trkpt><trkpt lat="43.2076370774743" lon="11.371019037324672"><ele>270.0</ele><time>2026-04-08T08:09:10Z</time></trkpt><trkpt lat="43.20751730028172" lon="11.37118155875909"><ele>270.0</ele><time>2026-04-08T08:09:11Z</time></trkpt><trkpt lat="43.20742494227582" lon="11.371309707348935"><ele>267.25</ele><time>2026-04-08T08:09:12Z</time></trkpt><trkpt lat="43.20733615357292" lon="11.371466862178236"><ele>264.5</ele><time>2026-04-08T08:09:13Z</time></trkpt><trkpt lat="43.20722090983194" lon="11.37161191353862"><ele>261.75</ele><time>2026-04-08T08:09:14Z</time></trkpt><trkpt lat="43.20714752360742" lon="11.371740295405122"><ele>259.0</ele><time>2026-04-08T08:09:15Z</time></trkpt><trkpt lat="43.20706624162445" lon="11.37187895229654"><ele>262.0</ele><time>2026-04-08T08:09:16Z</time></trkpt><trkpt lat="43.206996770865345" lon="11.372037927930899"><ele>265.0</ele><time>2026-04-08T08:09:17Z</time></trkpt><trkpt lat="43.20692703442926" lon="11.372188549687648"><ele>268.0</ele><time>2026-04-08T08:09:18Z</time></trkpt><trkpt lat="43.20684918697417" lon="11.37228484768256"><ele>271.0</ele><time>2026-04-08T08:09:19Z</time></trkpt><trkpt lat="43.20678560296932" lon="11.372391299855497"><ele>271.0</ele><time>2026-04-08T08:09:20Z</time></trkpt><trkpt lat="43.20672144911394" lon="11.37249675224018"><ele>271.0</ele><time>2026-04-08T08:09:21Z</time></trkpt><trkpt lat="43.20665644590577" lon="11.37259663577522"><ele>271.0</ele><time>2026-04-08T08:09:22Z</time></trkpt><trkpt lat="43.20658070340685" lon="11.372701008672555"><ele>271.0</ele><time>2026-04-08T08:09:23Z</time></trkpt><trkpt lat="43.20651521320614" lon="11.372799789262098"><ele>271.0</ele><time>2026-04-08T08:09:24Z</time></trkpt><trkpt lat="43.20643308529839" lon="11.372872083246353"><ele>270.2</ele><time>2026-04-08T08:09:25Z</time></trkpt><trkpt lat="43.20633385973047" lon="11.372921631073842"><ele>269.40000000000003</ele><time>2026-04-08T08:09:26Z</time></trkpt><trkpt lat="43.206237552949" lon="11.372990916841378"><ele>268.6</ele><time>2026-04-08T08:09:27Z</time></trkpt><trkpt lat="43.20616056320858" lon="11.373060373162684"><ele>267.8</ele><time>2026-04-08T08:09:28Z</time></trkpt><trkpt lat="43.20608060443428" lon="11.373124037102297"><ele>267.0</ele><time>2026-04-08T08:09:29Z</time></trkpt><trkpt lat="43.20600428704881" lon="11.37317295835639"><ele>267.0</ele><time>2026-04-08T08:09:30Z</time></trkpt><trkpt lat="43.2059256052083" lon="11.373238229878979"><ele>267.0</ele><time>2026-04-08T08:09:31Z</time></trkpt><trkpt lat="43.20583849208648" lon="11.373294434793797"><ele>267.0</ele><time>2026-04-08T08:09:32Z</time></trkpt><trkpt lat="43.20574797671545" lon="11.37335051111924"><ele>267.0</ele><time>2026-04-08T08:09:33Z</time></trkpt><trkpt lat="43.20568139971734" lon="11.373421305178285"><ele>267.0</ele><time>2026-04-08T08:09:34Z</time></trkpt><trkpt lat="43.205604027090494" lon="11.373494739203734"><ele>267.2</ele><time>2026-04-08T08:09:35Z</time></trkpt><trkpt lat="43.205540916354565" lon="11.373566277044558"><ele>267.4</ele><time>2026-04-08T08:09:36Z</time></trkpt><trkpt lat="43.20546074313407" lon="11.373645401996585"><ele>267.6</ele><time>2026-04-08T08:09:37Z</time></trkpt><trkpt lat="43.20538471984047" lon="11.373706049797953"><ele>267.8</ele><time>2026-04-08T08:09:38Z</time></trkpt><trkpt lat="43.20529277321773" lon="11.373723583482688"><ele>268.0</ele><time>2026-04-08T08:09:39Z</time></trkpt><trkpt lat="43.205197527505334" lon="11.373743185645763"><ele>268.0</ele><time>2026-04-08T08:09:40Z</time></trkpt><trkpt lat="43.205092119714166" lon="11.37373664259559"><ele>268.0</ele><time>2026-04-08T08:09:41Z</time></trkpt><trkpt lat="43.20497266941894" lon="11.37373805723963"><ele>268.0</ele><time>2026-04-08T08:09:42Z</time></trkpt><trkpt lat="43.204864632554575" lon="11.373739345643779"><ele>268.0</ele><time>2026-04-08T08:09:43Z</time></trkpt><trkpt lat="43.20476212783644" lon="11.373741451714713"><ele>268.0</ele><time>2026-04-08T08:09:44Z</time></trkpt><trkpt lat="43.20465444930752" lon="11.373764219221519"><ele>267.75</ele><time>2026-04-08T08:09:45Z</time></trkpt><trkpt lat="43.204533868892064" lon="11.373813294818314"><ele>267.5</ele><time>2026-04-08T08:09:46Z</time></trkpt><trkpt lat="43.204397487756225" lon="11.373852695038336"><ele>267.25</ele><time>2026-04-08T08:09:47Z</time></trkpt><trkpt lat="43.204279764089826" lon="11.37390104813491"><ele>267.0</ele><time>2026-04-08T08:09:48Z</time></trkpt><trkpt lat="43.204177369617085" lon="11.37393528716053"><ele>264.75</ele><time>2026-04-08T08:09:49Z</time></trkpt><trkpt lat="43.20407736344165" lon="11.373969459158202"><ele>262.5</ele><time>2026-04-08T08:09:50Z</time></trkpt><trkpt lat="43.20396947575719" lon="11.373985000833365"><ele>260.25</ele><time>2026-04-08T08:09:51Z</time></trkpt><trkpt lat="43.20385335493371" lon="11.37405210303366"><ele>258.0</ele><time>2026-04-08T08:09:52Z</time></trkpt><trkpt lat="43.20372063430078" lon="11.374113851111835"><ele>258.0</ele><time>2026-04-08T08:09:53Z</time></trkpt><trkpt lat="43.20358408219804" lon="11.374187506709905"><ele>258.0</ele><time>2026-04-08T08:09:54Z</time></trkpt><trkpt lat="43.20347310882379" lon="11.374294365588748"><ele>258.0</ele><time>2026-04-08T08:09:55Z</time></trkpt><trkpt lat="43.203384158008596" lon="11.374372501285574"><ele>258.0</ele><time>2026-04-08T08:09:56Z</time></trkpt><trkpt lat="43.203294561162224" lon="11.374436467292144"><ele>258.0</ele><time>2026-04-08T08:09:57Z</time></trkpt><trkpt lat="43.20318723312227" lon="11.374493898315091"><ele>258.0</ele><time>2026-04-08T08:09:58Z</time></trkpt><trkpt lat="43.20307098715007" lon="11.374530891164847"><ele>258.0</ele><time>2026-04-08T08:09:59Z</time></trkpt><trkpt lat="43.20296389294293" lon="11.374570984734238"><ele>258.0</ele><time>2026-04-08T08:10:00Z</time></trkpt><trkpt lat="43.20284172933455" lon="11.374603242264891"><ele>256.5</ele><time>2026-04-08T08:10:01Z</time></trkpt><trkpt lat="43.2027158688093" lon="11.374628951184743"><ele>255.0</ele><time>2026-04-08T08:10:01.999Z</time></trkpt><trkpt lat="43.20260846189037" lon="11.374660306182504"><ele>253.5</ele><time>2026-04-08T08:10:02.999Z</time></trkpt><trkpt lat="43.20249195117781" lon="11.374687018092756"><ele>252.0</ele><time>2026-04-08T08:10:03.999Z</time></trkpt><trkpt lat="43.20236753813999" lon="11.374704654780663"><ele>255.5</ele><time>2026-04-08T08:10:04.999Z</time></trkpt><trkpt lat="43.2022530912708" lon="11.374750996668434"><ele>259.0</ele><time>2026-04-08T08:10:05.999Z</time></trkpt><trkpt lat="43.202135673129966" lon="11.3747641267827"><ele>262.5</ele><time>2026-04-08T08:10:06.999Z</time></trkpt><trkpt lat="43.202016676703586" lon="11.374800642209216"><ele>266.0</ele><time>2026-04-08T08:10:07.999Z</time></trkpt><trkpt lat="43.2019019395067" lon="11.37486323380275"><ele>266.0</ele><time>2026-04-08T08:10:08.999Z</time></trkpt><trkpt lat="43.201806414030344" lon="11.374893122158745"><ele>266.0</ele><time>2026-04-08T08:10:09.999Z</time></trkpt><trkpt lat="43.20173967929878" lon="11.374934357977644"><ele>266.0</ele><time>2026-04-08T08:10:10.999Z</time></trkpt><trkpt lat="43.20166810273753" lon="11.374982355804205"><ele>266.0</ele><time>2026-04-08T08:10:11.999Z</time></trkpt><trkpt lat="43.20157991515641" lon="11.375037165444176"><ele>266.0</ele><time>2026-04-08T08:10:12.999Z</time></trkpt><trkpt lat="43.20150336123734" lon="11.375105189750014"><ele>266.0</ele><time>2026-04-08T08:10:13.999Z</time></trkpt><trkpt lat="43.20141504187347" lon="11.375164018221826"><ele>267.0</ele><time>2026-04-08T08:10:14.999Z</time></trkpt><trkpt lat="43.201319848663026" lon="11.375214955481137"><ele>268.0</ele><time>2026-04-08T08:10:15.999Z</time></trkpt><trkpt lat="43.20123132869423" lon="11.375295209741914"><ele>269.0</ele><time>2026-04-08T08:10:16.999Z</time></trkpt><trkpt lat="43.20115848912739" lon="11.37534422288686"><ele>270.0</ele><time>2026-04-08T08:10:17.999Z</time></trkpt><trkpt lat="43.20106260259019" lon="11.37540293489335"><ele>271.0</ele><time>2026-04-08T08:10:19.999Z</time></trkpt><trkpt lat="43.20099417426499" lon="11.375381585169555"><ele>271.0</ele><time>2026-04-08T08:10:21.999Z</time></trkpt><trkpt lat="43.200882958619935" lon="11.375369728178038"><ele>271.0</ele><time>2026-04-08T08:10:24.999Z</time></trkpt><trkpt lat="43.20078350482492" lon="11.375299811128187"><ele>271.0</ele><time>2026-04-08T08:10:26.999Z</time></trkpt><trkpt lat="43.20066030242636" lon="11.37522665742771"><ele>271.0</ele><time>2026-04-08T08:10:28.999Z</time></trkpt><trkpt lat="43.20057710108055" lon="11.375177162900595"><ele>271.0</ele><time>2026-04-08T08:10:29.999Z</time></trkpt><trkpt lat="43.2005019422815" lon="11.375157125803723"><ele>268.0</ele><time>2026-04-08T08:10:30.999Z</time></trkpt><trkpt lat="43.20045223893288" lon="11.375102885667873"><ele>265.0</ele><time>2026-04-08T08:10:31.999Z</time></trkpt><trkpt lat="43.200361818078946" lon="11.375065089484652"><ele>262.0</ele><time>2026-04-08T08:10:33.999Z</time></trkpt><trkpt lat="43.200275096741755" lon="11.375001352547802"><ele>259.0</ele><time>2026-04-08T08:10:35.999Z</time></trkpt><trkpt lat="43.200178015549774" lon="11.37496309394629"><ele>256.0</ele><time>2026-04-08T08:10:37.999Z</time></trkpt><trkpt lat="43.2000544953238" lon="11.374989556152842"><ele>256.0</ele><time>2026-04-08T08:10:39.999Z</time></trkpt><trkpt lat="43.19999564951242" lon="11.375058294774524"><ele>256.0</ele><time>2026-04-08T08:10:40.999Z</time></trkpt><trkpt lat="43.199957629626525" lon="11.375190618041275"><ele>256.0</ele><time>2026-04-08T08:10:41.999Z</time></trkpt><trkpt lat="43.19988891984892" lon="11.375305953700218"><ele>256.0</ele><time>2026-04-08T08:10:42.999Z</time></trkpt><trkpt lat="43.199829915636165" lon="11.375424688297725"><ele>256.0</ele><time>2026-04-08T08:10:43.999Z</time></trkpt><trkpt lat="43.199761931424284" lon="11.375526293462306"><ele>253.60000000000002</ele><time>2026-04-08T08:10:44.999Z</time></trkpt><trkpt lat="43.19968628021894" lon="11.375628229164999"><ele>251.20000000000002</ele><time>2026-04-08T08:10:45.999Z</time></trkpt><trkpt lat="43.19960169657314" lon="11.375733158668657"><ele>248.79999999999998</ele><time>2026-04-08T08:10:46.999Z</time></trkpt><trkpt lat="43.199514649781925" lon="11.375832617790245"><ele>246.39999999999998</ele><time>2026-04-08T08:10:47.999Z</time></trkpt><trkpt lat="43.199433271901164" lon="11.375925094666936"><ele>244.0</ele><time>2026-04-08T08:10:48.999Z</time></trkpt><trkpt lat="43.199353988243935" lon="11.376012796515042"><ele>244.0</ele><time>2026-04-08T08:10:49.999Z</time></trkpt><trkpt lat="43.199260383156066" lon="11.376094446683826"><ele>243.99999999999997</ele><time>2026-04-08T08:10:50.999Z</time></trkpt><trkpt lat="43.199162776977694" lon="11.376150290916698"><ele>243.99999999999997</ele><time>2026-04-08T08:10:51.999Z</time></trkpt><trkpt lat="43.199070987267945" lon="11.37618448890454"><ele>244.0</ele><time>2026-04-08T08:10:52.999Z</time></trkpt><trkpt lat="43.198970208555025" lon="11.376207357131625"><ele>244.0</ele><time>2026-04-08T08:10:53.999Z</time></trkpt><trkpt lat="43.19886174270028" lon="11.376242265725772"><ele>243.2</ele><time>2026-04-08T08:10:54.999Z</time></trkpt><trkpt lat="43.198745265862044" lon="11.376266875407296"><ele>242.39999999999998</ele><time>2026-04-08T08:10:55.999Z</time></trkpt><trkpt lat="43.19863561261375" lon="11.37628322957834"><ele>241.6</ele><time>2026-04-08T08:10:56.999Z</time></trkpt><trkpt lat="43.198531304643744" lon="11.37632703663492"><ele>240.8</ele><time>2026-04-08T08:10:57.999Z</time></trkpt><trkpt lat="43.19842168913026" lon="11.376354973216895"><ele>240.0</ele><time>2026-04-08T08:10:59Z</time></trkpt><trkpt lat="43.19833322910667" lon="11.376440181414786"><ele>240.0</ele><time>2026-04-08T08:11:00Z</time></trkpt><trkpt lat="43.198239646878676" lon="11.376533024198308"><ele>240.0</ele><time>2026-04-08T08:11:01Z</time></trkpt><trkpt lat="43.19812102098838" lon="11.376642856803858"><ele>240.0</ele><time>2026-04-08T08:11:02Z</time></trkpt><trkpt lat="43.198021109249495" lon="11.37675335242005"><ele>240.0</ele><time>2026-04-08T08:11:03Z</time></trkpt><trkpt lat="43.197938083067825" lon="11.376843349865391"><ele>240.0</ele><time>2026-04-08T08:11:04Z</time></trkpt><trkpt lat="43.197844941623934" lon="11.376938171594619"><ele>240.0</ele><time>2026-04-08T08:11:05Z</time></trkpt><trkpt lat="43.19773892655305" lon="11.377023206947918"><ele>240.0</ele><time>2026-04-08T08:11:06Z</time></trkpt><trkpt lat="43.19764225810538" lon="11.377095255119666"><ele>240.0</ele><time>2026-04-08T08:11:07Z</time></trkpt><trkpt lat="43.19755731551636" lon="11.377154351038856"><ele>240.0</ele><time>2026-04-08T08:11:08Z</time></trkpt><trkpt lat="43.19746524500856" lon="11.377217517222991"><ele>240.0</ele><time>2026-04-08T08:11:09Z</time></trkpt><trkpt lat="43.197376846167955" lon="11.377298509489817"><ele>240.0</ele><time>2026-04-08T08:11:10Z</time></trkpt><trkpt lat="43.19727381022947" lon="11.377369067911635"><ele>240.0</ele><time>2026-04-08T08:11:11Z</time></trkpt><trkpt lat="43.1971610351827" lon="11.37741813100615"><ele>240.0</ele><time>2026-04-08T08:11:12Z</time></trkpt><trkpt lat="43.1970511294431" lon="11.377511426737282"><ele>238.0</ele><time>2026-04-08T08:11:13Z</time></trkpt><trkpt lat="43.196939266178816" lon="11.377584386616139"><ele>236.0</ele><time>2026-04-08T08:11:14Z</time></trkpt><trkpt lat="43.19684017841946" lon="11.377649407681007"><ele>234.0</ele><time>2026-04-08T08:11:15Z</time></trkpt><trkpt lat="43.196746078719116" lon="11.377715652825474"><ele>232.0</ele><time>2026-04-08T08:11:16Z</time></trkpt><trkpt lat="43.196645675474166" lon="11.377794088920368"><ele>232.0</ele><time>2026-04-08T08:11:17Z</time></trkpt><trkpt lat="43.19652512675455" lon="11.377871941233357"><ele>232.0</ele><time>2026-04-08T08:11:18Z</time></trkpt><trkpt lat="43.19640277266136" lon="11.37796396896857"><ele>232.0</ele><time>2026-04-08T08:11:19Z</time></trkpt><trkpt lat="43.1962862632769" lon="11.378035492113737"><ele>232.0</ele><time>2026-04-08T08:11:20Z</time></trkpt><trkpt lat="43.19617306390755" lon="11.378123448830408"><ele>232.5</ele><time>2026-04-08T08:11:21Z</time></trkpt><trkpt lat="43.196042942011694" lon="11.378205201030974"><ele>233.0</ele><time>2026-04-08T08:11:22Z</time></trkpt><trkpt lat="43.195896143753956" lon="11.378268126444597"><ele>233.5</ele><time>2026-04-08T08:11:23Z</time></trkpt><trkpt lat="43.19576245924313" lon="11.378334600751522"><ele>234.0</ele><time>2026-04-08T08:11:24Z</time></trkpt><trkpt lat="43.195634097339514" lon="11.378390249307092"><ele>233.2</ele><time>2026-04-08T08:11:25Z</time></trkpt><trkpt lat="43.19552015547315" lon="11.378438257562044"><ele>232.39999999999998</ele><time>2026-04-08T08:11:26Z</time></trkpt><trkpt lat="43.19542690594952" lon="11.378482324716462"><ele>231.6</ele><time>2026-04-08T08:11:27Z</time></trkpt><trkpt lat="43.19532918772017" lon="11.378534178592188"><ele>230.8</ele><time>2026-04-08T08:11:28Z</time></trkpt><trkpt lat="43.19522539023433" lon="11.37861271114583"><ele>230.0</ele><time>2026-04-08T08:11:29Z</time></trkpt><trkpt lat="43.19513716836037" lon="11.378736244019024"><ele>230.75</ele><time>2026-04-08T08:11:30Z</time></trkpt><trkpt lat="43.19502015740973" lon="11.378854898615701"><ele>231.5</ele><time>2026-04-08T08:11:31Z</time></trkpt><trkpt lat="43.194916841503456" lon="11.37900243366427"><ele>232.25</ele><time>2026-04-08T08:11:32Z</time></trkpt><trkpt lat="43.19483703858733" lon="11.379129176841131"><ele>233.0</ele><time>2026-04-08T08:11:33Z</time></trkpt><trkpt lat="43.19477410000494" lon="11.379250397743062"><ele>231.8</ele><time>2026-04-08T08:11:34Z</time></trkpt><trkpt lat="43.194734202701596" lon="11.37938077166243"><ele>230.60000000000002</ele><time>2026-04-08T08:11:35Z</time></trkpt><trkpt lat="43.19468308396899" lon="11.379503459517805"><ele>229.39999999999998</ele><time>2026-04-08T08:11:36Z</time></trkpt><trkpt lat="43.19463577559415" lon="11.379635345091843"><ele>228.2</ele><time>2026-04-08T08:11:37Z</time></trkpt><trkpt lat="43.19457601069045" lon="11.37977590044987"><ele>227.0</ele><time>2026-04-08T08:11:38Z</time></trkpt><trkpt lat="43.19454563174338" lon="11.37996373580774"><ele>227.0</ele><time>2026-04-08T08:11:39Z</time></trkpt><trkpt lat="43.194527083275844" lon="11.380154080952302"><ele>227.0</ele><time>2026-04-08T08:11:40Z</time></trkpt><trkpt lat="43.194511025898855" lon="11.380355816340725"><ele>227.0</ele><time>2026-04-08T08:11:41Z</time></trkpt><trkpt lat="43.19449739802278" lon="11.380533609585957"><ele>227.0</ele><time>2026-04-08T08:11:42Z</time></trkpt><trkpt lat="43.19448426750101" lon="11.380687633648355"><ele>227.25</ele><time>2026-04-08T08:11:43Z</time></trkpt><trkpt lat="43.19446786259008" lon="11.380845708839784"><ele>227.5</ele><time>2026-04-08T08:11:44Z</time></trkpt><trkpt lat="43.19442644895988" lon="11.381009645631979"><ele>227.75</ele><time>2026-04-08T08:11:45Z</time></trkpt><trkpt lat="43.19437414941208" lon="11.381169139332867"><ele>228.0</ele><time>2026-04-08T08:11:46Z</time></trkpt><trkpt lat="43.194314357440106" lon="11.381344024129879"><ele>228.0</ele><time>2026-04-08T08:11:47Z</time></trkpt><trkpt lat="43.194260926512165" lon="11.381550134102014"><ele>228.0</ele><time>2026-04-08T08:11:48Z</time></trkpt><trkpt lat="43.19419650823572" lon="11.381720416548053"><ele>228.0</ele><time>2026-04-08T08:11:49Z</time></trkpt><trkpt lat="43.19414788139291" lon="11.38186795290522"><ele>228.0</ele><time>2026-04-08T08:11:50Z</time></trkpt><trkpt lat="43.1940865365478" lon="11.38201846702807"><ele>227.75</ele><time>2026-04-08T08:11:51Z</time></trkpt><trkpt lat="43.1940354219903" lon="11.382189397126256"><ele>227.5</ele><time>2026-04-08T08:11:52Z</time></trkpt><trkpt lat="43.193968389788125" lon="11.382376688950675"><ele>227.25</ele><time>2026-04-08T08:11:53Z</time></trkpt><trkpt lat="43.193892961611155" lon="11.382568747339297"><ele>227.0</ele><time>2026-04-08T08:11:54Z</time></trkpt><trkpt lat="43.19382910906996" lon="11.382760348681996"><ele>226.75</ele><time>2026-04-08T08:11:55Z</time></trkpt><trkpt lat="43.19377223222871" lon="11.38291752241901"><ele>226.5</ele><time>2026-04-08T08:11:56Z</time></trkpt><trkpt lat="43.193722525197714" lon="11.383054941525154"><ele>226.25</ele><time>2026-04-08T08:11:57Z</time></trkpt><trkpt lat="43.19367112035872" lon="11.3831871366918"><ele>226.0</ele><time>2026-04-08T08:11:58Z</time></trkpt><trkpt lat="43.193595679282325" lon="11.383294119462294"><ele>226.0</ele><time>2026-04-08T08:11:59Z</time></trkpt><trkpt lat="43.19352179140118" lon="11.383380809372877"><ele>226.0</ele><time>2026-04-08T08:12:00Z</time></trkpt><trkpt lat="43.19342844632525" lon="11.38344680052472"><ele>226.0</ele><time>2026-04-08T08:12:01Z</time></trkpt><trkpt lat="43.19331283427659" lon="11.383513557711536"><ele>226.0</ele><time>2026-04-08T08:12:02Z</time></trkpt><trkpt lat="43.193174379162734" lon="11.383572479715971"><ele>224.75</ele><time>2026-04-08T08:12:03Z</time></trkpt><trkpt lat="43.193030238540935" lon="11.38363558596706"><ele>223.5</ele><time>2026-04-08T08:12:04Z</time></trkpt><trkpt lat="43.192895862582155" lon="11.383705638766685"><ele>222.25</ele><time>2026-04-08T08:12:05Z</time></trkpt><trkpt lat="43.19277505799874" lon="11.38376681453201"><ele>221.0</ele><time>2026-04-08T08:12:06Z</time></trkpt><trkpt lat="43.192663094807656" lon="11.383820834609752"><ele>221.60000000000002</ele><time>2026-04-08T08:12:07Z</time></trkpt><trkpt lat="43.19255049162974" lon="11.38387411093134"><ele>222.20000000000002</ele><time>2026-04-08T08:12:07.999Z</time></trkpt><trkpt lat="43.19243983128385" lon="11.383915949183054"><ele>222.79999999999998</ele><time>2026-04-08T08:12:08.999Z</time></trkpt><trkpt lat="43.19233494606427" lon="11.383936077919998"><ele>223.39999999999998</ele><time>2026-04-08T08:12:09.999Z</time></trkpt><trkpt lat="43.19222618831175" lon="11.383939040366618"><ele>224.0</ele><time>2026-04-08T08:12:10.999Z</time></trkpt><trkpt lat="43.192109320424734" lon="11.383935350809853"><ele>224.2</ele><time>2026-04-08T08:12:11.999Z</time></trkpt><trkpt lat="43.192008659508254" lon="11.383923648148201"><ele>224.39999999999998</ele><time>2026-04-08T08:12:12.999Z</time></trkpt><trkpt lat="43.19192400867779" lon="11.383927442591066"><ele>224.6</ele><time>2026-04-08T08:12:13.999Z</time></trkpt><trkpt lat="43.19183001559895" lon="11.383965775053564"><ele>224.8</ele><time>2026-04-08T08:12:14.999Z</time></trkpt><trkpt lat="43.19175657346795" lon="11.38401929114807"><ele>225.0</ele><time>2026-04-08T08:12:15.999Z</time></trkpt><trkpt lat="43.19166131111471" lon="11.384071281961475"><ele>225.0</ele><time>2026-04-08T08:12:16.999Z</time></trkpt><trkpt lat="43.191562033649916" lon="11.384184283831384"><ele>225.0</ele><time>2026-04-08T08:12:17.999Z</time></trkpt><trkpt lat="43.19146712201397" lon="11.384321350644191"><ele>225.0</ele><time>2026-04-08T08:12:18.999Z</time></trkpt><trkpt lat="43.191382657302825" lon="11.384473522173444"><ele>225.0</ele><time>2026-04-08T08:12:19.999Z</time></trkpt><trkpt lat="43.19125929982246" lon="11.38462334130365"><ele>225.75</ele><time>2026-04-08T08:12:20.999Z</time></trkpt><trkpt lat="43.191161642468394" lon="11.384757099823972"><ele>226.5</ele><time>2026-04-08T08:12:21.999Z</time></trkpt><trkpt lat="43.191071681725525" lon="11.384870624856308"><ele>227.25</ele><time>2026-04-08T08:12:22.999Z</time></trkpt><trkpt lat="43.19098079890051" lon="11.384970711118548"><ele>228.0</ele><time>2026-04-08T08:12:23.999Z</time></trkpt><trkpt lat="43.19088104708068" lon="11.385071074343719"><ele>228.0</ele><time>2026-04-08T08:12:24.999Z</time></trkpt><trkpt lat="43.19078563852686" lon="11.385185024799204"><ele>228.0</ele><time>2026-04-08T08:12:25.999Z</time></trkpt><trkpt lat="43.19067070821069" lon="11.385274604544742"><ele>228.0</ele><time>2026-04-08T08:12:26.999Z</time></trkpt><trkpt lat="43.19054805396144" lon="11.385357365762893"><ele>228.0</ele><time>2026-04-08T08:12:27.999Z</time></trkpt><trkpt lat="43.19042516629013" lon="11.38543154958829"><ele>229.0</ele><time>2026-04-08T08:12:28.999Z</time></trkpt><trkpt lat="43.19030125273623" lon="11.3855027605689"><ele>230.0</ele><time>2026-04-08T08:12:29.999Z</time></trkpt><trkpt lat="43.190167277979214" lon="11.385560155136845"><ele>231.0</ele><time>2026-04-08T08:12:30.999Z</time></trkpt><trkpt lat="43.19002507049804" lon="11.385587398328559"><ele>232.0</ele><time>2026-04-08T08:12:31.999Z</time></trkpt><trkpt lat="43.1898845924738" lon="11.385643734468168"><ele>227.66666666666666</ele><time>2026-04-08T08:12:32.999Z</time></trkpt><trkpt lat="43.18972970929958" lon="11.38566708727098"><ele>223.33333333333331</ele><time>2026-04-08T08:12:33.999Z</time></trkpt><trkpt lat="43.18957083536986" lon="11.385707823871362"><ele>219.0</ele><time>2026-04-08T08:12:34.999Z</time></trkpt><trkpt lat="43.18941066900472" lon="11.385759346815632"><ele>219.0</ele><time>2026-04-08T08:12:35.999Z</time></trkpt><trkpt lat="43.18924995484087" lon="11.38577860746743"><ele>219.0</ele><time>2026-04-08T08:12:36.999Z</time></trkpt><trkpt lat="43.18910661045055" lon="11.385818720914967"><ele>219.0</ele><time>2026-04-08T08:12:37.999Z</time></trkpt><trkpt lat="43.18898013400152" lon="11.385861459708956"><ele>219.0</ele><time>2026-04-08T08:12:38.999Z</time></trkpt><trkpt lat="43.18886858997235" lon="11.38589592407422"><ele>220.39999999999998</ele><time>2026-04-08T08:12:39.999Z</time></trkpt><trkpt lat="43.188767179729396" lon="11.385922388332075"><ele>221.79999999999998</ele><time>2026-04-08T08:12:40.999Z</time></trkpt><trkpt lat="43.18866403383314" lon="11.385937773689509"><ele>223.20000000000002</ele><time>2026-04-08T08:12:41.999Z</time></trkpt><trkpt lat="43.18855536636593" lon="11.385929890808207"><ele>224.60000000000002</ele><time>2026-04-08T08:12:42.999Z</time></trkpt><trkpt lat="43.18845269917934" lon="11.3858702284691"><ele>226.0</ele><time>2026-04-08T08:12:43.999Z</time></trkpt><trkpt lat="43.18834540149495" lon="11.385789299994043"><ele>226.0</ele><time>2026-04-08T08:12:44.999Z</time></trkpt><trkpt lat="43.18824325695706" lon="11.38571785587041"><ele>226.00000000000003</ele><time>2026-04-08T08:12:45.999Z</time></trkpt><trkpt lat="43.188147876857784" lon="11.385618025116099"><ele>226.00000000000003</ele><time>2026-04-08T08:12:46.999Z</time></trkpt><trkpt lat="43.18805914740359" lon="11.385544617422367"><ele>226.0</ele><time>2026-04-08T08:12:47.999Z</time></trkpt><trkpt lat="43.18800236192572" lon="11.385480763442086"><ele>226.0</ele><time>2026-04-08T08:12:48.999Z</time></trkpt><trkpt lat="43.187906195124086" lon="11.38542127372943"><ele>228.0</ele><time>2026-04-08T08:12:50.999Z</time></trkpt><trkpt lat="43.18783971245464" lon="11.38538641360769"><ele>230.0</ele><time>2026-04-08T08:12:51.999Z</time></trkpt><trkpt lat="43.18776606388252" lon="11.385351253634324"><ele>232.0</ele><time>2026-04-08T08:12:52.999Z</time></trkpt><trkpt lat="43.187693170736495" lon="11.385321213122959"><ele>234.0</ele><time>2026-04-08T08:12:53.999Z</time></trkpt><trkpt lat="43.18761616972924" lon="11.385291944158475"><ele>236.0</ele><time>2026-04-08T08:12:54.999Z</time></trkpt><trkpt lat="43.187549876252994" lon="11.385268778174224"><ele>238.0</ele><time>2026-04-08T08:12:55.999Z</time></trkpt><trkpt lat="43.18747735657579" lon="11.38527404621522"><ele>240.0</ele><time>2026-04-08T08:12:56.999Z</time></trkpt><trkpt lat="43.18740260425469" lon="11.38525367197218"><ele>241.6</ele><time>2026-04-08T08:12:57.999Z</time></trkpt><trkpt lat="43.18731076994165" lon="11.385242344253916"><ele>243.2</ele><time>2026-04-08T08:12:58.999Z</time></trkpt><trkpt lat="43.187221436475056" lon="11.385250692595715"><ele>244.8</ele><time>2026-04-08T08:12:59.999Z</time></trkpt><trkpt lat="43.18711234072462" lon="11.385242299931711"><ele>246.4</ele><time>2026-04-08T08:13:00.999Z</time></trkpt><trkpt lat="43.18696316918681" lon="11.38526827886618"><ele>248.0</ele><time>2026-04-08T08:13:01.999Z</time></trkpt><trkpt lat="43.186836032963036" lon="11.38529644300508"><ele>248.0</ele><time>2026-04-08T08:13:02.999Z</time></trkpt><trkpt lat="43.18673997528973" lon="11.385316852190334"><ele>248.0</ele><time>2026-04-08T08:13:03.999Z</time></trkpt><trkpt lat="43.18663956435029" lon="11.385335175578723"><ele>248.0</ele><time>2026-04-08T08:13:05Z</time></trkpt><trkpt lat="43.186513415553215" lon="11.385358197546049"><ele>248.0</ele><time>2026-04-08T08:13:06Z</time></trkpt><trkpt lat="43.18639252433977" lon="11.385377022290102"><ele>248.0</ele><time>2026-04-08T08:13:07Z</time></trkpt><trkpt lat="43.18627999613978" lon="11.38539157181359"><ele>250.0</ele><time>2026-04-08T08:13:08Z</time></trkpt><trkpt lat="43.18616154228699" lon="11.385400077239307"><ele>252.0</ele><time>2026-04-08T08:13:09Z</time></trkpt><trkpt lat="43.18604137054777" lon="11.385417526420328"><ele>254.0</ele><time>2026-04-08T08:13:10Z</time></trkpt><trkpt lat="43.18592505467939" lon="11.38542278928352"><ele>256.0</ele><time>2026-04-08T08:13:11Z</time></trkpt><trkpt lat="43.1858066375641" lon="11.385424690649721"><ele>255.99999999999997</ele><time>2026-04-08T08:13:12Z</time></trkpt><trkpt lat="43.1856948002049" lon="11.385420251832588"><ele>256.0</ele><time>2026-04-08T08:13:13Z</time></trkpt><trkpt lat="43.185615925540695" lon="11.38540057383781"><ele>256.0</ele><time>2026-04-08T08:13:14Z</time></trkpt><trkpt lat="43.185533589390985" lon="11.38540807304802"><ele>256.0</ele><time>2026-04-08T08:13:15Z</time></trkpt><trkpt lat="43.18545789261712" lon="11.385361166918418"><ele>255.99999999999997</ele><time>2026-04-08T08:13:16Z</time></trkpt><trkpt lat="43.185379889234845" lon="11.38530751745545"><ele>256.0</ele><time>2026-04-08T08:13:17Z</time></trkpt><trkpt lat="43.1852991601469" lon="11.385260025201905"><ele>258.2</ele><time>2026-04-08T08:13:18Z</time></trkpt><trkpt lat="43.185242057415245" lon="11.385157350255591"><ele>260.40000000000003</ele><time>2026-04-08T08:13:19Z</time></trkpt><trkpt lat="43.18517170630754" lon="11.385065010571063"><ele>262.6</ele><time>2026-04-08T08:13:20Z</time></trkpt><trkpt lat="43.18509171795754" lon="11.384970871991051"><ele>264.8</ele><time>2026-04-08T08:13:21Z</time></trkpt><trkpt lat="43.185013473693495" lon="11.384850057065368"><ele>267.0</ele><time>2026-04-08T08:13:22Z</time></trkpt><trkpt lat="43.18493990551832" lon="11.384725777468436"><ele>267.75</ele><time>2026-04-08T08:13:23Z</time></trkpt><trkpt lat="43.184852599573624" lon="11.384595094300533"><ele>268.5</ele><time>2026-04-08T08:13:24Z</time></trkpt><trkpt lat="43.1847512629466" lon="11.384469629551523"><ele>269.25</ele><time>2026-04-08T08:13:25Z</time></trkpt><trkpt lat="43.1846395139133" lon="11.384351591008944"><ele>270.0</ele><time>2026-04-08T08:13:26Z</time></trkpt><trkpt lat="43.184539795390954" lon="11.384226278016003"><ele>271.0</ele><time>2026-04-08T08:13:27Z</time></trkpt><trkpt lat="43.18444758809854" lon="11.384138426586391"><ele>272.0</ele><time>2026-04-08T08:13:28Z</time></trkpt><trkpt lat="43.18436636790322" lon="11.38406688828905"><ele>273.0</ele><time>2026-04-08T08:13:29Z</time></trkpt><trkpt lat="43.1842851681017" lon="11.384000229628251"><ele>274.0</ele><time>2026-04-08T08:13:30Z</time></trkpt><trkpt lat="43.184189644749495" lon="11.383930743368042"><ele>275.0</ele><time>2026-04-08T08:13:31Z</time></trkpt><trkpt lat="43.18408363365922" lon="11.383870381754301"><ele>274.75</ele><time>2026-04-08T08:13:32Z</time></trkpt><trkpt lat="43.183964903162085" lon="11.383822582711693"><ele>274.5</ele><time>2026-04-08T08:13:33Z</time></trkpt><trkpt lat="43.18383445095203" lon="11.383802822986741"><ele>274.25</ele><time>2026-04-08T08:13:34Z</time></trkpt><trkpt lat="43.18371800962086" lon="11.383761123191722"><ele>274.0</ele><time>2026-04-08T08:13:35Z</time></trkpt><trkpt lat="43.18361785440226" lon="11.383722939576906"><ele>274.0</ele><time>2026-04-08T08:13:36Z</time></trkpt><trkpt lat="43.18351133722481" lon="11.383679755605229"><ele>274.0</ele><time>2026-04-08T08:13:37Z</time></trkpt><trkpt lat="43.18341204934117" lon="11.383618391634299"><ele>274.0</ele><time>2026-04-08T08:13:38Z</time></trkpt><trkpt lat="43.183322854628244" lon="11.38357933830033"><ele>274.0</ele><time>2026-04-08T08:13:39Z</time></trkpt><trkpt lat="43.18323489117891" lon="11.383540823975054"><ele>274.0</ele><time>2026-04-08T08:13:40Z</time></trkpt><trkpt lat="43.18313064689953" lon="11.383493501272632"><ele>273.25</ele><time>2026-04-08T08:13:41Z</time></trkpt><trkpt lat="43.18301858700134" lon="11.38344133889696"><ele>272.5</ele><time>2026-04-08T08:13:42Z</time></trkpt><trkpt lat="43.18291511165963" lon="11.383393418019732"><ele>271.75</ele><time>2026-04-08T08:13:43Z</time></trkpt><trkpt lat="43.18280294146036" lon="11.38334638311322"><ele>271.0</ele><time>2026-04-08T08:13:44Z</time></trkpt><trkpt lat="43.182668440829715" lon="11.383306096128802"><ele>271.0</ele><time>2026-04-08T08:13:45Z</time></trkpt><trkpt lat="43.18255099175967" lon="11.38325693310595"><ele>271.0</ele><time>2026-04-08T08:13:46Z</time></trkpt><trkpt lat="43.18244337484532" lon="11.383212302008507"><ele>271.0</ele><time>2026-04-08T08:13:47Z</time></trkpt><trkpt lat="43.18233239010971" lon="11.383174471522576"><ele>271.0</ele><time>2026-04-08T08:13:48Z</time></trkpt><trkpt lat="43.18221146447088" lon="11.383131814642326"><ele>270.5</ele><time>2026-04-08T08:13:49Z</time></trkpt><trkpt lat="43.182088053543005" lon="11.383099331996123"><ele>270.0</ele><time>2026-04-08T08:13:50Z</time></trkpt><trkpt lat="43.181959713873674" lon="11.383049928142402"><ele>269.5</ele><time>2026-04-08T08:13:51Z</time></trkpt><trkpt lat="43.18182950248301" lon="11.383042311079071"><ele>269.0</ele><time>2026-04-08T08:13:52Z</time></trkpt><trkpt lat="43.1817250059803" lon="11.383009101073753"><ele>268.5</ele><time>2026-04-08T08:13:53Z</time></trkpt><trkpt lat="43.18163641202718" lon="11.382997383200486"><ele>268.0</ele><time>2026-04-08T08:13:54Z</time></trkpt><trkpt lat="43.181556368164415" lon="11.382980047918934"><ele>267.5</ele><time>2026-04-08T08:13:55Z</time></trkpt><trkpt lat="43.18148260891896" lon="11.382957661622827"><ele>267.0</ele><time>2026-04-08T08:13:56Z</time></trkpt><trkpt lat="43.181412311855375" lon="11.382938248569126"><ele>266.5</ele><time>2026-04-08T08:13:57Z</time></trkpt><trkpt lat="43.181282314704966" lon="11.382906010404445"><ele>266.0</ele><time>2026-04-08T08:13:59Z</time></trkpt><trkpt lat="43.18119822330161" lon="11.382876365606108"><ele>266.0</ele><time>2026-04-08T08:14:00Z</time></trkpt><trkpt lat="43.18112629414646" lon="11.382837024582853"><ele>266.0</ele><time>2026-04-08T08:14:01Z</time></trkpt><trkpt lat="43.18102311017849" lon="11.382766950584045"><ele>266.0</ele><time>2026-04-08T08:14:03Z</time></trkpt><trkpt lat="43.180914061266854" lon="11.382698411330761"><ele>266.0</ele><time>2026-04-08T08:14:05Z</time></trkpt><trkpt lat="43.18083191065311" lon="11.382672766835151"><ele>266.0</ele><time>2026-04-08T08:14:07Z</time></trkpt><trkpt lat="43.180750845638634" lon="11.382716282954583"><ele>266.0</ele><time>2026-04-08T08:14:08Z</time></trkpt><trkpt lat="43.18067617989675" lon="11.382790071425745"><ele>266.0</ele><time>2026-04-08T08:14:09Z</time></trkpt><trkpt lat="43.18059256939346" lon="11.382872699528175"><ele>266.0</ele><time>2026-04-08T08:14:10Z</time></trkpt><trkpt lat="43.180497500049945" lon="11.382966651848848"><ele>266.0</ele><time>2026-04-08T08:14:11Z</time></trkpt><trkpt lat="43.18040421773178" lon="11.38305589141131"><ele>266.0</ele><time>2026-04-08T08:14:12Z</time></trkpt><trkpt lat="43.180300070936255" lon="11.383155018423766"><ele>266.0</ele><time>2026-04-08T08:14:12.999Z</time></trkpt><trkpt lat="43.18019294633804" lon="11.38325536976676"><ele>266.0</ele><time>2026-04-08T08:14:13.999Z</time></trkpt><trkpt lat="43.180098954593255" lon="11.383351124330508"><ele>266.0</ele><time>2026-04-08T08:14:14.999Z</time></trkpt><trkpt lat="43.180003740057984" lon="11.383420974090782"><ele>266.0</ele><time>2026-04-08T08:14:15.999Z</time></trkpt><trkpt lat="43.1798993668554" lon="11.38348242926203"><ele>265.25</ele><time>2026-04-08T08:14:16.999Z</time></trkpt><trkpt lat="43.17978702093858" lon="11.383545312152625"><ele>264.5</ele><time>2026-04-08T08:14:17.999Z</time></trkpt><trkpt lat="43.17966827335547" lon="11.383609570867709"><ele>263.75</ele><time>2026-04-08T08:14:18.999Z</time></trkpt><trkpt lat="43.179548086754835" lon="11.383676645961094"><ele>263.0</ele><time>2026-04-08T08:14:19.999Z</time></trkpt><trkpt lat="43.17940649223747" lon="11.38372501629945"><ele>263.0</ele><time>2026-04-08T08:14:20.999Z</time></trkpt><trkpt lat="43.17927423846342" lon="11.383796442325231"><ele>263.0</ele><time>2026-04-08T08:14:21.999Z</time></trkpt><trkpt lat="43.17915064530861" lon="11.383861593146555"><ele>263.0</ele><time>2026-04-08T08:14:22.999Z</time></trkpt><trkpt lat="43.179026664221674" lon="11.38392788228279"><ele>263.0</ele><time>2026-04-08T08:14:23.999Z</time></trkpt><trkpt lat="43.178898417227494" lon="11.384004838556628"><ele>264.5</ele><time>2026-04-08T08:14:24.999Z</time></trkpt><trkpt lat="43.17877967470455" lon="11.384100126650774"><ele>266.0</ele><time>2026-04-08T08:14:25.999Z</time></trkpt><trkpt lat="43.17866121441189" lon="11.384221713795858"><ele>267.5</ele><time>2026-04-08T08:14:26.999Z</time></trkpt><trkpt lat="43.17854872510162" lon="11.384357872584438"><ele>269.0</ele><time>2026-04-08T08:14:27.999Z</time></trkpt><trkpt lat="43.178438030220036" lon="11.384503087494952"><ele>269.0</ele><time>2026-04-08T08:14:28.999Z</time></trkpt><trkpt lat="43.17832984242462" lon="11.384642004700654"><ele>269.0</ele><time>2026-04-08T08:14:29.999Z</time></trkpt><trkpt lat="43.17823189032194" lon="11.384758293417072"><ele>269.0</ele><time>2026-04-08T08:14:30.999Z</time></trkpt><trkpt lat="43.1781268216592" lon="11.384862984131797"><ele>269.0</ele><time>2026-04-08T08:14:31.999Z</time></trkpt><trkpt lat="43.17801547973893" lon="11.384958787409929"><ele>269.0</ele><time>2026-04-08T08:14:32.999Z</time></trkpt><trkpt lat="43.17789349457831" lon="11.385056821560228"><ele>269.0</ele><time>2026-04-08T08:14:33.999Z</time></trkpt><trkpt lat="43.17779192764274" lon="11.385156682516403"><ele>269.0</ele><time>2026-04-08T08:14:34.999Z</time></trkpt><trkpt lat="43.17769059908497" lon="11.385237537316915"><ele>269.0</ele><time>2026-04-08T08:14:35.999Z</time></trkpt><trkpt lat="43.17758565418018" lon="11.385330189922533"><ele>269.0</ele><time>2026-04-08T08:14:36.999Z</time></trkpt><trkpt lat="43.17747805793102" lon="11.385424021704297"><ele>269.0</ele><time>2026-04-08T08:14:37.999Z</time></trkpt><trkpt lat="43.17739303583404" lon="11.385532187004888"><ele>269.0</ele><time>2026-04-08T08:14:38.999Z</time></trkpt><trkpt lat="43.17730756451804" lon="11.385666104881906"><ele>269.0</ele><time>2026-04-08T08:14:39.999Z</time></trkpt><trkpt lat="43.177230135678094" lon="11.385823650945655"><ele>269.75</ele><time>2026-04-08T08:14:40.999Z</time></trkpt><trkpt lat="43.17716426137619" lon="11.385968373043163"><ele>270.5</ele><time>2026-04-08T08:14:41.999Z</time></trkpt><trkpt lat="43.1771024416242" lon="11.386107401424113"><ele>271.25</ele><time>2026-04-08T08:14:42.999Z</time></trkpt><trkpt lat="43.17704921361316" lon="11.386241389699583"><ele>272.0</ele><time>2026-04-08T08:14:43.999Z</time></trkpt><trkpt lat="43.176996971158125" lon="11.386370667939328"><ele>272.0</ele><time>2026-04-08T08:14:44.999Z</time></trkpt><trkpt lat="43.176943896273556" lon="11.386497748402206"><ele>272.0</ele><time>2026-04-08T08:14:45.999Z</time></trkpt><trkpt lat="43.17688867065723" lon="11.386634811749188"><ele>272.0</ele><time>2026-04-08T08:14:46.999Z</time></trkpt><trkpt lat="43.17682541685293" lon="11.386790103854839"><ele>272.0</ele><time>2026-04-08T08:14:47.999Z</time></trkpt><trkpt lat="43.17675761107538" lon="11.386964490023772"><ele>272.0</ele><time>2026-04-08T08:14:48.999Z</time></trkpt><trkpt lat="43.17668356933226" lon="11.387137955034124"><ele>272.0</ele><time>2026-04-08T08:14:49.999Z</time></trkpt><trkpt lat="43.17660817199312" lon="11.387324318218813"><ele>272.0</ele><time>2026-04-08T08:14:50.999Z</time></trkpt><trkpt lat="43.17652826167985" lon="11.387525316525192"><ele>272.6666666666667</ele><time>2026-04-08T08:14:51.999Z</time></trkpt><trkpt lat="43.17644378359542" lon="11.387696245299967"><ele>273.3333333333333</ele><time>2026-04-08T08:14:52.999Z</time></trkpt><trkpt lat="43.17634635637419" lon="11.387856095418288"><ele>274.0</ele><time>2026-04-08T08:14:53.999Z</time></trkpt><trkpt lat="43.17623057434274" lon="11.388014372703628"><ele>274.0</ele><time>2026-04-08T08:14:54.999Z</time></trkpt><trkpt lat="43.17609122333476" lon="11.38815992488063"><ele>274.0</ele><time>2026-04-08T08:14:55.999Z</time></trkpt><trkpt lat="43.175937682238875" lon="11.388279852420975"><ele>274.0</ele><time>2026-04-08T08:14:56.999Z</time></trkpt><trkpt lat="43.17577250557235" lon="11.388375686854623"><ele>273.66666666666663</ele><time>2026-04-08T08:14:57.999Z</time></trkpt><trkpt lat="43.17561048947016" lon="11.388449439227902"><ele>273.3333333333333</ele><time>2026-04-08T08:14:58.999Z</time></trkpt><trkpt lat="43.175463136733136" lon="11.388516371240767"><ele>273.0</ele><time>2026-04-08T08:14:59.999Z</time></trkpt><trkpt lat="43.17531306546963" lon="11.388578266063258"><ele>273.0</ele><time>2026-04-08T08:15:00.999Z</time></trkpt><trkpt lat="43.17517132384118" lon="11.388646080149"><ele>273.0</ele><time>2026-04-08T08:15:01.999Z</time></trkpt><trkpt lat="43.17501777611291" lon="11.388714693003047"><ele>273.0</ele><time>2026-04-08T08:15:02.999Z</time></trkpt><trkpt lat="43.174862194821564" lon="11.38878640916076"><ele>275.0</ele><time>2026-04-08T08:15:03.999Z</time></trkpt><trkpt lat="43.174702168621444" lon="11.388857542634623"><ele>277.0</ele><time>2026-04-08T08:15:04.999Z</time></trkpt><trkpt lat="43.17455354254626" lon="11.388920012406059"><ele>279.0</ele><time>2026-04-08T08:15:05.999Z</time></trkpt><trkpt lat="43.174423153326885" lon="11.388977517363953"><ele>279.0</ele><time>2026-04-08T08:15:06.999Z</time></trkpt><trkpt lat="43.1743043417867" lon="11.389029052947052"><ele>279.0</ele><time>2026-04-08T08:15:07.999Z</time></trkpt><trkpt lat="43.17418244602683" lon="11.389085353710225"><ele>279.0</ele><time>2026-04-08T08:15:08.999Z</time></trkpt><trkpt lat="43.174055494699466" lon="11.389163199590842"><ele>279.0</ele><time>2026-04-08T08:15:09.999Z</time></trkpt><trkpt lat="43.1739323066211" lon="11.389271158547938"><ele>280.75</ele><time>2026-04-08T08:15:11Z</time></trkpt><trkpt lat="43.17381873454764" lon="11.38939672687528"><ele>282.5</ele><time>2026-04-08T08:15:12Z</time></trkpt><trkpt lat="43.17372986200884" lon="11.38952166630555"><ele>284.25</ele><time>2026-04-08T08:15:13Z</time></trkpt><trkpt lat="43.17365899077221" lon="11.389646025704783"><ele>286.0</ele><time>2026-04-08T08:15:14Z</time></trkpt><trkpt lat="43.1735894826201" lon="11.389770352539072"><ele>286.0</ele><time>2026-04-08T08:15:15Z</time></trkpt><trkpt lat="43.17351313650592" lon="11.389893502867096"><ele>286.0</ele><time>2026-04-08T08:15:16Z</time></trkpt><trkpt lat="43.17343616255077" lon="11.390015170206398"><ele>286.0</ele><time>2026-04-08T08:15:17Z</time></trkpt><trkpt lat="43.17335906945397" lon="11.390140226461355"><ele>286.0</ele><time>2026-04-08T08:15:18Z</time></trkpt><trkpt lat="43.17328741494041" lon="11.390259001900816"><ele>286.0</ele><time>2026-04-08T08:15:19Z</time></trkpt><trkpt lat="43.17322812571668" lon="11.390348271701706"><ele>286.0</ele><time>2026-04-08T08:15:20Z</time></trkpt><trkpt lat="43.17317625423463" lon="11.390428252169892"><ele>286.0</ele><time>2026-04-08T08:15:21Z</time></trkpt><trkpt lat="43.17310803838428" lon="11.390520448664898"><ele>286.0</ele><time>2026-04-08T08:15:22Z</time></trkpt><trkpt lat="43.1730117012402" lon="11.39060406320319"><ele>286.0</ele><time>2026-04-08T08:15:23Z</time></trkpt><trkpt lat="43.17290756155392" lon="11.390692477312308"><ele>289.0</ele><time>2026-04-08T08:15:24Z</time></trkpt><trkpt lat="43.17277497577156" lon="11.39076091094836"><ele>292.0</ele><time>2026-04-08T08:15:25Z</time></trkpt><trkpt lat="43.17264202726456" lon="11.390827459101654"><ele>295.0</ele><time>2026-04-08T08:15:26Z</time></trkpt><trkpt lat="43.17253524268523" lon="11.390903338567364"><ele>298.0</ele><time>2026-04-08T08:15:27Z</time></trkpt><trkpt lat="43.17243217317863" lon="11.390942313091612"><ele>299.4</ele><time>2026-04-08T08:15:28Z</time></trkpt><trkpt lat="43.172337233539835" lon="11.390991883913623"><ele>300.8</ele><time>2026-04-08T08:15:29Z</time></trkpt><trkpt lat="43.17224314359408" lon="11.39102806948703"><ele>302.2</ele><time>2026-04-08T08:15:30Z</time></trkpt><trkpt lat="43.172134480129216" lon="11.391092955365838"><ele>303.6</ele><time>2026-04-08T08:15:31Z</time></trkpt><trkpt lat="43.17202130351877" lon="11.391147124876204"><ele>305.0</ele><time>2026-04-08T08:15:32Z</time></trkpt><trkpt lat="43.17192437618708" lon="11.391184562812422"><ele>305.0</ele><time>2026-04-08T08:15:33Z</time></trkpt><trkpt lat="43.17184754780094" lon="11.39122804324276"><ele>305.0</ele><time>2026-04-08T08:15:34Z</time></trkpt><trkpt lat="43.17175382121223" lon="11.391261724820408"><ele>305.0</ele><time>2026-04-08T08:15:35Z</time></trkpt><trkpt lat="43.17166056059103" lon="11.391290444436512"><ele>305.0</ele><time>2026-04-08T08:15:36Z</time></trkpt><trkpt lat="43.17158027400832" lon="11.391314203278453"><ele>305.0</ele><time>2026-04-08T08:15:37Z</time></trkpt><trkpt lat="43.17150167184221" lon="11.391324847439277"><ele>305.0</ele><time>2026-04-08T08:15:38Z</time></trkpt><trkpt lat="43.17143006738362" lon="11.391325254926473"><ele>304.4</ele><time>2026-04-08T08:15:39Z</time></trkpt><trkpt lat="43.17135433248312" lon="11.391323937901223"><ele>303.8</ele><time>2026-04-08T08:15:40Z</time></trkpt><trkpt lat="43.171272137896224" lon="11.391320159879871"><ele>303.2</ele><time>2026-04-08T08:15:41Z</time></trkpt><trkpt lat="43.171181941753105" lon="11.391299657690988"><ele>302.6</ele><time>2026-04-08T08:15:42Z</time></trkpt><trkpt lat="43.17108620582629" lon="11.39125707265991"><ele>302.0</ele><time>2026-04-08T08:15:43Z</time></trkpt><trkpt lat="43.17098851814295" lon="11.391193843479718"><ele>302.0</ele><time>2026-04-08T08:15:44Z</time></trkpt><trkpt lat="43.17091018149608" lon="11.391138842710081"><ele>302.0</ele><time>2026-04-08T08:15:45Z</time></trkpt><trkpt lat="43.17084179038263" lon="11.391097770923434"><ele>302.0</ele><time>2026-04-08T08:15:46Z</time></trkpt><trkpt lat="43.170760093182665" lon="11.391056554873346"><ele>302.0</ele><time>2026-04-08T08:15:47Z</time></trkpt><trkpt lat="43.1706730256815" lon="11.391008940339566"><ele>302.0</ele><time>2026-04-08T08:15:48Z</time></trkpt><trkpt lat="43.17059881934267" lon="11.390970527220572"><ele>302.0</ele><time>2026-04-08T08:15:49Z</time></trkpt><trkpt lat="43.17052006513145" lon="11.390926865056404"><ele>302.0</ele><time>2026-04-08T08:15:50Z</time></trkpt><trkpt lat="43.17044219106478" lon="11.390873622019178"><ele>302.0</ele><time>2026-04-08T08:15:51Z</time></trkpt><trkpt lat="43.17036182122357" lon="11.390810637770054"><ele>302.0</ele><time>2026-04-08T08:15:52Z</time></trkpt><trkpt lat="43.17027642598761" lon="11.390743479631032"><ele>302.0</ele><time>2026-04-08T08:15:53Z</time></trkpt><trkpt lat="43.17018779853764" lon="11.390674804750823"><ele>302.0</ele><time>2026-04-08T08:15:54Z</time></trkpt><trkpt lat="43.17010061041019" lon="11.390607346299914"><ele>302.0</ele><time>2026-04-08T08:15:55Z</time></trkpt><trkpt lat="43.17000688915885" lon="11.39052831106618"><ele>302.0</ele><time>2026-04-08T08:15:56Z</time></trkpt><trkpt lat="43.16990454013862" lon="11.390442097129137"><ele>302.0</ele><time>2026-04-08T08:15:57Z</time></trkpt><trkpt lat="43.169796379973235" lon="11.3903538374088"><ele>302.0</ele><time>2026-04-08T08:15:58Z</time></trkpt><trkpt lat="43.16968075451233" lon="11.39026725519464"><ele>299.0</ele><time>2026-04-08T08:15:59Z</time></trkpt><trkpt lat="43.16957002762495" lon="11.390197478367751"><ele>296.0</ele><time>2026-04-08T08:16:00Z</time></trkpt><trkpt lat="43.16946619302927" lon="11.390140848177513"><ele>293.0</ele><time>2026-04-08T08:16:01Z</time></trkpt><trkpt lat="43.169360066471775" lon="11.390092769032837"><ele>290.0</ele><time>2026-04-08T08:16:02Z</time></trkpt><trkpt lat="43.169254548498564" lon="11.390056898322104"><ele>290.0</ele><time>2026-04-08T08:16:03Z</time></trkpt><trkpt lat="43.16914690700769" lon="11.39003246700798"><ele>290.0</ele><time>2026-04-08T08:16:04Z</time></trkpt><trkpt lat="43.16903882955249" lon="11.390014832089237"><ele>290.0</ele><time>2026-04-08T08:16:05Z</time></trkpt><trkpt lat="43.16894200464936" lon="11.390000220800992"><ele>290.0</ele><time>2026-04-08T08:16:06Z</time></trkpt><trkpt lat="43.16884992850731" lon="11.38998919892211"><ele>290.0</ele><time>2026-04-08T08:16:07Z</time></trkpt><trkpt lat="43.16875767196202" lon="11.38998121674762"><ele>287.8</ele><time>2026-04-08T08:16:08Z</time></trkpt><trkpt lat="43.168661198901745" lon="11.389972548303337"><ele>285.6</ele><time>2026-04-08T08:16:09Z</time></trkpt><trkpt lat="43.168558218548085" lon="11.389963809675907"><ele>283.4</ele><time>2026-04-08T08:16:10Z</time></trkpt><trkpt lat="43.16846280549689" lon="11.389956800752572"><ele>281.2</ele><time>2026-04-08T08:16:11Z</time></trkpt><trkpt lat="43.16836314862058" lon="11.389942322310953"><ele>279.0</ele><time>2026-04-08T08:16:12Z</time></trkpt><trkpt lat="43.16825294303411" lon="11.38993175228659"><ele>277.8</ele><time>2026-04-08T08:16:13Z</time></trkpt><trkpt lat="43.1681400910599" lon="11.389924206083824"><ele>276.59999999999997</ele><time>2026-04-08T08:16:14Z</time></trkpt><trkpt lat="43.16803500612277" lon="11.389913991568067"><ele>275.4</ele><time>2026-04-08T08:16:15Z</time></trkpt><trkpt lat="43.1679347958951" lon="11.389906526382477"><ele>274.2</ele><time>2026-04-08T08:16:16Z</time></trkpt><trkpt lat="43.167840256999675" lon="11.389900479044291"><ele>273.0</ele><time>2026-04-08T08:16:17Z</time></trkpt><trkpt lat="43.1677288689463" lon="11.389895709939532"><ele>273.0</ele><time>2026-04-08T08:16:17.999Z</time></trkpt><trkpt lat="43.16760009175228" lon="11.389885593876178"><ele>273.0</ele><time>2026-04-08T08:16:18.999Z</time></trkpt><trkpt lat="43.16749691000349" lon="11.389875001591474"><ele>273.0</ele><time>2026-04-08T08:16:19.999Z</time></trkpt><trkpt lat="43.16739446636512" lon="11.389868483851508"><ele>273.0</ele><time>2026-04-08T08:16:20.999Z</time></trkpt><trkpt lat="43.16730276023453" lon="11.389865057025357"><ele>273.0</ele><time>2026-04-08T08:16:21.999Z</time></trkpt><trkpt lat="43.16719300018998" lon="11.389858093115954"><ele>273.25</ele><time>2026-04-08T08:16:22.999Z</time></trkpt><trkpt lat="43.167075156441854" lon="11.389861142327106"><ele>273.5</ele><time>2026-04-08T08:16:23.999Z</time></trkpt><trkpt lat="43.166960592392826" lon="11.389880300409423"><ele>273.75</ele><time>2026-04-08T08:16:24.999Z</time></trkpt><trkpt lat="43.16684927623566" lon="11.389889393807838"><ele>274.0</ele><time>2026-04-08T08:16:25.999Z</time></trkpt><trkpt lat="43.1667476229377" lon="11.389938063966778"><ele>274.0</ele><time>2026-04-08T08:16:26.999Z</time></trkpt><trkpt lat="43.16664681605618" lon="11.390008523272906"><ele>274.0</ele><time>2026-04-08T08:16:27.999Z</time></trkpt><trkpt lat="43.166548891109024" lon="11.390096635280345"><ele>274.0</ele><time>2026-04-08T08:16:28.999Z</time></trkpt><trkpt lat="43.16646629448597" lon="11.390196092435371"><ele>274.0</ele><time>2026-04-08T08:16:29.999Z</time></trkpt><trkpt lat="43.166399125090166" lon="11.390296707519905"><ele>274.0</ele><time>2026-04-08T08:16:30.999Z</time></trkpt><trkpt lat="43.16633600301977" lon="11.390399557622532"><ele>274.5</ele><time>2026-04-08T08:16:31.999Z</time></trkpt><trkpt lat="43.16627204891153" lon="11.390499412454444"><ele>275.0</ele><time>2026-04-08T08:16:32.999Z</time></trkpt><trkpt lat="43.16622584577858" lon="11.390586326593516"><ele>275.5</ele><time>2026-04-08T08:16:33.999Z</time></trkpt><trkpt lat="43.16616713725286" lon="11.390627835299213"><ele>276.0</ele><time>2026-04-08T08:16:34.999Z</time></trkpt><trkpt lat="43.166096443222465" lon="11.390667798759118"><ele>276.5</ele><time>2026-04-08T08:16:35.999Z</time></trkpt><trkpt lat="43.16601042472444" lon="11.390718323374626"><ele>277.0</ele><time>2026-04-08T08:16:36.999Z</time></trkpt><trkpt lat="43.16591254079441" lon="11.390771626529157"><ele>276.25</ele><time>2026-04-08T08:16:37.999Z</time></trkpt><trkpt lat="43.16580763913214" lon="11.390815187240072"><ele>275.5</ele><time>2026-04-08T08:16:38.999Z</time></trkpt><trkpt lat="43.16569357184469" lon="11.390855728644617"><ele>274.75</ele><time>2026-04-08T08:16:39.999Z</time></trkpt><trkpt lat="43.1655703357572" lon="11.390875591184777"><ele>274.0</ele><time>2026-04-08T08:16:40.999Z</time></trkpt><trkpt lat="43.16545798527264" lon="11.390906549316325"><ele>274.0</ele><time>2026-04-08T08:16:41.999Z</time></trkpt><trkpt lat="43.16534049558682" lon="11.390959191177254"><ele>274.0</ele><time>2026-04-08T08:16:42.999Z</time></trkpt><trkpt lat="43.1652064630275" lon="11.390993257927377"><ele>274.0</ele><time>2026-04-08T08:16:43.999Z</time></trkpt><trkpt lat="43.165071453372995" lon="11.391029158616183"><ele>274.0</ele><time>2026-04-08T08:16:44.999Z</time></trkpt><trkpt lat="43.16492920899227" lon="11.391067227461091"><ele>274.25</ele><time>2026-04-08T08:16:45.999Z</time></trkpt><trkpt lat="43.164788830067636" lon="11.391101895191326"><ele>274.5</ele><time>2026-04-08T08:16:46.999Z</time></trkpt><trkpt lat="43.1646632261575" lon="11.391130987723017"><ele>274.75</ele><time>2026-04-08T08:16:47.999Z</time></trkpt><trkpt lat="43.16453401437134" lon="11.391157682822387"><ele>275.0</ele><time>2026-04-08T08:16:48.999Z</time></trkpt><trkpt lat="43.16440357022665" lon="11.39119012903818"><ele>275.0</ele><time>2026-04-08T08:16:49.999Z</time></trkpt><trkpt lat="43.16426977418888" lon="11.391222280023097"><ele>275.0</ele><time>2026-04-08T08:16:50.999Z</time></trkpt><trkpt lat="43.16413552162904" lon="11.391257716108575"><ele>275.0</ele><time>2026-04-08T08:16:51.999Z</time></trkpt><trkpt lat="43.16399794928021" lon="11.391294941376021"><ele>275.0</ele><time>2026-04-08T08:16:52.999Z</time></trkpt><trkpt lat="43.16386016226878" lon="11.391331746066808"><ele>275.5</ele><time>2026-04-08T08:16:53.999Z</time></trkpt><trkpt lat="43.163718040168526" lon="11.391361861092301"><ele>276.0</ele><time>2026-04-08T08:16:54.999Z</time></trkpt><trkpt lat="43.16357275862878" lon="11.391391905737684"><ele>276.5</ele><time>2026-04-08T08:16:55.999Z</time></trkpt><trkpt lat="43.16342858347276" lon="11.391438447352371"><ele>277.0</ele><time>2026-04-08T08:16:56.999Z</time></trkpt><trkpt lat="43.16328190820136" lon="11.391475182015387"><ele>278.25</ele><time>2026-04-08T08:16:57.999Z</time></trkpt><trkpt lat="43.16313307919594" lon="11.391514824476781"><ele>279.5</ele><time>2026-04-08T08:16:58.999Z</time></trkpt><trkpt lat="43.162983216849724" lon="11.391545624526604"><ele>280.75</ele><time>2026-04-08T08:16:59.999Z</time></trkpt><trkpt lat="43.162844862511555" lon="11.391576427877366"><ele>282.0</ele><time>2026-04-08T08:17:00.999Z</time></trkpt><trkpt lat="43.16272841453298" lon="11.391599196124478"><ele>282.0</ele><time>2026-04-08T08:17:01.999Z</time></trkpt><trkpt lat="43.162618369154075" lon="11.391611806404057"><ele>282.0</ele><time>2026-04-08T08:17:02.999Z</time></trkpt><trkpt lat="43.16249845175743" lon="11.391624656608395"><ele>282.0</ele><time>2026-04-08T08:17:03.999Z</time></trkpt><trkpt lat="43.16237627024307" lon="11.391640735740522"><ele>282.0</ele><time>2026-04-08T08:17:04.999Z</time></trkpt><trkpt lat="43.162268721790845" lon="11.391654519705584"><ele>282.8</ele><time>2026-04-08T08:17:05.999Z</time></trkpt><trkpt lat="43.162158200535416" lon="11.391672602503084"><ele>283.6</ele><time>2026-04-08T08:17:06.999Z</time></trkpt><trkpt lat="43.16204669420041" lon="11.3917043852916"><ele>284.40000000000003</ele><time>2026-04-08T08:17:07.999Z</time></trkpt><trkpt lat="43.16195044112331" lon="11.391746797864522"><ele>285.2</ele><time>2026-04-08T08:17:08.999Z</time></trkpt><trkpt lat="43.16186433972939" lon="11.391808308837764"><ele>286.0</ele><time>2026-04-08T08:17:09.999Z</time></trkpt><trkpt lat="43.161793267985395" lon="11.391891849355495"><ele>286.0</ele><time>2026-04-08T08:17:10.999Z</time></trkpt><trkpt lat="43.161721657369256" lon="11.3919936821863"><ele>286.0</ele><time>2026-04-08T08:17:11.999Z</time></trkpt><trkpt lat="43.16166697367358" lon="11.392142391292248"><ele>286.0</ele><time>2026-04-08T08:17:12.999Z</time></trkpt><trkpt lat="43.16162178789009" lon="11.392297710914088"><ele>286.0</ele><time>2026-04-08T08:17:13.999Z</time></trkpt><trkpt lat="43.161574563308626" lon="11.392464625336693"><ele>284.25</ele><time>2026-04-08T08:17:14.999Z</time></trkpt><trkpt lat="43.16152776602523" lon="11.392622525921405"><ele>282.5</ele><time>2026-04-08T08:17:15.999Z</time></trkpt><trkpt lat="43.16148628378343" lon="11.392777910769944"><ele>280.75</ele><time>2026-04-08T08:17:17Z</time></trkpt><trkpt lat="43.1613972559444" lon="11.392907377386795"><ele>279.0</ele><time>2026-04-08T08:17:18Z</time></trkpt><trkpt lat="43.161285468054594" lon="11.393015148432244"><ele>279.0</ele><time>2026-04-08T08:17:19Z</time></trkpt><trkpt lat="43.161152447967176" lon="11.39309834779784"><ele>279.0</ele><time>2026-04-08T08:17:20Z</time></trkpt><trkpt lat="43.16100617395946" lon="11.393165316729437"><ele>279.0</ele><time>2026-04-08T08:17:21Z</time></trkpt><trkpt lat="43.1608506513415" lon="11.393236554650953"><ele>278.3333333333333</ele><time>2026-04-08T08:17:22Z</time></trkpt><trkpt lat="43.160695210077684" lon="11.393285032753955"><ele>277.66666666666663</ele><time>2026-04-08T08:17:23Z</time></trkpt><trkpt lat="43.160552305880024" lon="11.393344415482753"><ele>277.0</ele><time>2026-04-08T08:17:24Z</time></trkpt><trkpt lat="43.16040874259017" lon="11.393404099570605"><ele>277.0</ele><time>2026-04-08T08:17:25Z</time></trkpt><trkpt lat="43.160305312334174" lon="11.393447977157788"><ele>277.0</ele><time>2026-04-08T08:17:26Z</time></trkpt><trkpt lat="43.16019269434416" lon="11.393496352185267"><ele>277.0</ele><time>2026-04-08T08:17:27Z</time></trkpt><trkpt lat="43.16008181164548" lon="11.393546918597178"><ele>277.0</ele><time>2026-04-08T08:17:28Z</time></trkpt><trkpt lat="43.15996301601261" lon="11.393605555632984"><ele>276.75</ele><time>2026-04-08T08:17:29Z</time></trkpt><trkpt lat="43.15984069920839" lon="11.39367343444056"><ele>276.5</ele><time>2026-04-08T08:17:30Z</time></trkpt><trkpt lat="43.1597160261702" lon="11.3937735706838"><ele>276.25</ele><time>2026-04-08T08:17:31Z</time></trkpt><trkpt lat="43.159582779159486" lon="11.393857451587918"><ele>276.0</ele><time>2026-04-08T08:17:32Z</time></trkpt><trkpt lat="43.159450950172356" lon="11.393960787062742"><ele>276.0</ele><time>2026-04-08T08:17:33Z</time></trkpt><trkpt lat="43.15934047126731" lon="11.394068571465487"><ele>276.0</ele><time>2026-04-08T08:17:34Z</time></trkpt><trkpt lat="43.15924855634229" lon="11.394187822061369"><ele>276.0</ele><time>2026-04-08T08:17:35Z</time></trkpt><trkpt lat="43.15915597925846" lon="11.394306934299907"><ele>276.0</ele><time>2026-04-08T08:17:36Z</time></trkpt><trkpt lat="43.15905472721664" lon="11.394441774677645"><ele>277.0</ele><time>2026-04-08T08:17:37Z</time></trkpt><trkpt lat="43.158962953508436" lon="11.39458380610119"><ele>278.0</ele><time>2026-04-08T08:17:38Z</time></trkpt><trkpt lat="43.15887302431343" lon="11.394747884094025"><ele>279.0</ele><time>2026-04-08T08:17:39Z</time></trkpt><trkpt lat="43.15878916848873" lon="11.394936964585963"><ele>279.0</ele><time>2026-04-08T08:17:40Z</time></trkpt><trkpt lat="43.158723931457885" lon="11.395139394575018"><ele>279.0</ele><time>2026-04-08T08:17:41Z</time></trkpt><trkpt lat="43.15868784062521" lon="11.395333841593871"><ele>279.0</ele><time>2026-04-08T08:17:42Z</time></trkpt><trkpt lat="43.1586699211116" lon="11.39553439073226"><ele>279.0</ele><time>2026-04-08T08:17:43Z</time></trkpt><trkpt lat="43.15866408231676" lon="11.395751754370986"><ele>279.0</ele><time>2026-04-08T08:17:44Z</time></trkpt><trkpt lat="43.158667778813424" lon="11.395980910757777"><ele>279.0</ele><time>2026-04-08T08:17:45Z</time></trkpt><trkpt lat="43.15867082334306" lon="11.396215871938171"><ele>279.3333333333333</ele><time>2026-04-08T08:17:46Z</time></trkpt><trkpt lat="43.15867254384774" lon="11.396459891752158"><ele>279.66666666666663</ele><time>2026-04-08T08:17:47Z</time></trkpt><trkpt lat="43.15867043650128" lon="11.396711393480505"><ele>280.0</ele><time>2026-04-08T08:17:48Z</time></trkpt><trkpt lat="43.158666017287274" lon="11.396948546001296"><ele>280.0</ele><time>2026-04-08T08:17:49Z</time></trkpt><trkpt lat="43.15866273913019" lon="11.397144361443262"><ele>280.0</ele><time>2026-04-08T08:17:50Z</time></trkpt><trkpt lat="43.158665295835156" lon="11.397330877784913"><ele>280.0</ele><time>2026-04-08T08:17:51Z</time></trkpt><trkpt lat="43.158654182214185" lon="11.397513099873837"><ele>280.0</ele><time>2026-04-08T08:17:52Z</time></trkpt><trkpt lat="43.15867387460581" lon="11.397726201647341"><ele>280.0</ele><time>2026-04-08T08:17:53Z</time></trkpt><trkpt lat="43.15869372405943" lon="11.397946756064933"><ele>280.0</ele><time>2026-04-08T08:17:54Z</time></trkpt><trkpt lat="43.15873529955608" lon="11.39817169432311"><ele>280.0</ele><time>2026-04-08T08:17:55Z</time></trkpt><trkpt lat="43.158794161967876" lon="11.39840347587259"><ele>280.5</ele><time>2026-04-08T08:17:56Z</time></trkpt><trkpt lat="43.15885081425718" lon="11.398631144064161"><ele>281.0</ele><time>2026-04-08T08:17:57Z</time></trkpt><trkpt lat="43.158890240429244" lon="11.398865977336149"><ele>281.5</ele><time>2026-04-08T08:17:58Z</time></trkpt><trkpt lat="43.158907002235225" lon="11.398989463976244"><ele>282.0</ele><time>2026-04-08T08:17:59Z</time></trkpt><trkpt lat="43.15891481903898" lon="11.39915215930413"><ele>282.4</ele><time>2026-04-08T08:18:00Z</time></trkpt><trkpt lat="43.158901585040155" lon="11.399324845618146"><ele>282.79999999999995</ele><time>2026-04-08T08:18:01Z</time></trkpt><trkpt lat="43.158864791776345" lon="11.399460166081367"><ele>283.2</ele><time>2026-04-08T08:18:02Z</time></trkpt><trkpt lat="43.1588033774034" lon="11.399555622912494"><ele>283.59999999999997</ele><time>2026-04-08T08:18:03Z</time></trkpt><trkpt lat="43.15873122428069" lon="11.39961792363327"><ele>284.0</ele><time>2026-04-08T08:18:04Z</time></trkpt><trkpt lat="43.15863241754855" lon="11.399652109684938"><ele>284.0</ele><time>2026-04-08T08:18:05Z</time></trkpt><trkpt lat="43.15852199164052" lon="11.399628840684667"><ele>284.0</ele><time>2026-04-08T08:18:06Z</time></trkpt><trkpt lat="43.15837075774999" lon="11.399610410471203"><ele>284.0</ele><time>2026-04-08T08:18:07Z</time></trkpt><trkpt lat="43.15820302893334" lon="11.399628166322104"><ele>284.0</ele><time>2026-04-08T08:18:08Z</time></trkpt><trkpt lat="43.15803901295531" lon="11.399655688483366"><ele>286.0</ele><time>2026-04-08T08:18:09Z</time></trkpt><trkpt lat="43.15789804102595" lon="11.399727810212855"><ele>288.0</ele><time>2026-04-08T08:18:10Z</time></trkpt><trkpt lat="43.157765847988486" lon="11.399839063143416"><ele>290.0</ele><time>2026-04-08T08:18:11Z</time></trkpt><trkpt lat="43.15763474397716" lon="11.399982870142644"><ele>290.0</ele><time>2026-04-08T08:18:12Z</time></trkpt><trkpt lat="43.15747763277996" lon="11.40009227770464"><ele>290.0</ele><time>2026-04-08T08:18:13Z</time></trkpt><trkpt lat="43.15732536071947" lon="11.400159703103776"><ele>290.0</ele><time>2026-04-08T08:18:14Z</time></trkpt><trkpt lat="43.15717953673395" lon="11.4001830069809"><ele>291.0</ele><time>2026-04-08T08:18:15Z</time></trkpt><trkpt lat="43.157043844969735" lon="11.400146994038332"><ele>292.0</ele><time>2026-04-08T08:18:16Z</time></trkpt><trkpt lat="43.156887989089064" lon="11.400096320980273"><ele>293.0</ele><time>2026-04-08T08:18:17Z</time></trkpt><trkpt lat="43.15674412829371" lon="11.400056986525327"><ele>294.0</ele><time>2026-04-08T08:18:18Z</time></trkpt><trkpt lat="43.15662559913955" lon="11.399997713955617"><ele>296.59999999999997</ele><time>2026-04-08T08:18:19Z</time></trkpt><trkpt lat="43.156520749087065" lon="11.399980952109958"><ele>299.2</ele><time>2026-04-08T08:18:20Z</time></trkpt><trkpt lat="43.15641774321901" lon="11.39999793835651"><ele>301.79999999999995</ele><time>2026-04-08T08:18:21Z</time></trkpt><trkpt lat="43.15633660999795" lon="11.400071083660352"><ele>304.4</ele><time>2026-04-08T08:18:22Z</time></trkpt><trkpt lat="43.15626910461287" lon="11.400159924269987"><ele>307.0</ele><time>2026-04-08T08:18:23Z</time></trkpt><trkpt lat="43.15626016246978" lon="11.400336912480778"><ele>307.25</ele><time>2026-04-08T08:18:24Z</time></trkpt><trkpt lat="43.15627923521661" lon="11.400502432999076"><ele>307.5</ele><time>2026-04-08T08:18:24.999Z</time></trkpt><trkpt lat="43.15633172709633" lon="11.400666466669685"><ele>307.75</ele><time>2026-04-08T08:18:25.999Z</time></trkpt><trkpt lat="43.15642132327504" lon="11.400833868455548"><ele>308.0</ele><time>2026-04-08T08:18:26.999Z</time></trkpt><trkpt lat="43.156525594116985" lon="11.401013282797996"><ele>302.75</ele><time>2026-04-08T08:18:27.999Z</time></trkpt><trkpt lat="43.156606995847774" lon="11.40119255172409"><ele>297.5</ele><time>2026-04-08T08:18:28.999Z</time></trkpt><trkpt lat="43.15666961878923" lon="11.401357749017693"><ele>292.25</ele><time>2026-04-08T08:18:29.999Z</time></trkpt><trkpt lat="43.15671217816131" lon="11.401523035513105"><ele>287.0</ele><time>2026-04-08T08:18:30.999Z</time></trkpt><trkpt lat="43.15669694845162" lon="11.401689344204533"><ele>286.5</ele><time>2026-04-08T08:18:31.999Z</time></trkpt><trkpt lat="43.156680116612044" lon="11.401853456544915"><ele>286.0</ele><time>2026-04-08T08:18:32.999Z</time></trkpt><trkpt lat="43.15664942273344" lon="11.402036118464865"><ele>285.5</ele><time>2026-04-08T08:18:33.999Z</time></trkpt><trkpt lat="43.15661614780719" lon="11.402246295682717"><ele>285.0</ele><time>2026-04-08T08:18:34.999Z</time></trkpt><trkpt lat="43.156578820179384" lon="11.402450166733372"><ele>284.5</ele><time>2026-04-08T08:18:35.999Z</time></trkpt><trkpt lat="43.15655080872632" lon="11.402636261086199"><ele>284.0</ele><time>2026-04-08T08:18:36.999Z</time></trkpt><trkpt lat="43.156527914069514" lon="11.402828321584376"><ele>283.5</ele><time>2026-04-08T08:18:37.999Z</time></trkpt><trkpt lat="43.15649551034408" lon="11.403032008434904"><ele>283.0</ele><time>2026-04-08T08:18:38.999Z</time></trkpt><trkpt lat="43.15646836583888" lon="11.403227944001479"><ele>285.25</ele><time>2026-04-08T08:18:39.999Z</time></trkpt><trkpt lat="43.156451289035346" lon="11.403411809462884"><ele>287.5</ele><time>2026-04-08T08:18:40.999Z</time></trkpt><trkpt lat="43.15643561914017" lon="11.403599477653241"><ele>289.75</ele><time>2026-04-08T08:18:41.999Z</time></trkpt><trkpt lat="43.156424088172265" lon="11.40378725349049"><ele>292.0</ele><time>2026-04-08T08:18:42.999Z</time></trkpt><trkpt lat="43.15641599746671" lon="11.403956663007163"><ele>292.0</ele><time>2026-04-08T08:18:43.999Z</time></trkpt><trkpt lat="43.15639781876048" lon="11.40412198523202"><ele>292.0</ele><time>2026-04-08T08:18:44.999Z</time></trkpt><trkpt lat="43.15636042772683" lon="11.404279900313536"><ele>292.0</ele><time>2026-04-08T08:18:45.999Z</time></trkpt><trkpt lat="43.15629473587777" lon="11.404415518115885"><ele>292.0</ele><time>2026-04-08T08:18:46.999Z</time></trkpt><trkpt lat="43.156184526342" lon="11.404513340840852"><ele>292.0</ele><time>2026-04-08T08:18:47.999Z</time></trkpt><trkpt lat="43.15607759560614" lon="11.404621388935192"><ele>292.0</ele><time>2026-04-08T08:18:48.999Z</time></trkpt><trkpt lat="43.155958906744964" lon="11.404720499612491"><ele>292.0</ele><time>2026-04-08T08:18:49.999Z</time></trkpt><trkpt lat="43.15585384232711" lon="11.40482177042634"><ele>292.0</ele><time>2026-04-08T08:18:50.999Z</time></trkpt><trkpt lat="43.15571638499638" lon="11.404880892486325"><ele>290.25</ele><time>2026-04-08T08:18:51.999Z</time></trkpt><trkpt lat="43.15557012128217" lon="11.404883807862408"><ele>288.5</ele><time>2026-04-08T08:18:52.999Z</time></trkpt><trkpt lat="43.15543892626683" lon="11.404909740975203"><ele>286.75</ele><time>2026-04-08T08:18:53.999Z</time></trkpt><trkpt lat="43.15529926829417" lon="11.404913693212546"><ele>285.0</ele><time>2026-04-08T08:18:54.999Z</time></trkpt><trkpt lat="43.155157327214525" lon="11.404957806566447"><ele>285.0</ele><time>2026-04-08T08:18:55.999Z</time></trkpt><trkpt lat="43.15501625883297" lon="11.405019661972732"><ele>285.0</ele><time>2026-04-08T08:18:56.999Z</time></trkpt><trkpt lat="43.1548729766338" lon="11.405098727421931"><ele>285.0</ele><time>2026-04-08T08:18:57.999Z</time></trkpt><trkpt lat="43.154738675939264" lon="11.405160418491857"><ele>285.0</ele><time>2026-04-08T08:18:58.999Z</time></trkpt><trkpt lat="43.15461480558182" lon="11.405215670429266"><ele>283.5</ele><time>2026-04-08T08:18:59.999Z</time></trkpt><trkpt lat="43.154489317735965" lon="11.40527428517929"><ele>282.0</ele><time>2026-04-08T08:19:00.999Z</time></trkpt><trkpt lat="43.15438285551483" lon="11.405348595675706"><ele>280.5</ele><time>2026-04-08T08:19:01.999Z</time></trkpt><trkpt lat="43.15426564444788" lon="11.405439954812264"><ele>279.0</ele><time>2026-04-08T08:19:02.999Z</time></trkpt><trkpt lat="43.15414186510889" lon="11.40554863526272"><ele>281.3333333333333</ele><time>2026-04-08T08:19:03.999Z</time></trkpt><trkpt lat="43.153995189273644" lon="11.405626361900847"><ele>283.66666666666663</ele><time>2026-04-08T08:19:04.999Z</time></trkpt><trkpt lat="43.15383577351883" lon="11.405664231811087"><ele>286.0</ele><time>2026-04-08T08:19:05.999Z</time></trkpt><trkpt lat="43.15369192464758" lon="11.405671906018572"><ele>286.0</ele><time>2026-04-08T08:19:06.999Z</time></trkpt><trkpt lat="43.15356483763259" lon="11.405692203895528"><ele>286.0</ele><time>2026-04-08T08:19:07.999Z</time></trkpt><trkpt lat="43.15344851312589" lon="11.405695957970645"><ele>286.0</ele><time>2026-04-08T08:19:08.999Z</time></trkpt><trkpt lat="43.15332467114244" lon="11.405742586720448"><ele>286.0</ele><time>2026-04-08T08:19:09.999Z</time></trkpt><trkpt lat="43.153196151905604" lon="11.405836256864882"><ele>289.3333333333333</ele><time>2026-04-08T08:19:10.999Z</time></trkpt><trkpt lat="43.15307526969031" lon="11.405955407150943"><ele>292.6666666666667</ele><time>2026-04-08T08:19:11.999Z</time></trkpt><trkpt lat="43.152953255268436" lon="11.406079467678962"><ele>296.0</ele><time>2026-04-08T08:19:12.999Z</time></trkpt><trkpt lat="43.152823261503535" lon="11.406229054023603"><ele>291.6666666666667</ele><time>2026-04-08T08:19:13.999Z</time></trkpt><trkpt lat="43.15266937213405" lon="11.40636139234397"><ele>287.3333333333333</ele><time>2026-04-08T08:19:14.999Z</time></trkpt><trkpt lat="43.15250674640911" lon="11.406466154975526"><ele>283.0</ele><time>2026-04-08T08:19:15.999Z</time></trkpt><trkpt lat="43.152357479991345" lon="11.406534353697491"><ele>283.0</ele><time>2026-04-08T08:19:16.999Z</time></trkpt><trkpt lat="43.152197818037166" lon="11.40658298150767"><ele>283.0</ele><time>2026-04-08T08:19:17.999Z</time></trkpt><trkpt lat="43.15202893456451" lon="11.406619878065516"><ele>283.0</ele><time>2026-04-08T08:19:18.999Z</time></trkpt><trkpt lat="43.15183281655932" lon="11.406628776388693"><ele>283.0</ele><time>2026-04-08T08:19:19.999Z</time></trkpt><trkpt lat="43.151620658104264" lon="11.406637700026645"><ele>283.0</ele><time>2026-04-08T08:19:20.999Z</time></trkpt><trkpt lat="43.15140079296901" lon="11.40666994612549"><ele>283.0</ele><time>2026-04-08T08:19:21.999Z</time></trkpt><trkpt lat="43.151209885692886" lon="11.406725261799313"><ele>284.0</ele><time>2026-04-08T08:19:23Z</time></trkpt><trkpt lat="43.1510452413593" lon="11.40677855822637"><ele>285.0</ele><time>2026-04-08T08:19:24Z</time></trkpt><trkpt lat="43.150880139916026" lon="11.406821256896349"><ele>286.0</ele><time>2026-04-08T08:19:25Z</time></trkpt><trkpt lat="43.150720282465414" lon="11.406796338253029"><ele>284.3333333333333</ele><time>2026-04-08T08:19:26Z</time></trkpt><trkpt lat="43.15054679438495" lon="11.406773398176783"><ele>282.6666666666667</ele><time>2026-04-08T08:19:27Z</time></trkpt><trkpt lat="43.150374714358826" lon="11.406741523751297"><ele>281.0</ele><time>2026-04-08T08:19:28Z</time></trkpt><trkpt lat="43.15022474201657" lon="11.406681184922196"><ele>281.0</ele><time>2026-04-08T08:19:29Z</time></trkpt><trkpt lat="43.15011601457884" lon="11.406559609774426"><ele>281.0</ele><time>2026-04-08T08:19:30Z</time></trkpt><trkpt lat="43.150016303208005" lon="11.406435321326464"><ele>281.0</ele><time>2026-04-08T08:19:31Z</time></trkpt><trkpt lat="43.14991521100382" lon="11.40630729505824"><ele>281.0</ele><time>2026-04-08T08:19:32Z</time></trkpt><trkpt lat="43.14982007331801" lon="11.406199974749153"><ele>282.0</ele><time>2026-04-08T08:19:33Z</time></trkpt><trkpt lat="43.14970181567729" lon="11.406173519986284"><ele>283.0</ele><time>2026-04-08T08:19:34Z</time></trkpt><trkpt lat="43.1495723260862" lon="11.406188158673865"><ele>284.0</ele><time>2026-04-08T08:19:35Z</time></trkpt><trkpt lat="43.14944742195799" lon="11.406268650135177"><ele>285.0</ele><time>2026-04-08T08:19:36Z</time></trkpt><trkpt lat="43.14933899237549" lon="11.406410459908244"><ele>285.0</ele><time>2026-04-08T08:19:37Z</time></trkpt><trkpt lat="43.14924437409679" lon="11.406579443944027"><ele>285.0</ele><time>2026-04-08T08:19:38Z</time></trkpt><trkpt lat="43.14913910808109" lon="11.406673074648271"><ele>285.0</ele><time>2026-04-08T08:19:39Z</time></trkpt><trkpt lat="43.14902591642995" lon="11.406723402905362"><ele>285.0</ele><time>2026-04-08T08:19:40Z</time></trkpt><trkpt lat="43.148871323388086" lon="11.40673719030956"><ele>286.0</ele><time>2026-04-08T08:19:41Z</time></trkpt><trkpt lat="43.14872235045262" lon="11.40676472621914"><ele>287.0</ele><time>2026-04-08T08:19:42Z</time></trkpt><trkpt lat="43.14858859240022" lon="11.406796788420952"><ele>288.0</ele><time>2026-04-08T08:19:43Z</time></trkpt><trkpt lat="43.148470139304216" lon="11.406894036291519"><ele>289.0</ele><time>2026-04-08T08:19:44Z</time></trkpt><trkpt lat="43.148367030290245" lon="11.407045493559865"><ele>290.0</ele><time>2026-04-08T08:19:45Z</time></trkpt><trkpt lat="43.14826538413169" lon="11.407226159922706"><ele>291.0</ele><time>2026-04-08T08:19:46Z</time></trkpt><trkpt lat="43.14817165397759" lon="11.407463028574103"><ele>292.0</ele><time>2026-04-08T08:19:47Z</time></trkpt><trkpt lat="43.1480740463163" lon="11.407689657327374"><ele>292.0</ele><time>2026-04-08T08:19:48Z</time></trkpt><trkpt lat="43.14799224152995" lon="11.407870826162743"><ele>292.0</ele><time>2026-04-08T08:19:49Z</time></trkpt><trkpt lat="43.14792551960218" lon="11.408050378657563"><ele>292.0</ele><time>2026-04-08T08:19:50Z</time></trkpt><trkpt lat="43.147880521321326" lon="11.40826681314465"><ele>290.0</ele><time>2026-04-08T08:19:51Z</time></trkpt><trkpt lat="43.14786405948035" lon="11.408513905076386"><ele>288.0</ele><time>2026-04-08T08:19:52Z</time></trkpt><trkpt lat="43.14785151434239" lon="11.408777936487777"><ele>286.0</ele><time>2026-04-08T08:19:53Z</time></trkpt><trkpt lat="43.1478238600251" lon="11.40904960405062"><ele>284.0</ele><time>2026-04-08T08:19:54Z</time></trkpt><trkpt lat="43.14779102606929" lon="11.409305782143955"><ele>282.0</ele><time>2026-04-08T08:19:55Z</time></trkpt><trkpt lat="43.147753478427575" lon="11.409535406938133"><ele>280.0</ele><time>2026-04-08T08:19:56Z</time></trkpt><trkpt lat="43.14771160435317" lon="11.409749797811756"><ele>278.25</ele><time>2026-04-08T08:19:57Z</time></trkpt><trkpt lat="43.1476727796511" lon="11.409954565037562"><ele>276.5</ele><time>2026-04-08T08:19:58Z</time></trkpt><trkpt lat="43.14762486723232" lon="11.410110056471717"><ele>274.75</ele><time>2026-04-08T08:19:59Z</time></trkpt><trkpt lat="43.147557209677615" lon="11.410265361747824"><ele>273.0</ele><time>2026-04-08T08:20:00Z</time></trkpt><trkpt lat="43.147470855744054" lon="11.41042957302516"><ele>270.6666666666667</ele><time>2026-04-08T08:20:01Z</time></trkpt><trkpt lat="43.147335977094436" lon="11.41056493331779"><ele>268.33333333333337</ele><time>2026-04-08T08:20:02Z</time></trkpt><trkpt lat="43.147199366092" lon="11.410662187073152"><ele>266.0</ele><time>2026-04-08T08:20:03Z</time></trkpt><trkpt lat="43.1470448543314" lon="11.41075113376673"><ele>266.0</ele><time>2026-04-08T08:20:04Z</time></trkpt><trkpt lat="43.14690131534517" lon="11.410846246119602"><ele>266.0</ele><time>2026-04-08T08:20:05Z</time></trkpt><trkpt lat="43.14677824963657" lon="11.410959742411661"><ele>266.0</ele><time>2026-04-08T08:20:06Z</time></trkpt><trkpt lat="43.146654729733655" lon="11.411107588563766"><ele>267.6666666666667</ele><time>2026-04-08T08:20:07Z</time></trkpt><trkpt lat="43.14653532033883" lon="11.411292382092393"><ele>269.3333333333333</ele><time>2026-04-08T08:20:08Z</time></trkpt><trkpt lat="43.14642282205669" lon="11.411491310132995"><ele>271.0</ele><time>2026-04-08T08:20:09Z</time></trkpt><trkpt lat="43.146310681391945" lon="11.411681969594568"><ele>267.66666666666663</ele><time>2026-04-08T08:20:10Z</time></trkpt><trkpt lat="43.14620619829407" lon="11.411859121405621"><ele>264.3333333333333</ele><time>2026-04-08T08:20:11Z</time></trkpt><trkpt lat="43.1461100298888" lon="11.412032235106501"><ele>261.0</ele><time>2026-04-08T08:20:12Z</time></trkpt><trkpt lat="43.14602705630753" lon="11.412216828970628"><ele>258.3333333333333</ele><time>2026-04-08T08:20:13Z</time></trkpt><trkpt lat="43.145959714734126" lon="11.412426630359557"><ele>255.66666666666666</ele><time>2026-04-08T08:20:14Z</time></trkpt><trkpt lat="43.145904739657354" lon="11.412649044994023"><ele>253.0</ele><time>2026-04-08T08:20:15Z</time></trkpt><trkpt lat="43.145863157621605" lon="11.412864673909537"><ele>252.75</ele><time>2026-04-08T08:20:16Z</time></trkpt><trkpt lat="43.14582181474357" lon="11.413068474060388"><ele>252.5</ele><time>2026-04-08T08:20:17Z</time></trkpt><trkpt lat="43.14574953797089" lon="11.4132422138"><ele>252.25</ele><time>2026-04-08T08:20:18Z</time></trkpt><trkpt lat="43.145674141012364" lon="11.413408665911644"><ele>252.0</ele><time>2026-04-08T08:20:19Z</time></trkpt><trkpt lat="43.145584626200225" lon="11.413555650251155"><ele>250.5</ele><time>2026-04-08T08:20:20Z</time></trkpt><trkpt lat="43.145473906053525" lon="11.413703546678931"><ele>249.0</ele><time>2026-04-08T08:20:21Z</time></trkpt><trkpt lat="43.14538081956291" lon="11.413836171395811"><ele>247.5</ele><time>2026-04-08T08:20:22Z</time></trkpt><trkpt lat="43.14529501698389" lon="11.413977982144718"><ele>246.0</ele><time>2026-04-08T08:20:23Z</time></trkpt><trkpt lat="43.14523748107545" lon="11.414127463948361"><ele>245.0</ele><time>2026-04-08T08:20:24Z</time></trkpt><trkpt lat="43.145201708532376" lon="11.414289318011846"><ele>244.0</ele><time>2026-04-08T08:20:25Z</time></trkpt><trkpt lat="43.145191876985244" lon="11.414450001336492"><ele>243.0</ele><time>2026-04-08T08:20:26Z</time></trkpt><trkpt lat="43.14521730059862" lon="11.414619001009568"><ele>242.0</ele><time>2026-04-08T08:20:27Z</time></trkpt><trkpt lat="43.145290316829595" lon="11.414767790089007"><ele>240.5</ele><time>2026-04-08T08:20:28Z</time></trkpt><trkpt lat="43.145376834310774" lon="11.414919841061346"><ele>239.0</ele><time>2026-04-08T08:20:29Z</time></trkpt><trkpt lat="43.14547659274436" lon="11.4150739813923"><ele>237.5</ele><time>2026-04-08T08:20:30Z</time></trkpt><trkpt lat="43.14557769985432" lon="11.415209866228114"><ele>236.0</ele><time>2026-04-08T08:20:31Z</time></trkpt><trkpt lat="43.14565257768631" lon="11.415369708373428"><ele>237.0</ele><time>2026-04-08T08:20:32Z</time></trkpt><trkpt lat="43.145721154864134" lon="11.415561135737354"><ele>238.0</ele><time>2026-04-08T08:20:33Z</time></trkpt><trkpt lat="43.1457693698757" lon="11.415772081238675"><ele>239.0</ele><time>2026-04-08T08:20:33.999Z</time></trkpt><trkpt lat="43.145784167805296" lon="11.415996532438458"><ele>239.0</ele><time>2026-04-08T08:20:34.999Z</time></trkpt><trkpt lat="43.14576695672242" lon="11.416211159435973"><ele>239.0</ele><time>2026-04-08T08:20:35.999Z</time></trkpt><trkpt lat="43.14573249176889" lon="11.416457168734157"><ele>239.0</ele><time>2026-04-08T08:20:36.999Z</time></trkpt><trkpt lat="43.14570547828692" lon="11.416703144487467"><ele>233.33333333333334</ele><time>2026-04-08T08:20:37.999Z</time></trkpt><trkpt lat="43.145674489344565" lon="11.41692841243809"><ele>227.66666666666669</ele><time>2026-04-08T08:20:38.999Z</time></trkpt><trkpt lat="43.145641407950755" lon="11.417131814039212"><ele>222.0</ele><time>2026-04-08T08:20:39.999Z</time></trkpt><trkpt lat="43.14559580532362" lon="11.417319177998694"><ele>220.33333333333331</ele><time>2026-04-08T08:20:40.999Z</time></trkpt><trkpt lat="43.14554562098997" lon="11.417512229905846"><ele>218.66666666666666</ele><time>2026-04-08T08:20:41.999Z</time></trkpt><trkpt lat="43.14548272029267" lon="11.41772456222009"><ele>217.0</ele><time>2026-04-08T08:20:42.999Z</time></trkpt><trkpt lat="43.14542290660525" lon="11.41793616768825"><ele>216.0</ele><time>2026-04-08T08:20:43.999Z</time></trkpt><trkpt lat="43.145379744244224" lon="11.418134950516041"><ele>215.0</ele><time>2026-04-08T08:20:44.999Z</time></trkpt><trkpt lat="43.1453535118579" lon="11.418332318075974"><ele>214.0</ele><time>2026-04-08T08:20:45.999Z</time></trkpt><trkpt lat="43.14533994518252" lon="11.418550376295713"><ele>214.0</ele><time>2026-04-08T08:20:46.999Z</time></trkpt><trkpt lat="43.14533831099116" lon="11.418754166062108"><ele>214.0</ele><time>2026-04-08T08:20:47.999Z</time></trkpt><trkpt lat="43.145328117385404" lon="11.418986538938825"><ele>214.0</ele><time>2026-04-08T08:20:48.999Z</time></trkpt><trkpt lat="43.14530819404696" lon="11.41922036537007"><ele>213.66666666666666</ele><time>2026-04-08T08:20:49.999Z</time></trkpt><trkpt lat="43.14527754355457" lon="11.41943139329345"><ele>213.33333333333331</ele><time>2026-04-08T08:20:50.999Z</time></trkpt><trkpt lat="43.14523333484846" lon="11.419629653922879"><ele>213.0</ele><time>2026-04-08T08:20:51.999Z</time></trkpt><trkpt lat="43.14518638837456" lon="11.419814192062626"><ele>212.25</ele><time>2026-04-08T08:20:52.999Z</time></trkpt><trkpt lat="43.145151112406545" lon="11.420000094259105"><ele>211.5</ele><time>2026-04-08T08:20:53.999Z</time></trkpt><trkpt lat="43.145134451216805" lon="11.420207102560815"><ele>210.75</ele><time>2026-04-08T08:20:54.999Z</time></trkpt><trkpt lat="43.14513287347338" lon="11.420402939943044"><ele>210.0</ele><time>2026-04-08T08:20:55.999Z</time></trkpt><trkpt lat="43.14513552377849" lon="11.420584937509313"><ele>209.4</ele><time>2026-04-08T08:20:56.999Z</time></trkpt><trkpt lat="43.145137952267305" lon="11.420757502161702"><ele>208.8</ele><time>2026-04-08T08:20:57.999Z</time></trkpt><trkpt lat="43.145136201670745" lon="11.42090873951797"><ele>208.2</ele><time>2026-04-08T08:20:58.999Z</time></trkpt><trkpt lat="43.145132037724224" lon="11.421039293829006"><ele>207.6</ele><time>2026-04-08T08:20:59.999Z</time></trkpt><trkpt lat="43.14512248330486" lon="11.421143086164399"><ele>207.0</ele><time>2026-04-08T08:21:00.999Z</time></trkpt><trkpt lat="43.14508401153394" lon="11.421264145977577"><ele>207.0</ele><time>2026-04-08T08:21:02.999Z</time></trkpt><trkpt lat="43.14516796840168" lon="11.421308474097799"><ele>207.0</ele><time>2026-04-08T08:21:03.999Z</time></trkpt><trkpt lat="43.14507385110505" lon="11.42131001093713"><ele>207.0</ele><time>2026-04-08T08:21:04.999Z</time></trkpt><trkpt lat="43.14516413630888" lon="11.421347356359227"><ele>207.0</ele><time>2026-04-08T08:21:05.999Z</time></trkpt><trkpt lat="43.14522216891879" lon="11.421455836888633"><ele>207.0</ele><time>2026-04-08T08:25:25.999Z</time></trkpt><trkpt lat="43.14524449311532" lon="11.421540651443864"><ele>207.0</ele><time>2026-04-08T08:25:26.999Z</time></trkpt><trkpt lat="43.1452839213662" lon="11.421689689238827"><ele>206.83333333333334</ele><time>2026-04-08T08:25:28.999Z</time></trkpt><trkpt lat="43.145320031505925" lon="11.42177379765979"><ele>206.66666666666669</ele><time>2026-04-08T08:25:30.999Z</time></trkpt><trkpt lat="43.14535315252654" lon="11.421861680866593"><ele>206.5</ele><time>2026-04-08T08:25:42Z</time></trkpt><trkpt lat="43.14539863435184" lon="11.42199535979903"><ele>206.33333333333334</ele><time>2026-04-08T08:25:44Z</time></trkpt><trkpt lat="43.145444046607544" lon="11.422114603895198"><ele>206.16666666666669</ele><time>2026-04-08T08:25:45Z</time></trkpt><trkpt lat="43.145486108537966" lon="11.422237391591185"><ele>206.0</ele><time>2026-04-08T08:25:46Z</time></trkpt><trkpt lat="43.14552471824166" lon="11.422343924862684"><ele>206.60000000000002</ele><time>2026-04-08T08:25:47Z</time></trkpt><trkpt lat="43.14555580550221" lon="11.422440766675814"><ele>207.2</ele><time>2026-04-08T08:25:48Z</time></trkpt><trkpt lat="43.145592780347044" lon="11.422536386838807"><ele>207.8</ele><time>2026-04-08T08:25:50Z</time></trkpt><trkpt lat="43.14563874257811" lon="11.422661142498063"><ele>208.39999999999998</ele><time>2026-04-08T08:26:20Z</time></trkpt><trkpt lat="43.145705464055716" lon="11.42284990600589"><ele>209.0</ele><time>2026-04-08T08:26:22Z</time></trkpt><trkpt lat="43.14574628699636" lon="11.422970104531093"><ele>208.6</ele><time>2026-04-08T08:26:23Z</time></trkpt><trkpt lat="43.14579881527579" lon="11.423116839415261"><ele>208.2</ele><time>2026-04-08T08:26:24Z</time></trkpt><trkpt lat="43.14585128141199" lon="11.42327120781108"><ele>207.79999999999998</ele><time>2026-04-08T08:26:25Z</time></trkpt><trkpt lat="43.14589604435687" lon="11.423404015869483"><ele>207.39999999999998</ele><time>2026-04-08T08:26:26Z</time></trkpt><trkpt lat="43.145928512254564" lon="11.423526018103729"><ele>207.0</ele><time>2026-04-08T08:26:27Z</time></trkpt><trkpt lat="43.14594308596939" lon="11.42364830038644"><ele>207.0</ele><time>2026-04-08T08:26:28Z</time></trkpt><trkpt lat="43.14595313943394" lon="11.423769083995712"><ele>207.0</ele><time>2026-04-08T08:26:29Z</time></trkpt><trkpt lat="43.145953732211524" lon="11.423887910848297"><ele>207.0</ele><time>2026-04-08T08:26:30Z</time></trkpt><trkpt lat="43.14594404521818" lon="11.424008222278733"><ele>207.0</ele><time>2026-04-08T08:26:31Z</time></trkpt><trkpt lat="43.14591797561083" lon="11.424140924165764"><ele>207.0</ele><time>2026-04-08T08:26:32Z</time></trkpt><trkpt lat="43.145874056839546" lon="11.424275188228465"><ele>206.8</ele><time>2026-04-08T08:26:33Z</time></trkpt><trkpt lat="43.14581510353575" lon="11.424407221607035"><ele>206.6</ele><time>2026-04-08T08:26:34Z</time></trkpt><trkpt lat="43.14575441302319" lon="11.42451868295183"><ele>206.4</ele><time>2026-04-08T08:26:35Z</time></trkpt><trkpt lat="43.145697611862595" lon="11.42462564310474"><ele>206.20000000000002</ele><time>2026-04-08T08:26:36Z</time></trkpt><trkpt lat="43.14563812531944" lon="11.424725595274618"><ele>206.0</ele><time>2026-04-08T08:26:37Z</time></trkpt><trkpt lat="43.14558708601775" lon="11.424819434323712"><ele>206.00000000000003</ele><time>2026-04-08T08:26:38Z</time></trkpt><trkpt lat="43.145544467444985" lon="11.424891048874416"><ele>206.0</ele><time>2026-04-08T08:26:39Z</time></trkpt><trkpt lat="43.14552083111497" lon="11.424988307664877"><ele>206.0</ele><time>2026-04-08T08:26:40Z</time></trkpt><trkpt lat="43.145529959692304" lon="11.425095845423344"><ele>206.0</ele><time>2026-04-08T08:26:41Z</time></trkpt><trkpt lat="43.14558377815632" lon="11.425188047138729"><ele>206.00000000000003</ele><time>2026-04-08T08:26:42Z</time></trkpt><trkpt lat="43.14564104294184" lon="11.425265052210822"><ele>206.0</ele><time>2026-04-08T08:26:43Z</time></trkpt><trkpt lat="43.14571259762521" lon="11.425331765974764"><ele>206.0</ele><time>2026-04-08T08:26:44Z</time></trkpt><trkpt lat="43.14581182761951" lon="11.425388010068819"><ele>206.0</ele><time>2026-04-08T08:26:45Z</time></trkpt><trkpt lat="43.14592739084145" lon="11.425450710910521"><ele>206.0</ele><time>2026-04-08T08:26:46Z</time></trkpt><trkpt lat="43.146021567356925" lon="11.425514078025007"><ele>206.0</ele><time>2026-04-08T08:26:47Z</time></trkpt><trkpt lat="43.14611576670055" lon="11.425595238308338"><ele>206.0</ele><time>2026-04-08T08:26:47.999Z</time></trkpt><trkpt lat="43.14621106091806" lon="11.425697858278696"><ele>204.75</ele><time>2026-04-08T08:26:48.999Z</time></trkpt><trkpt lat="43.14629003711068" lon="11.425835866188283"><ele>203.5</ele><time>2026-04-08T08:26:49.999Z</time></trkpt><trkpt lat="43.14640361042526" lon="11.425939379344161"><ele>202.25</ele><time>2026-04-08T08:26:50.999Z</time></trkpt><trkpt lat="43.146513613457124" lon="11.426055380524208"><ele>201.0</ele><time>2026-04-08T08:26:51.999Z</time></trkpt><trkpt lat="43.14662710768692" lon="11.426159222579832"><ele>201.0</ele><time>2026-04-08T08:26:52.999Z</time></trkpt><trkpt lat="43.14673333354235" lon="11.42624738737746"><ele>201.0</ele><time>2026-04-08T08:26:53.999Z</time></trkpt><trkpt lat="43.14682707572182" lon="11.426323873893297"><ele>201.0</ele><time>2026-04-08T08:26:54.999Z</time></trkpt><trkpt lat="43.146916489015595" lon="11.426398053336307"><ele>201.0</ele><time>2026-04-08T08:26:55.999Z</time></trkpt><trkpt lat="43.14700943266374" lon="11.426457995232763"><ele>201.0</ele><time>2026-04-08T08:26:56.999Z</time></trkpt><trkpt lat="43.14709972740085" lon="11.426535932804398"><ele>201.0</ele><time>2026-04-08T08:26:57.999Z</time></trkpt><trkpt lat="43.14718944546978" lon="11.426630154265577"><ele>201.0</ele><time>2026-04-08T08:26:58.999Z</time></trkpt><trkpt lat="43.147278526373235" lon="11.426747954388318"><ele>201.0</ele><time>2026-04-08T08:26:59.999Z</time></trkpt><trkpt lat="43.14736498818288" lon="11.426858867161991"><ele>201.0</ele><time>2026-04-08T08:27:00.999Z</time></trkpt><trkpt lat="43.1474406702075" lon="11.426962733055651"><ele>201.0</ele><time>2026-04-08T08:27:01.999Z</time></trkpt><trkpt lat="43.147521177145855" lon="11.4270500249914"><ele>201.0</ele><time>2026-04-08T08:27:02.999Z</time></trkpt><trkpt lat="43.14761654070589" lon="11.427124116802057"><ele>201.0</ele><time>2026-04-08T08:27:03.999Z</time></trkpt><trkpt lat="43.14772376107665" lon="11.427182092045161"><ele>201.0</ele><time>2026-04-08T08:27:04.999Z</time></trkpt><trkpt lat="43.14783743155608" lon="11.42721896889074"><ele>201.0</ele><time>2026-04-08T08:27:05.999Z</time></trkpt><trkpt lat="43.147958720558066" lon="11.427249941719099"><ele>201.8</ele><time>2026-04-08T08:27:06.999Z</time></trkpt><trkpt lat="43.14806811754223" lon="11.427277738645342"><ele>202.60000000000002</ele><time>2026-04-08T08:27:07.999Z</time></trkpt><trkpt lat="43.14816091464657" lon="11.427304202447868"><ele>203.4</ele><time>2026-04-08T08:27:08.999Z</time></trkpt><trkpt lat="43.14825417118365" lon="11.427346018940295"><ele>204.2</ele><time>2026-04-08T08:27:09.999Z</time></trkpt><trkpt lat="43.148346543529485" lon="11.427393770301347"><ele>205.0</ele><time>2026-04-08T08:27:10.999Z</time></trkpt><trkpt lat="43.148438093934104" lon="11.427442593051797"><ele>205.0</ele><time>2026-04-08T08:27:11.999Z</time></trkpt><trkpt lat="43.148529951839194" lon="11.427484307634012"><ele>205.0</ele><time>2026-04-08T08:27:12.999Z</time></trkpt><trkpt lat="43.14861011270659" lon="11.427526080564979"><ele>205.0</ele><time>2026-04-08T08:27:13.999Z</time></trkpt><trkpt lat="43.14868859196686" lon="11.427572803858355"><ele>205.0</ele><time>2026-04-08T08:27:14.999Z</time></trkpt><trkpt lat="43.1487794326837" lon="11.427621211641828"><ele>205.0</ele><time>2026-04-08T08:27:15.999Z</time></trkpt><trkpt lat="43.14888571137849" lon="11.427674592879244"><ele>205.0</ele><time>2026-04-08T08:27:16.999Z</time></trkpt><trkpt lat="43.14898617749676" lon="11.427721728004565"><ele>205.0</ele><time>2026-04-08T08:27:17.999Z</time></trkpt><trkpt lat="43.1490804174679" lon="11.427793691586697"><ele>205.0</ele><time>2026-04-08T08:27:18.999Z</time></trkpt><trkpt lat="43.14916643187229" lon="11.427850796578639"><ele>205.0</ele><time>2026-04-08T08:27:19.999Z</time></trkpt><trkpt lat="43.14928800249239" lon="11.427937491567048"><ele>205.0</ele><time>2026-04-08T08:27:20.999Z</time></trkpt><trkpt lat="43.14941038515278" lon="11.428080972753744"><ele>202.25</ele><time>2026-04-08T08:27:21.999Z</time></trkpt><trkpt lat="43.149525939531976" lon="11.42820787024163"><ele>199.5</ele><time>2026-04-08T08:27:22.999Z</time></trkpt><trkpt lat="43.14964007211765" lon="11.428329885300878"><ele>196.75</ele><time>2026-04-08T08:27:23.999Z</time></trkpt><trkpt lat="43.14974695940705" lon="11.428435748459322"><ele>194.0</ele><time>2026-04-08T08:27:24.999Z</time></trkpt><trkpt lat="43.14985796655191" lon="11.42854456206913"><ele>195.0</ele><time>2026-04-08T08:27:25.999Z</time></trkpt><trkpt lat="43.14996439607376" lon="11.428654794881895"><ele>196.0</ele><time>2026-04-08T08:27:26.999Z</time></trkpt><trkpt lat="43.15005519276296" lon="11.42877642486835"><ele>197.0</ele><time>2026-04-08T08:27:27.999Z</time></trkpt><trkpt lat="43.150139343436486" lon="11.428914749000914"><ele>198.0</ele><time>2026-04-08T08:27:28.999Z</time></trkpt><trkpt lat="43.150216561726154" lon="11.429073797390402"><ele>195.75</ele><time>2026-04-08T08:27:29.999Z</time></trkpt><trkpt lat="43.150289377369944" lon="11.429211246887798"><ele>193.5</ele><time>2026-04-08T08:27:30.999Z</time></trkpt><trkpt lat="43.15036614736874" lon="11.429330810601622"><ele>191.25</ele><time>2026-04-08T08:27:31.999Z</time></trkpt><trkpt lat="43.15044669731008" lon="11.42944833907532"><ele>189.0</ele><time>2026-04-08T08:27:32.999Z</time></trkpt><trkpt lat="43.15053087702095" lon="11.429557426187387"><ele>189.25</ele><time>2026-04-08T08:27:33.999Z</time></trkpt><trkpt lat="43.15062339136288" lon="11.429671283648815"><ele>189.5</ele><time>2026-04-08T08:27:34.999Z</time></trkpt><trkpt lat="43.1507240610442" lon="11.42977955858685"><ele>189.75</ele><time>2026-04-08T08:27:35.999Z</time></trkpt><trkpt lat="43.15082288555725" lon="11.429868634789004"><ele>190.0</ele><time>2026-04-08T08:27:36.999Z</time></trkpt><trkpt lat="43.15091731160417" lon="11.429946454295472"><ele>190.0</ele><time>2026-04-08T08:27:37.999Z</time></trkpt><trkpt lat="43.15100561742965" lon="11.43003479465711"><ele>190.0</ele><time>2026-04-08T08:27:38.999Z</time></trkpt><trkpt lat="43.15108001995505" lon="11.430162581858308"><ele>190.0</ele><time>2026-04-08T08:27:39.999Z</time></trkpt><trkpt lat="43.151125883282226" lon="11.430297192722957"><ele>190.0</ele><time>2026-04-08T08:27:40.999Z</time></trkpt><trkpt lat="43.151145903052885" lon="11.430441407242776"><ele>190.0</ele><time>2026-04-08T08:27:41.999Z</time></trkpt><trkpt lat="43.15113992952504" lon="11.430604290755587"><ele>188.25</ele><time>2026-04-08T08:27:42.999Z</time></trkpt><trkpt lat="43.15112007231593" lon="11.430787346085348"><ele>186.5</ele><time>2026-04-08T08:27:43.999Z</time></trkpt><trkpt lat="43.15109923092088" lon="11.430987461012407"><ele>184.75</ele><time>2026-04-08T08:27:44.999Z</time></trkpt><trkpt lat="43.15108561364782" lon="11.431169419111372"><ele>183.0</ele><time>2026-04-08T08:27:45.999Z</time></trkpt><trkpt lat="43.151076299142254" lon="11.431339413699472"><ele>181.5</ele><time>2026-04-08T08:27:47Z</time></trkpt><trkpt lat="43.15107406602219" lon="11.431523471275069"><ele>180.0</ele><time>2026-04-08T08:27:48Z</time></trkpt><trkpt lat="43.151084674365926" lon="11.431702263613602"><ele>178.5</ele><time>2026-04-08T08:27:49Z</time></trkpt><trkpt lat="43.15110735703298" lon="11.431860203643014"><ele>177.0</ele><time>2026-04-08T08:27:50Z</time></trkpt><trkpt lat="43.15112460939753" lon="11.432013167926783"><ele>176.39999999999998</ele><time>2026-04-08T08:27:51Z</time></trkpt><trkpt lat="43.15112896333883" lon="11.432166474138077"><ele>175.79999999999998</ele><time>2026-04-08T08:27:52Z</time></trkpt><trkpt lat="43.151114904557225" lon="11.432331824815908"><ele>175.2</ele><time>2026-04-08T08:27:53Z</time></trkpt><trkpt lat="43.15109967864199" lon="11.43247984709821"><ele>174.6</ele><time>2026-04-08T08:27:54Z</time></trkpt><trkpt lat="43.15110271288502" lon="11.432606336355255"><ele>174.0</ele><time>2026-04-08T08:27:55Z</time></trkpt><trkpt lat="43.15113098767523" lon="11.432730757211912"><ele>174.0</ele><time>2026-04-08T08:27:56Z</time></trkpt><trkpt lat="43.151175077702895" lon="11.432851112355205"><ele>174.0</ele><time>2026-04-08T08:27:57Z</time></trkpt><trkpt lat="43.151246104176" lon="11.432976698973157"><ele>174.0</ele><time>2026-04-08T08:27:58Z</time></trkpt><trkpt lat="43.151343883791995" lon="11.433111865047268"><ele>174.0</ele><time>2026-04-08T08:27:59Z</time></trkpt><trkpt lat="43.15145673189915" lon="11.43324135774111"><ele>174.79999999999998</ele><time>2026-04-08T08:28:00Z</time></trkpt><trkpt lat="43.151557447836" lon="11.433339762373807"><ele>175.6</ele><time>2026-04-08T08:28:01Z</time></trkpt><trkpt lat="43.151646370315135" lon="11.433424554159119"><ele>176.4</ele><time>2026-04-08T08:28:02Z</time></trkpt><trkpt lat="43.15173970445086" lon="11.433482334619221"><ele>177.2</ele><time>2026-04-08T08:28:03Z</time></trkpt><trkpt lat="43.15184250130144" lon="11.433523826576522"><ele>178.0</ele><time>2026-04-08T08:28:04Z</time></trkpt><trkpt lat="43.15193839825901" lon="11.433557106059839"><ele>178.0</ele><time>2026-04-08T08:28:05Z</time></trkpt><trkpt lat="43.15202740763806" lon="11.433529532331127"><ele>178.0</ele><time>2026-04-08T08:28:06Z</time></trkpt><trkpt lat="43.15211329450614" lon="11.433481910254157"><ele>178.0</ele><time>2026-04-08T08:28:07Z</time></trkpt><trkpt lat="43.15218409009941" lon="11.433376534932512"><ele>178.0</ele><time>2026-04-08T08:28:08Z</time></trkpt><trkpt lat="43.15228587584227" lon="11.433288635509294"><ele>178.0</ele><time>2026-04-08T08:28:09Z</time></trkpt><trkpt lat="43.15237486190229" lon="11.433178595469007"><ele>178.4</ele><time>2026-04-08T08:28:10Z</time></trkpt><trkpt lat="43.152440170429536" lon="11.43306351344632"><ele>178.8</ele><time>2026-04-08T08:28:11Z</time></trkpt><trkpt lat="43.152517972133346" lon="11.432987250671928"><ele>179.2</ele><time>2026-04-08T08:28:12Z</time></trkpt><trkpt lat="43.152593246569175" lon="11.432970152428918"><ele>179.6</ele><time>2026-04-08T08:28:13Z</time></trkpt><trkpt lat="43.15271570266915" lon="11.432996981633314"><ele>180.0</ele><time>2026-04-08T08:28:15Z</time></trkpt><trkpt lat="43.15276899336735" lon="11.433075790342851"><ele>178.2</ele><time>2026-04-08T08:28:16Z</time></trkpt><trkpt lat="43.15278466128739" lon="11.433174819433571"><ele>176.4</ele><time>2026-04-08T08:28:17Z</time></trkpt><trkpt lat="43.15277307576772" lon="11.43328349154383"><ele>174.60000000000002</ele><time>2026-04-08T08:28:18Z</time></trkpt><trkpt lat="43.152708486357305" lon="11.433384797138897"><ele>172.8</ele><time>2026-04-08T08:28:19Z</time></trkpt><trkpt lat="43.152635158799434" lon="11.433475438245775"><ele>171.0</ele><time>2026-04-08T08:28:20Z</time></trkpt><trkpt lat="43.15256135902843" lon="11.433573624442396"><ele>171.0</ele><time>2026-04-08T08:28:21Z</time></trkpt><trkpt lat="43.15247969943897" lon="11.433662707320233"><ele>171.0</ele><time>2026-04-08T08:28:22Z</time></trkpt><trkpt lat="43.15239362689981" lon="11.43377127643497"><ele>171.0</ele><time>2026-04-08T08:28:23Z</time></trkpt><trkpt lat="43.15228970617732" lon="11.433898858751967"><ele>171.0</ele><time>2026-04-08T08:28:24Z</time></trkpt><trkpt lat="43.15217988886474" lon="11.434031775765922"><ele>170.25</ele><time>2026-04-08T08:28:25Z</time></trkpt><trkpt lat="43.15208317515881" lon="11.43415053368605"><ele>169.5</ele><time>2026-04-08T08:28:26Z</time></trkpt><trkpt lat="43.15199776917067" lon="11.43425753867491"><ele>168.75</ele><time>2026-04-08T08:28:27Z</time></trkpt><trkpt lat="43.15191480839986" lon="11.43435278134301"><ele>168.0</ele><time>2026-04-08T08:28:28Z</time></trkpt><trkpt lat="43.15183200954726" lon="11.434449140036536"><ele>168.0</ele><time>2026-04-08T08:28:29Z</time></trkpt><trkpt lat="43.151754890877605" lon="11.434539905705542"><ele>168.0</ele><time>2026-04-08T08:28:30Z</time></trkpt><trkpt lat="43.15168885757768" lon="11.434631397567877"><ele>168.0</ele><time>2026-04-08T08:28:31Z</time></trkpt><trkpt lat="43.15162963386181" lon="11.434731818672093"><ele>168.0</ele><time>2026-04-08T08:28:32Z</time></trkpt><trkpt lat="43.15158574156927" lon="11.434850157867105"><ele>168.0</ele><time>2026-04-08T08:28:33Z</time></trkpt><trkpt lat="43.1515532165929" lon="11.435001537448406"><ele>165.75</ele><time>2026-04-08T08:28:34Z</time></trkpt><trkpt lat="43.15154525549437" lon="11.435164916198184"><ele>163.5</ele><time>2026-04-08T08:28:35Z</time></trkpt><trkpt lat="43.15156134384455" lon="11.435339818561792"><ele>161.25</ele><time>2026-04-08T08:28:36Z</time></trkpt><trkpt lat="43.15159906803551" lon="11.435542244368417"><ele>159.0</ele><time>2026-04-08T08:28:37Z</time></trkpt><trkpt lat="43.15163517953637" lon="11.435762450653797"><ele>158.33333333333334</ele><time>2026-04-08T08:28:38Z</time></trkpt><trkpt lat="43.151671816076195" lon="11.435997317983325"><ele>157.66666666666669</ele><time>2026-04-08T08:28:39Z</time></trkpt><trkpt lat="43.151702507285265" lon="11.436202466342136"><ele>157.0</ele><time>2026-04-08T08:28:40Z</time></trkpt><trkpt lat="43.151732811770785" lon="11.436395273532122"><ele>156.33333333333334</ele><time>2026-04-08T08:28:41Z</time></trkpt><trkpt lat="43.15176577336965" lon="11.436599981980834"><ele>155.66666666666666</ele><time>2026-04-08T08:28:42Z</time></trkpt><trkpt lat="43.151796859595095" lon="11.436829494694909"><ele>155.0</ele><time>2026-04-08T08:28:43Z</time></trkpt><trkpt lat="43.15183259357645" lon="11.437065829344206"><ele>155.33333333333331</ele><time>2026-04-08T08:28:44Z</time></trkpt><trkpt lat="43.151865217123415" lon="11.437293863360843"><ele>155.66666666666666</ele><time>2026-04-08T08:28:45Z</time></trkpt><trkpt lat="43.15189214681769" lon="11.437492359718897"><ele>156.0</ele><time>2026-04-08T08:28:46Z</time></trkpt><trkpt lat="43.151921691026985" lon="11.43768022749683"><ele>156.0</ele><time>2026-04-08T08:28:47Z</time></trkpt><trkpt lat="43.151952147075114" lon="11.437868328641128"><ele>156.0</ele><time>2026-04-08T08:28:48Z</time></trkpt><trkpt lat="43.151977755254755" lon="11.43805749926399"><ele>156.0</ele><time>2026-04-08T08:28:48.999Z</time></trkpt><trkpt lat="43.152000660232545" lon="11.43822345465245"><ele>156.0</ele><time>2026-04-08T08:28:49.999Z</time></trkpt><trkpt lat="43.152009311182866" lon="11.438373514588964"><ele>157.0</ele><time>2026-04-08T08:28:50.999Z</time></trkpt><trkpt lat="43.151993029497724" lon="11.438512299174878"><ele>158.0</ele><time>2026-04-08T08:28:51.999Z</time></trkpt><trkpt lat="43.15195665100063" lon="11.438639101985107"><ele>159.0</ele><time>2026-04-08T08:28:52.999Z</time></trkpt><trkpt lat="43.15190327524996" lon="11.43876419371479"><ele>160.0</ele><time>2026-04-08T08:28:53.999Z</time></trkpt><trkpt lat="43.15182871999131" lon="11.438891859506215"><ele>161.0</ele><time>2026-04-08T08:28:54.999Z</time></trkpt><trkpt lat="43.15173871696697" lon="11.439021672354006"><ele>162.0</ele><time>2026-04-08T08:28:55.999Z</time></trkpt><trkpt lat="43.15164540065409" lon="11.439172213886781"><ele>163.0</ele><time>2026-04-08T08:28:56.999Z</time></trkpt><trkpt lat="43.15154470265376" lon="11.439346296122377"><ele>164.0</ele><time>2026-04-08T08:28:57.999Z</time></trkpt><trkpt lat="43.151444691879696" lon="11.43951478770646"><ele>163.5</ele><time>2026-04-08T08:28:58.999Z</time></trkpt><trkpt lat="43.15136044227898" lon="11.439661710057328"><ele>163.0</ele><time>2026-04-08T08:28:59.999Z</time></trkpt><trkpt lat="43.151287466897536" lon="11.43980820847341"><ele>162.5</ele><time>2026-04-08T08:29:00.999Z</time></trkpt><trkpt lat="43.15120824289857" lon="11.43997470867119"><ele>162.0</ele><time>2026-04-08T08:29:01.999Z</time></trkpt><trkpt lat="43.15113266490212" lon="11.44014158975259"><ele>162.0</ele><time>2026-04-08T08:29:02.999Z</time></trkpt><trkpt lat="43.15107208769718" lon="11.440298139458529"><ele>162.0</ele><time>2026-04-08T08:29:03.999Z</time></trkpt><trkpt lat="43.15102297416642" lon="11.440446968676696"><ele>162.0</ele><time>2026-04-08T08:29:04.999Z</time></trkpt><trkpt lat="43.15096337484916" lon="11.440593795085956"><ele>162.0</ele><time>2026-04-08T08:29:05.999Z</time></trkpt><trkpt lat="43.15087992094756" lon="11.440716788771814"><ele>162.33333333333334</ele><time>2026-04-08T08:29:06.999Z</time></trkpt><trkpt lat="43.150752797212256" lon="11.44082381807859"><ele>162.66666666666669</ele><time>2026-04-08T08:29:07.999Z</time></trkpt><trkpt lat="43.15060856501155" lon="11.440931812614306"><ele>163.0</ele><time>2026-04-08T08:29:08.999Z</time></trkpt><trkpt lat="43.15045924267496" lon="11.441049222071078"><ele>163.0</ele><time>2026-04-08T08:29:09.999Z</time></trkpt><trkpt lat="43.15031003158783" lon="11.44119208544554"><ele>163.0</ele><time>2026-04-08T08:29:10.999Z</time></trkpt><trkpt lat="43.150163528863494" lon="11.441306399232513"><ele>163.0</ele><time>2026-04-08T08:29:11.999Z</time></trkpt><trkpt lat="43.150037067344975" lon="11.441409022304885"><ele>163.0</ele><time>2026-04-08T08:29:12.999Z</time></trkpt><trkpt lat="43.149902066887876" lon="11.441519944135798"><ele>163.0</ele><time>2026-04-08T08:29:13.999Z</time></trkpt><trkpt lat="43.14974874616628" lon="11.441640604057259"><ele>163.0</ele><time>2026-04-08T08:29:14.999Z</time></trkpt><trkpt lat="43.14958726668463" lon="11.441767489048086"><ele>163.0</ele><time>2026-04-08T08:29:15.999Z</time></trkpt><trkpt lat="43.14944150803305" lon="11.441867507997125"><ele>163.0</ele><time>2026-04-08T08:29:16.999Z</time></trkpt><trkpt lat="43.14931601147875" lon="11.441968988058399"><ele>163.0</ele><time>2026-04-08T08:29:17.999Z</time></trkpt><trkpt lat="43.14920274557133" lon="11.442060696954261"><ele>163.0</ele><time>2026-04-08T08:29:18.999Z</time></trkpt><trkpt lat="43.14908638775858" lon="11.442183646953868"><ele>163.25</ele><time>2026-04-08T08:29:19.999Z</time></trkpt><trkpt lat="43.14897554810983" lon="11.442279739284663"><ele>163.5</ele><time>2026-04-08T08:29:20.999Z</time></trkpt><trkpt lat="43.148865262068206" lon="11.442371054155315"><ele>163.75</ele><time>2026-04-08T08:29:21.999Z</time></trkpt><trkpt lat="43.1487516391649" lon="11.442483761694128"><ele>164.0</ele><time>2026-04-08T08:29:22.999Z</time></trkpt><trkpt lat="43.1486443889955" lon="11.442619621045433"><ele>164.0</ele><time>2026-04-08T08:29:23.999Z</time></trkpt><trkpt lat="43.148544756573415" lon="11.442777533174786"><ele>164.0</ele><time>2026-04-08T08:29:24.999Z</time></trkpt><trkpt lat="43.148445350287645" lon="11.442905197699911"><ele>164.0</ele><time>2026-04-08T08:29:25.999Z</time></trkpt><trkpt lat="43.14836463407137" lon="11.44302762874118"><ele>164.0</ele><time>2026-04-08T08:29:26.999Z</time></trkpt><trkpt lat="43.14828937639401" lon="11.44317021447954"><ele>163.79999999999998</ele><time>2026-04-08T08:29:27.999Z</time></trkpt><trkpt lat="43.14820383818153" lon="11.443291435961005"><ele>163.6</ele><time>2026-04-08T08:29:28.999Z</time></trkpt><trkpt lat="43.148129960382605" lon="11.443406853134555"><ele>163.4</ele><time>2026-04-08T08:29:29.999Z</time></trkpt><trkpt lat="43.14807833307787" lon="11.44351786897033"><ele>163.2</ele><time>2026-04-08T08:29:30.999Z</time></trkpt><trkpt lat="43.1480451612651" lon="11.443640999716646"><ele>163.0</ele><time>2026-04-08T08:29:31.999Z</time></trkpt><trkpt lat="43.14801657167504" lon="11.443762207286717"><ele>163.2</ele><time>2026-04-08T08:29:32.999Z</time></trkpt><trkpt lat="43.14805391659221" lon="11.443908850938307"><ele>163.4</ele><time>2026-04-08T08:29:33.999Z</time></trkpt><trkpt lat="43.14810457269723" lon="11.444051429891413"><ele>163.6</ele><time>2026-04-08T08:29:34.999Z</time></trkpt><trkpt lat="43.14816504380803" lon="11.44419596889786"><ele>163.79999999999998</ele><time>2026-04-08T08:29:35.999Z</time></trkpt><trkpt lat="43.14819536609596" lon="11.444314642123986"><ele>164.0</ele><time>2026-04-08T08:29:36.999Z</time></trkpt><trkpt lat="43.148204415239285" lon="11.44443731053561"><ele>164.0</ele><time>2026-04-08T08:29:37.999Z</time></trkpt><trkpt lat="43.14820363775887" lon="11.444571801109287"><ele>164.0</ele><time>2026-04-08T08:29:38.999Z</time></trkpt><trkpt lat="43.14816259078944" lon="11.444697948083855"><ele>164.0</ele><time>2026-04-08T08:29:39.999Z</time></trkpt><trkpt lat="43.14809588382085" lon="11.444777384496932"><ele>164.0</ele><time>2026-04-08T08:29:40.999Z</time></trkpt><trkpt lat="43.14800452709528" lon="11.444800231960514"><ele>164.0</ele><time>2026-04-08T08:29:41.999Z</time></trkpt><trkpt lat="43.14790882561572" lon="11.44479515676863"><ele>164.0</ele><time>2026-04-08T08:29:42.999Z</time></trkpt><trkpt lat="43.14779665181429" lon="11.444753324159883"><ele>164.0</ele><time>2026-04-08T08:29:43.999Z</time></trkpt><trkpt lat="43.14766250015167" lon="11.444685421935699"><ele>164.0</ele><time>2026-04-08T08:29:44.999Z</time></trkpt><trkpt lat="43.147494918897806" lon="11.444613321671554"><ele>164.0</ele><time>2026-04-08T08:29:45.999Z</time></trkpt><trkpt lat="43.14733232637551" lon="11.444569161026612"><ele>163.5</ele><time>2026-04-08T08:29:46.999Z</time></trkpt><trkpt lat="43.14720127481016" lon="11.444540777622372"><ele>163.0</ele><time>2026-04-08T08:29:47.999Z</time></trkpt><trkpt lat="43.14706726729216" lon="11.444520403177973"><ele>162.5</ele><time>2026-04-08T08:29:48.999Z</time></trkpt><trkpt lat="43.14695061232507" lon="11.444504570388968"><ele>162.0</ele><time>2026-04-08T08:29:49.999Z</time></trkpt><trkpt lat="43.14684470730393" lon="11.444501726676041"><ele>162.0</ele><time>2026-04-08T08:29:50.999Z</time></trkpt><trkpt lat="43.146736217075876" lon="11.444511635630032"><ele>162.0</ele><time>2026-04-08T08:29:51.999Z</time></trkpt><trkpt lat="43.146623847661296" lon="11.444534305368732"><ele>162.0</ele><time>2026-04-08T08:29:53Z</time></trkpt><trkpt lat="43.14652233247776" lon="11.444562755461424"><ele>162.0</ele><time>2026-04-08T08:29:54Z</time></trkpt><trkpt lat="43.14642682228224" lon="11.444595835733015"><ele>162.0</ele><time>2026-04-08T08:29:55Z</time></trkpt><trkpt lat="43.146347583598576" lon="11.444642208431455"><ele>162.0</ele><time>2026-04-08T08:29:56Z</time></trkpt><trkpt lat="43.146276068026744" lon="11.444696404075074"><ele>162.0</ele><time>2026-04-08T08:29:57Z</time></trkpt><trkpt lat="43.146215234176864" lon="11.444785560056193"><ele>162.0</ele><time>2026-04-08T08:29:58Z</time></trkpt><trkpt lat="43.146168054878025" lon="11.444887666431905"><ele>162.0</ele><time>2026-04-08T08:29:59Z</time></trkpt><trkpt lat="43.146129666337735" lon="11.445012588020681"><ele>162.0</ele><time>2026-04-08T08:30:00Z</time></trkpt><trkpt lat="43.14610659770268" lon="11.445133766505172"><ele>162.0</ele><time>2026-04-08T08:30:01Z</time></trkpt><trkpt lat="43.14609576450545" lon="11.445243532855194"><ele>162.0</ele><time>2026-04-08T08:30:02Z</time></trkpt><trkpt lat="43.14610580690871" lon="11.445376422504864"><ele>162.0</ele><time>2026-04-08T08:30:03Z</time></trkpt><trkpt lat="43.146152353574905" lon="11.445525754368123"><ele>162.0</ele><time>2026-04-08T08:30:04Z</time></trkpt><trkpt lat="43.14617363715641" lon="11.44570528142721"><ele>162.0</ele><time>2026-04-08T08:30:05Z</time></trkpt><trkpt lat="43.146235379029235" lon="11.445900212730852"><ele>161.75</ele><time>2026-04-08T08:30:06Z</time></trkpt><trkpt lat="43.14627475897546" lon="11.446078683820879"><ele>161.5</ele><time>2026-04-08T08:30:07Z</time></trkpt><trkpt lat="43.14631947687934" lon="11.446247447342781"><ele>161.25</ele><time>2026-04-08T08:30:08Z</time></trkpt><trkpt lat="43.14635931342123" lon="11.44639765028784"><ele>161.0</ele><time>2026-04-08T08:30:09Z</time></trkpt><trkpt lat="43.14638831447295" lon="11.446521073150587"><ele>161.83333333333331</ele><time>2026-04-08T08:30:10Z</time></trkpt><trkpt lat="43.146413640676464" lon="11.446637553130543"><ele>162.66666666666666</ele><time>2026-04-08T08:30:11Z</time></trkpt><trkpt lat="43.14642216337765" lon="11.446741199776893"><ele>163.5</ele><time>2026-04-08T08:30:12Z</time></trkpt><trkpt lat="43.14640512836788" lon="11.44683763681979"><ele>164.33333333333334</ele><time>2026-04-08T08:30:13Z</time></trkpt><trkpt lat="43.1463529891018" lon="11.446915322694682"><ele>165.16666666666669</ele><time>2026-04-08T08:30:14Z</time></trkpt><trkpt lat="43.146285357839325" lon="11.44694836264151"><ele>166.0</ele><time>2026-04-08T08:30:15Z</time></trkpt><trkpt lat="43.14619859895793" lon="11.446894385410472"><ele>166.0</ele><time>2026-04-08T08:30:16Z</time></trkpt><trkpt lat="43.146094553612905" lon="11.44686790661598"><ele>166.0</ele><time>2026-04-08T08:30:17Z</time></trkpt><trkpt lat="43.1459922974829" lon="11.446854939126451"><ele>166.0</ele><time>2026-04-08T08:30:18Z</time></trkpt><trkpt lat="43.14588649744744" lon="11.446865997735317"><ele>166.0</ele><time>2026-04-08T08:30:19Z</time></trkpt><trkpt lat="43.14577233165023" lon="11.4468610524778"><ele>166.0</ele><time>2026-04-08T08:30:20Z</time></trkpt><trkpt lat="43.145651990123774" lon="11.446850873293434"><ele>166.4</ele><time>2026-04-08T08:30:21Z</time></trkpt><trkpt lat="43.145547447214206" lon="11.446898368606668"><ele>166.8</ele><time>2026-04-08T08:30:22Z</time></trkpt><trkpt lat="43.145451024636316" lon="11.446918064408056"><ele>167.20000000000002</ele><time>2026-04-08T08:30:23Z</time></trkpt><trkpt lat="43.14536057899624" lon="11.446976933329259"><ele>167.60000000000002</ele><time>2026-04-08T08:30:24Z</time></trkpt><trkpt lat="43.145267633344474" lon="11.447106778924413"><ele>168.0</ele><time>2026-04-08T08:30:25Z</time></trkpt><trkpt lat="43.14514673769245" lon="11.44721706297817"><ele>168.0</ele><time>2026-04-08T08:30:26Z</time></trkpt><trkpt lat="43.145066144521756" lon="11.447316367765117"><ele>168.0</ele><time>2026-04-08T08:30:27Z</time></trkpt><trkpt lat="43.14501316534925" lon="11.447413062991021"><ele>168.0</ele><time>2026-04-08T08:30:28Z</time></trkpt><trkpt lat="43.144965156554704" lon="11.447476878779307"><ele>168.0</ele><time>2026-04-08T08:30:29Z</time></trkpt><trkpt lat="43.144903796251754" lon="11.447614064388446"><ele>168.0</ele><time>2026-04-08T08:30:31Z</time></trkpt><trkpt lat="43.144874744140914" lon="11.447747895327423"><ele>167.8</ele><time>2026-04-08T08:30:33Z</time></trkpt><trkpt lat="43.144856792691634" lon="11.447843871441473"><ele>167.60000000000002</ele><time>2026-04-08T08:30:36Z</time></trkpt><trkpt lat="43.144864540299054" lon="11.447962666144074"><ele>167.39999999999998</ele><time>2026-04-08T08:34:26Z</time></trkpt><trkpt lat="43.14487322345043" lon="11.448142745250214"><ele>167.2</ele><time>2026-04-08T08:34:28Z</time></trkpt><trkpt lat="43.144872828960395" lon="11.448240021982608"><ele>167.0</ele><time>2026-04-08T08:34:29Z</time></trkpt><trkpt lat="43.14483933733777" lon="11.448368449439432"><ele>167.0</ele><time>2026-04-08T08:34:31Z</time></trkpt><trkpt lat="43.14476443372515" lon="11.44849611266434"><ele>167.0</ele><time>2026-04-08T08:34:33Z</time></trkpt><trkpt lat="43.14470034713765" lon="11.448542537038243"><ele>167.0</ele><time>2026-04-08T08:34:34Z</time></trkpt><trkpt lat="43.14462716070533" lon="11.448565059222146"><ele>167.0</ele><time>2026-04-08T08:34:35Z</time></trkpt><trkpt lat="43.144548715378335" lon="11.448571654943217"><ele>167.0</ele><time>2026-04-08T08:34:36Z</time></trkpt><trkpt lat="43.144462197264744" lon="11.448572280301798"><ele>167.0</ele><time>2026-04-08T08:34:37Z</time></trkpt><trkpt lat="43.14436148560255" lon="11.448560607087403"><ele>167.0</ele><time>2026-04-08T08:34:38Z</time></trkpt><trkpt lat="43.1442538660518" lon="11.448533083218368"><ele>167.0</ele><time>2026-04-08T08:34:39Z</time></trkpt><trkpt lat="43.14413487091736" lon="11.448486325777063"><ele>167.0</ele><time>2026-04-08T08:34:40Z</time></trkpt><trkpt lat="43.144008825507484" lon="11.448432137969167"><ele>167.0</ele><time>2026-04-08T08:34:41Z</time></trkpt><trkpt lat="43.143888797009694" lon="11.448369827849568"><ele>168.25</ele><time>2026-04-08T08:34:42Z</time></trkpt><trkpt lat="43.14377299814187" lon="11.448292999057948"><ele>169.5</ele><time>2026-04-08T08:34:43Z</time></trkpt><trkpt lat="43.14365446808778" lon="11.44821070854983"><ele>170.75</ele><time>2026-04-08T08:34:44Z</time></trkpt><trkpt lat="43.14354741175306" lon="11.448138929066452"><ele>172.0</ele><time>2026-04-08T08:34:45Z</time></trkpt><trkpt lat="43.14343657893703" lon="11.448063665375726"><ele>172.0</ele><time>2026-04-08T08:34:46Z</time></trkpt><trkpt lat="43.1433246220257" lon="11.447983427945646"><ele>172.0</ele><time>2026-04-08T08:34:47Z</time></trkpt><trkpt lat="43.14322659702198" lon="11.447907089506243"><ele>172.0</ele><time>2026-04-08T08:34:48Z</time></trkpt><trkpt lat="43.14313692856736" lon="11.447847271433591"><ele>172.0</ele><time>2026-04-08T08:34:49Z</time></trkpt><trkpt lat="43.1430443602504" lon="11.44778297649992"><ele>172.0</ele><time>2026-04-08T08:34:50Z</time></trkpt><trkpt lat="43.142943888412574" lon="11.447739011817363"><ele>169.75</ele><time>2026-04-08T08:34:51Z</time></trkpt><trkpt lat="43.14283409695692" lon="11.447700910248146"><ele>167.5</ele><time>2026-04-08T08:34:52Z</time></trkpt><trkpt lat="43.14271619895985" lon="11.447684008361023"><ele>165.25</ele><time>2026-04-08T08:34:53Z</time></trkpt><trkpt lat="43.14259512387486" lon="11.44768011005613"><ele>163.0</ele><time>2026-04-08T08:34:54Z</time></trkpt><trkpt lat="43.14245592832618" lon="11.447715121779211"><ele>162.66666666666669</ele><time>2026-04-08T08:34:55Z</time></trkpt><trkpt lat="43.14230262706546" lon="11.447756097207222"><ele>162.33333333333334</ele><time>2026-04-08T08:34:56Z</time></trkpt><trkpt lat="43.14214159327839" lon="11.447807697356845"><ele>162.0</ele><time>2026-04-08T08:34:57Z</time></trkpt><trkpt lat="43.141998266924105" lon="11.447853653086556"><ele>162.0</ele><time>2026-04-08T08:34:58Z</time></trkpt><trkpt lat="43.14187127885457" lon="11.447902781414879"><ele>162.0</ele><time>2026-04-08T08:34:59Z</time></trkpt><trkpt lat="43.141738871824835" lon="11.447925485558443"><ele>162.0</ele><time>2026-04-08T08:35:00Z</time></trkpt><trkpt lat="43.141614503898985" lon="11.447989419398601"><ele>162.0</ele><time>2026-04-08T08:35:01Z</time></trkpt><trkpt lat="43.14147546882992" lon="11.448017992220354"><ele>164.25</ele><time>2026-04-08T08:35:02Z</time></trkpt><trkpt lat="43.141340767393665" lon="11.448052201494637"><ele>166.5</ele><time>2026-04-08T08:35:03Z</time></trkpt><trkpt lat="43.14121309533981" lon="11.448075456415964"><ele>168.75</ele><time>2026-04-08T08:35:04Z</time></trkpt><trkpt lat="43.14107195742741" lon="11.448098503328138"><ele>171.0</ele><time>2026-04-08T08:35:05Z</time></trkpt><trkpt lat="43.14092276243682" lon="11.448127915323045"><ele>171.0</ele><time>2026-04-08T08:35:06Z</time></trkpt><trkpt lat="43.140771903644506" lon="11.448154807581508"><ele>171.0</ele><time>2026-04-08T08:35:07Z</time></trkpt><trkpt lat="43.140648047829146" lon="11.448169409808672"><ele>171.0</ele><time>2026-04-08T08:35:08Z</time></trkpt><trkpt lat="43.14053993066765" lon="11.448178268219682"><ele>171.0</ele><time>2026-04-08T08:35:09Z</time></trkpt><trkpt lat="43.14044305251305" lon="11.448157605938597"><ele>170.4</ele><time>2026-04-08T08:35:10Z</time></trkpt><trkpt lat="43.14033777292858" lon="11.448117125071821"><ele>169.8</ele><time>2026-04-08T08:35:11Z</time></trkpt><trkpt lat="43.140223744162384" lon="11.448071721347938"><ele>169.20000000000002</ele><time>2026-04-08T08:35:12Z</time></trkpt><trkpt lat="43.14012212176944" lon="11.448028825956408"><ele>168.60000000000002</ele><time>2026-04-08T08:35:13Z</time></trkpt><trkpt lat="43.14003719328179" lon="11.447988905030268"><ele>168.0</ele><time>2026-04-08T08:35:14Z</time></trkpt><trkpt lat="43.139958900492296" lon="11.447947269553655"><ele>167.66666666666666</ele><time>2026-04-08T08:35:15Z</time></trkpt><trkpt lat="43.13990175747025" lon="11.447880642980202"><ele>167.33333333333334</ele><time>2026-04-08T08:35:16Z</time></trkpt><trkpt lat="43.13983287811675" lon="11.447851195452683"><ele>167.0</ele><time>2026-04-08T08:35:17Z</time></trkpt><trkpt lat="43.13971799937149" lon="11.447790797214362"><ele>166.66666666666669</ele><time>2026-04-08T08:35:19Z</time></trkpt><trkpt lat="43.139645728810756" lon="11.447786322008584"><ele>166.33333333333334</ele><time>2026-04-08T08:35:20Z</time></trkpt><trkpt lat="43.13956972507111" lon="11.447801882387154"><ele>166.0</ele><time>2026-04-08T08:35:20.999Z</time></trkpt><trkpt lat="43.139493886820446" lon="11.447853992838535"><ele>164.8</ele><time>2026-04-08T08:35:21.999Z</time></trkpt><trkpt lat="43.13942089756892" lon="11.447926361617354"><ele>163.60000000000002</ele><time>2026-04-08T08:35:22.999Z</time></trkpt><trkpt lat="43.1393673249418" lon="11.448028365571421"><ele>162.4</ele><time>2026-04-08T08:35:23.999Z</time></trkpt><trkpt lat="43.139334388625684" lon="11.448149071718044"><ele>161.2</ele><time>2026-04-08T08:35:24.999Z</time></trkpt><trkpt lat="43.13931273972877" lon="11.448287186557653"><ele>160.0</ele><time>2026-04-08T08:35:25.999Z</time></trkpt><trkpt lat="43.139294932156126" lon="11.44848030231643"><ele>160.0</ele><time>2026-04-08T08:35:26.999Z</time></trkpt><trkpt lat="43.13927936828321" lon="11.448678524583348"><ele>160.0</ele><time>2026-04-08T08:35:27.999Z</time></trkpt><trkpt lat="43.1392687631359" lon="11.44885706294907"><ele>160.0</ele><time>2026-04-08T08:35:28.999Z</time></trkpt><trkpt lat="43.13926611841048" lon="11.449050399891632"><ele>160.0</ele><time>2026-04-08T08:35:29.999Z</time></trkpt><trkpt lat="43.139263035747156" lon="11.44925957123851"><ele>160.0</ele><time>2026-04-08T08:35:30.999Z</time></trkpt><trkpt lat="43.13926029305896" lon="11.44946307699976"><ele>160.0</ele><time>2026-04-08T08:35:31.999Z</time></trkpt><trkpt lat="43.13925458293438" lon="11.449642879957105"><ele>160.0</ele><time>2026-04-08T08:35:32.999Z</time></trkpt><trkpt lat="43.13925524970982" lon="11.449810052228484"><ele>160.0</ele><time>2026-04-08T08:35:33.999Z</time></trkpt><trkpt lat="43.13925108081922" lon="11.449979382957618"><ele>160.0</ele><time>2026-04-08T08:35:34.999Z</time></trkpt><trkpt lat="43.13926114752624" lon="11.45013336532911"><ele>160.0</ele><time>2026-04-08T08:35:35.999Z</time></trkpt><trkpt lat="43.13927016950866" lon="11.45029473587237"><ele>160.0</ele><time>2026-04-08T08:35:36.999Z</time></trkpt><trkpt lat="43.1392761004425" lon="11.450442986231957"><ele>160.0</ele><time>2026-04-08T08:35:37.999Z</time></trkpt><trkpt lat="43.139273063256525" lon="11.450594012779566"><ele>160.0</ele><time>2026-04-08T08:35:38.999Z</time></trkpt><trkpt lat="43.13925263340965" lon="11.450741168141086"><ele>160.4</ele><time>2026-04-08T08:35:39.999Z</time></trkpt><trkpt lat="43.139217429496945" lon="11.450871205232293"><ele>160.8</ele><time>2026-04-08T08:35:40.999Z</time></trkpt><trkpt lat="43.13916383355052" lon="11.450996339203925"><ele>161.2</ele><time>2026-04-08T08:35:41.999Z</time></trkpt><trkpt lat="43.139109704160695" lon="11.451114814808875"><ele>161.6</ele><time>2026-04-08T08:35:42.999Z</time></trkpt><trkpt lat="43.139058400968494" lon="11.451210756446686"><ele>162.0</ele><time>2026-04-08T08:35:43.999Z</time></trkpt><trkpt lat="43.13900680236122" lon="11.451318797204154"><ele>160.6</ele><time>2026-04-08T08:35:44.999Z</time></trkpt><trkpt lat="43.13895418135266" lon="11.45143181801882"><ele>159.2</ele><time>2026-04-08T08:35:45.999Z</time></trkpt><trkpt lat="43.13889986960712" lon="11.451549928865107"><ele>157.8</ele><time>2026-04-08T08:35:46.999Z</time></trkpt><trkpt lat="43.13883708581404" lon="11.451674600581415"><ele>156.4</ele><time>2026-04-08T08:35:47.999Z</time></trkpt><trkpt lat="43.13876600595109" lon="11.451801588177572"><ele>155.0</ele><time>2026-04-08T08:35:48.999Z</time></trkpt><trkpt lat="43.138690466022204" lon="11.4519311176737"><ele>155.0</ele><time>2026-04-08T08:35:49.999Z</time></trkpt><trkpt lat="43.13860729334069" lon="11.452067532400973"><ele>155.0</ele><time>2026-04-08T08:35:50.999Z</time></trkpt><trkpt lat="43.13852548674346" lon="11.452190708259241"><ele>155.0</ele><time>2026-04-08T08:35:51.999Z</time></trkpt><trkpt lat="43.13844705771317" lon="11.452295623906245"><ele>155.0</ele><time>2026-04-08T08:35:52.999Z</time></trkpt><trkpt lat="43.1383728599341" lon="11.452392396935078"><ele>154.6</ele><time>2026-04-08T08:35:53.999Z</time></trkpt><trkpt lat="43.13829196411031" lon="11.452483463559917"><ele>154.2</ele><time>2026-04-08T08:35:54.999Z</time></trkpt><trkpt lat="43.13821631069605" lon="11.452553546694928"><ele>153.8</ele><time>2026-04-08T08:35:55.999Z</time></trkpt><trkpt lat="43.138131832748165" lon="11.45263014986978"><ele>153.4</ele><time>2026-04-08T08:35:56.999Z</time></trkpt><trkpt lat="43.13802075839127" lon="11.452715741042768"><ele>153.0</ele><time>2026-04-08T08:35:57.999Z</time></trkpt><trkpt lat="43.137888805545444" lon="11.45280196047098"><ele>153.0</ele><time>2026-04-08T08:35:58.999Z</time></trkpt><trkpt lat="43.137767818485614" lon="11.45287667059774"><ele>153.0</ele><time>2026-04-08T08:35:59.999Z</time></trkpt><trkpt lat="43.137663879952626" lon="11.452947355849233"><ele>153.0</ele><time>2026-04-08T08:36:00.999Z</time></trkpt><trkpt lat="43.13755500202752" lon="11.453008412834503"><ele>153.0</ele><time>2026-04-08T08:36:01.999Z</time></trkpt><trkpt lat="43.137461324745885" lon="11.453066677891679"><ele>153.0</ele><time>2026-04-08T08:36:02.999Z</time></trkpt><trkpt lat="43.13737034927871" lon="11.453125775906065"><ele>153.0</ele><time>2026-04-08T08:36:03.999Z</time></trkpt><trkpt lat="43.13727582109681" lon="11.453200977394522"><ele>153.0</ele><time>2026-04-08T08:36:04.999Z</time></trkpt><trkpt lat="43.1371784144788" lon="11.453301672109077"><ele>153.0</ele><time>2026-04-08T08:36:05.999Z</time></trkpt><trkpt lat="43.137066246829704" lon="11.45341492014167"><ele>153.0</ele><time>2026-04-08T08:36:06.999Z</time></trkpt><trkpt lat="43.13694337855776" lon="11.45354622729648"><ele>153.0</ele><time>2026-04-08T08:36:07.999Z</time></trkpt><trkpt lat="43.13683442018153" lon="11.453657130612909"><ele>153.0</ele><time>2026-04-08T08:36:08.999Z</time></trkpt><trkpt lat="43.136739479493116" lon="11.453761515433007"><ele>153.0</ele><time>2026-04-08T08:36:09.999Z</time></trkpt><trkpt lat="43.136639993706865" lon="11.453868714730946"><ele>152.5</ele><time>2026-04-08T08:36:11Z</time></trkpt><trkpt lat="43.13654595779913" lon="11.453992719102391"><ele>152.0</ele><time>2026-04-08T08:36:12Z</time></trkpt><trkpt lat="43.1364530480895" lon="11.454126589297756"><ele>151.5</ele><time>2026-04-08T08:36:13Z</time></trkpt><trkpt lat="43.13636121875109" lon="11.454274584957092"><ele>151.0</ele><time>2026-04-08T08:36:14Z</time></trkpt><trkpt lat="43.136268300728986" lon="11.454437552763672"><ele>151.0</ele><time>2026-04-08T08:36:15Z</time></trkpt><trkpt lat="43.136179854384686" lon="11.454610873993168"><ele>151.0</ele><time>2026-04-08T08:36:16Z</time></trkpt><trkpt lat="43.13609909438487" lon="11.45478247008162"><ele>151.0</ele><time>2026-04-08T08:36:17Z</time></trkpt><trkpt lat="43.13603421613857" lon="11.454932341465152"><ele>151.0</ele><time>2026-04-08T08:36:18Z</time></trkpt><trkpt lat="43.13597362629564" lon="11.455079900086552"><ele>151.25</ele><time>2026-04-08T08:36:19Z</time></trkpt><trkpt lat="43.13590597489163" lon="11.4552330150492"><ele>151.5</ele><time>2026-04-08T08:36:20Z</time></trkpt><trkpt lat="43.13582742278761" lon="11.455386478546426"><ele>151.75</ele><time>2026-04-08T08:36:21Z</time></trkpt><trkpt lat="43.135746284286" lon="11.455522456541967"><ele>152.0</ele><time>2026-04-08T08:36:22Z</time></trkpt><trkpt lat="43.135657879031456" lon="11.45563758306717"><ele>152.0</ele><time>2026-04-08T08:36:23Z</time></trkpt><trkpt lat="43.13554467115002" lon="11.455749831215112"><ele>152.0</ele><time>2026-04-08T08:36:24Z</time></trkpt><trkpt lat="43.1354296047664" lon="11.455863501986647"><ele>152.0</ele><time>2026-04-08T08:36:25Z</time></trkpt><trkpt lat="43.13530643594584" lon="11.455983135589642"><ele>152.0</ele><time>2026-04-08T08:36:26Z</time></trkpt><trkpt lat="43.135180312269476" lon="11.456108431039564"><ele>152.0</ele><time>2026-04-08T08:36:27Z</time></trkpt><trkpt lat="43.135071616887224" lon="11.45622175731881"><ele>152.0</ele><time>2026-04-08T08:36:28Z</time></trkpt><trkpt lat="43.13496556629873" lon="11.456329696906085"><ele>152.0</ele><time>2026-04-08T08:36:29Z</time></trkpt><trkpt lat="43.134865743169115" lon="11.456434496069544"><ele>152.0</ele><time>2026-04-08T08:36:30Z</time></trkpt><trkpt lat="43.134762486808114" lon="11.456543971106317"><ele>152.0</ele><time>2026-04-08T08:36:31Z</time></trkpt><trkpt lat="43.13465046351855" lon="11.456658094039911"><ele>152.0</ele><time>2026-04-08T08:36:32Z</time></trkpt><trkpt lat="43.13454082849312" lon="11.45676957870673"><ele>152.0</ele><time>2026-04-08T08:36:33Z</time></trkpt><trkpt lat="43.13442431924319" lon="11.45688207220943"><ele>152.0</ele><time>2026-04-08T08:36:34Z</time></trkpt><trkpt lat="43.134305386236534" lon="11.457002634263551"><ele>151.33333333333331</ele><time>2026-04-08T08:36:35Z</time></trkpt><trkpt lat="43.134181902426896" lon="11.457127058356052"><ele>150.66666666666666</ele><time>2026-04-08T08:36:36Z</time></trkpt><trkpt lat="43.134052810623174" lon="11.45725868293848"><ele>150.0</ele><time>2026-04-08T08:36:37Z</time></trkpt><trkpt lat="43.13392106195649" lon="11.457392259331241"><ele>150.0</ele><time>2026-04-08T08:36:38Z</time></trkpt><trkpt lat="43.13380372009447" lon="11.45750857464186"><ele>150.0</ele><time>2026-04-08T08:36:39Z</time></trkpt><trkpt lat="43.13369045621284" lon="11.45761647683322"><ele>150.0</ele><time>2026-04-08T08:36:40Z</time></trkpt><trkpt lat="43.13357166070916" lon="11.457723496665025"><ele>150.0</ele><time>2026-04-08T08:36:41Z</time></trkpt><trkpt lat="43.13345130681919" lon="11.457835715825592"><ele>150.0</ele><time>2026-04-08T08:36:42Z</time></trkpt><trkpt lat="43.13333669779748" lon="11.457932658701575"><ele>150.0</ele><time>2026-04-08T08:36:43Z</time></trkpt><trkpt lat="43.13322224780604" lon="11.458034057957487"><ele>150.0</ele><time>2026-04-08T08:36:44Z</time></trkpt><trkpt lat="43.13311272383485" lon="11.458156412910988"><ele>150.0</ele><time>2026-04-08T08:36:45Z</time></trkpt><trkpt lat="43.13299863051003" lon="11.458302377158349"><ele>150.5</ele><time>2026-04-08T08:36:46Z</time></trkpt><trkpt lat="43.13287828101775" lon="11.458417670665968"><ele>151.0</ele><time>2026-04-08T08:36:47Z</time></trkpt><trkpt lat="43.13277749832317" lon="11.458547391725354"><ele>151.5</ele><time>2026-04-08T08:36:48Z</time></trkpt><trkpt lat="43.13269114758529" lon="11.45869721608751"><ele>152.0</ele><time>2026-04-08T08:36:49Z</time></trkpt><trkpt lat="43.132615022531475" lon="11.458831773640616"><ele>152.0</ele><time>2026-04-08T08:36:50Z</time></trkpt><trkpt lat="43.13255048121865" lon="11.458999957832969"><ele>152.0</ele><time>2026-04-08T08:36:51Z</time></trkpt><trkpt lat="43.13247521819431" lon="11.45918978486145"><ele>152.0</ele><time>2026-04-08T08:36:52Z</time></trkpt><trkpt lat="43.13243630837886" lon="11.459397336906042"><ele>150.25</ele><time>2026-04-08T08:36:53Z</time></trkpt><trkpt lat="43.13238714791328" lon="11.459578533958863"><ele>148.5</ele><time>2026-04-08T08:36:54Z</time></trkpt><trkpt lat="43.13234246617315" lon="11.459764846730048"><ele>146.75</ele><time>2026-04-08T08:36:55Z</time></trkpt><trkpt lat="43.1322968913344" lon="11.459963523267508"><ele>145.0</ele><time>2026-04-08T08:36:56Z</time></trkpt><trkpt lat="43.1322475571303" lon="11.460162571426107"><ele>145.0</ele><time>2026-04-08T08:36:57Z</time></trkpt><trkpt lat="43.13220517343418" lon="11.460339244371577"><ele>145.0</ele><time>2026-04-08T08:36:58Z</time></trkpt><trkpt lat="43.13216939058034" lon="11.460493635972949"><ele>145.0</ele><time>2026-04-08T08:36:59Z</time></trkpt><trkpt lat="43.13213925878294" lon="11.460631972477833"><ele>145.0</ele><time>2026-04-08T08:37:00Z</time></trkpt><trkpt lat="43.13211517340421" lon="11.460770476938642"><ele>145.2</ele><time>2026-04-08T08:37:01Z</time></trkpt><trkpt lat="43.13209702596331" lon="11.460899244455097"><ele>145.4</ele><time>2026-04-08T08:37:02Z</time></trkpt><trkpt lat="43.132090783137045" lon="11.461021445474042"><ele>145.6</ele><time>2026-04-08T08:37:03Z</time></trkpt><trkpt lat="43.1320998329735" lon="11.461160148724025"><ele>145.8</ele><time>2026-04-08T08:37:04Z</time></trkpt><trkpt lat="43.132113512243095" lon="11.46130943964799"><ele>146.0</ele><time>2026-04-08T08:37:05Z</time></trkpt><trkpt lat="43.13213104894105" lon="11.461450623731764"><ele>146.0</ele><time>2026-04-08T08:37:06Z</time></trkpt><trkpt lat="43.13214156278172" lon="11.461569099656948"><ele>146.0</ele><time>2026-04-08T08:37:07Z</time></trkpt><trkpt lat="43.13215219188158" lon="11.461661266622796"><ele>146.0</ele><time>2026-04-08T08:37:08Z</time></trkpt><trkpt lat="43.13215418959612" lon="11.461749186387273"><ele>146.0</ele><time>2026-04-08T08:37:10Z</time></trkpt><trkpt lat="43.13195307994035" lon="11.461696320817419"><ele>146.0</ele><time>2026-04-08T08:37:27.999Z</time></trkpt><trkpt lat="43.131919859639865" lon="11.46161426449308"><ele>146.0</ele><time>2026-04-08T08:37:28.999Z</time></trkpt><trkpt lat="43.13187860264811" lon="11.461540947132038"><ele>146.0</ele><time>2026-04-08T08:37:29.999Z</time></trkpt><trkpt lat="43.131821899318275" lon="11.461440180289737"><ele>146.0</ele><time>2026-04-08T08:37:31.999Z</time></trkpt><trkpt lat="43.131754535504406" lon="11.461373445790963"><ele>146.0</ele><time>2026-04-08T08:37:33.999Z</time></trkpt><trkpt lat="43.13166575172508" lon="11.461290985072257"><ele>146.0</ele><time>2026-04-08T08:37:35.999Z</time></trkpt><trkpt lat="43.13138195714436" lon="11.461476270516936"><ele>145.5</ele><time>2026-04-08T08:37:36.999Z</time></trkpt><trkpt lat="43.1313202229194" lon="11.461418449260902"><ele>145.0</ele><time>2026-04-08T08:37:37.999Z</time></trkpt><trkpt lat="43.13126693052661" lon="11.46134460525513"><ele>144.5</ele><time>2026-04-08T08:37:38.999Z</time></trkpt><trkpt lat="43.13121389665079" lon="11.46124757243433"><ele>144.0</ele><time>2026-04-08T08:37:39.999Z</time></trkpt><trkpt lat="43.13116365171281" lon="11.461146931081117"><ele>143.5</ele><time>2026-04-08T08:37:40.999Z</time></trkpt><trkpt lat="43.13112067941998" lon="11.461068159880165"><ele>143.0</ele><time>2026-04-08T08:37:41.999Z</time></trkpt><trkpt lat="43.131074851812315" lon="11.46099124880771"><ele>143.0</ele><time>2026-04-08T08:37:42.999Z</time></trkpt><trkpt lat="43.131016347755526" lon="11.460906992009962"><ele>143.0</ele><time>2026-04-08T08:37:43.999Z</time></trkpt><trkpt lat="43.130956144236045" lon="11.46085140621234"><ele>143.0</ele><time>2026-04-08T08:37:44.999Z</time></trkpt><trkpt lat="43.13088939328756" lon="11.46082050258815"><ele>143.0</ele><time>2026-04-08T08:37:45.999Z</time></trkpt><trkpt lat="43.13081381572958" lon="11.460805450169051"><ele>143.0</ele><time>2026-04-08T08:37:46.999Z</time></trkpt><trkpt lat="43.1307286036014" lon="11.46079084703518"><ele>143.0</ele><time>2026-04-08T08:37:47.999Z</time></trkpt><trkpt lat="43.13066021804127" lon="11.460778376807655"><ele>142.83333333333331</ele><time>2026-04-08T08:37:48.999Z</time></trkpt><trkpt lat="43.13059551565463" lon="11.460744311771329"><ele>142.66666666666666</ele><time>2026-04-08T08:37:49.999Z</time></trkpt><trkpt lat="43.13053365548429" lon="11.460691273370806"><ele>142.5</ele><time>2026-04-08T08:37:50.999Z</time></trkpt><trkpt lat="43.1304763318303" lon="11.460608075052354"><ele>142.33333333333334</ele><time>2026-04-08T08:37:51.999Z</time></trkpt><trkpt lat="43.13043380293002" lon="11.460501714618564"><ele>142.16666666666669</ele><time>2026-04-08T08:37:52.999Z</time></trkpt><trkpt lat="43.130400457692055" lon="11.460358926996175"><ele>142.0</ele><time>2026-04-08T08:37:53.999Z</time></trkpt><trkpt lat="43.13037313070285" lon="11.460193594673909"><ele>142.4</ele><time>2026-04-08T08:37:54.999Z</time></trkpt><trkpt lat="43.130348611568536" lon="11.4600592792064"><ele>142.79999999999998</ele><time>2026-04-08T08:37:55.999Z</time></trkpt><trkpt lat="43.13031745481434" lon="11.459930740455134"><ele>143.2</ele><time>2026-04-08T08:37:56.999Z</time></trkpt><trkpt lat="43.13028782752456" lon="11.459807380641617"><ele>143.6</ele><time>2026-04-08T08:37:57.999Z</time></trkpt><trkpt lat="43.13026149528454" lon="11.459693324522998"><ele>144.0</ele><time>2026-04-08T08:37:58.999Z</time></trkpt><trkpt lat="43.13023656415852" lon="11.459574782832425"><ele>144.2</ele><time>2026-04-08T08:37:59.999Z</time></trkpt><trkpt lat="43.13021270869809" lon="11.459463173294125"><ele>144.4</ele><time>2026-04-08T08:38:00.999Z</time></trkpt><trkpt lat="43.13018654712411" lon="11.459341538310435"><ele>144.6</ele><time>2026-04-08T08:38:01.999Z</time></trkpt><trkpt lat="43.13015610126966" lon="11.459200613184152"><ele>144.8</ele><time>2026-04-08T08:38:02.999Z</time></trkpt><trkpt lat="43.13012408633711" lon="11.45904161078459"><ele>145.0</ele><time>2026-04-08T08:38:03.999Z</time></trkpt><trkpt lat="43.130087614014585" lon="11.458870341017144"><ele>146.2</ele><time>2026-04-08T08:38:04.999Z</time></trkpt><trkpt lat="43.130049297143906" lon="11.45870337889693"><ele>147.4</ele><time>2026-04-08T08:38:05.999Z</time></trkpt><trkpt lat="43.13001340270185" lon="11.458541736010389"><ele>148.6</ele><time>2026-04-08T08:38:06.999Z</time></trkpt><trkpt lat="43.129984501958795" lon="11.458406898473854"><ele>149.8</ele><time>2026-04-08T08:38:07.999Z</time></trkpt><trkpt lat="43.129981870528454" lon="11.45831888165881"><ele>151.0</ele><time>2026-04-08T08:38:08.999Z</time></trkpt><trkpt lat="43.12998553021121" lon="11.458201304545126"><ele>151.0</ele><time>2026-04-08T08:38:10.999Z</time></trkpt><trkpt lat="43.12995321629766" lon="11.458126646939027"><ele>151.0</ele><time>2026-04-08T08:38:11.999Z</time></trkpt><trkpt lat="43.12990868898712" lon="11.458042282289956"><ele>151.0</ele><time>2026-04-08T08:38:12.999Z</time></trkpt><trkpt lat="43.129853069206376" lon="11.457955849277042"><ele>151.0</ele><time>2026-04-08T08:38:14.999Z</time></trkpt><trkpt lat="43.12977847684199" lon="11.457828400444543"><ele>151.0</ele><time>2026-04-08T08:38:18Z</time></trkpt><trkpt lat="43.129725452530025" lon="11.457744845150795"><ele>151.0</ele><time>2026-04-08T08:38:19Z</time></trkpt><trkpt lat="43.12967010532888" lon="11.457650703040699"><ele>153.0</ele><time>2026-04-08T08:38:20Z</time></trkpt><trkpt lat="43.12961697016795" lon="11.457554092275656"><ele>155.0</ele><time>2026-04-08T08:38:21Z</time></trkpt><trkpt lat="43.129565144163784" lon="11.457446749896805"><ele>157.0</ele><time>2026-04-08T08:38:22Z</time></trkpt><trkpt lat="43.129489273815835" lon="11.45732246880282"><ele>159.0</ele><time>2026-04-08T08:38:23Z</time></trkpt><trkpt lat="43.12942370831101" lon="11.45720134249959"><ele>161.0</ele><time>2026-04-08T08:38:24Z</time></trkpt><trkpt lat="43.12935179502432" lon="11.45706331009073"><ele>161.5</ele><time>2026-04-08T08:38:25Z</time></trkpt><trkpt lat="43.12927049364097" lon="11.456912006286828"><ele>162.0</ele><time>2026-04-08T08:38:26Z</time></trkpt><trkpt lat="43.129185152588676" lon="11.456762083721866"><ele>162.5</ele><time>2026-04-08T08:38:27Z</time></trkpt><trkpt lat="43.12910120416101" lon="11.456616773262889"><ele>163.0</ele><time>2026-04-08T08:38:28Z</time></trkpt><trkpt lat="43.12901614171239" lon="11.456471274075714"><ele>165.5</ele><time>2026-04-08T08:38:29Z</time></trkpt><trkpt lat="43.12892802784156" lon="11.456315422880548"><ele>168.0</ele><time>2026-04-08T08:38:30Z</time></trkpt><trkpt lat="43.12883612221711" lon="11.456153094670459"><ele>170.5</ele><time>2026-04-08T08:38:31Z</time></trkpt><trkpt lat="43.12874481186246" lon="11.455993052101984"><ele>173.0</ele><time>2026-04-08T08:38:32Z</time></trkpt><trkpt lat="43.12866889235577" lon="11.455854027340754"><ele>173.4</ele><time>2026-04-08T08:38:33Z</time></trkpt><trkpt lat="43.128603602498714" lon="11.45574293438943"><ele>173.8</ele><time>2026-04-08T08:38:34Z</time></trkpt><trkpt lat="43.12853132212827" lon="11.455642169198352"><ele>174.2</ele><time>2026-04-08T08:38:35Z</time></trkpt><trkpt lat="43.12844929148475" lon="11.455550887297472"><ele>174.6</ele><time>2026-04-08T08:38:36Z</time></trkpt><trkpt lat="43.12835139292871" lon="11.4554704016837"><ele>175.0</ele><time>2026-04-08T08:38:37Z</time></trkpt><trkpt lat="43.12823054011354" lon="11.455404247331854"><ele>179.5</ele><time>2026-04-08T08:38:38Z</time></trkpt><trkpt lat="43.1280970787378" lon="11.45534135588053"><ele>184.0</ele><time>2026-04-08T08:38:39Z</time></trkpt><trkpt lat="43.12795149776567" lon="11.455271034240297"><ele>188.5</ele><time>2026-04-08T08:38:40Z</time></trkpt><trkpt lat="43.12782792520944" lon="11.455216969271873"><ele>193.0</ele><time>2026-04-08T08:38:41Z</time></trkpt><trkpt lat="43.1276992048764" lon="11.455158722647685"><ele>193.0</ele><time>2026-04-08T08:38:42Z</time></trkpt><trkpt lat="43.12756828397248" lon="11.455097166684913"><ele>193.0</ele><time>2026-04-08T08:38:43Z</time></trkpt><trkpt lat="43.12745568541842" lon="11.455046212824765"><ele>193.0</ele><time>2026-04-08T08:38:44Z</time></trkpt><trkpt lat="43.127356759935886" lon="11.454993223031888"><ele>193.0</ele><time>2026-04-08T08:38:45Z</time></trkpt><trkpt lat="43.12725962776237" lon="11.454917108129557"><ele>195.75</ele><time>2026-04-08T08:38:46Z</time></trkpt><trkpt lat="43.127159155047245" lon="11.454814242152667"><ele>198.5</ele><time>2026-04-08T08:38:47Z</time></trkpt><trkpt lat="43.127069022548085" lon="11.454692576501467"><ele>201.25</ele><time>2026-04-08T08:38:48Z</time></trkpt><trkpt lat="43.12699513921331" lon="11.45456633735938"><ele>204.0</ele><time>2026-04-08T08:38:49Z</time></trkpt><trkpt lat="43.12692855504588" lon="11.454414871021472"><ele>206.25</ele><time>2026-04-08T08:38:50Z</time></trkpt><trkpt lat="43.12686843480911" lon="11.454252959070422"><ele>208.5</ele><time>2026-04-08T08:38:51Z</time></trkpt><trkpt lat="43.12682466462262" lon="11.454072406025459"><ele>210.75</ele><time>2026-04-08T08:38:52Z</time></trkpt><trkpt lat="43.12679963131709" lon="11.453879014194953"><ele>213.0</ele><time>2026-04-08T08:38:53Z</time></trkpt><trkpt lat="43.1267839304658" lon="11.45366879179529"><ele>215.0</ele><time>2026-04-08T08:38:54Z</time></trkpt><trkpt lat="43.12677100889604" lon="11.453438591204447"><ele>217.0</ele><time>2026-04-08T08:38:55Z</time></trkpt><trkpt lat="43.12676134072825" lon="11.453195709388428"><ele>219.0</ele><time>2026-04-08T08:38:56Z</time></trkpt><trkpt lat="43.12676325476051" lon="11.452967241499854"><ele>220.0</ele><time>2026-04-08T08:38:57Z</time></trkpt><trkpt lat="43.12676760361578" lon="11.45276770341168"><ele>221.0</ele><time>2026-04-08T08:38:58Z</time></trkpt><trkpt lat="43.12677136882316" lon="11.452550804142428"><ele>222.0</ele><time>2026-04-08T08:38:59Z</time></trkpt><trkpt lat="43.12676996626421" lon="11.452331176516074"><ele>223.0</ele><time>2026-04-08T08:39:00Z</time></trkpt><trkpt lat="43.12675521486245" lon="11.452096199902382"><ele>224.0</ele><time>2026-04-08T08:39:01Z</time></trkpt><trkpt lat="43.12673245366177" lon="11.451869841908835"><ele>225.0</ele><time>2026-04-08T08:39:02Z</time></trkpt><trkpt lat="43.12670930967703" lon="11.451668721240882"><ele>225.0</ele><time>2026-04-08T08:39:03Z</time></trkpt><trkpt lat="43.12668651863345" lon="11.451464821456772"><ele>225.0</ele><time>2026-04-08T08:39:04Z</time></trkpt><trkpt lat="43.12665676366687" lon="11.451275563947567"><ele>225.0</ele><time>2026-04-08T08:39:05Z</time></trkpt><trkpt lat="43.126610356726246" lon="11.451106836398715"><ele>225.0</ele><time>2026-04-08T08:39:06Z</time></trkpt><trkpt lat="43.12656035705078" lon="11.45094600314041"><ele>225.0</ele><time>2026-04-08T08:39:07Z</time></trkpt><trkpt lat="43.1265134905452" lon="11.450802564020925"><ele>225.0</ele><time>2026-04-08T08:39:08Z</time></trkpt><trkpt lat="43.12646638754585" lon="11.450655316208575"><ele>225.0</ele><time>2026-04-08T08:39:09Z</time></trkpt><trkpt lat="43.1264184465099" lon="11.450496382003601"><ele>225.0</ele><time>2026-04-08T08:39:10Z</time></trkpt><trkpt lat="43.1263642108007" lon="11.450326241763443"><ele>226.5</ele><time>2026-04-08T08:39:11Z</time></trkpt><trkpt lat="43.12630692581814" lon="11.450148434308225"><ele>228.0</ele><time>2026-04-08T08:39:12Z</time></trkpt><trkpt lat="43.126249842823356" lon="11.44996120233278"><ele>229.5</ele><time>2026-04-08T08:39:13Z</time></trkpt><trkpt lat="43.1261955899185" lon="11.449767347719511"><ele>231.0</ele><time>2026-04-08T08:39:14Z</time></trkpt><trkpt lat="43.126141007258255" lon="11.449604864694523"><ele>233.25</ele><time>2026-04-08T08:39:15Z</time></trkpt><trkpt lat="43.12607465847489" lon="11.449468929541718"><ele>235.5</ele><time>2026-04-08T08:39:16Z</time></trkpt><trkpt lat="43.12599485132835" lon="11.449356097835377"><ele>237.75</ele><time>2026-04-08T08:39:17Z</time></trkpt><trkpt lat="43.125897543135935" lon="11.449263892977779"><ele>240.0</ele><time>2026-04-08T08:39:18Z</time></trkpt><trkpt lat="43.12578837594238" lon="11.449191229784622"><ele>239.75</ele><time>2026-04-08T08:39:19Z</time></trkpt><trkpt lat="43.12566663041115" lon="11.44913534617602"><ele>239.5</ele><time>2026-04-08T08:39:20Z</time></trkpt><trkpt lat="43.12554746098566" lon="11.449089264711832"><ele>239.25</ele><time>2026-04-08T08:39:21Z</time></trkpt><trkpt lat="43.12544076376199" lon="11.44905244307816"><ele>239.0</ele><time>2026-04-08T08:39:21.999Z</time></trkpt><trkpt lat="43.12533732003609" lon="11.449019331341038"><ele>239.0</ele><time>2026-04-08T08:39:22.999Z</time></trkpt><trkpt lat="43.12522453290465" lon="11.448974171229539"><ele>238.99999999999997</ele><time>2026-04-08T08:39:23.999Z</time></trkpt><trkpt lat="43.12511686535414" lon="11.448933490516325"><ele>238.99999999999997</ele><time>2026-04-08T08:39:24.999Z</time></trkpt><trkpt lat="43.12503097770877" lon="11.448901556141998"><ele>239.0</ele><time>2026-04-08T08:39:25.999Z</time></trkpt><trkpt lat="43.12495332945634" lon="11.448862125254307"><ele>239.0</ele><time>2026-04-08T08:39:26.999Z</time></trkpt><trkpt lat="43.12484325547218" lon="11.4487958859045"><ele>239.16666666666669</ele><time>2026-04-08T08:39:28.999Z</time></trkpt><trkpt lat="43.124782840037106" lon="11.448767624226857"><ele>239.33333333333334</ele><time>2026-04-08T08:39:29.999Z</time></trkpt><trkpt lat="43.124709227269946" lon="11.448755156920345"><ele>239.5</ele><time>2026-04-08T08:39:30.999Z</time></trkpt><trkpt lat="43.12463149247747" lon="11.448780243978756"><ele>239.66666666666669</ele><time>2026-04-08T08:39:31.999Z</time></trkpt><trkpt lat="43.12456292120612" lon="11.44883148617234"><ele>239.83333333333334</ele><time>2026-04-08T08:39:32.999Z</time></trkpt><trkpt lat="43.12449609917806" lon="11.448912843840873"><ele>240.0</ele><time>2026-04-08T08:39:33.999Z</time></trkpt><trkpt lat="43.124432665345175" lon="11.449014352634071"><ele>239.4</ele><time>2026-04-08T08:39:34.999Z</time></trkpt><trkpt lat="43.124361751192716" lon="11.449119618305632"><ele>238.8</ele><time>2026-04-08T08:39:35.999Z</time></trkpt><trkpt lat="43.124282488733805" lon="11.449190009268092"><ele>238.2</ele><time>2026-04-08T08:39:36.999Z</time></trkpt><trkpt lat="43.124207673220795" lon="11.449251877916545"><ele>237.6</ele><time>2026-04-08T08:39:38.999Z</time></trkpt><trkpt lat="43.124144181451065" lon="11.449271815242598"><ele>237.0</ele><time>2026-04-08T08:39:40.999Z</time></trkpt><trkpt lat="43.12415692041166" lon="11.449428482120021"><ele>237.0</ele><time>2026-04-08T08:39:42.999Z</time></trkpt><trkpt lat="43.124124695737166" lon="11.449525276158273"><ele>237.0</ele><time>2026-04-08T08:39:44.999Z</time></trkpt><trkpt lat="43.124060907257004" lon="11.449584261833905"><ele>237.0</ele><time>2026-04-08T08:39:46.999Z</time></trkpt><trkpt lat="43.12401271853733" lon="11.44968917949003"><ele>237.0</ele><time>2026-04-08T08:40:05.999Z</time></trkpt><trkpt lat="43.123968886490225" lon="11.449753091562966"><ele>237.0</ele><time>2026-04-08T08:40:06.999Z</time></trkpt><trkpt lat="43.123867954072686" lon="11.449722829065648"><ele>237.0</ele><time>2026-04-08T08:40:07.999Z</time></trkpt><trkpt lat="43.123802847808136" lon="11.449819396144328"><ele>236.2</ele><time>2026-04-08T08:40:09.999Z</time></trkpt><trkpt lat="43.12373896901218" lon="11.449889011694903"><ele>235.39999999999998</ele><time>2026-04-08T08:40:11.999Z</time></trkpt><trkpt lat="43.12371114491941" lon="11.449978459976876"><ele>234.60000000000002</ele><time>2026-04-08T08:40:13.999Z</time></trkpt><trkpt lat="43.123749564058414" lon="11.450070853099511"><ele>233.8</ele><time>2026-04-08T08:40:15.999Z</time></trkpt><trkpt lat="43.123806954744616" lon="11.450027403667145"><ele>233.0</ele><time>2026-04-08T08:40:29Z</time></trkpt><trkpt lat="43.123891305292695" lon="11.449741224958839"><ele>233.0</ele><time>2026-04-08T08:40:32Z</time></trkpt><trkpt lat="43.124002157959886" lon="11.449706078278219"><ele>233.0</ele><time>2026-04-08T08:40:33Z</time></trkpt><trkpt lat="43.12407895079514" lon="11.44959050117209"><ele>233.0</ele><time>2026-04-08T08:40:34Z</time></trkpt><trkpt lat="43.12413699777164" lon="11.4494991179442"><ele>233.0</ele><time>2026-04-08T08:40:35Z</time></trkpt><trkpt lat="43.12418064151637" lon="11.449436918842752"><ele>233.0</ele><time>2026-04-08T08:40:36Z</time></trkpt><trkpt lat="43.12422256105754" lon="11.449333247513332"><ele>233.2</ele><time>2026-04-08T08:40:38Z</time></trkpt><trkpt lat="43.124153094520196" lon="11.449228423734253"><ele>233.4</ele><time>2026-04-08T08:40:41Z</time></trkpt><trkpt lat="43.12408757707437" lon="11.449218407042476"><ele>233.59999999999997</ele><time>2026-04-08T08:40:42Z</time></trkpt><trkpt lat="43.12400078563156" lon="11.449228464638576"><ele>233.79999999999998</ele><time>2026-04-08T08:40:43Z</time></trkpt><trkpt lat="43.123882730588726" lon="11.449201914291894"><ele>234.0</ele><time>2026-04-08T08:40:44Z</time></trkpt><trkpt lat="43.123768310047" lon="11.449165459416161"><ele>234.0</ele><time>2026-04-08T08:40:45Z</time></trkpt><trkpt lat="43.12365261026943" lon="11.449131374149866"><ele>234.0</ele><time>2026-04-08T08:40:46Z</time></trkpt><trkpt lat="43.12353349912387" lon="11.449089466162219"><ele>234.0</ele><time>2026-04-08T08:40:47Z</time></trkpt><trkpt lat="43.12341931726426" lon="11.449050369524544"><ele>234.0</ele><time>2026-04-08T08:40:48Z</time></trkpt><trkpt lat="43.12330535721011" lon="11.449010699849065"><ele>233.25</ele><time>2026-04-08T08:40:49Z</time></trkpt><trkpt lat="43.12318374550416" lon="11.448967711678355"><ele>232.5</ele><time>2026-04-08T08:40:50Z</time></trkpt><trkpt lat="43.12305647166739" lon="11.448921834679975"><ele>231.75</ele><time>2026-04-08T08:40:51Z</time></trkpt><trkpt lat="43.12293466285523" lon="11.448876889796512"><ele>231.0</ele><time>2026-04-08T08:40:52Z</time></trkpt><trkpt lat="43.12282051470901" lon="11.448842550769255"><ele>231.0</ele><time>2026-04-08T08:40:53Z</time></trkpt><trkpt lat="43.12271353335159" lon="11.448808403542808"><ele>231.0</ele><time>2026-04-08T08:40:54Z</time></trkpt><trkpt lat="43.122600619370154" lon="11.448765695879391"><ele>231.0</ele><time>2026-04-08T08:40:55Z</time></trkpt><trkpt lat="43.122478203256335" lon="11.448723467009287"><ele>231.0</ele><time>2026-04-08T08:40:56Z</time></trkpt><trkpt lat="43.122357976774914" lon="11.448679328977711"><ele>229.25</ele><time>2026-04-08T08:40:57Z</time></trkpt><trkpt lat="43.12224339183897" lon="11.448634075026362"><ele>227.5</ele><time>2026-04-08T08:40:58Z</time></trkpt><trkpt lat="43.12213398989867" lon="11.44859442373745"><ele>225.75</ele><time>2026-04-08T08:40:59Z</time></trkpt><trkpt lat="43.12201802600893" lon="11.448552532533403"><ele>224.0</ele><time>2026-04-08T08:41:00Z</time></trkpt><trkpt lat="43.121890535091055" lon="11.448509659121344"><ele>224.0</ele><time>2026-04-08T08:41:01Z</time></trkpt><trkpt lat="43.12176691407929" lon="11.44846905218308"><ele>223.99999999999997</ele><time>2026-04-08T08:41:02Z</time></trkpt><trkpt lat="43.12165936519526" lon="11.448425409554373"><ele>223.99999999999997</ele><time>2026-04-08T08:41:03Z</time></trkpt><trkpt lat="43.12156504829565" lon="11.448374384995098"><ele>224.0</ele><time>2026-04-08T08:41:04Z</time></trkpt><trkpt lat="43.12147750502191" lon="11.4483097028093"><ele>224.0</ele><time>2026-04-08T08:41:05Z</time></trkpt><trkpt lat="43.12140244062378" lon="11.448225375735365"><ele>222.25</ele><time>2026-04-08T08:41:06Z</time></trkpt><trkpt lat="43.12135144270102" lon="11.448098979316624"><ele>220.5</ele><time>2026-04-08T08:41:07Z</time></trkpt><trkpt lat="43.12129136141306" lon="11.447964457034473"><ele>218.75</ele><time>2026-04-08T08:41:08Z</time></trkpt><trkpt lat="43.12122240294956" lon="11.447816866982905"><ele>217.0</ele><time>2026-04-08T08:41:09Z</time></trkpt><trkpt lat="43.12116925920214" lon="11.447631556640307"><ele>217.0</ele><time>2026-04-08T08:41:10Z</time></trkpt><trkpt lat="43.12111072213734" lon="11.447469315460946"><ele>217.0</ele><time>2026-04-08T08:41:11Z</time></trkpt><trkpt lat="43.12105974611016" lon="11.447313834173963"><ele>217.0</ele><time>2026-04-08T08:41:12Z</time></trkpt><trkpt lat="43.12101471756237" lon="11.447161401250753"><ele>217.0</ele><time>2026-04-08T08:41:13Z</time></trkpt><trkpt lat="43.12096390290473" lon="11.447005960931314"><ele>216.0</ele><time>2026-04-08T08:41:14Z</time></trkpt><trkpt lat="43.12091492653091" lon="11.446841959226697"><ele>215.0</ele><time>2026-04-08T08:41:15Z</time></trkpt><trkpt lat="43.12086939938223" lon="11.446686704792558"><ele>214.0</ele><time>2026-04-08T08:41:16Z</time></trkpt><trkpt lat="43.120820969320086" lon="11.446541576378458"><ele>213.0</ele><time>2026-04-08T08:41:17Z</time></trkpt><trkpt lat="43.120774349054244" lon="11.4464027300375"><ele>212.5</ele><time>2026-04-08T08:41:18Z</time></trkpt><trkpt lat="43.12070300501718" lon="11.446146549257737"><ele>212.0</ele><time>2026-04-08T08:41:20Z</time></trkpt><trkpt lat="43.12068645254651" lon="11.446007227735798"><ele>211.5</ele><time>2026-04-08T08:41:21Z</time></trkpt><trkpt lat="43.120688116712174" lon="11.445876066267589"><ele>211.0</ele><time>2026-04-08T08:41:22Z</time></trkpt><trkpt lat="43.12071176898582" lon="11.44574742108832"><ele>211.0</ele><time>2026-04-08T08:41:23Z</time></trkpt><trkpt lat="43.12076971715112" lon="11.44559916236783"><ele>211.0</ele><time>2026-04-08T08:41:24Z</time></trkpt><trkpt lat="43.12081616408955" lon="11.445452752679998"><ele>211.0</ele><time>2026-04-08T08:41:25Z</time></trkpt><trkpt lat="43.120842226862166" lon="11.445309079242692"><ele>211.0</ele><time>2026-04-08T08:41:26Z</time></trkpt><trkpt lat="43.120873252867035" lon="11.445179517224743"><ele>211.0</ele><time>2026-04-08T08:41:27Z</time></trkpt><trkpt lat="43.12088863800613" lon="11.445052301910584"><ele>211.0</ele><time>2026-04-08T08:41:28Z</time></trkpt><trkpt lat="43.1208938350232" lon="11.44493129623194"><ele>211.0</ele><time>2026-04-08T08:41:29Z</time></trkpt><trkpt lat="43.120854893431705" lon="11.444790327111972"><ele>211.0</ele><time>2026-04-08T08:41:30Z</time></trkpt><trkpt lat="43.12079670221435" lon="11.444675737963097"><ele>211.0</ele><time>2026-04-08T08:41:31Z</time></trkpt><trkpt lat="43.1207094450714" lon="11.444562615796663"><ele>211.0</ele><time>2026-04-08T08:41:32Z</time></trkpt><trkpt lat="43.12058452007954" lon="11.444456568201469"><ele>208.66666666666666</ele><time>2026-04-08T08:41:33Z</time></trkpt><trkpt lat="43.1204633356692" lon="11.44437169832687"><ele>206.33333333333331</ele><time>2026-04-08T08:41:34Z</time></trkpt><trkpt lat="43.12032432865037" lon="11.444277027371456"><ele>204.0</ele><time>2026-04-08T08:41:35Z</time></trkpt><trkpt lat="43.12017480854034" lon="11.444173098813573"><ele>204.0</ele><time>2026-04-08T08:41:36Z</time></trkpt><trkpt lat="43.1200234351678" lon="11.444091855004956"><ele>204.0</ele><time>2026-04-08T08:41:36.999Z</time></trkpt><trkpt lat="43.11988088185554" lon="11.443991081009536"><ele>204.0</ele><time>2026-04-08T08:41:37.999Z</time></trkpt><trkpt lat="43.11974025932512" lon="11.443901117186497"><ele>200.75</ele><time>2026-04-08T08:41:38.999Z</time></trkpt><trkpt lat="43.11961357019329" lon="11.443794997324968"><ele>197.5</ele><time>2026-04-08T08:41:39.999Z</time></trkpt><trkpt lat="43.11948236708862" lon="11.443705910866539"><ele>194.25</ele><time>2026-04-08T08:41:40.999Z</time></trkpt><trkpt lat="43.11935955030744" lon="11.44361692367199"><ele>191.0</ele><time>2026-04-08T08:41:41.999Z</time></trkpt><trkpt lat="43.11924751708902" lon="11.443531171266496"><ele>191.0</ele><time>2026-04-08T08:41:42.999Z</time></trkpt><trkpt lat="43.119130499395446" lon="11.443450410976041"><ele>191.0</ele><time>2026-04-08T08:41:43.999Z</time></trkpt><trkpt lat="43.119022980824326" lon="11.44335079337291"><ele>191.0</ele><time>2026-04-08T08:41:44.999Z</time></trkpt><trkpt lat="43.118932372713054" lon="11.44325195932729"><ele>191.0</ele><time>2026-04-08T08:41:45.999Z</time></trkpt><trkpt lat="43.11885431946792" lon="11.443144158180584"><ele>190.20000000000002</ele><time>2026-04-08T08:41:46.999Z</time></trkpt><trkpt lat="43.11878447701579" lon="11.443044780211412"><ele>189.4</ele><time>2026-04-08T08:41:47.999Z</time></trkpt><trkpt lat="43.118705792654396" lon="11.442948341426456"><ele>188.6</ele><time>2026-04-08T08:41:48.999Z</time></trkpt><trkpt lat="43.11863465048074" lon="11.442864358501838"><ele>187.8</ele><time>2026-04-08T08:41:49.999Z</time></trkpt><trkpt lat="43.11856001247309" lon="11.44278829560736"><ele>187.0</ele><time>2026-04-08T08:41:50.999Z</time></trkpt><trkpt lat="43.11848003626075" lon="11.44271264983814"><ele>184.8</ele><time>2026-04-08T08:41:51.999Z</time></trkpt><trkpt lat="43.118400627922135" lon="11.44263166422256"><ele>182.6</ele><time>2026-04-08T08:41:52.999Z</time></trkpt><trkpt lat="43.11831049409202" lon="11.44255538120122"><ele>180.4</ele><time>2026-04-08T08:41:53.999Z</time></trkpt><trkpt lat="43.11823164172864" lon="11.442480932471518"><ele>178.20000000000002</ele><time>2026-04-08T08:41:54.999Z</time></trkpt><trkpt lat="43.11815095220282" lon="11.442415463011386"><ele>176.0</ele><time>2026-04-08T08:41:55.999Z</time></trkpt><trkpt lat="43.118060782493146" lon="11.442336420844237"><ele>176.0</ele><time>2026-04-08T08:41:56.999Z</time></trkpt><trkpt lat="43.11796841266945" lon="11.44226658749475"><ele>176.0</ele><time>2026-04-08T08:41:57.999Z</time></trkpt><trkpt lat="43.117887626812525" lon="11.442206622076071"><ele>176.0</ele><time>2026-04-08T08:41:58.999Z</time></trkpt><trkpt lat="43.117814229693906" lon="11.4421458920652"><ele>176.0</ele><time>2026-04-08T08:41:59.999Z</time></trkpt><trkpt lat="43.117746533749646" lon="11.442088034748938"><ele>176.0</ele><time>2026-04-08T08:42:00.999Z</time></trkpt><trkpt lat="43.117659654133284" lon="11.44201969866738"><ele>174.16666666666666</ele><time>2026-04-08T08:42:01.999Z</time></trkpt><trkpt lat="43.11757548661453" lon="11.441972854223303"><ele>172.33333333333331</ele><time>2026-04-08T08:42:02.999Z</time></trkpt><trkpt lat="43.117492550535495" lon="11.441947813909385"><ele>170.5</ele><time>2026-04-08T08:42:03.999Z</time></trkpt><trkpt lat="43.11741666948877" lon="11.44195504533745"><ele>168.66666666666666</ele><time>2026-04-08T08:42:04.999Z</time></trkpt><trkpt lat="43.117336679669776" lon="11.441963671465592"><ele>166.83333333333334</ele><time>2026-04-08T08:42:05.999Z</time></trkpt><trkpt lat="43.11725530589601" lon="11.441990771162253"><ele>165.0</ele><time>2026-04-08T08:42:06.999Z</time></trkpt><trkpt lat="43.11717745744086" lon="11.442026877281334"><ele>165.5</ele><time>2026-04-08T08:42:07.999Z</time></trkpt><trkpt lat="43.1171161124396" lon="11.442082732084447"><ele>166.0</ele><time>2026-04-08T08:42:08.999Z</time></trkpt><trkpt lat="43.117036255700555" lon="11.442133348493332"><ele>166.5</ele><time>2026-04-08T08:42:09.999Z</time></trkpt><trkpt lat="43.11695229528572" lon="11.442186307966615"><ele>167.0</ele><time>2026-04-08T08:42:10.999Z</time></trkpt><trkpt lat="43.11686536039364" lon="11.442226636683635"><ele>167.5</ele><time>2026-04-08T08:42:11.999Z</time></trkpt><trkpt lat="43.11678647108502" lon="11.44225987792102"><ele>168.0</ele><time>2026-04-08T08:42:12.999Z</time></trkpt><trkpt lat="43.11671873049896" lon="11.442270686091655"><ele>168.0</ele><time>2026-04-08T08:42:13.999Z</time></trkpt><trkpt lat="43.11664378724033" lon="11.442260005887697"><ele>168.0</ele><time>2026-04-08T08:42:14.999Z</time></trkpt><trkpt lat="43.11657574355472" lon="11.44224272149417"><ele>168.0</ele><time>2026-04-08T08:42:15.999Z</time></trkpt><trkpt lat="43.11650861142899" lon="11.442200672534401"><ele>168.0</ele><time>2026-04-08T08:42:16.999Z</time></trkpt><trkpt lat="43.116439459689865" lon="11.44212826409852"><ele>168.0</ele><time>2026-04-08T08:42:17.999Z</time></trkpt><trkpt lat="43.11637756232197" lon="11.4420501511053"><ele>168.0</ele><time>2026-04-08T08:42:18.999Z</time></trkpt><trkpt lat="43.11632372218158" lon="11.441968643330618"><ele>166.5</ele><time>2026-04-08T08:42:19.999Z</time></trkpt><trkpt lat="43.11627020381752" lon="11.441897418871008"><ele>165.0</ele><time>2026-04-08T08:42:20.999Z</time></trkpt><trkpt lat="43.116213699893216" lon="11.441830142927008"><ele>163.5</ele><time>2026-04-08T08:42:21.999Z</time></trkpt><trkpt lat="43.116145704627186" lon="11.441749831836635"><ele>162.0</ele><time>2026-04-08T08:42:22.999Z</time></trkpt><trkpt lat="43.116079087239584" lon="11.441686893482583"><ele>160.5</ele><time>2026-04-08T08:42:23.999Z</time></trkpt><trkpt lat="43.116015156845705" lon="11.441611913493809"><ele>159.0</ele><time>2026-04-08T08:42:24.999Z</time></trkpt><trkpt lat="43.11597364676425" lon="11.441535277450944"><ele>159.0</ele><time>2026-04-08T08:42:25.999Z</time></trkpt><trkpt lat="43.11590652039184" lon="11.441452905538995"><ele>159.0</ele><time>2026-04-08T08:42:26.999Z</time></trkpt><trkpt lat="43.11582915766667" lon="11.441373618574094"><ele>159.0</ele><time>2026-04-08T08:42:27.999Z</time></trkpt><trkpt lat="43.1157469266171" lon="11.441316718894495"><ele>159.0</ele><time>2026-04-08T08:42:29Z</time></trkpt><trkpt lat="43.11567606729367" lon="11.441260126366927"><ele>159.0</ele><time>2026-04-08T08:42:30Z</time></trkpt><trkpt lat="43.11559593118202" lon="11.44120728762755"><ele>156.0</ele><time>2026-04-08T08:42:31Z</time></trkpt><trkpt lat="43.11549594469176" lon="11.44122843677376"><ele>153.0</ele><time>2026-04-08T08:42:32Z</time></trkpt><trkpt lat="43.11539471778775" lon="11.441240014685908"><ele>150.0</ele><time>2026-04-08T08:42:33Z</time></trkpt><trkpt lat="43.11526970775459" lon="11.441235844358152"><ele>147.0</ele><time>2026-04-08T08:42:34Z</time></trkpt><trkpt lat="43.11513488805586" lon="11.441265340524694"><ele>148.0</ele><time>2026-04-08T08:42:35Z</time></trkpt><trkpt lat="43.115025023692844" lon="11.441307876469004"><ele>149.0</ele><time>2026-04-08T08:42:36Z</time></trkpt><trkpt lat="43.11492181134219" lon="11.441318764972689"><ele>150.0</ele><time>2026-04-08T08:42:37Z</time></trkpt><trkpt lat="43.114821161291154" lon="11.441323653192327"><ele>151.0</ele><time>2026-04-08T08:42:38Z</time></trkpt><trkpt lat="43.11470841139841" lon="11.441333692555546"><ele>152.0</ele><time>2026-04-08T08:42:39Z</time></trkpt><trkpt lat="43.1145971765221" lon="11.441340121494841"><ele>149.25</ele><time>2026-04-08T08:42:40Z</time></trkpt><trkpt lat="43.11447803141137" lon="11.441347458222063"><ele>146.5</ele><time>2026-04-08T08:42:41Z</time></trkpt><trkpt lat="43.114362315938436" lon="11.441355517263736"><ele>143.75</ele><time>2026-04-08T08:42:42Z</time></trkpt><trkpt lat="43.11424409735326" lon="11.44136567675568"><ele>141.0</ele><time>2026-04-08T08:42:43Z</time></trkpt><trkpt lat="43.11411785352173" lon="11.44137368691689"><ele>140.25</ele><time>2026-04-08T08:42:44Z</time></trkpt><trkpt lat="43.11397654029252" lon="11.441385804021328"><ele>139.5</ele><time>2026-04-08T08:42:45Z</time></trkpt><trkpt lat="43.113831754852704" lon="11.44140368922917"><ele>138.75</ele><time>2026-04-08T08:42:46Z</time></trkpt><trkpt lat="43.11369795145989" lon="11.441417238040467"><ele>138.0</ele><time>2026-04-08T08:42:47Z</time></trkpt><trkpt lat="43.113579059246746" lon="11.441419577915946"><ele>138.0</ele><time>2026-04-08T08:42:48Z</time></trkpt><trkpt lat="43.11346724375117" lon="11.441432671133514"><ele>138.0</ele><time>2026-04-08T08:42:49Z</time></trkpt><trkpt lat="43.113354027924345" lon="11.441444989718606"><ele>138.0</ele><time>2026-04-08T08:42:50Z</time></trkpt><trkpt lat="43.113241170986036" lon="11.441456088751957"><ele>138.0</ele><time>2026-04-08T08:42:51Z</time></trkpt><trkpt lat="43.113118944793115" lon="11.441470143166393"><ele>137.75</ele><time>2026-04-08T08:42:52Z</time></trkpt><trkpt lat="43.112996165815694" lon="11.44148395301281"><ele>137.5</ele><time>2026-04-08T08:42:53Z</time></trkpt><trkpt lat="43.11286557977618" lon="11.441494021057212"><ele>137.25</ele><time>2026-04-08T08:42:54Z</time></trkpt><trkpt lat="43.11273658174173" lon="11.441506510542586"><ele>137.0</ele><time>2026-04-08T08:42:55Z</time></trkpt><trkpt lat="43.11260742965043" lon="11.441521110695602"><ele>137.0</ele><time>2026-04-08T08:42:56Z</time></trkpt><trkpt lat="43.112473507512966" lon="11.441536422320484"><ele>137.0</ele><time>2026-04-08T08:42:57Z</time></trkpt><trkpt lat="43.11234405028695" lon="11.441548866218662"><ele>137.0</ele><time>2026-04-08T08:42:58Z</time></trkpt><trkpt lat="43.112226701443085" lon="11.441556298928024"><ele>137.0</ele><time>2026-04-08T08:42:59Z</time></trkpt><trkpt lat="43.11210839308224" lon="11.441562593253746"><ele>136.79999999999998</ele><time>2026-04-08T08:43:00Z</time></trkpt><trkpt lat="43.11199454447408" lon="11.441575602284969"><ele>136.6</ele><time>2026-04-08T08:43:01Z</time></trkpt><trkpt lat="43.11189293700417" lon="11.441589290911478"><ele>136.39999999999998</ele><time>2026-04-08T08:43:02Z</time></trkpt><trkpt lat="43.11180233311493" lon="11.441591954093562"><ele>136.2</ele><time>2026-04-08T08:43:03Z</time></trkpt><trkpt lat="43.111713848162765" lon="11.441601148664272"><ele>136.0</ele><time>2026-04-08T08:43:04Z</time></trkpt><trkpt lat="43.111620217433824" lon="11.441591313912683"><ele>135.83333333333334</ele><time>2026-04-08T08:43:05Z</time></trkpt><trkpt lat="43.111533286371206" lon="11.441598601876786"><ele>135.66666666666669</ele><time>2026-04-08T08:43:06Z</time></trkpt><trkpt lat="43.111461669682" lon="11.44162394688705"><ele>135.5</ele><time>2026-04-08T08:43:07Z</time></trkpt><trkpt lat="43.11138420114173" lon="11.441636035311998"><ele>135.33333333333334</ele><time>2026-04-08T08:43:08Z</time></trkpt><trkpt lat="43.11130100077739" lon="11.441653205248551"><ele>135.16666666666666</ele><time>2026-04-08T08:43:09Z</time></trkpt><trkpt lat="43.111196136053024" lon="11.441676595562896"><ele>135.0</ele><time>2026-04-08T08:43:10Z</time></trkpt><trkpt lat="43.11108745541874" lon="11.441695107933102"><ele>135.0</ele><time>2026-04-08T08:43:11Z</time></trkpt><trkpt lat="43.11098469823591" lon="11.441711155502043"><ele>135.0</ele><time>2026-04-08T08:43:12Z</time></trkpt><trkpt lat="43.11088254642858" lon="11.441719726177634"><ele>135.0</ele><time>2026-04-08T08:43:13Z</time></trkpt><trkpt lat="43.110765044409696" lon="11.441725610466682"><ele>135.0</ele><time>2026-04-08T08:43:14Z</time></trkpt><trkpt lat="43.1106449731854" lon="11.441727457060919"><ele>135.0</ele><time>2026-04-08T08:43:15Z</time></trkpt><trkpt lat="43.11052313088944" lon="11.441726775200571"><ele>134.5</ele><time>2026-04-08T08:43:16Z</time></trkpt><trkpt lat="43.1103994875603" lon="11.441728416083766"><ele>134.0</ele><time>2026-04-08T08:43:17Z</time></trkpt><trkpt lat="43.11027287922024" lon="11.441745436590448"><ele>133.5</ele><time>2026-04-08T08:43:18Z</time></trkpt><trkpt lat="43.110148250179904" lon="11.44176791774201"><ele>133.0</ele><time>2026-04-08T08:43:19Z</time></trkpt><trkpt lat="43.110021080794965" lon="11.441804704515773"><ele>133.0</ele><time>2026-04-08T08:43:20Z</time></trkpt><trkpt lat="43.10989249973191" lon="11.441848298911552"><ele>133.0</ele><time>2026-04-08T08:43:21Z</time></trkpt><trkpt lat="43.109760903590036" lon="11.441897916860167"><ele>133.0</ele><time>2026-04-08T08:43:22Z</time></trkpt><trkpt lat="43.10962532816924" lon="11.44196225428572"><ele>133.0</ele><time>2026-04-08T08:43:23Z</time></trkpt><trkpt lat="43.109483968937674" lon="11.442028673120765"><ele>133.0</ele><time>2026-04-08T08:43:24Z</time></trkpt><trkpt lat="43.10934995228431" lon="11.442079624651592"><ele>133.0</ele><time>2026-04-08T08:43:25Z</time></trkpt><trkpt lat="43.10922460339262" lon="11.442119908884358"><ele>133.0</ele><time>2026-04-08T08:43:26Z</time></trkpt><trkpt lat="43.10909465608905" lon="11.442157120913661"><ele>133.0</ele><time>2026-04-08T08:43:27Z</time></trkpt><trkpt lat="43.10895320095655" lon="11.442194713693283"><ele>133.0</ele><time>2026-04-08T08:43:28Z</time></trkpt><trkpt lat="43.10880663165361" lon="11.442232177684971"><ele>133.0</ele><time>2026-04-08T08:43:29Z</time></trkpt><trkpt lat="43.10866583765637" lon="11.442265778475953"><ele>133.0</ele><time>2026-04-08T08:43:30Z</time></trkpt><trkpt lat="43.10854919490469" lon="11.442290285151639"><ele>133.0</ele><time>2026-04-08T08:43:31Z</time></trkpt><trkpt lat="43.108438388460755" lon="11.44231457479189"><ele>133.0</ele><time>2026-04-08T08:43:32Z</time></trkpt><trkpt lat="43.108320123934384" lon="11.442333353151826"><ele>133.0</ele><time>2026-04-08T08:43:33Z</time></trkpt><trkpt lat="43.108194268939805" lon="11.4423523637695"><ele>133.0</ele><time>2026-04-08T08:43:34Z</time></trkpt><trkpt lat="43.10808807861819" lon="11.442376537085975"><ele>133.0</ele><time>2026-04-08T08:43:35Z</time></trkpt><trkpt lat="43.10797892623976" lon="11.442394866248298"><ele>133.20000000000002</ele><time>2026-04-08T08:43:36Z</time></trkpt><trkpt lat="43.10788588425839" lon="11.442411945302757"><ele>133.4</ele><time>2026-04-08T08:43:37Z</time></trkpt><trkpt lat="43.10779304864029" lon="11.442432168008168"><ele>133.60000000000002</ele><time>2026-04-08T08:43:38Z</time></trkpt><trkpt lat="43.10769397698186" lon="11.442445202204372"><ele>133.8</ele><time>2026-04-08T08:43:39Z</time></trkpt><trkpt lat="43.107601232597155" lon="11.44244665385208"><ele>134.0</ele><time>2026-04-08T08:43:40Z</time></trkpt><trkpt lat="43.107498353698" lon="11.442416096989936"><ele>133.25</ele><time>2026-04-08T08:43:41Z</time></trkpt><trkpt lat="43.10740743106165" lon="11.442368103425272"><ele>132.5</ele><time>2026-04-08T08:43:42Z</time></trkpt><trkpt lat="43.10732892554724" lon="11.442286814327336"><ele>131.75</ele><time>2026-04-08T08:43:43Z</time></trkpt><trkpt lat="43.10725716775836" lon="11.442150447566279"><ele>131.0</ele><time>2026-04-08T08:43:44Z</time></trkpt><trkpt lat="43.10716345440115" lon="11.44201187517677"><ele>131.0</ele><time>2026-04-08T08:43:45Z</time></trkpt><trkpt lat="43.10707943755275" lon="11.44188835711696"><ele>131.0</ele><time>2026-04-08T08:43:46Z</time></trkpt><trkpt lat="43.106981178425514" lon="11.441778142452517"><ele>131.0</ele><time>2026-04-08T08:43:47Z</time></trkpt><trkpt lat="43.10689184398001" lon="11.441645704424591"><ele>131.0</ele><time>2026-04-08T08:43:48Z</time></trkpt><trkpt lat="43.10680561696686" lon="11.44152845419366"><ele>131.0</ele><time>2026-04-08T08:43:48.999Z</time></trkpt><trkpt lat="43.10672790763255" lon="11.441419668220815"><ele>131.0</ele><time>2026-04-08T08:43:49.999Z</time></trkpt><trkpt lat="43.106642366571556" lon="11.441298131332655"><ele>131.0</ele><time>2026-04-08T08:43:50.999Z</time></trkpt><trkpt lat="43.10654647805247" lon="11.44116280649947"><ele>131.0</ele><time>2026-04-08T08:43:51.999Z</time></trkpt><trkpt lat="43.10645128049046" lon="11.441014517837841"><ele>131.0</ele><time>2026-04-08T08:43:52.999Z</time></trkpt><trkpt lat="43.10634714897534" lon="11.440865663130378"><ele>131.0</ele><time>2026-04-08T08:43:53.999Z</time></trkpt><trkpt lat="43.10624214916216" lon="11.440715468548408"><ele>131.0</ele><time>2026-04-08T08:43:54.999Z</time></trkpt><trkpt lat="43.10612702885853" lon="11.440555844565688"><ele>131.0</ele><time>2026-04-08T08:43:55.999Z</time></trkpt><trkpt lat="43.10602081895112" lon="11.440415307086024"><ele>131.0</ele><time>2026-04-08T08:43:56.999Z</time></trkpt><trkpt lat="43.105918605258296" lon="11.440273304316081"><ele>131.0</ele><time>2026-04-08T08:43:57.999Z</time></trkpt><trkpt lat="43.105817967849916" lon="11.440142508226069"><ele>131.0</ele><time>2026-04-08T08:43:58.999Z</time></trkpt><trkpt lat="43.10571998390314" lon="11.440013074135994"><ele>130.8</ele><time>2026-04-08T08:43:59.999Z</time></trkpt><trkpt lat="43.10563303166722" lon="11.439902488704986"><ele>130.6</ele><time>2026-04-08T08:44:00.999Z</time></trkpt><trkpt lat="43.105554258929274" lon="11.439804510275374"><ele>130.4</ele><time>2026-04-08T08:44:01.999Z</time></trkpt><trkpt lat="43.10547576562213" lon="11.439719340340583"><ele>130.2</ele><time>2026-04-08T08:44:02.999Z</time></trkpt><trkpt lat="43.10540012056291" lon="11.439617551067485"><ele>130.0</ele><time>2026-04-08T08:44:03.999Z</time></trkpt><trkpt lat="43.10531917092342" lon="11.43950433365729"><ele>129.75</ele><time>2026-04-08T08:44:04.999Z</time></trkpt><trkpt lat="43.10523737730907" lon="11.43937850376757"><ele>129.5</ele><time>2026-04-08T08:44:05.999Z</time></trkpt><trkpt lat="43.10517231199632" lon="11.439232470084404"><ele>129.25</ele><time>2026-04-08T08:44:06.999Z</time></trkpt><trkpt lat="43.105082541936824" lon="11.439088382066485"><ele>129.0</ele><time>2026-04-08T08:44:07.999Z</time></trkpt><trkpt lat="43.104999774655404" lon="11.438940201267704"><ele>129.0</ele><time>2026-04-08T08:44:08.999Z</time></trkpt><trkpt lat="43.10492041394693" lon="11.43881600308"><ele>129.0</ele><time>2026-04-08T08:44:09.999Z</time></trkpt><trkpt lat="43.10483577720938" lon="11.43869052754217"><ele>129.0</ele><time>2026-04-08T08:44:10.999Z</time></trkpt><trkpt lat="43.10474431806135" lon="11.43855897672428"><ele>129.0</ele><time>2026-04-08T08:44:11.999Z</time></trkpt><trkpt lat="43.10465177791628" lon="11.438428349475215"><ele>129.5</ele><time>2026-04-08T08:44:12.999Z</time></trkpt><trkpt lat="43.1045561972473" lon="11.438299871354065"><ele>130.0</ele><time>2026-04-08T08:44:13.999Z</time></trkpt><trkpt lat="43.10446546490494" lon="11.438182435566494"><ele>130.5</ele><time>2026-04-08T08:44:14.999Z</time></trkpt><trkpt lat="43.10437449344631" lon="11.438055126010878"><ele>131.0</ele><time>2026-04-08T08:44:15.999Z</time></trkpt><trkpt lat="43.10427603587688" lon="11.437911743469945"><ele>131.0</ele><time>2026-04-08T08:44:16.999Z</time></trkpt><trkpt lat="43.10417450197522" lon="11.437764816387958"><ele>131.0</ele><time>2026-04-08T08:44:17.999Z</time></trkpt><trkpt lat="43.10406911634399" lon="11.4376198843459"><ele>131.0</ele><time>2026-04-08T08:44:18.999Z</time></trkpt><trkpt lat="43.10395605271311" lon="11.437470719787244"><ele>131.33333333333331</ele><time>2026-04-08T08:44:19.999Z</time></trkpt><trkpt lat="43.10383412897289" lon="11.437302420177152"><ele>131.66666666666666</ele><time>2026-04-08T08:44:20.999Z</time></trkpt><trkpt lat="43.10371492299537" lon="11.437134790534387"><ele>132.0</ele><time>2026-04-08T08:44:21.999Z</time></trkpt><trkpt lat="43.10359854974178" lon="11.436970679879527"><ele>132.5</ele><time>2026-04-08T08:44:22.999Z</time></trkpt><trkpt lat="43.1034944230183" lon="11.43682857640349"><ele>133.0</ele><time>2026-04-08T08:44:23.999Z</time></trkpt><trkpt lat="43.10341240915276" lon="11.436683063465006"><ele>133.5</ele><time>2026-04-08T08:44:24.999Z</time></trkpt><trkpt lat="43.10330313822213" lon="11.436560209509711"><ele>134.0</ele><time>2026-04-08T08:44:25.999Z</time></trkpt><trkpt lat="43.10321281148947" lon="11.436400775564318"><ele>134.5</ele><time>2026-04-08T08:44:26.999Z</time></trkpt><trkpt lat="43.103096147869536" lon="11.436268878316202"><ele>135.0</ele><time>2026-04-08T08:44:27.999Z</time></trkpt><trkpt lat="43.102990200627694" lon="11.436125246229231"><ele>135.5</ele><time>2026-04-08T08:44:28.999Z</time></trkpt><trkpt lat="43.102888874023016" lon="11.435984122017674"><ele>136.0</ele><time>2026-04-08T08:44:29.999Z</time></trkpt><trkpt lat="43.10279608541424" lon="11.435854970949192"><ele>136.0</ele><time>2026-04-08T08:44:30.999Z</time></trkpt><trkpt lat="43.102703415343974" lon="11.435724992826083"><ele>136.0</ele><time>2026-04-08T08:44:31.999Z</time></trkpt><trkpt lat="43.10261646708655" lon="11.435601033996575"><ele>136.0</ele><time>2026-04-08T08:44:32.999Z</time></trkpt><trkpt lat="43.10252676478329" lon="11.435477696442481"><ele>136.0</ele><time>2026-04-08T08:44:33.999Z</time></trkpt><trkpt lat="43.102434498200644" lon="11.435341673276945"><ele>136.6</ele><time>2026-04-08T08:44:35Z</time></trkpt><trkpt lat="43.10234483625173" lon="11.435205253722842"><ele>137.2</ele><time>2026-04-08T08:44:36Z</time></trkpt><trkpt lat="43.10228627800374" lon="11.435066361897997"><ele>137.8</ele><time>2026-04-08T08:44:37Z</time></trkpt><trkpt lat="43.10223573327563" lon="11.43494702012324"><ele>138.4</ele><time>2026-04-08T08:44:38Z</time></trkpt><trkpt lat="43.10221210484446" lon="11.434818126566935"><ele>139.0</ele><time>2026-04-08T08:44:39Z</time></trkpt><trkpt lat="43.10220177346952" lon="11.434687277386832"><ele>140.5</ele><time>2026-04-08T08:44:40Z</time></trkpt><trkpt lat="43.10220940941179" lon="11.434544053537413"><ele>142.0</ele><time>2026-04-08T08:44:41Z</time></trkpt><trkpt lat="43.10223327010445" lon="11.434397950219473"><ele>143.5</ele><time>2026-04-08T08:44:42Z</time></trkpt><trkpt lat="43.10226220178183" lon="11.434236831019446"><ele>145.0</ele><time>2026-04-08T08:44:43Z</time></trkpt><trkpt lat="43.102291299578646" lon="11.434074786295456"><ele>145.0</ele><time>2026-04-08T08:44:44Z</time></trkpt><trkpt lat="43.10231303124251" lon="11.433941739822087"><ele>145.0</ele><time>2026-04-08T08:44:45Z</time></trkpt><trkpt lat="43.102331635167566" lon="11.433818163935111"><ele>145.0</ele><time>2026-04-08T08:44:46Z</time></trkpt><trkpt lat="43.102344833619604" lon="11.433694168339143"><ele>145.0</ele><time>2026-04-08T08:44:47Z</time></trkpt><trkpt lat="43.10235116220841" lon="11.433577277048412"><ele>145.0</ele><time>2026-04-08T08:44:48Z</time></trkpt><trkpt lat="43.10235272637465" lon="11.433476278073666"><ele>145.0</ele><time>2026-04-08T08:44:49Z</time></trkpt><trkpt lat="43.10235073737096" lon="11.433380337482326"><ele>145.2</ele><time>2026-04-08T08:44:50Z</time></trkpt><trkpt lat="43.10234462712818" lon="11.433272459664286"><ele>145.4</ele><time>2026-04-08T08:44:51Z</time></trkpt><trkpt lat="43.10232601187816" lon="11.433150623440742"><ele>145.6</ele><time>2026-04-08T08:44:52Z</time></trkpt><trkpt lat="43.102296319739395" lon="11.433007999529428"><ele>145.8</ele><time>2026-04-08T08:44:53Z</time></trkpt><trkpt lat="43.102252771755246" lon="11.432856906638806"><ele>146.0</ele><time>2026-04-08T08:44:54Z</time></trkpt><trkpt lat="43.10219922556768" lon="11.432739832624057"><ele>146.0</ele><time>2026-04-08T08:44:55Z</time></trkpt><trkpt lat="43.1021450274718" lon="11.432651678103241"><ele>146.0</ele><time>2026-04-08T08:44:56Z</time></trkpt><trkpt lat="43.10207648897742" lon="11.432601959671048"><ele>146.0</ele><time>2026-04-08T08:44:57Z</time></trkpt><trkpt lat="43.102025538788105" lon="11.432516772394488"><ele>146.0</ele><time>2026-04-08T08:44:58Z</time></trkpt><trkpt lat="43.10193222228207" lon="11.432498400303363"><ele>146.0</ele><time>2026-04-08T08:44:59Z</time></trkpt><trkpt lat="43.10183834004007" lon="11.432466886063263"><ele>146.0</ele><time>2026-04-08T08:45:00Z</time></trkpt><trkpt lat="43.10171674089508" lon="11.43243434917758"><ele>146.0</ele><time>2026-04-08T08:45:01Z</time></trkpt><trkpt lat="43.10160099204828" lon="11.432421143663815"><ele>146.0</ele><time>2026-04-08T08:45:02Z</time></trkpt><trkpt lat="43.101489572808696" lon="11.432408432117743"><ele>146.0</ele><time>2026-04-08T08:45:03Z</time></trkpt><trkpt lat="43.101372782109664" lon="11.432396665667001"><ele>146.0</ele><time>2026-04-08T08:45:04Z</time></trkpt><trkpt lat="43.10124477249682" lon="11.432385393625175"><ele>147.5</ele><time>2026-04-08T08:45:05Z</time></trkpt><trkpt lat="43.10111054430154" lon="11.432373847654572"><ele>149.0</ele><time>2026-04-08T08:45:06Z</time></trkpt><trkpt lat="43.10097228307521" lon="11.432362296088776"><ele>150.5</ele><time>2026-04-08T08:45:07Z</time></trkpt><trkpt lat="43.10082988198769" lon="11.432353507052996"><ele>152.0</ele><time>2026-04-08T08:45:08Z</time></trkpt><trkpt lat="43.100701978747146" lon="11.432365430743618"><ele>153.2</ele><time>2026-04-08T08:45:09Z</time></trkpt><trkpt lat="43.10058636392709" lon="11.432350203568184"><ele>154.39999999999998</ele><time>2026-04-08T08:45:10Z</time></trkpt><trkpt lat="43.10047571021827" lon="11.432338217439337"><ele>155.60000000000002</ele><time>2026-04-08T08:45:11Z</time></trkpt><trkpt lat="43.10036381898832" lon="11.432323643550626"><ele>156.8</ele><time>2026-04-08T08:45:12Z</time></trkpt><trkpt lat="43.10025509643215" lon="11.432321847251751"><ele>158.0</ele><time>2026-04-08T08:45:13Z</time></trkpt><trkpt lat="43.10014365005173" lon="11.432311064179167"><ele>158.0</ele><time>2026-04-08T08:45:14Z</time></trkpt><trkpt lat="43.10004326022747" lon="11.43230472513926"><ele>158.0</ele><time>2026-04-08T08:45:15Z</time></trkpt><trkpt lat="43.09993982119258" lon="11.432292954732834"><ele>158.0</ele><time>2026-04-08T08:45:16Z</time></trkpt><trkpt lat="43.09983415312617" lon="11.432282073567984"><ele>158.0</ele><time>2026-04-08T08:45:17Z</time></trkpt><trkpt lat="43.09971809741561" lon="11.432267947200172"><ele>158.0</ele><time>2026-04-08T08:45:18Z</time></trkpt><trkpt lat="43.09959014546951" lon="11.432248138889843"><ele>158.60000000000002</ele><time>2026-04-08T08:45:19Z</time></trkpt><trkpt lat="43.09947095901309" lon="11.432240425534323"><ele>159.20000000000002</ele><time>2026-04-08T08:45:20Z</time></trkpt><trkpt lat="43.099366414938764" lon="11.432232262862051"><ele>159.8</ele><time>2026-04-08T08:45:21Z</time></trkpt><trkpt lat="43.099267369648956" lon="11.432224930631628"><ele>160.4</ele><time>2026-04-08T08:45:22Z</time></trkpt><trkpt lat="43.099177477852976" lon="11.432216719246332"><ele>161.0</ele><time>2026-04-08T08:45:23Z</time></trkpt><trkpt lat="43.09910078727217" lon="11.432214581396096"><ele>160.20000000000002</ele><time>2026-04-08T08:45:24Z</time></trkpt><trkpt lat="43.09901591853767" lon="11.432204834463802"><ele>159.4</ele><time>2026-04-08T08:45:25Z</time></trkpt><trkpt lat="43.09891503136891" lon="11.432186000698897"><ele>158.6</ele><time>2026-04-08T08:45:26Z</time></trkpt><trkpt lat="43.09880497300087" lon="11.432162236268457"><ele>157.8</ele><time>2026-04-08T08:45:27Z</time></trkpt><trkpt lat="43.0986882585791" lon="11.432128618752081"><ele>157.0</ele><time>2026-04-08T08:45:28Z</time></trkpt><trkpt lat="43.09858648298056" lon="11.432089129407686"><ele>158.5</ele><time>2026-04-08T08:45:29Z</time></trkpt><trkpt lat="43.09848153162638" lon="11.432021168314414"><ele>160.0</ele><time>2026-04-08T08:45:30Z</time></trkpt><trkpt lat="43.09837543706886" lon="11.43193568036524"><ele>161.5</ele><time>2026-04-08T08:45:31Z</time></trkpt><trkpt lat="43.098263877235" lon="11.431838193479102"><ele>163.0</ele><time>2026-04-08T08:45:32Z</time></trkpt><trkpt lat="43.09814861143682" lon="11.431744458940685"><ele>163.0</ele><time>2026-04-08T08:45:33Z</time></trkpt><trkpt lat="43.09805380951686" lon="11.431639561189264"><ele>163.0</ele><time>2026-04-08T08:45:34Z</time></trkpt><trkpt lat="43.09796038517434" lon="11.431565690789231"><ele>163.0</ele><time>2026-04-08T08:45:35Z</time></trkpt><trkpt lat="43.09786274540413" lon="11.43148807885686"><ele>163.0</ele><time>2026-04-08T08:45:36Z</time></trkpt><trkpt lat="43.09775737962733" lon="11.43142349555965"><ele>163.0</ele><time>2026-04-08T08:45:37Z</time></trkpt><trkpt lat="43.09765898330872" lon="11.43133871230606"><ele>163.0</ele><time>2026-04-08T08:45:38Z</time></trkpt><trkpt lat="43.09755906341074" lon="11.43125535915089"><ele>163.0</ele><time>2026-04-08T08:45:39Z</time></trkpt><trkpt lat="43.097463283159" lon="11.431149430895875"><ele>163.0</ele><time>2026-04-08T08:45:40Z</time></trkpt><trkpt lat="43.09735204611097" lon="11.431079898013287"><ele>164.0</ele><time>2026-04-08T08:45:41Z</time></trkpt><trkpt lat="43.09724707629077" lon="11.430993186089257"><ele>165.0</ele><time>2026-04-08T08:45:42Z</time></trkpt><trkpt lat="43.09715042398063" lon="11.430910739367148"><ele>166.0</ele><time>2026-04-08T08:45:43Z</time></trkpt><trkpt lat="43.09706152699114" lon="11.430844704256446"><ele>167.0</ele><time>2026-04-08T08:45:44Z</time></trkpt><trkpt lat="43.096962522868644" lon="11.430766409362912"><ele>167.0</ele><time>2026-04-08T08:45:45Z</time></trkpt><trkpt lat="43.0968719846618" lon="11.430690295719007"><ele>167.0</ele><time>2026-04-08T08:45:46Z</time></trkpt><trkpt lat="43.09678132027702" lon="11.430602885722461"><ele>167.0</ele><time>2026-04-08T08:45:47Z</time></trkpt><trkpt lat="43.09670239002466" lon="11.430514244797862"><ele>167.0</ele><time>2026-04-08T08:45:48Z</time></trkpt><trkpt lat="43.09663184070911" lon="11.430423921255278"><ele>167.0</ele><time>2026-04-08T08:45:49Z</time></trkpt><trkpt lat="43.09656074275818" lon="11.43033552436889"><ele>167.8</ele><time>2026-04-08T08:45:50Z</time></trkpt><trkpt lat="43.096490672351216" lon="11.430242698273998"><ele>168.6</ele><time>2026-04-08T08:45:51Z</time></trkpt><trkpt lat="43.09641444754189" lon="11.43014703412064"><ele>169.4</ele><time>2026-04-08T08:45:52Z</time></trkpt><trkpt lat="43.096337545813384" lon="11.43005211587444"><ele>170.20000000000002</ele><time>2026-04-08T08:45:53Z</time></trkpt><trkpt lat="43.09625744003797" lon="11.42995122692289"><ele>171.0</ele><time>2026-04-08T08:45:54Z</time></trkpt><trkpt lat="43.096171327454485" lon="11.429843443165973"><ele>171.0</ele><time>2026-04-08T08:45:55Z</time></trkpt><trkpt lat="43.09608857012617" lon="11.429747514718462"><ele>171.0</ele><time>2026-04-08T08:45:56Z</time></trkpt><trkpt lat="43.096002141682675" lon="11.42966120325338"><ele>171.0</ele><time>2026-04-08T08:45:57Z</time></trkpt><trkpt lat="43.09590514811745" lon="11.42957877825844"><ele>171.0</ele><time>2026-04-08T08:45:58Z</time></trkpt><trkpt lat="43.095806052782024" lon="11.42950551549511"><ele>171.0</ele><time>2026-04-08T08:45:59Z</time></trkpt><trkpt lat="43.095700520510555" lon="11.429424275315931"><ele>172.60000000000002</ele><time>2026-04-08T08:46:00Z</time></trkpt><trkpt lat="43.09560206751875" lon="11.429353730690488"><ele>174.2</ele><time>2026-04-08T08:46:01Z</time></trkpt><trkpt lat="43.09551825683751" lon="11.429297435355641"><ele>175.8</ele><time>2026-04-08T08:46:02Z</time></trkpt><trkpt lat="43.09544918031706" lon="11.4292457595457"><ele>177.39999999999998</ele><time>2026-04-08T08:46:03Z</time></trkpt><trkpt lat="43.095362105743185" lon="11.429178875698474"><ele>179.0</ele><time>2026-04-08T08:46:05Z</time></trkpt><trkpt lat="43.095280951450164" lon="11.429119139236578"><ele>179.0</ele><time>2026-04-08T08:46:24.999Z</time></trkpt><trkpt lat="43.095184274204186" lon="11.429031351791261"><ele>179.0</ele><time>2026-04-08T08:46:26.999Z</time></trkpt><trkpt lat="43.09512179054673" lon="11.428986936267203"><ele>179.0</ele><time>2026-04-08T08:47:05Z</time></trkpt><trkpt lat="43.0950203871205" lon="11.42893245521077"><ele>179.0</ele><time>2026-04-08T08:48:07Z</time></trkpt><trkpt lat="43.09491340912509" lon="11.42885116285546"><ele>179.0</ele><time>2026-04-08T08:48:09Z</time></trkpt><trkpt lat="43.09485382423357" lon="11.428814799269938"><ele>180.39999999999998</ele><time>2026-04-08T08:48:10Z</time></trkpt><trkpt lat="43.09476093829039" lon="11.428754681907375"><ele>181.8</ele><time>2026-04-08T08:48:12Z</time></trkpt><trkpt lat="43.09466354683059" lon="11.428671242087791"><ele>183.2</ele><time>2026-04-08T08:48:14Z</time></trkpt><trkpt lat="43.094545941536246" lon="11.428584641042521"><ele>184.60000000000002</ele><time>2026-04-08T08:48:16Z</time></trkpt><trkpt lat="43.09448445744299" lon="11.428542597983562"><ele>186.0</ele><time>2026-04-08T08:48:17Z</time></trkpt><trkpt lat="43.094422028668816" lon="11.428493947963874"><ele>186.0</ele><time>2026-04-08T08:48:18Z</time></trkpt><trkpt lat="43.09435359338093" lon="11.428443321383343"><ele>186.0</ele><time>2026-04-08T08:48:18.999Z</time></trkpt><trkpt lat="43.09429473436176" lon="11.428400015134791"><ele>186.0</ele><time>2026-04-08T08:48:19.999Z</time></trkpt><trkpt lat="43.094228731418454" lon="11.428351437555639"><ele>186.0</ele><time>2026-04-08T08:48:20.999Z</time></trkpt><trkpt lat="43.09416413206697" lon="11.428303198780936"><ele>186.0</ele><time>2026-04-08T08:48:21.999Z</time></trkpt><trkpt lat="43.094085286454735" lon="11.428240259767877"><ele>186.0</ele><time>2026-04-08T08:48:22.999Z</time></trkpt><trkpt lat="43.09399012603082" lon="11.428174813583647"><ele>186.5</ele><time>2026-04-08T08:48:23.999Z</time></trkpt><trkpt lat="43.09387468435159" lon="11.428090646090277"><ele>187.0</ele><time>2026-04-08T08:48:24.999Z</time></trkpt><trkpt lat="43.093735185221234" lon="11.4279912153687"><ele>187.5</ele><time>2026-04-08T08:48:25.999Z</time></trkpt><trkpt lat="43.09361650560919" lon="11.427904816138494"><ele>188.0</ele><time>2026-04-08T08:48:26.999Z</time></trkpt><trkpt lat="43.09353118716949" lon="11.427838247396114"><ele>188.60000000000002</ele><time>2026-04-08T08:48:27.999Z</time></trkpt><trkpt lat="43.09345532502262" lon="11.42778630336048"><ele>189.20000000000002</ele><time>2026-04-08T08:48:28.999Z</time></trkpt><trkpt lat="43.09336910561981" lon="11.427722277327385"><ele>189.8</ele><time>2026-04-08T08:48:29.999Z</time></trkpt><trkpt lat="43.09327808838127" lon="11.427655076470938"><ele>190.4</ele><time>2026-04-08T08:48:30.999Z</time></trkpt><trkpt lat="43.093191024927854" lon="11.427587933529372"><ele>191.0</ele><time>2026-04-08T08:48:31.999Z</time></trkpt><trkpt lat="43.09310290419524" lon="11.427523904768668"><ele>191.60000000000002</ele><time>2026-04-08T08:48:32.999Z</time></trkpt><trkpt lat="43.09301200559168" lon="11.427462620223395"><ele>192.2</ele><time>2026-04-08T08:48:33.999Z</time></trkpt><trkpt lat="43.09292011878407" lon="11.427403387223356"><ele>192.8</ele><time>2026-04-08T08:48:34.999Z</time></trkpt><trkpt lat="43.092834988694094" lon="11.42734195505971"><ele>193.39999999999998</ele><time>2026-04-08T08:48:35.999Z</time></trkpt><trkpt lat="43.092755184217715" lon="11.427279221300516"><ele>194.0</ele><time>2026-04-08T08:48:36.999Z</time></trkpt><trkpt lat="43.09267404934542" lon="11.427208029180616"><ele>194.6</ele><time>2026-04-08T08:48:37.999Z</time></trkpt><trkpt lat="43.09258767984387" lon="11.427141766736627"><ele>195.2</ele><time>2026-04-08T08:48:38.999Z</time></trkpt><trkpt lat="43.092488775597474" lon="11.427079324028906"><ele>195.79999999999998</ele><time>2026-04-08T08:48:39.999Z</time></trkpt><trkpt lat="43.09239240145873" lon="11.42701224955478"><ele>196.39999999999998</ele><time>2026-04-08T08:48:40.999Z</time></trkpt><trkpt lat="43.092306578237945" lon="11.426947479642786"><ele>197.0</ele><time>2026-04-08T08:48:41.999Z</time></trkpt><trkpt lat="43.09221993197546" lon="11.426886011872602"><ele>197.75</ele><time>2026-04-08T08:48:42.999Z</time></trkpt><trkpt lat="43.0921277381216" lon="11.426816316629738"><ele>198.5</ele><time>2026-04-08T08:48:43.999Z</time></trkpt><trkpt lat="43.09203244460883" lon="11.426740601632888"><ele>199.25</ele><time>2026-04-08T08:48:44.999Z</time></trkpt><trkpt lat="43.0919269275705" lon="11.426666329668965"><ele>200.0</ele><time>2026-04-08T08:48:45.999Z</time></trkpt><trkpt lat="43.091814519197605" lon="11.426587675281535"><ele>200.0</ele><time>2026-04-08T08:48:47Z</time></trkpt><trkpt lat="43.0917219918217" lon="11.42652258319275"><ele>200.0</ele><time>2026-04-08T08:48:48Z</time></trkpt><trkpt lat="43.09163892853922" lon="11.426460322220839"><ele>200.0</ele><time>2026-04-08T08:48:49Z</time></trkpt><trkpt lat="43.09155448153398" lon="11.426396833112827"><ele>200.0</ele><time>2026-04-08T08:48:50Z</time></trkpt><trkpt lat="43.09146504045294" lon="11.426329041745372"><ele>200.0</ele><time>2026-04-08T08:48:51Z</time></trkpt><trkpt lat="43.09137197806117" lon="11.426259803014363"><ele>200.6</ele><time>2026-04-08T08:48:52Z</time></trkpt><trkpt lat="43.09129883540092" lon="11.426194774259898"><ele>201.2</ele><time>2026-04-08T08:48:53Z</time></trkpt><trkpt lat="43.09122173967988" lon="11.426142971510753"><ele>201.8</ele><time>2026-04-08T08:48:54Z</time></trkpt><trkpt lat="43.091139214572344" lon="11.42608291467209"><ele>202.4</ele><time>2026-04-08T08:48:55Z</time></trkpt><trkpt lat="43.0910559227682" lon="11.42602938074831"><ele>203.0</ele><time>2026-04-08T08:48:56Z</time></trkpt><trkpt lat="43.09094634244317" lon="11.425986767900968"><ele>203.0</ele><time>2026-04-08T08:48:57Z</time></trkpt><trkpt lat="43.0908272548706" lon="11.425942967389767"><ele>203.0</ele><time>2026-04-08T08:48:58Z</time></trkpt><trkpt lat="43.09071005753047" lon="11.425906474826279"><ele>203.0</ele><time>2026-04-08T08:48:59Z</time></trkpt><trkpt lat="43.09059666316206" lon="11.425878940553806"><ele>203.0</ele><time>2026-04-08T08:49:00Z</time></trkpt><trkpt lat="43.09047484354463" lon="11.425844456576788"><ele>204.5</ele><time>2026-04-08T08:49:01Z</time></trkpt><trkpt lat="43.090352185894965" lon="11.425810457134176"><ele>206.0</ele><time>2026-04-08T08:49:02Z</time></trkpt><trkpt lat="43.090232383872404" lon="11.425777346901475"><ele>207.5</ele><time>2026-04-08T08:49:03Z</time></trkpt><trkpt lat="43.0901252944498" lon="11.425745022080166"><ele>209.0</ele><time>2026-04-08T08:49:04Z</time></trkpt><trkpt lat="43.09001367159249" lon="11.425712644374507"><ele>210.25</ele><time>2026-04-08T08:49:05Z</time></trkpt><trkpt lat="43.08989790786864" lon="11.425680695373677"><ele>211.5</ele><time>2026-04-08T08:49:06Z</time></trkpt><trkpt lat="43.08978225528647" lon="11.425647825208339"><ele>212.75</ele><time>2026-04-08T08:49:07Z</time></trkpt><trkpt lat="43.089668839601735" lon="11.425616298575546"><ele>214.0</ele><time>2026-04-08T08:49:08Z</time></trkpt><trkpt lat="43.08956204822775" lon="11.425582581702548"><ele>214.0</ele><time>2026-04-08T08:49:09Z</time></trkpt><trkpt lat="43.089453669419235" lon="11.425553487610228"><ele>213.99999999999997</ele><time>2026-04-08T08:49:10Z</time></trkpt><trkpt lat="43.089355394329075" lon="11.425521322426663"><ele>213.99999999999997</ele><time>2026-04-08T08:49:11Z</time></trkpt><trkpt lat="43.08926788936197" lon="11.425499224856416"><ele>214.0</ele><time>2026-04-08T08:49:12Z</time></trkpt><trkpt lat="43.08918437207956" lon="11.425470925108545"><ele>214.0</ele><time>2026-04-08T08:49:13Z</time></trkpt><trkpt lat="43.08909598769925" lon="11.425426740859175"><ele>218.33333333333331</ele><time>2026-04-08T08:49:14Z</time></trkpt><trkpt lat="43.089030307310296" lon="11.425385022306306"><ele>222.66666666666666</ele><time>2026-04-08T08:49:15Z</time></trkpt><trkpt lat="43.088983849974674" lon="11.425320895072097"><ele>227.0</ele><time>2026-04-08T08:49:16Z</time></trkpt><trkpt lat="43.088946838750964" lon="11.425236045758037"><ele>231.33333333333331</ele><time>2026-04-08T08:49:17Z</time></trkpt><trkpt lat="43.08893381320139" lon="11.425115953720411"><ele>235.66666666666666</ele><time>2026-04-08T08:49:18Z</time></trkpt><trkpt lat="43.088936823481504" lon="11.424982825973546"><ele>240.0</ele><time>2026-04-08T08:49:19Z</time></trkpt><trkpt lat="43.088945531270355" lon="11.424867455814182"><ele>240.0</ele><time>2026-04-08T08:49:20Z</time></trkpt><trkpt lat="43.088958336419104" lon="11.424752242544171"><ele>240.0</ele><time>2026-04-08T08:49:21Z</time></trkpt><trkpt lat="43.08898136086124" lon="11.424630402732108"><ele>240.0</ele><time>2026-04-08T08:49:22Z</time></trkpt><trkpt lat="43.08900365383415" lon="11.424525753686037"><ele>240.0</ele><time>2026-04-08T08:49:23Z</time></trkpt><trkpt lat="43.08902023495189" lon="11.424425916790618"><ele>240.0</ele><time>2026-04-08T08:49:24Z</time></trkpt><trkpt lat="43.08904082167403" lon="11.424330919153666"><ele>240.0</ele><time>2026-04-08T08:49:25Z</time></trkpt><trkpt lat="43.0890614263689" lon="11.424236597308697"><ele>239.6</ele><time>2026-04-08T08:49:26Z</time></trkpt><trkpt lat="43.08907999849427" lon="11.424124422968152"><ele>239.2</ele><time>2026-04-08T08:49:27Z</time></trkpt><trkpt lat="43.08910633886002" lon="11.424010033688146"><ele>238.8</ele><time>2026-04-08T08:49:28Z</time></trkpt><trkpt lat="43.08913176863458" lon="11.423878346012412"><ele>238.4</ele><time>2026-04-08T08:49:29Z</time></trkpt><trkpt lat="43.08915077850798" lon="11.423748065146091"><ele>238.0</ele><time>2026-04-08T08:49:30Z</time></trkpt><trkpt lat="43.0891735085587" lon="11.42361764301737"><ele>238.0</ele><time>2026-04-08T08:49:31Z</time></trkpt><trkpt lat="43.089181209647805" lon="11.423480359785925"><ele>238.0</ele><time>2026-04-08T08:49:32Z</time></trkpt><trkpt lat="43.08917587823083" lon="11.423334663898263"><ele>238.0</ele><time>2026-04-08T08:49:33Z</time></trkpt><trkpt lat="43.08915120500621" lon="11.42318238036698"><ele>238.0</ele><time>2026-04-08T08:49:34Z</time></trkpt><trkpt lat="43.08911398673145" lon="11.423069154819538"><ele>238.0</ele><time>2026-04-08T08:49:35Z</time></trkpt><trkpt lat="43.08905932353364" lon="11.42295145500856"><ele>244.25</ele><time>2026-04-08T08:49:36Z</time></trkpt><trkpt lat="43.089007235618475" lon="11.42281873230584"><ele>250.5</ele><time>2026-04-08T08:49:37Z</time></trkpt><trkpt lat="43.08894871072299" lon="11.422675417733954"><ele>256.75</ele><time>2026-04-08T08:49:38Z</time></trkpt><trkpt lat="43.08889967138376" lon="11.422537851472375"><ele>263.0</ele><time>2026-04-08T08:49:39Z</time></trkpt><trkpt lat="43.08883999552805" lon="11.422389661007212"><ele>263.0</ele><time>2026-04-08T08:49:40Z</time></trkpt><trkpt lat="43.08878621876037" lon="11.422249101390323"><ele>263.0</ele><time>2026-04-08T08:49:41Z</time></trkpt><trkpt lat="43.08875306279559" lon="11.422153031494256"><ele>263.0</ele><time>2026-04-08T08:49:42Z</time></trkpt><trkpt lat="43.0886902533726" lon="11.42197814633313"><ele>263.0</ele><time>2026-04-08T08:49:44Z</time></trkpt><trkpt lat="43.08864910773502" lon="11.421866955103111"><ele>263.0</ele><time>2026-04-08T08:49:45Z</time></trkpt><trkpt lat="43.08856704740097" lon="11.421753363855634"><ele>262.0</ele><time>2026-04-08T08:49:47Z</time></trkpt><trkpt lat="43.08850245345466" lon="11.421706124528285"><ele>261.0</ele><time>2026-04-08T08:49:48Z</time></trkpt><trkpt lat="43.0884275165814" lon="11.421677862855912"><ele>260.0</ele><time>2026-04-08T08:49:49Z</time></trkpt><trkpt lat="43.088304248767265" lon="11.421696097999163"><ele>259.0</ele><time>2026-04-08T08:49:51Z</time></trkpt><trkpt lat="43.088241799930955" lon="11.421716519752152"><ele>258.0</ele><time>2026-04-08T08:49:52Z</time></trkpt><trkpt lat="43.08820423710417" lon="11.421804013825568"><ele>257.0</ele><time>2026-04-08T08:49:53Z</time></trkpt><trkpt lat="43.088154690792315" lon="11.421866495189294"><ele>261.4</ele><time>2026-04-08T08:49:54Z</time></trkpt><trkpt lat="43.08811212742656" lon="11.421977456877553"><ele>265.79999999999995</ele><time>2026-04-08T08:49:55Z</time></trkpt><trkpt lat="43.088078033678684" lon="11.422098056570286"><ele>270.2</ele><time>2026-04-08T08:49:56Z</time></trkpt><trkpt lat="43.08805213426457" lon="11.422238844142614"><ele>274.59999999999997</ele><time>2026-04-08T08:49:57Z</time></trkpt><trkpt lat="43.088027985897014" lon="11.422378112951991"><ele>279.0</ele><time>2026-04-08T08:49:58Z</time></trkpt><trkpt lat="43.08800430041617" lon="11.422518247384803"><ele>279.59999999999997</ele><time>2026-04-08T08:49:59Z</time></trkpt><trkpt lat="43.087972480758644" lon="11.422678657402344"><ele>280.2</ele><time>2026-04-08T08:50:00Z</time></trkpt><trkpt lat="43.08794304685164" lon="11.422820462436908"><ele>280.79999999999995</ele><time>2026-04-08T08:50:01Z</time></trkpt><trkpt lat="43.0879199176816" lon="11.422930425391595"><ele>281.4</ele><time>2026-04-08T08:50:02Z</time></trkpt><trkpt lat="43.08787231788707" lon="11.423024889799743"><ele>282.0</ele><time>2026-04-08T08:50:03Z</time></trkpt><trkpt lat="43.087828101709256" lon="11.423145340427684"><ele>282.1666666666667</ele><time>2026-04-08T08:50:04Z</time></trkpt><trkpt lat="43.08778590198959" lon="11.423249018749994"><ele>282.3333333333333</ele><time>2026-04-08T08:50:05Z</time></trkpt><trkpt lat="43.087741503721844" lon="11.423339377278156"><ele>282.5</ele><time>2026-04-08T08:50:06Z</time></trkpt><trkpt lat="43.08771154048072" lon="11.423431501213805"><ele>282.66666666666663</ele><time>2026-04-08T08:50:07Z</time></trkpt><trkpt lat="43.08763502971857" lon="11.423518371110566"><ele>282.8333333333333</ele><time>2026-04-08T08:50:09Z</time></trkpt><trkpt lat="43.0875539761427" lon="11.423503047635112"><ele>283.0</ele><time>2026-04-08T08:50:11Z</time></trkpt><trkpt lat="43.087504825923176" lon="11.423401102846423"><ele>283.0</ele><time>2026-04-08T08:50:14Z</time></trkpt><trkpt lat="43.087473721549706" lon="11.42325500405862"><ele>283.0</ele><time>2026-04-08T08:50:16Z</time></trkpt><trkpt lat="43.0874544825417" lon="11.423148100312844"><ele>283.0</ele><time>2026-04-08T08:50:17Z</time></trkpt><trkpt lat="43.08743445655318" lon="11.423036617716454"><ele>283.0</ele><time>2026-04-08T08:50:18Z</time></trkpt><trkpt lat="43.087411144987726" lon="11.422908295133807"><ele>283.0</ele><time>2026-04-08T08:50:19Z</time></trkpt><trkpt lat="43.08739106557509" lon="11.422791014553683"><ele>288.4</ele><time>2026-04-08T08:50:20Z</time></trkpt><trkpt lat="43.08735786539311" lon="11.422657987653778"><ele>293.8</ele><time>2026-04-08T08:50:22Z</time></trkpt><trkpt lat="43.087271793860054" lon="11.422579625851665"><ele>299.2</ele><time>2026-04-08T08:50:24Z</time></trkpt><trkpt lat="43.08719055738297" lon="11.422659263719378"><ele>304.6</ele><time>2026-04-08T08:50:26Z</time></trkpt><trkpt lat="43.087130620710965" lon="11.422764117192553"><ele>310.0</ele><time>2026-04-08T08:50:28Z</time></trkpt><trkpt lat="43.08711050023817" lon="11.422850852588338"><ele>310.0</ele><time>2026-04-08T08:50:29Z</time></trkpt><trkpt lat="43.08709594911706" lon="11.422952875856664"><ele>310.0</ele><time>2026-04-08T08:50:30Z</time></trkpt><trkpt lat="43.08708179456197" lon="11.423052118403119"><ele>310.0</ele><time>2026-04-08T08:50:31Z</time></trkpt><trkpt lat="43.08706347558142" lon="11.423159883715124"><ele>310.0</ele><time>2026-04-08T08:50:31.999Z</time></trkpt><trkpt lat="43.087045262452676" lon="11.423258089015285"><ele>310.0</ele><time>2026-04-08T08:50:32.999Z</time></trkpt><trkpt lat="43.08702889974659" lon="11.42334851176168"><ele>310.0</ele><time>2026-04-08T08:50:33.999Z</time></trkpt><trkpt lat="43.08700844841542" lon="11.423440442980572"><ele>310.0</ele><time>2026-04-08T08:50:34.999Z</time></trkpt><trkpt lat="43.08699946898196" lon="11.423535701448904"><ele>310.0</ele><time>2026-04-08T08:50:35.999Z</time></trkpt><trkpt lat="43.0869717943786" lon="11.423616667531158"><ele>310.0</ele><time>2026-04-08T08:50:36.999Z</time></trkpt><trkpt lat="43.08691120261996" lon="11.423768519305026"><ele>310.0</ele><time>2026-04-08T08:50:38.999Z</time></trkpt><trkpt lat="43.08686157251357" lon="11.423829361272416"><ele>310.0</ele><time>2026-04-08T08:50:39.999Z</time></trkpt><trkpt lat="43.08680292754345" lon="11.423864768824986"><ele>310.0</ele><time>2026-04-08T08:50:40.999Z</time></trkpt><trkpt lat="43.086682063483615" lon="11.423875619914174"><ele>310.0</ele><time>2026-04-08T08:50:42.999Z</time></trkpt><trkpt lat="43.086565718558674" lon="11.423824227012773"><ele>313.8</ele><time>2026-04-08T08:50:44.999Z</time></trkpt><trkpt lat="43.086457084915125" lon="11.423741791318266"><ele>317.6</ele><time>2026-04-08T08:50:46.999Z</time></trkpt><trkpt lat="43.08642140502049" lon="11.423667283982846"><ele>321.4</ele><time>2026-04-08T08:50:47.999Z</time></trkpt><trkpt lat="43.08638282328957" lon="11.423540564539406"><ele>325.2</ele><time>2026-04-08T08:50:49.999Z</time></trkpt><trkpt lat="43.086416333663074" lon="11.423401914335342"><ele>329.0</ele><time>2026-04-08T08:50:51.999Z</time></trkpt><trkpt lat="43.08644502444307" lon="11.42330945624161"><ele>329.0</ele><time>2026-04-08T08:50:53Z</time></trkpt><trkpt lat="43.08647997189929" lon="11.423201392420879"><ele>329.0</ele><time>2026-04-08T08:50:54Z</time></trkpt><trkpt lat="43.086515138029824" lon="11.423096452721456"><ele>329.0</ele><time>2026-04-08T08:50:55Z</time></trkpt><trkpt lat="43.086524432042694" lon="11.42299567825677"><ele>329.0</ele><time>2026-04-08T08:50:56Z</time></trkpt><trkpt lat="43.08653613272181" lon="11.422900376339154"><ele>329.0</ele><time>2026-04-08T08:50:57Z</time></trkpt><trkpt lat="43.08652837569894" lon="11.422804908460408"><ele>329.0</ele><time>2026-04-08T08:50:59Z</time></trkpt><trkpt lat="43.08647530425083" lon="11.422695667808014"><ele>328.83333333333337</ele><time>2026-04-08T08:51:01Z</time></trkpt><trkpt lat="43.08644043555236" lon="11.422618283012632"><ele>328.6666666666667</ele><time>2026-04-08T08:51:02Z</time></trkpt><trkpt lat="43.086359772964904" lon="11.422593823134072"><ele>328.5</ele><time>2026-04-08T08:51:03Z</time></trkpt><trkpt lat="43.08625436159453" lon="11.422641219141543"><ele>328.3333333333333</ele><time>2026-04-08T08:51:05Z</time></trkpt><trkpt lat="43.086195143895615" lon="11.422681678695408"><ele>328.16666666666663</ele><time>2026-04-08T08:51:06Z</time></trkpt><trkpt lat="43.08615784248621" lon="11.422771611415774"><ele>328.0</ele><time>2026-04-08T08:51:07Z</time></trkpt><trkpt lat="43.086121061193936" lon="11.422851925484569"><ele>327.99999999999994</ele><time>2026-04-08T08:51:08Z</time></trkpt><trkpt lat="43.08608102988956" lon="11.422946971962745"><ele>328.0</ele><time>2026-04-08T08:51:09Z</time></trkpt><trkpt lat="43.0860352833194" lon="11.423035282291226"><ele>328.0</ele><time>2026-04-08T08:51:10Z</time></trkpt><trkpt lat="43.08599431202501" lon="11.423109209542517"><ele>328.0</ele><time>2026-04-08T08:51:11Z</time></trkpt><trkpt lat="43.08594532519152" lon="11.42316832727553"><ele>328.0</ele><time>2026-04-08T08:51:12Z</time></trkpt><trkpt lat="43.08589785063677" lon="11.423241730521081"><ele>327.99999999999994</ele><time>2026-04-08T08:51:13Z</time></trkpt><trkpt lat="43.08583220849711" lon="11.423290760706209"><ele>328.0</ele><time>2026-04-08T08:51:14Z</time></trkpt><trkpt lat="43.08575267233646" lon="11.423293608115733"><ele>331.4</ele><time>2026-04-08T08:51:15Z</time></trkpt><trkpt lat="43.08568831589442" lon="11.423253248794254"><ele>334.79999999999995</ele><time>2026-04-08T08:51:16Z</time></trkpt><trkpt lat="43.08563216224683" lon="11.42317605882478"><ele>338.2</ele><time>2026-04-08T08:51:17Z</time></trkpt><trkpt lat="43.08557697859777" lon="11.423072751408723"><ele>341.6</ele><time>2026-04-08T08:51:18Z</time></trkpt><trkpt lat="43.08553050078626" lon="11.422943506866693"><ele>345.0</ele><time>2026-04-08T08:51:19Z</time></trkpt><trkpt lat="43.08549937180102" lon="11.422804127295974"><ele>345.8</ele><time>2026-04-08T08:51:20Z</time></trkpt><trkpt lat="43.0854714892003" lon="11.422689690636226"><ele>346.6</ele><time>2026-04-08T08:51:21Z</time></trkpt><trkpt lat="43.08543944728519" lon="11.422552303457136"><ele>347.4</ele><time>2026-04-08T08:51:22Z</time></trkpt><trkpt lat="43.08541845506491" lon="11.422388441174395"><ele>348.2</ele><time>2026-04-08T08:51:23Z</time></trkpt><trkpt lat="43.08537969344719" lon="11.422231956268453"><ele>349.0</ele><time>2026-04-08T08:51:24Z</time></trkpt><trkpt lat="43.0853368311305" lon="11.42210774715414"><ele>348.2</ele><time>2026-04-08T08:51:25Z</time></trkpt><trkpt lat="43.08526540893404" lon="11.422009721338517"><ele>347.4</ele><time>2026-04-08T08:51:26Z</time></trkpt><trkpt lat="43.08518170475243" lon="11.421917202202582"><ele>346.6</ele><time>2026-04-08T08:51:27Z</time></trkpt><trkpt lat="43.085106938798035" lon="11.421835956181344"><ele>345.8</ele><time>2026-04-08T08:51:28Z</time></trkpt><trkpt lat="43.08501555707239" lon="11.421767039972687"><ele>345.0</ele><time>2026-04-08T08:51:29Z</time></trkpt><trkpt lat="43.08490354004466" lon="11.421707229538793"><ele>345.0</ele><time>2026-04-08T08:51:30Z</time></trkpt><trkpt lat="43.084803423143974" lon="11.421663981743398"><ele>345.0</ele><time>2026-04-08T08:51:31Z</time></trkpt><trkpt lat="43.08469525744617" lon="11.421635571363923"><ele>345.0</ele><time>2026-04-08T08:51:32Z</time></trkpt><trkpt lat="43.08457908628901" lon="11.421554571549155"><ele>345.0</ele><time>2026-04-08T08:51:33Z</time></trkpt><trkpt lat="43.08446994542878" lon="11.421511606129675"><ele>345.0</ele><time>2026-04-08T08:51:34Z</time></trkpt><trkpt lat="43.08436923198605" lon="11.421462518636641"><ele>345.0</ele><time>2026-04-08T08:51:35Z</time></trkpt><trkpt lat="43.08425960922682" lon="11.42141114640708"><ele>345.0</ele><time>2026-04-08T08:51:36Z</time></trkpt><trkpt lat="43.08415197482973" lon="11.42132297931307"><ele>345.0</ele><time>2026-04-08T08:51:37Z</time></trkpt><trkpt lat="43.08407029502948" lon="11.421229857536844"><ele>345.4</ele><time>2026-04-08T08:51:38Z</time></trkpt><trkpt lat="43.08397719448638" lon="11.421173225224226"><ele>345.8</ele><time>2026-04-08T08:51:39Z</time></trkpt><trkpt lat="43.08390418985399" lon="11.421106226370977"><ele>346.20000000000005</ele><time>2026-04-08T08:51:40Z</time></trkpt><trkpt lat="43.0838252053478" lon="11.421059683102893"><ele>346.6</ele><time>2026-04-08T08:51:41Z</time></trkpt><trkpt lat="43.08373149233204" lon="11.420992392690726"><ele>347.0</ele><time>2026-04-08T08:51:42Z</time></trkpt><trkpt lat="43.08362524759452" lon="11.42094516059171"><ele>347.0</ele><time>2026-04-08T08:51:43Z</time></trkpt><trkpt lat="43.08351024136944" lon="11.420906524309025"><ele>347.0</ele><time>2026-04-08T08:51:44Z</time></trkpt><trkpt lat="43.08338882935215" lon="11.420869700425538"><ele>347.0</ele><time>2026-04-08T08:51:45Z</time></trkpt><trkpt lat="43.083293358848735" lon="11.420817035805872"><ele>347.0</ele><time>2026-04-08T08:51:46Z</time></trkpt><trkpt lat="43.08320005208166" lon="11.420786392652635"><ele>347.0</ele><time>2026-04-08T08:51:47Z</time></trkpt><trkpt lat="43.08310734422701" lon="11.420756038844498"><ele>348.6</ele><time>2026-04-08T08:51:48Z</time></trkpt><trkpt lat="43.08300626769785" lon="11.420724373185081"><ele>350.20000000000005</ele><time>2026-04-08T08:51:49Z</time></trkpt><trkpt lat="43.082901113755646" lon="11.42069212713088"><ele>351.8</ele><time>2026-04-08T08:51:50Z</time></trkpt><trkpt lat="43.08278979558122" lon="11.420676971496759"><ele>353.4</ele><time>2026-04-08T08:51:51Z</time></trkpt><trkpt lat="43.08268014318445" lon="11.420643195439979"><ele>355.0</ele><time>2026-04-08T08:51:52Z</time></trkpt><trkpt lat="43.082589992306225" lon="11.420616495419821"><ele>355.0</ele><time>2026-04-08T08:51:53Z</time></trkpt><trkpt lat="43.082499468562574" lon="11.420593022171866"><ele>355.0</ele><time>2026-04-08T08:51:54Z</time></trkpt><trkpt lat="43.08240752203478" lon="11.420577553037907"><ele>355.0</ele><time>2026-04-08T08:51:55Z</time></trkpt><trkpt lat="43.08231488848768" lon="11.420556623855619"><ele>355.0</ele><time>2026-04-08T08:51:56Z</time></trkpt><trkpt lat="43.082213659758075" lon="11.420548254267466"><ele>355.0</ele><time>2026-04-08T08:51:57Z</time></trkpt><trkpt lat="43.08210953546914" lon="11.420548501870092"><ele>354.8333333333333</ele><time>2026-04-08T08:51:58Z</time></trkpt><trkpt lat="43.08200688915527" lon="11.420548122699596"><ele>354.66666666666663</ele><time>2026-04-08T08:51:59Z</time></trkpt><trkpt lat="43.08192677655242" lon="11.420551352763267"><ele>354.5</ele><time>2026-04-08T08:52:00Z</time></trkpt><trkpt lat="43.08186485496671" lon="11.420524843100521"><ele>354.3333333333333</ele><time>2026-04-08T08:52:01Z</time></trkpt><trkpt lat="43.08179718950532" lon="11.420486194703775"><ele>354.1666666666667</ele><time>2026-04-08T08:52:02Z</time></trkpt><trkpt lat="43.08172223045427" lon="11.420429751781864"><ele>354.0</ele><time>2026-04-08T08:52:03Z</time></trkpt><trkpt lat="43.081637107391956" lon="11.420352065061765"><ele>357.2</ele><time>2026-04-08T08:52:04Z</time></trkpt><trkpt lat="43.08154850367308" lon="11.420277750186571"><ele>360.4</ele><time>2026-04-08T08:52:05Z</time></trkpt><trkpt lat="43.081474363059186" lon="11.420184072499627"><ele>363.6</ele><time>2026-04-08T08:52:06Z</time></trkpt><trkpt lat="43.08140734112369" lon="11.420088301442084"><ele>366.8</ele><time>2026-04-08T08:52:07Z</time></trkpt><trkpt lat="43.081342302584446" lon="11.419975203442604"><ele>370.0</ele><time>2026-04-08T08:52:08Z</time></trkpt><trkpt lat="43.08128456347282" lon="11.419870907434918"><ele>370.0</ele><time>2026-04-08T08:52:09Z</time></trkpt><trkpt lat="43.08123293106686" lon="11.419775418697558"><ele>370.0</ele><time>2026-04-08T08:52:10Z</time></trkpt><trkpt lat="43.08117290615662" lon="11.419686791455918"><ele>370.0</ele><time>2026-04-08T08:52:11Z</time></trkpt><trkpt lat="43.08109759769551" lon="11.419601950350955"><ele>370.0</ele><time>2026-04-08T08:52:12Z</time></trkpt><trkpt lat="43.08101507286892" lon="11.419508433068733"><ele>370.0</ele><time>2026-04-08T08:52:13Z</time></trkpt><trkpt lat="43.08090822768513" lon="11.419442973814796"><ele>369.3333333333333</ele><time>2026-04-08T08:52:14Z</time></trkpt><trkpt lat="43.08079638021248" lon="11.419400059669892"><ele>368.66666666666663</ele><time>2026-04-08T08:52:15Z</time></trkpt><trkpt lat="43.08070688824147" lon="11.419379121691172"><ele>368.0</ele><time>2026-04-08T08:52:16Z</time></trkpt><trkpt lat="43.080632245362956" lon="11.41936369546486"><ele>367.3333333333333</ele><time>2026-04-08T08:52:17Z</time></trkpt><trkpt lat="43.08055242244232" lon="11.419347198717134"><ele>366.6666666666667</ele><time>2026-04-08T08:52:18Z</time></trkpt><trkpt lat="43.08047825739514" lon="11.41932647179225"><ele>366.0</ele><time>2026-04-08T08:52:19Z</time></trkpt><trkpt lat="43.08039793585531" lon="11.419302359932257"><ele>369.1666666666667</ele><time>2026-04-08T08:52:20Z</time></trkpt><trkpt lat="43.080325281478586" lon="11.419263169595348"><ele>372.33333333333337</ele><time>2026-04-08T08:52:21Z</time></trkpt><trkpt lat="43.08026436868204" lon="11.419191015028769"><ele>375.5</ele><time>2026-04-08T08:52:22Z</time></trkpt><trkpt lat="43.08022338574309" lon="11.419088961890996"><ele>378.6666666666667</ele><time>2026-04-08T08:52:23Z</time></trkpt><trkpt lat="43.080173022331756" lon="11.418996365716227"><ele>381.83333333333337</ele><time>2026-04-08T08:52:24Z</time></trkpt><trkpt lat="43.08012190773054" lon="11.418907226010296"><ele>385.0</ele><time>2026-04-08T08:52:25Z</time></trkpt><trkpt lat="43.08007937091934" lon="11.418830111404496"><ele>383.2</ele><time>2026-04-08T08:52:26Z</time></trkpt><trkpt lat="43.08003080499581" lon="11.418745431531331"><ele>381.4</ele><time>2026-04-08T08:52:27Z</time></trkpt><trkpt lat="43.07995511202034" lon="11.418677395061215"><ele>379.6</ele><time>2026-04-08T08:52:28Z</time></trkpt><trkpt lat="43.07987387134233" lon="11.418619962317635"><ele>377.8</ele><time>2026-04-08T08:52:29Z</time></trkpt><trkpt lat="43.079783051851834" lon="11.418567369891944"><ele>376.0</ele><time>2026-04-08T08:52:30Z</time></trkpt><trkpt lat="43.07968701777217" lon="11.418517106762012"><ele>380.20000000000005</ele><time>2026-04-08T08:52:31Z</time></trkpt><trkpt lat="43.079580360724385" lon="11.418470758858822"><ele>384.40000000000003</ele><time>2026-04-08T08:52:32Z</time></trkpt><trkpt lat="43.079477696387144" lon="11.418429833635576"><ele>388.6</ele><time>2026-04-08T08:52:33Z</time></trkpt><trkpt lat="43.079387941112124" lon="11.41838757281876"><ele>392.8</ele><time>2026-04-08T08:52:34Z</time></trkpt><trkpt lat="43.07930448650016" lon="11.418342092831033"><ele>397.0</ele><time>2026-04-08T08:52:35Z</time></trkpt><trkpt lat="43.07921073579512" lon="11.418280158218293"><ele>397.00000000000006</ele><time>2026-04-08T08:52:36Z</time></trkpt><trkpt lat="43.07914426610746" lon="11.418217857536025"><ele>397.0</ele><time>2026-04-08T08:52:37Z</time></trkpt><trkpt lat="43.07908648550622" lon="11.418155228000083"><ele>397.0</ele><time>2026-04-08T08:52:38Z</time></trkpt><trkpt lat="43.07901120100385" lon="11.41810050933276"><ele>397.0</ele><time>2026-04-08T08:52:39Z</time></trkpt><trkpt lat="43.07894227646325" lon="11.41803976168942"><ele>397.00000000000006</ele><time>2026-04-08T08:52:39.999Z</time></trkpt><trkpt lat="43.078856639586725" lon="11.417995805713698"><ele>397.0</ele><time>2026-04-08T08:52:40.999Z</time></trkpt><trkpt lat="43.07876340278568" lon="11.41795188996791"><ele>396.6</ele><time>2026-04-08T08:52:41.999Z</time></trkpt><trkpt lat="43.078657032225905" lon="11.417953326962362"><ele>396.20000000000005</ele><time>2026-04-08T08:52:42.999Z</time></trkpt><trkpt lat="43.07856796175712" lon="11.417922858615073"><ele>395.8</ele><time>2026-04-08T08:52:43.999Z</time></trkpt><trkpt lat="43.078474931076194" lon="11.417914621251148"><ele>395.4</ele><time>2026-04-08T08:52:44.999Z</time></trkpt><trkpt lat="43.07837546368249" lon="11.417906585510977"><ele>395.0</ele><time>2026-04-08T08:52:45.999Z</time></trkpt><trkpt lat="43.07826994493441" lon="11.417898363074514"><ele>397.3333333333333</ele><time>2026-04-08T08:52:46.999Z</time></trkpt><trkpt lat="43.07816646994657" lon="11.417891231440471"><ele>399.66666666666663</ele><time>2026-04-08T08:52:47.999Z</time></trkpt><trkpt lat="43.07806266079145" lon="11.417906636605844"><ele>402.0</ele><time>2026-04-08T08:52:48.999Z</time></trkpt><trkpt lat="43.07798409801227" lon="11.417893574000168"><ele>404.33333333333337</ele><time>2026-04-08T08:52:49.999Z</time></trkpt><trkpt lat="43.077910896914105" lon="11.417887126791308"><ele>406.6666666666667</ele><time>2026-04-08T08:52:50.999Z</time></trkpt><trkpt lat="43.07783747700429" lon="11.417892354521578"><ele>409.0</ele><time>2026-04-08T08:52:51.999Z</time></trkpt><trkpt lat="43.077754262852636" lon="11.417897619916605"><ele>409.00000000000006</ele><time>2026-04-08T08:52:52.999Z</time></trkpt><trkpt lat="43.07766203511286" lon="11.417891325048082"><ele>409.0</ele><time>2026-04-08T08:52:53.999Z</time></trkpt><trkpt lat="43.077570654477135" lon="11.417885172413285"><ele>409.0</ele><time>2026-04-08T08:52:54.999Z</time></trkpt><trkpt lat="43.077498938351816" lon="11.417871852535095"><ele>409.0</ele><time>2026-04-08T08:52:55.999Z</time></trkpt><trkpt lat="43.07742064714665" lon="11.417840726766604"><ele>409.00000000000006</ele><time>2026-04-08T08:52:56.999Z</time></trkpt><trkpt lat="43.077322887890574" lon="11.417803501354458"><ele>409.0</ele><time>2026-04-08T08:52:57.999Z</time></trkpt><trkpt lat="43.077232845842396" lon="11.417718142549434"><ele>412.00000000000006</ele><time>2026-04-08T08:52:59Z</time></trkpt><trkpt lat="43.07713667465915" lon="11.41763987147615"><ele>415.0</ele><time>2026-04-08T08:53:00Z</time></trkpt><trkpt lat="43.07706519304904" lon="11.417578889026705"><ele>418.0</ele><time>2026-04-08T08:53:01Z</time></trkpt><trkpt lat="43.07700239825422" lon="11.417521286024035"><ele>421.0</ele><time>2026-04-08T08:53:02Z</time></trkpt><trkpt lat="43.076937164318906" lon="11.417448791053356"><ele>424.00000000000006</ele><time>2026-04-08T08:53:03Z</time></trkpt><trkpt lat="43.07688654126525" lon="11.417346823636143"><ele>427.0</ele><time>2026-04-08T08:53:04Z</time></trkpt><trkpt lat="43.07687064316401" lon="11.417232531058637"><ele>427.6</ele><time>2026-04-08T08:53:05Z</time></trkpt><trkpt lat="43.076834336981435" lon="11.417133099085252"><ele>428.20000000000005</ele><time>2026-04-08T08:53:06Z</time></trkpt><trkpt lat="43.076749613545076" lon="11.41699442447857"><ele>428.8</ele><time>2026-04-08T08:53:08Z</time></trkpt><trkpt lat="43.07670343690097" lon="11.416914728857481"><ele>429.4</ele><time>2026-04-08T08:53:09Z</time></trkpt><trkpt lat="43.07663861534316" lon="11.416866540961133"><ele>430.0</ele><time>2026-04-08T08:53:10Z</time></trkpt><trkpt lat="43.07655187982284" lon="11.416828755645636"><ele>430.0</ele><time>2026-04-08T08:53:11Z</time></trkpt><trkpt lat="43.07645898538558" lon="11.416804113402469"><ele>430.0</ele><time>2026-04-08T08:53:12Z</time></trkpt><trkpt lat="43.076362199127765" lon="11.416780604690723"><ele>430.0</ele><time>2026-04-08T08:53:13Z</time></trkpt><trkpt lat="43.07625059915415" lon="11.416750770420816"><ele>430.0</ele><time>2026-04-08T08:53:14Z</time></trkpt><trkpt lat="43.076143738314926" lon="11.416718925333825"><ele>430.0</ele><time>2026-04-08T08:53:15Z</time></trkpt><trkpt lat="43.07606322204508" lon="11.416677382352013"><ele>430.0</ele><time>2026-04-08T08:53:16Z</time></trkpt><trkpt lat="43.07598451385605" lon="11.416624601929472"><ele>430.0</ele><time>2026-04-08T08:53:17Z</time></trkpt><trkpt lat="43.075896805553924" lon="11.416560273111866"><ele>430.0</ele><time>2026-04-08T08:53:18Z</time></trkpt><trkpt lat="43.0758188083939" lon="11.41650034987103"><ele>430.0</ele><time>2026-04-08T08:53:19Z</time></trkpt><trkpt lat="43.07572408949093" lon="11.41642487125395"><ele>430.0</ele><time>2026-04-08T08:53:20Z</time></trkpt><trkpt lat="43.07562641385242" lon="11.416347036753534"><ele>431.0</ele><time>2026-04-08T08:53:21Z</time></trkpt><trkpt lat="43.075539693291276" lon="11.416288816509635"><ele>432.0</ele><time>2026-04-08T08:53:22Z</time></trkpt><trkpt lat="43.07545743034947" lon="11.416227593000128"><ele>433.0</ele><time>2026-04-08T08:53:23Z</time></trkpt><trkpt lat="43.075377804509735" lon="11.416162256042877"><ele>434.0</ele><time>2026-04-08T08:53:24Z</time></trkpt><trkpt lat="43.07529474173246" lon="11.416095387808461"><ele>435.0</ele><time>2026-04-08T08:53:25Z</time></trkpt><trkpt lat="43.07520779997868" lon="11.416037824501657"><ele>435.0</ele><time>2026-04-08T08:53:26Z</time></trkpt><trkpt lat="43.07512196923958" lon="11.415976840913823"><ele>435.0</ele><time>2026-04-08T08:53:27Z</time></trkpt><trkpt lat="43.075047010778995" lon="11.4159305392538"><ele>435.0</ele><time>2026-04-08T08:53:28Z</time></trkpt><trkpt lat="43.07498997616956" lon="11.415892220217525"><ele>435.0</ele><time>2026-04-08T08:53:29Z</time></trkpt><trkpt lat="43.07487830191607" lon="11.415839267353366"><ele>435.0</ele><time>2026-04-08T08:53:31Z</time></trkpt><trkpt lat="43.07480330290605" lon="11.415807788098663"><ele>435.0</ele><time>2026-04-08T08:53:32Z</time></trkpt><trkpt lat="43.07472172065517" lon="11.415768011009634"><ele>435.8333333333333</ele><time>2026-04-08T08:53:33Z</time></trkpt><trkpt lat="43.0746218493267" lon="11.41575140355697"><ele>436.66666666666663</ele><time>2026-04-08T08:53:34Z</time></trkpt><trkpt lat="43.074528790304214" lon="11.415739018003613"><ele>437.5</ele><time>2026-04-08T08:53:35Z</time></trkpt><trkpt lat="43.07441899137802" lon="11.415684215422967"><ele>438.3333333333333</ele><time>2026-04-08T08:53:37Z</time></trkpt><trkpt lat="43.074387503630426" lon="11.415608830160036"><ele>439.16666666666663</ele><time>2026-04-08T08:53:38Z</time></trkpt><trkpt lat="43.07433732196284" lon="11.415545730212099"><ele>440.0</ele><time>2026-04-08T08:53:39Z</time></trkpt><trkpt lat="43.074350410075304" lon="11.415446348268615"><ele>441.66666666666663</ele><time>2026-04-08T08:53:40Z</time></trkpt><trkpt lat="43.07435549808838" lon="11.415355882379822"><ele>443.3333333333333</ele><time>2026-04-08T08:53:41Z</time></trkpt><trkpt lat="43.07433674683464" lon="11.415240359258428"><ele>445.0</ele><time>2026-04-08T08:53:42Z</time></trkpt><trkpt lat="43.07433287189718" lon="11.415105183459168"><ele>446.66666666666663</ele><time>2026-04-08T08:53:43Z</time></trkpt><trkpt lat="43.07431502146904" lon="11.414971980365989"><ele>448.3333333333333</ele><time>2026-04-08T08:53:44Z</time></trkpt><trkpt lat="43.07428885961577" lon="11.414841655420597"><ele>450.0</ele><time>2026-04-08T08:53:45Z</time></trkpt><trkpt lat="43.07426328798501" lon="11.414707078618106"><ele>451.1666666666667</ele><time>2026-04-08T08:53:46Z</time></trkpt><trkpt lat="43.07423109775883" lon="11.414591207321015"><ele>452.33333333333337</ele><time>2026-04-08T08:53:47Z</time></trkpt><trkpt lat="43.07417178843496" lon="11.414518236337821"><ele>453.5</ele><time>2026-04-08T08:53:48Z</time></trkpt><trkpt lat="43.07413116412906" lon="11.414425382684241"><ele>454.6666666666667</ele><time>2026-04-08T08:53:49Z</time></trkpt><trkpt lat="43.0740350932642" lon="11.414387124951398"><ele>455.83333333333337</ele><time>2026-04-08T08:53:50Z</time></trkpt><trkpt lat="43.07393950942015" lon="11.414368373333591"><ele>457.0</ele><time>2026-04-08T08:53:51Z</time></trkpt><trkpt lat="43.07384041637058" lon="11.414343972231537"><ele>458.83333333333337</ele><time>2026-04-08T08:53:52Z</time></trkpt><trkpt lat="43.07374652545043" lon="11.414340309942787"><ele>460.6666666666667</ele><time>2026-04-08T08:53:53Z</time></trkpt><trkpt lat="43.073654563710384" lon="11.414338200728176"><ele>462.5</ele><time>2026-04-08T08:53:54Z</time></trkpt><trkpt lat="43.07358475709506" lon="11.414332509588059"><ele>464.33333333333337</ele><time>2026-04-08T08:53:55Z</time></trkpt><trkpt lat="43.07350890505974" lon="11.414318085709139"><ele>466.1666666666667</ele><time>2026-04-08T08:53:56Z</time></trkpt><trkpt lat="43.0734342490702" lon="11.414319830117455"><ele>468.0</ele><time>2026-04-08T08:53:57Z</time></trkpt><trkpt lat="43.0733410864179" lon="11.41428877531268"><ele>469.79999999999995</ele><time>2026-04-08T08:53:58Z</time></trkpt><trkpt lat="43.07325098346752" lon="11.414241836105194"><ele>471.59999999999997</ele><time>2026-04-08T08:53:59Z</time></trkpt><trkpt lat="43.073171333841685" lon="11.414253964932632"><ele>473.40000000000003</ele><time>2026-04-08T08:54:00Z</time></trkpt><trkpt lat="43.07308955042734" lon="11.414247970654257"><ele>475.20000000000005</ele><time>2026-04-08T08:54:01Z</time></trkpt><trkpt lat="43.07299207072524" lon="11.414246944942716"><ele>477.0</ele><time>2026-04-08T08:54:02Z</time></trkpt><trkpt lat="43.072889771818616" lon="11.41425851416952"><ele>477.0</ele><time>2026-04-08T08:54:03Z</time></trkpt><trkpt lat="43.072780912503156" lon="11.414268771740627"><ele>477.0</ele><time>2026-04-08T08:54:04Z</time></trkpt><trkpt lat="43.0726821096782" lon="11.414268920801069"><ele>477.0</ele><time>2026-04-08T08:54:05Z</time></trkpt><trkpt lat="43.072613640759585" lon="11.414252163906575"><ele>477.0</ele><time>2026-04-08T08:54:06Z</time></trkpt><trkpt lat="43.07254562847215" lon="11.41421199766081"><ele>477.0</ele><time>2026-04-08T08:54:07Z</time></trkpt><trkpt lat="43.07245943124639" lon="11.414173640223884"><ele>477.0</ele><time>2026-04-08T08:54:08Z</time></trkpt><trkpt lat="43.07236402790148" lon="11.41412373771622"><ele>476.6666666666667</ele><time>2026-04-08T08:54:09Z</time></trkpt><trkpt lat="43.0722902807096" lon="11.41404733537717"><ele>476.33333333333337</ele><time>2026-04-08T08:54:10Z</time></trkpt><trkpt lat="43.07221403754755" lon="11.413988190323796"><ele>476.0</ele><time>2026-04-08T08:54:11Z</time></trkpt><trkpt lat="43.072151336146455" lon="11.4139442010237"><ele>475.6666666666667</ele><time>2026-04-08T08:54:12Z</time></trkpt><trkpt lat="43.07207087644946" lon="11.41389570583759"><ele>475.33333333333337</ele><time>2026-04-08T08:54:13Z</time></trkpt><trkpt lat="43.07199083522616" lon="11.413867035217464"><ele>475.0</ele><time>2026-04-08T08:54:14Z</time></trkpt><trkpt lat="43.071915201305984" lon="11.41387033628859"><ele>475.00000000000006</ele><time>2026-04-08T08:54:15Z</time></trkpt><trkpt lat="43.07183273520752" lon="11.413844379619173"><ele>475.0</ele><time>2026-04-08T08:54:16Z</time></trkpt><trkpt lat="43.0717566049481" lon="11.413765646372905"><ele>475.0</ele><time>2026-04-08T08:54:17Z</time></trkpt><trkpt lat="43.07167043835283" lon="11.41372136667177"><ele>475.0</ele><time>2026-04-08T08:54:18Z</time></trkpt><trkpt lat="43.07159984306461" lon="11.4136603599811"><ele>475.00000000000006</ele><time>2026-04-08T08:54:19Z</time></trkpt><trkpt lat="43.071530627834996" lon="11.413601126492022"><ele>475.0</ele><time>2026-04-08T08:54:20Z</time></trkpt><trkpt lat="43.07146009072128" lon="11.413554268056926"><ele>477.2</ele><time>2026-04-08T08:54:21Z</time></trkpt><trkpt lat="43.07138116997245" lon="11.413503455183934"><ele>479.4</ele><time>2026-04-08T08:54:22Z</time></trkpt><trkpt lat="43.071272934616715" lon="11.413525170870479"><ele>481.6</ele><time>2026-04-08T08:54:23Z</time></trkpt><trkpt lat="43.07118163606477" lon="11.41358399192956"><ele>483.8</ele><time>2026-04-08T08:54:24Z</time></trkpt><trkpt lat="43.0711017733934" lon="11.413605407060292"><ele>486.0</ele><time>2026-04-08T08:54:25Z</time></trkpt><trkpt lat="43.07102174190677" lon="11.413600981861391"><ele>486.0</ele><time>2026-04-08T08:54:26Z</time></trkpt><trkpt lat="43.07093421339473" lon="11.413559711964604"><ele>486.0</ele><time>2026-04-08T08:54:27Z</time></trkpt><trkpt lat="43.07086172044897" lon="11.41349223337072"><ele>486.0</ele><time>2026-04-08T08:54:28Z</time></trkpt><trkpt lat="43.070787091137035" lon="11.413396373216171"><ele>486.0</ele><time>2026-04-08T08:54:29Z</time></trkpt><trkpt lat="43.070707005178306" lon="11.41329309467243"><ele>486.0</ele><time>2026-04-08T08:54:30Z</time></trkpt><trkpt lat="43.07064472631248" lon="11.413198154060925"><ele>487.5</ele><time>2026-04-08T08:54:31Z</time></trkpt><trkpt lat="43.07058022106444" lon="11.41311974075367"><ele>489.0</ele><time>2026-04-08T08:54:32Z</time></trkpt><trkpt lat="43.07051025754354" lon="11.41303620540116"><ele>490.5</ele><time>2026-04-08T08:54:33Z</time></trkpt><trkpt lat="43.0704563529752" lon="11.412974937497616"><ele>492.0</ele><time>2026-04-08T08:54:34Z</time></trkpt><trkpt lat="43.070402151703036" lon="11.412919900043484"><ele>493.5</ele><time>2026-04-08T08:54:35Z</time></trkpt><trkpt lat="43.07028133352032" lon="11.41285990455775"><ele>495.0</ele><time>2026-04-08T08:54:37Z</time></trkpt><trkpt lat="43.07019260109184" lon="11.412884872071192"><ele>495.0</ele><time>2026-04-08T08:54:38Z</time></trkpt><trkpt lat="43.07011592609763" lon="11.412975247897819"><ele>495.0</ele><time>2026-04-08T08:54:39Z</time></trkpt><trkpt lat="43.07009967871057" lon="11.413112443145915"><ele>495.0</ele><time>2026-04-08T08:54:40Z</time></trkpt><trkpt lat="43.07005341442977" lon="11.413216386912524"><ele>495.0</ele><time>2026-04-08T08:54:41Z</time></trkpt><trkpt lat="43.07001019474677" lon="11.413338212408506"><ele>495.0</ele><time>2026-04-08T08:54:42Z</time></trkpt><trkpt lat="43.069976855654936" lon="11.41345367201231"><ele>495.0</ele><time>2026-04-08T08:54:42.999Z</time></trkpt><trkpt lat="43.06996615593237" lon="11.413596302239222"><ele>495.0</ele><time>2026-04-08T08:54:43.999Z</time></trkpt><trkpt lat="43.06997387179704" lon="11.413740784649535"><ele>495.0</ele><time>2026-04-08T08:54:44.999Z</time></trkpt><trkpt lat="43.069983766152866" lon="11.413871292341417"><ele>495.0</ele><time>2026-04-08T08:54:45.999Z</time></trkpt><trkpt lat="43.06999479339766" lon="11.413985472719267"><ele>495.0</ele><time>2026-04-08T08:54:46.999Z</time></trkpt><trkpt lat="43.070018801562014" lon="11.414111946315959"><ele>494.8333333333333</ele><time>2026-04-08T08:54:47.999Z</time></trkpt><trkpt lat="43.070005503842005" lon="11.414245732053859"><ele>494.66666666666663</ele><time>2026-04-08T08:54:48.999Z</time></trkpt><trkpt lat="43.07000099207841" lon="11.414350293553126"><ele>494.5</ele><time>2026-04-08T08:54:49.999Z</time></trkpt><trkpt lat="43.06998820881764" lon="11.414468046186794"><ele>494.3333333333333</ele><time>2026-04-08T08:54:50.999Z</time></trkpt><trkpt lat="43.06997593953663" lon="11.414586119550126"><ele>494.16666666666663</ele><time>2026-04-08T08:54:51.999Z</time></trkpt><trkpt lat="43.06991444470914" lon="11.414675252823024"><ele>494.0</ele><time>2026-04-08T08:54:52.999Z</time></trkpt><trkpt lat="43.069865584080226" lon="11.414773884712814"><ele>495.0</ele><time>2026-04-08T08:54:53.999Z</time></trkpt><trkpt lat="43.06982559176747" lon="11.414883623807139"><ele>496.0</ele><time>2026-04-08T08:54:54.999Z</time></trkpt><trkpt lat="43.0697561881873" lon="11.414967409290384"><ele>497.0</ele><time>2026-04-08T08:54:55.999Z</time></trkpt><trkpt lat="43.0696650238526" lon="11.415008366641903"><ele>498.0</ele><time>2026-04-08T08:54:56.999Z</time></trkpt><trkpt lat="43.06957954445815" lon="11.415060528599792"><ele>499.0</ele><time>2026-04-08T08:54:57.999Z</time></trkpt><trkpt lat="43.069489728865584" lon="11.41512307667004"><ele>499.0</ele><time>2026-04-08T08:54:58.999Z</time></trkpt><trkpt lat="43.069399747941496" lon="11.415196469738875"><ele>499.0</ele><time>2026-04-08T08:54:59.999Z</time></trkpt><trkpt lat="43.06931746232031" lon="11.415276232752694"><ele>499.0</ele><time>2026-04-08T08:55:00.999Z</time></trkpt><trkpt lat="43.06925639073258" lon="11.41537036786208"><ele>499.0</ele><time>2026-04-08T08:55:01.999Z</time></trkpt><trkpt lat="43.06917874706787" lon="11.415430099458662"><ele>499.0</ele><time>2026-04-08T08:55:02.999Z</time></trkpt><trkpt lat="43.06909529643168" lon="11.415483221113295"><ele>496.79999999999995</ele><time>2026-04-08T08:55:03.999Z</time></trkpt><trkpt lat="43.06900365415449" lon="11.415522012543635"><ele>494.59999999999997</ele><time>2026-04-08T08:55:05Z</time></trkpt><trkpt lat="43.06891451936409" lon="11.41554035903711"><ele>492.4</ele><time>2026-04-08T08:55:06Z</time></trkpt><trkpt lat="43.06882119341937" lon="11.415555296647387"><ele>490.2</ele><time>2026-04-08T08:55:07Z</time></trkpt><trkpt lat="43.0687286743099" lon="11.415586042376988"><ele>488.0</ele><time>2026-04-08T08:55:08Z</time></trkpt><trkpt lat="43.06862961307305" lon="11.415639502000959"><ele>488.0</ele><time>2026-04-08T08:55:09Z</time></trkpt><trkpt lat="43.06853612594048" lon="11.415722121292982"><ele>487.99999999999994</ele><time>2026-04-08T08:55:10Z</time></trkpt><trkpt lat="43.068446193973216" lon="11.415830979841449"><ele>487.99999999999994</ele><time>2026-04-08T08:55:11Z</time></trkpt><trkpt lat="43.068363455409745" lon="11.415907455743875"><ele>488.0</ele><time>2026-04-08T08:55:12Z</time></trkpt><trkpt lat="43.068289191803245" lon="11.416002802167627"><ele>488.0</ele><time>2026-04-08T08:55:13Z</time></trkpt><trkpt lat="43.06820548220218" lon="11.416097139843444"><ele>487.79999999999995</ele><time>2026-04-08T08:55:14Z</time></trkpt><trkpt lat="43.0681209888125" lon="11.416200895679394"><ele>487.59999999999997</ele><time>2026-04-08T08:55:15Z</time></trkpt><trkpt lat="43.0680267467194" lon="11.416274484203523"><ele>487.40000000000003</ele><time>2026-04-08T08:55:16Z</time></trkpt><trkpt lat="43.06794363073124" lon="11.416326134134982"><ele>487.20000000000005</ele><time>2026-04-08T08:55:17Z</time></trkpt><trkpt lat="43.067865741264264" lon="11.416379610479108"><ele>487.0</ele><time>2026-04-08T08:55:18Z</time></trkpt><trkpt lat="43.06780718524063" lon="11.416438788542404"><ele>489.0</ele><time>2026-04-08T08:55:19Z</time></trkpt><trkpt lat="43.06775244118441" lon="11.416526117259414"><ele>491.00000000000006</ele><time>2026-04-08T08:55:20Z</time></trkpt><trkpt lat="43.06771775800911" lon="11.416645352232907"><ele>493.00000000000006</ele><time>2026-04-08T08:55:21Z</time></trkpt><trkpt lat="43.06768494673251" lon="11.416781899480423"><ele>495.0</ele><time>2026-04-08T08:55:22Z</time></trkpt><trkpt lat="43.067660812286825" lon="11.416894296845458"><ele>497.0</ele><time>2026-04-08T08:55:23Z</time></trkpt><trkpt lat="43.06759778746533" lon="11.4169837279566"><ele>497.0</ele><time>2026-04-08T08:55:24Z</time></trkpt><trkpt lat="43.06753796724604" lon="11.417095013931997"><ele>497.00000000000006</ele><time>2026-04-08T08:55:25Z</time></trkpt><trkpt lat="43.06748117107268" lon="11.417195528982353"><ele>497.00000000000006</ele><time>2026-04-08T08:55:26Z</time></trkpt><trkpt lat="43.06742450675059" lon="11.417287405459868"><ele>497.0</ele><time>2026-04-08T08:55:27Z</time></trkpt><trkpt lat="43.06737734017757" lon="11.417392068247835"><ele>497.0</ele><time>2026-04-08T08:55:28Z</time></trkpt><trkpt lat="43.06729731448054" lon="11.417452534168428"><ele>498.40000000000003</ele><time>2026-04-08T08:55:29Z</time></trkpt><trkpt lat="43.06721182685885" lon="11.41751775806347"><ele>499.80000000000007</ele><time>2026-04-08T08:55:30Z</time></trkpt><trkpt lat="43.06713737133696" lon="11.417551942282207"><ele>501.2</ele><time>2026-04-08T08:55:31Z</time></trkpt><trkpt lat="43.06704206784092" lon="11.41758471514734"><ele>502.6</ele><time>2026-04-08T08:55:32Z</time></trkpt><trkpt lat="43.066951681622356" lon="11.417610317603934"><ele>504.0</ele><time>2026-04-08T08:55:33Z</time></trkpt><trkpt lat="43.066857391954535" lon="11.41766667918592"><ele>504.0</ele><time>2026-04-08T08:55:34Z</time></trkpt><trkpt lat="43.06678882365288" lon="11.417731289228081"><ele>504.0</ele><time>2026-04-08T08:55:35Z</time></trkpt><trkpt lat="43.06673409534418" lon="11.417834504330413"><ele>504.0</ele><time>2026-04-08T08:55:36Z</time></trkpt><trkpt lat="43.06669395172726" lon="11.417954792455784"><ele>504.0</ele><time>2026-04-08T08:55:37Z</time></trkpt><trkpt lat="43.06665593413756" lon="11.418075519552257"><ele>504.0</ele><time>2026-04-08T08:55:38Z</time></trkpt><trkpt lat="43.06662616888016" lon="11.41818930236133"><ele>500.79999999999995</ele><time>2026-04-08T08:55:39Z</time></trkpt><trkpt lat="43.06660904735966" lon="11.418326094233453"><ele>497.59999999999997</ele><time>2026-04-08T08:55:40Z</time></trkpt><trkpt lat="43.06658278275287" lon="11.418458997083608"><ele>494.4</ele><time>2026-04-08T08:55:41Z</time></trkpt><trkpt lat="43.06656902728497" lon="11.418587739560389"><ele>491.2</ele><time>2026-04-08T08:55:42Z</time></trkpt><trkpt lat="43.06656087779967" lon="11.418705068914495"><ele>488.0</ele><time>2026-04-08T08:55:43Z</time></trkpt><trkpt lat="43.066548617885594" lon="11.41881875141947"><ele>486.59999999999997</ele><time>2026-04-08T08:55:44Z</time></trkpt><trkpt lat="43.066540601767606" lon="11.41895453967915"><ele>485.19999999999993</ele><time>2026-04-08T08:55:45Z</time></trkpt><trkpt lat="43.06654378633585" lon="11.419088194066816"><ele>483.8</ele><time>2026-04-08T08:55:46Z</time></trkpt><trkpt lat="43.06655357276175" lon="11.419218047931675"><ele>482.4</ele><time>2026-04-08T08:55:47Z</time></trkpt><trkpt lat="43.0665572230791" lon="11.41934878595868"><ele>481.0</ele><time>2026-04-08T08:55:48Z</time></trkpt><trkpt lat="43.066559804207934" lon="11.419469601859845"><ele>481.0</ele><time>2026-04-08T08:55:49Z</time></trkpt><trkpt lat="43.06656240105902" lon="11.419594974294625"><ele>481.0</ele><time>2026-04-08T08:55:50Z</time></trkpt><trkpt lat="43.06656602841528" lon="11.41973473168801"><ele>481.0</ele><time>2026-04-08T08:55:51Z</time></trkpt><trkpt lat="43.06656175884336" lon="11.419845749888992"><ele>481.0</ele><time>2026-04-08T08:55:52Z</time></trkpt><trkpt lat="43.06653676241589" lon="11.419962855610724"><ele>481.0</ele><time>2026-04-08T08:55:53Z</time></trkpt><trkpt lat="43.06649190047662" lon="11.420079948744982"><ele>481.8</ele><time>2026-04-08T08:55:54Z</time></trkpt><trkpt lat="43.066413529699126" lon="11.420180800891886"><ele>482.6</ele><time>2026-04-08T08:55:55Z</time></trkpt><trkpt lat="43.06635635126127" lon="11.420307601833208"><ele>483.4</ele><time>2026-04-08T08:55:56Z</time></trkpt><trkpt lat="43.066289791421255" lon="11.420430907373833"><ele>484.2</ele><time>2026-04-08T08:55:57Z</time></trkpt><trkpt lat="43.06624229540917" lon="11.420556940393894"><ele>485.0</ele><time>2026-04-08T08:55:58Z</time></trkpt><trkpt lat="43.06619211894676" lon="11.420683370536283"><ele>486.75</ele><time>2026-04-08T08:55:59Z</time></trkpt><trkpt lat="43.06611809991108" lon="11.420800139734816"><ele>488.5</ele><time>2026-04-08T08:56:00Z</time></trkpt><trkpt lat="43.066043980606345" lon="11.42093525424004"><ele>490.25</ele><time>2026-04-08T08:56:01Z</time></trkpt><trkpt lat="43.06597278193018" lon="11.421079618864693"><ele>492.0</ele><time>2026-04-08T08:56:02Z</time></trkpt><trkpt lat="43.06589854906839" lon="11.421203585505754"><ele>492.0</ele><time>2026-04-08T08:56:03Z</time></trkpt><trkpt lat="43.065834258482845" lon="11.42131105477914"><ele>492.00000000000006</ele><time>2026-04-08T08:56:04Z</time></trkpt><trkpt lat="43.06578012395355" lon="11.421419446155733"><ele>492.00000000000006</ele><time>2026-04-08T08:56:05Z</time></trkpt><trkpt lat="43.06572671338547" lon="11.42153766098518"><ele>492.0</ele><time>2026-04-08T08:56:06Z</time></trkpt><trkpt lat="43.06568102341502" lon="11.421644276034787"><ele>492.0</ele><time>2026-04-08T08:56:07Z</time></trkpt><trkpt lat="43.06562406446785" lon="11.42175072069684"><ele>490.8</ele><time>2026-04-08T08:56:08Z</time></trkpt><trkpt lat="43.06554514533225" lon="11.421843784694602"><ele>489.6</ele><time>2026-04-08T08:56:09Z</time></trkpt><trkpt lat="43.06545324376206" lon="11.421924031200499"><ele>488.40000000000003</ele><time>2026-04-08T08:56:10Z</time></trkpt><trkpt lat="43.06536681509778" lon="11.421993032530036"><ele>487.20000000000005</ele><time>2026-04-08T08:56:11Z</time></trkpt><trkpt lat="43.06528306510868" lon="11.422067233904524"><ele>486.0</ele><time>2026-04-08T08:56:12Z</time></trkpt><trkpt lat="43.06520407729987" lon="11.422136844476837"><ele>486.0</ele><time>2026-04-08T08:56:13Z</time></trkpt><trkpt lat="43.06512597794638" lon="11.42218323589885"><ele>486.0</ele><time>2026-04-08T08:56:14Z</time></trkpt><trkpt lat="43.06504199547632" lon="11.422210725373489"><ele>486.0</ele><time>2026-04-08T08:56:15Z</time></trkpt><trkpt lat="43.064949744718234" lon="11.42221707789103"><ele>486.0</ele><time>2026-04-08T08:56:16Z</time></trkpt><trkpt lat="43.06486859234409" lon="11.422218536824156"><ele>486.0</ele><time>2026-04-08T08:56:17Z</time></trkpt><trkpt lat="43.06478961543454" lon="11.422222032469616"><ele>486.0</ele><time>2026-04-08T08:56:18Z</time></trkpt><trkpt lat="43.06470533203533" lon="11.422200865481352"><ele>486.0</ele><time>2026-04-08T08:56:19Z</time></trkpt><trkpt lat="43.06461752325051" lon="11.42219101400261"><ele>486.0</ele><time>2026-04-08T08:56:20Z</time></trkpt><trkpt lat="43.06452231404201" lon="11.422168135428864"><ele>486.0</ele><time>2026-04-08T08:56:21Z</time></trkpt><trkpt lat="43.064433090892166" lon="11.422135855381496"><ele>486.0</ele><time>2026-04-08T08:56:22Z</time></trkpt><trkpt lat="43.064349345406235" lon="11.42210327843913"><ele>486.0</ele><time>2026-04-08T08:56:23Z</time></trkpt><trkpt lat="43.06427310394407" lon="11.422067079996177"><ele>486.0</ele><time>2026-04-08T08:56:24Z</time></trkpt><trkpt lat="43.064192511519316" lon="11.422027903118883"><ele>483.6666666666667</ele><time>2026-04-08T08:56:25Z</time></trkpt><trkpt lat="43.064108820440396" lon="11.422008501892368"><ele>481.33333333333337</ele><time>2026-04-08T08:56:26Z</time></trkpt><trkpt lat="43.0640343576904" lon="11.421961824384423"><ele>479.0</ele><time>2026-04-08T08:56:27Z</time></trkpt><trkpt lat="43.06395975892213" lon="11.421938781790715"><ele>476.6666666666667</ele><time>2026-04-08T08:56:28Z</time></trkpt><trkpt lat="43.06386642996232" lon="11.421944500020183"><ele>474.33333333333337</ele><time>2026-04-08T08:56:29Z</time></trkpt><trkpt lat="43.06377073190704" lon="11.421974973272011"><ele>472.0</ele><time>2026-04-08T08:56:30Z</time></trkpt><trkpt lat="43.06368080168826" lon="11.421969577171511"><ele>472.0</ele><time>2026-04-08T08:56:31Z</time></trkpt><trkpt lat="43.063610611795575" lon="11.421986124801217"><ele>472.00000000000006</ele><time>2026-04-08T08:56:32Z</time></trkpt><trkpt lat="43.06352940613802" lon="11.422062186425425"><ele>472.00000000000006</ele><time>2026-04-08T08:56:33.999Z</time></trkpt><trkpt lat="43.06346028311508" lon="11.422177456385175"><ele>472.0</ele><time>2026-04-08T08:56:35.999Z</time></trkpt><trkpt lat="43.063456756082346" lon="11.422292607319557"><ele>472.0</ele><time>2026-04-08T08:56:36.999Z</time></trkpt><trkpt lat="43.06349790160718" lon="11.422421596094905"><ele>472.00000000000006</ele><time>2026-04-08T08:56:37.999Z</time></trkpt><trkpt lat="43.06352567331933" lon="11.422525685297616"><ele>472.0</ele><time>2026-04-08T08:56:38.999Z</time></trkpt><trkpt lat="43.06354909792147" lon="11.422617884960967"><ele>472.0</ele><time>2026-04-08T08:56:39.999Z</time></trkpt><trkpt lat="43.063561102561835" lon="11.4227232857952"><ele>472.0</ele><time>2026-04-08T08:56:40.999Z</time></trkpt><trkpt lat="43.06354751163228" lon="11.422850955557012"><ele>472.00000000000006</ele><time>2026-04-08T08:56:41.999Z</time></trkpt><trkpt lat="43.06349131940578" lon="11.422971251243094"><ele>472.0</ele><time>2026-04-08T08:56:42.999Z</time></trkpt><trkpt lat="43.06343738921694" lon="11.423073967951385"><ele>471.50000000000006</ele><time>2026-04-08T08:56:43.999Z</time></trkpt><trkpt lat="43.063400327783704" lon="11.42317325079432"><ele>471.0</ele><time>2026-04-08T08:56:44.999Z</time></trkpt><trkpt lat="43.06336634995303" lon="11.423259194276445"><ele>470.5</ele><time>2026-04-08T08:56:45.999Z</time></trkpt><trkpt lat="43.06333897481815" lon="11.423350613797242"><ele>470.0</ele><time>2026-04-08T08:56:46.999Z</time></trkpt><trkpt lat="43.06331926541508" lon="11.423460889176837"><ele>469.50000000000006</ele><time>2026-04-08T08:56:47.999Z</time></trkpt><trkpt lat="43.06331495786075" lon="11.423555059337163"><ele>469.0</ele><time>2026-04-08T08:56:48.999Z</time></trkpt><trkpt lat="43.06334977112773" lon="11.423711985731163"><ele>468.2</ele><time>2026-04-08T08:56:50.999Z</time></trkpt><trkpt lat="43.06339084475201" lon="11.423865406874425"><ele>467.4</ele><time>2026-04-08T08:56:52.999Z</time></trkpt><trkpt lat="43.06340737906082" lon="11.424026735358874"><ele>466.6</ele><time>2026-04-08T08:56:54.999Z</time></trkpt><trkpt lat="43.063374289118485" lon="11.424189470556557"><ele>465.8</ele><time>2026-04-08T08:56:56.999Z</time></trkpt><trkpt lat="43.06333706676097" lon="11.424289529647666"><ele>465.0</ele><time>2026-04-08T08:56:57.999Z</time></trkpt><trkpt lat="43.06329680680412" lon="11.424394696980332"><ele>464.5</ele><time>2026-04-08T08:56:58.999Z</time></trkpt><trkpt lat="43.06326479950369" lon="11.424505310308913"><ele>464.0</ele><time>2026-04-08T08:56:59.999Z</time></trkpt><trkpt lat="43.06324889623801" lon="11.424604580464363"><ele>463.5</ele><time>2026-04-08T08:57:00.999Z</time></trkpt><trkpt lat="43.063248010169" lon="11.42471414405063"><ele>463.0</ele><time>2026-04-08T08:57:01.999Z</time></trkpt><trkpt lat="43.06322801543967" lon="11.424842605188655"><ele>462.5</ele><time>2026-04-08T08:57:02.999Z</time></trkpt><trkpt lat="43.0632013769537" lon="11.424987682212047"><ele>462.0</ele><time>2026-04-08T08:57:03.999Z</time></trkpt><trkpt lat="43.06315399821976" lon="11.425137019526034"><ele>462.0</ele><time>2026-04-08T08:57:04.999Z</time></trkpt><trkpt lat="43.06306944357231" lon="11.425255707849479"><ele>462.00000000000006</ele><time>2026-04-08T08:57:05.999Z</time></trkpt><trkpt lat="43.06301073565666" lon="11.425374129354957"><ele>462.00000000000006</ele><time>2026-04-08T08:57:06.999Z</time></trkpt><trkpt lat="43.06294765363206" lon="11.425474203408703"><ele>462.0</ele><time>2026-04-08T08:57:07.999Z</time></trkpt><trkpt lat="43.06288786722875" lon="11.425585193562263"><ele>462.0</ele><time>2026-04-08T08:57:08.999Z</time></trkpt><trkpt lat="43.062845291794936" lon="11.425721817982106"><ele>462.8</ele><time>2026-04-08T08:57:09.999Z</time></trkpt><trkpt lat="43.062824645544815" lon="11.425886843183017"><ele>463.6</ele><time>2026-04-08T08:57:11Z</time></trkpt><trkpt lat="43.0628250495507" lon="11.426027505813316"><ele>464.40000000000003</ele><time>2026-04-08T08:57:12Z</time></trkpt><trkpt lat="43.06282274167202" lon="11.426155506284987"><ele>465.20000000000005</ele><time>2026-04-08T08:57:13Z</time></trkpt><trkpt lat="43.06283087645711" lon="11.4262758283893"><ele>466.0</ele><time>2026-04-08T08:57:14Z</time></trkpt><trkpt lat="43.062837198277805" lon="11.426425005546138"><ele>466.8</ele><time>2026-04-08T08:57:15Z</time></trkpt><trkpt lat="43.0628522186142" lon="11.426565841334819"><ele>467.6</ele><time>2026-04-08T08:57:16Z</time></trkpt><trkpt lat="43.06286877137414" lon="11.426698058699333"><ele>468.4</ele><time>2026-04-08T08:57:17Z</time></trkpt><trkpt lat="43.06289002537965" lon="11.426838067918665"><ele>469.2</ele><time>2026-04-08T08:57:18Z</time></trkpt><trkpt lat="43.062903715009384" lon="11.42696373997059"><ele>470.0</ele><time>2026-04-08T08:57:19Z</time></trkpt><trkpt lat="43.062893007222605" lon="11.427072006005364"><ele>469.2</ele><time>2026-04-08T08:57:20Z</time></trkpt><trkpt lat="43.062857123954814" lon="11.427182389786967"><ele>468.4</ele><time>2026-04-08T08:57:21Z</time></trkpt><trkpt lat="43.062786043915466" lon="11.427272821926957"><ele>467.6</ele><time>2026-04-08T08:57:22Z</time></trkpt><trkpt lat="43.06270198391524" lon="11.42735397140041"><ele>466.8</ele><time>2026-04-08T08:57:23Z</time></trkpt><trkpt lat="43.06260685334858" lon="11.427417314761085"><ele>466.0</ele><time>2026-04-08T08:57:24Z</time></trkpt><trkpt lat="43.062527400099775" lon="11.427443324175622"><ele>466.8</ele><time>2026-04-08T08:57:25Z</time></trkpt><trkpt lat="43.06244659710898" lon="11.427476062636782"><ele>467.6</ele><time>2026-04-08T08:57:26Z</time></trkpt><trkpt lat="43.06235375148722" lon="11.427519541973767"><ele>468.4</ele><time>2026-04-08T08:57:27Z</time></trkpt><trkpt lat="43.06225741493167" lon="11.427566763185087"><ele>469.2</ele><time>2026-04-08T08:57:28Z</time></trkpt><trkpt lat="43.06217122170094" lon="11.427595752070992"><ele>470.0</ele><time>2026-04-08T08:57:29Z</time></trkpt><trkpt lat="43.062080209974305" lon="11.427614079461703"><ele>470.0</ele><time>2026-04-08T08:57:30Z</time></trkpt><trkpt lat="43.06198014995154" lon="11.427621369419963"><ele>470.0</ele><time>2026-04-08T08:57:31Z</time></trkpt><trkpt lat="43.06190607864036" lon="11.42760740354944"><ele>470.0</ele><time>2026-04-08T08:57:32Z</time></trkpt><trkpt lat="43.061824102886106" lon="11.427580476044712"><ele>470.0</ele><time>2026-04-08T08:57:33Z</time></trkpt><trkpt lat="43.061734927950695" lon="11.427531510300389"><ele>470.0</ele><time>2026-04-08T08:57:34Z</time></trkpt><trkpt lat="43.06164526611221" lon="11.427463024891429"><ele>470.2</ele><time>2026-04-08T08:57:35Z</time></trkpt><trkpt lat="43.06157266167533" lon="11.427391989530667"><ele>470.4</ele><time>2026-04-08T08:57:36Z</time></trkpt><trkpt lat="43.06148238706574" lon="11.427359217527291"><ele>470.6</ele><time>2026-04-08T08:57:37Z</time></trkpt><trkpt lat="43.06137760820062" lon="11.42736160228522"><ele>470.8</ele><time>2026-04-08T08:57:38Z</time></trkpt><trkpt lat="43.061251021508305" lon="11.427368318669146"><ele>471.0</ele><time>2026-04-08T08:57:39Z</time></trkpt><trkpt lat="43.061134569116696" lon="11.42740357824385"><ele>471.0</ele><time>2026-04-08T08:57:40Z</time></trkpt><trkpt lat="43.061043387291456" lon="11.427438676677838"><ele>471.0</ele><time>2026-04-08T08:57:41Z</time></trkpt><trkpt lat="43.06096155545806" lon="11.427469539594265"><ele>471.0</ele><time>2026-04-08T08:57:42Z</time></trkpt><trkpt lat="43.06088523572865" lon="11.42748195891788"><ele>471.0</ele><time>2026-04-08T08:57:43Z</time></trkpt><trkpt lat="43.060807762460705" lon="11.427485206276156"><ele>471.0</ele><time>2026-04-08T08:57:44Z</time></trkpt><trkpt lat="43.06073291351421" lon="11.42740094562744"><ele>471.0</ele><time>2026-04-08T08:57:45Z</time></trkpt><trkpt lat="43.060636558939954" lon="11.427340756029666"><ele>472.6</ele><time>2026-04-08T08:57:46Z</time></trkpt><trkpt lat="43.060547756931385" lon="11.427269531742454"><ele>474.20000000000005</ele><time>2026-04-08T08:57:47Z</time></trkpt><trkpt lat="43.060476011018" lon="11.427231819526645"><ele>475.79999999999995</ele><time>2026-04-08T08:57:48Z</time></trkpt><trkpt lat="43.060372579008195" lon="11.427202647667423"><ele>477.4</ele><time>2026-04-08T08:57:50Z</time></trkpt><trkpt lat="43.060284020812176" lon="11.427324202935157"><ele>479.0</ele><time>2026-04-08T08:57:52Z</time></trkpt><trkpt lat="43.06028522594444" lon="11.427443144145254"><ele>478.99999999999994</ele><time>2026-04-08T08:57:53Z</time></trkpt><trkpt lat="43.06028581482729" lon="11.427567603983372"><ele>479.0</ele><time>2026-04-08T08:57:54Z</time></trkpt><trkpt lat="43.06026293219262" lon="11.427658449506453"><ele>479.0</ele><time>2026-04-08T08:57:55Z</time></trkpt><trkpt lat="43.06021502953511" lon="11.427726580114618"><ele>479.0</ele><time>2026-04-08T08:57:56Z</time></trkpt><trkpt lat="43.06014688322239" lon="11.427775512237366"><ele>478.99999999999994</ele><time>2026-04-08T08:57:57Z</time></trkpt><trkpt lat="43.06005662049884" lon="11.427819415739247"><ele>479.0</ele><time>2026-04-08T08:57:58Z</time></trkpt><trkpt lat="43.05997684544907" lon="11.427866420333736"><ele>479.8333333333333</ele><time>2026-04-08T08:57:59Z</time></trkpt><trkpt lat="43.05989932440627" lon="11.427901694789556"><ele>480.66666666666663</ele><time>2026-04-08T08:58:00Z</time></trkpt><trkpt lat="43.05983153503781" lon="11.427902680622958"><ele>481.5</ele><time>2026-04-08T08:58:01Z</time></trkpt><trkpt lat="43.05976946754644" lon="11.427859411461297"><ele>482.33333333333337</ele><time>2026-04-08T08:58:02Z</time></trkpt><trkpt lat="43.0597193022944" lon="11.427768335661954"><ele>483.1666666666667</ele><time>2026-04-08T08:58:03Z</time></trkpt><trkpt lat="43.059652566869374" lon="11.427698389515323"><ele>484.0</ele><time>2026-04-08T08:58:04Z</time></trkpt><trkpt lat="43.05959634014252" lon="11.427595020142643"><ele>484.0</ele><time>2026-04-08T08:58:05Z</time></trkpt><trkpt lat="43.05952509620663" lon="11.427489055268994"><ele>484.0</ele><time>2026-04-08T08:58:06Z</time></trkpt><trkpt lat="43.0594444541697" lon="11.427387698942598"><ele>484.0</ele><time>2026-04-08T08:58:07Z</time></trkpt><trkpt lat="43.059391763116274" lon="11.427291788064895"><ele>484.0</ele><time>2026-04-08T08:58:08Z</time></trkpt><trkpt lat="43.05933113995184" lon="11.427230310250001"><ele>484.0</ele><time>2026-04-08T08:58:09Z</time></trkpt><trkpt lat="43.05925767187495" lon="11.427193310186869"><ele>484.00000000000006</ele><time>2026-04-08T08:58:10Z</time></trkpt><trkpt lat="43.05916260070908" lon="11.427206632738963"><ele>484.0</ele><time>2026-04-08T08:58:11Z</time></trkpt><trkpt lat="43.05907577979004" lon="11.427263810674276"><ele>484.0</ele><time>2026-04-08T08:58:12Z</time></trkpt><trkpt lat="43.05902120705768" lon="11.427354648733314"><ele>484.0</ele><time>2026-04-08T08:58:13Z</time></trkpt><trkpt lat="43.05899363137151" lon="11.42743927114628"><ele>484.00000000000006</ele><time>2026-04-08T08:58:14Z</time></trkpt><trkpt lat="43.05900434867447" lon="11.42754634419824"><ele>484.0</ele><time>2026-04-08T08:58:15Z</time></trkpt><trkpt lat="43.059040207128774" lon="11.427640470701585"><ele>483.1666666666667</ele><time>2026-04-08T08:58:16Z</time></trkpt><trkpt lat="43.059070639947684" lon="11.427747974353975"><ele>482.33333333333337</ele><time>2026-04-08T08:58:17Z</time></trkpt><trkpt lat="43.059115491609695" lon="11.427875661560302"><ele>481.5</ele><time>2026-04-08T08:58:18Z</time></trkpt><trkpt lat="43.05916010186891" lon="11.42801113918403"><ele>480.66666666666663</ele><time>2026-04-08T08:58:19Z</time></trkpt><trkpt lat="43.05917964297071" lon="11.428114398729633"><ele>479.8333333333333</ele><time>2026-04-08T08:58:20Z</time></trkpt><trkpt lat="43.059188034066295" lon="11.428203638351741"><ele>479.0</ele><time>2026-04-08T08:58:21Z</time></trkpt><trkpt lat="43.05912436307189" lon="11.428351707519202"><ele>481.4</ele><time>2026-04-08T08:58:23Z</time></trkpt><trkpt lat="43.05902804838242" lon="11.42833509678722"><ele>483.79999999999995</ele><time>2026-04-08T08:58:24Z</time></trkpt><trkpt lat="43.058948214344674" lon="11.42838037570606"><ele>486.20000000000005</ele><time>2026-04-08T08:58:25Z</time></trkpt><trkpt lat="43.058871908356565" lon="11.428436452883124"><ele>488.6</ele><time>2026-04-08T08:58:26Z</time></trkpt><trkpt lat="43.0587922805954" lon="11.428527642373439"><ele>491.0</ele><time>2026-04-08T08:58:27Z</time></trkpt><trkpt lat="43.0586897738424" lon="11.428638095433008"><ele>489.75</ele><time>2026-04-08T08:58:28Z</time></trkpt><trkpt lat="43.058619075723925" lon="11.428809771775274"><ele>488.5</ele><time>2026-04-08T08:58:28.999Z</time></trkpt><trkpt lat="43.05854412319446" lon="11.428951344589102"><ele>487.25</ele><time>2026-04-08T08:58:29.999Z</time></trkpt><trkpt lat="43.05849032596889" lon="11.429126070459672"><ele>486.0</ele><time>2026-04-08T08:58:30.999Z</time></trkpt><trkpt lat="43.05844736828137" lon="11.429317729802552"><ele>486.0</ele><time>2026-04-08T08:58:31.999Z</time></trkpt><trkpt lat="43.05838674910357" lon="11.429495371413317"><ele>486.0</ele><time>2026-04-08T08:58:32.999Z</time></trkpt><trkpt lat="43.05834425560201" lon="11.429644341263067"><ele>486.0</ele><time>2026-04-08T08:58:33.999Z</time></trkpt><trkpt lat="43.058315108432275" lon="11.42978212686207"><ele>486.0</ele><time>2026-04-08T08:58:34.999Z</time></trkpt><trkpt lat="43.0582903805479" lon="11.429923627664495"><ele>486.0</ele><time>2026-04-08T08:58:35.999Z</time></trkpt><trkpt lat="43.058286745347914" lon="11.430067801985917"><ele>486.0</ele><time>2026-04-08T08:58:36.999Z</time></trkpt><trkpt lat="43.05827546483662" lon="11.43018727259559"><ele>486.0</ele><time>2026-04-08T08:58:37.999Z</time></trkpt><trkpt lat="43.05828005033188" lon="11.430331894312037"><ele>486.0</ele><time>2026-04-08T08:58:38.999Z</time></trkpt><trkpt lat="43.058292869758965" lon="11.430467032436292"><ele>486.0</ele><time>2026-04-08T08:58:39.999Z</time></trkpt><trkpt lat="43.058293067600665" lon="11.4305983040286"><ele>485.8</ele><time>2026-04-08T08:58:40.999Z</time></trkpt><trkpt lat="43.05828587947266" lon="11.430721362239906"><ele>485.6</ele><time>2026-04-08T08:58:41.999Z</time></trkpt><trkpt lat="43.05825848954384" lon="11.430836661633531"><ele>485.4</ele><time>2026-04-08T08:58:42.999Z</time></trkpt><trkpt lat="43.0581963209663" lon="11.430939083939585"><ele>485.2</ele><time>2026-04-08T08:58:43.999Z</time></trkpt><trkpt lat="43.058106800644104" lon="11.430992341714745"><ele>485.0</ele><time>2026-04-08T08:58:44.999Z</time></trkpt><trkpt lat="43.058011776041525" lon="11.431077939454148"><ele>485.75</ele><time>2026-04-08T08:58:45.999Z</time></trkpt><trkpt lat="43.057894655761416" lon="11.43114380034108"><ele>486.5</ele><time>2026-04-08T08:58:46.999Z</time></trkpt><trkpt lat="43.05774873439649" lon="11.431214468524237"><ele>487.25</ele><time>2026-04-08T08:58:47.999Z</time></trkpt><trkpt lat="43.05760088432684" lon="11.431305374218796"><ele>488.0</ele><time>2026-04-08T08:58:48.999Z</time></trkpt><trkpt lat="43.05748579781029" lon="11.431454827574658"><ele>488.2</ele><time>2026-04-08T08:58:49.999Z</time></trkpt><trkpt lat="43.05738313967597" lon="11.431577948648567"><ele>488.4</ele><time>2026-04-08T08:58:50.999Z</time></trkpt><trkpt lat="43.0572925967304" lon="11.431677121185466"><ele>488.59999999999997</ele><time>2026-04-08T08:58:51.999Z</time></trkpt><trkpt lat="43.05722838090762" lon="11.431764746567067"><ele>488.79999999999995</ele><time>2026-04-08T08:58:52.999Z</time></trkpt><trkpt lat="43.057182053034154" lon="11.431879654322078"><ele>489.0</ele><time>2026-04-08T08:58:53.999Z</time></trkpt><trkpt lat="43.0571305154462" lon="11.431975434246903"><ele>489.0</ele><time>2026-04-08T08:58:54.999Z</time></trkpt><trkpt lat="43.057066448111186" lon="11.432061411329716"><ele>489.0</ele><time>2026-04-08T08:58:55.999Z</time></trkpt><trkpt lat="43.05701274760024" lon="11.432167443365254"><ele>489.0</ele><time>2026-04-08T08:58:56.999Z</time></trkpt><trkpt lat="43.0569790459266" lon="11.432283634208394"><ele>489.0</ele><time>2026-04-08T08:58:57.999Z</time></trkpt><trkpt lat="43.05692361592745" lon="11.432384343209332"><ele>489.0</ele><time>2026-04-08T08:58:58.999Z</time></trkpt><trkpt lat="43.056860814715556" lon="11.432495412355527"><ele>489.25</ele><time>2026-04-08T08:58:59.999Z</time></trkpt><trkpt lat="43.056789645445974" lon="11.432615268740307"><ele>489.5</ele><time>2026-04-08T08:59:00.999Z</time></trkpt><trkpt lat="43.056702122812325" lon="11.432723168411187"><ele>489.75</ele><time>2026-04-08T08:59:01.999Z</time></trkpt><trkpt lat="43.05661650937175" lon="11.432832279426226"><ele>490.0</ele><time>2026-04-08T08:59:02.999Z</time></trkpt><trkpt lat="43.05654478477004" lon="11.432950860809004"><ele>491.4</ele><time>2026-04-08T08:59:03.999Z</time></trkpt><trkpt lat="43.05648480400754" lon="11.433053587121872"><ele>492.8</ele><time>2026-04-08T08:59:04.999Z</time></trkpt><trkpt lat="43.05641754100047" lon="11.433129895146324"><ele>494.20000000000005</ele><time>2026-04-08T08:59:05.999Z</time></trkpt><trkpt lat="43.05632628425759" lon="11.433196145453255"><ele>495.6</ele><time>2026-04-08T08:59:06.999Z</time></trkpt><trkpt lat="43.056210255882064" lon="11.433259034955915"><ele>497.0</ele><time>2026-04-08T08:59:07.999Z</time></trkpt><trkpt lat="43.05608156778081" lon="11.433318037430146"><ele>497.0</ele><time>2026-04-08T08:59:08.999Z</time></trkpt><trkpt lat="43.05595080783049" lon="11.43336016965288"><ele>497.0</ele><time>2026-04-08T08:59:09.999Z</time></trkpt><trkpt lat="43.05584356971633" lon="11.433393357450141"><ele>497.0</ele><time>2026-04-08T08:59:10.999Z</time></trkpt><trkpt lat="43.05574450010335" lon="11.433425970710184"><ele>497.0</ele><time>2026-04-08T08:59:11.999Z</time></trkpt><trkpt lat="43.05563818998739" lon="11.433446618183925"><ele>496.8</ele><time>2026-04-08T08:59:12.999Z</time></trkpt><trkpt lat="43.05555623397332" lon="11.43352371544254"><ele>496.6</ele><time>2026-04-08T08:59:13.999Z</time></trkpt><trkpt lat="43.05547399373601" lon="11.433576192507642"><ele>496.40000000000003</ele><time>2026-04-08T08:59:14.999Z</time></trkpt><trkpt lat="43.05539742005047" lon="11.433623340636673"><ele>496.20000000000005</ele><time>2026-04-08T08:59:15.999Z</time></trkpt><trkpt lat="43.055315569041994" lon="11.433666997036038"><ele>496.0</ele><time>2026-04-08T08:59:17Z</time></trkpt><trkpt lat="43.055228258664705" lon="11.433706031686011"><ele>496.0</ele><time>2026-04-08T08:59:18Z</time></trkpt><trkpt lat="43.05513130358934" lon="11.433700520278952"><ele>496.0</ele><time>2026-04-08T08:59:19Z</time></trkpt><trkpt lat="43.05504696029979" lon="11.433746457327263"><ele>496.0</ele><time>2026-04-08T08:59:20Z</time></trkpt><trkpt lat="43.05495617795571" lon="11.433783922358641"><ele>496.0</ele><time>2026-04-08T08:59:21Z</time></trkpt><trkpt lat="43.05485173138415" lon="11.433830349634441"><ele>496.0</ele><time>2026-04-08T08:59:22Z</time></trkpt><trkpt lat="43.05475780901296" lon="11.433899023625589"><ele>494.0</ele><time>2026-04-08T08:59:23Z</time></trkpt><trkpt lat="43.05467458397928" lon="11.433968028870959"><ele>492.0</ele><time>2026-04-08T08:59:24Z</time></trkpt><trkpt lat="43.05458730875401" lon="11.434018258991967"><ele>490.0</ele><time>2026-04-08T08:59:25Z</time></trkpt><trkpt lat="43.054497401749806" lon="11.43407466131075"><ele>488.0</ele><time>2026-04-08T08:59:26Z</time></trkpt><trkpt lat="43.0543967923746" lon="11.43411930839322"><ele>486.0</ele><time>2026-04-08T08:59:27Z</time></trkpt><trkpt lat="43.054294542044794" lon="11.434172074422365"><ele>486.0</ele><time>2026-04-08T08:59:28Z</time></trkpt><trkpt lat="43.0542024764976" lon="11.434217561209715"><ele>486.0</ele><time>2026-04-08T08:59:29Z</time></trkpt><trkpt lat="43.054105681127744" lon="11.434247177562469"><ele>486.0</ele><time>2026-04-08T08:59:30Z</time></trkpt><trkpt lat="43.05402353102972" lon="11.434271511092021"><ele>486.0</ele><time>2026-04-08T08:59:31Z</time></trkpt><trkpt lat="43.05394635772537" lon="11.434287282023137"><ele>486.0</ele><time>2026-04-08T08:59:32Z</time></trkpt><trkpt lat="43.0538639469387" lon="11.434306299188199"><ele>486.0</ele><time>2026-04-08T08:59:33Z</time></trkpt><trkpt lat="43.053790435523474" lon="11.43432752369733"><ele>485.6666666666667</ele><time>2026-04-08T08:59:34Z</time></trkpt><trkpt lat="43.053712948124634" lon="11.434354295298908"><ele>485.33333333333337</ele><time>2026-04-08T08:59:35Z</time></trkpt><trkpt lat="43.05364796125472" lon="11.434406889152383"><ele>485.0</ele><time>2026-04-08T08:59:36Z</time></trkpt><trkpt lat="43.05357802767015" lon="11.434471541106484"><ele>484.6666666666667</ele><time>2026-04-08T08:59:37Z</time></trkpt><trkpt lat="43.05350181776965" lon="11.434547567628083"><ele>484.33333333333337</ele><time>2026-04-08T08:59:38Z</time></trkpt><trkpt lat="43.053436755062606" lon="11.434629662981402"><ele>484.0</ele><time>2026-04-08T08:59:39Z</time></trkpt><trkpt lat="43.05338021852527" lon="11.434718014059047"><ele>482.6</ele><time>2026-04-08T08:59:40Z</time></trkpt><trkpt lat="43.05333140453908" lon="11.434815679385235"><ele>481.2</ele><time>2026-04-08T08:59:41Z</time></trkpt><trkpt lat="43.053276833980206" lon="11.434934327721285"><ele>479.80000000000007</ele><time>2026-04-08T08:59:42Z</time></trkpt><trkpt lat="43.053229582841695" lon="11.435072264309229"><ele>478.40000000000003</ele><time>2026-04-08T08:59:43Z</time></trkpt><trkpt lat="43.05319458341661" lon="11.435201442482324"><ele>477.0</ele><time>2026-04-08T08:59:44Z</time></trkpt><trkpt lat="43.05315745035589" lon="11.435327863692358"><ele>477.0</ele><time>2026-04-08T08:59:45Z</time></trkpt><trkpt lat="43.053125508347705" lon="11.435468820702354"><ele>477.00000000000006</ele><time>2026-04-08T08:59:46Z</time></trkpt><trkpt lat="43.053097766039286" lon="11.435632164706032"><ele>477.00000000000006</ele><time>2026-04-08T08:59:47Z</time></trkpt><trkpt lat="43.05307574273011" lon="11.435767928898441"><ele>477.0</ele><time>2026-04-08T08:59:48Z</time></trkpt><trkpt lat="43.05306808561859" lon="11.435897398729315"><ele>477.0</ele><time>2026-04-08T08:59:49Z</time></trkpt><trkpt lat="43.053053095816765" lon="11.436022734361599"><ele>475.20000000000005</ele><time>2026-04-08T08:59:50Z</time></trkpt><trkpt lat="43.053032383318325" lon="11.436151365374474"><ele>473.40000000000003</ele><time>2026-04-08T08:59:51Z</time></trkpt><trkpt lat="43.053009696835126" lon="11.436270316330615"><ele>471.59999999999997</ele><time>2026-04-08T08:59:52Z</time></trkpt><trkpt lat="43.052978348096595" lon="11.436377077419223"><ele>469.79999999999995</ele><time>2026-04-08T08:59:53Z</time></trkpt><trkpt lat="43.05293552392038" lon="11.436481447689077"><ele>468.0</ele><time>2026-04-08T08:59:54Z</time></trkpt><trkpt lat="43.05286725195463" lon="11.43658938531358"><ele>468.0</ele><time>2026-04-08T08:59:55Z</time></trkpt><trkpt lat="43.052784684796514" lon="11.436690385642999"><ele>467.99999999999994</ele><time>2026-04-08T08:59:56Z</time></trkpt><trkpt lat="43.05268796720736" lon="11.436775587373742"><ele>467.99999999999994</ele><time>2026-04-08T08:59:57Z</time></trkpt><trkpt lat="43.05259611735008" lon="11.436809962780606"><ele>468.0</ele><time>2026-04-08T08:59:58Z</time></trkpt><trkpt lat="43.05249387434282" lon="11.436819159757247"><ele>468.0</ele><time>2026-04-08T08:59:59Z</time></trkpt><trkpt lat="43.05238031394723" lon="11.436781596284138"><ele>468.2</ele><time>2026-04-08T09:00:00Z</time></trkpt><trkpt lat="43.052284367893385" lon="11.43673374931462"><ele>468.4</ele><time>2026-04-08T09:00:01Z</time></trkpt><trkpt lat="43.05220403800451" lon="11.436719491072973"><ele>468.59999999999997</ele><time>2026-04-08T09:00:02Z</time></trkpt><trkpt lat="43.05209778462709" lon="11.43674236188702"><ele>468.79999999999995</ele><time>2026-04-08T09:00:03Z</time></trkpt><trkpt lat="43.05197357201331" lon="11.436788715416462"><ele>469.0</ele><time>2026-04-08T09:00:04Z</time></trkpt><trkpt lat="43.05183675168919" lon="11.436838994118514"><ele>469.0</ele><time>2026-04-08T09:00:05Z</time></trkpt><trkpt lat="43.05170090840285" lon="11.436889734926215"><ele>469.0</ele><time>2026-04-08T09:00:06Z</time></trkpt><trkpt lat="43.05159643668729" lon="11.436932072054901"><ele>469.0</ele><time>2026-04-08T09:00:07Z</time></trkpt><trkpt lat="43.051535162944546" lon="11.43698422144547"><ele>469.0</ele><time>2026-04-08T09:00:08Z</time></trkpt><trkpt lat="43.05149150750365" lon="11.43706896904455"><ele>469.0</ele><time>2026-04-08T09:00:09Z</time></trkpt><trkpt lat="43.05142569402006" lon="11.43716285131632"><ele>469.25</ele><time>2026-04-08T09:00:10Z</time></trkpt><trkpt lat="43.05135865829811" lon="11.437269810981157"><ele>469.5</ele><time>2026-04-08T09:00:11Z</time></trkpt><trkpt lat="43.05127833522034" lon="11.437383740902371"><ele>469.75</ele><time>2026-04-08T09:00:12Z</time></trkpt><trkpt lat="43.05119199149366" lon="11.437507494158316"><ele>470.0</ele><time>2026-04-08T09:00:13Z</time></trkpt><trkpt lat="43.05107646715897" lon="11.437601521888823"><ele>470.0</ele><time>2026-04-08T09:00:14Z</time></trkpt><trkpt lat="43.0509363735056" lon="11.437666890991123"><ele>470.0</ele><time>2026-04-08T09:00:15Z</time></trkpt><trkpt lat="43.05081636403342" lon="11.437732356438486"><ele>470.0</ele><time>2026-04-08T09:00:16Z</time></trkpt><trkpt lat="43.050718445375274" lon="11.437796791488989"><ele>470.0</ele><time>2026-04-08T09:00:17Z</time></trkpt><trkpt lat="43.05063114894256" lon="11.43786454170531"><ele>471.4</ele><time>2026-04-08T09:00:18Z</time></trkpt><trkpt lat="43.050552864378815" lon="11.437945436957792"><ele>472.8</ele><time>2026-04-08T09:00:19Z</time></trkpt><trkpt lat="43.05049243103005" lon="11.43803014905964"><ele>474.20000000000005</ele><time>2026-04-08T09:00:20Z</time></trkpt><trkpt lat="43.05044265922565" lon="11.438165060702216"><ele>475.6</ele><time>2026-04-08T09:00:21Z</time></trkpt><trkpt lat="43.05044696988882" lon="11.438349895942485"><ele>477.0</ele><time>2026-04-08T09:00:22Z</time></trkpt><trkpt lat="43.05041092655412" lon="11.43850826461451"><ele>478.0</ele><time>2026-04-08T09:00:23Z</time></trkpt><trkpt lat="43.050381365410416" lon="11.438626707599072"><ele>479.00000000000006</ele><time>2026-04-08T09:00:24Z</time></trkpt><trkpt lat="43.05035602972014" lon="11.438737615913777"><ele>480.00000000000006</ele><time>2026-04-08T09:00:25Z</time></trkpt><trkpt lat="43.05035714865097" lon="11.438858625754687"><ele>481.0</ele><time>2026-04-08T09:00:25.999Z</time></trkpt><trkpt lat="43.05041587455597" lon="11.438983100192125"><ele>482.0</ele><time>2026-04-08T09:00:26.999Z</time></trkpt><trkpt lat="43.0504847081269" lon="11.439111854991134"><ele>481.8</ele><time>2026-04-08T09:00:27.999Z</time></trkpt><trkpt lat="43.05056441298511" lon="11.439241246827429"><ele>481.6</ele><time>2026-04-08T09:00:28.999Z</time></trkpt><trkpt lat="43.05062234287675" lon="11.43935007560566"><ele>481.40000000000003</ele><time>2026-04-08T09:00:29.999Z</time></trkpt><trkpt lat="43.05067021662571" lon="11.439455117347041"><ele>481.20000000000005</ele><time>2026-04-08T09:00:30.999Z</time></trkpt><trkpt lat="43.05070346779364" lon="11.43957692731913"><ele>481.0</ele><time>2026-04-08T09:00:31.999Z</time></trkpt><trkpt lat="43.05071926932875" lon="11.43972214027641"><ele>481.0</ele><time>2026-04-08T09:00:32.999Z</time></trkpt><trkpt lat="43.05071987931964" lon="11.439879195029034"><ele>481.0</ele><time>2026-04-08T09:00:33.999Z</time></trkpt><trkpt lat="43.05068814765757" lon="11.4400172667369"><ele>481.0</ele><time>2026-04-08T09:00:34.999Z</time></trkpt><trkpt lat="43.05067606830053" lon="11.440140079006738"><ele>481.0</ele><time>2026-04-08T09:00:35.999Z</time></trkpt><trkpt lat="43.05064238789705" lon="11.440255986718"><ele>481.0</ele><time>2026-04-08T09:00:36.999Z</time></trkpt><trkpt lat="43.050583788494905" lon="11.440372089096003"><ele>478.20000000000005</ele><time>2026-04-08T09:00:37.999Z</time></trkpt><trkpt lat="43.05050477423133" lon="11.440487467967529"><ele>475.40000000000003</ele><time>2026-04-08T09:00:38.999Z</time></trkpt><trkpt lat="43.05040545967627" lon="11.44054550340117"><ele>472.6</ele><time>2026-04-08T09:00:39.999Z</time></trkpt><trkpt lat="43.05031176642441" lon="11.440606533235666"><ele>469.8</ele><time>2026-04-08T09:00:40.999Z</time></trkpt><trkpt lat="43.050236699162845" lon="11.440702930961832"><ele>467.0</ele><time>2026-04-08T09:00:41.999Z</time></trkpt><trkpt lat="43.050153579774694" lon="11.440774391210994"><ele>467.0</ele><time>2026-04-08T09:00:42.999Z</time></trkpt><trkpt lat="43.050085579398456" lon="11.440882420128883"><ele>467.0</ele><time>2026-04-08T09:00:43.999Z</time></trkpt><trkpt lat="43.05004631578995" lon="11.44103323336666"><ele>467.0</ele><time>2026-04-08T09:00:44.999Z</time></trkpt><trkpt lat="43.05005550157369" lon="11.441203167510013"><ele>467.0</ele><time>2026-04-08T09:00:45.999Z</time></trkpt><trkpt lat="43.05006168920153" lon="11.441395613340609"><ele>464.66666666666663</ele><time>2026-04-08T09:00:46.999Z</time></trkpt><trkpt lat="43.05007690841009" lon="11.441612323533143"><ele>462.33333333333337</ele><time>2026-04-08T09:00:47.999Z</time></trkpt><trkpt lat="43.05008870104943" lon="11.441843721430235"><ele>460.0</ele><time>2026-04-08T09:00:48.999Z</time></trkpt><trkpt lat="43.05009830472881" lon="11.442084996948703"><ele>461.0</ele><time>2026-04-08T09:00:49.999Z</time></trkpt><trkpt lat="43.05010142875189" lon="11.442313450801697"><ele>462.0</ele><time>2026-04-08T09:00:50.999Z</time></trkpt><trkpt lat="43.05010629998574" lon="11.442507855308902"><ele>463.0</ele><time>2026-04-08T09:00:51.999Z</time></trkpt><trkpt lat="43.05011181332652" lon="11.442676227520462"><ele>464.0</ele><time>2026-04-08T09:00:52.999Z</time></trkpt><trkpt lat="43.05011493643391" lon="11.442823701836744"><ele>465.75</ele><time>2026-04-08T09:00:53.999Z</time></trkpt><trkpt lat="43.050123199459854" lon="11.442994320884996"><ele>467.5</ele><time>2026-04-08T09:00:54.999Z</time></trkpt><trkpt lat="43.05013348807465" lon="11.443161366815827"><ele>469.25</ele><time>2026-04-08T09:00:55.999Z</time></trkpt><trkpt lat="43.050141247487346" lon="11.443303481167678"><ele>471.0</ele><time>2026-04-08T09:00:56.999Z</time></trkpt><trkpt lat="43.05012626408889" lon="11.443446210013791"><ele>471.0</ele><time>2026-04-08T09:00:57.999Z</time></trkpt><trkpt lat="43.0500827202531" lon="11.443604314807926"><ele>471.0</ele><time>2026-04-08T09:00:58.999Z</time></trkpt><trkpt lat="43.05004150408636" lon="11.443766748837245"><ele>471.0</ele><time>2026-04-08T09:00:59.999Z</time></trkpt><trkpt lat="43.05000823384319" lon="11.443940454639614"><ele>471.0</ele><time>2026-04-08T09:01:00.999Z</time></trkpt><trkpt lat="43.04997671895476" lon="11.44411981249282"><ele>470.8</ele><time>2026-04-08T09:01:01.999Z</time></trkpt><trkpt lat="43.0499486327574" lon="11.444282949550052"><ele>470.6</ele><time>2026-04-08T09:01:02.999Z</time></trkpt><trkpt lat="43.04993012897224" lon="11.444426246208423"><ele>470.4</ele><time>2026-04-08T09:01:03.999Z</time></trkpt><trkpt lat="43.04992181993573" lon="11.444563993181996"><ele>470.2</ele><time>2026-04-08T09:01:04.999Z</time></trkpt><trkpt lat="43.04992644335784" lon="11.444723793451189"><ele>470.0</ele><time>2026-04-08T09:01:05.999Z</time></trkpt><trkpt lat="43.04992892331963" lon="11.444868729782051"><ele>468.2</ele><time>2026-04-08T09:01:06.999Z</time></trkpt><trkpt lat="43.049928446484515" lon="11.44499598352347"><ele>466.4</ele><time>2026-04-08T09:01:07.999Z</time></trkpt><trkpt lat="43.0499169402715" lon="11.445130981497996"><ele>464.6</ele><time>2026-04-08T09:01:08.999Z</time></trkpt><trkpt lat="43.04988856447936" lon="11.445263739728764"><ele>462.8</ele><time>2026-04-08T09:01:09.999Z</time></trkpt><trkpt lat="43.04984749819605" lon="11.445391951677758"><ele>461.0</ele><time>2026-04-08T09:01:10.999Z</time></trkpt><trkpt lat="43.049790605618476" lon="11.445522625935094"><ele>461.0</ele><time>2026-04-08T09:01:11.999Z</time></trkpt><trkpt lat="43.049738174747276" lon="11.445640054522167"><ele>461.0</ele><time>2026-04-08T09:01:12.999Z</time></trkpt><trkpt lat="43.04969778477956" lon="11.445754288447743"><ele>461.0</ele><time>2026-04-08T09:01:13.999Z</time></trkpt><trkpt lat="43.049665757469015" lon="11.445890217776894"><ele>461.0</ele><time>2026-04-08T09:01:14.999Z</time></trkpt><trkpt lat="43.049651965726525" lon="11.44602480803294"><ele>461.0</ele><time>2026-04-08T09:01:15.999Z</time></trkpt><trkpt lat="43.04963501400973" lon="11.446172847421579"><ele>462.0</ele><time>2026-04-08T09:01:16.999Z</time></trkpt><trkpt lat="43.04961597051882" lon="11.446327587895318"><ele>463.0</ele><time>2026-04-08T09:01:17.999Z</time></trkpt><trkpt lat="43.049605275225225" lon="11.446491820502718"><ele>464.0</ele><time>2026-04-08T09:01:18.999Z</time></trkpt><trkpt lat="43.049599806211916" lon="11.44665236566896"><ele>465.0</ele><time>2026-04-08T09:01:19.999Z</time></trkpt><trkpt lat="43.04959544733769" lon="11.446800964799772"><ele>465.0</ele><time>2026-04-08T09:01:20.999Z</time></trkpt><trkpt lat="43.04959193471535" lon="11.446936013154566"><ele>465.0</ele><time>2026-04-08T09:01:21.999Z</time></trkpt><trkpt lat="43.04958459346563" lon="11.447086736312796"><ele>465.0</ele><time>2026-04-08T09:01:23Z</time></trkpt><trkpt lat="43.04958389378547" lon="11.447258384540692"><ele>465.0</ele><time>2026-04-08T09:01:24Z</time></trkpt><trkpt lat="43.04957818514903" lon="11.447411231373719"><ele>465.0</ele><time>2026-04-08T09:01:25Z</time></trkpt><trkpt lat="43.04957656064244" lon="11.447561586647888"><ele>465.2</ele><time>2026-04-08T09:01:26Z</time></trkpt><trkpt lat="43.04957997151013" lon="11.447713993875233"><ele>465.4</ele><time>2026-04-08T09:01:27Z</time></trkpt><trkpt lat="43.04959133938292" lon="11.447838336983112"><ele>465.6</ele><time>2026-04-08T09:01:28Z</time></trkpt><trkpt lat="43.04962046637194" lon="11.447959888149871"><ele>465.8</ele><time>2026-04-08T09:01:29Z</time></trkpt><trkpt lat="43.04966725234786" lon="11.44807764903196"><ele>466.0</ele><time>2026-04-08T09:01:30Z</time></trkpt><trkpt lat="43.04969894487449" lon="11.44816652804126"><ele>466.6</ele><time>2026-04-08T09:01:31Z</time></trkpt><trkpt lat="43.04970477010328" lon="11.448272141103574"><ele>467.20000000000005</ele><time>2026-04-08T09:01:32Z</time></trkpt><trkpt lat="43.04967286391661" lon="11.448382663419268"><ele>467.79999999999995</ele><time>2026-04-08T09:01:33Z</time></trkpt><trkpt lat="43.04958382726031" lon="11.448464259444798"><ele>468.4</ele><time>2026-04-08T09:01:34Z</time></trkpt><trkpt lat="43.049517316084135" lon="11.4485565489374"><ele>469.0</ele><time>2026-04-08T09:01:35Z</time></trkpt><trkpt lat="43.04944744982697" lon="11.44867483655975"><ele>469.0</ele><time>2026-04-08T09:01:36Z</time></trkpt><trkpt lat="43.04936034972698" lon="11.448789091894048"><ele>469.0</ele><time>2026-04-08T09:01:37Z</time></trkpt><trkpt lat="43.049267521434366" lon="11.448896160505255"><ele>469.0</ele><time>2026-04-08T09:01:38Z</time></trkpt><trkpt lat="43.049185680129305" lon="11.449035162823856"><ele>469.0</ele><time>2026-04-08T09:01:39Z</time></trkpt><trkpt lat="43.04907987998981" lon="11.449165593907315"><ele>469.5</ele><time>2026-04-08T09:01:40Z</time></trkpt><trkpt lat="43.04897789452905" lon="11.449313040136959"><ele>470.0</ele><time>2026-04-08T09:01:41Z</time></trkpt><trkpt lat="43.048889975426256" lon="11.449441183350439"><ele>470.5</ele><time>2026-04-08T09:01:42Z</time></trkpt><trkpt lat="43.04880854442024" lon="11.449556522423766"><ele>471.0</ele><time>2026-04-08T09:01:43Z</time></trkpt><trkpt lat="43.048718076858" lon="11.44968048443642"><ele>474.25</ele><time>2026-04-08T09:01:44Z</time></trkpt><trkpt lat="43.048629195671225" lon="11.449820674430406"><ele>477.5</ele><time>2026-04-08T09:01:45Z</time></trkpt><trkpt lat="43.04854692066376" lon="11.449941522675202"><ele>480.75</ele><time>2026-04-08T09:01:46Z</time></trkpt><trkpt lat="43.048460245050656" lon="11.450049954656375"><ele>484.0</ele><time>2026-04-08T09:01:47Z</time></trkpt><trkpt lat="43.04835706813464" lon="11.450149257939643"><ele>483.4</ele><time>2026-04-08T09:01:48Z</time></trkpt><trkpt lat="43.048269604902565" lon="11.45022635241934"><ele>482.79999999999995</ele><time>2026-04-08T09:01:49Z</time></trkpt><trkpt lat="43.04820070336465" lon="11.45031223557287"><ele>482.20000000000005</ele><time>2026-04-08T09:01:50Z</time></trkpt><trkpt lat="43.04813583535377" lon="11.450401800267874"><ele>481.6</ele><time>2026-04-08T09:01:51Z</time></trkpt><trkpt lat="43.048091858035534" lon="11.4505158293453"><ele>481.0</ele><time>2026-04-08T09:01:52Z</time></trkpt><trkpt lat="43.048059554850994" lon="11.450632501648714"><ele>481.0</ele><time>2026-04-08T09:01:53Z</time></trkpt><trkpt lat="43.048030213368015" lon="11.450755603807409"><ele>481.0</ele><time>2026-04-08T09:01:54Z</time></trkpt><trkpt lat="43.048009813762405" lon="11.45090363820251"><ele>481.0</ele><time>2026-04-08T09:01:55Z</time></trkpt><trkpt lat="43.047990189450154" lon="11.451059414903568"><ele>481.0</ele><time>2026-04-08T09:01:56Z</time></trkpt><trkpt lat="43.047973406506465" lon="11.451225413559118"><ele>481.0</ele><time>2026-04-08T09:01:57Z</time></trkpt><trkpt lat="43.04795354091176" lon="11.451383242564964"><ele>481.8</ele><time>2026-04-08T09:01:58Z</time></trkpt><trkpt lat="43.04792538308309" lon="11.451525298471518"><ele>482.6</ele><time>2026-04-08T09:01:59Z</time></trkpt><trkpt lat="43.0478661673828" lon="11.451626984227797"><ele>483.4</ele><time>2026-04-08T09:02:00Z</time></trkpt><trkpt lat="43.047832359865644" lon="11.451731065399489"><ele>484.2</ele><time>2026-04-08T09:02:01Z</time></trkpt><trkpt lat="43.047816513575405" lon="11.451823250661988"><ele>485.0</ele><time>2026-04-08T09:02:02Z</time></trkpt><trkpt lat="43.04776924691953" lon="11.451944454885703"><ele>485.0</ele><time>2026-04-08T09:02:04Z</time></trkpt><trkpt lat="43.04772203938333" lon="11.45202823377318"><ele>485.0</ele><time>2026-04-08T09:02:07Z</time></trkpt><trkpt lat="43.04770863178439" lon="11.45214976880535"><ele>485.0</ele><time>2026-04-08T09:17:31.999Z</time></trkpt><trkpt lat="43.04768737445502" lon="11.452318471786608"><ele>485.0</ele><time>2026-04-08T09:17:33.999Z</time></trkpt><trkpt lat="43.047669240730066" lon="11.45243828533123"><ele>485.0</ele><time>2026-04-08T09:17:34.999Z</time></trkpt><trkpt lat="43.04764840351647" lon="11.45256446223957"><ele>486.0</ele><time>2026-04-08T09:17:35.999Z</time></trkpt><trkpt lat="43.04760300332424" lon="11.45269129839041"><ele>487.0</ele><time>2026-04-08T09:17:36.999Z</time></trkpt><trkpt lat="43.047580308821196" lon="11.452817972661345"><ele>488.0</ele><time>2026-04-08T09:17:37.999Z</time></trkpt><trkpt lat="43.04755646967296" lon="11.452946841390933"><ele>489.0</ele><time>2026-04-08T09:17:38.999Z</time></trkpt><trkpt lat="43.04753471749098" lon="11.453096449738382"><ele>490.0</ele><time>2026-04-08T09:17:39.999Z</time></trkpt><trkpt lat="43.0475282038472" lon="11.453249864018956"><ele>490.50000000000006</ele><time>2026-04-08T09:17:40.999Z</time></trkpt><trkpt lat="43.047510946906165" lon="11.453418946354304"><ele>491.0</ele><time>2026-04-08T09:17:41.999Z</time></trkpt><trkpt lat="43.0475005792329" lon="11.453562320224588"><ele>491.5</ele><time>2026-04-08T09:17:42.999Z</time></trkpt><trkpt lat="43.04747326393227" lon="11.453668621548935"><ele>492.0</ele><time>2026-04-08T09:17:43.999Z</time></trkpt><trkpt lat="43.047459479152046" lon="11.45375362630934"><ele>492.50000000000006</ele><time>2026-04-08T09:17:44.999Z</time></trkpt><trkpt lat="43.047417141420695" lon="11.453819126055969"><ele>493.0</ele><time>2026-04-08T09:17:45.999Z</time></trkpt><trkpt lat="43.0473680040579" lon="11.453876074286958"><ele>494.79999999999995</ele><time>2026-04-08T09:17:46.999Z</time></trkpt><trkpt lat="43.04729326804958" lon="11.453907776711963"><ele>496.59999999999997</ele><time>2026-04-08T09:17:47.999Z</time></trkpt><trkpt lat="43.047219843691344" lon="11.45397911973794"><ele>498.40000000000003</ele><time>2026-04-08T09:17:48.999Z</time></trkpt><trkpt lat="43.047118859118164" lon="11.454013910099382"><ele>500.20000000000005</ele><time>2026-04-08T09:17:49.999Z</time></trkpt><trkpt lat="43.0470086533212" lon="11.45407831639891"><ele>502.0</ele><time>2026-04-08T09:17:50.999Z</time></trkpt><trkpt lat="43.04688560355118" lon="11.45414932411615"><ele>502.0</ele><time>2026-04-08T09:17:51.999Z</time></trkpt><trkpt lat="43.04676027036749" lon="11.45422396136155"><ele>502.0</ele><time>2026-04-08T09:17:52.999Z</time></trkpt><trkpt lat="43.04666208394753" lon="11.454288693266518"><ele>502.0</ele><time>2026-04-08T09:17:53.999Z</time></trkpt><trkpt lat="43.046554842935606" lon="11.454373649434281"><ele>502.0</ele><time>2026-04-08T09:17:54.999Z</time></trkpt><trkpt lat="43.04644546138386" lon="11.4544997255482"><ele>503.0</ele><time>2026-04-08T09:17:55.999Z</time></trkpt><trkpt lat="43.04633595763819" lon="11.454585550476056"><ele>504.00000000000006</ele><time>2026-04-08T09:17:56.999Z</time></trkpt><trkpt lat="43.04626051202365" lon="11.454676294099825"><ele>505.00000000000006</ele><time>2026-04-08T09:17:57.999Z</time></trkpt><trkpt lat="43.04616408166396" lon="11.454751311444962"><ele>506.0</ele><time>2026-04-08T09:17:58.999Z</time></trkpt><trkpt lat="43.04606782575474" lon="11.454820084379879"><ele>507.0</ele><time>2026-04-08T09:17:59.999Z</time></trkpt><trkpt lat="43.045955426427675" lon="11.45488663476225"><ele>507.0</ele><time>2026-04-08T09:18:00.999Z</time></trkpt><trkpt lat="43.04584230339126" lon="11.454950295226986"><ele>507.0</ele><time>2026-04-08T09:18:01.999Z</time></trkpt><trkpt lat="43.045747042404486" lon="11.45501111168774"><ele>507.0</ele><time>2026-04-08T09:18:02.999Z</time></trkpt><trkpt lat="43.04564439142511" lon="11.45508012056238"><ele>507.0</ele><time>2026-04-08T09:18:03.999Z</time></trkpt><trkpt lat="43.045551681461994" lon="11.455159692942376"><ele>506.75</ele><time>2026-04-08T09:18:04.999Z</time></trkpt><trkpt lat="43.04546351155445" lon="11.455252209204126"><ele>506.5</ele><time>2026-04-08T09:18:05.999Z</time></trkpt><trkpt lat="43.045406983036536" lon="11.455412162048681"><ele>506.25</ele><time>2026-04-08T09:18:06.999Z</time></trkpt><trkpt lat="43.045337073852785" lon="11.45556761306132"><ele>506.0</ele><time>2026-04-08T09:18:07.999Z</time></trkpt><trkpt lat="43.045256922709854" lon="11.45573008535011"><ele>505.5</ele><time>2026-04-08T09:18:08.999Z</time></trkpt><trkpt lat="43.04517276392014" lon="11.455870291857943"><ele>505.0</ele><time>2026-04-08T09:18:09.999Z</time></trkpt><trkpt lat="43.04509663845682" lon="11.456020220671395"><ele>504.5</ele><time>2026-04-08T09:18:11Z</time></trkpt><trkpt lat="43.0450292415195" lon="11.45616145192944"><ele>504.0</ele><time>2026-04-08T09:18:12Z</time></trkpt><trkpt lat="43.04496991173335" lon="11.456279420991484"><ele>503.5</ele><time>2026-04-08T09:18:13Z</time></trkpt><trkpt lat="43.04490874725381" lon="11.456404869153413"><ele>503.0</ele><time>2026-04-08T09:18:14Z</time></trkpt><trkpt lat="43.04482601374673" lon="11.456508405901847"><ele>502.5</ele><time>2026-04-08T09:18:15Z</time></trkpt><trkpt lat="43.044777293681435" lon="11.456660728556152"><ele>502.0</ele><time>2026-04-08T09:18:16Z</time></trkpt><trkpt lat="43.04477475715534" lon="11.456840312225395"><ele>502.0</ele><time>2026-04-08T09:18:17Z</time></trkpt><trkpt lat="43.044761254388995" lon="11.45699983472417"><ele>502.00000000000006</ele><time>2026-04-08T09:18:18Z</time></trkpt><trkpt lat="43.04474856178107" lon="11.45713318473641"><ele>502.00000000000006</ele><time>2026-04-08T09:18:19Z</time></trkpt><trkpt lat="43.0447198998727" lon="11.457262351077715"><ele>502.0</ele><time>2026-04-08T09:18:20Z</time></trkpt><trkpt lat="43.044658549671766" lon="11.457339351186842"><ele>502.0</ele><time>2026-04-08T09:18:21Z</time></trkpt><trkpt lat="43.04459345669504" lon="11.45740219681933"><ele>504.0</ele><time>2026-04-08T09:18:22Z</time></trkpt><trkpt lat="43.044508333252345" lon="11.457482209407623"><ele>506.0</ele><time>2026-04-08T09:18:23Z</time></trkpt><trkpt lat="43.04441263814237" lon="11.457586716726041"><ele>508.0</ele><time>2026-04-08T09:18:24Z</time></trkpt><trkpt lat="43.04429448642469" lon="11.457682492709251"><ele>510.0</ele><time>2026-04-08T09:18:25Z</time></trkpt><trkpt lat="43.044197392098965" lon="11.457787478012833"><ele>509.25</ele><time>2026-04-08T09:18:26Z</time></trkpt><trkpt lat="43.044124885033206" lon="11.457888253396373"><ele>508.5</ele><time>2026-04-08T09:18:27Z</time></trkpt><trkpt lat="43.04404478557666" lon="11.458015209354144"><ele>507.75</ele><time>2026-04-08T09:18:28Z</time></trkpt><trkpt lat="43.04395543646557" lon="11.458154413226614"><ele>507.0</ele><time>2026-04-08T09:18:29Z</time></trkpt><trkpt lat="43.04386693013905" lon="11.458279633924917"><ele>507.0</ele><time>2026-04-08T09:18:30Z</time></trkpt><trkpt lat="43.0437787761246" lon="11.458417223142437"><ele>507.0</ele><time>2026-04-08T09:18:31Z</time></trkpt><trkpt lat="43.043684870493095" lon="11.458563789313878"><ele>507.0</ele><time>2026-04-08T09:18:32Z</time></trkpt><trkpt lat="43.04359527343117" lon="11.458739529568934"><ele>507.0</ele><time>2026-04-08T09:18:33Z</time></trkpt><trkpt lat="43.04349716658342" lon="11.45889101833236"><ele>507.0</ele><time>2026-04-08T09:18:34Z</time></trkpt><trkpt lat="43.04338070733014" lon="11.458997304560427"><ele>507.0</ele><time>2026-04-08T09:18:35Z</time></trkpt><trkpt lat="43.0432690443285" lon="11.459096470933043"><ele>507.0</ele><time>2026-04-08T09:18:36Z</time></trkpt><trkpt lat="43.043154531445786" lon="11.459169494823577"><ele>507.0</ele><time>2026-04-08T09:18:37Z</time></trkpt><trkpt lat="43.04306333073918" lon="11.45923935601688"><ele>507.0</ele><time>2026-04-08T09:18:38Z</time></trkpt><trkpt lat="43.04299494435548" lon="11.459292012718358"><ele>507.00000000000006</ele><time>2026-04-08T09:18:39Z</time></trkpt><trkpt lat="43.042924976355906" lon="11.459334524432215"><ele>507.00000000000006</ele><time>2026-04-08T09:18:40Z</time></trkpt><trkpt lat="43.04286514698837" lon="11.45943329282326"><ele>507.0</ele><time>2026-04-08T09:18:41Z</time></trkpt><trkpt lat="43.04281929442047" lon="11.45956252524849"><ele>507.0</ele><time>2026-04-08T09:18:42Z</time></trkpt><trkpt lat="43.04278182076438" lon="11.45969980826733"><ele>508.0</ele><time>2026-04-08T09:18:43Z</time></trkpt><trkpt lat="43.04275274714568" lon="11.459840254706704"><ele>509.0</ele><time>2026-04-08T09:18:44Z</time></trkpt><trkpt lat="43.04271489919334" lon="11.45999716393209"><ele>510.0</ele><time>2026-04-08T09:18:45Z</time></trkpt><trkpt lat="43.04269112313222" lon="11.46015704749269"><ele>511.0</ele><time>2026-04-08T09:18:46Z</time></trkpt><trkpt lat="43.04270059632444" lon="11.460316191837403"><ele>510.75</ele><time>2026-04-08T09:18:47Z</time></trkpt><trkpt lat="43.04276709029834" lon="11.460453886217353"><ele>510.5</ele><time>2026-04-08T09:18:48Z</time></trkpt><trkpt lat="43.042841168957764" lon="11.46058212931839"><ele>510.25</ele><time>2026-04-08T09:18:49Z</time></trkpt><trkpt lat="43.04291932372587" lon="11.460700403873698"><ele>510.0</ele><time>2026-04-08T09:18:50Z</time></trkpt><trkpt lat="43.042980229455196" lon="11.460819777201682"><ele>510.0</ele><time>2026-04-08T09:18:51Z</time></trkpt><trkpt lat="43.04303307499554" lon="11.460927194933888"><ele>510.0</ele><time>2026-04-08T09:18:52Z</time></trkpt><trkpt lat="43.04307628448746" lon="11.461039158136215"><ele>510.0</ele><time>2026-04-08T09:18:53Z</time></trkpt><trkpt lat="43.04312695495286" lon="11.461159385959235"><ele>510.0</ele><time>2026-04-08T09:18:54Z</time></trkpt><trkpt lat="43.04316705655241" lon="11.461277474381562"><ele>510.0</ele><time>2026-04-08T09:18:55Z</time></trkpt><trkpt lat="43.043215245789405" lon="11.461397482292949"><ele>508.8</ele><time>2026-04-08T09:18:56Z</time></trkpt><trkpt lat="43.04326263507687" lon="11.461512988406236"><ele>507.6</ele><time>2026-04-08T09:18:57Z</time></trkpt><trkpt lat="43.04331071609389" lon="11.461626672224348"><ele>506.4</ele><time>2026-04-08T09:18:58Z</time></trkpt><trkpt lat="43.043359416085906" lon="11.461740139501217"><ele>505.2</ele><time>2026-04-08T09:18:59Z</time></trkpt><trkpt lat="43.04341197088287" lon="11.461862953200706"><ele>504.0</ele><time>2026-04-08T09:19:00Z</time></trkpt><trkpt lat="43.04346137225468" lon="11.46199901014415"><ele>503.4</ele><time>2026-04-08T09:19:01Z</time></trkpt><trkpt lat="43.043513007487256" lon="11.462134636514534"><ele>502.79999999999995</ele><time>2026-04-08T09:19:02Z</time></trkpt><trkpt lat="43.04356162925155" lon="11.462271406258733"><ele>502.20000000000005</ele><time>2026-04-08T09:19:03Z</time></trkpt><trkpt lat="43.04360620084477" lon="11.462391747125018"><ele>501.6</ele><time>2026-04-08T09:19:04Z</time></trkpt><trkpt lat="43.04363582508028" lon="11.462499517002358"><ele>501.0</ele><time>2026-04-08T09:19:05Z</time></trkpt><trkpt lat="43.043650916283994" lon="11.4626088341647"><ele>501.0</ele><time>2026-04-08T09:19:06Z</time></trkpt><trkpt lat="43.04364300998055" lon="11.46271695886618"><ele>501.0</ele><time>2026-04-08T09:19:07Z</time></trkpt><trkpt lat="43.043590755583" lon="11.462807282900927"><ele>501.0</ele><time>2026-04-08T09:19:08Z</time></trkpt><trkpt lat="43.043545941087544" lon="11.462885858778902"><ele>501.0</ele><time>2026-04-08T09:19:09Z</time></trkpt><trkpt lat="43.04348644387615" lon="11.462975169130958"><ele>501.0</ele><time>2026-04-08T09:19:10Z</time></trkpt><trkpt lat="43.04342767418576" lon="11.463053334848796"><ele>501.0</ele><time>2026-04-08T09:19:11Z</time></trkpt><trkpt lat="43.04336367667313" lon="11.463136531657163"><ele>499.6</ele><time>2026-04-08T09:19:11.999Z</time></trkpt><trkpt lat="43.043292325226716" lon="11.46324089928528"><ele>498.20000000000005</ele><time>2026-04-08T09:19:12.999Z</time></trkpt><trkpt lat="43.04322890389215" lon="11.463365685073253"><ele>496.79999999999995</ele><time>2026-04-08T09:19:13.999Z</time></trkpt><trkpt lat="43.04319672760872" lon="11.463506929059461"><ele>495.4</ele><time>2026-04-08T09:19:14.999Z</time></trkpt><trkpt lat="43.04317536872399" lon="11.463626576372533"><ele>494.0</ele><time>2026-04-08T09:19:15.999Z</time></trkpt><trkpt lat="43.04313895423298" lon="11.463772587617166"><ele>495.25</ele><time>2026-04-08T09:19:16.999Z</time></trkpt><trkpt lat="43.043117309731684" lon="11.463955106356098"><ele>496.5</ele><time>2026-04-08T09:19:17.999Z</time></trkpt><trkpt lat="43.043104072224324" lon="11.464123971878854"><ele>497.75</ele><time>2026-04-08T09:19:18.999Z</time></trkpt><trkpt lat="43.04308551535812" lon="11.46427143424708"><ele>499.0</ele><time>2026-04-08T09:19:19.999Z</time></trkpt><trkpt lat="43.04305296322212" lon="11.464405876620784"><ele>499.0</ele><time>2026-04-08T09:19:20.999Z</time></trkpt><trkpt lat="43.04303046059356" lon="11.464550476833745"><ele>499.0</ele><time>2026-04-08T09:19:21.999Z</time></trkpt><trkpt lat="43.043001434092716" lon="11.464686119638365"><ele>499.0</ele><time>2026-04-08T09:19:22.999Z</time></trkpt><trkpt lat="43.04297327983808" lon="11.464806121012476"><ele>499.0</ele><time>2026-04-08T09:19:23.999Z</time></trkpt><trkpt lat="43.04293592535778" lon="11.46493513590604"><ele>499.0</ele><time>2026-04-08T09:19:24.999Z</time></trkpt><trkpt lat="43.04289449570057" lon="11.465061816793895"><ele>499.75</ele><time>2026-04-08T09:19:25.999Z</time></trkpt><trkpt lat="43.04281743504586" lon="11.465192433837656"><ele>500.5</ele><time>2026-04-08T09:19:26.999Z</time></trkpt><trkpt lat="43.0427536902812" lon="11.465355332292212"><ele>501.25</ele><time>2026-04-08T09:19:27.999Z</time></trkpt><trkpt lat="43.04270880833057" lon="11.465522262146026"><ele>502.0</ele><time>2026-04-08T09:19:28.999Z</time></trkpt><trkpt lat="43.042683665177385" lon="11.465678477545422"><ele>502.0</ele><time>2026-04-08T09:19:29.999Z</time></trkpt><trkpt lat="43.04267451916303" lon="11.465853805269525"><ele>502.0</ele><time>2026-04-08T09:19:30.999Z</time></trkpt><trkpt lat="43.04266400755861" lon="11.466063204968"><ele>502.0</ele><time>2026-04-08T09:19:31.999Z</time></trkpt><trkpt lat="43.0426532036676" lon="11.46627959528045"><ele>502.0</ele><time>2026-04-08T09:19:32.999Z</time></trkpt><trkpt lat="43.04264530578811" lon="11.46647483273257"><ele>501.75</ele><time>2026-04-08T09:19:33.999Z</time></trkpt><trkpt lat="43.04263302811933" lon="11.466666502517857"><ele>501.5</ele><time>2026-04-08T09:19:34.999Z</time></trkpt><trkpt lat="43.04262322373002" lon="11.466835314846502"><ele>501.25</ele><time>2026-04-08T09:19:35.999Z</time></trkpt><trkpt lat="43.042614584670694" lon="11.46698345585714"><ele>501.0</ele><time>2026-04-08T09:19:36.999Z</time></trkpt><trkpt lat="43.042595807278914" lon="11.467123472651373"><ele>500.75</ele><time>2026-04-08T09:19:37.999Z</time></trkpt><trkpt lat="43.042548241676386" lon="11.467281678029034"><ele>500.5</ele><time>2026-04-08T09:19:38.999Z</time></trkpt><trkpt lat="43.042469511021125" lon="11.46744338265763"><ele>500.25</ele><time>2026-04-08T09:19:39.999Z</time></trkpt><trkpt lat="43.04241989066868" lon="11.467615448727779"><ele>500.0</ele><time>2026-04-08T09:19:40.999Z</time></trkpt><trkpt lat="43.042358324652334" lon="11.467759001802877"><ele>500.75</ele><time>2026-04-08T09:19:41.999Z</time></trkpt><trkpt lat="43.04229660144866" lon="11.467922339986249"><ele>501.5</ele><time>2026-04-08T09:19:42.999Z</time></trkpt><trkpt lat="43.04226058293759" lon="11.468094109197231"><ele>502.25</ele><time>2026-04-08T09:19:43.999Z</time></trkpt><trkpt lat="43.042222710529884" lon="11.468271954952902"><ele>503.0</ele><time>2026-04-08T09:19:44.999Z</time></trkpt><trkpt lat="43.04219264619226" lon="11.468424697701062"><ele>503.4</ele><time>2026-04-08T09:19:45.999Z</time></trkpt><trkpt lat="43.042164207463415" lon="11.46856833609681"><ele>503.79999999999995</ele><time>2026-04-08T09:19:46.999Z</time></trkpt><trkpt lat="43.04213476588632" lon="11.468701003900891"><ele>504.2</ele><time>2026-04-08T09:19:47.999Z</time></trkpt><trkpt lat="43.04210105437352" lon="11.468821874808457"><ele>504.6</ele><time>2026-04-08T09:19:48.999Z</time></trkpt><trkpt lat="43.04206712589062" lon="11.468948371168462"><ele>505.0</ele><time>2026-04-08T09:19:49.999Z</time></trkpt><trkpt lat="43.0420216248166" lon="11.469075805755606"><ele>505.2</ele><time>2026-04-08T09:19:50.999Z</time></trkpt><trkpt lat="43.04195382671204" lon="11.469180009543111"><ele>505.4</ele><time>2026-04-08T09:19:51.999Z</time></trkpt><trkpt lat="43.04186718665619" lon="11.469236649447257"><ele>505.6</ele><time>2026-04-08T09:19:52.999Z</time></trkpt><trkpt lat="43.041768171886204" lon="11.469295201403744"><ele>505.8</ele><time>2026-04-08T09:19:53.999Z</time></trkpt><trkpt lat="43.04166127603586" lon="11.469346183177553"><ele>506.0</ele><time>2026-04-08T09:19:54.999Z</time></trkpt><trkpt lat="43.041557209716835" lon="11.469394467556802"><ele>507.20000000000005</ele><time>2026-04-08T09:19:55.999Z</time></trkpt><trkpt lat="43.04148090474841" lon="11.469454118466226"><ele>508.40000000000003</ele><time>2026-04-08T09:19:56.999Z</time></trkpt><trkpt lat="43.04139172790417" lon="11.469501909723466"><ele>509.6</ele><time>2026-04-08T09:19:58.999Z</time></trkpt><trkpt lat="43.041307558522206" lon="11.469541305569596"><ele>510.8</ele><time>2026-04-08T09:20:01.999Z</time></trkpt><trkpt lat="43.04117047280622" lon="11.469626200900635"><ele>512.0</ele><time>2026-04-08T09:20:03.999Z</time></trkpt><trkpt lat="43.04108357815666" lon="11.469698567344876"><ele>513.0</ele><time>2026-04-08T09:20:04.999Z</time></trkpt><trkpt lat="43.04099832335257" lon="11.4697787712203"><ele>514.0</ele><time>2026-04-08T09:20:05.999Z</time></trkpt><trkpt lat="43.040907889223895" lon="11.469871362467895"><ele>515.0</ele><time>2026-04-08T09:20:06.999Z</time></trkpt><trkpt lat="43.040811554843" lon="11.469972455525541"><ele>516.0</ele><time>2026-04-08T09:20:07.999Z</time></trkpt><trkpt lat="43.040722158727355" lon="11.470076704000142"><ele>517.25</ele><time>2026-04-08T09:20:08.999Z</time></trkpt><trkpt lat="43.040635223425696" lon="11.470203640189824"><ele>518.5</ele><time>2026-04-08T09:20:09.999Z</time></trkpt><trkpt lat="43.040546677535" lon="11.470344083819239"><ele>519.75</ele><time>2026-04-08T09:20:10.999Z</time></trkpt><trkpt lat="43.040454964929225" lon="11.470488365912816"><ele>521.0</ele><time>2026-04-08T09:20:11.999Z</time></trkpt><trkpt lat="43.04037197419918" lon="11.470604946554484"><ele>522.4</ele><time>2026-04-08T09:20:12.999Z</time></trkpt><trkpt lat="43.0402874002924" lon="11.470698724286342"><ele>523.8</ele><time>2026-04-08T09:20:13.999Z</time></trkpt><trkpt lat="43.040170573569945" lon="11.470701847194837"><ele>525.1999999999999</ele><time>2026-04-08T09:20:14.999Z</time></trkpt><trkpt lat="43.04006571395234" lon="11.470726928154663"><ele>526.6</ele><time>2026-04-08T09:20:15.999Z</time></trkpt><trkpt lat="43.039975046653744" lon="11.470778040511865"><ele>528.0</ele><time>2026-04-08T09:20:16.999Z</time></trkpt><trkpt lat="43.03987615528327" lon="11.470827037052429"><ele>529.0</ele><time>2026-04-08T09:20:17.999Z</time></trkpt><trkpt lat="43.03977711306785" lon="11.470893169533262"><ele>530.0</ele><time>2026-04-08T09:20:18.999Z</time></trkpt><trkpt lat="43.03966137980988" lon="11.470937748504666"><ele>531.0</ele><time>2026-04-08T09:20:19.999Z</time></trkpt><trkpt lat="43.03953931821006" lon="11.47100794653262"><ele>532.0</ele><time>2026-04-08T09:20:20.999Z</time></trkpt><trkpt lat="43.03940524446702" lon="11.471085052827371"><ele>532.0</ele><time>2026-04-08T09:20:21.999Z</time></trkpt><trkpt lat="43.03926358989779" lon="11.471168459122026"><ele>532.0</ele><time>2026-04-08T09:20:22.999Z</time></trkpt><trkpt lat="43.039148337851316" lon="11.47125083108192"><ele>532.0</ele><time>2026-04-08T09:20:23.999Z</time></trkpt><trkpt lat="43.039039010812864" lon="11.471356288671679"><ele>532.0</ele><time>2026-04-08T09:20:24.999Z</time></trkpt><trkpt lat="43.0389349365891" lon="11.471487180808836"><ele>532.25</ele><time>2026-04-08T09:20:25.999Z</time></trkpt><trkpt lat="43.03884752950324" lon="11.471618225643647"><ele>532.5</ele><time>2026-04-08T09:20:26.999Z</time></trkpt><trkpt lat="43.03876664782354" lon="11.471773388634062"><ele>532.75</ele><time>2026-04-08T09:20:27.999Z</time></trkpt><trkpt lat="43.03870584947229" lon="11.47195193919556"><ele>533.0</ele><time>2026-04-08T09:20:28.999Z</time></trkpt><trkpt lat="43.03865878116905" lon="11.472145022384689"><ele>536.75</ele><time>2026-04-08T09:20:29.999Z</time></trkpt><trkpt lat="43.03864586488572" lon="11.472323085110956"><ele>540.5</ele><time>2026-04-08T09:20:30.999Z</time></trkpt><trkpt lat="43.03865135089985" lon="11.472527413908585"><ele>544.25</ele><time>2026-04-08T09:20:31.999Z</time></trkpt><trkpt lat="43.03869021963882" lon="11.472740303119085"><ele>548.0</ele><time>2026-04-08T09:20:32.999Z</time></trkpt><trkpt lat="43.038712914460156" lon="11.472928526155224"><ele>550.4</ele><time>2026-04-08T09:20:33.999Z</time></trkpt><trkpt lat="43.03873293781605" lon="11.473085352004151"><ele>552.8</ele><time>2026-04-08T09:20:34.999Z</time></trkpt><trkpt lat="43.0387440158497" lon="11.473231411245882"><ele>555.2</ele><time>2026-04-08T09:20:35.999Z</time></trkpt><trkpt lat="43.038734708112955" lon="11.473365920744714"><ele>557.6</ele><time>2026-04-08T09:20:36.999Z</time></trkpt><trkpt lat="43.03870682269257" lon="11.473518057604457"><ele>560.0</ele><time>2026-04-08T09:20:37.999Z</time></trkpt><trkpt lat="43.03863852844674" lon="11.473663033260564"><ele>562.25</ele><time>2026-04-08T09:20:38.999Z</time></trkpt><trkpt lat="43.03853857664474" lon="11.473785480256984"><ele>564.5</ele><time>2026-04-08T09:20:39.999Z</time></trkpt><trkpt lat="43.03840790848919" lon="11.473862476514597"><ele>566.75</ele><time>2026-04-08T09:20:40.999Z</time></trkpt><trkpt lat="43.03825610515023" lon="11.473944706066325"><ele>569.0</ele><time>2026-04-08T09:20:41.999Z</time></trkpt><trkpt lat="43.03811315770875" lon="11.474019505328565"><ele>569.0</ele><time>2026-04-08T09:20:42.999Z</time></trkpt><trkpt lat="43.037979278066196" lon="11.474109586551181"><ele>569.0</ele><time>2026-04-08T09:20:43.999Z</time></trkpt><trkpt lat="43.037872315112374" lon="11.474168222209158"><ele>569.0</ele><time>2026-04-08T09:20:44.999Z</time></trkpt><trkpt lat="43.03779152877312" lon="11.474257056727923"><ele>569.0</ele><time>2026-04-08T09:20:45.999Z</time></trkpt><trkpt lat="43.037724266624245" lon="11.474385266668357"><ele>569.0</ele><time>2026-04-08T09:20:46.999Z</time></trkpt><trkpt lat="43.03768802310735" lon="11.474543453569904"><ele>569.0</ele><time>2026-04-08T09:20:47.999Z</time></trkpt><trkpt lat="43.03764089157615" lon="11.474674525455624"><ele>569.0</ele><time>2026-04-08T09:20:48.999Z</time></trkpt><trkpt lat="43.03764500206432" lon="11.474869657481344"><ele>569.0</ele><time>2026-04-08T09:20:49.999Z</time></trkpt><trkpt lat="43.03766596278605" lon="11.475099608547119"><ele>573.0</ele><time>2026-04-08T09:20:50.999Z</time></trkpt><trkpt lat="43.03768196610619" lon="11.475333478234388"><ele>577.0</ele><time>2026-04-08T09:20:51.999Z</time></trkpt><trkpt lat="43.037696500873196" lon="11.475567139579946"><ele>581.0</ele><time>2026-04-08T09:20:52.999Z</time></trkpt><trkpt lat="43.03771093787064" lon="11.47581002269733"><ele>583.6666666666666</ele><time>2026-04-08T09:20:53.999Z</time></trkpt><trkpt lat="43.03772447963961" lon="11.476065648941187"><ele>586.3333333333334</ele><time>2026-04-08T09:20:54.999Z</time></trkpt><trkpt lat="43.037738769360885" lon="11.476339759569429"><ele>589.0</ele><time>2026-04-08T09:20:55.999Z</time></trkpt><trkpt lat="43.03775225767801" lon="11.476610924636493"><ele>590.0</ele><time>2026-04-08T09:20:56.999Z</time></trkpt><trkpt lat="43.03776017526261" lon="11.476838058598013"><ele>591.0</ele><time>2026-04-08T09:20:57.999Z</time></trkpt><trkpt lat="43.03776512274996" lon="11.477047255718166"><ele>592.0</ele><time>2026-04-08T09:20:58.999Z</time></trkpt><trkpt lat="43.0377721482873" lon="11.477248006380401"><ele>594.0</ele><time>2026-04-08T09:20:59.999Z</time></trkpt><trkpt lat="43.03775545909831" lon="11.477468421976583"><ele>596.0</ele><time>2026-04-08T09:21:00.999Z</time></trkpt><trkpt lat="43.03773543265503" lon="11.477663550728126"><ele>598.0</ele><time>2026-04-08T09:21:01.999Z</time></trkpt><trkpt lat="43.03770523414078" lon="11.477875674555273"><ele>598.0</ele><time>2026-04-08T09:21:02.999Z</time></trkpt><trkpt lat="43.037665346629794" lon="11.478102263370078"><ele>598.0</ele><time>2026-04-08T09:21:03.999Z</time></trkpt><trkpt lat="43.03762799429537" lon="11.478290124474324"><ele>598.0</ele><time>2026-04-08T09:21:04.999Z</time></trkpt><trkpt lat="43.037577344554954" lon="11.478445335141627"><ele>598.0</ele><time>2026-04-08T09:21:05.999Z</time></trkpt><trkpt lat="43.03751443163294" lon="11.478600560022718"><ele>598.3333333333334</ele><time>2026-04-08T09:21:06.999Z</time></trkpt><trkpt lat="43.0374239967486" lon="11.47875867064076"><ele>598.6666666666666</ele><time>2026-04-08T09:21:07.999Z</time></trkpt><trkpt lat="43.03731237395494" lon="11.478932163860051"><ele>599.0</ele><time>2026-04-08T09:21:08.999Z</time></trkpt><trkpt lat="43.037193690982456" lon="11.479115382216731"><ele>599.0</ele><time>2026-04-08T09:21:09.999Z</time></trkpt><trkpt lat="43.03709406255952" lon="11.479269184846595"><ele>599.0</ele><time>2026-04-08T09:21:10.999Z</time></trkpt><trkpt lat="43.037006881871974" lon="11.479404526816372"><ele>599.0</ele><time>2026-04-08T09:21:11.999Z</time></trkpt><trkpt lat="43.036932607218496" lon="11.479524556186385"><ele>599.0</ele><time>2026-04-08T09:21:12.999Z</time></trkpt><trkpt lat="43.036881376332225" lon="11.479631825054318"><ele>599.4</ele><time>2026-04-08T09:21:13.999Z</time></trkpt><trkpt lat="43.0368395685861" lon="11.479701307623602"><ele>599.8</ele><time>2026-04-08T09:21:14.999Z</time></trkpt><trkpt lat="43.036789569820336" lon="11.479774329267052"><ele>600.2</ele><time>2026-04-08T09:21:16.999Z</time></trkpt><trkpt lat="43.036927140323016" lon="11.479917544235102"><ele>600.6</ele><time>2026-04-08T09:21:26.999Z</time></trkpt><trkpt lat="43.03702470038456" lon="11.479973637204266"><ele>601.0</ele><time>2026-04-08T09:21:27.999Z</time></trkpt><trkpt lat="43.03711651531571" lon="11.48003180109805"><ele>601.0</ele><time>2026-04-08T09:21:28.999Z</time></trkpt><trkpt lat="43.037222012316874" lon="11.480107241160296"><ele>601.0</ele><time>2026-04-08T09:21:29.999Z</time></trkpt><trkpt lat="43.03731992885649" lon="11.480192532074804"><ele>601.0</ele><time>2026-04-08T09:21:30.999Z</time></trkpt><trkpt lat="43.03743094648796" lon="11.480287457516065"><ele>601.0</ele><time>2026-04-08T09:21:31.999Z</time></trkpt><trkpt lat="43.03754193626439" lon="11.480391372933658"><ele>598.0</ele><time>2026-04-08T09:21:32.999Z</time></trkpt><trkpt lat="43.03765898996055" lon="11.480490364800248"><ele>595.0</ele><time>2026-04-08T09:21:33.999Z</time></trkpt><trkpt lat="43.03778793928082" lon="11.480604071506779"><ele>592.0</ele><time>2026-04-08T09:21:34.999Z</time></trkpt><trkpt lat="43.03792351924821" lon="11.480721111040896"><ele>592.0</ele><time>2026-04-08T09:21:35.999Z</time></trkpt><trkpt lat="43.0380546623147" lon="11.480838055924126"><ele>592.0</ele><time>2026-04-08T09:21:36.999Z</time></trkpt><trkpt lat="43.03818934612778" lon="11.480953402909932"><ele>592.0</ele><time>2026-04-08T09:21:37.999Z</time></trkpt><trkpt lat="43.0383258643563" lon="11.481074811063836"><ele>591.3333333333334</ele><time>2026-04-08T09:21:38.999Z</time></trkpt><trkpt lat="43.03846993558744" lon="11.481197941148256"><ele>590.6666666666666</ele><time>2026-04-08T09:21:39.999Z</time></trkpt><trkpt lat="43.0386245941125" lon="11.481331910677826"><ele>590.0</ele><time>2026-04-08T09:21:40.999Z</time></trkpt><trkpt lat="43.03878106418658" lon="11.481475437197068"><ele>589.6666666666666</ele><time>2026-04-08T09:21:41.999Z</time></trkpt><trkpt lat="43.038943406453235" lon="11.481627723922895"><ele>589.3333333333334</ele><time>2026-04-08T09:21:42.999Z</time></trkpt><trkpt lat="43.0391330870136" lon="11.481783836992582"><ele>589.0</ele><time>2026-04-08T09:21:43.999Z</time></trkpt><trkpt lat="43.03931422619938" lon="11.481951340549678"><ele>597.0</ele><time>2026-04-08T09:21:44.999Z</time></trkpt><trkpt lat="43.03951037211661" lon="11.482127898970786"><ele>605.0</ele><time>2026-04-08T09:21:45.999Z</time></trkpt><trkpt lat="43.03969217575596" lon="11.482284986054829"><ele>605.0</ele><time>2026-04-08T09:21:46.999Z</time></trkpt><trkpt lat="43.03984765385897" lon="11.482423296530344"><ele>605.0</ele><time>2026-04-08T09:21:47.999Z</time></trkpt><trkpt lat="43.03999053493859" lon="11.482536046201341"><ele>605.0</ele><time>2026-04-08T09:21:48.999Z</time></trkpt><trkpt lat="43.04013040232567" lon="11.482647502373014"><ele>606.6666666666666</ele><time>2026-04-08T09:21:49.999Z</time></trkpt><trkpt lat="43.04028827443829" lon="11.48275237252681"><ele>608.3333333333334</ele><time>2026-04-08T09:21:50.999Z</time></trkpt><trkpt lat="43.04046936335199" lon="11.482840006813426"><ele>610.0</ele><time>2026-04-08T09:21:51.999Z</time></trkpt><trkpt lat="43.04065263792218" lon="11.4829164674384"><ele>612.6666666666667</ele><time>2026-04-08T09:21:52.999Z</time></trkpt><trkpt lat="43.04084980918797" lon="11.482973704222731"><ele>615.3333333333334</ele><time>2026-04-08T09:21:53.999Z</time></trkpt><trkpt lat="43.04104505188087" lon="11.483025248177693"><ele>618.0</ele><time>2026-04-08T09:21:54.999Z</time></trkpt><trkpt lat="43.04121461962921" lon="11.483077815571614"><ele>618.0</ele><time>2026-04-08T09:21:55.999Z</time></trkpt><trkpt lat="43.0413753520573" lon="11.483124378576681"><ele>618.0</ele><time>2026-04-08T09:21:56.999Z</time></trkpt><trkpt lat="43.04151984707834" lon="11.483169287453952"><ele>618.0</ele><time>2026-04-08T09:21:57.999Z</time></trkpt><trkpt lat="43.04167025680341" lon="11.483219893709038"><ele>616.0</ele><time>2026-04-08T09:21:58.999Z</time></trkpt><trkpt lat="43.041837236542065" lon="11.483273867175088"><ele>614.0</ele><time>2026-04-08T09:21:59.999Z</time></trkpt><trkpt lat="43.04200446922022" lon="11.483324853659584"><ele>612.0</ele><time>2026-04-08T09:22:00.999Z</time></trkpt><trkpt lat="43.042189426184095" lon="11.483374847543207"><ele>612.0</ele><time>2026-04-08T09:22:01.999Z</time></trkpt><trkpt lat="43.04235007917748" lon="11.48341716233779"><ele>612.0</ele><time>2026-04-08T09:22:02.999Z</time></trkpt><trkpt lat="43.0425003592388" lon="11.483462726397835"><ele>612.0</ele><time>2026-04-08T09:22:03.999Z</time></trkpt><trkpt lat="43.04263132240855" lon="11.483499952505692"><ele>612.25</ele><time>2026-04-08T09:22:04.999Z</time></trkpt><trkpt lat="43.042763186186285" lon="11.483538124582367"><ele>612.5</ele><time>2026-04-08T09:22:05.999Z</time></trkpt><trkpt lat="43.04289040578441" lon="11.483575553122744"><ele>612.75</ele><time>2026-04-08T09:22:06.999Z</time></trkpt><trkpt lat="43.04303077312383" lon="11.483615104573609"><ele>613.0</ele><time>2026-04-08T09:22:07.999Z</time></trkpt><trkpt lat="43.04317300989548" lon="11.483659059289844"><ele>613.5</ele><time>2026-04-08T09:22:08.999Z</time></trkpt><trkpt lat="43.04329931065375" lon="11.483699969486961"><ele>614.0</ele><time>2026-04-08T09:22:09.999Z</time></trkpt><trkpt lat="43.04341849855677" lon="11.483740163896305"><ele>614.5</ele><time>2026-04-08T09:22:10.999Z</time></trkpt><trkpt lat="43.04354106819808" lon="11.48378542750528"><ele>615.0</ele><time>2026-04-08T09:22:11.999Z</time></trkpt><trkpt lat="43.04366520349252" lon="11.483854030157257"><ele>614.0</ele><time>2026-04-08T09:22:12.999Z</time></trkpt><trkpt lat="43.04378430788692" lon="11.483947990967378"><ele>613.0</ele><time>2026-04-08T09:22:13.999Z</time></trkpt><trkpt lat="43.04390085276863" lon="11.484057839617869"><ele>612.0</ele><time>2026-04-08T09:22:14.999Z</time></trkpt><trkpt lat="43.04401306495387" lon="11.484175726798444"><ele>611.0</ele><time>2026-04-08T09:22:15.999Z</time></trkpt><trkpt lat="43.04412966550485" lon="11.484295174718165"><ele>611.0</ele><time>2026-04-08T09:22:16.999Z</time></trkpt><trkpt lat="43.04425151801945" lon="11.48442605288743"><ele>611.0</ele><time>2026-04-08T09:22:17.999Z</time></trkpt><trkpt lat="43.04436193021475" lon="11.484551211707185"><ele>611.0</ele><time>2026-04-08T09:22:18.999Z</time></trkpt><trkpt lat="43.04444803954836" lon="11.484673217497372"><ele>611.0</ele><time>2026-04-08T09:22:19.999Z</time></trkpt><trkpt lat="43.04451472274037" lon="11.484822556616695"><ele>611.25</ele><time>2026-04-08T09:22:20.999Z</time></trkpt><trkpt lat="43.044571830657354" lon="11.484991737870718"><ele>611.5</ele><time>2026-04-08T09:22:21.999Z</time></trkpt><trkpt lat="43.04462713019138" lon="11.485181939690413"><ele>611.75</ele><time>2026-04-08T09:22:22.999Z</time></trkpt><trkpt lat="43.04468085938781" lon="11.485390223010567"><ele>612.0</ele><time>2026-04-08T09:22:23.999Z</time></trkpt><trkpt lat="43.044745804491654" lon="11.485616129188418"><ele>612.6666666666666</ele><time>2026-04-08T09:22:24.999Z</time></trkpt><trkpt lat="43.04480898524452" lon="11.485840252890934"><ele>613.3333333333333</ele><time>2026-04-08T09:22:25.999Z</time></trkpt><trkpt lat="43.044863592852565" lon="11.486053176164523"><ele>614.0</ele><time>2026-04-08T09:22:26.999Z</time></trkpt><trkpt lat="43.04492114813408" lon="11.486246092116003"><ele>614.25</ele><time>2026-04-08T09:22:27.999Z</time></trkpt><trkpt lat="43.04496936408766" lon="11.486422134954378"><ele>614.5</ele><time>2026-04-08T09:22:28.999Z</time></trkpt><trkpt lat="43.045014898006805" lon="11.486587769956333"><ele>614.75</ele><time>2026-04-08T09:22:29.999Z</time></trkpt><trkpt lat="43.045058369780165" lon="11.486740073847455"><ele>615.0</ele><time>2026-04-08T09:22:30.999Z</time></trkpt><trkpt lat="43.045115092241566" lon="11.486879478844237"><ele>615.0</ele><time>2026-04-08T09:22:31.999Z</time></trkpt><trkpt lat="43.04520071260927" lon="11.486980112652837"><ele>615.0</ele><time>2026-04-08T09:22:32.999Z</time></trkpt><trkpt lat="43.04530444930948" lon="11.48705706063902"><ele>615.0</ele><time>2026-04-08T09:22:33.999Z</time></trkpt><trkpt lat="43.045429263478155" lon="11.48709576589664"><ele>615.0</ele><time>2026-04-08T09:22:34.999Z</time></trkpt><trkpt lat="43.045564522810814" lon="11.48709877241002"><ele>614.5</ele><time>2026-04-08T09:22:35.999Z</time></trkpt><trkpt lat="43.04570125294594" lon="11.48709560254586"><ele>614.0</ele><time>2026-04-08T09:22:36.999Z</time></trkpt><trkpt lat="43.045825192628996" lon="11.48712202848736"><ele>613.5</ele><time>2026-04-08T09:22:37.999Z</time></trkpt><trkpt lat="43.04592644082673" lon="11.48721091104053"><ele>613.0</ele><time>2026-04-08T09:22:38.999Z</time></trkpt><trkpt lat="43.046017561275086" lon="11.487337943029347"><ele>613.0</ele><time>2026-04-08T09:22:39.999Z</time></trkpt><trkpt lat="43.04609769305509" lon="11.487482912756704"><ele>613.0</ele><time>2026-04-08T09:22:40.999Z</time></trkpt><trkpt lat="43.046164030459096" lon="11.487648878251763"><ele>613.0</ele><time>2026-04-08T09:22:41.999Z</time></trkpt><trkpt lat="43.046216988689146" lon="11.487838898228615"><ele>613.0</ele><time>2026-04-08T09:22:42.999Z</time></trkpt><trkpt lat="43.046262428150555" lon="11.48804333080158"><ele>609.3333333333334</ele><time>2026-04-08T09:22:43.999Z</time></trkpt><trkpt lat="43.0463059633676" lon="11.488265044124407"><ele>605.6666666666666</ele><time>2026-04-08T09:22:44.999Z</time></trkpt><trkpt lat="43.0463516341874" lon="11.48847704021462"><ele>602.0</ele><time>2026-04-08T09:22:45.999Z</time></trkpt><trkpt lat="43.04639685279959" lon="11.48866807062278"><ele>600.0</ele><time>2026-04-08T09:22:46.999Z</time></trkpt><trkpt lat="43.04643242846685" lon="11.48885047014227"><ele>598.0</ele><time>2026-04-08T09:22:47.999Z</time></trkpt><trkpt lat="43.0464721576008" lon="11.489020846087966"><ele>596.0</ele><time>2026-04-08T09:22:48.999Z</time></trkpt><trkpt lat="43.046529514974964" lon="11.489171528730818"><ele>594.0</ele><time>2026-04-08T09:22:49.999Z</time></trkpt><trkpt lat="43.04661079017421" lon="11.4893032474323"><ele>599.25</ele><time>2026-04-08T09:22:50.999Z</time></trkpt><trkpt lat="43.046714285166786" lon="11.489414960391091"><ele>604.5</ele><time>2026-04-08T09:22:51.999Z</time></trkpt><trkpt lat="43.0468326037473" lon="11.489500721218636"><ele>609.75</ele><time>2026-04-08T09:22:52.999Z</time></trkpt><trkpt lat="43.0469565571456" lon="11.48954332511385"><ele>615.0</ele><time>2026-04-08T09:22:53.999Z</time></trkpt><trkpt lat="43.04709419649626" lon="11.489555107266089"><ele>615.0</ele><time>2026-04-08T09:22:54.999Z</time></trkpt><trkpt lat="43.047241453355845" lon="11.489552226319562"><ele>615.0</ele><time>2026-04-08T09:22:55.999Z</time></trkpt><trkpt lat="43.0473933959729" lon="11.489622116120369"><ele>615.0</ele><time>2026-04-08T09:22:56.999Z</time></trkpt><trkpt lat="43.04752657653033" lon="11.489737484417525"><ele>612.0</ele><time>2026-04-08T09:22:57.999Z</time></trkpt><trkpt lat="43.047637081513955" lon="11.489859126599177"><ele>609.0</ele><time>2026-04-08T09:22:58.999Z</time></trkpt><trkpt lat="43.047751116334766" lon="11.489960805925074"><ele>606.0</ele><time>2026-04-08T09:22:59.999Z</time></trkpt><trkpt lat="43.04784380219056" lon="11.49005780009743"><ele>603.0</ele><time>2026-04-08T09:23:00.999Z</time></trkpt><trkpt lat="43.04795256793839" lon="11.490100131686678"><ele>603.0</ele><time>2026-04-08T09:23:01.999Z</time></trkpt><trkpt lat="43.04808753282143" lon="11.490100332179383"><ele>603.0</ele><time>2026-04-08T09:23:02.999Z</time></trkpt><trkpt lat="43.04824102221444" lon="11.490060502964079"><ele>603.0</ele><time>2026-04-08T09:23:03.999Z</time></trkpt><trkpt lat="43.048401697924085" lon="11.489999342482706"><ele>603.0</ele><time>2026-04-08T09:23:04.999Z</time></trkpt><trkpt lat="43.048533612087056" lon="11.489947516829695"><ele>603.0</ele><time>2026-04-08T09:23:05.999Z</time></trkpt><trkpt lat="43.048647294300345" lon="11.489928728016764"><ele>603.0</ele><time>2026-04-08T09:23:06.999Z</time></trkpt><trkpt lat="43.04875226381721" lon="11.489976045019226"><ele>603.0</ele><time>2026-04-08T09:23:07.999Z</time></trkpt><trkpt lat="43.04883679185835" lon="11.49006076117126"><ele>603.0</ele><time>2026-04-08T09:23:08.999Z</time></trkpt><trkpt lat="43.048886593216025" lon="11.490212875553297"><ele>603.0</ele><time>2026-04-08T09:23:09.999Z</time></trkpt><trkpt lat="43.0489302547392" lon="11.490382881727088"><ele>603.0</ele><time>2026-04-08T09:23:10.999Z</time></trkpt><trkpt lat="43.048980693728076" lon="11.490566488794427"><ele>603.0</ele><time>2026-04-08T09:23:11.999Z</time></trkpt><trkpt lat="43.049025492519284" lon="11.490729306273291"><ele>601.4</ele><time>2026-04-08T09:23:12.999Z</time></trkpt><trkpt lat="43.04908018448992" lon="11.490858897757683"><ele>599.8</ele><time>2026-04-08T09:23:13.999Z</time></trkpt><trkpt lat="43.04912919937169" lon="11.490976744867426"><ele>598.2</ele><time>2026-04-08T09:23:14.999Z</time></trkpt><trkpt lat="43.049204646956824" lon="11.491058578073138"><ele>596.6</ele><time>2026-04-08T09:23:15.999Z</time></trkpt><trkpt lat="43.04930199522648" lon="11.491090274601687"><ele>595.0</ele><time>2026-04-08T09:23:16.999Z</time></trkpt><trkpt lat="43.04941966045793" lon="11.49108180682673"><ele>595.0</ele><time>2026-04-08T09:23:17.999Z</time></trkpt><trkpt lat="43.0495426227831" lon="11.49103542163721"><ele>595.0</ele><time>2026-04-08T09:23:18.999Z</time></trkpt><trkpt lat="43.049680647754556" lon="11.490992160435676"><ele>595.0</ele><time>2026-04-08T09:23:19.999Z</time></trkpt><trkpt lat="43.04982909332322" lon="11.490985160386794"><ele>595.0</ele><time>2026-04-08T09:23:20.999Z</time></trkpt><trkpt lat="43.04996156484377" lon="11.491007149670994"><ele>595.4</ele><time>2026-04-08T09:23:21.999Z</time></trkpt><trkpt lat="43.0500661036227" lon="11.491027161650104"><ele>595.8</ele><time>2026-04-08T09:23:22.999Z</time></trkpt><trkpt lat="43.05015852639738" lon="11.491005729252878"><ele>596.2</ele><time>2026-04-08T09:23:23.999Z</time></trkpt><trkpt lat="43.050238977642685" lon="11.49093638008677"><ele>596.6</ele><time>2026-04-08T09:23:24.999Z</time></trkpt><trkpt lat="43.050312214764496" lon="11.490814855967903"><ele>597.0</ele><time>2026-04-08T09:23:25.999Z</time></trkpt><trkpt lat="43.050394165222365" lon="11.490646038563728"><ele>597.0</ele><time>2026-04-08T09:23:26.999Z</time></trkpt><trkpt lat="43.05047692963622" lon="11.490455590540352"><ele>597.0</ele><time>2026-04-08T09:23:27.999Z</time></trkpt><trkpt lat="43.05056883160431" lon="11.490261485173685"><ele>597.0</ele><time>2026-04-08T09:23:28.999Z</time></trkpt><trkpt lat="43.05065069647369" lon="11.490065215200332"><ele>598.25</ele><time>2026-04-08T09:23:29.999Z</time></trkpt><trkpt lat="43.05072581750676" lon="11.489893476915675"><ele>599.5</ele><time>2026-04-08T09:23:30.999Z</time></trkpt><trkpt lat="43.05078563185314" lon="11.489761918537083"><ele>600.75</ele><time>2026-04-08T09:23:31.999Z</time></trkpt><trkpt lat="43.05084363711103" lon="11.489641528305167"><ele>602.0</ele><time>2026-04-08T09:23:32.999Z</time></trkpt><trkpt lat="43.05092260655664" lon="11.48954684038481"><ele>602.0</ele><time>2026-04-08T09:23:33.999Z</time></trkpt><trkpt lat="43.051020823052205" lon="11.48951137518115"><ele>602.0</ele><time>2026-04-08T09:23:34.999Z</time></trkpt><trkpt lat="43.05113283410114" lon="11.489526604061943"><ele>602.0</ele><time>2026-04-08T09:23:35.999Z</time></trkpt><trkpt lat="43.05122060303274" lon="11.48958771220491"><ele>602.0</ele><time>2026-04-08T09:23:36.999Z</time></trkpt><trkpt lat="43.0512888459014" lon="11.489723232508064"><ele>602.0</ele><time>2026-04-08T09:23:37.999Z</time></trkpt><trkpt lat="43.05135363797761" lon="11.489863342245695"><ele>598.75</ele><time>2026-04-08T09:23:38.999Z</time></trkpt><trkpt lat="43.05142639724935" lon="11.490013389371505"><ele>595.5</ele><time>2026-04-08T09:23:39.999Z</time></trkpt><trkpt lat="43.0514962594743" lon="11.490183238846631"><ele>592.25</ele><time>2026-04-08T09:23:40.999Z</time></trkpt><trkpt lat="43.05156965171509" lon="11.490352522165546"><ele>589.0</ele><time>2026-04-08T09:23:41.999Z</time></trkpt><trkpt lat="43.051632764464344" lon="11.49048889609442"><ele>585.0</ele><time>2026-04-08T09:23:42.999Z</time></trkpt><trkpt lat="43.05171970990793" lon="11.49060964047678"><ele>581.0</ele><time>2026-04-08T09:23:43.999Z</time></trkpt><trkpt lat="43.05182922096216" lon="11.49073105998252"><ele>577.0</ele><time>2026-04-08T09:23:44.999Z</time></trkpt><trkpt lat="43.0519452265082" lon="11.490848982072256"><ele>573.0</ele><time>2026-04-08T09:23:45.999Z</time></trkpt><trkpt lat="43.05205503130275" lon="11.4909447539859"><ele>573.0</ele><time>2026-04-08T09:23:46.999Z</time></trkpt><trkpt lat="43.05216819903818" lon="11.490994630415736"><ele>573.0</ele><time>2026-04-08T09:23:47.999Z</time></trkpt><trkpt lat="43.05229130086754" lon="11.491007181187731"><ele>573.0</ele><time>2026-04-08T09:23:48.999Z</time></trkpt><trkpt lat="43.05242385972753" lon="11.490980206265364"><ele>573.0</ele><time>2026-04-08T09:23:49.999Z</time></trkpt><trkpt lat="43.05256193937344" lon="11.49091568500663"><ele>574.0</ele><time>2026-04-08T09:23:50.999Z</time></trkpt><trkpt lat="43.052700149232194" lon="11.49083506601418"><ele>575.0</ele><time>2026-04-08T09:23:51.999Z</time></trkpt><trkpt lat="43.05282363671966" lon="11.490764743638819"><ele>576.0</ele><time>2026-04-08T09:23:52.999Z</time></trkpt><trkpt lat="43.0529310869825" lon="11.490691739040587"><ele>577.0</ele><time>2026-04-08T09:23:53.999Z</time></trkpt><trkpt lat="43.05301719005133" lon="11.4905970859551"><ele>577.0</ele><time>2026-04-08T09:23:54.999Z</time></trkpt><trkpt lat="43.05309123087033" lon="11.490467657649283"><ele>577.0</ele><time>2026-04-08T09:23:55.999Z</time></trkpt><trkpt lat="43.05315269379308" lon="11.490301299830515"><ele>577.0</ele><time>2026-04-08T09:23:56.999Z</time></trkpt><trkpt lat="43.05319505000608" lon="11.490108568641928"><ele>577.0</ele><time>2026-04-08T09:23:57.999Z</time></trkpt><trkpt lat="43.05323973483863" lon="11.489877021317007"><ele>574.3333333333334</ele><time>2026-04-08T09:23:58.999Z</time></trkpt><trkpt lat="43.0532922478922" lon="11.489629251866956"><ele>571.6666666666666</ele><time>2026-04-08T09:23:59.999Z</time></trkpt><trkpt lat="43.053347712213615" lon="11.489359765062165"><ele>569.0</ele><time>2026-04-08T09:24:00.999Z</time></trkpt><trkpt lat="43.05340764557795" lon="11.489085794476802"><ele>569.0</ele><time>2026-04-08T09:24:01.999Z</time></trkpt><trkpt lat="43.053370774361426" lon="11.48926223077843"><ele>569.0</ele><time>2026-04-08T09:24:02.999Z</time></trkpt><trkpt lat="43.0534059086751" lon="11.48912233043976"><ele>569.0</ele><time>2026-04-08T09:24:03.999Z</time></trkpt><trkpt lat="43.05345676366297" lon="11.489002368171423"><ele>569.0</ele><time>2026-04-08T09:24:04.999Z</time></trkpt><trkpt lat="43.053553420087844" lon="11.488944303810431"><ele>569.0</ele><time>2026-04-08T09:24:05.999Z</time></trkpt><trkpt lat="43.053650186093044" lon="11.488918384495328"><ele>569.0</ele><time>2026-04-08T09:24:06.999Z</time></trkpt><trkpt lat="43.05375516903273" lon="11.488878864931435"><ele>569.0</ele><time>2026-04-08T09:24:07.999Z</time></trkpt><trkpt lat="43.05386467003364" lon="11.488839037098085"><ele>569.0</ele><time>2026-04-08T09:24:08.999Z</time></trkpt><trkpt lat="43.05397577330478" lon="11.48879993502249"><ele>569.0</ele><time>2026-04-08T09:24:09.999Z</time></trkpt><trkpt lat="43.05408753884511" lon="11.488761070055897"><ele>568.2</ele><time>2026-04-08T09:24:10.999Z</time></trkpt><trkpt lat="43.054186282694715" lon="11.488715537050279"><ele>567.4</ele><time>2026-04-08T09:24:11.999Z</time></trkpt><trkpt lat="43.05428514472721" lon="11.488685631060772"><ele>566.6</ele><time>2026-04-08T09:24:12.999Z</time></trkpt><trkpt lat="43.054383641836175" lon="11.488688225493378"><ele>565.8</ele><time>2026-04-08T09:24:13.999Z</time></trkpt><trkpt lat="43.05446906483319" lon="11.488669281279615"><ele>565.0</ele><time>2026-04-08T09:24:14.999Z</time></trkpt><trkpt lat="43.05454996977713" lon="11.488720563647805"><ele>565.0</ele><time>2026-04-08T09:24:15.999Z</time></trkpt><trkpt lat="43.05462651203933" lon="11.488756255766845"><ele>565.0</ele><time>2026-04-08T09:24:16.999Z</time></trkpt><trkpt lat="43.05469174093476" lon="11.488788711385403"><ele>565.0</ele><time>2026-04-08T09:24:17.999Z</time></trkpt><trkpt lat="43.05475917061082" lon="11.488829069012686"><ele>565.0</ele><time>2026-04-08T09:24:19.999Z</time></trkpt><trkpt lat="43.05484519063196" lon="11.488866878221389"><ele>565.0</ele><time>2026-04-08T09:24:23.999Z</time></trkpt><trkpt lat="43.054976886334295" lon="11.488713128708971"><ele>565.0</ele><time>2026-04-08T09:25:47.999Z</time></trkpt><trkpt lat="43.05503270156667" lon="11.488665942223403"><ele>565.0</ele><time>2026-04-08T09:25:55.999Z</time></trkpt><trkpt lat="43.05501969467116" lon="11.488527677753035"><ele>565.0</ele><time>2026-04-08T09:27:54Z</time></trkpt><trkpt lat="43.05497238917628" lon="11.488637528412672"><ele>565.0</ele><time>2026-04-08T09:28:01Z</time></trkpt><trkpt lat="43.0549162222562" lon="11.488688051179308"><ele>565.0</ele><time>2026-04-08T09:28:18Z</time></trkpt><trkpt lat="43.054867284600846" lon="11.488787197283017"><ele>565.0</ele><time>2026-04-08T09:31:59Z</time></trkpt><trkpt lat="43.05491072205528" lon="11.488897819786937"><ele>563.3333333333334</ele><time>2026-04-08T09:32:01Z</time></trkpt><trkpt lat="43.05496693161252" lon="11.48897241340841"><ele>561.6666666666667</ele><time>2026-04-08T09:32:03Z</time></trkpt><trkpt lat="43.05502541109447" lon="11.489077210008713"><ele>560.0</ele><time>2026-04-08T09:32:07Z</time></trkpt><trkpt lat="43.05503500163683" lon="11.489185436030661"><ele>558.3333333333334</ele><time>2026-04-08T09:32:11Z</time></trkpt><trkpt lat="43.0549688053118" lon="11.489226085433662"><ele>556.6666666666666</ele><time>2026-04-08T09:32:13Z</time></trkpt><trkpt lat="43.05489139612297" lon="11.489110773427235"><ele>555.0</ele><time>2026-04-08T09:32:14Z</time></trkpt><trkpt lat="43.054835387500404" lon="11.489218992718236"><ele>555.0</ele><time>2026-04-08T09:32:15Z</time></trkpt><trkpt lat="43.054764518631686" lon="11.489235586182357"><ele>555.0</ele><time>2026-04-08T09:32:16Z</time></trkpt><trkpt lat="43.05469257775073" lon="11.489242941982091"><ele>555.0</ele><time>2026-04-08T09:32:17Z</time></trkpt><trkpt lat="43.05461781561046" lon="11.489248561657437"><ele>555.0</ele><time>2026-04-08T09:32:18Z</time></trkpt><trkpt lat="43.05454976374348" lon="11.489253367923451"><ele>555.0</ele><time>2026-04-08T09:32:19Z</time></trkpt><trkpt lat="43.05443198739512" lon="11.489265901655045"><ele>555.0</ele><time>2026-04-08T09:32:21Z</time></trkpt><trkpt lat="43.05436568934005" lon="11.489272311897103"><ele>555.0000000000001</ele><time>2026-04-08T09:32:22Z</time></trkpt><trkpt lat="43.05429279714305" lon="11.489302660058204"><ele>555.0</ele><time>2026-04-08T09:32:23Z</time></trkpt><trkpt lat="43.05423231899671" lon="11.489356455816234"><ele>555.0</ele><time>2026-04-08T09:32:24Z</time></trkpt><trkpt lat="43.05418493981198" lon="11.489422995974259"><ele>555.0</ele><time>2026-04-08T09:32:25Z</time></trkpt><trkpt lat="43.05415211096767" lon="11.489509955853993"><ele>555.0</ele><time>2026-04-08T09:32:26Z</time></trkpt><trkpt lat="43.05411784006092" lon="11.489605572134844"><ele>555.0000000000001</ele><time>2026-04-08T09:32:27Z</time></trkpt><trkpt lat="43.05410904881971" lon="11.489714745792963"><ele>555.0</ele><time>2026-04-08T09:32:28Z</time></trkpt><trkpt lat="43.05412506911992" lon="11.489836337608013"><ele>553.2</ele><time>2026-04-08T09:32:29Z</time></trkpt><trkpt lat="43.054154827396076" lon="11.489948940069338"><ele>551.4</ele><time>2026-04-08T09:32:30Z</time></trkpt><trkpt lat="43.054255568364155" lon="11.490007888450167"><ele>549.6</ele><time>2026-04-08T09:32:31Z</time></trkpt><trkpt lat="43.05431626535343" lon="11.490080693012105"><ele>547.8</ele><time>2026-04-08T09:32:32Z</time></trkpt><trkpt lat="43.05439715334484" lon="11.490157066743405"><ele>546.0</ele><time>2026-04-08T09:32:33Z</time></trkpt><trkpt lat="43.054459464312494" lon="11.490227215705916"><ele>546.0</ele><time>2026-04-08T09:32:34Z</time></trkpt><trkpt lat="43.05450622683349" lon="11.490310340996649"><ele>546.0</ele><time>2026-04-08T09:32:35Z</time></trkpt><trkpt lat="43.05456701495439" lon="11.490373314508139"><ele>546.0</ele><time>2026-04-08T09:32:36Z</time></trkpt><trkpt lat="43.054624704072474" lon="11.490440672850777"><ele>546.0</ele><time>2026-04-08T09:32:37Z</time></trkpt><trkpt lat="43.054687790109675" lon="11.490493622146582"><ele>546.0</ele><time>2026-04-08T09:32:38Z</time></trkpt><trkpt lat="43.05474748914437" lon="11.490571810076059"><ele>546.0</ele><time>2026-04-08T09:32:39Z</time></trkpt><trkpt lat="43.05481717630562" lon="11.490666338057837"><ele>544.4</ele><time>2026-04-08T09:32:40Z</time></trkpt><trkpt lat="43.054890051526144" lon="11.49076913809238"><ele>542.8</ele><time>2026-04-08T09:32:41Z</time></trkpt><trkpt lat="43.05495263981057" lon="11.490864240408815"><ele>541.1999999999999</ele><time>2026-04-08T09:32:42Z</time></trkpt><trkpt lat="43.05499519679212" lon="11.490978039311562"><ele>539.6</ele><time>2026-04-08T09:32:43Z</time></trkpt><trkpt lat="43.05504290109211" lon="11.49107732769967"><ele>538.0</ele><time>2026-04-08T09:32:44Z</time></trkpt><trkpt lat="43.05510235517713" lon="11.491179218677017"><ele>533.8</ele><time>2026-04-08T09:32:45Z</time></trkpt><trkpt lat="43.055150669816435" lon="11.491291714597368"><ele>529.5999999999999</ele><time>2026-04-08T09:32:46Z</time></trkpt><trkpt lat="43.05520242056875" lon="11.491414965248675"><ele>525.4000000000001</ele><time>2026-04-08T09:32:47Z</time></trkpt><trkpt lat="43.05524995686104" lon="11.491539650460076"><ele>521.2</ele><time>2026-04-08T09:32:48Z</time></trkpt><trkpt lat="43.05530290300235" lon="11.491650391145715"><ele>517.0</ele><time>2026-04-08T09:32:49Z</time></trkpt><trkpt lat="43.05535698749386" lon="11.491734816772526"><ele>517.0</ele><time>2026-04-08T09:32:50Z</time></trkpt><trkpt lat="43.055408218829776" lon="11.491811449851385"><ele>517.0</ele><time>2026-04-08T09:32:51Z</time></trkpt><trkpt lat="43.055462396642916" lon="11.491873454442283"><ele>517.0</ele><time>2026-04-08T09:32:56.001Z</time></trkpt><trkpt lat="43.0553770189365" lon="11.49188783289268"><ele>517.0</ele><time>2026-04-08T09:33:00.001Z</time></trkpt><trkpt lat="43.055305054033404" lon="11.491754439058537"><ele>517.0</ele><time>2026-04-08T09:33:02.001Z</time></trkpt><trkpt lat="43.055246498376015" lon="11.491672848794817"><ele>517.0</ele><time>2026-04-08T09:33:03.001Z</time></trkpt><trkpt lat="43.055195563624316" lon="11.491599872922592"><ele>517.0</ele><time>2026-04-08T09:33:04.001Z</time></trkpt><trkpt lat="43.05514756611712" lon="11.491531977225423"><ele>517.0</ele><time>2026-04-08T09:33:05.001Z</time></trkpt><trkpt lat="43.055096919677304" lon="11.491456175554989"><ele>517.0</ele><time>2026-04-08T09:33:06.001Z</time></trkpt><trkpt lat="43.055036249381416" lon="11.491375483364791"><ele>517.0</ele><time>2026-04-08T09:33:07Z</time></trkpt><trkpt lat="43.05497336645022" lon="11.491287173888372"><ele>517.0</ele><time>2026-04-08T09:33:08Z</time></trkpt><trkpt lat="43.05492370226505" lon="11.49120821137762"><ele>517.0</ele><time>2026-04-08T09:33:09Z</time></trkpt><trkpt lat="43.05487844220359" lon="11.491137949393758"><ele>520.5</ele><time>2026-04-08T09:33:10Z</time></trkpt><trkpt lat="43.054836443942236" lon="11.491072195641001"><ele>524.0</ele><time>2026-04-08T09:33:11Z</time></trkpt><trkpt lat="43.054758288717174" lon="11.49095151450917"><ele>527.5</ele><time>2026-04-08T09:33:13Z</time></trkpt><trkpt lat="43.05470748951081" lon="11.490898324428777"><ele>531.0</ele><time>2026-04-08T09:33:14Z</time></trkpt><trkpt lat="43.05460847688183" lon="11.490890684964091"><ele>534.5</ele><time>2026-04-08T09:33:16Z</time></trkpt><trkpt lat="43.05451555698571" lon="11.49094353574731"><ele>538.0</ele><time>2026-04-08T09:33:18Z</time></trkpt><trkpt lat="43.054416263481855" lon="11.491046080297838"><ele>538.0</ele><time>2026-04-08T09:33:20Z</time></trkpt><trkpt lat="43.05437464104045" lon="11.491144257429172"><ele>538.0</ele><time>2026-04-08T09:33:21Z</time></trkpt><trkpt lat="43.05434272708312" lon="11.491246258687294"><ele>538.0</ele><time>2026-04-08T09:33:22Z</time></trkpt><trkpt lat="43.054364134723805" lon="11.491368619756381"><ele>538.0</ele><time>2026-04-08T09:33:23Z</time></trkpt><trkpt lat="43.054353679595124" lon="11.491472182650902"><ele>538.0</ele><time>2026-04-08T09:33:24Z</time></trkpt><trkpt lat="43.054365466181586" lon="11.491581795385159"><ele>538.0</ele><time>2026-04-08T09:33:25Z</time></trkpt><trkpt lat="43.05438260176688" lon="11.491717874281825"><ele>537.6666666666667</ele><time>2026-04-08T09:33:26Z</time></trkpt><trkpt lat="43.0543996253719" lon="11.491857135681007"><ele>537.3333333333334</ele><time>2026-04-08T09:33:27Z</time></trkpt><trkpt lat="43.054410334181526" lon="11.491972951243136"><ele>537.0</ele><time>2026-04-08T09:33:28Z</time></trkpt><trkpt lat="43.054429128451154" lon="11.492078233913471"><ele>536.6666666666666</ele><time>2026-04-08T09:33:29Z</time></trkpt><trkpt lat="43.0544312356908" lon="11.492181814024018"><ele>536.3333333333333</ele><time>2026-04-08T09:33:30Z</time></trkpt><trkpt lat="43.05444178213351" lon="11.49227675864761"><ele>536.0</ele><time>2026-04-08T09:33:31Z</time></trkpt><trkpt lat="43.05444587687627" lon="11.492384501093346"><ele>534.0</ele><time>2026-04-08T09:33:32Z</time></trkpt><trkpt lat="43.05444032385976" lon="11.492486558570931"><ele>532.0</ele><time>2026-04-08T09:33:33Z</time></trkpt><trkpt lat="43.05443489200455" lon="11.492580401289759"><ele>530.0</ele><time>2026-04-08T09:33:34Z</time></trkpt><trkpt lat="43.05442795036578" lon="11.492690851337032"><ele>528.0</ele><time>2026-04-08T09:33:35Z</time></trkpt><trkpt lat="43.05441007626249" lon="11.49280105494698"><ele>526.0</ele><time>2026-04-08T09:33:36Z</time></trkpt><trkpt lat="43.05437765599456" lon="11.492924883755778"><ele>524.0</ele><time>2026-04-08T09:33:37Z</time></trkpt><trkpt lat="43.054343722756535" lon="11.493035583942543"><ele>522.0</ele><time>2026-04-08T09:33:38Z</time></trkpt><trkpt lat="43.054303180202226" lon="11.493137453306652"><ele>520.0</ele><time>2026-04-08T09:33:39Z</time></trkpt><trkpt lat="43.05424451962497" lon="11.493250605013648"><ele>518.0</ele><time>2026-04-08T09:33:40Z</time></trkpt><trkpt lat="43.05416755833588" lon="11.493355715510793"><ele>516.0</ele><time>2026-04-08T09:33:41Z</time></trkpt><trkpt lat="43.05408972996069" lon="11.49344438245041"><ele>514.0</ele><time>2026-04-08T09:33:42Z</time></trkpt><trkpt lat="43.054006807655604" lon="11.493522299681786"><ele>514.0</ele><time>2026-04-08T09:33:43Z</time></trkpt><trkpt lat="43.05392457878516" lon="11.493582277057666"><ele>514.0</ele><time>2026-04-08T09:33:44Z</time></trkpt><trkpt lat="43.0538373599659" lon="11.493662460644721"><ele>514.0</ele><time>2026-04-08T09:33:45Z</time></trkpt><trkpt lat="43.05375540089728" lon="11.493768789951565"><ele>514.0</ele><time>2026-04-08T09:33:46Z</time></trkpt><trkpt lat="43.053684415541255" lon="11.49387017791199"><ele>514.0</ele><time>2026-04-08T09:33:47Z</time></trkpt><trkpt lat="43.05361433720272" lon="11.49396956736157"><ele>512.8</ele><time>2026-04-08T09:33:48Z</time></trkpt><trkpt lat="43.053561760303616" lon="11.494079472642033"><ele>511.59999999999997</ele><time>2026-04-08T09:33:49Z</time></trkpt><trkpt lat="43.05351107318658" lon="11.494222759686304"><ele>510.4</ele><time>2026-04-08T09:33:50Z</time></trkpt><trkpt lat="43.05348892259248" lon="11.494373518352157"><ele>509.2</ele><time>2026-04-08T09:33:51Z</time></trkpt><trkpt lat="43.05348375003681" lon="11.494507480625542"><ele>508.0</ele><time>2026-04-08T09:33:52Z</time></trkpt><trkpt lat="43.05348568354185" lon="11.494640916486434"><ele>507.4</ele><time>2026-04-08T09:33:53Z</time></trkpt><trkpt lat="43.053490239842105" lon="11.494783837044869"><ele>506.79999999999995</ele><time>2026-04-08T09:33:54Z</time></trkpt><trkpt lat="43.053496270737526" lon="11.494917470709195"><ele>506.2</ele><time>2026-04-08T09:33:55Z</time></trkpt><trkpt lat="43.053526462232064" lon="11.49503581291053"><ele>505.6</ele><time>2026-04-08T09:33:56Z</time></trkpt><trkpt lat="43.053531855993654" lon="11.49517057615207"><ele>505.0</ele><time>2026-04-08T09:33:57Z</time></trkpt><trkpt lat="43.05353822274532" lon="11.49529835497543"><ele>504.83333333333337</ele><time>2026-04-08T09:33:58Z</time></trkpt><trkpt lat="43.05354490928835" lon="11.49542052888084"><ele>504.6666666666667</ele><time>2026-04-08T09:33:59Z</time></trkpt><trkpt lat="43.0535421697491" lon="11.495531264538926"><ele>504.5</ele><time>2026-04-08T09:34:00Z</time></trkpt><trkpt lat="43.05355202737573" lon="11.49564436254864"><ele>504.33333333333337</ele><time>2026-04-08T09:34:01Z</time></trkpt><trkpt lat="43.05354905211154" lon="11.495758872954456"><ele>504.1666666666667</ele><time>2026-04-08T09:34:02Z</time></trkpt><trkpt lat="43.05354247466547" lon="11.49589448704753"><ele>504.0</ele><time>2026-04-08T09:34:03Z</time></trkpt><trkpt lat="43.053533917417745" lon="11.4960228166894"><ele>504.0</ele><time>2026-04-08T09:34:04Z</time></trkpt><trkpt lat="43.05352241234749" lon="11.496162523925296"><ele>504.0</ele><time>2026-04-08T09:34:05Z</time></trkpt><trkpt lat="43.05349331672789" lon="11.496287619104677"><ele>504.0</ele><time>2026-04-08T09:34:06Z</time></trkpt><trkpt lat="43.053479294626186" lon="11.496413006880479"><ele>504.0</ele><time>2026-04-08T09:34:07Z</time></trkpt><trkpt lat="43.05346671141099" lon="11.496528229841028"><ele>504.0</ele><time>2026-04-08T09:34:08Z</time></trkpt><trkpt lat="43.053456142893765" lon="11.496625501792673"><ele>504.0</ele><time>2026-04-08T09:34:09Z</time></trkpt><trkpt lat="43.05344343406546" lon="11.49673155573657"><ele>503.0</ele><time>2026-04-08T09:34:10Z</time></trkpt><trkpt lat="43.05344364005531" lon="11.496843200101576"><ele>502.0</ele><time>2026-04-08T09:34:11Z</time></trkpt><trkpt lat="43.05342708393925" lon="11.496957675522804"><ele>501.0</ele><time>2026-04-08T09:34:12Z</time></trkpt><trkpt lat="43.05340228356596" lon="11.497074097443353"><ele>500.0</ele><time>2026-04-08T09:34:13Z</time></trkpt><trkpt lat="43.05336617982751" lon="11.497210238207636"><ele>499.0</ele><time>2026-04-08T09:34:14Z</time></trkpt><trkpt lat="43.05332798434711" lon="11.497331844529622"><ele>501.79999999999995</ele><time>2026-04-08T09:34:15Z</time></trkpt><trkpt lat="43.05328065123679" lon="11.497460802235997"><ele>504.59999999999997</ele><time>2026-04-08T09:34:16Z</time></trkpt><trkpt lat="43.05324185740046" lon="11.49757112034175"><ele>507.4</ele><time>2026-04-08T09:34:17Z</time></trkpt><trkpt lat="43.053204694460184" lon="11.49767369548673"><ele>510.2</ele><time>2026-04-08T09:34:18Z</time></trkpt><trkpt lat="43.05315760977712" lon="11.497774125198113"><ele>513.0</ele><time>2026-04-08T09:34:19Z</time></trkpt><trkpt lat="43.053105198601216" lon="11.497881536468126"><ele>510.4</ele><time>2026-04-08T09:34:20Z</time></trkpt><trkpt lat="43.05305704729546" lon="11.497987441423765"><ele>507.79999999999995</ele><time>2026-04-08T09:34:21Z</time></trkpt><trkpt lat="43.05300373855993" lon="11.498092359555313"><ele>505.2</ele><time>2026-04-08T09:34:22Z</time></trkpt><trkpt lat="43.052953784673775" lon="11.49821974511579"><ele>502.6</ele><time>2026-04-08T09:34:23Z</time></trkpt><trkpt lat="43.052888459182945" lon="11.498375727489345"><ele>500.0</ele><time>2026-04-08T09:34:24Z</time></trkpt><trkpt lat="43.05279960752786" lon="11.498537109772185"><ele>500.0</ele><time>2026-04-08T09:34:25Z</time></trkpt><trkpt lat="43.0527273328948" lon="11.498710940084981"><ele>500.0</ele><time>2026-04-08T09:34:26Z</time></trkpt><trkpt lat="43.052646431828826" lon="11.498909379468731"><ele>500.0</ele><time>2026-04-08T09:34:27Z</time></trkpt><trkpt lat="43.052567606088715" lon="11.499102728148257"><ele>498.25</ele><time>2026-04-08T09:34:28Z</time></trkpt><trkpt lat="43.05249266056007" lon="11.49928655950288"><ele>496.5</ele><time>2026-04-08T09:34:29Z</time></trkpt><trkpt lat="43.05242038874615" lon="11.49946383238664"><ele>494.75</ele><time>2026-04-08T09:34:30Z</time></trkpt><trkpt lat="43.052348159598054" lon="11.499638939673574"><ele>493.0</ele><time>2026-04-08T09:34:31Z</time></trkpt><trkpt lat="43.05227586226912" lon="11.499817715627666"><ele>489.5</ele><time>2026-04-08T09:34:32Z</time></trkpt><trkpt lat="43.0522212662978" lon="11.49999609735514"><ele>486.0</ele><time>2026-04-08T09:34:33Z</time></trkpt><trkpt lat="43.052144861161615" lon="11.50013637740936"><ele>482.5</ele><time>2026-04-08T09:34:34Z</time></trkpt><trkpt lat="43.0520931946718" lon="11.500296082286797"><ele>479.0</ele><time>2026-04-08T09:34:35Z</time></trkpt><trkpt lat="43.052041214223436" lon="11.500432216804104"><ele>477.75</ele><time>2026-04-08T09:34:36Z</time></trkpt><trkpt lat="43.05198853474443" lon="11.500581897738883"><ele>476.5</ele><time>2026-04-08T09:34:37Z</time></trkpt><trkpt lat="43.05195504224513" lon="11.500749715084007"><ele>475.25</ele><time>2026-04-08T09:34:38Z</time></trkpt><trkpt lat="43.05193226200677" lon="11.500938922750885"><ele>474.0</ele><time>2026-04-08T09:34:39Z</time></trkpt><trkpt lat="43.05192507387" lon="11.501130466750187"><ele>472.75</ele><time>2026-04-08T09:34:40Z</time></trkpt><trkpt lat="43.05192889068319" lon="11.501326569607446"><ele>471.5</ele><time>2026-04-08T09:34:41Z</time></trkpt><trkpt lat="43.051938697938844" lon="11.501529516840291"><ele>470.25</ele><time>2026-04-08T09:34:42Z</time></trkpt><trkpt lat="43.05194348336692" lon="11.501722766077222"><ele>469.0</ele><time>2026-04-08T09:34:43Z</time></trkpt><trkpt lat="43.05193946825255" lon="11.501902936080107"><ele>469.0</ele><time>2026-04-08T09:34:44Z</time></trkpt><trkpt lat="43.05191171684138" lon="11.502076772851202"><ele>469.0</ele><time>2026-04-08T09:34:45Z</time></trkpt><trkpt lat="43.05188268013553" lon="11.502234147537406"><ele>469.0</ele><time>2026-04-08T09:34:46Z</time></trkpt><trkpt lat="43.051855222565074" lon="11.502386788081058"><ele>469.0</ele><time>2026-04-08T09:34:47Z</time></trkpt><trkpt lat="43.05180566572291" lon="11.502525162767485"><ele>468.4</ele><time>2026-04-08T09:34:48Z</time></trkpt><trkpt lat="43.05176627721837" lon="11.502659508746143"><ele>467.79999999999995</ele><time>2026-04-08T09:34:49Z</time></trkpt><trkpt lat="43.05173160670993" lon="11.50279113795101"><ele>467.20000000000005</ele><time>2026-04-08T09:34:50Z</time></trkpt><trkpt lat="43.05171874515912" lon="11.502929416760189"><ele>466.6</ele><time>2026-04-08T09:34:51Z</time></trkpt><trkpt lat="43.05172633583082" lon="11.503082810787827"><ele>466.0</ele><time>2026-04-08T09:34:52Z</time></trkpt><trkpt lat="43.051763447096924" lon="11.503244695842286"><ele>465.5</ele><time>2026-04-08T09:34:53Z</time></trkpt><trkpt lat="43.051808536755786" lon="11.503410940123969"><ele>465.0</ele><time>2026-04-08T09:34:54Z</time></trkpt><trkpt lat="43.05187617792912" lon="11.50356841112132"><ele>464.5</ele><time>2026-04-08T09:34:55Z</time></trkpt><trkpt lat="43.051949783401554" lon="11.503708041211759"><ele>464.0</ele><time>2026-04-08T09:34:56Z</time></trkpt><trkpt lat="43.05200638760899" lon="11.503843083128357"><ele>462.4</ele><time>2026-04-08T09:34:57Z</time></trkpt><trkpt lat="43.0520582210677" lon="11.503959360700263"><ele>460.79999999999995</ele><time>2026-04-08T09:34:58Z</time></trkpt><trkpt lat="43.0521178545697" lon="11.504104133355595"><ele>459.20000000000005</ele><time>2026-04-08T09:34:59Z</time></trkpt><trkpt lat="43.05217106802066" lon="11.504238463828937"><ele>457.6</ele><time>2026-04-08T09:35:00Z</time></trkpt><trkpt lat="43.05220655045885" lon="11.504368602421781"><ele>456.0</ele><time>2026-04-08T09:35:01Z</time></trkpt><trkpt lat="43.052253199682575" lon="11.504474994591195"><ele>454.6666666666667</ele><time>2026-04-08T09:35:02Z</time></trkpt><trkpt lat="43.05227273970536" lon="11.504579663538939"><ele>453.33333333333337</ele><time>2026-04-08T09:35:03Z</time></trkpt><trkpt lat="43.05228684381687" lon="11.504677693290253"><ele>452.0</ele><time>2026-04-08T09:35:04Z</time></trkpt><trkpt lat="43.052291901922004" lon="11.504791708007641"><ele>450.6666666666667</ele><time>2026-04-08T09:35:05Z</time></trkpt><trkpt lat="43.052284430488555" lon="11.504905921525767"><ele>449.33333333333337</ele><time>2026-04-08T09:35:06Z</time></trkpt><trkpt lat="43.05227418403192" lon="11.504993127336329"><ele>448.0</ele><time>2026-04-08T09:35:07Z</time></trkpt><trkpt lat="43.05233337113401" lon="11.505097174988663"><ele>448.00000000000006</ele><time>2026-04-08T09:35:09Z</time></trkpt><trkpt lat="43.05240724982264" lon="11.505071462213236"><ele>448.0</ele><time>2026-04-08T09:35:10Z</time></trkpt><trkpt lat="43.05247002389988" lon="11.505038174101317"><ele>448.0</ele><time>2026-04-08T09:35:11Z</time></trkpt><trkpt lat="43.052540214878256" lon="11.50500064035431"><ele>448.0</ele><time>2026-04-08T09:35:12Z</time></trkpt><trkpt lat="43.052620590537" lon="11.504992259333623"><ele>448.00000000000006</ele><time>2026-04-08T09:35:13Z</time></trkpt><trkpt lat="43.05270928918101" lon="11.505028584793166"><ele>448.0</ele><time>2026-04-08T09:35:14Z</time></trkpt><trkpt lat="43.05281081091977" lon="11.505085572609003"><ele>450.0</ele><time>2026-04-08T09:35:15Z</time></trkpt><trkpt lat="43.05291065270025" lon="11.505173119782816"><ele>452.0</ele><time>2026-04-08T09:35:16Z</time></trkpt><trkpt lat="43.05300986585924" lon="11.505251300461655"><ele>454.0</ele><time>2026-04-08T09:35:17Z</time></trkpt><trkpt lat="43.05310923943735" lon="11.505327784319483"><ele>456.0</ele><time>2026-04-08T09:35:18Z</time></trkpt><trkpt lat="43.05316380875362" lon="11.505452591386012"><ele>456.0</ele><time>2026-04-08T09:35:19Z</time></trkpt><trkpt lat="43.05321031807794" lon="11.505572908804268"><ele>456.0</ele><time>2026-04-08T09:35:20Z</time></trkpt><trkpt lat="43.05326055291243" lon="11.505714231220043"><ele>456.0</ele><time>2026-04-08T09:35:21Z</time></trkpt><trkpt lat="43.05325434859809" lon="11.505863524247605"><ele>456.0</ele><time>2026-04-08T09:35:22Z</time></trkpt><trkpt lat="43.05324259398128" lon="11.506013943462344"><ele>456.0</ele><time>2026-04-08T09:35:23Z</time></trkpt><trkpt lat="43.05322450302805" lon="11.506167126554287"><ele>455.25</ele><time>2026-04-08T09:35:24Z</time></trkpt><trkpt lat="43.05321506116328" lon="11.506337016956897"><ele>454.5</ele><time>2026-04-08T09:35:25Z</time></trkpt><trkpt lat="43.0531935856208" lon="11.506515823549071"><ele>453.75</ele><time>2026-04-08T09:35:26Z</time></trkpt><trkpt lat="43.05317104334676" lon="11.506717541470735"><ele>453.0</ele><time>2026-04-08T09:35:27Z</time></trkpt><trkpt lat="43.05314382352394" lon="11.5069409195745"><ele>451.0</ele><time>2026-04-08T09:35:28Z</time></trkpt><trkpt lat="43.05311873052312" lon="11.507143500150104"><ele>449.0</ele><time>2026-04-08T09:35:29Z</time></trkpt><trkpt lat="43.05309563492622" lon="11.50733000609277"><ele>447.0</ele><time>2026-04-08T09:35:30Z</time></trkpt><trkpt lat="43.053074165947706" lon="11.507511186307974"><ele>445.0</ele><time>2026-04-08T09:35:31Z</time></trkpt><trkpt lat="43.05305144028696" lon="11.50768527912054"><ele>445.0</ele><time>2026-04-08T09:35:32Z</time></trkpt><trkpt lat="43.05302883071388" lon="11.507860210441958"><ele>445.0</ele><time>2026-04-08T09:35:33Z</time></trkpt><trkpt lat="43.05300863269885" lon="11.508024493394673"><ele>445.0</ele><time>2026-04-08T09:35:34Z</time></trkpt><trkpt lat="43.05299326435295" lon="11.508182072302805"><ele>445.0</ele><time>2026-04-08T09:35:35Z</time></trkpt><trkpt lat="43.05298058836559" lon="11.508370182410907"><ele>442.0</ele><time>2026-04-08T09:35:36Z</time></trkpt><trkpt lat="43.05297295359748" lon="11.508575125898956"><ele>439.0</ele><time>2026-04-08T09:35:37Z</time></trkpt><trkpt lat="43.05297647503246" lon="11.508785820537804"><ele>436.0</ele><time>2026-04-08T09:35:38Z</time></trkpt><trkpt lat="43.053002917086886" lon="11.508996857412102"><ele>434.0</ele><time>2026-04-08T09:35:39Z</time></trkpt><trkpt lat="43.05304124783058" lon="11.50919345165344"><ele>432.0</ele><time>2026-04-08T09:35:40Z</time></trkpt><trkpt lat="43.05308601977968" lon="11.509385623420615"><ele>430.0</ele><time>2026-04-08T09:35:41Z</time></trkpt><trkpt lat="43.0531308756552" lon="11.509562651057715"><ele>428.0</ele><time>2026-04-08T09:35:42Z</time></trkpt><trkpt lat="43.05317655145077" lon="11.509746325399217"><ele>427.25</ele><time>2026-04-08T09:35:43Z</time></trkpt><trkpt lat="43.05323088860695" lon="11.509933324469612"><ele>426.5</ele><time>2026-04-08T09:35:44Z</time></trkpt><trkpt lat="43.05330509216634" lon="11.510109212587134"><ele>425.75</ele><time>2026-04-08T09:35:45Z</time></trkpt><trkpt lat="43.053404157768746" lon="11.510250231088733"><ele>425.0</ele><time>2026-04-08T09:35:46Z</time></trkpt><trkpt lat="43.05351797023906" lon="11.510384726520014"><ele>423.25</ele><time>2026-04-08T09:35:47Z</time></trkpt><trkpt lat="43.053653385472934" lon="11.510496603255636"><ele>421.5</ele><time>2026-04-08T09:35:48Z</time></trkpt><trkpt lat="43.05377875610597" lon="11.510585222386949"><ele>419.75</ele><time>2026-04-08T09:35:49Z</time></trkpt><trkpt lat="43.053900863986556" lon="11.51065068450501"><ele>418.0</ele><time>2026-04-08T09:35:50Z</time></trkpt><trkpt lat="43.05402707599597" lon="11.510678419246698"><ele>417.5</ele><time>2026-04-08T09:35:51Z</time></trkpt><trkpt lat="43.05417187033951" lon="11.510687548388953"><ele>417.0</ele><time>2026-04-08T09:35:52Z</time></trkpt><trkpt lat="43.05432467022799" lon="11.510658790920472"><ele>416.5</ele><time>2026-04-08T09:35:53Z</time></trkpt><trkpt lat="43.054463414935974" lon="11.510597491247603"><ele>416.0</ele><time>2026-04-08T09:35:54Z</time></trkpt><trkpt lat="43.0545830095867" lon="11.510506104183355"><ele>419.66666666666663</ele><time>2026-04-08T09:35:55Z</time></trkpt><trkpt lat="43.05469329465576" lon="11.51038548785596"><ele>423.33333333333337</ele><time>2026-04-08T09:35:56Z</time></trkpt><trkpt lat="43.05480916692876" lon="11.51022860647921"><ele>427.0</ele><time>2026-04-08T09:35:57Z</time></trkpt><trkpt lat="43.05491125209083" lon="11.510075883015276"><ele>422.6666666666667</ele><time>2026-04-08T09:35:58Z</time></trkpt><trkpt lat="43.05500017930265" lon="11.509920019328279"><ele>418.33333333333337</ele><time>2026-04-08T09:35:59Z</time></trkpt><trkpt lat="43.05507001236341" lon="11.50973868263189"><ele>414.0</ele><time>2026-04-08T09:36:00Z</time></trkpt><trkpt lat="43.05510086112841" lon="11.509520823286605"><ele>414.0</ele><time>2026-04-08T09:36:01Z</time></trkpt><trkpt lat="43.05516481754616" lon="11.509333890605658"><ele>414.0</ele><time>2026-04-08T09:36:02Z</time></trkpt><trkpt lat="43.05524615966855" lon="11.509133211559805"><ele>414.0</ele><time>2026-04-08T09:36:03Z</time></trkpt><trkpt lat="43.05534277191046" lon="11.508963286545827"><ele>414.0</ele><time>2026-04-08T09:36:04Z</time></trkpt><trkpt lat="43.05543784891225" lon="11.508825807077441"><ele>414.0</ele><time>2026-04-08T09:36:05Z</time></trkpt><trkpt lat="43.05554165681306" lon="11.508695386914205"><ele>414.0</ele><time>2026-04-08T09:36:06Z</time></trkpt><trkpt lat="43.05565100950422" lon="11.508575597693953"><ele>414.0</ele><time>2026-04-08T09:36:07Z</time></trkpt><trkpt lat="43.05574924863797" lon="11.508459698599477"><ele>410.0</ele><time>2026-04-08T09:36:08Z</time></trkpt><trkpt lat="43.05583721651204" lon="11.508347114328181"><ele>406.0</ele><time>2026-04-08T09:36:09Z</time></trkpt><trkpt lat="43.05589854754319" lon="11.508245458417436"><ele>402.0</ele><time>2026-04-08T09:36:10Z</time></trkpt><trkpt lat="43.055937995744415" lon="11.508096896325196"><ele>398.0</ele><time>2026-04-08T09:36:11Z</time></trkpt><trkpt lat="43.05595757753314" lon="11.507908534507493"><ele>397.5</ele><time>2026-04-08T09:36:12Z</time></trkpt><trkpt lat="43.0559581229773" lon="11.507711632307144"><ele>397.0</ele><time>2026-04-08T09:36:13Z</time></trkpt><trkpt lat="43.05595452465922" lon="11.507513646883764"><ele>396.5</ele><time>2026-04-08T09:36:14Z</time></trkpt><trkpt lat="43.05594762588826" lon="11.507332081514392"><ele>396.0</ele><time>2026-04-08T09:36:15Z</time></trkpt><trkpt lat="43.05591064990112" lon="11.507157528480196"><ele>394.5</ele><time>2026-04-08T09:36:16Z</time></trkpt><trkpt lat="43.05584688282777" lon="11.507004390829382"><ele>393.0</ele><time>2026-04-08T09:36:17Z</time></trkpt><trkpt lat="43.0557661857309" lon="11.506861574145233"><ele>391.5</ele><time>2026-04-08T09:36:18Z</time></trkpt><trkpt lat="43.05567447439702" lon="11.506722887839384"><ele>390.0</ele><time>2026-04-08T09:36:19Z</time></trkpt><trkpt lat="43.05557975147044" lon="11.50657624363025"><ele>393.0</ele><time>2026-04-08T09:36:20Z</time></trkpt><trkpt lat="43.05552686863465" lon="11.506414351276083"><ele>396.0</ele><time>2026-04-08T09:36:21Z</time></trkpt><trkpt lat="43.05549600481433" lon="11.506250676656943"><ele>399.0</ele><time>2026-04-08T09:36:22Z</time></trkpt><trkpt lat="43.055489577603716" lon="11.506051501162846"><ele>402.0</ele><time>2026-04-08T09:36:23Z</time></trkpt><trkpt lat="43.05552071485513" lon="11.50583165938885"><ele>402.0</ele><time>2026-04-08T09:36:24Z</time></trkpt><trkpt lat="43.05559345589917" lon="11.505632326905772"><ele>402.0</ele><time>2026-04-08T09:36:25Z</time></trkpt><trkpt lat="43.05564861796944" lon="11.505443825126319"><ele>402.0</ele><time>2026-04-08T09:36:26Z</time></trkpt><trkpt lat="43.055714203438" lon="11.505268272861352"><ele>402.0</ele><time>2026-04-08T09:36:27Z</time></trkpt><trkpt lat="43.05577920608392" lon="11.50508126495591"><ele>402.0</ele><time>2026-04-08T09:36:28Z</time></trkpt><trkpt lat="43.055857307848314" lon="11.50489841690706"><ele>402.0</ele><time>2026-04-08T09:36:29Z</time></trkpt><trkpt lat="43.055941043450844" lon="11.504727982238071"><ele>399.0</ele><time>2026-04-08T09:36:30Z</time></trkpt><trkpt lat="43.05602406177107" lon="11.50456883113251"><ele>396.0</ele><time>2026-04-08T09:36:31Z</time></trkpt><trkpt lat="43.05609736638205" lon="11.50441449182753"><ele>393.0</ele><time>2026-04-08T09:36:32Z</time></trkpt><trkpt lat="43.056184582545654" lon="11.504253165626377"><ele>390.0</ele><time>2026-04-08T09:36:33Z</time></trkpt><trkpt lat="43.05629220588765" lon="11.504098288765782"><ele>390.0</ele><time>2026-04-08T09:36:34Z</time></trkpt><trkpt lat="43.056429057990556" lon="11.503973422299238"><ele>390.0</ele><time>2026-04-08T09:36:35Z</time></trkpt><trkpt lat="43.056576406065915" lon="11.50387954658388"><ele>390.0</ele><time>2026-04-08T09:36:36Z</time></trkpt><trkpt lat="43.05671270520825" lon="11.503800049257038"><ele>388.0</ele><time>2026-04-08T09:36:37Z</time></trkpt><trkpt lat="43.056855209244716" lon="11.503709824598582"><ele>386.0</ele><time>2026-04-08T09:36:38Z</time></trkpt><trkpt lat="43.05699793478936" lon="11.503619032163575"><ele>384.0</ele><time>2026-04-08T09:36:39Z</time></trkpt><trkpt lat="43.057132483240665" lon="11.503551579306807"><ele>384.0</ele><time>2026-04-08T09:36:40Z</time></trkpt><trkpt lat="43.057262504290705" lon="11.5034979019839"><ele>384.0</ele><time>2026-04-08T09:36:41Z</time></trkpt><trkpt lat="43.05738684779435" lon="11.50345747106054"><ele>384.0</ele><time>2026-04-08T09:36:42Z</time></trkpt><trkpt lat="43.057501361967105" lon="11.503432207671601"><ele>384.0</ele><time>2026-04-08T09:36:43Z</time></trkpt><trkpt lat="43.0576083144564" lon="11.503389269204744"><ele>381.75</ele><time>2026-04-08T09:36:44Z</time></trkpt><trkpt lat="43.057694202581786" lon="11.503301163247153"><ele>379.5</ele><time>2026-04-08T09:36:45Z</time></trkpt><trkpt lat="43.057759021517846" lon="11.503172415735047"><ele>377.25</ele><time>2026-04-08T09:36:46Z</time></trkpt><trkpt lat="43.05780617977309" lon="11.50300490862835"><ele>375.0</ele><time>2026-04-08T09:36:47Z</time></trkpt><trkpt lat="43.05781089673037" lon="11.502828393384274"><ele>375.0</ele><time>2026-04-08T09:36:48Z</time></trkpt><trkpt lat="43.05780316593975" lon="11.502635116343122"><ele>375.0</ele><time>2026-04-08T09:36:49Z</time></trkpt><trkpt lat="43.05779340483623" lon="11.502468692223546"><ele>375.0</ele><time>2026-04-08T09:36:50Z</time></trkpt><trkpt lat="43.05783039008152" lon="11.502328330865396"><ele>375.0</ele><time>2026-04-08T09:36:51Z</time></trkpt><trkpt lat="43.057881057432525" lon="11.502203470609548"><ele>375.0</ele><time>2026-04-08T09:36:52Z</time></trkpt><trkpt lat="43.057977206583324" lon="11.502115500204052"><ele>375.0</ele><time>2026-04-08T09:36:53Z</time></trkpt><trkpt lat="43.05808320596094" lon="11.502064595850472"><ele>375.0</ele><time>2026-04-08T09:36:54Z</time></trkpt><trkpt lat="43.05821505880036" lon="11.50203810015787"><ele>375.0</ele><time>2026-04-08T09:36:54.999Z</time></trkpt><trkpt lat="43.0583319489847" lon="11.502024428959313"><ele>372.75</ele><time>2026-04-08T09:36:55.999Z</time></trkpt><trkpt lat="43.05843130212439" lon="11.502030646741801"><ele>370.5</ele><time>2026-04-08T09:36:56.999Z</time></trkpt><trkpt lat="43.058523492888895" lon="11.502081943114874"><ele>368.25</ele><time>2026-04-08T09:36:57.999Z</time></trkpt><trkpt lat="43.05861330133622" lon="11.502216687749865"><ele>366.0</ele><time>2026-04-08T09:36:58.999Z</time></trkpt><trkpt lat="43.0587267445562" lon="11.50234656432824"><ele>365.0</ele><time>2026-04-08T09:36:59.999Z</time></trkpt><trkpt lat="43.05884667418065" lon="11.50248978323933"><ele>364.0</ele><time>2026-04-08T09:37:00.999Z</time></trkpt><trkpt lat="43.05895008391389" lon="11.50260179465295"><ele>363.0</ele><time>2026-04-08T09:37:01.999Z</time></trkpt><trkpt lat="43.05904337555765" lon="11.502704427696775"><ele>362.0</ele><time>2026-04-08T09:37:02.999Z</time></trkpt><trkpt lat="43.059137928164446" lon="11.502814307616939"><ele>362.0</ele><time>2026-04-08T09:37:03.999Z</time></trkpt><trkpt lat="43.05922817685127" lon="11.502901889609362"><ele>362.0</ele><time>2026-04-08T09:37:05Z</time></trkpt><trkpt lat="43.05934113982547" lon="11.5029655086736"><ele>362.0</ele><time>2026-04-08T09:37:06Z</time></trkpt><trkpt lat="43.05948213746517" lon="11.50301761982213"><ele>362.0</ele><time>2026-04-08T09:37:07Z</time></trkpt><trkpt lat="43.05964046362983" lon="11.503043895241273"><ele>357.0</ele><time>2026-04-08T09:37:08Z</time></trkpt><trkpt lat="43.05977486989081" lon="11.503062168778"><ele>352.0</ele><time>2026-04-08T09:37:09Z</time></trkpt><trkpt lat="43.05990013470597" lon="11.503076750790942"><ele>347.0</ele><time>2026-04-08T09:37:10Z</time></trkpt><trkpt lat="43.06002599858024" lon="11.503078506536255"><ele>342.0</ele><time>2026-04-08T09:37:11Z</time></trkpt><trkpt lat="43.06013689073225" lon="11.503059987377295"><ele>341.0</ele><time>2026-04-08T09:37:12Z</time></trkpt><trkpt lat="43.06025214713407" lon="11.503018133153676"><ele>340.0</ele><time>2026-04-08T09:37:13Z</time></trkpt><trkpt lat="43.06036796445452" lon="11.502933426424711"><ele>339.0</ele><time>2026-04-08T09:37:14Z</time></trkpt><trkpt lat="43.06048451663937" lon="11.502823024074116"><ele>338.0</ele><time>2026-04-08T09:37:15Z</time></trkpt><trkpt lat="43.060577523273324" lon="11.502689990776863"><ele>339.0</ele><time>2026-04-08T09:37:16Z</time></trkpt><trkpt lat="43.060651014366165" lon="11.50255006943584"><ele>340.0</ele><time>2026-04-08T09:37:17Z</time></trkpt><trkpt lat="43.06072316938703" lon="11.50239990548758"><ele>341.0</ele><time>2026-04-08T09:37:18Z</time></trkpt><trkpt lat="43.060811832348826" lon="11.50226594931897"><ele>342.0</ele><time>2026-04-08T09:37:19Z</time></trkpt><trkpt lat="43.06091972699694" lon="11.502169929459642"><ele>342.0</ele><time>2026-04-08T09:37:20Z</time></trkpt><trkpt lat="43.06104681112605" lon="11.502110852964952"><ele>342.0</ele><time>2026-04-08T09:37:21Z</time></trkpt><trkpt lat="43.06118465638416" lon="11.502088302250499"><ele>342.0</ele><time>2026-04-08T09:37:22Z</time></trkpt><trkpt lat="43.06131653283414" lon="11.502082435677268"><ele>342.0</ele><time>2026-04-08T09:37:23Z</time></trkpt><trkpt lat="43.06144413588724" lon="11.502064219105822"><ele>342.0</ele><time>2026-04-08T09:37:24Z</time></trkpt><trkpt lat="43.061577846359135" lon="11.50200688846176"><ele>342.0</ele><time>2026-04-08T09:37:25Z</time></trkpt><trkpt lat="43.061711596638524" lon="11.501919485805319"><ele>342.0</ele><time>2026-04-08T09:37:26Z</time></trkpt><trkpt lat="43.06184587588475" lon="11.501809167800289"><ele>342.0</ele><time>2026-04-08T09:37:27Z</time></trkpt><trkpt lat="43.06198367396525" lon="11.501677243840998"><ele>342.0</ele><time>2026-04-08T09:37:28Z</time></trkpt><trkpt lat="43.06211429721218" lon="11.501545667826562"><ele>342.0</ele><time>2026-04-08T09:37:29Z</time></trkpt><trkpt lat="43.06223939719649" lon="11.501424705320584"><ele>342.0</ele><time>2026-04-08T09:37:30Z</time></trkpt><trkpt lat="43.06235002800348" lon="11.501315997114954"><ele>340.75</ele><time>2026-04-08T09:37:31Z</time></trkpt><trkpt lat="43.06246328002514" lon="11.50120798340526"><ele>339.5</ele><time>2026-04-08T09:37:32Z</time></trkpt><trkpt lat="43.06259335546644" lon="11.501099660538353"><ele>338.25</ele><time>2026-04-08T09:37:33Z</time></trkpt><trkpt lat="43.06272234016904" lon="11.50102263485443"><ele>337.0</ele><time>2026-04-08T09:37:34Z</time></trkpt><trkpt lat="43.062860939799705" lon="11.500985942407786"><ele>337.0</ele><time>2026-04-08T09:37:35Z</time></trkpt><trkpt lat="43.06300971779211" lon="11.500987385724596"><ele>337.0</ele><time>2026-04-08T09:37:36Z</time></trkpt><trkpt lat="43.0631618837718" lon="11.501031008863832"><ele>337.0</ele><time>2026-04-08T09:37:37Z</time></trkpt><trkpt lat="43.063321758725735" lon="11.501114969315452"><ele>335.0</ele><time>2026-04-08T09:37:38Z</time></trkpt><trkpt lat="43.06348024446983" lon="11.501208579098396"><ele>333.0</ele><time>2026-04-08T09:37:39Z</time></trkpt><trkpt lat="43.06364018268919" lon="11.501300087460592"><ele>331.0</ele><time>2026-04-08T09:37:40Z</time></trkpt><trkpt lat="43.063802151312174" lon="11.501385887891894"><ele>328.3333333333333</ele><time>2026-04-08T09:37:41Z</time></trkpt><trkpt lat="43.063959396309755" lon="11.501461793784179"><ele>325.6666666666667</ele><time>2026-04-08T09:37:42Z</time></trkpt><trkpt lat="43.06410662625353" lon="11.501536654018537"><ele>323.0</ele><time>2026-04-08T09:37:43Z</time></trkpt><trkpt lat="43.06423214120101" lon="11.501605033661038"><ele>322.75</ele><time>2026-04-08T09:37:44Z</time></trkpt><trkpt lat="43.064362786026116" lon="11.501680632016331"><ele>322.5</ele><time>2026-04-08T09:37:45Z</time></trkpt><trkpt lat="43.06448830672492" lon="11.501734244722359"><ele>322.25</ele><time>2026-04-08T09:37:46Z</time></trkpt><trkpt lat="43.064612619103656" lon="11.501766202612739"><ele>322.0</ele><time>2026-04-08T09:37:47Z</time></trkpt><trkpt lat="43.06475123894046" lon="11.501769992504258"><ele>322.0</ele><time>2026-04-08T09:37:48Z</time></trkpt><trkpt lat="43.06487808292356" lon="11.50174317160981"><ele>322.0</ele><time>2026-04-08T09:37:49Z</time></trkpt><trkpt lat="43.06500583302912" lon="11.501678070827856"><ele>322.0</ele><time>2026-04-08T09:37:50Z</time></trkpt><trkpt lat="43.06513513581549" lon="11.501583508560163"><ele>322.0</ele><time>2026-04-08T09:37:51Z</time></trkpt><trkpt lat="43.06524339305778" lon="11.50146053888059"><ele>321.66666666666663</ele><time>2026-04-08T09:37:52Z</time></trkpt><trkpt lat="43.065344459027195" lon="11.501301916845636"><ele>321.3333333333333</ele><time>2026-04-08T09:37:53Z</time></trkpt><trkpt lat="43.06544607641021" lon="11.501099458243623"><ele>321.0</ele><time>2026-04-08T09:37:54Z</time></trkpt><trkpt lat="43.0655338047064" lon="11.500903541131743"><ele>321.0</ele><time>2026-04-08T09:37:55Z</time></trkpt><trkpt lat="43.06561601095229" lon="11.500728841215546"><ele>321.0</ele><time>2026-04-08T09:37:56Z</time></trkpt><trkpt lat="43.065690402832516" lon="11.500570076444788"><ele>321.0</ele><time>2026-04-08T09:37:57Z</time></trkpt><trkpt lat="43.06577131949918" lon="11.500423726135427"><ele>321.0</ele><time>2026-04-08T09:37:58Z</time></trkpt><trkpt lat="43.06587201739192" lon="11.50030273401247"><ele>318.6666666666667</ele><time>2026-04-08T09:37:59Z</time></trkpt><trkpt lat="43.066001857767034" lon="11.500210610396348"><ele>316.33333333333337</ele><time>2026-04-08T09:38:00Z</time></trkpt><trkpt lat="43.06615761495702" lon="11.500133202785571"><ele>314.0</ele><time>2026-04-08T09:38:01Z</time></trkpt><trkpt lat="43.06632759239984" lon="11.500074169598403"><ele>314.0</ele><time>2026-04-08T09:38:02Z</time></trkpt><trkpt lat="43.06647730365435" lon="11.500028158950839"><ele>314.0</ele><time>2026-04-08T09:38:03Z</time></trkpt><trkpt lat="43.06662073308715" lon="11.499978199328803"><ele>314.0</ele><time>2026-04-08T09:38:04Z</time></trkpt><trkpt lat="43.06674837358529" lon="11.499928131910933"><ele>314.0</ele><time>2026-04-08T09:38:05Z</time></trkpt><trkpt lat="43.066874110143736" lon="11.499859688145767"><ele>313.6666666666667</ele><time>2026-04-08T09:38:06Z</time></trkpt><trkpt lat="43.06701747762181" lon="11.499764329000902"><ele>313.3333333333333</ele><time>2026-04-08T09:38:07Z</time></trkpt><trkpt lat="43.067165210306975" lon="11.499656396503227"><ele>313.0</ele><time>2026-04-08T09:38:08Z</time></trkpt><trkpt lat="43.06730211223696" lon="11.49955856779542"><ele>313.0</ele><time>2026-04-08T09:38:09Z</time></trkpt><trkpt lat="43.06743803394711" lon="11.499466926076952"><ele>313.0</ele><time>2026-04-08T09:38:10Z</time></trkpt><trkpt lat="43.06758599964142" lon="11.499371408871177"><ele>313.0</ele><time>2026-04-08T09:38:11Z</time></trkpt><trkpt lat="43.06774587472068" lon="11.49927989873221"><ele>310.0</ele><time>2026-04-08T09:38:12Z</time></trkpt><trkpt lat="43.06790770579188" lon="11.499208419735579"><ele>307.0</ele><time>2026-04-08T09:38:13Z</time></trkpt><trkpt lat="43.06808224372108" lon="11.49915170313692"><ele>304.0</ele><time>2026-04-08T09:38:14Z</time></trkpt><trkpt lat="43.06825345000736" lon="11.4991039597779"><ele>300.66666666666663</ele><time>2026-04-08T09:38:15Z</time></trkpt><trkpt lat="43.06841516608882" lon="11.499062355505915"><ele>297.3333333333333</ele><time>2026-04-08T09:38:16Z</time></trkpt><trkpt lat="43.06857320177579" lon="11.499019796780097"><ele>294.0</ele><time>2026-04-08T09:38:17Z</time></trkpt><trkpt lat="43.06873285318322" lon="11.49896692692941"><ele>294.0</ele><time>2026-04-08T09:38:18Z</time></trkpt><trkpt lat="43.06889062314709" lon="11.498915916480877"><ele>294.0</ele><time>2026-04-08T09:38:19Z</time></trkpt><trkpt lat="43.06904043208529" lon="11.498866094948175"><ele>294.0</ele><time>2026-04-08T09:38:20Z</time></trkpt><trkpt lat="43.06918779200843" lon="11.498824466219148"><ele>292.3333333333333</ele><time>2026-04-08T09:38:21Z</time></trkpt><trkpt lat="43.06934676927498" lon="11.498776117432547"><ele>290.66666666666663</ele><time>2026-04-08T09:38:22Z</time></trkpt><trkpt lat="43.0695137181909" lon="11.498725304041683"><ele>289.0</ele><time>2026-04-08T09:38:23Z</time></trkpt><trkpt lat="43.069685226562925" lon="11.498677895942523"><ele>289.0</ele><time>2026-04-08T09:38:24Z</time></trkpt><trkpt lat="43.06985962938236" lon="11.498627745443427"><ele>289.0</ele><time>2026-04-08T09:38:25Z</time></trkpt><trkpt lat="43.07001795457572" lon="11.498569513761048"><ele>289.0</ele><time>2026-04-08T09:38:26Z</time></trkpt><trkpt lat="43.070168468220146" lon="11.498494062704186"><ele>287.66666666666663</ele><time>2026-04-08T09:38:27Z</time></trkpt><trkpt lat="43.070321811126284" lon="11.498403985021124"><ele>286.3333333333333</ele><time>2026-04-08T09:38:28Z</time></trkpt><trkpt lat="43.07046846632695" lon="11.498309415114207"><ele>285.0</ele><time>2026-04-08T09:38:29Z</time></trkpt><trkpt lat="43.070605108036816" lon="11.49820887691619"><ele>285.0</ele><time>2026-04-08T09:38:30Z</time></trkpt><trkpt lat="43.07074945261425" lon="11.49809121608216"><ele>285.0</ele><time>2026-04-08T09:38:31Z</time></trkpt><trkpt lat="43.070902009653395" lon="11.497972352478918"><ele>285.0</ele><time>2026-04-08T09:38:32Z</time></trkpt><trkpt lat="43.07105566334405" lon="11.497844397751129"><ele>282.3333333333333</ele><time>2026-04-08T09:38:33Z</time></trkpt><trkpt lat="43.07121729656614" lon="11.497713548665704"><ele>279.66666666666663</ele><time>2026-04-08T09:38:34Z</time></trkpt><trkpt lat="43.07136370145328" lon="11.497600447240604"><ele>277.0</ele><time>2026-04-08T09:38:34.999Z</time></trkpt><trkpt lat="43.07150270501118" lon="11.497496634479829"><ele>278.0</ele><time>2026-04-08T09:38:35.999Z</time></trkpt><trkpt lat="43.07164473632547" lon="11.497390591374607"><ele>279.0</ele><time>2026-04-08T09:38:36.999Z</time></trkpt><trkpt lat="43.07178469086361" lon="11.497283077459874"><ele>280.0</ele><time>2026-04-08T09:38:37.999Z</time></trkpt><trkpt lat="43.07194047814901" lon="11.497164512074205"><ele>277.66666666666663</ele><time>2026-04-08T09:38:38.999Z</time></trkpt><trkpt lat="43.07209677987582" lon="11.497044584127108"><ele>275.3333333333333</ele><time>2026-04-08T09:38:39.999Z</time></trkpt><trkpt lat="43.072246142814436" lon="11.496930049986172"><ele>273.0</ele><time>2026-04-08T09:38:40.999Z</time></trkpt><trkpt lat="43.07238723967287" lon="11.496821249833163"><ele>274.0</ele><time>2026-04-08T09:38:41.999Z</time></trkpt><trkpt lat="43.072531523501965" lon="11.496711752503531"><ele>275.0</ele><time>2026-04-08T09:38:42.999Z</time></trkpt><trkpt lat="43.07267607917443" lon="11.496615632077642"><ele>276.0</ele><time>2026-04-08T09:38:43.999Z</time></trkpt><trkpt lat="43.07283468481566" lon="11.49652711917907"><ele>276.0</ele><time>2026-04-08T09:38:44.999Z</time></trkpt><trkpt lat="43.07300215376944" lon="11.49645915956586"><ele>276.0</ele><time>2026-04-08T09:38:45.999Z</time></trkpt><trkpt lat="43.07317625728405" lon="11.496380219210513"><ele>276.0</ele><time>2026-04-08T09:38:46.999Z</time></trkpt><trkpt lat="43.07334984416759" lon="11.496304786019053"><ele>272.3333333333333</ele><time>2026-04-08T09:38:47.999Z</time></trkpt><trkpt lat="43.073508765537184" lon="11.496232877855672"><ele>268.66666666666663</ele><time>2026-04-08T09:38:48.999Z</time></trkpt><trkpt lat="43.07366053834655" lon="11.49616129865369"><ele>265.0</ele><time>2026-04-08T09:38:49.999Z</time></trkpt><trkpt lat="43.0738135770754" lon="11.49607885314617"><ele>265.0</ele><time>2026-04-08T09:38:50.999Z</time></trkpt><trkpt lat="43.0739682152099" lon="11.495969102533858"><ele>265.0</ele><time>2026-04-08T09:38:51.999Z</time></trkpt><trkpt lat="43.07412708347513" lon="11.495845047227057"><ele>265.0</ele><time>2026-04-08T09:38:52.999Z</time></trkpt><trkpt lat="43.07427415600725" lon="11.495720185507007"><ele>264.66666666666663</ele><time>2026-04-08T09:38:53.999Z</time></trkpt><trkpt lat="43.07442954772476" lon="11.49559508315863"><ele>264.3333333333333</ele><time>2026-04-08T09:38:54.999Z</time></trkpt><trkpt lat="43.074576346554814" lon="11.495472623626343"><ele>264.0</ele><time>2026-04-08T09:38:55.999Z</time></trkpt><trkpt lat="43.07472312924876" lon="11.495349322763825"><ele>262.6666666666667</ele><time>2026-04-08T09:38:56.999Z</time></trkpt><trkpt lat="43.07486665394807" lon="11.495227044032921"><ele>261.33333333333337</ele><time>2026-04-08T09:38:57.999Z</time></trkpt><trkpt lat="43.07501673345735" lon="11.495104476031939"><ele>260.0</ele><time>2026-04-08T09:38:58.999Z</time></trkpt><trkpt lat="43.07515551269768" lon="11.494984965207268"><ele>259.33333333333337</ele><time>2026-04-08T09:38:59.999Z</time></trkpt><trkpt lat="43.0752940789572" lon="11.494860537794835"><ele>258.6666666666667</ele><time>2026-04-08T09:39:00.999Z</time></trkpt><trkpt lat="43.075435602829565" lon="11.494737399999222"><ele>258.0</ele><time>2026-04-08T09:39:01.999Z</time></trkpt><trkpt lat="43.07557414562931" lon="11.494621735016302"><ele>257.0</ele><time>2026-04-08T09:39:02.999Z</time></trkpt><trkpt lat="43.07571315170542" lon="11.494496422098806"><ele>256.0</ele><time>2026-04-08T09:39:03.999Z</time></trkpt><trkpt lat="43.07585421587542" lon="11.494352170140155"><ele>255.0</ele><time>2026-04-08T09:39:04.999Z</time></trkpt><trkpt lat="43.07599885759323" lon="11.494197263944228"><ele>254.33333333333331</ele><time>2026-04-08T09:39:05.999Z</time></trkpt><trkpt lat="43.076139528478684" lon="11.49404976529058"><ele>253.66666666666666</ele><time>2026-04-08T09:39:06.999Z</time></trkpt><trkpt lat="43.07628744831632" lon="11.49389613039885"><ele>253.0</ele><time>2026-04-08T09:39:07.999Z</time></trkpt><trkpt lat="43.07643588246573" lon="11.493743560812291"><ele>252.66666666666666</ele><time>2026-04-08T09:39:08.999Z</time></trkpt><trkpt lat="43.07657080701989" lon="11.493597010972046"><ele>252.33333333333331</ele><time>2026-04-08T09:39:09.999Z</time></trkpt><trkpt lat="43.07670300254203" lon="11.4934601902646"><ele>252.0</ele><time>2026-04-08T09:39:10.999Z</time></trkpt><trkpt lat="43.076835121213975" lon="11.49333312650474"><ele>251.75</ele><time>2026-04-08T09:39:11.999Z</time></trkpt><trkpt lat="43.07696859498952" lon="11.49321306348494"><ele>251.5</ele><time>2026-04-08T09:39:12.999Z</time></trkpt><trkpt lat="43.07709907002508" lon="11.493119918009556"><ele>251.25</ele><time>2026-04-08T09:39:13.999Z</time></trkpt><trkpt lat="43.07722638919678" lon="11.493044192118155"><ele>251.0</ele><time>2026-04-08T09:39:14.999Z</time></trkpt><trkpt lat="43.077347205259265" lon="11.492976533242972"><ele>250.8</ele><time>2026-04-08T09:39:15.999Z</time></trkpt><trkpt lat="43.077443892903254" lon="11.492922359186373"><ele>250.60000000000002</ele><time>2026-04-08T09:39:16.999Z</time></trkpt><trkpt lat="43.07751628456467" lon="11.492878558933636"><ele>250.4</ele><time>2026-04-08T09:39:17.999Z</time></trkpt><trkpt lat="43.07762044028652" lon="11.492836187794298"><ele>250.2</ele><time>2026-04-08T09:39:19.999Z</time></trkpt><trkpt lat="43.07770278012058" lon="11.492936364937098"><ele>250.0</ele><time>2026-04-08T09:39:22Z</time></trkpt><trkpt lat="43.07782422051152" lon="11.49301332107017"><ele>250.0</ele><time>2026-04-08T09:39:24Z</time></trkpt><trkpt lat="43.077892910893475" lon="11.493084018661975"><ele>250.0</ele><time>2026-04-08T09:39:25Z</time></trkpt><trkpt lat="43.07798257543406" lon="11.49318036799762"><ele>250.0</ele><time>2026-04-08T09:39:26Z</time></trkpt><trkpt lat="43.07807194099714" lon="11.493283416720558"><ele>250.0</ele><time>2026-04-08T09:39:27Z</time></trkpt><trkpt lat="43.078147524078034" lon="11.493389425442322"><ele>250.0</ele><time>2026-04-08T09:39:28Z</time></trkpt><trkpt lat="43.0782196913331" lon="11.493499182823161"><ele>250.5</ele><time>2026-04-08T09:39:29Z</time></trkpt><trkpt lat="43.07829926831329" lon="11.493608684695959"><ele>251.0</ele><time>2026-04-08T09:39:30Z</time></trkpt><trkpt lat="43.078382771851466" lon="11.493712896548457"><ele>251.5</ele><time>2026-04-08T09:39:31Z</time></trkpt><trkpt lat="43.07845538926196" lon="11.49384334817797"><ele>252.0</ele><time>2026-04-08T09:39:32Z</time></trkpt><trkpt lat="43.07854853987519" lon="11.493956170196066"><ele>252.39999999999998</ele><time>2026-04-08T09:39:33Z</time></trkpt><trkpt lat="43.07860336654692" lon="11.494090913073384"><ele>252.79999999999998</ele><time>2026-04-08T09:39:34Z</time></trkpt><trkpt lat="43.07865848887107" lon="11.494207675371282"><ele>253.2</ele><time>2026-04-08T09:39:35Z</time></trkpt><trkpt lat="43.078723910984706" lon="11.494323848290858"><ele>253.6</ele><time>2026-04-08T09:39:36Z</time></trkpt><trkpt lat="43.07877108378706" lon="11.49445698779507"><ele>254.0</ele><time>2026-04-08T09:39:37Z</time></trkpt><trkpt lat="43.078816922947" lon="11.494582745932565"><ele>254.0</ele><time>2026-04-08T09:39:38Z</time></trkpt><trkpt lat="43.078846417527124" lon="11.4947220351852"><ele>253.99999999999997</ele><time>2026-04-08T09:39:39Z</time></trkpt><trkpt lat="43.07890534694804" lon="11.494847674203083"><ele>253.99999999999997</ele><time>2026-04-08T09:39:40Z</time></trkpt><trkpt lat="43.07895041531512" lon="11.494984266599559"><ele>254.0</ele><time>2026-04-08T09:39:41Z</time></trkpt><trkpt lat="43.07899123465788" lon="11.495125590447836"><ele>254.0</ele><time>2026-04-08T09:39:42Z</time></trkpt><trkpt lat="43.07904229834033" lon="11.495260562930861"><ele>254.0</ele><time>2026-04-08T09:39:43Z</time></trkpt><trkpt lat="43.07908431529124" lon="11.49539340169326"><ele>253.99999999999997</ele><time>2026-04-08T09:39:44Z</time></trkpt><trkpt lat="43.07912636227246" lon="11.495520451941726"><ele>253.99999999999997</ele><time>2026-04-08T09:39:45Z</time></trkpt><trkpt lat="43.07917091999912" lon="11.495644214091888"><ele>254.0</ele><time>2026-04-08T09:39:46Z</time></trkpt><trkpt lat="43.0792133993482" lon="11.495772458449142"><ele>254.0</ele><time>2026-04-08T09:39:47Z</time></trkpt><trkpt lat="43.07925543398768" lon="11.495902753515008"><ele>255.6</ele><time>2026-04-08T09:39:48Z</time></trkpt><trkpt lat="43.07929969758518" lon="11.496037451087059"><ele>257.2</ele><time>2026-04-08T09:39:49Z</time></trkpt><trkpt lat="43.079350685355145" lon="11.496173912466626"><ele>258.79999999999995</ele><time>2026-04-08T09:39:50Z</time></trkpt><trkpt lat="43.07940643493496" lon="11.496316099943602"><ele>260.4</ele><time>2026-04-08T09:39:51Z</time></trkpt><trkpt lat="43.079449812473534" lon="11.496434556040223"><ele>262.0</ele><time>2026-04-08T09:39:52Z</time></trkpt><trkpt lat="43.07947878836556" lon="11.496545678562867"><ele>262.16666666666663</ele><time>2026-04-08T09:39:53Z</time></trkpt><trkpt lat="43.07950333709327" lon="11.496664526837987"><ele>262.3333333333333</ele><time>2026-04-08T09:39:54Z</time></trkpt><trkpt lat="43.0795222244148" lon="11.496795713520171"><ele>262.5</ele><time>2026-04-08T09:39:55Z</time></trkpt><trkpt lat="43.079529292049685" lon="11.496919694047968"><ele>262.6666666666667</ele><time>2026-04-08T09:39:56Z</time></trkpt><trkpt lat="43.07953787267548" lon="11.497029361328176"><ele>262.83333333333337</ele><time>2026-04-08T09:39:57Z</time></trkpt><trkpt lat="43.07955125585604" lon="11.49712975251639"><ele>263.0</ele><time>2026-04-08T09:39:58Z</time></trkpt><trkpt lat="43.07957291323181" lon="11.497235743521099"><ele>263.0</ele><time>2026-04-08T09:39:59Z</time></trkpt><trkpt lat="43.079605938140695" lon="11.497355057821542"><ele>263.0</ele><time>2026-04-08T09:40:00Z</time></trkpt><trkpt lat="43.07964625052899" lon="11.497493511006136"><ele>263.0</ele><time>2026-04-08T09:40:01Z</time></trkpt><trkpt lat="43.07969227488038" lon="11.497644347273908"><ele>263.0</ele><time>2026-04-08T09:40:02Z</time></trkpt><trkpt lat="43.079742918837255" lon="11.497798421269287"><ele>263.0</ele><time>2026-04-08T09:40:03Z</time></trkpt><trkpt lat="43.07978286015379" lon="11.497944178828442"><ele>262.4</ele><time>2026-04-08T09:40:04Z</time></trkpt><trkpt lat="43.07981576265788" lon="11.498069935787804"><ele>261.8</ele><time>2026-04-08T09:40:05Z</time></trkpt><trkpt lat="43.07985556919323" lon="11.498191849204632"><ele>261.2</ele><time>2026-04-08T09:40:06Z</time></trkpt><trkpt lat="43.07989421861849" lon="11.498323563505501"><ele>260.6</ele><time>2026-04-08T09:40:07Z</time></trkpt><trkpt lat="43.0799397672276" lon="11.498450996167184"><ele>260.0</ele><time>2026-04-08T09:40:08Z</time></trkpt><trkpt lat="43.079976575422045" lon="11.498569402916154"><ele>262.0</ele><time>2026-04-08T09:40:09Z</time></trkpt><trkpt lat="43.08004074202336" lon="11.498677225203194"><ele>264.0</ele><time>2026-04-08T09:40:10Z</time></trkpt><trkpt lat="43.08012148076952" lon="11.49880528970499"><ele>266.0</ele><time>2026-04-08T09:40:11Z</time></trkpt><trkpt lat="43.08021706365564" lon="11.498946888112208"><ele>268.0</ele><time>2026-04-08T09:40:12Z</time></trkpt><trkpt lat="43.080302309142695" lon="11.499069629187453"><ele>268.0</ele><time>2026-04-08T09:40:13Z</time></trkpt><trkpt lat="43.08038855215233" lon="11.499193806546476"><ele>268.0</ele><time>2026-04-08T09:40:14Z</time></trkpt><trkpt lat="43.08047302974639" lon="11.499316536430102"><ele>268.0</ele><time>2026-04-08T09:40:15Z</time></trkpt><trkpt lat="43.080556740157796" lon="11.49944287313558"><ele>268.0</ele><time>2026-04-08T09:40:16Z</time></trkpt><trkpt lat="43.08063974255317" lon="11.49957219683123"><ele>268.0</ele><time>2026-04-08T09:40:17Z</time></trkpt><trkpt lat="43.08072438707395" lon="11.499706778689076"><ele>268.0</ele><time>2026-04-08T09:40:18Z</time></trkpt><trkpt lat="43.080824722734185" lon="11.499823429721655"><ele>268.0</ele><time>2026-04-08T09:40:19Z</time></trkpt><trkpt lat="43.08088558106813" lon="11.499945736632789"><ele>268.0</ele><time>2026-04-08T09:40:20Z</time></trkpt><trkpt lat="43.08096493551894" lon="11.500053878324993"><ele>268.0</ele><time>2026-04-08T09:40:21Z</time></trkpt><trkpt lat="43.08105373905444" lon="11.500155366375276"><ele>268.0</ele><time>2026-04-08T09:40:22Z</time></trkpt><trkpt lat="43.08113888486078" lon="11.50023773864413"><ele>268.0</ele><time>2026-04-08T09:40:23Z</time></trkpt><trkpt lat="43.08124205593775" lon="11.50027666972385"><ele>268.0</ele><time>2026-04-08T09:40:24Z</time></trkpt><trkpt lat="43.08134655283566" lon="11.500315120690537"><ele>268.0</ele><time>2026-04-08T09:40:25Z</time></trkpt><trkpt lat="43.08145908655381" lon="11.500340275635622"><ele>268.0</ele><time>2026-04-08T09:40:26Z</time></trkpt><trkpt lat="43.081580822449375" lon="11.500364855825895"><ele>268.0</ele><time>2026-04-08T09:40:27Z</time></trkpt><trkpt lat="43.081700312943546" lon="11.50039493688425"><ele>268.0</ele><time>2026-04-08T09:40:28Z</time></trkpt><trkpt lat="43.081823197759995" lon="11.500414442364706"><ele>268.0</ele><time>2026-04-08T09:40:29Z</time></trkpt><trkpt lat="43.081947847835806" lon="11.500448039552385"><ele>267.75</ele><time>2026-04-08T09:40:30Z</time></trkpt><trkpt lat="43.08206102009384" lon="11.500481143887857"><ele>267.5</ele><time>2026-04-08T09:40:31Z</time></trkpt><trkpt lat="43.08216881990799" lon="11.500516714847944"><ele>267.25</ele><time>2026-04-08T09:40:32Z</time></trkpt><trkpt lat="43.08228155384577" lon="11.500583040810447"><ele>267.0</ele><time>2026-04-08T09:40:33Z</time></trkpt><trkpt lat="43.08241160834012" lon="11.500643212527178"><ele>267.75</ele><time>2026-04-08T09:40:34Z</time></trkpt><trkpt lat="43.08255511209599" lon="11.500706186714579"><ele>268.5</ele><time>2026-04-08T09:40:35Z</time></trkpt><trkpt lat="43.08269829111742" lon="11.500779410698687"><ele>269.25</ele><time>2026-04-08T09:40:36Z</time></trkpt><trkpt lat="43.08282976827158" lon="11.500861238456046"><ele>270.0</ele><time>2026-04-08T09:40:37Z</time></trkpt><trkpt lat="43.08295846551196" lon="11.500937201524769"><ele>270.0</ele><time>2026-04-08T09:40:38Z</time></trkpt><trkpt lat="43.08310980106857" lon="11.500999913798356"><ele>270.0</ele><time>2026-04-08T09:40:38.999Z</time></trkpt><trkpt lat="43.083254401297395" lon="11.501087987046883"><ele>270.0</ele><time>2026-04-08T09:40:39.999Z</time></trkpt><trkpt lat="43.083374858221696" lon="11.501154029585038"><ele>270.0</ele><time>2026-04-08T09:40:40.999Z</time></trkpt><trkpt lat="43.08348884331934" lon="11.501218043477476"><ele>269.4</ele><time>2026-04-08T09:40:41.999Z</time></trkpt><trkpt lat="43.08359611798064" lon="11.501278653379067"><ele>268.8</ele><time>2026-04-08T09:40:42.999Z</time></trkpt><trkpt lat="43.08368998969658" lon="11.501339579682947"><ele>268.2</ele><time>2026-04-08T09:40:43.999Z</time></trkpt><trkpt lat="43.08378636609746" lon="11.501399073407143"><ele>267.6</ele><time>2026-04-08T09:40:44.999Z</time></trkpt><trkpt lat="43.083876813994124" lon="11.501453883260487"><ele>267.0</ele><time>2026-04-08T09:40:45.999Z</time></trkpt><trkpt lat="43.0839496018711" lon="11.50150084528054"><ele>267.00000000000006</ele><time>2026-04-08T09:40:46.999Z</time></trkpt><trkpt lat="43.084019546656215" lon="11.50154357300546"><ele>267.0</ele><time>2026-04-08T09:40:47.999Z</time></trkpt><trkpt lat="43.08407666174081" lon="11.501581651052401"><ele>267.0</ele><time>2026-04-08T09:40:48.999Z</time></trkpt><trkpt lat="43.08413572222958" lon="11.501613797934757"><ele>267.0</ele><time>2026-04-08T09:41:24Z</time></trkpt><trkpt lat="43.08420147767284" lon="11.501670342239056"><ele>267.0</ele><time>2026-04-08T09:41:26Z</time></trkpt><trkpt lat="43.084253775740095" lon="11.501718463076061"><ele>267.00000000000006</ele><time>2026-04-08T09:41:28Z</time></trkpt><trkpt lat="43.084243351146654" lon="11.501828758001846"><ele>267.0</ele><time>2026-04-08T09:41:29Z</time></trkpt><trkpt lat="43.08419644286137" lon="11.501961614738008"><ele>267.1666666666667</ele><time>2026-04-08T09:41:31Z</time></trkpt><trkpt lat="43.08417164396814" lon="11.502045295959649"><ele>267.3333333333333</ele><time>2026-04-08T09:41:32Z</time></trkpt><trkpt lat="43.08414166009215" lon="11.50214734217173"><ele>267.5</ele><time>2026-04-08T09:41:33Z</time></trkpt><trkpt lat="43.08411824167368" lon="11.502256525724505"><ele>267.66666666666663</ele><time>2026-04-08T09:41:34Z</time></trkpt><trkpt lat="43.08408332525244" lon="11.502373760930388"><ele>267.8333333333333</ele><time>2026-04-08T09:41:35Z</time></trkpt><trkpt lat="43.08403675390185" lon="11.502491854283583"><ele>268.0</ele><time>2026-04-08T09:41:36Z</time></trkpt><trkpt lat="43.08400575002965" lon="11.502637191733674"><ele>268.0</ele><time>2026-04-08T09:41:37Z</time></trkpt><trkpt lat="43.08399781046063" lon="11.502793125402968"><ele>268.0</ele><time>2026-04-08T09:41:38Z</time></trkpt><trkpt lat="43.084007159260246" lon="11.50294787006511"><ele>268.0</ele><time>2026-04-08T09:41:39Z</time></trkpt><trkpt lat="43.08404009042912" lon="11.503102302385722"><ele>268.0</ele><time>2026-04-08T09:41:40Z</time></trkpt><trkpt lat="43.08404436191223" lon="11.503260635082349"><ele>269.2</ele><time>2026-04-08T09:41:41Z</time></trkpt><trkpt lat="43.08404183104349" lon="11.503413854553116"><ele>270.4</ele><time>2026-04-08T09:41:42Z</time></trkpt><trkpt lat="43.08402659174996" lon="11.503554018543246"><ele>271.59999999999997</ele><time>2026-04-08T09:41:43Z</time></trkpt><trkpt lat="43.08399721069702" lon="11.503692098551376"><ele>272.8</ele><time>2026-04-08T09:41:44Z</time></trkpt><trkpt lat="43.083960688256795" lon="11.503818945323154"><ele>274.0</ele><time>2026-04-08T09:41:45Z</time></trkpt><trkpt lat="43.083918481104725" lon="11.503953806436053"><ele>275.0</ele><time>2026-04-08T09:41:46Z</time></trkpt><trkpt lat="43.08386088789335" lon="11.50408769177319"><ele>276.0</ele><time>2026-04-08T09:41:47Z</time></trkpt><trkpt lat="43.083799720890255" lon="11.50420129381151"><ele>277.0</ele><time>2026-04-08T09:41:48Z</time></trkpt><trkpt lat="43.08373367545282" lon="11.50425282012026"><ele>278.0</ele><time>2026-04-08T09:41:49Z</time></trkpt><trkpt lat="43.08367887662188" lon="11.504313685335037"><ele>279.0</ele><time>2026-04-08T09:41:50Z</time></trkpt><trkpt lat="43.083592446629076" lon="11.504297669527807"><ele>279.0</ele><time>2026-04-08T09:41:51Z</time></trkpt><trkpt lat="43.083513649216336" lon="11.504274845157779"><ele>279.0</ele><time>2026-04-08T09:41:52Z</time></trkpt><trkpt lat="43.08342250264382" lon="11.50425422050276"><ele>279.0</ele><time>2026-04-08T09:41:53Z</time></trkpt><trkpt lat="43.08332022464355" lon="11.504217183557412"><ele>279.0</ele><time>2026-04-08T09:41:54Z</time></trkpt><trkpt lat="43.083233029176974" lon="11.504198933276967"><ele>279.0</ele><time>2026-04-08T09:41:55Z</time></trkpt><trkpt lat="43.08315827335558" lon="11.50420981972952"><ele>279.0</ele><time>2026-04-08T09:41:56Z</time></trkpt><trkpt lat="43.08308633232951" lon="11.504190581901817"><ele>280.8</ele><time>2026-04-08T09:41:57Z</time></trkpt><trkpt lat="43.08300759621811" lon="11.504235276874175"><ele>282.59999999999997</ele><time>2026-04-08T09:41:58Z</time></trkpt><trkpt lat="43.08293481904906" lon="11.504317255958217"><ele>284.4</ele><time>2026-04-08T09:41:59Z</time></trkpt><trkpt lat="43.08288524773632" lon="11.5044275367093"><ele>286.2</ele><time>2026-04-08T09:42:00Z</time></trkpt><trkpt lat="43.0828277541864" lon="11.504541533387707"><ele>288.0</ele><time>2026-04-08T09:42:01Z</time></trkpt><trkpt lat="43.08276129617487" lon="11.504661552995902"><ele>289.25</ele><time>2026-04-08T09:42:02Z</time></trkpt><trkpt lat="43.08269224543006" lon="11.504792855465901"><ele>290.5</ele><time>2026-04-08T09:42:03Z</time></trkpt><trkpt lat="43.08260329216036" lon="11.504917016936929"><ele>291.75</ele><time>2026-04-08T09:42:04Z</time></trkpt><trkpt lat="43.082525840620015" lon="11.505078642226346"><ele>293.0</ele><time>2026-04-08T09:42:05Z</time></trkpt><trkpt lat="43.08245209396952" lon="11.505205062232301"><ele>293.2</ele><time>2026-04-08T09:42:06Z</time></trkpt><trkpt lat="43.08237818098769" lon="11.50531732178833"><ele>293.4</ele><time>2026-04-08T09:42:07Z</time></trkpt><trkpt lat="43.08230272117562" lon="11.505450931255057"><ele>293.59999999999997</ele><time>2026-04-08T09:42:08Z</time></trkpt><trkpt lat="43.08223638301746" lon="11.505565615544949"><ele>293.8</ele><time>2026-04-08T09:42:09Z</time></trkpt><trkpt lat="43.082173956873135" lon="11.505670742271432"><ele>294.0</ele><time>2026-04-08T09:42:10Z</time></trkpt><trkpt lat="43.08210312659151" lon="11.505784314247801"><ele>295.2</ele><time>2026-04-08T09:42:11Z</time></trkpt><trkpt lat="43.08202745182849" lon="11.505913863271381"><ele>296.4</ele><time>2026-04-08T09:42:12Z</time></trkpt><trkpt lat="43.08195160515877" lon="11.506044937270717"><ele>297.6</ele><time>2026-04-08T09:42:13Z</time></trkpt><trkpt lat="43.08188608379776" lon="11.506156375400606"><ele>298.8</ele><time>2026-04-08T09:42:14Z</time></trkpt><trkpt lat="43.081827430662486" lon="11.506259035917434"><ele>300.0</ele><time>2026-04-08T09:42:15Z</time></trkpt><trkpt lat="43.08176727430728" lon="11.506372951943373"><ele>300.0</ele><time>2026-04-08T09:42:16Z</time></trkpt><trkpt lat="43.08169589417459" lon="11.50649708436002"><ele>300.0</ele><time>2026-04-08T09:42:17Z</time></trkpt><trkpt lat="43.08161430230313" lon="11.506628646371723"><ele>300.0</ele><time>2026-04-08T09:42:18Z</time></trkpt><trkpt lat="43.08153194515953" lon="11.506769217244647"><ele>300.0</ele><time>2026-04-08T09:42:19Z</time></trkpt><trkpt lat="43.081442135287034" lon="11.506924295153498"><ele>301.75</ele><time>2026-04-08T09:42:20Z</time></trkpt><trkpt lat="43.08134833272814" lon="11.507086732181351"><ele>303.5</ele><time>2026-04-08T09:42:21Z</time></trkpt><trkpt lat="43.08123472741325" lon="11.50723253863299"><ele>305.25</ele><time>2026-04-08T09:42:22Z</time></trkpt><trkpt lat="43.081152613004626" lon="11.507373047555097"><ele>307.0</ele><time>2026-04-08T09:42:23Z</time></trkpt><trkpt lat="43.0810890377248" lon="11.507515066592191"><ele>307.0</ele><time>2026-04-08T09:42:24Z</time></trkpt><trkpt lat="43.08100579760595" lon="11.507662056317624"><ele>307.0</ele><time>2026-04-08T09:42:25Z</time></trkpt><trkpt lat="43.080911227830526" lon="11.507814676435736"><ele>307.0</ele><time>2026-04-08T09:42:26Z</time></trkpt><trkpt lat="43.08082813155455" lon="11.50796672627227"><ele>307.0</ele><time>2026-04-08T09:42:27Z</time></trkpt><trkpt lat="43.08074104327841" lon="11.508104834251945"><ele>307.0</ele><time>2026-04-08T09:42:28Z</time></trkpt><trkpt lat="43.08065114186706" lon="11.50826222451425"><ele>307.0</ele><time>2026-04-08T09:42:29Z</time></trkpt><trkpt lat="43.080558517674454" lon="11.508418868940531"><ele>307.0</ele><time>2026-04-08T09:42:30Z</time></trkpt><trkpt lat="43.08048286737789" lon="11.508555520505398"><ele>307.0</ele><time>2026-04-08T09:42:31Z</time></trkpt><trkpt lat="43.08041195777976" lon="11.508696164514117"><ele>306.5</ele><time>2026-04-08T09:42:32Z</time></trkpt><trkpt lat="43.08035207841326" lon="11.508823546498588"><ele>306.0</ele><time>2026-04-08T09:42:33Z</time></trkpt><trkpt lat="43.08029108931099" lon="11.508958648409159"><ele>305.5</ele><time>2026-04-08T09:42:34Z</time></trkpt><trkpt lat="43.080230553103334" lon="11.50909899784946"><ele>305.0</ele><time>2026-04-08T09:42:35Z</time></trkpt><trkpt lat="43.080167861926846" lon="11.509225099633479"><ele>305.0</ele><time>2026-04-08T09:42:36Z</time></trkpt><trkpt lat="43.08011564946348" lon="11.509350326875204"><ele>305.0</ele><time>2026-04-08T09:42:37Z</time></trkpt><trkpt lat="43.08005890095837" lon="11.509484516410039"><ele>305.0</ele><time>2026-04-08T09:42:38Z</time></trkpt><trkpt lat="43.07999411893476" lon="11.509619666723028"><ele>305.0</ele><time>2026-04-08T09:42:39Z</time></trkpt><trkpt lat="43.07994451750821" lon="11.509767804522841"><ele>303.6</ele><time>2026-04-08T09:42:40Z</time></trkpt><trkpt lat="43.079912276825134" lon="11.509891461515029"><ele>302.2</ele><time>2026-04-08T09:42:41Z</time></trkpt><trkpt lat="43.07989033046096" lon="11.510020503508544"><ele>300.8</ele><time>2026-04-08T09:42:42Z</time></trkpt><trkpt lat="43.07987567055602" lon="11.510163278610477"><ele>299.4</ele><time>2026-04-08T09:42:43Z</time></trkpt><trkpt lat="43.079877425123925" lon="11.510327364157305"><ele>298.0</ele><time>2026-04-08T09:42:44Z</time></trkpt><trkpt lat="43.07989225327817" lon="11.510503280901528"><ele>297.75</ele><time>2026-04-08T09:42:45Z</time></trkpt><trkpt lat="43.07990816141079" lon="11.51066043974125"><ele>297.5</ele><time>2026-04-08T09:42:46Z</time></trkpt><trkpt lat="43.07990753775715" lon="11.510806933936372"><ele>297.25</ele><time>2026-04-08T09:42:47Z</time></trkpt><trkpt lat="43.07993210617223" lon="11.510967169800972"><ele>297.0</ele><time>2026-04-08T09:42:48Z</time></trkpt><trkpt lat="43.079946160064814" lon="11.511138680053847"><ele>300.25</ele><time>2026-04-08T09:42:49Z</time></trkpt><trkpt lat="43.07995909219797" lon="11.511291993574218"><ele>303.5</ele><time>2026-04-08T09:42:50Z</time></trkpt><trkpt lat="43.07999695564497" lon="11.51142624250965"><ele>306.75</ele><time>2026-04-08T09:42:51Z</time></trkpt><trkpt lat="43.0800482554072" lon="11.51156520487625"><ele>310.0</ele><time>2026-04-08T09:42:52Z</time></trkpt><trkpt lat="43.08011739194056" lon="11.51170049345007"><ele>310.0</ele><time>2026-04-08T09:42:53Z</time></trkpt><trkpt lat="43.080196767408225" lon="11.511843834834645"><ele>310.0</ele><time>2026-04-08T09:42:54Z</time></trkpt><trkpt lat="43.0802823824936" lon="11.511988870421078"><ele>310.0</ele><time>2026-04-08T09:42:55Z</time></trkpt><trkpt lat="43.08037201865407" lon="11.512139049759709"><ele>310.0</ele><time>2026-04-08T09:42:56Z</time></trkpt><trkpt lat="43.080440954193584" lon="11.512268978341439"><ele>310.5</ele><time>2026-04-08T09:42:57Z</time></trkpt><trkpt lat="43.08051026035403" lon="11.512398085702683"><ele>311.0</ele><time>2026-04-08T09:42:58Z</time></trkpt><trkpt lat="43.080584423854745" lon="11.512530075880244"><ele>311.5</ele><time>2026-04-08T09:42:59Z</time></trkpt><trkpt lat="43.080656668357356" lon="11.512667377562313"><ele>312.0</ele><time>2026-04-08T09:43:00Z</time></trkpt><trkpt lat="43.08072972079029" lon="11.51280174688062"><ele>314.4</ele><time>2026-04-08T09:43:01Z</time></trkpt><trkpt lat="43.080790992014414" lon="11.512933465660286"><ele>316.79999999999995</ele><time>2026-04-08T09:43:02Z</time></trkpt><trkpt lat="43.08086108225127" lon="11.513032905347966"><ele>319.2</ele><time>2026-04-08T09:43:03Z</time></trkpt><trkpt lat="43.08093673337696" lon="11.51312321283511"><ele>321.59999999999997</ele><time>2026-04-08T09:43:04Z</time></trkpt><trkpt lat="43.081011160102165" lon="11.513207993899803"><ele>324.0</ele><time>2026-04-08T09:43:05Z</time></trkpt><trkpt lat="43.0811052892467" lon="11.513238482936673"><ele>324.0</ele><time>2026-04-08T09:43:06Z</time></trkpt><trkpt lat="43.0812079036851" lon="11.513221281806969"><ele>324.0</ele><time>2026-04-08T09:43:07Z</time></trkpt><trkpt lat="43.081311904885574" lon="11.51320578053925"><ele>324.0</ele><time>2026-04-08T09:43:08Z</time></trkpt><trkpt lat="43.0814000640265" lon="11.513190756309465"><ele>324.0</ele><time>2026-04-08T09:43:09Z</time></trkpt><trkpt lat="43.08148439505998" lon="11.51318878137611"><ele>324.0</ele><time>2026-04-08T09:43:10Z</time></trkpt><trkpt lat="43.08156800713088" lon="11.513218108458597"><ele>324.6</ele><time>2026-04-08T09:43:11Z</time></trkpt><trkpt lat="43.08164769663957" lon="11.513270020177808"><ele>325.2</ele><time>2026-04-08T09:43:12Z</time></trkpt><trkpt lat="43.0817258789805" lon="11.513348709878862"><ele>325.8</ele><time>2026-04-08T09:43:13Z</time></trkpt><trkpt lat="43.081803509058346" lon="11.513443972653358"><ele>326.40000000000003</ele><time>2026-04-08T09:43:14Z</time></trkpt><trkpt lat="43.08187828645085" lon="11.51354990697936"><ele>327.0</ele><time>2026-04-08T09:43:15Z</time></trkpt><trkpt lat="43.08195927273701" lon="11.51367053060762"><ele>327.25</ele><time>2026-04-08T09:43:16Z</time></trkpt><trkpt lat="43.08204521970113" lon="11.513801107671856"><ele>327.5</ele><time>2026-04-08T09:43:17Z</time></trkpt><trkpt lat="43.082132722444626" lon="11.513925177739814"><ele>327.75</ele><time>2026-04-08T09:43:18Z</time></trkpt><trkpt lat="43.08220678118001" lon="11.514040053470932"><ele>328.0</ele><time>2026-04-08T09:43:19Z</time></trkpt><trkpt lat="43.08229084028766" lon="11.514154040557113"><ele>328.0</ele><time>2026-04-08T09:43:20Z</time></trkpt><trkpt lat="43.08237134694418" lon="11.514253902669088"><ele>328.0</ele><time>2026-04-08T09:43:21Z</time></trkpt><trkpt lat="43.08246251087509" lon="11.514348010617574"><ele>328.0</ele><time>2026-04-08T09:43:22Z</time></trkpt><trkpt lat="43.08256158212857" lon="11.514442638089267"><ele>328.0</ele><time>2026-04-08T09:43:22.999Z</time></trkpt><trkpt lat="43.08266729963653" lon="11.5145271906433"><ele>327.75</ele><time>2026-04-08T09:43:23.999Z</time></trkpt><trkpt lat="43.082775843310934" lon="11.514619721241754"><ele>327.5</ele><time>2026-04-08T09:43:24.999Z</time></trkpt><trkpt lat="43.08287561050934" lon="11.514709043294317"><ele>327.25</ele><time>2026-04-08T09:43:25.999Z</time></trkpt><trkpt lat="43.08297051451117" lon="11.514789575958691"><ele>327.0</ele><time>2026-04-08T09:43:26.999Z</time></trkpt><trkpt lat="43.08305469121617" lon="11.514866785246463"><ele>327.0</ele><time>2026-04-08T09:43:27.999Z</time></trkpt><trkpt lat="43.08316413082648" lon="11.51492274134704"><ele>327.0</ele><time>2026-04-08T09:43:28.999Z</time></trkpt><trkpt lat="43.083266709775515" lon="11.514969052258778"><ele>327.0</ele><time>2026-04-08T09:43:29.999Z</time></trkpt><trkpt lat="43.083372270343276" lon="11.51501517637528"><ele>327.0</ele><time>2026-04-08T09:43:30.999Z</time></trkpt><trkpt lat="43.08346839479095" lon="11.515044804594183"><ele>327.0</ele><time>2026-04-08T09:43:31.999Z</time></trkpt><trkpt lat="43.083562769394376" lon="11.515063251506577"><ele>326.5</ele><time>2026-04-08T09:43:32.999Z</time></trkpt><trkpt lat="43.083650629799166" lon="11.515083081540586"><ele>326.0</ele><time>2026-04-08T09:43:33.999Z</time></trkpt><trkpt lat="43.08374163801536" lon="11.515094742527815"><ele>325.5</ele><time>2026-04-08T09:43:35Z</time></trkpt><trkpt lat="43.083828119295646" lon="11.51509071982607"><ele>325.0</ele><time>2026-04-08T09:43:36Z</time></trkpt><trkpt lat="43.08391530189047" lon="11.515101635075778"><ele>324.5</ele><time>2026-04-08T09:43:37Z</time></trkpt><trkpt lat="43.08400092352448" lon="11.515072251223266"><ele>324.0</ele><time>2026-04-08T09:43:38Z</time></trkpt><trkpt lat="43.08407848287764" lon="11.51502277799216"><ele>323.4</ele><time>2026-04-08T09:43:39Z</time></trkpt><trkpt lat="43.084149915062135" lon="11.514939717689215"><ele>322.79999999999995</ele><time>2026-04-08T09:43:40Z</time></trkpt><trkpt lat="43.08424417109524" lon="11.514881941628659"><ele>322.20000000000005</ele><time>2026-04-08T09:43:41Z</time></trkpt><trkpt lat="43.08434662161892" lon="11.514842860823778"><ele>321.6</ele><time>2026-04-08T09:43:42Z</time></trkpt><trkpt lat="43.08445267338905" lon="11.514853416715011"><ele>321.0</ele><time>2026-04-08T09:43:43Z</time></trkpt><trkpt lat="43.08456563061434" lon="11.514857785976007"><ele>321.0</ele><time>2026-04-08T09:43:44Z</time></trkpt><trkpt lat="43.08467668750461" lon="11.514848828536971"><ele>321.0</ele><time>2026-04-08T09:43:45Z</time></trkpt><trkpt lat="43.08478645983554" lon="11.514848753341731"><ele>321.0</ele><time>2026-04-08T09:43:46Z</time></trkpt><trkpt lat="43.084891941778096" lon="11.514854084319188"><ele>321.0</ele><time>2026-04-08T09:43:47Z</time></trkpt><trkpt lat="43.085001896051295" lon="11.514855765690374"><ele>321.0</ele><time>2026-04-08T09:43:48Z</time></trkpt><trkpt lat="43.08510450029352" lon="11.514856071114744"><ele>320.2</ele><time>2026-04-08T09:43:49Z</time></trkpt><trkpt lat="43.08519312470971" lon="11.51486269647602"><ele>319.40000000000003</ele><time>2026-04-08T09:43:50Z</time></trkpt><trkpt lat="43.08527840752543" lon="11.514878413871875"><ele>318.6</ele><time>2026-04-08T09:43:51Z</time></trkpt><trkpt lat="43.085360113902006" lon="11.51490531143673"><ele>317.8</ele><time>2026-04-08T09:43:52Z</time></trkpt><trkpt lat="43.085452031492984" lon="11.514947628994259"><ele>317.0</ele><time>2026-04-08T09:43:53Z</time></trkpt><trkpt lat="43.08553818809084" lon="11.515005989425758"><ele>317.0</ele><time>2026-04-08T09:43:54Z</time></trkpt><trkpt lat="43.08562365397588" lon="11.515088276871875"><ele>317.0</ele><time>2026-04-08T09:43:55Z</time></trkpt><trkpt lat="43.08568109049687" lon="11.515209190136"><ele>317.0</ele><time>2026-04-08T09:43:56Z</time></trkpt><trkpt lat="43.08574895960056" lon="11.51533137542943"><ele>317.0</ele><time>2026-04-08T09:43:57Z</time></trkpt><trkpt lat="43.08582098992051" lon="11.515437850764313"><ele>317.0</ele><time>2026-04-08T09:43:58Z</time></trkpt><trkpt lat="43.085883086589234" lon="11.515514949347223"><ele>316.0</ele><time>2026-04-08T09:43:59Z</time></trkpt><trkpt lat="43.085955579573216" lon="11.515583436961768"><ele>315.0</ele><time>2026-04-08T09:44:00Z</time></trkpt><trkpt lat="43.08604436579162" lon="11.515622783218932"><ele>314.0</ele><time>2026-04-08T09:44:01Z</time></trkpt><trkpt lat="43.08612498031133" lon="11.515689084203519"><ele>313.0</ele><time>2026-04-08T09:44:02Z</time></trkpt><trkpt lat="43.086200105496765" lon="11.515751044448418"><ele>312.0</ele><time>2026-04-08T09:44:03Z</time></trkpt><trkpt lat="43.08626069337741" lon="11.515854272607992"><ele>312.0</ele><time>2026-04-08T09:44:04Z</time></trkpt><trkpt lat="43.086327187158616" lon="11.515964557128253"><ele>312.0</ele><time>2026-04-08T09:44:05Z</time></trkpt><trkpt lat="43.086389270575935" lon="11.516071458476086"><ele>312.0</ele><time>2026-04-08T09:44:06Z</time></trkpt><trkpt lat="43.086443117524006" lon="11.516172019001566"><ele>312.0</ele><time>2026-04-08T09:44:07Z</time></trkpt><trkpt lat="43.086505066709385" lon="11.516274591194469"><ele>312.0</ele><time>2026-04-08T09:44:08Z</time></trkpt><trkpt lat="43.086548658625745" lon="11.516408175501732"><ele>310.0</ele><time>2026-04-08T09:44:09Z</time></trkpt><trkpt lat="43.08657034980171" lon="11.516562251728576"><ele>308.0</ele><time>2026-04-08T09:44:10Z</time></trkpt><trkpt lat="43.08655280615853" lon="11.516723682946829"><ele>306.0</ele><time>2026-04-08T09:44:11Z</time></trkpt><trkpt lat="43.08653748819433" lon="11.516899711043338"><ele>304.0</ele><time>2026-04-08T09:44:12Z</time></trkpt><trkpt lat="43.086518326619064" lon="11.51709386011718"><ele>302.75</ele><time>2026-04-08T09:44:13Z</time></trkpt><trkpt lat="43.08649765908999" lon="11.517306515223321"><ele>301.5</ele><time>2026-04-08T09:44:14Z</time></trkpt><trkpt lat="43.086480528252075" lon="11.517504130818145"><ele>300.25</ele><time>2026-04-08T09:44:15Z</time></trkpt><trkpt lat="43.08647954318952" lon="11.51768343481406"><ele>299.0</ele><time>2026-04-08T09:44:16Z</time></trkpt><trkpt lat="43.08646361925471" lon="11.51785465930903"><ele>298.25</ele><time>2026-04-08T09:44:17Z</time></trkpt><trkpt lat="43.08644658584842" lon="11.518035645103856"><ele>297.5</ele><time>2026-04-08T09:44:18Z</time></trkpt><trkpt lat="43.08642807515895" lon="11.518238349457526"><ele>296.75</ele><time>2026-04-08T09:44:19Z</time></trkpt><trkpt lat="43.08640758048523" lon="11.518454877382236"><ele>296.0</ele><time>2026-04-08T09:44:20Z</time></trkpt><trkpt lat="43.08639094395375" lon="11.518657238068572"><ele>295.5</ele><time>2026-04-08T09:44:21Z</time></trkpt><trkpt lat="43.08636651486944" lon="11.518842481848715"><ele>295.0</ele><time>2026-04-08T09:44:22Z</time></trkpt><trkpt lat="43.08634490862608" lon="11.519030815588545"><ele>294.5</ele><time>2026-04-08T09:44:23Z</time></trkpt><trkpt lat="43.08632356469728" lon="11.519226465570254"><ele>294.0</ele><time>2026-04-08T09:44:24Z</time></trkpt><trkpt lat="43.08630291762028" lon="11.519427773339965"><ele>294.5</ele><time>2026-04-08T09:44:25Z</time></trkpt><trkpt lat="43.08628153912574" lon="11.519614754572595"><ele>295.0</ele><time>2026-04-08T09:44:26Z</time></trkpt><trkpt lat="43.086262285279076" lon="11.519788968096377"><ele>295.5</ele><time>2026-04-08T09:44:27Z</time></trkpt><trkpt lat="43.08624347214022" lon="11.519960026392832"><ele>296.0</ele><time>2026-04-08T09:44:28Z</time></trkpt><trkpt lat="43.08622369924109" lon="11.520145524637215"><ele>296.0</ele><time>2026-04-08T09:44:29Z</time></trkpt><trkpt lat="43.08619407454676" lon="11.520325633250907"><ele>296.0</ele><time>2026-04-08T09:44:30Z</time></trkpt><trkpt lat="43.08615158057338" lon="11.520481379915855"><ele>296.0</ele><time>2026-04-08T09:44:31Z</time></trkpt><trkpt lat="43.08610837617236" lon="11.520621663571456"><ele>296.0</ele><time>2026-04-08T09:44:32Z</time></trkpt><trkpt lat="43.08605317049868" lon="11.520749639082501"><ele>295.5</ele><time>2026-04-08T09:44:33Z</time></trkpt><trkpt lat="43.0859815527789" lon="11.520883314139295"><ele>295.0</ele><time>2026-04-08T09:44:34Z</time></trkpt><trkpt lat="43.08589510953991" lon="11.521022679222263"><ele>294.5</ele><time>2026-04-08T09:44:35Z</time></trkpt><trkpt lat="43.085802703278304" lon="11.521135691038118"><ele>294.0</ele><time>2026-04-08T09:44:36Z</time></trkpt><trkpt lat="43.0856987946854" lon="11.521230450950926"><ele>295.0</ele><time>2026-04-08T09:44:37Z</time></trkpt><trkpt lat="43.085587398483256" lon="11.52132370864487"><ele>296.0</ele><time>2026-04-08T09:44:38Z</time></trkpt><trkpt lat="43.085461965649344" lon="11.521411239044797"><ele>297.0</ele><time>2026-04-08T09:44:39Z</time></trkpt><trkpt lat="43.08532535114302" lon="11.521482678981783"><ele>298.0</ele><time>2026-04-08T09:44:40Z</time></trkpt><trkpt lat="43.08518876436571" lon="11.521541675208319"><ele>298.0</ele><time>2026-04-08T09:44:41Z</time></trkpt><trkpt lat="43.085043152095025" lon="11.521593054009239"><ele>298.0</ele><time>2026-04-08T09:44:42Z</time></trkpt><trkpt lat="43.084902688731184" lon="11.521637531653994"><ele>298.0</ele><time>2026-04-08T09:44:43Z</time></trkpt><trkpt lat="43.084773557899815" lon="11.521690172212734"><ele>298.0</ele><time>2026-04-08T09:44:44Z</time></trkpt><trkpt lat="43.08464247411456" lon="11.521752077343633"><ele>297.25</ele><time>2026-04-08T09:44:45Z</time></trkpt><trkpt lat="43.08450730938754" lon="11.521815595810862"><ele>296.5</ele><time>2026-04-08T09:44:46Z</time></trkpt><trkpt lat="43.08437997844077" lon="11.521877196004978"><ele>295.75</ele><time>2026-04-08T09:44:47Z</time></trkpt><trkpt lat="43.08426657822709" lon="11.521938807609674"><ele>295.0</ele><time>2026-04-08T09:44:48Z</time></trkpt><trkpt lat="43.084138284257584" lon="11.521997776272102"><ele>294.5</ele><time>2026-04-08T09:44:49Z</time></trkpt><trkpt lat="43.08402206505743" lon="11.522061412079292"><ele>294.0</ele><time>2026-04-08T09:44:50Z</time></trkpt><trkpt lat="43.08391662454344" lon="11.5221183489217"><ele>293.5</ele><time>2026-04-08T09:44:51Z</time></trkpt><trkpt lat="43.0838116603815" lon="11.52218453148419"><ele>293.0</ele><time>2026-04-08T09:44:52Z</time></trkpt><trkpt lat="43.08369623128977" lon="11.522248363294958"><ele>294.5</ele><time>2026-04-08T09:44:53Z</time></trkpt><trkpt lat="43.08359477849207" lon="11.522361087592978"><ele>296.0</ele><time>2026-04-08T09:44:54Z</time></trkpt><trkpt lat="43.08350804083447" lon="11.522494415014133"><ele>297.5</ele><time>2026-04-08T09:44:55Z</time></trkpt><trkpt lat="43.083460042795245" lon="11.522673876300159"><ele>299.0</ele><time>2026-04-08T09:44:56Z</time></trkpt><trkpt lat="43.08341034371837" lon="11.522852119556502"><ele>299.0</ele><time>2026-04-08T09:44:57Z</time></trkpt><trkpt lat="43.08334680740386" lon="11.523035234613358"><ele>299.0</ele><time>2026-04-08T09:44:58Z</time></trkpt><trkpt lat="43.0833141961061" lon="11.523242795384414"><ele>299.0</ele><time>2026-04-08T09:44:59Z</time></trkpt><trkpt lat="43.08327611780719" lon="11.523423383932062"><ele>299.0</ele><time>2026-04-08T09:45:00Z</time></trkpt><trkpt lat="43.08324878671566" lon="11.523577537422494"><ele>299.33333333333337</ele><time>2026-04-08T09:45:01Z</time></trkpt><trkpt lat="43.08322671735265" lon="11.523695804814436"><ele>299.6666666666667</ele><time>2026-04-08T09:45:02Z</time></trkpt><trkpt lat="43.08319889011342" lon="11.523794340997098"><ele>300.0</ele><time>2026-04-08T09:45:03Z</time></trkpt><trkpt lat="43.083159459595706" lon="11.523880191541235"><ele>300.3333333333333</ele><time>2026-04-08T09:45:04Z</time></trkpt><trkpt lat="43.08311491642179" lon="11.52396180055921"><ele>300.66666666666663</ele><time>2026-04-08T09:45:05Z</time></trkpt><trkpt lat="43.083051054052966" lon="11.524046758862362"><ele>301.0</ele><time>2026-04-08T09:45:06Z</time></trkpt><trkpt lat="43.08295402054919" lon="11.524102636944432"><ele>300.0</ele><time>2026-04-08T09:45:07Z</time></trkpt><trkpt lat="43.08283837284286" lon="11.524157177561781"><ele>299.0</ele><time>2026-04-08T09:45:08Z</time></trkpt><trkpt lat="43.08272343630795" lon="11.524240203235669"><ele>298.0</ele><time>2026-04-08T09:45:09Z</time></trkpt><trkpt lat="43.08262193861428" lon="11.524297574499208"><ele>297.0</ele><time>2026-04-08T09:45:10Z</time></trkpt><trkpt lat="43.08251868275203" lon="11.524340056577147"><ele>295.75</ele><time>2026-04-08T09:45:11Z</time></trkpt><trkpt lat="43.082417845147084" lon="11.524422450709327"><ele>294.5</ele><time>2026-04-08T09:45:12Z</time></trkpt><trkpt lat="43.082318949967494" lon="11.52455676884712"><ele>293.25</ele><time>2026-04-08T09:45:13Z</time></trkpt><trkpt lat="43.08220576508048" lon="11.524689262027268"><ele>292.0</ele><time>2026-04-08T09:45:14Z</time></trkpt><trkpt lat="43.08208971428125" lon="11.524834163305897"><ele>292.0</ele><time>2026-04-08T09:45:15Z</time></trkpt><trkpt lat="43.081966222339126" lon="11.52499912409064"><ele>292.0</ele><time>2026-04-08T09:45:16Z</time></trkpt><trkpt lat="43.08184472167178" lon="11.525155676711927"><ele>292.0</ele><time>2026-04-08T09:45:17Z</time></trkpt><trkpt lat="43.08173184432422" lon="11.525269026226354"><ele>292.0</ele><time>2026-04-08T09:45:18Z</time></trkpt><trkpt lat="43.081635306721914" lon="11.52539066127449"><ele>292.0</ele><time>2026-04-08T09:45:19Z</time></trkpt><trkpt lat="43.08154267043449" lon="11.525520385958172"><ele>292.0</ele><time>2026-04-08T09:45:20Z</time></trkpt><trkpt lat="43.081461438850305" lon="11.525657276981258"><ele>292.0</ele><time>2026-04-08T09:45:21Z</time></trkpt><trkpt lat="43.08139993842698" lon="11.52582968851103"><ele>292.25</ele><time>2026-04-08T09:45:22Z</time></trkpt><trkpt lat="43.081321570575504" lon="11.526000288517663"><ele>292.5</ele><time>2026-04-08T09:45:23Z</time></trkpt><trkpt lat="43.08124920524959" lon="11.526185660112025"><ele>292.75</ele><time>2026-04-08T09:45:24Z</time></trkpt><trkpt lat="43.08118749425197" lon="11.526367474530174"><ele>293.0</ele><time>2026-04-08T09:45:25Z</time></trkpt><trkpt lat="43.08110034784897" lon="11.526543964493637"><ele>294.0</ele><time>2026-04-08T09:45:26Z</time></trkpt><trkpt lat="43.081026237110976" lon="11.52673636270286"><ele>295.0</ele><time>2026-04-08T09:45:27Z</time></trkpt><trkpt lat="43.08095610759649" lon="11.526914467012348"><ele>296.0</ele><time>2026-04-08T09:45:28Z</time></trkpt><trkpt lat="43.080882234166076" lon="11.527100500115402"><ele>296.6666666666667</ele><time>2026-04-08T09:45:29Z</time></trkpt><trkpt lat="43.08081119936209" lon="11.527287200201924"><ele>297.3333333333333</ele><time>2026-04-08T09:45:30Z</time></trkpt><trkpt lat="43.080749313747894" lon="11.527492356006002"><ele>298.0</ele><time>2026-04-08T09:45:31Z</time></trkpt><trkpt lat="43.08067341699318" lon="11.527688402978121"><ele>301.3333333333333</ele><time>2026-04-08T09:45:32Z</time></trkpt><trkpt lat="43.080595934297264" lon="11.527883060228714"><ele>304.6666666666667</ele><time>2026-04-08T09:45:33Z</time></trkpt><trkpt lat="43.0805197609942" lon="11.528077972142576"><ele>308.0</ele><time>2026-04-08T09:45:34Z</time></trkpt><trkpt lat="43.08044425489626" lon="11.528274718658661"><ele>308.25</ele><time>2026-04-08T09:45:35Z</time></trkpt><trkpt lat="43.08035890245763" lon="11.528441444743851"><ele>308.5</ele><time>2026-04-08T09:45:36Z</time></trkpt><trkpt lat="43.08029893240789" lon="11.528599588891561"><ele>308.75</ele><time>2026-04-08T09:45:37Z</time></trkpt><trkpt lat="43.08023800238494" lon="11.52876716481572"><ele>309.0</ele><time>2026-04-08T09:45:38Z</time></trkpt><trkpt lat="43.08019383277626" lon="11.528958931065027"><ele>309.0</ele><time>2026-04-08T09:45:39Z</time></trkpt><trkpt lat="43.080133800456736" lon="11.529157016949409"><ele>309.0</ele><time>2026-04-08T09:45:40Z</time></trkpt><trkpt lat="43.08007855975556" lon="11.529351547516661"><ele>309.0</ele><time>2026-04-08T09:45:41Z</time></trkpt><trkpt lat="43.080048892073044" lon="11.52951837255071"><ele>309.0</ele><time>2026-04-08T09:45:42Z</time></trkpt><trkpt lat="43.07999939684871" lon="11.529669889854658"><ele>308.25</ele><time>2026-04-08T09:45:43Z</time></trkpt><trkpt lat="43.07997070198869" lon="11.529842616390775"><ele>307.5</ele><time>2026-04-08T09:45:44Z</time></trkpt><trkpt lat="43.079984245500306" lon="11.530028100042164"><ele>306.75</ele><time>2026-04-08T09:45:45Z</time></trkpt><trkpt lat="43.079979921956806" lon="11.53021481434245"><ele>306.0</ele><time>2026-04-08T09:45:46Z</time></trkpt><trkpt lat="43.079982639620326" lon="11.530401813783344"><ele>304.5</ele><time>2026-04-08T09:45:47Z</time></trkpt><trkpt lat="43.07999272260139" lon="11.5305689869533"><ele>303.0</ele><time>2026-04-08T09:45:48Z</time></trkpt><trkpt lat="43.079995785482126" lon="11.530732181265236"><ele>301.5</ele><time>2026-04-08T09:45:49Z</time></trkpt><trkpt lat="43.07999168639945" lon="11.530893956082897"><ele>300.0</ele><time>2026-04-08T09:45:50Z</time></trkpt><trkpt lat="43.079979365753914" lon="11.531070476482776"><ele>299.25</ele><time>2026-04-08T09:45:51Z</time></trkpt><trkpt lat="43.07995276996688" lon="11.531258538906062"><ele>298.5</ele><time>2026-04-08T09:45:52Z</time></trkpt><trkpt lat="43.079908226395524" lon="11.531451469179"><ele>297.75</ele><time>2026-04-08T09:45:53Z</time></trkpt><trkpt lat="43.07985164365833" lon="11.531632991422311"><ele>297.0</ele><time>2026-04-08T09:45:54Z</time></trkpt><trkpt lat="43.07979184206257" lon="11.53180968626418"><ele>297.0</ele><time>2026-04-08T09:45:55Z</time></trkpt><trkpt lat="43.07972988986585" lon="11.531953915462402"><ele>297.0</ele><time>2026-04-08T09:45:56Z</time></trkpt><trkpt lat="43.079676739825636" lon="11.532094984431975"><ele>297.0</ele><time>2026-04-08T09:45:57Z</time></trkpt><trkpt lat="43.07963472092207" lon="11.532246338637242"><ele>297.0</ele><time>2026-04-08T09:45:58Z</time></trkpt><trkpt lat="43.079597610263576" lon="11.532374980706901"><ele>298.4</ele><time>2026-04-08T09:45:59Z</time></trkpt><trkpt lat="43.079618106493875" lon="11.532502973118726"><ele>299.79999999999995</ele><time>2026-04-08T09:46:00Z</time></trkpt><trkpt lat="43.07964216150515" lon="11.532619005393224"><ele>301.2</ele><time>2026-04-08T09:46:01Z</time></trkpt><trkpt lat="43.0796814055121" lon="11.532741564374465"><ele>302.59999999999997</ele><time>2026-04-08T09:46:02Z</time></trkpt><trkpt lat="43.07972383318415" lon="11.53286818872919"><ele>304.0</ele><time>2026-04-08T09:46:03Z</time></trkpt><trkpt lat="43.07975765212179" lon="11.532984245704638"><ele>305.3333333333333</ele><time>2026-04-08T09:46:04Z</time></trkpt><trkpt lat="43.079773373223745" lon="11.533116561804258"><ele>306.66666666666663</ele><time>2026-04-08T09:46:05Z</time></trkpt><trkpt lat="43.07979005639384" lon="11.533243678267358"><ele>308.0</ele><time>2026-04-08T09:46:06Z</time></trkpt><trkpt lat="43.07978866799961" lon="11.533365211702083"><ele>309.3333333333333</ele><time>2026-04-08T09:46:07Z</time></trkpt><trkpt lat="43.07977154730484" lon="11.53346868274467"><ele>310.6666666666667</ele><time>2026-04-08T09:46:08Z</time></trkpt><trkpt lat="43.0797573407208" lon="11.53358358427914"><ele>312.0</ele><time>2026-04-08T09:46:09Z</time></trkpt><trkpt lat="43.07971108551338" lon="11.533695410738204"><ele>312.8333333333333</ele><time>2026-04-08T09:46:10Z</time></trkpt><trkpt lat="43.079714778433406" lon="11.533827742676179"><ele>313.6666666666667</ele><time>2026-04-08T09:46:11Z</time></trkpt><trkpt lat="43.07971911760792" lon="11.533938236870576"><ele>314.5</ele><time>2026-04-08T09:46:12Z</time></trkpt><trkpt lat="43.07973328788877" lon="11.534033502435653"><ele>315.33333333333337</ele><time>2026-04-08T09:46:13Z</time></trkpt><trkpt lat="43.07975531809687" lon="11.53414591453738"><ele>316.1666666666667</ele><time>2026-04-08T09:46:14Z</time></trkpt><trkpt lat="43.079779015529496" lon="11.534280502902522"><ele>317.0</ele><time>2026-04-08T09:46:15Z</time></trkpt><trkpt lat="43.07980924655638" lon="11.534425300934496"><ele>317.4</ele><time>2026-04-08T09:46:16Z</time></trkpt><trkpt lat="43.07983998593383" lon="11.534567583609283"><ele>317.79999999999995</ele><time>2026-04-08T09:46:17Z</time></trkpt><trkpt lat="43.07986909783247" lon="11.534715515130669"><ele>318.2</ele><time>2026-04-08T09:46:18Z</time></trkpt><trkpt lat="43.079914797402644" lon="11.534843522636956"><ele>318.59999999999997</ele><time>2026-04-08T09:46:19Z</time></trkpt><trkpt lat="43.079977548392804" lon="11.534934993196106"><ele>319.0</ele><time>2026-04-08T09:46:20Z</time></trkpt><trkpt lat="43.080032134569926" lon="11.535019672299589"><ele>317.8571428571429</ele><time>2026-04-08T09:46:21Z</time></trkpt><trkpt lat="43.080084631945596" lon="11.535092474072215"><ele>316.71428571428567</ele><time>2026-04-08T09:46:22Z</time></trkpt><trkpt lat="43.08013322574943" lon="11.53515014924593"><ele>315.57142857142856</ele><time>2026-04-08T09:46:23Z</time></trkpt><trkpt lat="43.08017326300566" lon="11.535218159818704"><ele>314.42857142857144</ele><time>2026-04-08T09:46:24Z</time></trkpt><trkpt lat="43.08020644361933" lon="11.535291691650002"><ele>313.28571428571433</ele><time>2026-04-08T09:46:25Z</time></trkpt><trkpt lat="43.080236011784706" lon="11.535371127324927"><ele>312.1428571428571</ele><time>2026-04-08T09:46:26Z</time></trkpt><trkpt lat="43.08025799968258" lon="11.535471511418653"><ele>311.0</ele><time>2026-04-08T09:46:27Z</time></trkpt><trkpt lat="43.08026478420177" lon="11.535584224813707"><ele>310.33333333333337</ele><time>2026-04-08T09:46:28Z</time></trkpt><trkpt lat="43.0802310005467" lon="11.535685500035322"><ele>309.6666666666667</ele><time>2026-04-08T09:46:29Z</time></trkpt><trkpt lat="43.080215866122316" lon="11.535780780197893"><ele>309.0</ele><time>2026-04-08T09:46:30Z</time></trkpt><trkpt lat="43.08020240404524" lon="11.535900887989067"><ele>308.3333333333333</ele><time>2026-04-08T09:46:31Z</time></trkpt><trkpt lat="43.08019132159888" lon="11.536036062082562"><ele>307.66666666666663</ele><time>2026-04-08T09:46:32Z</time></trkpt><trkpt lat="43.08019306710506" lon="11.536176900840603"><ele>307.0</ele><time>2026-04-08T09:46:33Z</time></trkpt><trkpt lat="43.0802241567185" lon="11.536300312589457"><ele>305.5</ele><time>2026-04-08T09:46:34Z</time></trkpt><trkpt lat="43.08023926534876" lon="11.536420916225852"><ele>304.0</ele><time>2026-04-08T09:46:35Z</time></trkpt><trkpt lat="43.08025686335872" lon="11.536538925667147"><ele>302.5</ele><time>2026-04-08T09:46:36Z</time></trkpt><trkpt lat="43.08026793490917" lon="11.536658772880713"><ele>301.0</ele><time>2026-04-08T09:46:37Z</time></trkpt><trkpt lat="43.08026616269373" lon="11.536780759909497"><ele>299.5</ele><time>2026-04-08T09:46:38Z</time></trkpt><trkpt lat="43.080223811291226" lon="11.536882066735338"><ele>298.0</ele><time>2026-04-08T09:46:39Z</time></trkpt><trkpt lat="43.08020516401923" lon="11.536985685519268"><ele>296.6</ele><time>2026-04-08T09:46:40Z</time></trkpt><trkpt lat="43.08020910463229" lon="11.537099731721002"><ele>295.20000000000005</ele><time>2026-04-08T09:46:41Z</time></trkpt><trkpt lat="43.080229047446224" lon="11.537205278366246"><ele>293.8</ele><time>2026-04-08T09:46:42Z</time></trkpt><trkpt lat="43.0802840252087" lon="11.537321458228423"><ele>292.40000000000003</ele><time>2026-04-08T09:46:43Z</time></trkpt><trkpt lat="43.08037364500965" lon="11.537410161510792"><ele>291.0</ele><time>2026-04-08T09:46:44Z</time></trkpt><trkpt lat="43.08047755292509" lon="11.537449552395149"><ele>291.0</ele><time>2026-04-08T09:46:45Z</time></trkpt><trkpt lat="43.08055491159197" lon="11.53749161687454"><ele>291.0</ele><time>2026-04-08T09:46:46Z</time></trkpt><trkpt lat="43.08062274466498" lon="11.537560119003144"><ele>291.0</ele><time>2026-04-08T09:46:47Z</time></trkpt><trkpt lat="43.0806818919636" lon="11.537665051070613"><ele>291.0</ele><time>2026-04-08T09:46:48Z</time></trkpt><trkpt lat="43.0807028013484" lon="11.537809398197489"><ele>291.0</ele><time>2026-04-08T09:46:49Z</time></trkpt><trkpt lat="43.08073323726477" lon="11.53797472884215"><ele>290.0</ele><time>2026-04-08T09:46:50Z</time></trkpt><trkpt lat="43.08075851149009" lon="11.538167265995362"><ele>289.0</ele><time>2026-04-08T09:46:51Z</time></trkpt><trkpt lat="43.080785380758975" lon="11.538371146604005"><ele>288.0</ele><time>2026-04-08T09:46:52Z</time></trkpt><trkpt lat="43.08081568868019" lon="11.538541392492917"><ele>287.0</ele><time>2026-04-08T09:46:53Z</time></trkpt><trkpt lat="43.0808467272547" lon="11.538700951090364"><ele>286.8</ele><time>2026-04-08T09:46:54Z</time></trkpt><trkpt lat="43.08087429362766" lon="11.538881948246763"><ele>286.6</ele><time>2026-04-08T09:46:55Z</time></trkpt><trkpt lat="43.0809019049854" lon="11.539031989577579"><ele>286.40000000000003</ele><time>2026-04-08T09:46:56Z</time></trkpt><trkpt lat="43.08092830030652" lon="11.539173167036152"><ele>286.2</ele><time>2026-04-08T09:46:57Z</time></trkpt><trkpt lat="43.080949821553936" lon="11.53929490431861"><ele>286.0</ele><time>2026-04-08T09:46:58Z</time></trkpt><trkpt lat="43.080990738088765" lon="11.539427006298617"><ele>286.75</ele><time>2026-04-08T09:46:59Z</time></trkpt><trkpt lat="43.08103410109898" lon="11.539573166000585"><ele>287.5</ele><time>2026-04-08T09:47:00Z</time></trkpt><trkpt lat="43.08111305414805" lon="11.53971011121971"><ele>288.25</ele><time>2026-04-08T09:47:01Z</time></trkpt><trkpt lat="43.08122866518861" lon="11.539805673824633"><ele>289.0</ele><time>2026-04-08T09:47:02Z</time></trkpt><trkpt lat="43.081346517262936" lon="11.539935231528576"><ele>289.0</ele><time>2026-04-08T09:47:03Z</time></trkpt><trkpt lat="43.08144978347063" lon="11.540050204423025"><ele>289.0</ele><time>2026-04-08T09:47:04Z</time></trkpt><trkpt lat="43.081531084355184" lon="11.540156061315415"><ele>289.0</ele><time>2026-04-08T09:47:05Z</time></trkpt><trkpt lat="43.081595635630855" lon="11.5402708993624"><ele>289.0</ele><time>2026-04-08T09:47:06Z</time></trkpt><trkpt lat="43.081644682619505" lon="11.540404642530971"><ele>290.0</ele><time>2026-04-08T09:47:07Z</time></trkpt><trkpt lat="43.08167513616841" lon="11.54055872540764"><ele>291.0</ele><time>2026-04-08T09:47:08Z</time></trkpt><trkpt lat="43.081695542089605" lon="11.540738454604712"><ele>292.0</ele><time>2026-04-08T09:47:09Z</time></trkpt><trkpt lat="43.08170446586833" lon="11.54093226481501"><ele>293.0</ele><time>2026-04-08T09:47:10Z</time></trkpt><trkpt lat="43.081715638725" lon="11.541089019926364"><ele>293.6</ele><time>2026-04-08T09:47:11Z</time></trkpt><trkpt lat="43.08173424378833" lon="11.54124818189476"><ele>294.20000000000005</ele><time>2026-04-08T09:47:12Z</time></trkpt><trkpt lat="43.08176601992165" lon="11.541418665787214"><ele>294.8</ele><time>2026-04-08T09:47:13Z</time></trkpt><trkpt lat="43.08179805841972" lon="11.541553297982718"><ele>295.40000000000003</ele><time>2026-04-08T09:47:14Z</time></trkpt><trkpt lat="43.081829410361635" lon="11.541672573624636"><ele>296.0</ele><time>2026-04-08T09:47:15Z</time></trkpt><trkpt lat="43.08185906037182" lon="11.54180802044043"><ele>296.0</ele><time>2026-04-08T09:47:16Z</time></trkpt><trkpt lat="43.081883414665946" lon="11.54192295341705"><ele>296.0</ele><time>2026-04-08T09:47:17Z</time></trkpt><trkpt lat="43.08189724151434" lon="11.542026644634264"><ele>296.0</ele><time>2026-04-08T09:47:18Z</time></trkpt><trkpt lat="43.08190757198236" lon="11.54214491436909"><ele>296.0</ele><time>2026-04-08T09:47:19Z</time></trkpt><trkpt lat="43.08190848266561" lon="11.5422721838248"><ele>296.0</ele><time>2026-04-08T09:47:20Z</time></trkpt><trkpt lat="43.08190712466628" lon="11.542397558555711"><ele>296.0</ele><time>2026-04-08T09:47:21Z</time></trkpt><trkpt lat="43.08190496688549" lon="11.54252258888011"><ele>296.0</ele><time>2026-04-08T09:47:22Z</time></trkpt><trkpt lat="43.08191335318131" lon="11.542642280496441"><ele>296.0</ele><time>2026-04-08T09:47:23Z</time></trkpt><trkpt lat="43.081933984124696" lon="11.542754119080218"><ele>296.0</ele><time>2026-04-08T09:47:24Z</time></trkpt><trkpt lat="43.08195274503207" lon="11.542848326205426"><ele>296.0</ele><time>2026-04-08T09:47:25Z</time></trkpt><trkpt lat="43.08198504266395" lon="11.542934645220724"><ele>296.0</ele><time>2026-04-08T09:47:26Z</time></trkpt><trkpt lat="43.08204911128243" lon="11.542992388381272"><ele>296.0</ele><time>2026-04-08T09:47:27Z</time></trkpt><trkpt lat="43.08213056976047" lon="11.543001293959671"><ele>294.8</ele><time>2026-04-08T09:47:28Z</time></trkpt><trkpt lat="43.082206103842" lon="11.543021690778556"><ele>293.6</ele><time>2026-04-08T09:47:29Z</time></trkpt><trkpt lat="43.08229220539938" lon="11.543030512149512"><ele>292.4</ele><time>2026-04-08T09:47:30Z</time></trkpt><trkpt lat="43.08238360455924" lon="11.543049086299817"><ele>291.2</ele><time>2026-04-08T09:47:31Z</time></trkpt><trkpt lat="43.08248069281428" lon="11.543074506166855"><ele>290.0</ele><time>2026-04-08T09:47:32Z</time></trkpt><trkpt lat="43.08258915568192" lon="11.543122157746863"><ele>290.0</ele><time>2026-04-08T09:47:33Z</time></trkpt><trkpt lat="43.08270441930093" lon="11.54316407931379"><ele>290.0</ele><time>2026-04-08T09:47:34Z</time></trkpt><trkpt lat="43.08281221925046" lon="11.54320175658434"><ele>290.0</ele><time>2026-04-08T09:47:35Z</time></trkpt><trkpt lat="43.08290789732041" lon="11.543219834515618"><ele>290.0</ele><time>2026-04-08T09:47:36Z</time></trkpt><trkpt lat="43.08299263795456" lon="11.543228138925974"><ele>290.0</ele><time>2026-04-08T09:47:37Z</time></trkpt><trkpt lat="43.083082432415786" lon="11.543235836736539"><ele>290.0</ele><time>2026-04-08T09:47:38Z</time></trkpt><trkpt lat="43.08316169237318" lon="11.543251297452496"><ele>290.0</ele><time>2026-04-08T09:47:39Z</time></trkpt><trkpt lat="43.08323899162754" lon="11.54327212149039"><ele>290.0</ele><time>2026-04-08T09:47:40Z</time></trkpt><trkpt lat="43.083312445478605" lon="11.543289949083764"><ele>290.0</ele><time>2026-04-08T09:47:41Z</time></trkpt><trkpt lat="43.08342644683864" lon="11.543352605953697"><ele>290.0</ele><time>2026-04-08T09:47:43Z</time></trkpt><trkpt lat="43.08349691894846" lon="11.543368014054279"><ele>290.0</ele><time>2026-04-08T09:47:44Z</time></trkpt><trkpt lat="43.083570740201175" lon="11.543374714314453"><ele>289.1666666666667</ele><time>2026-04-08T09:47:45Z</time></trkpt><trkpt lat="43.083653189762" lon="11.543352579614167"><ele>288.33333333333337</ele><time>2026-04-08T09:47:46Z</time></trkpt><trkpt lat="43.083724696474505" lon="11.543314032633827"><ele>287.5</ele><time>2026-04-08T09:47:47Z</time></trkpt><trkpt lat="43.08377975273045" lon="11.543247462807264"><ele>286.6666666666667</ele><time>2026-04-08T09:47:48Z</time></trkpt><trkpt lat="43.08385190834155" lon="11.543198391945499"><ele>285.8333333333333</ele><time>2026-04-08T09:47:49Z</time></trkpt><trkpt lat="43.08393203120367" lon="11.543161264317664"><ele>285.0</ele><time>2026-04-08T09:47:50Z</time></trkpt><trkpt lat="43.08402248040768" lon="11.54316172760241"><ele>283.0</ele><time>2026-04-08T09:47:51Z</time></trkpt><trkpt lat="43.08411691930648" lon="11.543225834301996"><ele>281.0</ele><time>2026-04-08T09:47:52Z</time></trkpt><trkpt lat="43.08423493471049" lon="11.543260088195495"><ele>279.0</ele><time>2026-04-08T09:47:53Z</time></trkpt><trkpt lat="43.08435314242018" lon="11.543325580822444"><ele>277.0</ele><time>2026-04-08T09:47:54Z</time></trkpt><trkpt lat="43.08448000648533" lon="11.543385419429828"><ele>277.0</ele><time>2026-04-08T09:47:55Z</time></trkpt><trkpt lat="43.084586405703476" lon="11.543429813499108"><ele>277.0</ele><time>2026-04-08T09:47:56Z</time></trkpt><trkpt lat="43.084679179841736" lon="11.54346757788825"><ele>277.0</ele><time>2026-04-08T09:47:57Z</time></trkpt><trkpt lat="43.08477251850414" lon="11.543504148390612"><ele>277.0</ele><time>2026-04-08T09:47:58Z</time></trkpt><trkpt lat="43.08487398667582" lon="11.543547642793941"><ele>277.0</ele><time>2026-04-08T09:47:59Z</time></trkpt><trkpt lat="43.08498442913742" lon="11.543596165762802"><ele>275.25</ele><time>2026-04-08T09:48:00Z</time></trkpt><trkpt lat="43.08508999522832" lon="11.543663404440757"><ele>273.5</ele><time>2026-04-08T09:48:01Z</time></trkpt><trkpt lat="43.0851848645118" lon="11.543728761575606"><ele>271.75</ele><time>2026-04-08T09:48:02Z</time></trkpt><trkpt lat="43.08528797905838" lon="11.543792667992426"><ele>270.0</ele><time>2026-04-08T09:48:03Z</time></trkpt><trkpt lat="43.08539601901741" lon="11.543858401506714"><ele>270.0</ele><time>2026-04-08T09:48:04Z</time></trkpt><trkpt lat="43.085502641102394" lon="11.54390945053523"><ele>270.0</ele><time>2026-04-08T09:48:05Z</time></trkpt><trkpt lat="43.085592023883095" lon="11.543945308671207"><ele>270.0</ele><time>2026-04-08T09:48:06Z</time></trkpt><trkpt lat="43.085681890224755" lon="11.544001982605916"><ele>270.0</ele><time>2026-04-08T09:48:07Z</time></trkpt><trkpt lat="43.08579219390332" lon="11.544008192805366"><ele>270.0</ele><time>2026-04-08T09:48:08Z</time></trkpt><trkpt lat="43.085904535697544" lon="11.544035992416726"><ele>270.0</ele><time>2026-04-08T09:48:09Z</time></trkpt><trkpt lat="43.08600871979541" lon="11.544052752741727"><ele>270.0</ele><time>2026-04-08T09:48:10Z</time></trkpt><trkpt lat="43.086100620540236" lon="11.54406605030824"><ele>270.0</ele><time>2026-04-08T09:48:11Z</time></trkpt><trkpt lat="43.086184349119335" lon="11.544084779777906"><ele>270.0</ele><time>2026-04-08T09:48:12Z</time></trkpt><trkpt lat="43.0862751454189" lon="11.544108092713705"><ele>270.0</ele><time>2026-04-08T09:48:13Z</time></trkpt><trkpt lat="43.086367679003864" lon="11.544136133453852"><ele>270.0</ele><time>2026-04-08T09:48:14Z</time></trkpt><trkpt lat="43.08646563264992" lon="11.544187075109544"><ele>270.0</ele><time>2026-04-08T09:48:15Z</time></trkpt><trkpt lat="43.086560262270375" lon="11.544245312592633"><ele>270.0</ele><time>2026-04-08T09:48:16Z</time></trkpt><trkpt lat="43.08663718989899" lon="11.54430679373034"><ele>270.0</ele><time>2026-04-08T09:48:17Z</time></trkpt><trkpt lat="43.08671160126787" lon="11.544367618288234"><ele>270.0</ele><time>2026-04-08T09:48:18Z</time></trkpt><trkpt lat="43.08678163701385" lon="11.54442512386529"><ele>270.1666666666667</ele><time>2026-04-08T09:48:19Z</time></trkpt><trkpt lat="43.08685296559562" lon="11.544489580471005"><ele>270.3333333333333</ele><time>2026-04-08T09:48:20Z</time></trkpt><trkpt lat="43.08691340206764" lon="11.544551592985465"><ele>270.5</ele><time>2026-04-08T09:48:21Z</time></trkpt><trkpt lat="43.08697167702587" lon="11.544602495261973"><ele>270.66666666666663</ele><time>2026-04-08T09:48:22Z</time></trkpt><trkpt lat="43.08702562598658" lon="11.544660171083107"><ele>270.8333333333333</ele><time>2026-04-08T09:48:23Z</time></trkpt><trkpt lat="43.08709042513534" lon="11.544741558127726"><ele>271.0</ele><time>2026-04-08T09:48:25Z</time></trkpt><trkpt lat="43.08713271130449" lon="11.544808294495404"><ele>271.0</ele><time>2026-04-08T09:48:27Z</time></trkpt><trkpt lat="43.08707057845344" lon="11.544984470066561"><ele>271.0</ele><time>2026-04-08T09:48:29Z</time></trkpt><trkpt lat="43.08702593777892" lon="11.545074405266357"><ele>271.0</ele><time>2026-04-08T09:48:30Z</time></trkpt><trkpt lat="43.086994303027005" lon="11.545183625525516"><ele>271.0</ele><time>2026-04-08T09:48:31Z</time></trkpt><trkpt lat="43.086958877532695" lon="11.545298848670974"><ele>271.0</ele><time>2026-04-08T09:48:32Z</time></trkpt><trkpt lat="43.086911562680676" lon="11.545417700598193"><ele>270.3333333333333</ele><time>2026-04-08T09:48:33Z</time></trkpt><trkpt lat="43.08687715908507" lon="11.54551916350133"><ele>269.66666666666663</ele><time>2026-04-08T09:48:34Z</time></trkpt><trkpt lat="43.08684711360823" lon="11.54562439362643"><ele>269.0</ele><time>2026-04-08T09:48:35Z</time></trkpt><trkpt lat="43.08681433278062" lon="11.545737789592685"><ele>268.3333333333333</ele><time>2026-04-08T09:48:36Z</time></trkpt><trkpt lat="43.08678234535376" lon="11.545857108003451"><ele>267.6666666666667</ele><time>2026-04-08T09:48:37Z</time></trkpt><trkpt lat="43.086756807602235" lon="11.545968292666869"><ele>267.0</ele><time>2026-04-08T09:48:38Z</time></trkpt><trkpt lat="43.08672484606088" lon="11.546082822307325"><ele>267.0</ele><time>2026-04-08T09:48:39Z</time></trkpt><trkpt lat="43.08669388754984" lon="11.54620892100324"><ele>267.0</ele><time>2026-04-08T09:48:40Z</time></trkpt><trkpt lat="43.08666410680533" lon="11.546334542444589"><ele>267.0</ele><time>2026-04-08T09:48:41Z</time></trkpt><trkpt lat="43.08663679733833" lon="11.546455435801905"><ele>267.0</ele><time>2026-04-08T09:48:42Z</time></trkpt><trkpt lat="43.08661719717803" lon="11.546571289036454"><ele>267.0</ele><time>2026-04-08T09:48:43Z</time></trkpt><trkpt lat="43.086582235892536" lon="11.546694120255824"><ele>265.6666666666667</ele><time>2026-04-08T09:48:44Z</time></trkpt><trkpt lat="43.08655625756716" lon="11.546810342808183"><ele>264.3333333333333</ele><time>2026-04-08T09:48:45Z</time></trkpt><trkpt lat="43.086534242579255" lon="11.54692067362592"><ele>263.0</ele><time>2026-04-08T09:48:46Z</time></trkpt><trkpt lat="43.086510436560125" lon="11.547024072513087"><ele>261.66666666666663</ele><time>2026-04-08T09:48:47Z</time></trkpt><trkpt lat="43.086488358105825" lon="11.547130450032345"><ele>260.3333333333333</ele><time>2026-04-08T09:48:48Z</time></trkpt><trkpt lat="43.08647221294911" lon="11.547218854594318"><ele>259.0</ele><time>2026-04-08T09:48:49Z</time></trkpt><trkpt lat="43.086431554196515" lon="11.547384206613525"><ele>258.85714285714283</ele><time>2026-04-08T09:48:51Z</time></trkpt><trkpt lat="43.08640740712795" lon="11.547467066079648"><ele>258.7142857142857</ele><time>2026-04-08T09:48:52Z</time></trkpt><trkpt lat="43.08638737220141" lon="11.547553826271805"><ele>258.57142857142856</ele><time>2026-04-08T09:48:54Z</time></trkpt><trkpt lat="43.08636708048905" lon="11.54764294022626"><ele>258.42857142857144</ele><time>2026-04-08T09:48:56Z</time></trkpt><trkpt lat="43.08633532602594" lon="11.547743669908495"><ele>258.2857142857143</ele><time>2026-04-08T09:48:58Z</time></trkpt><trkpt lat="43.086299409827916" lon="11.547866822073003"><ele>258.1428571428571</ele><time>2026-04-08T09:49:00Z</time></trkpt><trkpt lat="43.086303586763364" lon="11.547961823519296"><ele>258.0</ele><time>2026-04-08T09:49:02Z</time></trkpt><trkpt lat="43.08628674787827" lon="11.548093566021853"><ele>257.6</ele><time>2026-04-08T09:49:06Z</time></trkpt><trkpt lat="43.086253753784504" lon="11.54817220047842"><ele>257.20000000000005</ele><time>2026-04-08T09:49:08Z</time></trkpt><trkpt lat="43.086220137417975" lon="11.548299017674383"><ele>256.8</ele><time>2026-04-08T09:50:26Z</time></trkpt><trkpt lat="43.086177321571775" lon="11.548374885109526"><ele>256.40000000000003</ele><time>2026-04-08T09:50:32Z</time></trkpt><trkpt lat="43.08630615218214" lon="11.548364066190508"><ele>256.0</ele><time>2026-04-08T09:51:34Z</time></trkpt><trkpt lat="43.08623306210502" lon="11.548302847651188"><ele>255.99999999999997</ele><time>2026-04-08T09:52:09Z</time></trkpt><trkpt lat="43.086287246976134" lon="11.548253076789816"><ele>256.0</ele><time>2026-04-08T09:52:22Z</time></trkpt><trkpt lat="43.08638080136056" lon="11.548193394652747"><ele>256.0</ele><time>2026-04-08T09:53:25Z</time></trkpt><trkpt lat="43.08634036644345" lon="11.548111082517918"><ele>256.0</ele><time>2026-04-08T09:53:49Z</time></trkpt><trkpt lat="43.08635355416183" lon="11.54801658573853"><ele>255.99999999999997</ele><time>2026-04-08T09:53:50Z</time></trkpt><trkpt lat="43.08637475869243" lon="11.547921045883129"><ele>256.0</ele><time>2026-04-08T09:53:51Z</time></trkpt><trkpt lat="43.086391883572574" lon="11.547823254113577"><ele>256.3333333333333</ele><time>2026-04-08T09:53:52Z</time></trkpt><trkpt lat="43.08639999748798" lon="11.547726174297777"><ele>256.66666666666663</ele><time>2026-04-08T09:53:53.001Z</time></trkpt><trkpt lat="43.08642996882886" lon="11.547621464403031"><ele>257.0</ele><time>2026-04-08T09:53:54.001Z</time></trkpt><trkpt lat="43.08646231421026" lon="11.547509552424494"><ele>257.3333333333333</ele><time>2026-04-08T09:53:55.001Z</time></trkpt><trkpt lat="43.08648837947012" lon="11.547405760620272"><ele>257.6666666666667</ele><time>2026-04-08T09:53:56.001Z</time></trkpt><trkpt lat="43.08651439275776" lon="11.547300528900129"><ele>258.0</ele><time>2026-04-08T09:53:57.001Z</time></trkpt><trkpt lat="43.08654964094319" lon="11.547157944851927"><ele>258.1428571428571</ele><time>2026-04-08T09:53:58.001Z</time></trkpt><trkpt lat="43.08657558154868" lon="11.547040827813607"><ele>258.2857142857143</ele><time>2026-04-08T09:53:59.001Z</time></trkpt><trkpt lat="43.08659207697836" lon="11.5469467406148"><ele>258.42857142857144</ele><time>2026-04-08T09:54:00.001Z</time></trkpt><trkpt lat="43.08660091210949" lon="11.546856428603308"><ele>258.57142857142856</ele><time>2026-04-08T09:54:01.001Z</time></trkpt><trkpt lat="43.08661457859149" lon="11.546767354812609"><ele>258.7142857142857</ele><time>2026-04-08T09:54:02.001Z</time></trkpt><trkpt lat="43.086639892624696" lon="11.54668209749633"><ele>258.85714285714283</ele><time>2026-04-08T09:54:03.001Z</time></trkpt><trkpt lat="43.08666199204743" lon="11.54658876710369"><ele>259.0</ele><time>2026-04-08T09:54:04.001Z</time></trkpt><trkpt lat="43.08668292752149" lon="11.546500679074839"><ele>260.4</ele><time>2026-04-08T09:54:05.001Z</time></trkpt><trkpt lat="43.086704752789664" lon="11.546400441192795"><ele>261.79999999999995</ele><time>2026-04-08T09:54:06.001Z</time></trkpt><trkpt lat="43.08673421699978" lon="11.546295743890834"><ele>263.20000000000005</ele><time>2026-04-08T09:54:07.001Z</time></trkpt><trkpt lat="43.086775622515475" lon="11.546178012076812"><ele>264.6</ele><time>2026-04-08T09:54:09.001Z</time></trkpt><trkpt lat="43.086769175464525" lon="11.546076230932915"><ele>266.0</ele><time>2026-04-08T09:54:12Z</time></trkpt><trkpt lat="43.08661842869882" lon="11.546013817268618"><ele>265.33333333333337</ele><time>2026-04-08T09:54:15Z</time></trkpt><trkpt lat="43.08654984600081" lon="11.545983320819047"><ele>264.6666666666667</ele><time>2026-04-08T09:54:16Z</time></trkpt><trkpt lat="43.08647252418459" lon="11.545963571308683"><ele>264.0</ele><time>2026-04-08T09:54:17Z</time></trkpt><trkpt lat="43.08640975857902" lon="11.5459464440988"><ele>263.3333333333333</ele><time>2026-04-08T09:54:18Z</time></trkpt><trkpt lat="43.08632536684217" lon="11.545921847087495"><ele>262.66666666666663</ele><time>2026-04-08T09:54:19Z</time></trkpt><trkpt lat="43.0862447128079" lon="11.545900786948982"><ele>262.0</ele><time>2026-04-08T09:54:20Z</time></trkpt><trkpt lat="43.086176805956015" lon="11.545888414636595"><ele>262.0</ele><time>2026-04-08T09:54:21Z</time></trkpt><trkpt lat="43.086056269433904" lon="11.545850746697015"><ele>262.0</ele><time>2026-04-08T09:54:23Z</time></trkpt><trkpt lat="43.08594471444043" lon="11.545812225408808"><ele>262.0</ele><time>2026-04-08T09:54:25Z</time></trkpt><trkpt lat="43.085854074514636" lon="11.545789103430796"><ele>262.0</ele><time>2026-04-08T09:54:27Z</time></trkpt><trkpt lat="43.08576839509238" lon="11.545777943030407"><ele>262.0</ele><time>2026-04-08T09:54:29Z</time></trkpt><trkpt lat="43.085704171698644" lon="11.545820496613507"><ele>261.8</ele><time>2026-04-08T09:54:30Z</time></trkpt><trkpt lat="43.08567241579955" lon="11.545963403695653"><ele>261.6</ele><time>2026-04-08T09:54:31Z</time></trkpt><trkpt lat="43.08560326496372" lon="11.546105525275053"><ele>261.40000000000003</ele><time>2026-04-08T09:54:33Z</time></trkpt><trkpt lat="43.085559107754975" lon="11.546192995056021"><ele>261.2</ele><time>2026-04-08T09:54:34Z</time></trkpt><trkpt lat="43.08551362404364" lon="11.546283093200842"><ele>261.0</ele><time>2026-04-08T09:54:35Z</time></trkpt><trkpt lat="43.08546482270567" lon="11.546379036926732"><ele>260.6666666666667</ele><time>2026-04-08T09:54:36Z</time></trkpt><trkpt lat="43.085420957528555" lon="11.54646472644531"><ele>260.3333333333333</ele><time>2026-04-08T09:54:37Z</time></trkpt><trkpt lat="43.08537667993435" lon="11.546553646945092"><ele>260.0</ele><time>2026-04-08T09:54:38Z</time></trkpt><trkpt lat="43.085331672704804" lon="11.54664538662654"><ele>259.66666666666663</ele><time>2026-04-08T09:54:39Z</time></trkpt><trkpt lat="43.08528049495251" lon="11.546751444151147"><ele>259.3333333333333</ele><time>2026-04-08T09:54:40Z</time></trkpt><trkpt lat="43.08523078096029" lon="11.546853796936936"><ele>259.0</ele><time>2026-04-08T09:54:41Z</time></trkpt><trkpt lat="43.08518681359411" lon="11.546944512542538"><ele>259.0</ele><time>2026-04-08T09:54:42Z</time></trkpt><trkpt lat="43.08514852104422" lon="11.547023519630491"><ele>259.0</ele><time>2026-04-08T09:54:43Z</time></trkpt><trkpt lat="43.08510470707055" lon="11.547113918716153"><ele>259.0</ele><time>2026-04-08T09:54:44Z</time></trkpt><trkpt lat="43.08506114824403" lon="11.547203792661756"><ele>259.0</ele><time>2026-04-08T09:54:45Z</time></trkpt><trkpt lat="43.08501869620926" lon="11.547291244297876"><ele>259.0</ele><time>2026-04-08T09:54:46Z</time></trkpt><trkpt lat="43.084974659128534" lon="11.547382026071656"><ele>259.0</ele><time>2026-04-08T09:54:47Z</time></trkpt><trkpt lat="43.08493166190234" lon="11.547470664193636"><ele>258.0</ele><time>2026-04-08T09:54:48Z</time></trkpt><trkpt lat="43.08488674683374" lon="11.547563843228817"><ele>257.0</ele><time>2026-04-08T09:54:49Z</time></trkpt><trkpt lat="43.08484022667062" lon="11.547660488202606"><ele>256.0</ele><time>2026-04-08T09:54:50Z</time></trkpt><trkpt lat="43.084797626535114" lon="11.54774628819407"><ele>255.0</ele><time>2026-04-08T09:54:51Z</time></trkpt><trkpt lat="43.08475731672695" lon="11.547828455629906"><ele>253.99999999999997</ele><time>2026-04-08T09:54:52Z</time></trkpt><trkpt lat="43.08469337303507" lon="11.54796235064992"><ele>253.0</ele><time>2026-04-08T09:54:54Z</time></trkpt><trkpt lat="43.08463337154006" lon="11.548091605856312"><ele>252.2</ele><time>2026-04-08T09:54:56Z</time></trkpt><trkpt lat="43.084597160432395" lon="11.548180320394575"><ele>251.4</ele><time>2026-04-08T09:54:58Z</time></trkpt><trkpt lat="43.08456989907684" lon="11.548283431567455"><ele>250.59999999999997</ele><time>2026-04-08T09:55:05Z</time></trkpt><trkpt lat="43.08472512367173" lon="11.548423243631822"><ele>249.79999999999998</ele><time>2026-04-08T09:55:07Z</time></trkpt><trkpt lat="43.08482307225445" lon="11.548482887422054"><ele>249.0</ele><time>2026-04-08T09:55:08Z</time></trkpt><trkpt lat="43.08491019114433" lon="11.548556681285909"><ele>249.39999999999998</ele><time>2026-04-08T09:55:09Z</time></trkpt><trkpt lat="43.08499249366559" lon="11.548631409599503"><ele>249.79999999999998</ele><time>2026-04-08T09:55:10Z</time></trkpt><trkpt lat="43.085076640630774" lon="11.548712018499911"><ele>250.20000000000002</ele><time>2026-04-08T09:55:11Z</time></trkpt><trkpt lat="43.08516290655269" lon="11.5487963835596"><ele>250.60000000000002</ele><time>2026-04-08T09:55:12Z</time></trkpt><trkpt lat="43.08525368425775" lon="11.548885160981177"><ele>251.0</ele><time>2026-04-08T09:55:13Z</time></trkpt><trkpt lat="43.085331508744076" lon="11.548961270601458"><ele>251.0</ele><time>2026-04-08T09:55:14Z</time></trkpt><trkpt lat="43.085400063907755" lon="11.549028315704552"><ele>251.00000000000003</ele><time>2026-04-08T09:55:15Z</time></trkpt><trkpt lat="43.08547154947786" lon="11.549098242016298"><ele>251.00000000000003</ele><time>2026-04-08T09:55:16Z</time></trkpt><trkpt lat="43.085545834754235" lon="11.549161462044326"><ele>251.0</ele><time>2026-04-08T09:55:17Z</time></trkpt><trkpt lat="43.085635055338244" lon="11.5492234726988"><ele>251.0</ele><time>2026-04-08T09:55:18Z</time></trkpt><trkpt lat="43.085721075511394" lon="11.549273704293503"><ele>251.50000000000003</ele><time>2026-04-08T09:55:19Z</time></trkpt><trkpt lat="43.08579243277974" lon="11.549313842748674"><ele>252.0</ele><time>2026-04-08T09:55:20Z</time></trkpt><trkpt lat="43.08586205302653" lon="11.549349228331577"><ele>252.5</ele><time>2026-04-08T09:55:21Z</time></trkpt><trkpt lat="43.08594647339238" lon="11.54938621261493"><ele>253.0</ele><time>2026-04-08T09:55:23Z</time></trkpt><trkpt lat="43.08589175920055" lon="11.549515312902326"><ele>253.50000000000003</ele><time>2026-04-08T09:55:27Z</time></trkpt><trkpt lat="43.08584714171853" lon="11.549592427234602"><ele>254.0</ele><time>2026-04-08T09:55:28Z</time></trkpt><trkpt lat="43.08579270261782" lon="11.549682390555903"><ele>253.2</ele><time>2026-04-08T09:55:29Z</time></trkpt><trkpt lat="43.085736766282935" lon="11.54977269370038"><ele>252.39999999999998</ele><time>2026-04-08T09:55:30Z</time></trkpt><trkpt lat="43.08567372236134" lon="11.549873782515684"><ele>251.6</ele><time>2026-04-08T09:55:31Z</time></trkpt><trkpt lat="43.08561287408599" lon="11.549970874441698"><ele>250.8</ele><time>2026-04-08T09:55:32Z</time></trkpt><trkpt lat="43.085553663976974" lon="11.550065353488163"><ele>250.0</ele><time>2026-04-08T09:55:33Z</time></trkpt><trkpt lat="43.085496472172835" lon="11.550161526802968"><ele>249.99999999999997</ele><time>2026-04-08T09:55:34Z</time></trkpt><trkpt lat="43.08543875552684" lon="11.550256569037169"><ele>250.0</ele><time>2026-04-08T09:55:35Z</time></trkpt><trkpt lat="43.08538354318229" lon="11.55034748743593"><ele>250.0</ele><time>2026-04-08T09:55:36Z</time></trkpt><trkpt lat="43.0853319679562" lon="11.550432416589201"><ele>250.0</ele><time>2026-04-08T09:55:37Z</time></trkpt><trkpt lat="43.08527484720058" lon="11.550522849395065"><ele>249.99999999999997</ele><time>2026-04-08T09:55:38Z</time></trkpt><trkpt lat="43.08521188638274" lon="11.550622172350492"><ele>250.0</ele><time>2026-04-08T09:55:39Z</time></trkpt><trkpt lat="43.085147705569085" lon="11.55071451040477"><ele>249.6</ele><time>2026-04-08T09:55:40Z</time></trkpt><trkpt lat="43.08508296429737" lon="11.550806869480908"><ele>249.2</ele><time>2026-04-08T09:55:41Z</time></trkpt><trkpt lat="43.08501308332148" lon="11.550906560764938"><ele>248.8</ele><time>2026-04-08T09:55:42Z</time></trkpt><trkpt lat="43.08493453932239" lon="11.551018757335015"><ele>248.4</ele><time>2026-04-08T09:55:43Z</time></trkpt><trkpt lat="43.08486316056015" lon="11.551120256247446"><ele>248.0</ele><time>2026-04-08T09:55:44Z</time></trkpt><trkpt lat="43.084796560169174" lon="11.551214112425988"><ele>247.5</ele><time>2026-04-08T09:55:45Z</time></trkpt><trkpt lat="43.08472262738669" lon="11.5513183017479"><ele>247.0</ele><time>2026-04-08T09:55:46Z</time></trkpt><trkpt lat="43.08463283582358" lon="11.551444840971474"><ele>246.5</ele><time>2026-04-08T09:55:47Z</time></trkpt><trkpt lat="43.08455215459229" lon="11.551559479569873"><ele>246.0</ele><time>2026-04-08T09:55:48Z</time></trkpt><trkpt lat="43.08448259455612" lon="11.551658062357125"><ele>246.0</ele><time>2026-04-08T09:55:49Z</time></trkpt><trkpt lat="43.08441131067842" lon="11.551759100766994"><ele>246.00000000000003</ele><time>2026-04-08T09:55:50Z</time></trkpt><trkpt lat="43.084340567520215" lon="11.551863608149148"><ele>246.00000000000003</ele><time>2026-04-08T09:55:51Z</time></trkpt><trkpt lat="43.08427255236708" lon="11.55197312983854"><ele>246.0</ele><time>2026-04-08T09:55:52Z</time></trkpt><trkpt lat="43.084214897850806" lon="11.552114408014324"><ele>246.0</ele><time>2026-04-08T09:55:53Z</time></trkpt><trkpt lat="43.08412943977643" lon="11.552242909322848"><ele>245.4</ele><time>2026-04-08T09:55:54Z</time></trkpt><trkpt lat="43.08406614051821" lon="11.552375935677642"><ele>244.8</ele><time>2026-04-08T09:55:55Z</time></trkpt><trkpt lat="43.084013192573344" lon="11.552489180690024"><ele>244.20000000000002</ele><time>2026-04-08T09:55:56Z</time></trkpt><trkpt lat="43.08396307331314" lon="11.552620841475667"><ele>243.60000000000002</ele><time>2026-04-08T09:55:57Z</time></trkpt><trkpt lat="43.083912114620425" lon="11.552774009758418"><ele>243.0</ele><time>2026-04-08T09:55:58Z</time></trkpt><trkpt lat="43.083871548825975" lon="11.552923457191717"><ele>243.0</ele><time>2026-04-08T09:55:59.001Z</time></trkpt><trkpt lat="43.08383521665394" lon="11.55309879037127"><ele>243.0</ele><time>2026-04-08T09:56:00.001Z</time></trkpt><trkpt lat="43.083802623029676" lon="11.553277888415321"><ele>243.0</ele><time>2026-04-08T09:56:01.001Z</time></trkpt><trkpt lat="43.08377079406091" lon="11.553464708692958"><ele>243.0</ele><time>2026-04-08T09:56:02.001Z</time></trkpt><trkpt lat="43.08373894223142" lon="11.5536622946353"><ele>243.75</ele><time>2026-04-08T09:56:03.001Z</time></trkpt><trkpt lat="43.083707488609086" lon="11.55386623952486"><ele>244.5</ele><time>2026-04-08T09:56:04Z</time></trkpt><trkpt lat="43.08367815385087" lon="11.554056445656311"><ele>245.25</ele><time>2026-04-08T09:56:05Z</time></trkpt><trkpt lat="43.08365093026526" lon="11.554232963315105"><ele>246.0</ele><time>2026-04-08T09:56:06Z</time></trkpt><trkpt lat="43.08362791197903" lon="11.554382213469072"><ele>246.0</ele><time>2026-04-08T09:56:07Z</time></trkpt><trkpt lat="43.08360488822063" lon="11.554531499262962"><ele>246.0</ele><time>2026-04-08T09:56:08Z</time></trkpt><trkpt lat="43.0835811959409" lon="11.554685120207695"><ele>246.0</ele><time>2026-04-08T09:56:09Z</time></trkpt><trkpt lat="43.08355748682825" lon="11.554839737623832"><ele>246.0</ele><time>2026-04-08T09:56:10Z</time></trkpt><trkpt lat="43.08353308437086" lon="11.555000518791504"><ele>247.25</ele><time>2026-04-08T09:56:11Z</time></trkpt><trkpt lat="43.08350876819299" lon="11.555166379989618"><ele>248.5</ele><time>2026-04-08T09:56:12Z</time></trkpt><trkpt lat="43.08348530175125" lon="11.55533796563935"><ele>249.75</ele><time>2026-04-08T09:56:13Z</time></trkpt><trkpt lat="43.08346517198071" lon="11.555514934604927"><ele>251.0</ele><time>2026-04-08T09:56:14Z</time></trkpt><trkpt lat="43.083454993084914" lon="11.555695156958693"><ele>252.0</ele><time>2026-04-08T09:56:15Z</time></trkpt><trkpt lat="43.083456993075636" lon="11.555851398373397"><ele>253.0</ele><time>2026-04-08T09:56:16Z</time></trkpt><trkpt lat="43.08347970036848" lon="11.555986588304515"><ele>254.0</ele><time>2026-04-08T09:56:17Z</time></trkpt><trkpt lat="43.08354118401103" lon="11.55611878283831"><ele>255.0</ele><time>2026-04-08T09:56:18Z</time></trkpt><trkpt lat="43.083646361482955" lon="11.556213951391536"><ele>255.0</ele><time>2026-04-08T09:56:19Z</time></trkpt><trkpt lat="43.083760474898234" lon="11.556273372813141"><ele>255.0</ele><time>2026-04-08T09:56:20Z</time></trkpt><trkpt lat="43.0838851114287" lon="11.556320254061974"><ele>255.0</ele><time>2026-04-08T09:56:21Z</time></trkpt><trkpt lat="43.08402238076946" lon="11.55639300309539"><ele>255.0</ele><time>2026-04-08T09:56:22Z</time></trkpt><trkpt lat="43.08414681244454" lon="11.556485089877501"><ele>257.5</ele><time>2026-04-08T09:56:23Z</time></trkpt><trkpt lat="43.084270767875395" lon="11.556604668991584"><ele>260.0</ele><time>2026-04-08T09:56:24Z</time></trkpt><trkpt lat="43.084364507102464" lon="11.556718943577472"><ele>262.5</ele><time>2026-04-08T09:56:25Z</time></trkpt><trkpt lat="43.084444268949724" lon="11.55684422443673"><ele>265.0</ele><time>2026-04-08T09:56:26Z</time></trkpt><trkpt lat="43.084501902941405" lon="11.556994058250641"><ele>267.0</ele><time>2026-04-08T09:56:27Z</time></trkpt><trkpt lat="43.08453620830949" lon="11.557170510653995"><ele>269.0</ele><time>2026-04-08T09:56:28Z</time></trkpt><trkpt lat="43.08457644000673" lon="11.557370654408176"><ele>271.0</ele><time>2026-04-08T09:56:29Z</time></trkpt><trkpt lat="43.08458213103409" lon="11.557575962511192"><ele>273.0</ele><time>2026-04-08T09:56:30Z</time></trkpt><trkpt lat="43.08455704793997" lon="11.557763865258158"><ele>274.25</ele><time>2026-04-08T09:56:31Z</time></trkpt><trkpt lat="43.08450717246343" lon="11.557958023442811"><ele>275.5</ele><time>2026-04-08T09:56:32Z</time></trkpt><trkpt lat="43.084446800206635" lon="11.558148613858636"><ele>276.75</ele><time>2026-04-08T09:56:33Z</time></trkpt><trkpt lat="43.08440197624253" lon="11.55831037031273"><ele>278.0</ele><time>2026-04-08T09:56:34Z</time></trkpt><trkpt lat="43.08436576567778" lon="11.558464812667632"><ele>278.0</ele><time>2026-04-08T09:56:35Z</time></trkpt><trkpt lat="43.084350822807494" lon="11.558605746165712"><ele>278.0</ele><time>2026-04-08T09:56:36Z</time></trkpt><trkpt lat="43.084350469973664" lon="11.55875499401799"><ele>278.0</ele><time>2026-04-08T09:56:37Z</time></trkpt><trkpt lat="43.084349202609594" lon="11.558929992937992"><ele>278.0</ele><time>2026-04-08T09:56:38Z</time></trkpt><trkpt lat="43.08438621349929" lon="11.559080958744923"><ele>278.6</ele><time>2026-04-08T09:56:39Z</time></trkpt><trkpt lat="43.084420417020795" lon="11.559186035365512"><ele>279.20000000000005</ele><time>2026-04-08T09:56:40Z</time></trkpt><trkpt lat="43.08449845293518" lon="11.559264870960382"><ele>279.8</ele><time>2026-04-08T09:56:41Z</time></trkpt><trkpt lat="43.084615176135415" lon="11.559308706341973"><ele>280.40000000000003</ele><time>2026-04-08T09:56:42Z</time></trkpt><trkpt lat="43.08473355281564" lon="11.559326817259995"><ele>281.0</ele><time>2026-04-08T09:56:43Z</time></trkpt><trkpt lat="43.0848192834844" lon="11.559376069734986"><ele>281.0</ele><time>2026-04-08T09:56:44Z</time></trkpt><trkpt lat="43.084838710497785" lon="11.559511075634736"><ele>281.0</ele><time>2026-04-08T09:56:45Z</time></trkpt><trkpt lat="43.084820848241634" lon="11.559631790922865"><ele>281.0</ele><time>2026-04-08T09:56:46Z</time></trkpt><trkpt lat="43.08477627988513" lon="11.55976995963571"><ele>281.0</ele><time>2026-04-08T09:56:47Z</time></trkpt><trkpt lat="43.08476108211585" lon="11.559954705943168"><ele>281.0</ele><time>2026-04-08T09:56:48Z</time></trkpt><trkpt lat="43.08481205740286" lon="11.56010101292953"><ele>281.0</ele><time>2026-04-08T09:56:49Z</time></trkpt><trkpt lat="43.08489110175346" lon="11.560220477926404"><ele>281.0</ele><time>2026-04-08T09:56:50Z</time></trkpt><trkpt lat="43.08499432701112" lon="11.560306187940508"><ele>281.0</ele><time>2026-04-08T09:56:51Z</time></trkpt><trkpt lat="43.08509088818895" lon="11.560426602988429"><ele>281.0</ele><time>2026-04-08T09:56:52Z</time></trkpt><trkpt lat="43.08511053595881" lon="11.56057132509345"><ele>283.0</ele><time>2026-04-08T09:56:53Z</time></trkpt><trkpt lat="43.085104377778805" lon="11.56069236793407"><ele>285.0</ele><time>2026-04-08T09:56:54Z</time></trkpt><trkpt lat="43.08505245206894" lon="11.56078456098921"><ele>287.0</ele><time>2026-04-08T09:56:55Z</time></trkpt><trkpt lat="43.084975206231455" lon="11.560860052568744"><ele>289.0</ele><time>2026-04-08T09:56:56Z</time></trkpt><trkpt lat="43.084878129385785" lon="11.560942839408861"><ele>291.0</ele><time>2026-04-08T09:56:57Z</time></trkpt><trkpt lat="43.08481358980517" lon="11.561071383052521"><ele>291.5</ele><time>2026-04-08T09:56:58Z</time></trkpt><trkpt lat="43.084776037973846" lon="11.56118299595829"><ele>292.0</ele><time>2026-04-08T09:56:59Z</time></trkpt><trkpt lat="43.08478181939204" lon="11.561318900883087"><ele>292.5</ele><time>2026-04-08T09:57:00Z</time></trkpt><trkpt lat="43.084825530303675" lon="11.561477314272425"><ele>293.0</ele><time>2026-04-08T09:57:01Z</time></trkpt><trkpt lat="43.08492351137198" lon="11.561659460148547"><ele>294.25</ele><time>2026-04-08T09:57:02Z</time></trkpt><trkpt lat="43.08499110569802" lon="11.561818407587115"><ele>295.5</ele><time>2026-04-08T09:57:03Z</time></trkpt><trkpt lat="43.085052713696086" lon="11.561980582305468"><ele>296.75</ele><time>2026-04-08T09:57:04Z</time></trkpt><trkpt lat="43.085092423865106" lon="11.56216381684479"><ele>298.0</ele><time>2026-04-08T09:57:05Z</time></trkpt><trkpt lat="43.08511172155149" lon="11.562323481790624"><ele>298.75</ele><time>2026-04-08T09:57:06Z</time></trkpt><trkpt lat="43.08508313646947" lon="11.562461173842252"><ele>299.5</ele><time>2026-04-08T09:57:07Z</time></trkpt><trkpt lat="43.08504516354998" lon="11.562601939498318"><ele>300.25</ele><time>2026-04-08T09:57:08Z</time></trkpt><trkpt lat="43.08494879218886" lon="11.56271324830121"><ele>301.0</ele><time>2026-04-08T09:57:09Z</time></trkpt><trkpt lat="43.084839723324" lon="11.562808689571835"><ele>300.8</ele><time>2026-04-08T09:57:10Z</time></trkpt><trkpt lat="43.08473864813415" lon="11.562843864061296"><ele>300.6</ele><time>2026-04-08T09:57:11Z</time></trkpt><trkpt lat="43.08464400217908" lon="11.562851799391169"><ele>300.4</ele><time>2026-04-08T09:57:12Z</time></trkpt><trkpt lat="43.08453286672492" lon="11.562858701493058"><ele>300.2</ele><time>2026-04-08T09:57:13Z</time></trkpt><trkpt lat="43.084406823902086" lon="11.562865685241562"><ele>300.0</ele><time>2026-04-08T09:57:14Z</time></trkpt><trkpt lat="43.084255830900766" lon="11.562877368873018"><ele>300.0</ele><time>2026-04-08T09:57:15Z</time></trkpt><trkpt lat="43.084106846772634" lon="11.562900186099757"><ele>300.0</ele><time>2026-04-08T09:57:16Z</time></trkpt><trkpt lat="43.083978295819634" lon="11.562933494267906"><ele>300.0</ele><time>2026-04-08T09:57:17Z</time></trkpt><trkpt lat="43.0838608905454" lon="11.562992639089385"><ele>300.0</ele><time>2026-04-08T09:57:18Z</time></trkpt><trkpt lat="43.083739660547884" lon="11.56308616157357"><ele>300.3333333333333</ele><time>2026-04-08T09:57:19Z</time></trkpt><trkpt lat="43.0836212816281" lon="11.563215272851746"><ele>300.66666666666663</ele><time>2026-04-08T09:57:20Z</time></trkpt><trkpt lat="43.08350806077806" lon="11.563385722852775"><ele>301.0</ele><time>2026-04-08T09:57:21Z</time></trkpt><trkpt lat="43.08338572130916" lon="11.56357137119182"><ele>301.0</ele><time>2026-04-08T09:57:22Z</time></trkpt><trkpt lat="43.083279828598954" lon="11.563763915640537"><ele>301.0</ele><time>2026-04-08T09:57:23Z</time></trkpt><trkpt lat="43.08319500102233" lon="11.563939937439846"><ele>301.0</ele><time>2026-04-08T09:57:24Z</time></trkpt><trkpt lat="43.083134482231586" lon="11.564124110326283"><ele>301.0</ele><time>2026-04-08T09:57:25Z</time></trkpt><trkpt lat="43.08306652004499" lon="11.564304475133534"><ele>301.0</ele><time>2026-04-08T09:57:26Z</time></trkpt><trkpt lat="43.08299632028449" lon="11.5645159267401"><ele>301.0</ele><time>2026-04-08T09:57:27Z</time></trkpt><trkpt lat="43.08290875495017" lon="11.564718999371506"><ele>303.0</ele><time>2026-04-08T09:57:28Z</time></trkpt><trkpt lat="43.082837350392374" lon="11.564922262773074"><ele>305.0</ele><time>2026-04-08T09:57:29Z</time></trkpt><trkpt lat="43.082764207182365" lon="11.565108269073232"><ele>307.0</ele><time>2026-04-08T09:57:30Z</time></trkpt><trkpt lat="43.08268036745583" lon="11.565281743117099"><ele>307.3333333333333</ele><time>2026-04-08T09:57:31Z</time></trkpt><trkpt lat="43.08258071499633" lon="11.565445149389982"><ele>307.6666666666667</ele><time>2026-04-08T09:57:32Z</time></trkpt><trkpt lat="43.0824726563664" lon="11.565613115610141"><ele>308.0</ele><time>2026-04-08T09:57:33Z</time></trkpt><trkpt lat="43.08237068056362" lon="11.565804846355254"><ele>308.0</ele><time>2026-04-08T09:57:34Z</time></trkpt><trkpt lat="43.08225087092994" lon="11.565985408162112"><ele>308.0</ele><time>2026-04-08T09:57:35Z</time></trkpt><trkpt lat="43.082128376485784" lon="11.566174722277038"><ele>308.0</ele><time>2026-04-08T09:57:36Z</time></trkpt><trkpt lat="43.08201047681102" lon="11.566356427229293"><ele>311.6666666666667</ele><time>2026-04-08T09:57:37Z</time></trkpt><trkpt lat="43.08190648329679" lon="11.566522271221405"><ele>315.3333333333333</ele><time>2026-04-08T09:57:38Z</time></trkpt><trkpt lat="43.081813075565194" lon="11.566687021435579"><ele>319.0</ele><time>2026-04-08T09:57:39Z</time></trkpt><trkpt lat="43.08172801393279" lon="11.566860846540093"><ele>322.0</ele><time>2026-04-08T09:57:40Z</time></trkpt><trkpt lat="43.081663697922146" lon="11.567057029783536"><ele>325.0</ele><time>2026-04-08T09:57:41Z</time></trkpt><trkpt lat="43.08161682727412" lon="11.56726999338443"><ele>328.0</ele><time>2026-04-08T09:57:42Z</time></trkpt><trkpt lat="43.08158306431811" lon="11.567493872887251"><ele>323.5</ele><time>2026-04-08T09:57:43Z</time></trkpt><trkpt lat="43.08156053808077" lon="11.567691335954825"><ele>319.0</ele><time>2026-04-08T09:57:44Z</time></trkpt><trkpt lat="43.081549962820944" lon="11.56787662013064"><ele>314.5</ele><time>2026-04-08T09:57:45Z</time></trkpt><trkpt lat="43.08152049174114" lon="11.568074214896061"><ele>310.0</ele><time>2026-04-08T09:57:46Z</time></trkpt><trkpt lat="43.081503265794424" lon="11.568291323227749"><ele>310.0</ele><time>2026-04-08T09:57:47Z</time></trkpt><trkpt lat="43.0814763993833" lon="11.568505771147292"><ele>310.0</ele><time>2026-04-08T09:57:48Z</time></trkpt><trkpt lat="43.081441174510466" lon="11.568706131662527"><ele>310.0</ele><time>2026-04-08T09:57:49Z</time></trkpt><trkpt lat="43.08138740082005" lon="11.568905025910441"><ele>312.75</ele><time>2026-04-08T09:57:50Z</time></trkpt><trkpt lat="43.08131873917823" lon="11.569094736835394"><ele>315.5</ele><time>2026-04-08T09:57:51Z</time></trkpt><trkpt lat="43.081257746239146" lon="11.569268467798487"><ele>318.25</ele><time>2026-04-08T09:57:52Z</time></trkpt><trkpt lat="43.0812010175342" lon="11.569430052565906"><ele>321.0</ele><time>2026-04-08T09:57:53Z</time></trkpt><trkpt lat="43.08113957472593" lon="11.569596629109961"><ele>323.75</ele><time>2026-04-08T09:57:54Z</time></trkpt><trkpt lat="43.08107427355339" lon="11.569759833480846"><ele>326.5</ele><time>2026-04-08T09:57:55Z</time></trkpt><trkpt lat="43.081000333784864" lon="11.569915614064262"><ele>329.25</ele><time>2026-04-08T09:57:56Z</time></trkpt><trkpt lat="43.08092044071742" lon="11.570043366829225"><ele>332.0</ele><time>2026-04-08T09:57:57Z</time></trkpt><trkpt lat="43.08083049977566" lon="11.570142728492412"><ele>331.20000000000005</ele><time>2026-04-08T09:57:58Z</time></trkpt><trkpt lat="43.08073053295316" lon="11.570225115478015"><ele>330.4</ele><time>2026-04-08T09:57:59Z</time></trkpt><trkpt lat="43.08063727682984" lon="11.570285641645764"><ele>329.6</ele><time>2026-04-08T09:58:00Z</time></trkpt><trkpt lat="43.08054212307458" lon="11.570321409379511"><ele>328.79999999999995</ele><time>2026-04-08T09:58:01Z</time></trkpt><trkpt lat="43.0804623155592" lon="11.570305853570565"><ele>328.0</ele><time>2026-04-08T09:58:02Z</time></trkpt><trkpt lat="43.08038768133187" lon="11.570379858555974"><ele>329.8333333333333</ele><time>2026-04-08T09:58:03Z</time></trkpt><trkpt lat="43.0803198055711" lon="11.570413381959474"><ele>331.66666666666663</ele><time>2026-04-08T09:58:03.999Z</time></trkpt><trkpt lat="43.08025533594821" lon="11.570418799840548"><ele>333.5</ele><time>2026-04-08T09:58:05Z</time></trkpt><trkpt lat="43.08011603628562" lon="11.57045574169171"><ele>335.3333333333333</ele><time>2026-04-08T09:58:07Z</time></trkpt><trkpt lat="43.08003416026952" lon="11.570478909876586"><ele>337.1666666666667</ele><time>2026-04-08T09:58:08Z</time></trkpt><trkpt lat="43.07997333088562" lon="11.570518859480645"><ele>339.0</ele><time>2026-04-08T09:58:09Z</time></trkpt><trkpt lat="43.07985677188567" lon="11.570530014247037"><ele>339.0</ele><time>2026-04-08T09:58:11Z</time></trkpt><trkpt lat="43.079793459021936" lon="11.570552475827618"><ele>339.0</ele><time>2026-04-08T09:58:12Z</time></trkpt><trkpt lat="43.07973009689271" lon="11.570584962811276"><ele>339.0</ele><time>2026-04-08T09:58:13Z</time></trkpt><trkpt lat="43.079656175875584" lon="11.570699367676202"><ele>339.0</ele><time>2026-04-08T09:58:15Z</time></trkpt><trkpt lat="43.079681380032376" lon="11.570806609413857"><ele>339.0</ele><time>2026-04-08T09:58:16Z</time></trkpt><trkpt lat="43.07975034135564" lon="11.570864968414991"><ele>339.0</ele><time>2026-04-08T09:58:17Z</time></trkpt><trkpt lat="43.07983401625447" lon="11.57084937643306"><ele>339.0</ele><time>2026-04-08T09:58:18Z</time></trkpt><trkpt lat="43.079902273263734" lon="11.570854786121455"><ele>339.0</ele><time>2026-04-08T09:58:19Z</time></trkpt><trkpt lat="43.07998089702986" lon="11.570870881584817"><ele>339.0</ele><time>2026-04-08T09:58:20Z</time></trkpt><trkpt lat="43.08006481284111" lon="11.570894141974703"><ele>339.0</ele><time>2026-04-08T09:58:21Z</time></trkpt><trkpt lat="43.080168909012755" lon="11.570938602315907"><ele>339.0</ele><time>2026-04-08T09:58:22Z</time></trkpt><trkpt lat="43.08026555255109" lon="11.570991202376227"><ele>339.0</ele><time>2026-04-08T09:58:23Z</time></trkpt><trkpt lat="43.08034500223292" lon="11.57104437323705"><ele>338.6</ele><time>2026-04-08T09:58:24Z</time></trkpt><trkpt lat="43.080429642766674" lon="11.57110726729011"><ele>338.2</ele><time>2026-04-08T09:58:25Z</time></trkpt><trkpt lat="43.080522374818415" lon="11.571166823627498"><ele>337.8</ele><time>2026-04-08T09:58:26Z</time></trkpt><trkpt lat="43.08061986745004" lon="11.571230592760372"><ele>337.40000000000003</ele><time>2026-04-08T09:58:27Z</time></trkpt><trkpt lat="43.080718214252485" lon="11.571288375314095"><ele>337.0</ele><time>2026-04-08T09:58:28Z</time></trkpt><trkpt lat="43.08080232944254" lon="11.571350595680835"><ele>338.6</ele><time>2026-04-08T09:58:29Z</time></trkpt><trkpt lat="43.080884371409894" lon="11.571418333148344"><ele>340.20000000000005</ele><time>2026-04-08T09:58:30Z</time></trkpt><trkpt lat="43.08096189347555" lon="11.571483654941433"><ele>341.8</ele><time>2026-04-08T09:58:31Z</time></trkpt><trkpt lat="43.08104039283494" lon="11.571541229255102"><ele>343.4</ele><time>2026-04-08T09:58:32Z</time></trkpt><trkpt lat="43.08111790030038" lon="11.571604733177972"><ele>345.0</ele><time>2026-04-08T09:58:33Z</time></trkpt><trkpt lat="43.08119182393759" lon="11.57167190764377"><ele>345.0</ele><time>2026-04-08T09:58:34Z</time></trkpt><trkpt lat="43.0812661187026" lon="11.57173646365602"><ele>345.0</ele><time>2026-04-08T09:58:35Z</time></trkpt><trkpt lat="43.08133382497127" lon="11.571795964562192"><ele>345.0</ele><time>2026-04-08T09:58:36Z</time></trkpt><trkpt lat="43.08140285437714" lon="11.571847287788152"><ele>345.0</ele><time>2026-04-08T09:58:37Z</time></trkpt><trkpt lat="43.081467929237455" lon="11.571892989264196"><ele>345.0</ele><time>2026-04-08T09:58:38Z</time></trkpt><trkpt lat="43.081542263344794" lon="11.571938991058468"><ele>345.0</ele><time>2026-04-08T09:58:40Z</time></trkpt><trkpt lat="43.08161409901028" lon="11.57199374027464"><ele>345.8</ele><time>2026-04-08T09:58:43Z</time></trkpt><trkpt lat="43.08167636257537" lon="11.57208864042412"><ele>346.6</ele><time>2026-04-08T10:00:24Z</time></trkpt><trkpt lat="43.08176729970101" lon="11.572218387986675"><ele>347.4</ele><time>2026-04-08T10:00:26Z</time></trkpt><trkpt lat="43.08181888468661" lon="11.572309756781683"><ele>348.2</ele><time>2026-04-08T10:00:27Z</time></trkpt><trkpt lat="43.08186122017139" lon="11.572395636638678"><ele>349.0</ele><time>2026-04-08T10:00:28Z</time></trkpt><trkpt lat="43.08191129829323" lon="11.57250968626424"><ele>349.0</ele><time>2026-04-08T10:00:29Z</time></trkpt><trkpt lat="43.081968480875005" lon="11.572640674073517"><ele>349.0</ele><time>2026-04-08T10:00:30Z</time></trkpt><trkpt lat="43.082038645138454" lon="11.572799036679475"><ele>349.0</ele><time>2026-04-08T10:00:31Z</time></trkpt><trkpt lat="43.08211373648961" lon="11.572969219284063"><ele>349.0</ele><time>2026-04-08T10:00:32Z</time></trkpt><trkpt lat="43.08218052216008" lon="11.57312292977588"><ele>345.3333333333333</ele><time>2026-04-08T10:00:33Z</time></trkpt><trkpt lat="43.08225071615345" lon="11.573291103896656"><ele>341.6666666666667</ele><time>2026-04-08T10:00:34Z</time></trkpt><trkpt lat="43.082327492990856" lon="11.573475806974491"><ele>338.0</ele><time>2026-04-08T10:00:35Z</time></trkpt><trkpt lat="43.082411765425" lon="11.573677018924899"><ele>342.6666666666667</ele><time>2026-04-08T10:00:36Z</time></trkpt><trkpt lat="43.08250251874698" lon="11.573883090968135"><ele>347.3333333333333</ele><time>2026-04-08T10:00:37Z</time></trkpt><trkpt lat="43.082591570943364" lon="11.574094375398992"><ele>352.0</ele><time>2026-04-08T10:00:38Z</time></trkpt><trkpt lat="43.082680499957796" lon="11.574308550408025"><ele>350.3333333333333</ele><time>2026-04-08T10:00:39Z</time></trkpt><trkpt lat="43.08277691573968" lon="11.574536044855297"><ele>348.6666666666667</ele><time>2026-04-08T10:00:40Z</time></trkpt><trkpt lat="43.082872244155226" lon="11.574763983273467"><ele>347.0</ele><time>2026-04-08T10:00:41Z</time></trkpt><trkpt lat="43.08295934352009" lon="11.574973239856968"><ele>347.0</ele><time>2026-04-08T10:00:42Z</time></trkpt><trkpt lat="43.083037066904154" lon="11.575163138987298"><ele>347.0</ele><time>2026-04-08T10:00:43Z</time></trkpt><trkpt lat="43.083105238101545" lon="11.575329590103468"><ele>347.0</ele><time>2026-04-08T10:00:44Z</time></trkpt><trkpt lat="43.083179489500026" lon="11.575497499003495"><ele>347.0</ele><time>2026-04-08T10:00:45Z</time></trkpt><trkpt lat="43.08325808701098" lon="11.575681019897361"><ele>347.75</ele><time>2026-04-08T10:00:46Z</time></trkpt><trkpt lat="43.08333442986677" lon="11.575851631095215"><ele>348.5</ele><time>2026-04-08T10:00:47Z</time></trkpt><trkpt lat="43.08340229129042" lon="11.576007503145476"><ele>349.25</ele><time>2026-04-08T10:00:48Z</time></trkpt><trkpt lat="43.08346421451474" lon="11.576150713194975"><ele>350.0</ele><time>2026-04-08T10:00:49Z</time></trkpt><trkpt lat="43.0835185786458" lon="11.57628362086223"><ele>350.0</ele><time>2026-04-08T10:00:50Z</time></trkpt><trkpt lat="43.08356538557073" lon="11.5764033459295"><ele>350.0</ele><time>2026-04-08T10:00:51Z</time></trkpt><trkpt lat="43.083606816512706" lon="11.576516205690785"><ele>350.0</ele><time>2026-04-08T10:00:52Z</time></trkpt><trkpt lat="43.08364327424481" lon="11.576618744571812"><ele>350.0</ele><time>2026-04-08T10:00:53Z</time></trkpt><trkpt lat="43.083671530407386" lon="11.57670856360249"><ele>350.0</ele><time>2026-04-08T10:00:54Z</time></trkpt><trkpt lat="43.08369567039024" lon="11.576834433795502"><ele>350.0</ele><time>2026-04-08T10:00:56Z</time></trkpt><trkpt lat="43.083718235990034" lon="11.57694492497237"><ele>350.0</ele><time>2026-04-08T10:01:00Z</time></trkpt><trkpt lat="43.08370049078799" lon="11.576861228974185"><ele>350.0</ele><time>2026-04-08T10:01:14Z</time></trkpt><trkpt lat="43.083682529035656" lon="11.576777786021012"><ele>350.0</ele><time>2026-04-08T10:01:15Z</time></trkpt><trkpt lat="43.08367224144916" lon="11.576654201977593"><ele>350.0</ele><time>2026-04-08T10:01:17Z</time></trkpt><trkpt lat="43.08366036366259" lon="11.576563004246548"><ele>350.0</ele><time>2026-04-08T10:01:21Z</time></trkpt><trkpt lat="43.083615364291184" lon="11.576474251358668"><ele>350.0</ele><time>2026-04-08T10:02:02.999Z</time></trkpt><trkpt lat="43.08356509805672" lon="11.576344292010665"><ele>350.0</ele><time>2026-04-08T10:02:04.999Z</time></trkpt><trkpt lat="43.08353577849811" lon="11.576264638755523"><ele>350.0</ele><time>2026-04-08T10:02:05.999Z</time></trkpt><trkpt lat="43.08349621373957" lon="11.576168607821554"><ele>350.0</ele><time>2026-04-08T10:02:06.999Z</time></trkpt><trkpt lat="43.08344604510124" lon="11.57605550710251"><ele>350.0</ele><time>2026-04-08T10:02:07.999Z</time></trkpt><trkpt lat="43.083413832044" lon="11.575972710865729"><ele>350.0</ele><time>2026-04-08T10:02:08.999Z</time></trkpt><trkpt lat="43.083366955194954" lon="11.575846919429729"><ele>350.0</ele><time>2026-04-08T10:02:10.999Z</time></trkpt><trkpt lat="43.0833265950616" lon="11.57574977584449"><ele>350.6666666666667</ele><time>2026-04-08T10:02:12.999Z</time></trkpt><trkpt lat="43.0832827947754" lon="11.57567133955539"><ele>351.33333333333337</ele><time>2026-04-08T10:07:50Z</time></trkpt><trkpt lat="43.08331368395243" lon="11.57575610436259"><ele>352.0</ele><time>2026-04-08T10:08:04.999Z</time></trkpt><trkpt lat="43.08336599021627" lon="11.575874756860323"><ele>352.6666666666667</ele><time>2026-04-08T10:08:07.999Z</time></trkpt><trkpt lat="43.083410843659145" lon="11.575972965849495"><ele>353.3333333333333</ele><time>2026-04-08T10:08:08.999Z</time></trkpt><trkpt lat="43.08342251506036" lon="11.57606871000204"><ele>354.0</ele><time>2026-04-08T10:08:09.999Z</time></trkpt><trkpt lat="43.08346202856632" lon="11.576164165585096"><ele>353.2</ele><time>2026-04-08T10:08:10.999Z</time></trkpt><trkpt lat="43.08350170620009" lon="11.576260017614572"><ele>352.4</ele><time>2026-04-08T10:08:11.999Z</time></trkpt><trkpt lat="43.083543477617205" lon="11.576362760241153"><ele>351.6</ele><time>2026-04-08T10:08:12.999Z</time></trkpt><trkpt lat="43.083584996155736" lon="11.576472418346263"><ele>350.8</ele><time>2026-04-08T10:08:13.999Z</time></trkpt><trkpt lat="43.083639248208875" lon="11.576588464381304"><ele>350.0</ele><time>2026-04-08T10:08:14.999Z</time></trkpt><trkpt lat="43.08366503834965" lon="11.57672108975188"><ele>350.0</ele><time>2026-04-08T10:08:15.999Z</time></trkpt><trkpt lat="43.08369695149173" lon="11.576846694194026"><ele>350.0</ele><time>2026-04-08T10:08:16.999Z</time></trkpt><trkpt lat="43.08374481212982" lon="11.576975963196896"><ele>350.0</ele><time>2026-04-08T10:08:17.999Z</time></trkpt><trkpt lat="43.08377868936013" lon="11.57711961322566"><ele>350.0</ele><time>2026-04-08T10:08:18.999Z</time></trkpt><trkpt lat="43.08381492733241" lon="11.577270841312005"><ele>350.0</ele><time>2026-04-08T10:08:19.999Z</time></trkpt><trkpt lat="43.083848970601686" lon="11.577437690313312"><ele>350.0</ele><time>2026-04-08T10:08:20.999Z</time></trkpt><trkpt lat="43.08389064379646" lon="11.577626437142705"><ele>350.0</ele><time>2026-04-08T10:08:21.999Z</time></trkpt><trkpt lat="43.08393197854633" lon="11.577804452913387"><ele>350.0</ele><time>2026-04-08T10:08:22.999Z</time></trkpt><trkpt lat="43.08396570792654" lon="11.577952909074474"><ele>350.0</ele><time>2026-04-08T10:08:23.999Z</time></trkpt><trkpt lat="43.083993847651136" lon="11.578088697302706"><ele>350.0</ele><time>2026-04-08T10:08:24.999Z</time></trkpt><trkpt lat="43.08402715281741" lon="11.578235262741257"><ele>350.0</ele><time>2026-04-08T10:08:25.999Z</time></trkpt><trkpt lat="43.0840575769937" lon="11.578379220211282"><ele>350.0</ele><time>2026-04-08T10:08:26.999Z</time></trkpt><trkpt lat="43.08409077943435" lon="11.578536167095072"><ele>350.0</ele><time>2026-04-08T10:08:27.999Z</time></trkpt><trkpt lat="43.0841249931464" lon="11.578695988962929"><ele>353.0</ele><time>2026-04-08T10:08:28.999Z</time></trkpt><trkpt lat="43.08416681655384" lon="11.578849505293801"><ele>356.0</ele><time>2026-04-08T10:08:29.999Z</time></trkpt><trkpt lat="43.08419806083387" lon="11.578998333973281"><ele>359.0</ele><time>2026-04-08T10:08:30.999Z</time></trkpt><trkpt lat="43.0842495683206" lon="11.57912682641966"><ele>362.0</ele><time>2026-04-08T10:08:31.999Z</time></trkpt><trkpt lat="43.08432147185118" lon="11.579265578691198"><ele>362.0</ele><time>2026-04-08T10:08:32.999Z</time></trkpt><trkpt lat="43.084415999446925" lon="11.579409935338555"><ele>362.0</ele><time>2026-04-08T10:08:33.999Z</time></trkpt><trkpt lat="43.084484781372375" lon="11.579554947506658"><ele>362.0</ele><time>2026-04-08T10:08:35Z</time></trkpt><trkpt lat="43.08454549667707" lon="11.579668620280213"><ele>362.0</ele><time>2026-04-08T10:08:36Z</time></trkpt><trkpt lat="43.08460801691972" lon="11.57978567202492"><ele>364.0</ele><time>2026-04-08T10:08:37Z</time></trkpt><trkpt lat="43.08468265126575" lon="11.579920997563267"><ele>366.0</ele><time>2026-04-08T10:08:38Z</time></trkpt><trkpt lat="43.0847644262059" lon="11.580061044133455"><ele>368.0</ele><time>2026-04-08T10:08:39Z</time></trkpt><trkpt lat="43.08483039489942" lon="11.580182111723751"><ele>370.0</ele><time>2026-04-08T10:08:40Z</time></trkpt><trkpt lat="43.08487628681796" lon="11.58029223153214"><ele>370.66666666666663</ele><time>2026-04-08T10:08:41Z</time></trkpt><trkpt lat="43.08490921552192" lon="11.580384205097213"><ele>371.3333333333333</ele><time>2026-04-08T10:08:42Z</time></trkpt><trkpt lat="43.084939625197315" lon="11.580482587257192"><ele>372.0</ele><time>2026-04-08T10:08:43Z</time></trkpt><trkpt lat="43.08497740395891" lon="11.580571162410406"><ele>372.6666666666667</ele><time>2026-04-08T10:08:44Z</time></trkpt><trkpt lat="43.08500879511868" lon="11.580662542724335"><ele>373.33333333333337</ele><time>2026-04-08T10:08:45Z</time></trkpt><trkpt lat="43.08503531766409" lon="11.580760648994989"><ele>374.0</ele><time>2026-04-08T10:08:46Z</time></trkpt><trkpt lat="43.085059317007754" lon="11.58086246147644"><ele>374.1428571428571</ele><time>2026-04-08T10:08:47Z</time></trkpt><trkpt lat="43.085072236723576" lon="11.580958909547503"><ele>374.28571428571433</ele><time>2026-04-08T10:08:48Z</time></trkpt><trkpt lat="43.085093517203454" lon="11.581040593812382"><ele>374.42857142857144</ele><time>2026-04-08T10:08:49Z</time></trkpt><trkpt lat="43.08511923922278" lon="11.581139327613535"><ele>374.57142857142856</ele><time>2026-04-08T10:08:50Z</time></trkpt><trkpt lat="43.085146118816276" lon="11.581241859628284"><ele>374.71428571428567</ele><time>2026-04-08T10:08:51Z</time></trkpt><trkpt lat="43.085172118984865" lon="11.581339778175757"><ele>374.8571428571429</ele><time>2026-04-08T10:08:52Z</time></trkpt><trkpt lat="43.08520404105035" lon="11.581437525754058"><ele>375.0</ele><time>2026-04-08T10:08:53Z</time></trkpt><trkpt lat="43.085253072734645" lon="11.581526168468345"><ele>374.3333333333333</ele><time>2026-04-08T10:08:54Z</time></trkpt><trkpt lat="43.085273989063154" lon="11.581625443507773"><ele>373.6666666666667</ele><time>2026-04-08T10:08:55Z</time></trkpt><trkpt lat="43.08531825071406" lon="11.581720647661946"><ele>373.0</ele><time>2026-04-08T10:08:56Z</time></trkpt><trkpt lat="43.0853662627145" lon="11.58180784957569"><ele>372.33333333333337</ele><time>2026-04-08T10:08:57Z</time></trkpt><trkpt lat="43.085420782312546" lon="11.58189251181769"><ele>371.6666666666667</ele><time>2026-04-08T10:08:58Z</time></trkpt><trkpt lat="43.08548772254493" lon="11.581963634310023"><ele>371.0</ele><time>2026-04-08T10:08:59Z</time></trkpt><trkpt lat="43.08554728509541" lon="11.582047516281833"><ele>371.6666666666667</ele><time>2026-04-08T10:09:00Z</time></trkpt><trkpt lat="43.085601412017844" lon="11.582129168664286"><ele>372.33333333333337</ele><time>2026-04-08T10:09:01Z</time></trkpt><trkpt lat="43.085657483966784" lon="11.582206257152897"><ele>373.0</ele><time>2026-04-08T10:09:02Z</time></trkpt><trkpt lat="43.08570892063533" lon="11.582292152934004"><ele>373.6666666666667</ele><time>2026-04-08T10:09:03Z</time></trkpt><trkpt lat="43.08575522916174" lon="11.58238237849351"><ele>374.3333333333333</ele><time>2026-04-08T10:09:04Z</time></trkpt><trkpt lat="43.085782525061866" lon="11.582485335817061"><ele>375.0</ele><time>2026-04-08T10:09:05Z</time></trkpt><trkpt lat="43.08581750207772" lon="11.582559825406552"><ele>375.0</ele><time>2026-04-08T10:09:06Z</time></trkpt><trkpt lat="43.085868577887744" lon="11.582621582108253"><ele>375.0</ele><time>2026-04-08T10:09:07Z</time></trkpt><trkpt lat="43.0859348955419" lon="11.582677353783978"><ele>375.0</ele><time>2026-04-08T10:09:08Z</time></trkpt><trkpt lat="43.08600321942261" lon="11.582741970273773"><ele>375.0</ele><time>2026-04-08T10:09:09Z</time></trkpt><trkpt lat="43.08607784887327" lon="11.582812550255094"><ele>375.0</ele><time>2026-04-08T10:09:10Z</time></trkpt><trkpt lat="43.086146449744625" lon="11.582877428786139"><ele>375.0</ele><time>2026-04-08T10:09:11Z</time></trkpt><trkpt lat="43.08619878809747" lon="11.582926927205646"><ele>371.4</ele><time>2026-04-08T10:09:12Z</time></trkpt><trkpt lat="43.08625966538082" lon="11.582984501173824"><ele>367.8</ele><time>2026-04-08T10:09:13Z</time></trkpt><trkpt lat="43.0863189010117" lon="11.583043938708396"><ele>364.20000000000005</ele><time>2026-04-08T10:09:14Z</time></trkpt><trkpt lat="43.08642562751" lon="11.583138010218505"><ele>360.6</ele><time>2026-04-08T10:09:16Z</time></trkpt><trkpt lat="43.08652396317698" lon="11.583228890419944"><ele>357.0</ele><time>2026-04-08T10:09:18Z</time></trkpt><trkpt lat="43.08657668293546" lon="11.58327697600668"><ele>359.0</ele><time>2026-04-08T10:09:19Z</time></trkpt><trkpt lat="43.08664257920529" lon="11.583331071812182"><ele>361.0</ele><time>2026-04-08T10:09:20Z</time></trkpt><trkpt lat="43.086700580971446" lon="11.583388651602958"><ele>363.0</ele><time>2026-04-08T10:09:21Z</time></trkpt><trkpt lat="43.0867594868484" lon="11.583436924330698"><ele>365.0</ele><time>2026-04-08T10:09:22Z</time></trkpt><trkpt lat="43.086817938473345" lon="11.583477954745785"><ele>367.0</ele><time>2026-04-08T10:09:23Z</time></trkpt><trkpt lat="43.08687733635102" lon="11.583507440325585"><ele>369.0</ele><time>2026-04-08T10:09:24Z</time></trkpt><trkpt lat="43.08698683764087" lon="11.58359587164512"><ele>369.0</ele><time>2026-04-08T10:09:26Z</time></trkpt><trkpt lat="43.08705490663735" lon="11.583653082260675"><ele>369.0</ele><time>2026-04-08T10:09:27Z</time></trkpt><trkpt lat="43.08712678494779" lon="11.583716752946652"><ele>369.0</ele><time>2026-04-08T10:09:28Z</time></trkpt><trkpt lat="43.0872019387201" lon="11.583766063461914"><ele>369.0</ele><time>2026-04-08T10:09:29Z</time></trkpt><trkpt lat="43.087274633062385" lon="11.58383031336769"><ele>369.0</ele><time>2026-04-08T10:09:30Z</time></trkpt><trkpt lat="43.087354764924555" lon="11.58389109145209"><ele>369.0</ele><time>2026-04-08T10:09:31Z</time></trkpt><trkpt lat="43.087433671529084" lon="11.583954153974299"><ele>366.2</ele><time>2026-04-08T10:09:32Z</time></trkpt><trkpt lat="43.08751187643512" lon="11.58403077379361"><ele>363.4</ele><time>2026-04-08T10:09:33Z</time></trkpt><trkpt lat="43.087609510052054" lon="11.584108447787662"><ele>360.6</ele><time>2026-04-08T10:09:34Z</time></trkpt><trkpt lat="43.087715260296015" lon="11.584189383743286"><ele>357.8</ele><time>2026-04-08T10:09:35Z</time></trkpt><trkpt lat="43.08780405806355" lon="11.584269749912016"><ele>355.0</ele><time>2026-04-08T10:09:36Z</time></trkpt><trkpt lat="43.08789008324772" lon="11.584342198752985"><ele>355.0</ele><time>2026-04-08T10:09:37Z</time></trkpt><trkpt lat="43.087988082400464" lon="11.584418023234317"><ele>355.0</ele><time>2026-04-08T10:09:38Z</time></trkpt><trkpt lat="43.0880768620638" lon="11.584491491522918"><ele>355.0</ele><time>2026-04-08T10:09:39Z</time></trkpt><trkpt lat="43.088159727208094" lon="11.58456731565584"><ele>355.0</ele><time>2026-04-08T10:09:40Z</time></trkpt><trkpt lat="43.08825177472665" lon="11.584632808874405"><ele>355.0</ele><time>2026-04-08T10:09:41Z</time></trkpt><trkpt lat="43.088347834217664" lon="11.584684036736425"><ele>356.0</ele><time>2026-04-08T10:09:42Z</time></trkpt><trkpt lat="43.08843500119912" lon="11.584741666052128"><ele>357.0</ele><time>2026-04-08T10:09:43Z</time></trkpt><trkpt lat="43.0885100375521" lon="11.584778133572838"><ele>358.0</ele><time>2026-04-08T10:09:44Z</time></trkpt><trkpt lat="43.088596493453835" lon="11.584820179879976"><ele>359.0</ele><time>2026-04-08T10:09:45Z</time></trkpt><trkpt lat="43.088676144596796" lon="11.584886489867978"><ele>360.0</ele><time>2026-04-08T10:09:46Z</time></trkpt><trkpt lat="43.08877085624518" lon="11.584963608135055"><ele>360.0</ele><time>2026-04-08T10:09:47Z</time></trkpt><trkpt lat="43.088873679920944" lon="11.585049547598208"><ele>360.0</ele><time>2026-04-08T10:09:48Z</time></trkpt><trkpt lat="43.08898448728029" lon="11.585148656943913"><ele>360.0</ele><time>2026-04-08T10:09:49Z</time></trkpt><trkpt lat="43.0890981211271" lon="11.585250536086614"><ele>360.0</ele><time>2026-04-08T10:09:50Z</time></trkpt><trkpt lat="43.08919806007068" lon="11.585330469310728"><ele>362.0</ele><time>2026-04-08T10:09:51Z</time></trkpt><trkpt lat="43.08927810448879" lon="11.585403077879729"><ele>364.0</ele><time>2026-04-08T10:09:52Z</time></trkpt><trkpt lat="43.089365441755334" lon="11.585480009707052"><ele>366.0</ele><time>2026-04-08T10:09:52.999Z</time></trkpt><trkpt lat="43.08945770562913" lon="11.585562542065695"><ele>368.0</ele><time>2026-04-08T10:09:53.999Z</time></trkpt><trkpt lat="43.0895508465107" lon="11.585642337159488"><ele>370.0</ele><time>2026-04-08T10:09:54.999Z</time></trkpt><trkpt lat="43.08963444757215" lon="11.585707979039471"><ele>370.0</ele><time>2026-04-08T10:09:55.999Z</time></trkpt><trkpt lat="43.08971768408848" lon="11.585776270679244"><ele>370.0</ele><time>2026-04-08T10:09:56.999Z</time></trkpt><trkpt lat="43.08981247784261" lon="11.585865130108198"><ele>370.0</ele><time>2026-04-08T10:09:57.999Z</time></trkpt><trkpt lat="43.089906247339876" lon="11.585955196735567"><ele>370.0</ele><time>2026-04-08T10:09:58.999Z</time></trkpt><trkpt lat="43.089991343302174" lon="11.586033488705281"><ele>370.0</ele><time>2026-04-08T10:09:59.999Z</time></trkpt><trkpt lat="43.090070135198125" lon="11.586106795036397"><ele>372.0</ele><time>2026-04-08T10:10:00.999Z</time></trkpt><trkpt lat="43.0901554580206" lon="11.586196680131348"><ele>374.0</ele><time>2026-04-08T10:10:01.999Z</time></trkpt><trkpt lat="43.09021850170479" lon="11.586332004733192"><ele>376.0</ele><time>2026-04-08T10:10:02.999Z</time></trkpt><trkpt lat="43.090298410280674" lon="11.58645799840927"><ele>378.0</ele><time>2026-04-08T10:10:03.999Z</time></trkpt><trkpt lat="43.090374751185614" lon="11.586624112906994"><ele>378.0</ele><time>2026-04-08T10:10:04.999Z</time></trkpt><trkpt lat="43.09046759868549" lon="11.586792169216793"><ele>378.0</ele><time>2026-04-08T10:10:05.999Z</time></trkpt><trkpt lat="43.090545305364124" lon="11.586941003286"><ele>378.0</ele><time>2026-04-08T10:10:06.999Z</time></trkpt><trkpt lat="43.090598989413955" lon="11.587087241276729"><ele>378.0</ele><time>2026-04-08T10:10:07.999Z</time></trkpt><trkpt lat="43.090663788282576" lon="11.587222216740924"><ele>379.5</ele><time>2026-04-08T10:10:08.999Z</time></trkpt><trkpt lat="43.09073763032355" lon="11.58735518685636"><ele>381.0</ele><time>2026-04-08T10:10:09.999Z</time></trkpt><trkpt lat="43.09080652241588" lon="11.58747721202753"><ele>382.5</ele><time>2026-04-08T10:10:10.999Z</time></trkpt><trkpt lat="43.09087232357611" lon="11.587598800261365"><ele>384.0</ele><time>2026-04-08T10:10:11.999Z</time></trkpt><trkpt lat="43.09095121849123" lon="11.587706071141907"><ele>381.2</ele><time>2026-04-08T10:10:12.999Z</time></trkpt><trkpt lat="43.091036361728136" lon="11.587784785984201"><ele>378.4</ele><time>2026-04-08T10:10:13.999Z</time></trkpt><trkpt lat="43.09112768274194" lon="11.587851617712674"><ele>375.6</ele><time>2026-04-08T10:10:14.999Z</time></trkpt><trkpt lat="43.09123278917999" lon="11.587912504327644"><ele>372.8</ele><time>2026-04-08T10:10:15.999Z</time></trkpt><trkpt lat="43.09134056220456" lon="11.587969991460602"><ele>370.0</ele><time>2026-04-08T10:10:16.999Z</time></trkpt><trkpt lat="43.09144288701724" lon="11.588025044767539"><ele>370.0</ele><time>2026-04-08T10:10:17.999Z</time></trkpt><trkpt lat="43.091541963771796" lon="11.588082008038446"><ele>370.0</ele><time>2026-04-08T10:10:18.999Z</time></trkpt><trkpt lat="43.0916390835587" lon="11.588144804580049"><ele>370.0</ele><time>2026-04-08T10:10:19.999Z</time></trkpt><trkpt lat="43.09173373838681" lon="11.588216760115925"><ele>370.0</ele><time>2026-04-08T10:10:20.999Z</time></trkpt><trkpt lat="43.09182156034219" lon="11.58827712102301"><ele>370.0</ele><time>2026-04-08T10:10:21.999Z</time></trkpt><trkpt lat="43.09190924635411" lon="11.588334229010632"><ele>369.2</ele><time>2026-04-08T10:10:22.999Z</time></trkpt><trkpt lat="43.09200599494461" lon="11.588397225216337"><ele>368.4</ele><time>2026-04-08T10:10:23.999Z</time></trkpt><trkpt lat="43.09210345526837" lon="11.588457926637329"><ele>367.6</ele><time>2026-04-08T10:10:24.999Z</time></trkpt><trkpt lat="43.092185899622095" lon="11.588509913174361"><ele>366.8</ele><time>2026-04-08T10:10:25.999Z</time></trkpt><trkpt lat="43.09226320636059" lon="11.588555440447447"><ele>366.0</ele><time>2026-04-08T10:10:26.999Z</time></trkpt><trkpt lat="43.09233434209387" lon="11.588600689374525"><ele>366.0</ele><time>2026-04-08T10:10:27.999Z</time></trkpt><trkpt lat="43.09240354578707" lon="11.588642809754427"><ele>366.0</ele><time>2026-04-08T10:10:28.999Z</time></trkpt><trkpt lat="43.09247461643096" lon="11.588687203324561"><ele>366.0</ele><time>2026-04-08T10:10:29.999Z</time></trkpt><trkpt lat="43.09253746781299" lon="11.588726624090869"><ele>366.0</ele><time>2026-04-08T10:10:30.999Z</time></trkpt><trkpt lat="43.09259380120622" lon="11.588768767907997"><ele>366.0</ele><time>2026-04-08T10:10:31.999Z</time></trkpt><trkpt lat="43.09265670967592" lon="11.58883410295553"><ele>366.0</ele><time>2026-04-08T10:10:32.999Z</time></trkpt><trkpt lat="43.09272130164051" lon="11.588897866759613"><ele>366.0</ele><time>2026-04-08T10:10:33.999Z</time></trkpt><trkpt lat="43.09279740994318" lon="11.588966825459815"><ele>364.4</ele><time>2026-04-08T10:10:34.999Z</time></trkpt><trkpt lat="43.09286892393083" lon="11.58903780150393"><ele>362.8</ele><time>2026-04-08T10:10:35.999Z</time></trkpt><trkpt lat="43.092944067688144" lon="11.589131493082812"><ele>361.2</ele><time>2026-04-08T10:10:36.999Z</time></trkpt><trkpt lat="43.093020760095754" lon="11.589234314478189"><ele>359.59999999999997</ele><time>2026-04-08T10:10:37.999Z</time></trkpt><trkpt lat="43.09309625311147" lon="11.58934653233282"><ele>358.0</ele><time>2026-04-08T10:10:38.999Z</time></trkpt><trkpt lat="43.093151279500574" lon="11.58947852657008"><ele>356.2</ele><time>2026-04-08T10:10:39.999Z</time></trkpt><trkpt lat="43.09321219589938" lon="11.589598572091012"><ele>354.4</ele><time>2026-04-08T10:10:41Z</time></trkpt><trkpt lat="43.09327956921258" lon="11.589703187469688"><ele>352.59999999999997</ele><time>2026-04-08T10:10:42Z</time></trkpt><trkpt lat="43.09333300690995" lon="11.589824539606406"><ele>350.79999999999995</ele><time>2026-04-08T10:10:43Z</time></trkpt><trkpt lat="43.093390915683464" lon="11.589961429248376"><ele>349.0</ele><time>2026-04-08T10:10:44Z</time></trkpt><trkpt lat="43.093446911348664" lon="11.590090917277484"><ele>348.79999999999995</ele><time>2026-04-08T10:10:45Z</time></trkpt><trkpt lat="43.093508775442" lon="11.590199471772058"><ele>348.59999999999997</ele><time>2026-04-08T10:10:46Z</time></trkpt><trkpt lat="43.093577049177036" lon="11.590302469999935"><ele>348.4</ele><time>2026-04-08T10:10:47Z</time></trkpt><trkpt lat="43.09365307695367" lon="11.590392573797041"><ele>348.2</ele><time>2026-04-08T10:10:48Z</time></trkpt><trkpt lat="43.09373800518507" lon="11.590479271382478"><ele>348.0</ele><time>2026-04-08T10:10:49Z</time></trkpt><trkpt lat="43.093836741181725" lon="11.590566937064045"><ele>348.59999999999997</ele><time>2026-04-08T10:10:50Z</time></trkpt><trkpt lat="43.09393284474114" lon="11.590657622189324"><ele>349.2</ele><time>2026-04-08T10:10:51Z</time></trkpt><trkpt lat="43.09401907566249" lon="11.590739030071182"><ele>349.8</ele><time>2026-04-08T10:10:52Z</time></trkpt><trkpt lat="43.094096591743735" lon="11.590818214241185"><ele>350.4</ele><time>2026-04-08T10:10:53Z</time></trkpt><trkpt lat="43.0941685489807" lon="11.590889239466367"><ele>351.0</ele><time>2026-04-08T10:10:54Z</time></trkpt><trkpt lat="43.094236841729455" lon="11.590952226683598"><ele>351.0</ele><time>2026-04-08T10:10:55Z</time></trkpt><trkpt lat="43.094302438773575" lon="11.591021578171485"><ele>351.0</ele><time>2026-04-08T10:10:56Z</time></trkpt><trkpt lat="43.09436997081138" lon="11.59111077536161"><ele>351.0</ele><time>2026-04-08T10:10:57Z</time></trkpt><trkpt lat="43.09441838070974" lon="11.591247574511966"><ele>351.0</ele><time>2026-04-08T10:10:58Z</time></trkpt><trkpt lat="43.09445812039947" lon="11.591395608124614"><ele>351.0</ele><time>2026-04-08T10:10:59Z</time></trkpt><trkpt lat="43.09450183686854" lon="11.59154791335509"><ele>347.5</ele><time>2026-04-08T10:11:00Z</time></trkpt><trkpt lat="43.0945671128028" lon="11.591691688334882"><ele>344.0</ele><time>2026-04-08T10:11:01Z</time></trkpt><trkpt lat="43.09462673503729" lon="11.591858710162729"><ele>340.5</ele><time>2026-04-08T10:11:02Z</time></trkpt><trkpt lat="43.09469616525718" lon="11.592031278663065"><ele>337.0</ele><time>2026-04-08T10:11:03Z</time></trkpt><trkpt lat="43.09476920599568" lon="11.592219070148893"><ele>335.5</ele><time>2026-04-08T10:11:04Z</time></trkpt><trkpt lat="43.094842421235235" lon="11.592382738480342"><ele>334.0</ele><time>2026-04-08T10:11:05Z</time></trkpt><trkpt lat="43.09489893172417" lon="11.592544693081903"><ele>332.5</ele><time>2026-04-08T10:11:06Z</time></trkpt><trkpt lat="43.09497086690697" lon="11.592695490158572"><ele>331.0</ele><time>2026-04-08T10:11:07Z</time></trkpt><trkpt lat="43.09503972181603" lon="11.592858092657314"><ele>334.0</ele><time>2026-04-08T10:11:08Z</time></trkpt><trkpt lat="43.09511807675993" lon="11.59303306386024"><ele>337.0</ele><time>2026-04-08T10:11:09Z</time></trkpt><trkpt lat="43.0951707146364" lon="11.593199571569153"><ele>340.0</ele><time>2026-04-08T10:11:10Z</time></trkpt><trkpt lat="43.09523570409773" lon="11.593353223602213"><ele>343.0</ele><time>2026-04-08T10:11:11Z</time></trkpt><trkpt lat="43.09529917394648" lon="11.593508656435176"><ele>343.0</ele><time>2026-04-08T10:11:12Z</time></trkpt><trkpt lat="43.09536131154554" lon="11.593661510868492"><ele>343.0</ele><time>2026-04-08T10:11:13Z</time></trkpt><trkpt lat="43.09543064624761" lon="11.593786245754325"><ele>343.0</ele><time>2026-04-08T10:11:14Z</time></trkpt><trkpt lat="43.09548380838305" lon="11.59393477307515"><ele>343.0</ele><time>2026-04-08T10:11:15Z</time></trkpt><trkpt lat="43.09554571380788" lon="11.594077156640076"><ele>343.79999999999995</ele><time>2026-04-08T10:11:16Z</time></trkpt><trkpt lat="43.095607769229346" lon="11.59421612832814"><ele>344.6</ele><time>2026-04-08T10:11:17Z</time></trkpt><trkpt lat="43.095651099233486" lon="11.594342948999566"><ele>345.4</ele><time>2026-04-08T10:11:18Z</time></trkpt><trkpt lat="43.09570215417682" lon="11.594464296838684"><ele>346.20000000000005</ele><time>2026-04-08T10:11:19Z</time></trkpt><trkpt lat="43.09575721895867" lon="11.594583545851684"><ele>347.0</ele><time>2026-04-08T10:11:20Z</time></trkpt><trkpt lat="43.09579690705677" lon="11.594675144179128"><ele>347.0</ele><time>2026-04-08T10:11:21Z</time></trkpt><trkpt lat="43.095842850282104" lon="11.594772452625502"><ele>347.0</ele><time>2026-04-08T10:11:22Z</time></trkpt><trkpt lat="43.09592047018515" lon="11.59483992373745"><ele>347.0</ele><time>2026-04-08T10:11:23Z</time></trkpt><trkpt lat="43.09600250804929" lon="11.59491132072208"><ele>347.0</ele><time>2026-04-08T10:11:24Z</time></trkpt><trkpt lat="43.096086761308094" lon="11.594976651570372"><ele>347.0</ele><time>2026-04-08T10:11:25Z</time></trkpt><trkpt lat="43.09618650496481" lon="11.595041240652925"><ele>347.0</ele><time>2026-04-08T10:11:26Z</time></trkpt><trkpt lat="43.0962709152552" lon="11.595118875300681"><ele>347.0</ele><time>2026-04-08T10:11:27Z</time></trkpt><trkpt lat="43.09632527273045" lon="11.595240389456597"><ele>347.0</ele><time>2026-04-08T10:11:28Z</time></trkpt><trkpt lat="43.09637552198781" lon="11.595372321786442"><ele>347.0</ele><time>2026-04-08T10:11:29Z</time></trkpt><trkpt lat="43.09644124444534" lon="11.595500272704804"><ele>347.0</ele><time>2026-04-08T10:11:30Z</time></trkpt><trkpt lat="43.0964925185052" lon="11.595655743150385"><ele>346.8</ele><time>2026-04-08T10:11:31Z</time></trkpt><trkpt lat="43.096526848901156" lon="11.595821230553833"><ele>346.6</ele><time>2026-04-08T10:11:32Z</time></trkpt><trkpt lat="43.09656779439564" lon="11.595979880584615"><ele>346.40000000000003</ele><time>2026-04-08T10:11:33Z</time></trkpt><trkpt lat="43.09661272479365" lon="11.596106447983065"><ele>346.20000000000005</ele><time>2026-04-08T10:11:34Z</time></trkpt><trkpt lat="43.09664137186474" lon="11.596232671254878"><ele>346.0</ele><time>2026-04-08T10:11:35Z</time></trkpt><trkpt lat="43.09666996851022" lon="11.596356588407684"><ele>348.20000000000005</ele><time>2026-04-08T10:11:36Z</time></trkpt><trkpt lat="43.09670312581547" lon="11.596485615810064"><ele>350.40000000000003</ele><time>2026-04-08T10:11:37Z</time></trkpt><trkpt lat="43.096731303190516" lon="11.596632284084532"><ele>352.6</ele><time>2026-04-08T10:11:38Z</time></trkpt><trkpt lat="43.0967612896335" lon="11.596753349866098"><ele>354.8</ele><time>2026-04-08T10:11:39Z</time></trkpt><trkpt lat="43.09678641816018" lon="11.596861805236076"><ele>357.0</ele><time>2026-04-08T10:11:40Z</time></trkpt><trkpt lat="43.096812694160356" lon="11.596959607332003"><ele>358.0</ele><time>2026-04-08T10:11:41Z</time></trkpt><trkpt lat="43.09683538958715" lon="11.597061747543812"><ele>359.0</ele><time>2026-04-08T10:11:42Z</time></trkpt><trkpt lat="43.09687772122122" lon="11.597167642533176"><ele>360.0</ele><time>2026-04-08T10:11:43Z</time></trkpt><trkpt lat="43.096921632301516" lon="11.59723918675731"><ele>361.0</ele><time>2026-04-08T10:11:44Z</time></trkpt><trkpt lat="43.09698014734351" lon="11.59728537946361"><ele>362.0</ele><time>2026-04-08T10:11:45Z</time></trkpt><trkpt lat="43.097054503096544" lon="11.597311846026853"><ele>363.0</ele><time>2026-04-08T10:11:46Z</time></trkpt><trkpt lat="43.097132249175615" lon="11.597334130022977"><ele>363.0</ele><time>2026-04-08T10:11:47Z</time></trkpt><trkpt lat="43.0972043091241" lon="11.597380562843298"><ele>363.0</ele><time>2026-04-08T10:11:48Z</time></trkpt><trkpt lat="43.097278655303256" lon="11.597455673564086"><ele>363.0</ele><time>2026-04-08T10:11:49Z</time></trkpt><trkpt lat="43.09735884228681" lon="11.59755854620138"><ele>363.0</ele><time>2026-04-08T10:11:50Z</time></trkpt><trkpt lat="43.09743248383102" lon="11.597667810260644"><ele>363.0</ele><time>2026-04-08T10:11:51Z</time></trkpt><trkpt lat="43.097501134227656" lon="11.597775948523356"><ele>364.2</ele><time>2026-04-08T10:11:52Z</time></trkpt><trkpt lat="43.09757146121228" lon="11.597888307128258"><ele>365.4</ele><time>2026-04-08T10:11:53Z</time></trkpt><trkpt lat="43.09764474732393" lon="11.598002358457139"><ele>366.59999999999997</ele><time>2026-04-08T10:11:54Z</time></trkpt><trkpt lat="43.09771881881989" lon="11.598114161026675"><ele>367.79999999999995</ele><time>2026-04-08T10:11:55Z</time></trkpt><trkpt lat="43.0977968279277" lon="11.598229841336734"><ele>369.0</ele><time>2026-04-08T10:11:56Z</time></trkpt><trkpt lat="43.09786400466235" lon="11.598341021834724"><ele>369.0</ele><time>2026-04-08T10:11:57Z</time></trkpt><trkpt lat="43.09794536979739" lon="11.598469040347682"><ele>369.0</ele><time>2026-04-08T10:11:58.999Z</time></trkpt><trkpt lat="43.09798670034496" lon="11.598536181393541"><ele>369.0</ele><time>2026-04-08T10:11:59.999Z</time></trkpt><trkpt lat="43.0980419823554" lon="11.5985915039299"><ele>369.0</ele><time>2026-04-08T10:12:00.999Z</time></trkpt><trkpt lat="43.0981194918587" lon="11.598612617138663"><ele>369.0</ele><time>2026-04-08T10:12:01.999Z</time></trkpt><trkpt lat="43.09819484813097" lon="11.598590348005622"><ele>369.0</ele><time>2026-04-08T10:12:02.999Z</time></trkpt><trkpt lat="43.098281748098245" lon="11.598539784048414"><ele>368.6666666666667</ele><time>2026-04-08T10:12:03.999Z</time></trkpt><trkpt lat="43.098359096260594" lon="11.598487797067918"><ele>368.3333333333333</ele><time>2026-04-08T10:12:04.999Z</time></trkpt><trkpt lat="43.09841922726785" lon="11.598427716291864"><ele>368.0</ele><time>2026-04-08T10:12:05.999Z</time></trkpt><trkpt lat="43.098463806788146" lon="11.598363501802995"><ele>367.66666666666663</ele><time>2026-04-08T10:12:06.999Z</time></trkpt><trkpt lat="43.09849648226872" lon="11.598273906670574"><ele>367.3333333333333</ele><time>2026-04-08T10:12:07.999Z</time></trkpt><trkpt lat="43.098522385079036" lon="11.598166221760938"><ele>367.0</ele><time>2026-04-08T10:12:08.999Z</time></trkpt><trkpt lat="43.09854422606288" lon="11.598038917141535"><ele>367.0</ele><time>2026-04-08T10:12:09.999Z</time></trkpt><trkpt lat="43.09857499908797" lon="11.597889703512035"><ele>367.0</ele><time>2026-04-08T10:12:10.999Z</time></trkpt><trkpt lat="43.098620541805644" lon="11.597727011869633"><ele>367.0</ele><time>2026-04-08T10:12:11.999Z</time></trkpt><trkpt lat="43.09867298651519" lon="11.59759159614679"><ele>367.0</ele><time>2026-04-08T10:12:12.999Z</time></trkpt><trkpt lat="43.09872175272661" lon="11.597497679023885"><ele>367.0</ele><time>2026-04-08T10:12:13.999Z</time></trkpt><trkpt lat="43.09876856278064" lon="11.597429683507924"><ele>366.16666666666663</ele><time>2026-04-08T10:12:14.999Z</time></trkpt><trkpt lat="43.098831524090514" lon="11.597387404408977"><ele>365.3333333333333</ele><time>2026-04-08T10:12:15.999Z</time></trkpt><trkpt lat="43.09889861426829" lon="11.597390042342088"><ele>364.5</ele><time>2026-04-08T10:12:16.999Z</time></trkpt><trkpt lat="43.09896781826053" lon="11.59742491446057"><ele>363.6666666666667</ele><time>2026-04-08T10:12:17.999Z</time></trkpt><trkpt lat="43.09905170296381" lon="11.597480480979213"><ele>362.83333333333337</ele><time>2026-04-08T10:12:18.999Z</time></trkpt><trkpt lat="43.09912271550439" lon="11.59755075689979"><ele>362.0</ele><time>2026-04-08T10:12:19.999Z</time></trkpt><trkpt lat="43.0992137120324" lon="11.597649076113253"><ele>361.0</ele><time>2026-04-08T10:12:20.999Z</time></trkpt><trkpt lat="43.09930869197404" lon="11.597770383401464"><ele>360.0</ele><time>2026-04-08T10:12:21.999Z</time></trkpt><trkpt lat="43.09940420096064" lon="11.597895560415697"><ele>359.0</ele><time>2026-04-08T10:12:22.999Z</time></trkpt><trkpt lat="43.09946808825326" lon="11.598022126494065"><ele>358.0</ele><time>2026-04-08T10:12:23.999Z</time></trkpt><trkpt lat="43.099546425170814" lon="11.598114648525177"><ele>359.59999999999997</ele><time>2026-04-08T10:12:24.999Z</time></trkpt><trkpt lat="43.099613198299714" lon="11.598220457672891"><ele>361.2</ele><time>2026-04-08T10:12:25.999Z</time></trkpt><trkpt lat="43.09968970863197" lon="11.598339681902187"><ele>362.8</ele><time>2026-04-08T10:12:26.999Z</time></trkpt><trkpt lat="43.09975358460748" lon="11.598448073524533"><ele>364.4</ele><time>2026-04-08T10:12:27.999Z</time></trkpt><trkpt lat="43.09980987522903" lon="11.598552468670679"><ele>366.0</ele><time>2026-04-08T10:12:28.999Z</time></trkpt><trkpt lat="43.09986865617023" lon="11.598647305258517"><ele>363.6</ele><time>2026-04-08T10:12:29.999Z</time></trkpt><trkpt lat="43.099922349327926" lon="11.598733871967893"><ele>361.20000000000005</ele><time>2026-04-08T10:12:30.999Z</time></trkpt><trkpt lat="43.09998648380516" lon="11.598834479820416"><ele>358.79999999999995</ele><time>2026-04-08T10:12:31.999Z</time></trkpt><trkpt lat="43.10005625511561" lon="11.598942360044102"><ele>356.4</ele><time>2026-04-08T10:12:32.999Z</time></trkpt><trkpt lat="43.100133716457485" lon="11.599042423260437"><ele>354.0</ele><time>2026-04-08T10:12:33.999Z</time></trkpt><trkpt lat="43.100201026635865" lon="11.599118612701991"><ele>354.0</ele><time>2026-04-08T10:12:34.999Z</time></trkpt><trkpt lat="43.10027737437346" lon="11.599182654518373"><ele>354.0</ele><time>2026-04-08T10:12:35.999Z</time></trkpt><trkpt lat="43.100377332529575" lon="11.599230100253147"><ele>354.0</ele><time>2026-04-08T10:12:36.999Z</time></trkpt><trkpt lat="43.10048648586632" lon="11.599253313026292"><ele>354.0</ele><time>2026-04-08T10:12:37.999Z</time></trkpt><trkpt lat="43.100593953839635" lon="11.5992817516621"><ele>354.0</ele><time>2026-04-08T10:12:38.999Z</time></trkpt><trkpt lat="43.10071238569355" lon="11.599259369018805"><ele>353.0</ele><time>2026-04-08T10:12:39.999Z</time></trkpt><trkpt lat="43.10084104150807" lon="11.599257800259597"><ele>352.0</ele><time>2026-04-08T10:12:40.999Z</time></trkpt><trkpt lat="43.10095248033613" lon="11.599230406796345"><ele>351.0</ele><time>2026-04-08T10:12:41.999Z</time></trkpt><trkpt lat="43.101050792570774" lon="11.599214643213884"><ele>350.0</ele><time>2026-04-08T10:12:42.999Z</time></trkpt><trkpt lat="43.10114692829071" lon="11.599209526568744"><ele>349.0</ele><time>2026-04-08T10:12:43.999Z</time></trkpt><trkpt lat="43.10124858822776" lon="11.599209979631587"><ele>349.0</ele><time>2026-04-08T10:12:44.999Z</time></trkpt><trkpt lat="43.10136368006514" lon="11.599228342006018"><ele>349.0</ele><time>2026-04-08T10:12:45.999Z</time></trkpt><trkpt lat="43.10147117625454" lon="11.599299785997637"><ele>349.0</ele><time>2026-04-08T10:12:46.999Z</time></trkpt><trkpt lat="43.101572144101574" lon="11.599378862605365"><ele>349.0</ele><time>2026-04-08T10:12:47.999Z</time></trkpt><trkpt lat="43.101667447948586" lon="11.599462995912837"><ele>349.6</ele><time>2026-04-08T10:12:48.999Z</time></trkpt><trkpt lat="43.10175657537735" lon="11.599525245053641"><ele>350.2</ele><time>2026-04-08T10:12:49.999Z</time></trkpt><trkpt lat="43.10181674442442" lon="11.599618346878547"><ele>350.8</ele><time>2026-04-08T10:12:50.999Z</time></trkpt><trkpt lat="43.10189096600334" lon="11.599696729832326"><ele>351.40000000000003</ele><time>2026-04-08T10:12:51.999Z</time></trkpt><trkpt lat="43.101937539629105" lon="11.599837232220784"><ele>352.0</ele><time>2026-04-08T10:12:52.999Z</time></trkpt><trkpt lat="43.102003012978585" lon="11.599978026516697"><ele>352.0</ele><time>2026-04-08T10:12:53.999Z</time></trkpt><trkpt lat="43.10207521418641" lon="11.600132522223939"><ele>352.0</ele><time>2026-04-08T10:12:54.999Z</time></trkpt><trkpt lat="43.10215337355404" lon="11.600296197079748"><ele>352.0</ele><time>2026-04-08T10:12:55.999Z</time></trkpt><trkpt lat="43.1022447708378" lon="11.600447698389628"><ele>352.0</ele><time>2026-04-08T10:12:56.999Z</time></trkpt><trkpt lat="43.102304056807256" lon="11.600577597594203"><ele>350.5</ele><time>2026-04-08T10:12:57.999Z</time></trkpt><trkpt lat="43.10235523680199" lon="11.600690577933321"><ele>349.0</ele><time>2026-04-08T10:12:58.999Z</time></trkpt><trkpt lat="43.102401347799315" lon="11.600797779176808"><ele>347.5</ele><time>2026-04-08T10:12:59.999Z</time></trkpt><trkpt lat="43.10244755860759" lon="11.600892851543316"><ele>346.0</ele><time>2026-04-08T10:13:00.999Z</time></trkpt><trkpt lat="43.102493916761375" lon="11.600967622899756"><ele>344.5</ele><time>2026-04-08T10:13:01.999Z</time></trkpt><trkpt lat="43.102543877192126" lon="11.601023516267075"><ele>343.0</ele><time>2026-04-08T10:13:02.999Z</time></trkpt><trkpt lat="43.102605637284725" lon="11.601063394157096"><ele>346.16666666666663</ele><time>2026-04-08T10:13:03.999Z</time></trkpt><trkpt lat="43.102675814438484" lon="11.60108310068265"><ele>349.3333333333333</ele><time>2026-04-08T10:13:04.999Z</time></trkpt><trkpt lat="43.10274995903645" lon="11.601078894356718"><ele>352.5</ele><time>2026-04-08T10:13:05.999Z</time></trkpt><trkpt lat="43.102816389588824" lon="11.601041274478114"><ele>355.6666666666667</ele><time>2026-04-08T10:13:06.999Z</time></trkpt><trkpt lat="43.10287834469993" lon="11.600973936627991"><ele>358.83333333333337</ele><time>2026-04-08T10:13:07.999Z</time></trkpt><trkpt lat="43.10294420810533" lon="11.600886560130602"><ele>362.0</ele><time>2026-04-08T10:13:08.999Z</time></trkpt><trkpt lat="43.103020487139396" lon="11.600788698897881"><ele>362.0</ele><time>2026-04-08T10:13:09.999Z</time></trkpt><trkpt lat="43.103112010733135" lon="11.600685319051937"><ele>362.0</ele><time>2026-04-08T10:13:10.999Z</time></trkpt><trkpt lat="43.10318254087347" lon="11.600600571655923"><ele>362.0</ele><time>2026-04-08T10:13:11.999Z</time></trkpt><trkpt lat="43.10324834013697" lon="11.60053384083943"><ele>362.0</ele><time>2026-04-08T10:13:12.999Z</time></trkpt><trkpt lat="43.10332318663098" lon="11.600491362945752"><ele>362.0</ele><time>2026-04-08T10:13:13.999Z</time></trkpt><trkpt lat="43.1034131812254" lon="11.600466581078605"><ele>362.25</ele><time>2026-04-08T10:13:14.999Z</time></trkpt><trkpt lat="43.1035176148867" lon="11.60046855214081"><ele>362.5</ele><time>2026-04-08T10:13:15.999Z</time></trkpt><trkpt lat="43.10364314915397" lon="11.60049669719793"><ele>362.75</ele><time>2026-04-08T10:13:16.999Z</time></trkpt><trkpt lat="43.10378679020406" lon="11.600522351549218"><ele>363.0</ele><time>2026-04-08T10:13:17.999Z</time></trkpt><trkpt lat="43.103942183780255" lon="11.600544303455045"><ele>363.0</ele><time>2026-04-08T10:13:18.999Z</time></trkpt><trkpt lat="43.104071938588795" lon="11.600568971122003"><ele>363.0</ele><time>2026-04-08T10:13:19.999Z</time></trkpt><trkpt lat="43.10419367938008" lon="11.600594811202052"><ele>363.0</ele><time>2026-04-08T10:13:20.999Z</time></trkpt><trkpt lat="43.104315244953966" lon="11.600606846973283"><ele>363.0</ele><time>2026-04-08T10:13:21.999Z</time></trkpt><trkpt lat="43.10443057746498" lon="11.600631468205847"><ele>363.5</ele><time>2026-04-08T10:13:22.999Z</time></trkpt><trkpt lat="43.10456558017966" lon="11.60065366697542"><ele>364.0</ele><time>2026-04-08T10:13:23.999Z</time></trkpt><trkpt lat="43.104691294037366" lon="11.60067347449052"><ele>364.5</ele><time>2026-04-08T10:13:24.999Z</time></trkpt><trkpt lat="43.10480355099638" lon="11.60070058228947"><ele>365.0</ele><time>2026-04-08T10:13:25.999Z</time></trkpt><trkpt lat="43.104919553163704" lon="11.600722174699568"><ele>365.5</ele><time>2026-04-08T10:13:26.999Z</time></trkpt><trkpt lat="43.10504816964361" lon="11.600740422954415"><ele>366.0</ele><time>2026-04-08T10:13:27.999Z</time></trkpt><trkpt lat="43.10518061768824" lon="11.600760120073563"><ele>366.5</ele><time>2026-04-08T10:13:28.999Z</time></trkpt><trkpt lat="43.10529046792454" lon="11.600759327902693"><ele>367.0</ele><time>2026-04-08T10:13:29.999Z</time></trkpt><trkpt lat="43.10539773297132" lon="11.600742454386198"><ele>367.0</ele><time>2026-04-08T10:13:30.999Z</time></trkpt><trkpt lat="43.10551687472638" lon="11.600702264420145"><ele>367.0</ele><time>2026-04-08T10:13:31.999Z</time></trkpt><trkpt lat="43.10564141825138" lon="11.600647827330361"><ele>367.0</ele><time>2026-04-08T10:13:32.999Z</time></trkpt><trkpt lat="43.10574723965365" lon="11.600592693794544"><ele>367.0</ele><time>2026-04-08T10:13:33.999Z</time></trkpt><trkpt lat="43.10585032909519" lon="11.600529440901669"><ele>367.20000000000005</ele><time>2026-04-08T10:13:34.999Z</time></trkpt><trkpt lat="43.105959984153635" lon="11.600453922744355"><ele>367.4</ele><time>2026-04-08T10:13:35.999Z</time></trkpt><trkpt lat="43.10606017441167" lon="11.600389533034658"><ele>367.6</ele><time>2026-04-08T10:13:36.999Z</time></trkpt><trkpt lat="43.10615381581222" lon="11.600339461002115"><ele>367.79999999999995</ele><time>2026-04-08T10:13:37.999Z</time></trkpt><trkpt lat="43.106250651072386" lon="11.600314940236935"><ele>368.0</ele><time>2026-04-08T10:13:38.999Z</time></trkpt><trkpt lat="43.106347195534966" lon="11.600314574649095"><ele>369.0</ele><time>2026-04-08T10:13:39.999Z</time></trkpt><trkpt lat="43.10644436639787" lon="11.600347760446462"><ele>370.0</ele><time>2026-04-08T10:13:40.999Z</time></trkpt><trkpt lat="43.10653075922638" lon="11.600423503026116"><ele>371.0</ele><time>2026-04-08T10:13:41.999Z</time></trkpt><trkpt lat="43.10663696803313" lon="11.600469441706394"><ele>372.0</ele><time>2026-04-08T10:13:42.999Z</time></trkpt><trkpt lat="43.106741554487606" lon="11.600535001869462"><ele>373.0</ele><time>2026-04-08T10:13:43.999Z</time></trkpt><trkpt lat="43.10685375024233" lon="11.60061037994825"><ele>375.75</ele><time>2026-04-08T10:13:44.999Z</time></trkpt><trkpt lat="43.1069729515411" lon="11.600690060927922"><ele>378.5</ele><time>2026-04-08T10:13:45.999Z</time></trkpt><trkpt lat="43.107084077905554" lon="11.600764838795303"><ele>381.25</ele><time>2026-04-08T10:13:46.999Z</time></trkpt><trkpt lat="43.10718563519965" lon="11.600839822846151"><ele>384.0</ele><time>2026-04-08T10:13:47.999Z</time></trkpt><trkpt lat="43.10727688452924" lon="11.600904503672671"><ele>384.0</ele><time>2026-04-08T10:13:48.999Z</time></trkpt><trkpt lat="43.10736408491844" lon="11.600973069933865"><ele>384.0</ele><time>2026-04-08T10:13:49.999Z</time></trkpt><trkpt lat="43.10744684199983" lon="11.601039299696685"><ele>384.0</ele><time>2026-04-08T10:13:50.999Z</time></trkpt><trkpt lat="43.10752246868832" lon="11.601097865734477"><ele>384.0</ele><time>2026-04-08T10:13:51.999Z</time></trkpt><trkpt lat="43.10758741653863" lon="11.601147762161219"><ele>384.0</ele><time>2026-04-08T10:13:52.999Z</time></trkpt><trkpt lat="43.107686023207" lon="11.60122699921677"><ele>385.79999999999995</ele><time>2026-04-08T10:13:54.999Z</time></trkpt><trkpt lat="43.10779469534033" lon="11.601324003442892"><ele>387.59999999999997</ele><time>2026-04-08T10:13:56.999Z</time></trkpt><trkpt lat="43.10784642813879" lon="11.601380285200179"><ele>389.4</ele><time>2026-04-08T10:13:57.999Z</time></trkpt><trkpt lat="43.107895708247845" lon="11.601461618923564"><ele>391.2</ele><time>2026-04-08T10:13:58.999Z</time></trkpt><trkpt lat="43.107945444499755" lon="11.601554978880484"><ele>393.0</ele><time>2026-04-08T10:13:59.999Z</time></trkpt><trkpt lat="43.10802463316003" lon="11.601705265840797"><ele>393.0</ele><time>2026-04-08T10:14:01.999Z</time></trkpt><trkpt lat="43.10804909121807" lon="11.601814900374245"><ele>393.0</ele><time>2026-04-08T10:14:02.999Z</time></trkpt><trkpt lat="43.10805118908256" lon="11.601955649769984"><ele>393.0</ele><time>2026-04-08T10:14:03.999Z</time></trkpt><trkpt lat="43.10805330358271" lon="11.602117862194198"><ele>393.0</ele><time>2026-04-08T10:14:04.999Z</time></trkpt><trkpt lat="43.10804022078019" lon="11.602260686295146"><ele>393.0</ele><time>2026-04-08T10:14:05.999Z</time></trkpt><trkpt lat="43.10801760648438" lon="11.60240233317244"><ele>392.3333333333333</ele><time>2026-04-08T10:14:06.999Z</time></trkpt><trkpt lat="43.10800392933543" lon="11.602540768642774"><ele>391.66666666666663</ele><time>2026-04-08T10:14:07.999Z</time></trkpt><trkpt lat="43.10797389155669" lon="11.602665582462993"><ele>391.0</ele><time>2026-04-08T10:14:08.999Z</time></trkpt><trkpt lat="43.10794760423185" lon="11.602775632444654"><ele>390.3333333333333</ele><time>2026-04-08T10:14:09.999Z</time></trkpt><trkpt lat="43.107925651536604" lon="11.60287493639978"><ele>389.66666666666663</ele><time>2026-04-08T10:14:10.999Z</time></trkpt><trkpt lat="43.107900694828345" lon="11.602964801964793"><ele>389.0</ele><time>2026-04-08T10:14:11.999Z</time></trkpt><trkpt lat="43.10787499934893" lon="11.603052570105152"><ele>387.16666666666663</ele><time>2026-04-08T10:14:12.999Z</time></trkpt><trkpt lat="43.10785070280649" lon="11.603158222249144"><ele>385.3333333333333</ele><time>2026-04-08T10:14:13.999Z</time></trkpt><trkpt lat="43.10781679709752" lon="11.603258017199305"><ele>383.5</ele><time>2026-04-08T10:14:14.999Z</time></trkpt><trkpt lat="43.107808457957475" lon="11.603368222702974"><ele>381.66666666666663</ele><time>2026-04-08T10:14:15.999Z</time></trkpt><trkpt lat="43.107831243928125" lon="11.603473402224795"><ele>379.8333333333333</ele><time>2026-04-08T10:14:16.999Z</time></trkpt><trkpt lat="43.10785740282237" lon="11.603587337743576"><ele>378.0</ele><time>2026-04-08T10:14:17.999Z</time></trkpt><trkpt lat="43.10789589173977" lon="11.603705295775535"><ele>376.59999999999997</ele><time>2026-04-08T10:14:18.999Z</time></trkpt><trkpt lat="43.10793517716082" lon="11.603827415923627"><ele>375.2</ele><time>2026-04-08T10:14:19.999Z</time></trkpt><trkpt lat="43.10797297217315" lon="11.603951612669718"><ele>373.8</ele><time>2026-04-08T10:14:20.999Z</time></trkpt><trkpt lat="43.10801478571938" lon="11.60407929717823"><ele>372.4</ele><time>2026-04-08T10:14:21.999Z</time></trkpt><trkpt lat="43.10805055779795" lon="11.604197657291415"><ele>371.0</ele><time>2026-04-08T10:14:22.999Z</time></trkpt><trkpt lat="43.10809251735952" lon="11.604311863817067"><ele>371.0</ele><time>2026-04-08T10:14:23.999Z</time></trkpt><trkpt lat="43.10814742980295" lon="11.60442005348372"><ele>371.0</ele><time>2026-04-08T10:14:24.999Z</time></trkpt><trkpt lat="43.10821197660537" lon="11.60451822648965"><ele>371.0</ele><time>2026-04-08T10:14:25.999Z</time></trkpt><trkpt lat="43.108292556163505" lon="11.604612716358034"><ele>371.0</ele><time>2026-04-08T10:14:26.999Z</time></trkpt><trkpt lat="43.10839031358592" lon="11.604702246130422"><ele>371.0</ele><time>2026-04-08T10:14:27.999Z</time></trkpt><trkpt lat="43.10849491953478" lon="11.604799947098476"><ele>372.25</ele><time>2026-04-08T10:14:28.999Z</time></trkpt><trkpt lat="43.1086025931325" lon="11.604893577911861"><ele>373.5</ele><time>2026-04-08T10:14:29.999Z</time></trkpt><trkpt lat="43.10870801918694" lon="11.604991830427785"><ele>374.75</ele><time>2026-04-08T10:14:30.999Z</time></trkpt><trkpt lat="43.10880555985447" lon="11.605078585464767"><ele>376.0</ele><time>2026-04-08T10:14:31.999Z</time></trkpt><trkpt lat="43.108903906987166" lon="11.605167180326388"><ele>376.0</ele><time>2026-04-08T10:14:32.999Z</time></trkpt><trkpt lat="43.109004440589885" lon="11.60525884245348"><ele>376.0</ele><time>2026-04-08T10:14:33.999Z</time></trkpt><trkpt lat="43.10910799814829" lon="11.60534838553538"><ele>376.0</ele><time>2026-04-08T10:14:34.999Z</time></trkpt><trkpt lat="43.10921437354828" lon="11.605446025946573"><ele>376.0</ele><time>2026-04-08T10:14:35.999Z</time></trkpt><trkpt lat="43.1093214260768" lon="11.605548428166395"><ele>375.75</ele><time>2026-04-08T10:14:36.999Z</time></trkpt><trkpt lat="43.10942580692071" lon="11.60564514640909"><ele>375.5</ele><time>2026-04-08T10:14:37.999Z</time></trkpt><trkpt lat="43.10952892603491" lon="11.605745253847797"><ele>375.25</ele><time>2026-04-08T10:14:38.999Z</time></trkpt><trkpt lat="43.109634307230344" lon="11.605848218378588"><ele>375.0</ele><time>2026-04-08T10:14:39.999Z</time></trkpt><trkpt lat="43.1097337368879" lon="11.60595255651189"><ele>375.0</ele><time>2026-04-08T10:14:40.999Z</time></trkpt><trkpt lat="43.1098383746313" lon="11.60606535942445"><ele>375.0</ele><time>2026-04-08T10:14:41.999Z</time></trkpt><trkpt lat="43.10994950815419" lon="11.606174068110768"><ele>375.0</ele><time>2026-04-08T10:14:42.999Z</time></trkpt><trkpt lat="43.11006330499663" lon="11.606280457363502"><ele>375.0</ele><time>2026-04-08T10:14:43.999Z</time></trkpt><trkpt lat="43.110179630694326" lon="11.606398468046944"><ele>374.25</ele><time>2026-04-08T10:14:44.999Z</time></trkpt><trkpt lat="43.11029795538449" lon="11.606510794504388"><ele>373.5</ele><time>2026-04-08T10:14:45.999Z</time></trkpt><trkpt lat="43.11040472503176" lon="11.606616389234055"><ele>372.75</ele><time>2026-04-08T10:14:46.999Z</time></trkpt><trkpt lat="43.110495337146155" lon="11.606705522777714"><ele>372.0</ele><time>2026-04-08T10:14:47.999Z</time></trkpt><trkpt lat="43.1105897307462" lon="11.6067607034995"><ele>372.0</ele><time>2026-04-08T10:14:48.999Z</time></trkpt><trkpt lat="43.11068464485449" lon="11.606799799645032"><ele>372.0</ele><time>2026-04-08T10:14:49.999Z</time></trkpt><trkpt lat="43.11077513722585" lon="11.606829122910781"><ele>372.0</ele><time>2026-04-08T10:14:50.999Z</time></trkpt><trkpt lat="43.110864816004174" lon="11.606860489374316"><ele>372.0</ele><time>2026-04-08T10:14:51.999Z</time></trkpt><trkpt lat="43.110939314736555" lon="11.606898653533683"><ele>372.0</ele><time>2026-04-08T10:14:52.999Z</time></trkpt><trkpt lat="43.11101745710487" lon="11.606959230833064"><ele>370.25</ele><time>2026-04-08T10:14:53.999Z</time></trkpt><trkpt lat="43.11110713495845" lon="11.6070365020298"><ele>368.5</ele><time>2026-04-08T10:14:54.999Z</time></trkpt><trkpt lat="43.11119474736461" lon="11.60714323250613"><ele>366.75</ele><time>2026-04-08T10:14:55.999Z</time></trkpt><trkpt lat="43.111303951153864" lon="11.607223135388365"><ele>365.0</ele><time>2026-04-08T10:14:56.999Z</time></trkpt><trkpt lat="43.11140509230316" lon="11.60732631840273"><ele>365.0</ele><time>2026-04-08T10:14:57.999Z</time></trkpt><trkpt lat="43.11149674228448" lon="11.607405752608846"><ele>365.0</ele><time>2026-04-08T10:14:58.999Z</time></trkpt><trkpt lat="43.111581930721634" lon="11.607481718940278"><ele>365.0</ele><time>2026-04-08T10:14:59.999Z</time></trkpt><trkpt lat="43.111666182335014" lon="11.607560501514767"><ele>365.0</ele><time>2026-04-08T10:15:00.999Z</time></trkpt><trkpt lat="43.11174943999619" lon="11.607637575363881"><ele>365.0</ele><time>2026-04-08T10:15:01.999Z</time></trkpt><trkpt lat="43.11182227895786" lon="11.60769685169139"><ele>365.0</ele><time>2026-04-08T10:15:02.999Z</time></trkpt><trkpt lat="43.111897456530144" lon="11.607762170749556"><ele>365.0</ele><time>2026-04-08T10:15:03.999Z</time></trkpt><trkpt lat="43.11197870380603" lon="11.607842846498539"><ele>365.0</ele><time>2026-04-08T10:15:04.999Z</time></trkpt><trkpt lat="43.11207489998885" lon="11.6079245121879"><ele>365.0</ele><time>2026-04-08T10:15:05.999Z</time></trkpt><trkpt lat="43.11218217920948" lon="11.608017492833705"><ele>365.0</ele><time>2026-04-08T10:15:06.999Z</time></trkpt><trkpt lat="43.11229467841794" lon="11.608117187563192"><ele>365.0</ele><time>2026-04-08T10:15:07.999Z</time></trkpt><trkpt lat="43.11240889629058" lon="11.608232024475011"><ele>365.0</ele><time>2026-04-08T10:15:08.999Z</time></trkpt><trkpt lat="43.112519527665455" lon="11.608356041052053"><ele>365.0</ele><time>2026-04-08T10:15:09.999Z</time></trkpt><trkpt lat="43.11262421705539" lon="11.608469786963378"><ele>365.0</ele><time>2026-04-08T10:15:10.999Z</time></trkpt><trkpt lat="43.11272074778193" lon="11.608583782587068"><ele>363.75</ele><time>2026-04-08T10:15:11.999Z</time></trkpt><trkpt lat="43.11281115794105" lon="11.608712977345062"><ele>362.5</ele><time>2026-04-08T10:15:12.999Z</time></trkpt><trkpt lat="43.112897216934726" lon="11.608843735791798"><ele>361.25</ele><time>2026-04-08T10:15:13.999Z</time></trkpt><trkpt lat="43.112976462237405" lon="11.60898676953451"><ele>360.0</ele><time>2026-04-08T10:15:14.999Z</time></trkpt><trkpt lat="43.11305595192442" lon="11.60914165157579"><ele>360.0</ele><time>2026-04-08T10:15:15.999Z</time></trkpt><trkpt lat="43.11311715134014" lon="11.60931331557916"><ele>360.0</ele><time>2026-04-08T10:15:16.999Z</time></trkpt><trkpt lat="43.113180994027395" lon="11.609478989237088"><ele>360.0</ele><time>2026-04-08T10:15:17.999Z</time></trkpt><trkpt lat="43.11324627084787" lon="11.609616017463983"><ele>360.0</ele><time>2026-04-08T10:15:18.999Z</time></trkpt><trkpt lat="43.11328893084865" lon="11.609748930224333"><ele>360.4</ele><time>2026-04-08T10:15:19.999Z</time></trkpt><trkpt lat="43.113331603931684" lon="11.609872671705723"><ele>360.8</ele><time>2026-04-08T10:15:20.999Z</time></trkpt><trkpt lat="43.11337892901307" lon="11.609998351130216"><ele>361.20000000000005</ele><time>2026-04-08T10:15:21.999Z</time></trkpt><trkpt lat="43.11343006654643" lon="11.61012949748533"><ele>361.6</ele><time>2026-04-08T10:15:23Z</time></trkpt><trkpt lat="43.11350291403667" lon="11.61025398892621"><ele>362.0</ele><time>2026-04-08T10:15:24Z</time></trkpt><trkpt lat="43.11357162318754" lon="11.610390406095863"><ele>362.0</ele><time>2026-04-08T10:15:25Z</time></trkpt><trkpt lat="43.11364819864557" lon="11.610522588024587"><ele>362.0</ele><time>2026-04-08T10:15:26Z</time></trkpt><trkpt lat="43.113718984369406" lon="11.610656943942425"><ele>362.0</ele><time>2026-04-08T10:15:27Z</time></trkpt><trkpt lat="43.113777279262955" lon="11.610775530069553"><ele>362.0</ele><time>2026-04-08T10:15:28Z</time></trkpt><trkpt lat="43.11383041434158" lon="11.610875938952248"><ele>362.0</ele><time>2026-04-08T10:15:29Z</time></trkpt><trkpt lat="43.113889756242436" lon="11.610980271828675"><ele>362.0</ele><time>2026-04-08T10:15:30Z</time></trkpt><trkpt lat="43.11395831793605" lon="11.611086670228946"><ele>362.0</ele><time>2026-04-08T10:15:31Z</time></trkpt><trkpt lat="43.114038156026396" lon="11.61118810472127"><ele>362.0</ele><time>2026-04-08T10:15:32Z</time></trkpt><trkpt lat="43.114134592629654" lon="11.611286098863884"><ele>362.0</ele><time>2026-04-08T10:15:33Z</time></trkpt><trkpt lat="43.114237415795806" lon="11.611393432452486"><ele>363.5</ele><time>2026-04-08T10:15:34Z</time></trkpt><trkpt lat="43.11434013975724" lon="11.611514167731166"><ele>365.0</ele><time>2026-04-08T10:15:35Z</time></trkpt><trkpt lat="43.1144203420696" lon="11.611644556725766"><ele>366.5</ele><time>2026-04-08T10:15:36Z</time></trkpt><trkpt lat="43.1144870239634" lon="11.611774654413637"><ele>368.0</ele><time>2026-04-08T10:15:37Z</time></trkpt><trkpt lat="43.11455413580681" lon="11.611908898072036"><ele>366.4</ele><time>2026-04-08T10:15:38Z</time></trkpt><trkpt lat="43.114616180242855" lon="11.612059366916846"><ele>364.79999999999995</ele><time>2026-04-08T10:15:39Z</time></trkpt><trkpt lat="43.11464470930544" lon="11.612224687218069"><ele>363.2</ele><time>2026-04-08T10:15:40Z</time></trkpt><trkpt lat="43.114685352156386" lon="11.6123623252936"><ele>361.6</ele><time>2026-04-08T10:15:41Z</time></trkpt><trkpt lat="43.114707330266796" lon="11.612481615019341"><ele>360.0</ele><time>2026-04-08T10:15:42Z</time></trkpt><trkpt lat="43.114736823516054" lon="11.612602954497802"><ele>360.0</ele><time>2026-04-08T10:15:43Z</time></trkpt><trkpt lat="43.11477493954002" lon="11.61272590450275"><ele>360.0</ele><time>2026-04-08T10:15:44Z</time></trkpt><trkpt lat="43.11483111170606" lon="11.612847832418344"><ele>360.0</ele><time>2026-04-08T10:15:45Z</time></trkpt><trkpt lat="43.114903317359946" lon="11.612969815497134"><ele>360.0</ele><time>2026-04-08T10:15:46Z</time></trkpt><trkpt lat="43.114982301272065" lon="11.613093279646193"><ele>360.0</ele><time>2026-04-08T10:15:47Z</time></trkpt><trkpt lat="43.11506912137251" lon="11.61321143561912"><ele>361.25</ele><time>2026-04-08T10:15:48Z</time></trkpt><trkpt lat="43.11515352065464" lon="11.613335167420203"><ele>362.5</ele><time>2026-04-08T10:15:49Z</time></trkpt><trkpt lat="43.11523250782666" lon="11.613455005806577"><ele>363.75</ele><time>2026-04-08T10:15:49.999Z</time></trkpt><trkpt lat="43.11530818676655" lon="11.613576498546468"><ele>365.0</ele><time>2026-04-08T10:15:50.999Z</time></trkpt><trkpt lat="43.11537285233455" lon="11.6136869623417"><ele>365.0</ele><time>2026-04-08T10:15:51.999Z</time></trkpt><trkpt lat="43.11544421467925" lon="11.61379368667816"><ele>365.0</ele><time>2026-04-08T10:15:52.999Z</time></trkpt><trkpt lat="43.11551866954614" lon="11.613890704186401"><ele>365.0</ele><time>2026-04-08T10:15:53.999Z</time></trkpt><trkpt lat="43.115591429006166" lon="11.613996705773928"><ele>365.0</ele><time>2026-04-08T10:15:54.999Z</time></trkpt><trkpt lat="43.11569362796014" lon="11.614059804564485"><ele>365.0</ele><time>2026-04-08T10:15:55.999Z</time></trkpt><trkpt lat="43.11577232941277" lon="11.61412607120329"><ele>367.2</ele><time>2026-04-08T10:15:56.999Z</time></trkpt><trkpt lat="43.11583874310062" lon="11.614212223422582"><ele>369.4</ele><time>2026-04-08T10:15:57.999Z</time></trkpt><trkpt lat="43.11589947797558" lon="11.61429584568246"><ele>371.6</ele><time>2026-04-08T10:15:58.999Z</time></trkpt><trkpt lat="43.11596672016264" lon="11.61438139849139"><ele>373.8</ele><time>2026-04-08T10:15:59.999Z</time></trkpt><trkpt lat="43.11601179676502" lon="11.614505313519842"><ele>376.0</ele><time>2026-04-08T10:16:00.999Z</time></trkpt><trkpt lat="43.11604825487362" lon="11.614643962322145"><ele>376.25</ele><time>2026-04-08T10:16:01.999Z</time></trkpt><trkpt lat="43.116078383692" lon="11.614806372799437"><ele>376.5</ele><time>2026-04-08T10:16:02.999Z</time></trkpt><trkpt lat="43.11609239142232" lon="11.614983990494562"><ele>376.75</ele><time>2026-04-08T10:16:03.999Z</time></trkpt><trkpt lat="43.11608988974388" lon="11.615175056448336"><ele>377.0</ele><time>2026-04-08T10:16:04.999Z</time></trkpt><trkpt lat="43.11608226876122" lon="11.61537186090099"><ele>377.5</ele><time>2026-04-08T10:16:05.999Z</time></trkpt><trkpt lat="43.116075787723496" lon="11.615574745621467"><ele>378.0</ele><time>2026-04-08T10:16:06.999Z</time></trkpt><trkpt lat="43.116067080235325" lon="11.615753630129149"><ele>378.5</ele><time>2026-04-08T10:16:07.999Z</time></trkpt><trkpt lat="43.11605449843627" lon="11.615904320708157"><ele>379.0</ele><time>2026-04-08T10:16:08.999Z</time></trkpt><trkpt lat="43.116030404104336" lon="11.616049687762965"><ele>379.5</ele><time>2026-04-08T10:16:09.999Z</time></trkpt><trkpt lat="43.115990226173274" lon="11.61620226068622"><ele>380.0</ele><time>2026-04-08T10:16:10.999Z</time></trkpt><trkpt lat="43.11593844419434" lon="11.616350769130209"><ele>380.5</ele><time>2026-04-08T10:16:11.999Z</time></trkpt><trkpt lat="43.11588024536792" lon="11.616499388346766"><ele>381.0</ele><time>2026-04-08T10:16:12.999Z</time></trkpt><trkpt lat="43.11581530020272" lon="11.616647792128404"><ele>381.0</ele><time>2026-04-08T10:16:13.999Z</time></trkpt><trkpt lat="43.115748985637495" lon="11.616799755010627"><ele>381.0</ele><time>2026-04-08T10:16:14.999Z</time></trkpt><trkpt lat="43.115669089182155" lon="11.616947633405319"><ele>381.0</ele><time>2026-04-08T10:16:15.999Z</time></trkpt><trkpt lat="43.11559950670136" lon="11.61710621682459"><ele>381.0</ele><time>2026-04-08T10:16:16.999Z</time></trkpt><trkpt lat="43.11554191537186" lon="11.617276238442242"><ele>381.20000000000005</ele><time>2026-04-08T10:16:17.999Z</time></trkpt><trkpt lat="43.115474779604185" lon="11.617427082045008"><ele>381.40000000000003</ele><time>2026-04-08T10:16:18.999Z</time></trkpt><trkpt lat="43.11541840062309" lon="11.61755969229307"><ele>381.6</ele><time>2026-04-08T10:16:19.999Z</time></trkpt><trkpt lat="43.115364756027745" lon="11.617668987224818"><ele>381.8</ele><time>2026-04-08T10:16:20.999Z</time></trkpt><trkpt lat="43.11532360890361" lon="11.617765900912376"><ele>382.0</ele><time>2026-04-08T10:16:21.999Z</time></trkpt><trkpt lat="43.11528153063109" lon="11.617856016897164"><ele>383.16666666666663</ele><time>2026-04-08T10:16:22.999Z</time></trkpt><trkpt lat="43.11525533546717" lon="11.617961199821073"><ele>384.3333333333333</ele><time>2026-04-08T10:16:23.999Z</time></trkpt><trkpt lat="43.115231379979306" lon="11.618043966284375"><ele>385.5</ele><time>2026-04-08T10:16:24.999Z</time></trkpt><trkpt lat="43.1152052695921" lon="11.618127481523837"><ele>386.66666666666663</ele><time>2026-04-08T10:16:25.999Z</time></trkpt><trkpt lat="43.11517581631599" lon="11.618272706189494"><ele>387.8333333333333</ele><time>2026-04-08T10:16:27.999Z</time></trkpt><trkpt lat="43.11514010767873" lon="11.6183685857853"><ele>389.0</ele><time>2026-04-08T10:16:29.999Z</time></trkpt><trkpt lat="43.115132478637435" lon="11.618457241856975"><ele>389.0</ele><time>2026-04-08T10:16:32.999Z</time></trkpt><trkpt lat="43.11526431412325" lon="11.618517188569875"><ele>389.0</ele><time>2026-04-08T10:16:34.999Z</time></trkpt><trkpt lat="43.11536933614389" lon="11.618546446565336"><ele>389.0</ele><time>2026-04-08T10:16:46.999Z</time></trkpt><trkpt lat="43.11544011996852" lon="11.618577057988423"><ele>389.0</ele><time>2026-04-08T10:16:48.999Z</time></trkpt><trkpt lat="43.115534554197694" lon="11.618601345819943"><ele>389.0</ele><time>2026-04-08T10:16:50.999Z</time></trkpt><trkpt lat="43.11565078363676" lon="11.618643879536693"><ele>388.7142857142857</ele><time>2026-04-08T10:16:52.999Z</time></trkpt><trkpt lat="43.11571784961521" lon="11.61865418411871"><ele>388.4285714285714</ele><time>2026-04-08T10:16:53.999Z</time></trkpt><trkpt lat="43.11579495182084" lon="11.618661347590796"><ele>388.1428571428571</ele><time>2026-04-08T10:16:54.999Z</time></trkpt><trkpt lat="43.11587006889662" lon="11.618664521863051"><ele>387.8571428571429</ele><time>2026-04-08T10:16:55.999Z</time></trkpt><trkpt lat="43.11594046355042" lon="11.618662884325976"><ele>387.57142857142856</ele><time>2026-04-08T10:16:56.999Z</time></trkpt><trkpt lat="43.116004394160555" lon="11.618658066618645"><ele>387.2857142857143</ele><time>2026-04-08T10:16:57.999Z</time></trkpt><trkpt lat="43.116068523806" lon="11.618626081299812"><ele>387.0</ele><time>2026-04-08T10:16:59Z</time></trkpt><trkpt lat="43.11614994154797" lon="11.618607226545615"><ele>386.8</ele><time>2026-04-08T10:17:00Z</time></trkpt><trkpt lat="43.11624932980584" lon="11.61857765290584"><ele>386.6</ele><time>2026-04-08T10:17:01Z</time></trkpt><trkpt lat="43.11633793102225" lon="11.618542591233407"><ele>386.40000000000003</ele><time>2026-04-08T10:17:02Z</time></trkpt><trkpt lat="43.11641858715949" lon="11.61850957111023"><ele>386.20000000000005</ele><time>2026-04-08T10:17:03Z</time></trkpt><trkpt lat="43.11650577684201" lon="11.618487676013556"><ele>386.0</ele><time>2026-04-08T10:17:04Z</time></trkpt><trkpt lat="43.11659257815855" lon="11.618475295631658"><ele>384.4</ele><time>2026-04-08T10:17:05Z</time></trkpt><trkpt lat="43.11669439356748" lon="11.618464976172772"><ele>382.8</ele><time>2026-04-08T10:17:06Z</time></trkpt><trkpt lat="43.116797156023075" lon="11.618460888836472"><ele>381.2</ele><time>2026-04-08T10:17:07Z</time></trkpt><trkpt lat="43.1168994171371" lon="11.618472500526323"><ele>379.59999999999997</ele><time>2026-04-08T10:17:08Z</time></trkpt><trkpt lat="43.11698925829054" lon="11.618486882634691"><ele>378.0</ele><time>2026-04-08T10:17:09Z</time></trkpt><trkpt lat="43.117072923282244" lon="11.618499050013632"><ele>378.0</ele><time>2026-04-08T10:17:10Z</time></trkpt><trkpt lat="43.11716871752234" lon="11.61850761890359"><ele>378.0</ele><time>2026-04-08T10:17:11Z</time></trkpt><trkpt lat="43.1172663727962" lon="11.618514501843785"><ele>378.0</ele><time>2026-04-08T10:17:12Z</time></trkpt><trkpt lat="43.11737073850156" lon="11.61852471564851"><ele>378.0</ele><time>2026-04-08T10:17:13Z</time></trkpt><trkpt lat="43.117480773416354" lon="11.618542342409823"><ele>378.0</ele><time>2026-04-08T10:17:14Z</time></trkpt><trkpt lat="43.11759009748724" lon="11.618552324234328"><ele>376.75</ele><time>2026-04-08T10:17:15Z</time></trkpt><trkpt lat="43.117707299365165" lon="11.618561099574222"><ele>375.5</ele><time>2026-04-08T10:17:16Z</time></trkpt><trkpt lat="43.117827831333116" lon="11.618558720249725"><ele>374.25</ele><time>2026-04-08T10:17:17Z</time></trkpt><trkpt lat="43.11794988723782" lon="11.61856102208888"><ele>373.0</ele><time>2026-04-08T10:17:18Z</time></trkpt><trkpt lat="43.11807953013571" lon="11.61856192734707"><ele>373.0</ele><time>2026-04-08T10:17:19Z</time></trkpt><trkpt lat="43.11822574572695" lon="11.618565340835158"><ele>373.0</ele><time>2026-04-08T10:17:20Z</time></trkpt><trkpt lat="43.118373594861936" lon="11.618565283416702"><ele>373.0</ele><time>2026-04-08T10:17:21Z</time></trkpt><trkpt lat="43.11852948463289" lon="11.61857385897404"><ele>372.5</ele><time>2026-04-08T10:17:22Z</time></trkpt><trkpt lat="43.11868592044758" lon="11.618585580209247"><ele>372.0</ele><time>2026-04-08T10:17:23Z</time></trkpt><trkpt lat="43.11882338674756" lon="11.618597590657524"><ele>371.5</ele><time>2026-04-08T10:17:24Z</time></trkpt><trkpt lat="43.11895356923751" lon="11.61860889113323"><ele>371.0</ele><time>2026-04-08T10:17:25Z</time></trkpt><trkpt lat="43.11909130882888" lon="11.61862717169643"><ele>370.5</ele><time>2026-04-08T10:17:26Z</time></trkpt><trkpt lat="43.11923406010578" lon="11.618645186650664"><ele>370.0</ele><time>2026-04-08T10:17:27Z</time></trkpt><trkpt lat="43.119372264846696" lon="11.618668695038519"><ele>369.5</ele><time>2026-04-08T10:17:28Z</time></trkpt><trkpt lat="43.11950905844725" lon="11.618684511418042"><ele>369.0</ele><time>2026-04-08T10:17:29Z</time></trkpt><trkpt lat="43.119653818387285" lon="11.618698777241393"><ele>369.0</ele><time>2026-04-08T10:17:30Z</time></trkpt><trkpt lat="43.11980398842054" lon="11.618707499470322"><ele>369.0</ele><time>2026-04-08T10:17:31Z</time></trkpt><trkpt lat="43.1199444827338" lon="11.618713382391217"><ele>369.0</ele><time>2026-04-08T10:17:32Z</time></trkpt><trkpt lat="43.12008537741095" lon="11.61872529213059"><ele>369.0</ele><time>2026-04-08T10:17:33Z</time></trkpt><trkpt lat="43.120220279281845" lon="11.618735920234867"><ele>370.2</ele><time>2026-04-08T10:17:34Z</time></trkpt><trkpt lat="43.12033537775553" lon="11.618750117287314"><ele>371.4</ele><time>2026-04-08T10:17:35Z</time></trkpt><trkpt lat="43.12042598676598" lon="11.61876699647806"><ele>372.6</ele><time>2026-04-08T10:17:36Z</time></trkpt><trkpt lat="43.120513677196634" lon="11.61877500714793"><ele>373.8</ele><time>2026-04-08T10:17:37Z</time></trkpt><trkpt lat="43.1205956129147" lon="11.618766179609702"><ele>375.0</ele><time>2026-04-08T10:17:38Z</time></trkpt><trkpt lat="43.12068081576907" lon="11.618742282547041"><ele>376.25</ele><time>2026-04-08T10:17:39Z</time></trkpt><trkpt lat="43.12078316468578" lon="11.618727670499387"><ele>377.5</ele><time>2026-04-08T10:17:40Z</time></trkpt><trkpt lat="43.12087905929071" lon="11.618636088449293"><ele>378.75</ele><time>2026-04-08T10:17:41Z</time></trkpt><trkpt lat="43.12098350736986" lon="11.618546886055348"><ele>380.0</ele><time>2026-04-08T10:17:42Z</time></trkpt><trkpt lat="43.121096371117865" lon="11.61842862398065"><ele>380.0</ele><time>2026-04-08T10:17:43Z</time></trkpt><trkpt lat="43.12121335354351" lon="11.618300327362569"><ele>380.0</ele><time>2026-04-08T10:17:44Z</time></trkpt><trkpt lat="43.121339463609246" lon="11.618169146657435"><ele>380.0</ele><time>2026-04-08T10:17:45Z</time></trkpt><trkpt lat="43.121450553619155" lon="11.61805283798759"><ele>380.0</ele><time>2026-04-08T10:17:46Z</time></trkpt><trkpt lat="43.12154277952135" lon="11.617963641366472"><ele>380.6</ele><time>2026-04-08T10:17:47Z</time></trkpt><trkpt lat="43.1216254856263" lon="11.617878185364"><ele>381.2</ele><time>2026-04-08T10:17:48Z</time></trkpt><trkpt lat="43.12171539815134" lon="11.617781864295383"><ele>381.79999999999995</ele><time>2026-04-08T10:17:49Z</time></trkpt><trkpt lat="43.121801652469195" lon="11.617686453561946"><ele>382.4</ele><time>2026-04-08T10:17:50Z</time></trkpt><trkpt lat="43.12188376153267" lon="11.617601765437625"><ele>383.0</ele><time>2026-04-08T10:17:51Z</time></trkpt><trkpt lat="43.121969108033305" lon="11.617517528613652"><ele>383.0</ele><time>2026-04-08T10:17:52Z</time></trkpt><trkpt lat="43.122048408954896" lon="11.617436551804586"><ele>383.0</ele><time>2026-04-08T10:17:53Z</time></trkpt><trkpt lat="43.12212312861929" lon="11.617363714386643"><ele>383.0</ele><time>2026-04-08T10:17:54Z</time></trkpt><trkpt lat="43.122208180332876" lon="11.617285282683422"><ele>383.0</ele><time>2026-04-08T10:17:55Z</time></trkpt><trkpt lat="43.1222983569243" lon="11.617191472779611"><ele>383.0</ele><time>2026-04-08T10:17:56Z</time></trkpt><trkpt lat="43.122382481301265" lon="11.617104258663938"><ele>381.2</ele><time>2026-04-08T10:17:57Z</time></trkpt><trkpt lat="43.122456895798436" lon="11.61702164555401"><ele>379.4</ele><time>2026-04-08T10:17:58Z</time></trkpt><trkpt lat="43.12252852628271" lon="11.616935858644442"><ele>377.59999999999997</ele><time>2026-04-08T10:17:59Z</time></trkpt><trkpt lat="43.122602857897654" lon="11.616835359596624"><ele>375.79999999999995</ele><time>2026-04-08T10:18:00Z</time></trkpt><trkpt lat="43.12266781601272" lon="11.616737627407494"><ele>374.0</ele><time>2026-04-08T10:18:01Z</time></trkpt><trkpt lat="43.12272719236488" lon="11.616642966006657"><ele>374.0</ele><time>2026-04-08T10:18:02Z</time></trkpt><trkpt lat="43.12279200649189" lon="11.616534006943215"><ele>374.0</ele><time>2026-04-08T10:18:03Z</time></trkpt><trkpt lat="43.12286252033438" lon="11.61639895755916"><ele>374.0</ele><time>2026-04-08T10:18:04Z</time></trkpt><trkpt lat="43.122931091682894" lon="11.616255896618783"><ele>374.0</ele><time>2026-04-08T10:18:05Z</time></trkpt><trkpt lat="43.122998245619684" lon="11.616105014524791"><ele>374.25</ele><time>2026-04-08T10:18:06Z</time></trkpt><trkpt lat="43.12305968863059" lon="11.615960094068074"><ele>374.5</ele><time>2026-04-08T10:18:07Z</time></trkpt><trkpt lat="43.12311446352495" lon="11.615819346579466"><ele>374.75</ele><time>2026-04-08T10:18:08Z</time></trkpt><trkpt lat="43.12318174279673" lon="11.615674269506252"><ele>375.0</ele><time>2026-04-08T10:18:09Z</time></trkpt><trkpt lat="43.12325972290177" lon="11.615517346290128"><ele>375.0</ele><time>2026-04-08T10:18:10Z</time></trkpt><trkpt lat="43.123343943839586" lon="11.615360592572173"><ele>375.0</ele><time>2026-04-08T10:18:11Z</time></trkpt><trkpt lat="43.123432833670016" lon="11.615205964095054"><ele>375.0</ele><time>2026-04-08T10:18:12Z</time></trkpt><trkpt lat="43.12352006217211" lon="11.61505827551667"><ele>375.0</ele><time>2026-04-08T10:18:13Z</time></trkpt><trkpt lat="43.123604224940316" lon="11.614920121028986"><ele>376.75</ele><time>2026-04-08T10:18:14Z</time></trkpt><trkpt lat="43.12368069701221" lon="11.614804063357868"><ele>378.5</ele><time>2026-04-08T10:18:15Z</time></trkpt><trkpt lat="43.1237640975557" lon="11.614695487582148"><ele>380.25</ele><time>2026-04-08T10:18:16Z</time></trkpt><trkpt lat="43.123861692543024" lon="11.614596293971662"><ele>382.0</ele><time>2026-04-08T10:18:17Z</time></trkpt><trkpt lat="43.12397635552782" lon="11.614503969833715"><ele>383.40000000000003</ele><time>2026-04-08T10:18:18Z</time></trkpt><trkpt lat="43.12407911158191" lon="11.614437733938468"><ele>384.8</ele><time>2026-04-08T10:18:19Z</time></trkpt><trkpt lat="43.124182588859995" lon="11.614383921557867"><ele>386.2</ele><time>2026-04-08T10:18:20Z</time></trkpt><trkpt lat="43.12428552658898" lon="11.614345842342239"><ele>387.6</ele><time>2026-04-08T10:18:21Z</time></trkpt><trkpt lat="43.124382577099546" lon="11.61432343635057"><ele>389.0</ele><time>2026-04-08T10:18:22Z</time></trkpt><trkpt lat="43.124480652139084" lon="11.614299680491207"><ele>389.0</ele><time>2026-04-08T10:18:23Z</time></trkpt><trkpt lat="43.12457787302302" lon="11.61427740123263"><ele>389.0</ele><time>2026-04-08T10:18:24Z</time></trkpt><trkpt lat="43.1246801976683" lon="11.614255980845083"><ele>389.0</ele><time>2026-04-08T10:18:25Z</time></trkpt><trkpt lat="43.12479155107152" lon="11.614239486359635"><ele>389.0</ele><time>2026-04-08T10:18:26Z</time></trkpt><trkpt lat="43.12489071865482" lon="11.614238025462374"><ele>389.0</ele><time>2026-04-08T10:18:27Z</time></trkpt><trkpt lat="43.124983883599455" lon="11.614252103198547"><ele>387.6</ele><time>2026-04-08T10:18:28Z</time></trkpt><trkpt lat="43.12508106457363" lon="11.614284565908097"><ele>386.2</ele><time>2026-04-08T10:18:29Z</time></trkpt><trkpt lat="43.12517437774026" lon="11.614359520017139"><ele>384.8</ele><time>2026-04-08T10:18:30Z</time></trkpt><trkpt lat="43.12528526230787" lon="11.614397154980246"><ele>383.40000000000003</ele><time>2026-04-08T10:18:31Z</time></trkpt><trkpt lat="43.125391031336896" lon="11.614451161765416"><ele>382.0</ele><time>2026-04-08T10:18:32Z</time></trkpt><trkpt lat="43.12548162630467" lon="11.61450618361473"><ele>381.16666666666663</ele><time>2026-04-08T10:18:33Z</time></trkpt><trkpt lat="43.125570726216864" lon="11.614538552014668"><ele>380.3333333333333</ele><time>2026-04-08T10:18:34Z</time></trkpt><trkpt lat="43.125664478155365" lon="11.614558116566815"><ele>379.5</ele><time>2026-04-08T10:18:35Z</time></trkpt><trkpt lat="43.12575651576977" lon="11.614565613194516"><ele>378.6666666666667</ele><time>2026-04-08T10:18:36Z</time></trkpt><trkpt lat="43.12584081162401" lon="11.61456728797482"><ele>377.83333333333337</ele><time>2026-04-08T10:18:37Z</time></trkpt><trkpt lat="43.125920123330275" lon="11.614549922090157"><ele>377.0</ele><time>2026-04-08T10:18:38Z</time></trkpt><trkpt lat="43.1260083834923" lon="11.614532349480594"><ele>377.0</ele><time>2026-04-08T10:18:39Z</time></trkpt><trkpt lat="43.126092057209675" lon="11.614518190920814"><ele>377.0</ele><time>2026-04-08T10:18:40Z</time></trkpt><trkpt lat="43.12617398623529" lon="11.614506361647576"><ele>377.0</ele><time>2026-04-08T10:18:41Z</time></trkpt><trkpt lat="43.12625013256718" lon="11.614487827703902"><ele>377.0</ele><time>2026-04-08T10:18:42Z</time></trkpt><trkpt lat="43.12631981202171" lon="11.614478876245563"><ele>377.0</ele><time>2026-04-08T10:18:43Z</time></trkpt><trkpt lat="43.12639695440425" lon="11.614474364870954"><ele>377.0</ele><time>2026-04-08T10:18:44Z</time></trkpt><trkpt lat="43.12648005008369" lon="11.614460882852208"><ele>377.1666666666667</ele><time>2026-04-08T10:18:45Z</time></trkpt><trkpt lat="43.126562625635394" lon="11.614451252626516"><ele>377.33333333333337</ele><time>2026-04-08T10:18:46Z</time></trkpt><trkpt lat="43.12665601556344" lon="11.61444558713057"><ele>377.5</ele><time>2026-04-08T10:18:47Z</time></trkpt><trkpt lat="43.126753634874504" lon="11.614434792644499"><ele>377.6666666666667</ele><time>2026-04-08T10:18:48Z</time></trkpt><trkpt lat="43.12684180649927" lon="11.614428427509333"><ele>377.8333333333333</ele><time>2026-04-08T10:18:49Z</time></trkpt><trkpt lat="43.126922365951394" lon="11.614422696372953"><ele>378.0</ele><time>2026-04-08T10:18:50Z</time></trkpt><trkpt lat="43.12698875496324" lon="11.614416053451224"><ele>378.0</ele><time>2026-04-08T10:18:51Z</time></trkpt><trkpt lat="43.127055810848105" lon="11.614404518432611"><ele>378.0</ele><time>2026-04-08T10:18:52Z</time></trkpt><trkpt lat="43.12713361768267" lon="11.61439042135891"><ele>378.0</ele><time>2026-04-08T10:18:53Z</time></trkpt><trkpt lat="43.127199380841034" lon="11.614376611306103"><ele>378.0</ele><time>2026-04-08T10:18:54Z</time></trkpt><trkpt lat="43.127262696655855" lon="11.614341205718246"><ele>378.0</ele><time>2026-04-08T10:18:55Z</time></trkpt><trkpt lat="43.12733620906008" lon="11.614296476371306"><ele>378.0</ele><time>2026-04-08T10:18:56Z</time></trkpt><trkpt lat="43.127404732370124" lon="11.614230830449474"><ele>378.0</ele><time>2026-04-08T10:18:57Z</time></trkpt><trkpt lat="43.12746669423007" lon="11.61415902991988"><ele>377.5</ele><time>2026-04-08T10:18:58Z</time></trkpt><trkpt lat="43.127526070658824" lon="11.61408143795693"><ele>377.0</ele><time>2026-04-08T10:18:59Z</time></trkpt><trkpt lat="43.12758319111208" lon="11.614001035581424"><ele>376.5</ele><time>2026-04-08T10:19:00Z</time></trkpt><trkpt lat="43.1276420819695" lon="11.613918773609326"><ele>376.0</ele><time>2026-04-08T10:19:01Z</time></trkpt><trkpt lat="43.12769901640643" lon="11.613834095131892"><ele>375.5</ele><time>2026-04-08T10:19:02Z</time></trkpt><trkpt lat="43.12775937317144" lon="11.613748275233462"><ele>375.0</ele><time>2026-04-08T10:19:03Z</time></trkpt><trkpt lat="43.127819065324594" lon="11.613667804536036"><ele>374.1666666666667</ele><time>2026-04-08T10:19:04Z</time></trkpt><trkpt lat="43.127875019158225" lon="11.613593702519065"><ele>373.3333333333333</ele><time>2026-04-08T10:19:05Z</time></trkpt><trkpt lat="43.12793057618037" lon="11.613526220853371"><ele>372.5</ele><time>2026-04-08T10:19:06Z</time></trkpt><trkpt lat="43.127992486809646" lon="11.61346494225174"><ele>371.66666666666663</ele><time>2026-04-08T10:19:07Z</time></trkpt><trkpt lat="43.12805638496807" lon="11.613411685303854"><ele>370.8333333333333</ele><time>2026-04-08T10:19:08Z</time></trkpt><trkpt lat="43.12813738981583" lon="11.61334798365837"><ele>370.0</ele><time>2026-04-08T10:19:09Z</time></trkpt><trkpt lat="43.12822546678517" lon="11.613281536831908"><ele>369.66666666666663</ele><time>2026-04-08T10:19:10Z</time></trkpt><trkpt lat="43.128309229669675" lon="11.613219405607095"><ele>369.3333333333333</ele><time>2026-04-08T10:19:11Z</time></trkpt><trkpt lat="43.128391541829885" lon="11.61317010522472"><ele>369.0</ele><time>2026-04-08T10:19:12Z</time></trkpt><trkpt lat="43.12846880786467" lon="11.613116595509524"><ele>368.6666666666667</ele><time>2026-04-08T10:19:13Z</time></trkpt><trkpt lat="43.128543410595654" lon="11.613063723010958"><ele>368.33333333333337</ele><time>2026-04-08T10:19:14Z</time></trkpt><trkpt lat="43.12862058310953" lon="11.613009394983614"><ele>368.0</ele><time>2026-04-08T10:19:15Z</time></trkpt><trkpt lat="43.128694012841514" lon="11.612957346252397"><ele>368.0</ele><time>2026-04-08T10:19:16Z</time></trkpt><trkpt lat="43.12874900705208" lon="11.612907144343238"><ele>368.0</ele><time>2026-04-08T10:19:17Z</time></trkpt><trkpt lat="43.128812920156754" lon="11.612769316316088"><ele>368.0</ele><time>2026-04-08T10:19:19Z</time></trkpt><trkpt lat="43.12882824118057" lon="11.612672479566154"><ele>368.0</ele><time>2026-04-08T10:19:20Z</time></trkpt><trkpt lat="43.12883505952467" lon="11.612549274389822"><ele>368.0</ele><time>2026-04-08T10:19:21Z</time></trkpt><trkpt lat="43.12883461220191" lon="11.612404972735385"><ele>366.25</ele><time>2026-04-08T10:19:22Z</time></trkpt><trkpt lat="43.12883442958177" lon="11.61223409255983"><ele>364.5</ele><time>2026-04-08T10:19:23Z</time></trkpt><trkpt lat="43.12883936672568" lon="11.612034952312206"><ele>362.75</ele><time>2026-04-08T10:19:24Z</time></trkpt><trkpt lat="43.12884859898192" lon="11.61183054831724"><ele>361.0</ele><time>2026-04-08T10:19:25Z</time></trkpt><trkpt lat="43.12885912980657" lon="11.611615602281475"><ele>358.66666666666663</ele><time>2026-04-08T10:19:26Z</time></trkpt><trkpt lat="43.12886748293646" lon="11.611377405292618"><ele>356.3333333333333</ele><time>2026-04-08T10:19:27Z</time></trkpt><trkpt lat="43.128878664939556" lon="11.611147243659925"><ele>354.0</ele><time>2026-04-08T10:19:28Z</time></trkpt><trkpt lat="43.128886152321854" lon="11.610944301111134"><ele>353.6</ele><time>2026-04-08T10:19:29Z</time></trkpt><trkpt lat="43.12889713265108" lon="11.610775461459339"><ele>353.2</ele><time>2026-04-08T10:19:30Z</time></trkpt><trkpt lat="43.128903627621334" lon="11.610624303236674"><ele>352.8</ele><time>2026-04-08T10:19:31Z</time></trkpt><trkpt lat="43.128900188228165" lon="11.610479892494213"><ele>352.40000000000003</ele><time>2026-04-08T10:19:32Z</time></trkpt><trkpt lat="43.128886695414664" lon="11.610331562722937"><ele>352.0</ele><time>2026-04-08T10:19:33Z</time></trkpt><trkpt lat="43.12885734908387" lon="11.610182559048924"><ele>353.75</ele><time>2026-04-08T10:19:34Z</time></trkpt><trkpt lat="43.12881671994651" lon="11.610020393619656"><ele>355.5</ele><time>2026-04-08T10:19:35Z</time></trkpt><trkpt lat="43.128768053240606" lon="11.609847039284098"><ele>357.25</ele><time>2026-04-08T10:19:36Z</time></trkpt><trkpt lat="43.12871573581557" lon="11.609683737635523"><ele>359.0</ele><time>2026-04-08T10:19:37Z</time></trkpt><trkpt lat="43.12865716582004" lon="11.609549205846658"><ele>361.5</ele><time>2026-04-08T10:19:38Z</time></trkpt><trkpt lat="43.128591374582804" lon="11.60940380765126"><ele>364.0</ele><time>2026-04-08T10:19:39Z</time></trkpt><trkpt lat="43.128523737748246" lon="11.609256375011238"><ele>366.5</ele><time>2026-04-08T10:19:40Z</time></trkpt><trkpt lat="43.12845553637464" lon="11.60910775813644"><ele>369.0</ele><time>2026-04-08T10:19:41Z</time></trkpt><trkpt lat="43.12839246185132" lon="11.608954232799663"><ele>369.0</ele><time>2026-04-08T10:19:42Z</time></trkpt><trkpt lat="43.128337494363194" lon="11.608787080933682"><ele>369.0</ele><time>2026-04-08T10:19:43Z</time></trkpt><trkpt lat="43.12828976594173" lon="11.608635159879205"><ele>369.0</ele><time>2026-04-08T10:19:44Z</time></trkpt><trkpt lat="43.128237904050884" lon="11.608505854768216"><ele>369.0</ele><time>2026-04-08T10:19:45Z</time></trkpt><trkpt lat="43.12817672339536" lon="11.608384127878455"><ele>367.0</ele><time>2026-04-08T10:19:46Z</time></trkpt><trkpt lat="43.128106265340726" lon="11.608264068235272"><ele>365.0</ele><time>2026-04-08T10:19:47Z</time></trkpt><trkpt lat="43.12803683958926" lon="11.608143306140224"><ele>363.0</ele><time>2026-04-08T10:19:48Z</time></trkpt><trkpt lat="43.12795548035185" lon="11.608024031989139"><ele>361.0</ele><time>2026-04-08T10:19:49Z</time></trkpt><trkpt lat="43.127872874101584" lon="11.607907143020023"><ele>362.8</ele><time>2026-04-08T10:19:50Z</time></trkpt><trkpt lat="43.12780542447899" lon="11.6077988232037"><ele>364.6</ele><time>2026-04-08T10:19:51Z</time></trkpt><trkpt lat="43.127745712646586" lon="11.60767841441536"><ele>366.4</ele><time>2026-04-08T10:19:52Z</time></trkpt><trkpt lat="43.127689943541135" lon="11.60754528266574"><ele>368.2</ele><time>2026-04-08T10:19:53Z</time></trkpt><trkpt lat="43.127639817727264" lon="11.607403171809338"><ele>370.0</ele><time>2026-04-08T10:19:54Z</time></trkpt><trkpt lat="43.12760240604361" lon="11.607259001599827"><ele>370.0</ele><time>2026-04-08T10:19:55Z</time></trkpt><trkpt lat="43.127565204379366" lon="11.60713330957277"><ele>370.0</ele><time>2026-04-08T10:19:56Z</time></trkpt><trkpt lat="43.12753163275172" lon="11.607033494949142"><ele>370.0</ele><time>2026-04-08T10:19:57Z</time></trkpt><trkpt lat="43.12750307775461" lon="11.606941652829919"><ele>370.0</ele><time>2026-04-08T10:19:58Z</time></trkpt><trkpt lat="43.127470496200964" lon="11.606843926012534"><ele>370.0</ele><time>2026-04-08T10:19:59Z</time></trkpt><trkpt lat="43.12743736274799" lon="11.606727257347158"><ele>370.0</ele><time>2026-04-08T10:20:00Z</time></trkpt><trkpt lat="43.127414897311645" lon="11.606616200669297"><ele>370.3333333333333</ele><time>2026-04-08T10:20:01Z</time></trkpt><trkpt lat="43.12739498575446" lon="11.60650544957012"><ele>370.66666666666663</ele><time>2026-04-08T10:20:02Z</time></trkpt><trkpt lat="43.12737556592807" lon="11.60638860974757"><ele>371.0</ele><time>2026-04-08T10:20:03Z</time></trkpt><trkpt lat="43.12735696958617" lon="11.606276094298876"><ele>371.3333333333333</ele><time>2026-04-08T10:20:04Z</time></trkpt><trkpt lat="43.12733926232252" lon="11.606163574418087"><ele>371.6666666666667</ele><time>2026-04-08T10:20:05Z</time></trkpt><trkpt lat="43.127316655952555" lon="11.606058839963703"><ele>372.0</ele><time>2026-04-08T10:20:06Z</time></trkpt><trkpt lat="43.12728405151404" lon="11.605953055039146"><ele>370.0</ele><time>2026-04-08T10:20:07Z</time></trkpt><trkpt lat="43.12723351452907" lon="11.605838175747587"><ele>368.0</ele><time>2026-04-08T10:20:08Z</time></trkpt><trkpt lat="43.12717191150285" lon="11.605731321081585"><ele>366.0</ele><time>2026-04-08T10:20:09Z</time></trkpt><trkpt lat="43.127101099566545" lon="11.605625164526206"><ele>364.0</ele><time>2026-04-08T10:20:10Z</time></trkpt><trkpt lat="43.12701813583844" lon="11.605528631744203"><ele>362.0</ele><time>2026-04-08T10:20:11Z</time></trkpt><trkpt lat="43.12691916052965" lon="11.605436120106527"><ele>362.0</ele><time>2026-04-08T10:20:12Z</time></trkpt><trkpt lat="43.126809773693395" lon="11.605341132513958"><ele>362.0</ele><time>2026-04-08T10:20:13Z</time></trkpt><trkpt lat="43.126714017142575" lon="11.60525996199953"><ele>362.0</ele><time>2026-04-08T10:20:14Z</time></trkpt><trkpt lat="43.12662695536812" lon="11.60517370744303"><ele>362.0</ele><time>2026-04-08T10:20:15Z</time></trkpt><trkpt lat="43.12653872010364" lon="11.60507427170818"><ele>361.75</ele><time>2026-04-08T10:20:16Z</time></trkpt><trkpt lat="43.126453458748344" lon="11.604951622028063"><ele>361.5</ele><time>2026-04-08T10:20:17Z</time></trkpt><trkpt lat="43.12637615209171" lon="11.604818885515305"><ele>361.25</ele><time>2026-04-08T10:20:18Z</time></trkpt><trkpt lat="43.12630286638208" lon="11.60465432329247"><ele>361.0</ele><time>2026-04-08T10:20:19Z</time></trkpt><trkpt lat="43.1262299841353" lon="11.604464661355209"><ele>362.66666666666663</ele><time>2026-04-08T10:20:20Z</time></trkpt><trkpt lat="43.12615574037184" lon="11.60426773600521"><ele>364.3333333333333</ele><time>2026-04-08T10:20:21Z</time></trkpt><trkpt lat="43.126074575696705" lon="11.604064851348419"><ele>366.0</ele><time>2026-04-08T10:20:22Z</time></trkpt><trkpt lat="43.12598748656222" lon="11.603857874545692"><ele>366.0</ele><time>2026-04-08T10:20:23Z</time></trkpt><trkpt lat="43.125908093983234" lon="11.603666234408136"><ele>366.0</ele><time>2026-04-08T10:20:24Z</time></trkpt><trkpt lat="43.125835731145735" lon="11.603496017555042"><ele>366.0</ele><time>2026-04-08T10:20:25Z</time></trkpt><trkpt lat="43.125767083686334" lon="11.603321036058128"><ele>364.6666666666667</ele><time>2026-04-08T10:20:26Z</time></trkpt><trkpt lat="43.12569264579009" lon="11.603135476686768"><ele>363.33333333333337</ele><time>2026-04-08T10:20:27Z</time></trkpt><trkpt lat="43.125617384310964" lon="11.602936073363852"><ele>362.0</ele><time>2026-04-08T10:20:28Z</time></trkpt><trkpt lat="43.12553700577527" lon="11.602736185550587"><ele>362.0</ele><time>2026-04-08T10:20:29Z</time></trkpt><trkpt lat="43.12545097176268" lon="11.602549892946895"><ele>362.0</ele><time>2026-04-08T10:20:30Z</time></trkpt><trkpt lat="43.125371813854024" lon="11.602351916123741"><ele>362.0</ele><time>2026-04-08T10:20:31Z</time></trkpt><trkpt lat="43.12528614158717" lon="11.602147305963385"><ele>363.6666666666667</ele><time>2026-04-08T10:20:32Z</time></trkpt><trkpt lat="43.125204859395026" lon="11.601945526464522"><ele>365.3333333333333</ele><time>2026-04-08T10:20:33Z</time></trkpt><trkpt lat="43.12513058445979" lon="11.601765581551486"><ele>367.0</ele><time>2026-04-08T10:20:34Z</time></trkpt><trkpt lat="43.125073166555794" lon="11.601591064666643"><ele>367.0</ele><time>2026-04-08T10:20:35Z</time></trkpt><trkpt lat="43.12500479376778" lon="11.601402743717209"><ele>367.0</ele><time>2026-04-08T10:20:36Z</time></trkpt><trkpt lat="43.12493838280255" lon="11.601213337612963"><ele>367.0</ele><time>2026-04-08T10:20:37Z</time></trkpt><trkpt lat="43.12487688997725" lon="11.601029178751817"><ele>366.0</ele><time>2026-04-08T10:20:38Z</time></trkpt><trkpt lat="43.12481543102447" lon="11.600848427401703"><ele>365.0</ele><time>2026-04-08T10:20:39Z</time></trkpt><trkpt lat="43.124749275684074" lon="11.600675616112868"><ele>364.0</ele><time>2026-04-08T10:20:40Z</time></trkpt><trkpt lat="43.124674047760486" lon="11.600499622665282"><ele>363.0</ele><time>2026-04-08T10:20:41Z</time></trkpt><trkpt lat="43.12459242079782" lon="11.600328840084535"><ele>365.0</ele><time>2026-04-08T10:20:42Z</time></trkpt><trkpt lat="43.12450615132151" lon="11.600162202958385"><ele>367.0</ele><time>2026-04-08T10:20:43Z</time></trkpt><trkpt lat="43.12442341646347" lon="11.6000093835638"><ele>369.0</ele><time>2026-04-08T10:20:44Z</time></trkpt><trkpt lat="43.12434401259326" lon="11.599868272761505"><ele>371.0</ele><time>2026-04-08T10:20:45Z</time></trkpt><trkpt lat="43.124272215277166" lon="11.599739370432896"><ele>371.0</ele><time>2026-04-08T10:20:46Z</time></trkpt><trkpt lat="43.124208901797125" lon="11.599618669589882"><ele>371.0</ele><time>2026-04-08T10:20:47Z</time></trkpt><trkpt lat="43.12414849827651" lon="11.599505041324166"><ele>371.0</ele><time>2026-04-08T10:20:48Z</time></trkpt><trkpt lat="43.12409843408848" lon="11.599402413333985"><ele>371.0</ele><time>2026-04-08T10:20:49Z</time></trkpt><trkpt lat="43.124065704052704" lon="11.599299320409651"><ele>371.0</ele><time>2026-04-08T10:20:50Z</time></trkpt><trkpt lat="43.12404671298505" lon="11.599175668951478"><ele>370.8</ele><time>2026-04-08T10:20:51Z</time></trkpt><trkpt lat="43.12404768616061" lon="11.599037424863084"><ele>370.6</ele><time>2026-04-08T10:20:52Z</time></trkpt><trkpt lat="43.12407469958918" lon="11.598913053088603"><ele>370.4</ele><time>2026-04-08T10:20:53Z</time></trkpt><trkpt lat="43.12412030664454" lon="11.59877854626377"><ele>370.2</ele><time>2026-04-08T10:20:54Z</time></trkpt><trkpt lat="43.124182934258066" lon="11.598649553278701"><ele>370.0</ele><time>2026-04-08T10:20:55Z</time></trkpt><trkpt lat="43.12423994826484" lon="11.598510256578829"><ele>369.6</ele><time>2026-04-08T10:20:56Z</time></trkpt><trkpt lat="43.12428217236051" lon="11.598381239342178"><ele>369.2</ele><time>2026-04-08T10:20:57Z</time></trkpt><trkpt lat="43.124321513013264" lon="11.598249206321398"><ele>368.79999999999995</ele><time>2026-04-08T10:20:58Z</time></trkpt><trkpt lat="43.12435423541838" lon="11.598113467903673"><ele>368.4</ele><time>2026-04-08T10:20:59Z</time></trkpt><trkpt lat="43.12437092798275" lon="11.597975773489026"><ele>368.0</ele><time>2026-04-08T10:21:00Z</time></trkpt><trkpt lat="43.12437393454893" lon="11.597826876278562"><ele>367.59999999999997</ele><time>2026-04-08T10:21:01Z</time></trkpt><trkpt lat="43.12437240886274" lon="11.597681436687488"><ele>367.2</ele><time>2026-04-08T10:21:02Z</time></trkpt><trkpt lat="43.12437468722317" lon="11.597543527016065"><ele>366.8</ele><time>2026-04-08T10:21:03Z</time></trkpt><trkpt lat="43.12438403795705" lon="11.597400398419886"><ele>366.4</ele><time>2026-04-08T10:21:04Z</time></trkpt><trkpt lat="43.12439116842735" lon="11.597269451908994"><ele>366.0</ele><time>2026-04-08T10:21:05Z</time></trkpt><trkpt lat="43.124391682111195" lon="11.597132949854489"><ele>364.6</ele><time>2026-04-08T10:21:06Z</time></trkpt><trkpt lat="43.12440051512822" lon="11.596993319656502"><ele>363.20000000000005</ele><time>2026-04-08T10:21:07Z</time></trkpt><trkpt lat="43.124407197103174" lon="11.596840628159592"><ele>361.79999999999995</ele><time>2026-04-08T10:21:08Z</time></trkpt><trkpt lat="43.124415737353765" lon="11.596683737688503"><ele>360.4</ele><time>2026-04-08T10:21:09Z</time></trkpt><trkpt lat="43.12442380658943" lon="11.596526601557732"><ele>359.0</ele><time>2026-04-08T10:21:10Z</time></trkpt><trkpt lat="43.124435897347965" lon="11.596360827025219"><ele>359.0</ele><time>2026-04-08T10:21:11Z</time></trkpt><trkpt lat="43.12445766964388" lon="11.596192873300106"><ele>359.0</ele><time>2026-04-08T10:21:12Z</time></trkpt><trkpt lat="43.124479541219536" lon="11.596027882813845"><ele>359.0</ele><time>2026-04-08T10:21:13Z</time></trkpt><trkpt lat="43.12450312174306" lon="11.595872989891529"><ele>359.0</ele><time>2026-04-08T10:21:14Z</time></trkpt><trkpt lat="43.12451302011162" lon="11.595743019395226"><ele>359.0</ele><time>2026-04-08T10:21:15Z</time></trkpt><trkpt lat="43.124507099457375" lon="11.595614782590376"><ele>359.0</ele><time>2026-04-08T10:21:16Z</time></trkpt><trkpt lat="43.124492903893874" lon="11.595474830155622"><ele>359.0</ele><time>2026-04-08T10:21:17Z</time></trkpt><trkpt lat="43.12446468981259" lon="11.595333714203349"><ele>359.0</ele><time>2026-04-08T10:21:18Z</time></trkpt><trkpt lat="43.12442842017071" lon="11.595193669823495"><ele>359.0</ele><time>2026-04-08T10:21:19Z</time></trkpt><trkpt lat="43.1243859284261" lon="11.595040155472057"><ele>360.25</ele><time>2026-04-08T10:21:20Z</time></trkpt><trkpt lat="43.12433967677279" lon="11.59489042554402"><ele>361.5</ele><time>2026-04-08T10:21:21Z</time></trkpt><trkpt lat="43.12428816635776" lon="11.594735067186923"><ele>362.75</ele><time>2026-04-08T10:21:22Z</time></trkpt><trkpt lat="43.12424291986087" lon="11.59459053328116"><ele>364.0</ele><time>2026-04-08T10:21:23Z</time></trkpt><trkpt lat="43.12419828435612" lon="11.594480705430055"><ele>364.2857142857143</ele><time>2026-04-08T10:21:24Z</time></trkpt><trkpt lat="43.12416701728114" lon="11.594393890432077"><ele>364.57142857142856</ele><time>2026-04-08T10:21:25Z</time></trkpt><trkpt lat="43.124142553201764" lon="11.594298512630242"><ele>364.8571428571429</ele><time>2026-04-08T10:21:26Z</time></trkpt><trkpt lat="43.12412790939364" lon="11.594212109413338"><ele>365.1428571428571</ele><time>2026-04-08T10:21:27Z</time></trkpt><trkpt lat="43.12411835335893" lon="11.594117198102607"><ele>365.42857142857144</ele><time>2026-04-08T10:21:28Z</time></trkpt><trkpt lat="43.12410468902309" lon="11.594013033429755"><ele>365.7142857142857</ele><time>2026-04-08T10:21:29Z</time></trkpt><trkpt lat="43.12410735644418" lon="11.593894319321452"><ele>366.0</ele><time>2026-04-08T10:21:30Z</time></trkpt><trkpt lat="43.124115706902884" lon="11.593779472097264"><ele>366.0</ele><time>2026-04-08T10:21:31Z</time></trkpt><trkpt lat="43.12412927488013" lon="11.593679529398694"><ele>366.0</ele><time>2026-04-08T10:21:32Z</time></trkpt><trkpt lat="43.12412560162835" lon="11.593591004168545"><ele>366.0</ele><time>2026-04-08T10:21:33Z</time></trkpt><trkpt lat="43.124131475773126" lon="11.593440760143949"><ele>366.0</ele><time>2026-04-08T10:21:35Z</time></trkpt><trkpt lat="43.12413581967742" lon="11.593329911758198"><ele>366.0</ele><time>2026-04-08T10:21:37Z</time></trkpt><trkpt lat="43.12412812520208" lon="11.593200516993512"><ele>366.0</ele><time>2026-04-08T10:22:09Z</time></trkpt><trkpt lat="43.12415747482984" lon="11.593108263202504"><ele>366.6</ele><time>2026-04-08T10:22:11Z</time></trkpt><trkpt lat="43.1242775330697" lon="11.593193976575998"><ele>367.20000000000005</ele><time>2026-04-08T10:22:14Z</time></trkpt><trkpt lat="43.124350485210094" lon="11.593158798495566"><ele>367.79999999999995</ele><time>2026-04-08T10:22:16Z</time></trkpt><trkpt lat="43.124415521947206" lon="11.593123935357413"><ele>368.4</ele><time>2026-04-08T10:22:19Z</time></trkpt><trkpt lat="43.12429594256381" lon="11.59318514767364"><ele>369.0</ele><time>2026-04-08T10:22:47Z</time></trkpt><trkpt lat="43.12422399858941" lon="11.59321835556511"><ele>369.0</ele><time>2026-04-08T10:22:49Z</time></trkpt><trkpt lat="43.12410472914495" lon="11.592963128449968"><ele>369.0</ele><time>2026-04-08T10:22:53Z</time></trkpt><trkpt lat="43.124072262406834" lon="11.592796315522705"><ele>369.0</ele><time>2026-04-08T10:22:55Z</time></trkpt><trkpt lat="43.124041595341886" lon="11.592693488394445"><ele>369.0</ele><time>2026-04-08T10:22:56Z</time></trkpt><trkpt lat="43.12400117851764" lon="11.592594453959855"><ele>368.4</ele><time>2026-04-08T10:22:57Z</time></trkpt><trkpt lat="43.12394269793859" lon="11.592472449292433"><ele>367.79999999999995</ele><time>2026-04-08T10:22:59Z</time></trkpt><trkpt lat="43.12388208095807" lon="11.592317240047647"><ele>367.20000000000005</ele><time>2026-04-08T10:23:01Z</time></trkpt><trkpt lat="43.123843876969985" lon="11.59224160482041"><ele>366.6</ele><time>2026-04-08T10:23:02Z</time></trkpt><trkpt lat="43.123769439584514" lon="11.592094237309128"><ele>366.0</ele><time>2026-04-08T10:23:04Z</time></trkpt><trkpt lat="43.12371150365111" lon="11.592006392348354"><ele>366.0</ele><time>2026-04-08T10:23:06Z</time></trkpt><trkpt lat="43.123684524782206" lon="11.591859279213661"><ele>366.0</ele><time>2026-04-08T10:23:08Z</time></trkpt><trkpt lat="43.12367044608755" lon="11.591763510859499"><ele>366.0</ele><time>2026-04-08T10:23:10Z</time></trkpt><trkpt lat="43.12368607802544" lon="11.59165804078834"><ele>366.0</ele><time>2026-04-08T10:23:29Z</time></trkpt><trkpt lat="43.12367057205863" lon="11.591539632318879"><ele>366.0</ele><time>2026-04-08T10:23:31Z</time></trkpt><trkpt lat="43.123654317522046" lon="11.591427443993028"><ele>366.0</ele><time>2026-04-08T10:23:33Z</time></trkpt><trkpt lat="43.12365172342958" lon="11.591322196684729"><ele>366.0</ele><time>2026-04-08T10:23:35Z</time></trkpt><trkpt lat="43.123653546043094" lon="11.591220939764828"><ele>366.0</ele><time>2026-04-08T10:23:38Z</time></trkpt><trkpt lat="43.12363252139732" lon="11.59135804666915"><ele>366.0</ele><time>2026-04-08T10:23:59Z</time></trkpt><trkpt lat="43.123641347822534" lon="11.59145607221834"><ele>366.0</ele><time>2026-04-08T10:24:00Z</time></trkpt><trkpt lat="43.12365250746018" lon="11.591545515894243"><ele>366.0</ele><time>2026-04-08T10:24:01Z</time></trkpt><trkpt lat="43.12368435749502" lon="11.591705843174392"><ele>366.0</ele><time>2026-04-08T10:24:03Z</time></trkpt><trkpt lat="43.12369766019117" lon="11.591795452324867"><ele>366.0</ele><time>2026-04-08T10:24:04Z</time></trkpt><trkpt lat="43.123769152539474" lon="11.591963200291831"><ele>366.0</ele><time>2026-04-08T10:24:05Z</time></trkpt><trkpt lat="43.12376582296926" lon="11.592085884600534"><ele>366.0</ele><time>2026-04-08T10:24:06Z</time></trkpt><trkpt lat="43.123809729635404" lon="11.592185734403142"><ele>366.0</ele><time>2026-04-08T10:24:07Z</time></trkpt><trkpt lat="43.1238536033455" lon="11.592294553851747"><ele>366.0</ele><time>2026-04-08T10:24:08Z</time></trkpt><trkpt lat="43.123900594924464" lon="11.592378593032153"><ele>366.5</ele><time>2026-04-08T10:24:09Z</time></trkpt><trkpt lat="43.123943113868336" lon="11.592481441197421"><ele>367.0</ele><time>2026-04-08T10:24:10Z</time></trkpt><trkpt lat="43.12398723221896" lon="11.592586153887076"><ele>367.5</ele><time>2026-04-08T10:24:11Z</time></trkpt><trkpt lat="43.1240239509942" lon="11.59267061397738"><ele>368.0</ele><time>2026-04-08T10:24:12Z</time></trkpt><trkpt lat="43.12405287678069" lon="11.592762960130033"><ele>368.5</ele><time>2026-04-08T10:24:13Z</time></trkpt><trkpt lat="43.124076766928745" lon="11.592848248285481"><ele>369.0</ele><time>2026-04-08T10:24:14Z</time></trkpt><trkpt lat="43.12409094409224" lon="11.593006085784628"><ele>369.0</ele><time>2026-04-08T10:24:16Z</time></trkpt><trkpt lat="43.12410602622049" lon="11.593109819265889"><ele>369.0</ele><time>2026-04-08T10:24:18Z</time></trkpt><trkpt lat="43.12416015928783" lon="11.593199556534865"><ele>369.0</ele><time>2026-04-08T10:24:21Z</time></trkpt><trkpt lat="43.12424142012704" lon="11.593167189042"><ele>369.0</ele><time>2026-04-08T10:24:36Z</time></trkpt><trkpt lat="43.12430797193628" lon="11.593179378349982"><ele>369.0</ele><time>2026-04-08T10:24:37Z</time></trkpt><trkpt lat="43.12438922096929" lon="11.59313803412051"><ele>369.0</ele><time>2026-04-08T10:24:38Z</time></trkpt><trkpt lat="43.12446095702019" lon="11.593087984373534"><ele>369.0</ele><time>2026-04-08T10:24:39Z</time></trkpt><trkpt lat="43.12454830244215" lon="11.593045200290563"><ele>369.0</ele><time>2026-04-08T10:24:40Z</time></trkpt><trkpt lat="43.12464047630534" lon="11.59299424626452"><ele>369.0</ele><time>2026-04-08T10:24:41Z</time></trkpt><trkpt lat="43.124731171078466" lon="11.592932715854541"><ele>369.0</ele><time>2026-04-08T10:24:42Z</time></trkpt><trkpt lat="43.124817056234065" lon="11.592891747384227"><ele>369.0</ele><time>2026-04-08T10:24:43Z</time></trkpt><trkpt lat="43.12489996760167" lon="11.592853298102488"><ele>369.8333333333333</ele><time>2026-04-08T10:24:44Z</time></trkpt><trkpt lat="43.124985386684735" lon="11.592810791422355"><ele>370.6666666666667</ele><time>2026-04-08T10:24:45Z</time></trkpt><trkpt lat="43.12505610308757" lon="11.592776829062405"><ele>371.5</ele><time>2026-04-08T10:24:46Z</time></trkpt><trkpt lat="43.1251208871884" lon="11.592745868099675"><ele>372.33333333333337</ele><time>2026-04-08T10:24:47Z</time></trkpt><trkpt lat="43.12523415841543" lon="11.592695823823128"><ele>373.1666666666667</ele><time>2026-04-08T10:24:49Z</time></trkpt><trkpt lat="43.12530000417944" lon="11.592665709505733"><ele>374.0</ele><time>2026-04-08T10:24:50Z</time></trkpt><trkpt lat="43.12537417658417" lon="11.592633220303986"><ele>374.0</ele><time>2026-04-08T10:24:51Z</time></trkpt><trkpt lat="43.125445354232454" lon="11.59260095174058"><ele>374.0</ele><time>2026-04-08T10:24:52Z</time></trkpt><trkpt lat="43.12553494169786" lon="11.59258024731359"><ele>374.0</ele><time>2026-04-08T10:24:53Z</time></trkpt><trkpt lat="43.12563157364707" lon="11.59256585575908"><ele>374.0</ele><time>2026-04-08T10:24:54Z</time></trkpt><trkpt lat="43.12573376787895" lon="11.592545509483726"><ele>374.0</ele><time>2026-04-08T10:24:55Z</time></trkpt><trkpt lat="43.12580601515515" lon="11.59252604518333"><ele>374.0</ele><time>2026-04-08T10:24:56Z</time></trkpt><trkpt lat="43.12588703587237" lon="11.592500359738763"><ele>372.0</ele><time>2026-04-08T10:24:57Z</time></trkpt><trkpt lat="43.125953012915126" lon="11.592452713541121"><ele>370.0</ele><time>2026-04-08T10:24:58Z</time></trkpt><trkpt lat="43.12600981142178" lon="11.592387506486423"><ele>368.0</ele><time>2026-04-08T10:24:59Z</time></trkpt><trkpt lat="43.126064284407015" lon="11.592300785804865"><ele>366.0</ele><time>2026-04-08T10:25:00Z</time></trkpt><trkpt lat="43.12613357951241" lon="11.592173333720842"><ele>364.0</ele><time>2026-04-08T10:25:01Z</time></trkpt><trkpt lat="43.12619263008237" lon="11.592061108488728"><ele>362.0</ele><time>2026-04-08T10:25:02Z</time></trkpt><trkpt lat="43.12625606397924" lon="11.591969007420678"><ele>362.0</ele><time>2026-04-08T10:25:03Z</time></trkpt><trkpt lat="43.12630225534586" lon="11.591861603297717"><ele>362.0</ele><time>2026-04-08T10:25:04Z</time></trkpt><trkpt lat="43.12634367829813" lon="11.591762400415588"><ele>362.0</ele><time>2026-04-08T10:25:05Z</time></trkpt><trkpt lat="43.12637878668611" lon="11.591664896444367"><ele>362.0</ele><time>2026-04-08T10:25:06Z</time></trkpt><trkpt lat="43.126425930171116" lon="11.591504653953443"><ele>362.0</ele><time>2026-04-08T10:25:08Z</time></trkpt><trkpt lat="43.12644686495419" lon="11.59140804146802"><ele>362.0</ele><time>2026-04-08T10:25:09Z</time></trkpt><trkpt lat="43.126469203208146" lon="11.591322949629083"><ele>362.0</ele><time>2026-04-08T10:25:10Z</time></trkpt><trkpt lat="43.126478000035185" lon="11.59115299626081"><ele>362.0</ele><time>2026-04-08T10:25:12Z</time></trkpt><trkpt lat="43.1264555449733" lon="11.591052478859817"><ele>362.0</ele><time>2026-04-08T10:25:13Z</time></trkpt><trkpt lat="43.126430912001155" lon="11.590958456194874"><ele>362.0</ele><time>2026-04-08T10:25:14Z</time></trkpt><trkpt lat="43.12640785941369" lon="11.590869053592971"><ele>362.0</ele><time>2026-04-08T10:25:15Z</time></trkpt><trkpt lat="43.126375830769405" lon="11.590781285198855"><ele>360.1666666666667</ele><time>2026-04-08T10:25:16Z</time></trkpt><trkpt lat="43.12634091591028" lon="11.590695157536077"><ele>358.33333333333337</ele><time>2026-04-08T10:25:17Z</time></trkpt><trkpt lat="43.12631794833572" lon="11.590613803373364"><ele>356.5</ele><time>2026-04-08T10:25:18Z</time></trkpt><trkpt lat="43.12629345874727" lon="11.590438129830462"><ele>354.6666666666667</ele><time>2026-04-08T10:25:20Z</time></trkpt><trkpt lat="43.126301089636485" lon="11.590334403756646"><ele>352.8333333333333</ele><time>2026-04-08T10:25:21Z</time></trkpt><trkpt lat="43.126324097911095" lon="11.590243453348952"><ele>351.0</ele><time>2026-04-08T10:25:22Z</time></trkpt><trkpt lat="43.12635126097381" lon="11.590153586791683"><ele>350.14285714285717</ele><time>2026-04-08T10:25:23Z</time></trkpt><trkpt lat="43.12638348739877" lon="11.590072248762729"><ele>349.2857142857143</ele><time>2026-04-08T10:25:24Z</time></trkpt><trkpt lat="43.12642974490472" lon="11.589988568166424"><ele>348.42857142857144</ele><time>2026-04-08T10:25:25Z</time></trkpt><trkpt lat="43.12647917125912" lon="11.589920839667931"><ele>347.57142857142856</ele><time>2026-04-08T10:25:26Z</time></trkpt><trkpt lat="43.126517832519724" lon="11.589838563308055"><ele>346.7142857142857</ele><time>2026-04-08T10:25:27Z</time></trkpt><trkpt lat="43.12656634927868" lon="11.589751409542936"><ele>345.8571428571429</ele><time>2026-04-08T10:25:28Z</time></trkpt><trkpt lat="43.126619310933314" lon="11.589681932037427"><ele>345.0</ele><time>2026-04-08T10:25:29Z</time></trkpt><trkpt lat="43.1267134010344" lon="11.589572659214507"><ele>343.6</ele><time>2026-04-08T10:25:31Z</time></trkpt><trkpt lat="43.12676591798455" lon="11.589486971098529"><ele>342.2</ele><time>2026-04-08T10:25:32Z</time></trkpt><trkpt lat="43.12683015667031" lon="11.589398419939537"><ele>340.79999999999995</ele><time>2026-04-08T10:25:33Z</time></trkpt><trkpt lat="43.126900273386305" lon="11.589311273516937"><ele>339.4</ele><time>2026-04-08T10:25:34Z</time></trkpt><trkpt lat="43.12696559279165" lon="11.589227749793077"><ele>338.0</ele><time>2026-04-08T10:25:35Z</time></trkpt><trkpt lat="43.12704122780003" lon="11.589116749721319"><ele>338.0</ele><time>2026-04-08T10:25:36Z</time></trkpt><trkpt lat="43.12711871416975" lon="11.589008853001493"><ele>338.0</ele><time>2026-04-08T10:25:37Z</time></trkpt><trkpt lat="43.12718958270782" lon="11.588902291134724"><ele>338.0</ele><time>2026-04-08T10:25:38Z</time></trkpt><trkpt lat="43.127253135758494" lon="11.588807345278834"><ele>338.0</ele><time>2026-04-08T10:25:39Z</time></trkpt><trkpt lat="43.12733017602425" lon="11.588717404658246"><ele>338.0</ele><time>2026-04-08T10:25:40Z</time></trkpt><trkpt lat="43.12738568635605" lon="11.588635951091668"><ele>337.6666666666667</ele><time>2026-04-08T10:25:41Z</time></trkpt><trkpt lat="43.12744687755011" lon="11.588552693167225"><ele>337.33333333333337</ele><time>2026-04-08T10:25:42Z</time></trkpt><trkpt lat="43.12750807061481" lon="11.58846091735623"><ele>337.0</ele><time>2026-04-08T10:25:43Z</time></trkpt><trkpt lat="43.12757994782487" lon="11.588374647836469"><ele>336.6666666666667</ele><time>2026-04-08T10:25:44Z</time></trkpt><trkpt lat="43.127640491667464" lon="11.588287509008325"><ele>336.3333333333333</ele><time>2026-04-08T10:25:45Z</time></trkpt><trkpt lat="43.12770055828328" lon="11.588206933858023"><ele>336.0</ele><time>2026-04-08T10:25:46Z</time></trkpt><trkpt lat="43.12774866698228" lon="11.588118794549834"><ele>336.0</ele><time>2026-04-08T10:25:47Z</time></trkpt><trkpt lat="43.12779690737922" lon="11.58802306612433"><ele>336.0</ele><time>2026-04-08T10:25:48Z</time></trkpt><trkpt lat="43.127841469559655" lon="11.587910787405132"><ele>336.0</ele><time>2026-04-08T10:25:49Z</time></trkpt><trkpt lat="43.127873872135105" lon="11.587788015221326"><ele>336.0</ele><time>2026-04-08T10:25:50Z</time></trkpt><trkpt lat="43.12789946135154" lon="11.58765181238475"><ele>336.0</ele><time>2026-04-08T10:25:51Z</time></trkpt><trkpt lat="43.12792966900846" lon="11.587506794572551"><ele>335.6</ele><time>2026-04-08T10:25:52Z</time></trkpt><trkpt lat="43.12794574907591" lon="11.587361579823714"><ele>335.20000000000005</ele><time>2026-04-08T10:25:53Z</time></trkpt><trkpt lat="43.12797425150475" lon="11.587214707665847"><ele>334.79999999999995</ele><time>2026-04-08T10:25:54Z</time></trkpt><trkpt lat="43.12800602294467" lon="11.587059840747715"><ele>334.4</ele><time>2026-04-08T10:25:55Z</time></trkpt><trkpt lat="43.12803623081124" lon="11.58691552944076"><ele>334.0</ele><time>2026-04-08T10:25:56Z</time></trkpt><trkpt lat="43.12806036182987" lon="11.586792766618668"><ele>333.5</ele><time>2026-04-08T10:25:57Z</time></trkpt><trkpt lat="43.12808364622828" lon="11.586664947929876"><ele>333.0</ele><time>2026-04-08T10:25:58Z</time></trkpt><trkpt lat="43.12810917309106" lon="11.586537442080894"><ele>332.5</ele><time>2026-04-08T10:25:59Z</time></trkpt><trkpt lat="43.12813859436266" lon="11.586424498015862"><ele>332.0</ele><time>2026-04-08T10:26:00Z</time></trkpt><trkpt lat="43.12817231592624" lon="11.58631644447073"><ele>331.5</ele><time>2026-04-08T10:26:01Z</time></trkpt><trkpt lat="43.128191229797466" lon="11.586210981587787"><ele>331.0</ele><time>2026-04-08T10:26:02Z</time></trkpt><trkpt lat="43.128213157268696" lon="11.586106293599228"><ele>329.8333333333333</ele><time>2026-04-08T10:26:03Z</time></trkpt><trkpt lat="43.128228846467636" lon="11.585993645498199"><ele>328.66666666666663</ele><time>2026-04-08T10:26:04Z</time></trkpt><trkpt lat="43.12824547358591" lon="11.58588980915832"><ele>327.5</ele><time>2026-04-08T10:26:05Z</time></trkpt><trkpt lat="43.128246373729446" lon="11.5857945430785"><ele>326.3333333333333</ele><time>2026-04-08T10:26:06Z</time></trkpt><trkpt lat="43.12825237521439" lon="11.585698223846993"><ele>325.1666666666667</ele><time>2026-04-08T10:26:07Z</time></trkpt><trkpt lat="43.12826213035846" lon="11.585587912323573"><ele>324.0</ele><time>2026-04-08T10:26:08Z</time></trkpt><trkpt lat="43.128271790384034" lon="11.585485230730963"><ele>324.0</ele><time>2026-04-08T10:26:09Z</time></trkpt><trkpt lat="43.12828033666372" lon="11.585377855003374"><ele>324.0</ele><time>2026-04-08T10:26:10Z</time></trkpt><trkpt lat="43.12829058827204" lon="11.58525611972783"><ele>324.0</ele><time>2026-04-08T10:26:11Z</time></trkpt><trkpt lat="43.12829470046341" lon="11.585147103495995"><ele>324.0</ele><time>2026-04-08T10:26:12Z</time></trkpt><trkpt lat="43.128302567173705" lon="11.585034996779221"><ele>324.0</ele><time>2026-04-08T10:26:13Z</time></trkpt><trkpt lat="43.1283133759183" lon="11.584914599459154"><ele>324.0</ele><time>2026-04-08T10:26:14Z</time></trkpt><trkpt lat="43.12832038994578" lon="11.58479369667678"><ele>323.2</ele><time>2026-04-08T10:26:15Z</time></trkpt><trkpt lat="43.12833302097117" lon="11.584677271284717"><ele>322.4</ele><time>2026-04-08T10:26:16Z</time></trkpt><trkpt lat="43.128354096622225" lon="11.584556224974369"><ele>321.6</ele><time>2026-04-08T10:26:17Z</time></trkpt><trkpt lat="43.12837525257492" lon="11.584448951434016"><ele>320.8</ele><time>2026-04-08T10:26:18Z</time></trkpt><trkpt lat="43.12840442330048" lon="11.584319628068537"><ele>320.0</ele><time>2026-04-08T10:26:19Z</time></trkpt><trkpt lat="43.128457012779926" lon="11.584200515443188"><ele>318.4</ele><time>2026-04-08T10:26:20Z</time></trkpt><trkpt lat="43.128515053516935" lon="11.58409105349716"><ele>316.8</ele><time>2026-04-08T10:26:21Z</time></trkpt><trkpt lat="43.12856943419881" lon="11.583992728867896"><ele>315.2</ele><time>2026-04-08T10:26:22Z</time></trkpt><trkpt lat="43.12863423621824" lon="11.583908981554549"><ele>313.6</ele><time>2026-04-08T10:26:23Z</time></trkpt><trkpt lat="43.12871713619385" lon="11.583830068236571"><ele>312.0</ele><time>2026-04-08T10:26:24Z</time></trkpt><trkpt lat="43.12881570581638" lon="11.583783206553946"><ele>312.0</ele><time>2026-04-08T10:26:25Z</time></trkpt><trkpt lat="43.12890106127965" lon="11.583751160436542"><ele>312.0</ele><time>2026-04-08T10:26:26Z</time></trkpt><trkpt lat="43.12898371259371" lon="11.583718188538922"><ele>312.0</ele><time>2026-04-08T10:26:27Z</time></trkpt><trkpt lat="43.129058503170306" lon="11.583665521492462"><ele>312.0</ele><time>2026-04-08T10:26:28Z</time></trkpt><trkpt lat="43.12911659828798" lon="11.583574926392286"><ele>312.0</ele><time>2026-04-08T10:26:29Z</time></trkpt><trkpt lat="43.12915835058549" lon="11.583462805140586"><ele>312.0</ele><time>2026-04-08T10:26:30Z</time></trkpt><trkpt lat="43.12919410003276" lon="11.5833441881564"><ele>308.4</ele><time>2026-04-08T10:26:31Z</time></trkpt><trkpt lat="43.12922820804521" lon="11.583234291351967"><ele>304.79999999999995</ele><time>2026-04-08T10:26:32Z</time></trkpt><trkpt lat="43.12926213779892" lon="11.583126093870808"><ele>301.2</ele><time>2026-04-08T10:26:33Z</time></trkpt><trkpt lat="43.12929191612985" lon="11.583014862235604"><ele>297.59999999999997</ele><time>2026-04-08T10:26:34Z</time></trkpt><trkpt lat="43.129316431234535" lon="11.582892937530415"><ele>294.0</ele><time>2026-04-08T10:26:35Z</time></trkpt><trkpt lat="43.12933719152381" lon="11.58274842579668"><ele>291.8</ele><time>2026-04-08T10:26:36Z</time></trkpt><trkpt lat="43.12935265570771" lon="11.582615196861799"><ele>289.59999999999997</ele><time>2026-04-08T10:26:37Z</time></trkpt><trkpt lat="43.129364084040155" lon="11.582485122360099"><ele>287.4</ele><time>2026-04-08T10:26:38Z</time></trkpt><trkpt lat="43.12937800858111" lon="11.582356017936435"><ele>285.2</ele><time>2026-04-08T10:26:39Z</time></trkpt><trkpt lat="43.129396764697965" lon="11.582229244792964"><ele>283.0</ele><time>2026-04-08T10:26:40Z</time></trkpt><trkpt lat="43.129412037997135" lon="11.58209923023267"><ele>280.6</ele><time>2026-04-08T10:26:41Z</time></trkpt><trkpt lat="43.12943128950451" lon="11.581962373444808"><ele>278.20000000000005</ele><time>2026-04-08T10:26:42Z</time></trkpt><trkpt lat="43.12945217671244" lon="11.581829889708425"><ele>275.8</ele><time>2026-04-08T10:26:43Z</time></trkpt><trkpt lat="43.12946724808904" lon="11.581701343512517"><ele>273.40000000000003</ele><time>2026-04-08T10:26:44Z</time></trkpt><trkpt lat="43.12948199581949" lon="11.581579855874304"><ele>271.0</ele><time>2026-04-08T10:26:45Z</time></trkpt><trkpt lat="43.12950022311534" lon="11.581455106462013"><ele>271.0</ele><time>2026-04-08T10:26:46Z</time></trkpt><trkpt lat="43.129522158460915" lon="11.581311481847512"><ele>271.0</ele><time>2026-04-08T10:26:47Z</time></trkpt><trkpt lat="43.12954166923611" lon="11.581179086368945"><ele>271.0</ele><time>2026-04-08T10:26:48Z</time></trkpt><trkpt lat="43.12955563905437" lon="11.581057975946846"><ele>271.0</ele><time>2026-04-08T10:26:49Z</time></trkpt><trkpt lat="43.129575262340566" lon="11.58094413682638"><ele>271.0</ele><time>2026-04-08T10:26:50Z</time></trkpt><trkpt lat="43.12959386595843" lon="11.580819350796304"><ele>269.8333333333333</ele><time>2026-04-08T10:26:51Z</time></trkpt><trkpt lat="43.12960752729562" lon="11.580704011726434"><ele>268.66666666666663</ele><time>2026-04-08T10:26:52Z</time></trkpt><trkpt lat="43.12962198767607" lon="11.580593621260402"><ele>267.5</ele><time>2026-04-08T10:26:53Z</time></trkpt><trkpt lat="43.12963847648071" lon="11.580479491014362"><ele>266.3333333333333</ele><time>2026-04-08T10:26:54Z</time></trkpt><trkpt lat="43.12965374672222" lon="11.580381600791878"><ele>265.1666666666667</ele><time>2026-04-08T10:26:55Z</time></trkpt><trkpt lat="43.12966605814319" lon="11.580277275342947"><ele>264.0</ele><time>2026-04-08T10:26:56Z</time></trkpt><trkpt lat="43.12967981489105" lon="11.580158149405104"><ele>263.5</ele><time>2026-04-08T10:26:57Z</time></trkpt><trkpt lat="43.12970049306317" lon="11.580027935935867"><ele>263.0</ele><time>2026-04-08T10:26:58Z</time></trkpt><trkpt lat="43.12973947770215" lon="11.579889392163443"><ele>262.5</ele><time>2026-04-08T10:26:59Z</time></trkpt><trkpt lat="43.12979679369167" lon="11.57974241442063"><ele>262.0</ele><time>2026-04-08T10:27:00Z</time></trkpt><trkpt lat="43.129866259391456" lon="11.57958293588705"><ele>262.0</ele><time>2026-04-08T10:27:01Z</time></trkpt><trkpt lat="43.129926778081455" lon="11.57945055609361"><ele>262.0</ele><time>2026-04-08T10:27:02Z</time></trkpt><trkpt lat="43.12998108930931" lon="11.57933576922739"><ele>262.0</ele><time>2026-04-08T10:27:03Z</time></trkpt><trkpt lat="43.130037991863105" lon="11.57921559717349"><ele>262.0</ele><time>2026-04-08T10:27:04Z</time></trkpt><trkpt lat="43.130094913346106" lon="11.579082659910002"><ele>262.0</ele><time>2026-04-08T10:27:05Z</time></trkpt><trkpt lat="43.130148547852855" lon="11.578946266061209"><ele>262.0</ele><time>2026-04-08T10:27:06Z</time></trkpt><trkpt lat="43.13019179204718" lon="11.578817803985737"><ele>262.0</ele><time>2026-04-08T10:27:07Z</time></trkpt><trkpt lat="43.130229103765586" lon="11.578676205985744"><ele>262.0</ele><time>2026-04-08T10:27:08Z</time></trkpt><trkpt lat="43.13025430175576" lon="11.578516905401708"><ele>262.0</ele><time>2026-04-08T10:27:09Z</time></trkpt><trkpt lat="43.13025995193785" lon="11.578370603580609"><ele>262.0</ele><time>2026-04-08T10:27:10Z</time></trkpt><trkpt lat="43.1302503901393" lon="11.57825191440841"><ele>261.6</ele><time>2026-04-08T10:27:11Z</time></trkpt><trkpt lat="43.130237460271005" lon="11.578136320074798"><ele>261.2</ele><time>2026-04-08T10:27:12Z</time></trkpt><trkpt lat="43.13021530308131" lon="11.578027596100664"><ele>260.8</ele><time>2026-04-08T10:27:13Z</time></trkpt><trkpt lat="43.13017668761645" lon="11.57791912822419"><ele>260.4</ele><time>2026-04-08T10:27:14Z</time></trkpt><trkpt lat="43.130117469541204" lon="11.577804916320929"><ele>260.0</ele><time>2026-04-08T10:27:15Z</time></trkpt><trkpt lat="43.13004543197656" lon="11.577675124543786"><ele>259.0</ele><time>2026-04-08T10:27:16Z</time></trkpt><trkpt lat="43.1299644906388" lon="11.577549564932953"><ele>258.0</ele><time>2026-04-08T10:27:17Z</time></trkpt><trkpt lat="43.12988284037669" lon="11.577442296331666"><ele>257.0</ele><time>2026-04-08T10:27:18Z</time></trkpt><trkpt lat="43.129808092486506" lon="11.577348804005275"><ele>256.0</ele><time>2026-04-08T10:27:19Z</time></trkpt><trkpt lat="43.129736010866104" lon="11.577286408880607"><ele>255.0</ele><time>2026-04-08T10:27:20Z</time></trkpt><trkpt lat="43.129624717180114" lon="11.577309199412595"><ele>254.6</ele><time>2026-04-08T10:27:21Z</time></trkpt><trkpt lat="43.1295316873503" lon="11.577281308932122"><ele>254.2</ele><time>2026-04-08T10:27:22Z</time></trkpt><trkpt lat="43.12943356828657" lon="11.577269471441262"><ele>253.8</ele><time>2026-04-08T10:27:23Z</time></trkpt><trkpt lat="43.12935113937678" lon="11.577255751877665"><ele>253.4</ele><time>2026-04-08T10:27:24Z</time></trkpt><trkpt lat="43.129267234624024" lon="11.5772372088805"><ele>253.0</ele><time>2026-04-08T10:27:25Z</time></trkpt><trkpt lat="43.129197071446185" lon="11.577158880603275"><ele>252.99999999999997</ele><time>2026-04-08T10:27:26Z</time></trkpt><trkpt lat="43.129155908787375" lon="11.577067244265244"><ele>253.0</ele><time>2026-04-08T10:27:27Z</time></trkpt><trkpt lat="43.12912608260432" lon="11.576978419516324"><ele>253.0</ele><time>2026-04-08T10:27:28Z</time></trkpt><trkpt lat="43.12911376822574" lon="11.576871060688132"><ele>253.0</ele><time>2026-04-08T10:27:29Z</time></trkpt><trkpt lat="43.12911928192828" lon="11.576755315554497"><ele>252.99999999999997</ele><time>2026-04-08T10:27:30Z</time></trkpt><trkpt lat="43.12912784390558" lon="11.576625657004612"><ele>253.0</ele><time>2026-04-08T10:27:31Z</time></trkpt><trkpt lat="43.12913384595431" lon="11.576477085967118"><ele>253.5</ele><time>2026-04-08T10:27:32Z</time></trkpt><trkpt lat="43.12913838814496" lon="11.576310612318828"><ele>254.0</ele><time>2026-04-08T10:27:33Z</time></trkpt><trkpt lat="43.129142657806945" lon="11.576124316165949"><ele>254.5</ele><time>2026-04-08T10:27:34Z</time></trkpt><trkpt lat="43.12914630468474" lon="11.575949406726087"><ele>255.0</ele><time>2026-04-08T10:27:35Z</time></trkpt><trkpt lat="43.12915863494432" lon="11.575806544372448"><ele>255.6</ele><time>2026-04-08T10:27:36Z</time></trkpt><trkpt lat="43.129167501633695" lon="11.575683127482938"><ele>256.2</ele><time>2026-04-08T10:27:37Z</time></trkpt><trkpt lat="43.1291711643605" lon="11.575549096125748"><ele>256.8</ele><time>2026-04-08T10:27:38Z</time></trkpt><trkpt lat="43.129190252082076" lon="11.575399049096895"><ele>257.4</ele><time>2026-04-08T10:27:39Z</time></trkpt><trkpt lat="43.12920318826027" lon="11.575280131557847"><ele>258.0</ele><time>2026-04-08T10:27:40Z</time></trkpt><trkpt lat="43.129206452280286" lon="11.575182949792273"><ele>258.5</ele><time>2026-04-08T10:27:41Z</time></trkpt><trkpt lat="43.129214187198016" lon="11.575031240818086"><ele>259.0</ele><time>2026-04-08T10:27:43Z</time></trkpt><trkpt lat="43.12937040614746" lon="11.574919423433226"><ele>259.5</ele><time>2026-04-08T10:27:45Z</time></trkpt><trkpt lat="43.129432431696834" lon="11.57489937969231"><ele>260.0</ele><time>2026-04-08T10:27:46Z</time></trkpt><trkpt lat="43.129547449394266" lon="11.574869712028343"><ele>260.0</ele><time>2026-04-08T10:27:48Z</time></trkpt><trkpt lat="43.12965238380839" lon="11.574853238111462"><ele>260.0</ele><time>2026-04-08T10:27:50Z</time></trkpt><trkpt lat="43.129720796398374" lon="11.574858013196106"><ele>260.0</ele><time>2026-04-08T10:27:51Z</time></trkpt><trkpt lat="43.12981917283074" lon="11.57486886906436"><ele>260.0</ele><time>2026-04-08T10:27:52Z</time></trkpt><trkpt lat="43.12992520386852" lon="11.57489994865569"><ele>260.0</ele><time>2026-04-08T10:27:53Z</time></trkpt><trkpt lat="43.130049486919" lon="11.574934259073"><ele>260.0</ele><time>2026-04-08T10:27:54Z</time></trkpt><trkpt lat="43.13019033355741" lon="11.574975671859294"><ele>260.0</ele><time>2026-04-08T10:27:55Z</time></trkpt><trkpt lat="43.130317842189655" lon="11.575011982664307"><ele>260.0</ele><time>2026-04-08T10:27:56Z</time></trkpt><trkpt lat="43.130456206230754" lon="11.57504173431021"><ele>260.0</ele><time>2026-04-08T10:27:57Z</time></trkpt><trkpt lat="43.13059307957426" lon="11.575077641533776"><ele>260.0</ele><time>2026-04-08T10:27:58Z</time></trkpt><trkpt lat="43.13071392508367" lon="11.575112813012561"><ele>260.0</ele><time>2026-04-08T10:27:59Z</time></trkpt><trkpt lat="43.13083431979317" lon="11.575144070131936"><ele>260.0</ele><time>2026-04-08T10:28:00Z</time></trkpt><trkpt lat="43.130964759564655" lon="11.575176276729747"><ele>260.0</ele><time>2026-04-08T10:28:01Z</time></trkpt><trkpt lat="43.131121852013685" lon="11.575214226413514"><ele>260.33333333333337</ele><time>2026-04-08T10:28:02Z</time></trkpt><trkpt lat="43.13126815094555" lon="11.5752548421139"><ele>260.6666666666667</ele><time>2026-04-08T10:28:03Z</time></trkpt><trkpt lat="43.131413650605694" lon="11.57529658824027"><ele>261.0</ele><time>2026-04-08T10:28:04Z</time></trkpt><trkpt lat="43.131565882469324" lon="11.575337183915968"><ele>261.6666666666667</ele><time>2026-04-08T10:28:05Z</time></trkpt><trkpt lat="43.13171780641296" lon="11.57538029456005"><ele>262.33333333333337</ele><time>2026-04-08T10:28:06Z</time></trkpt><trkpt lat="43.13186646328667" lon="11.575421712682472"><ele>263.0</ele><time>2026-04-08T10:28:07Z</time></trkpt><trkpt lat="43.13201399191852" lon="11.575465318423594"><ele>263.0</ele><time>2026-04-08T10:28:08Z</time></trkpt><trkpt lat="43.13215572575292" lon="11.575506766131701"><ele>263.0</ele><time>2026-04-08T10:28:09Z</time></trkpt><trkpt lat="43.13230549067814" lon="11.575551046011697"><ele>263.0</ele><time>2026-04-08T10:28:10Z</time></trkpt><trkpt lat="43.132450714752395" lon="11.57559816974448"><ele>263.0</ele><time>2026-04-08T10:28:11Z</time></trkpt><trkpt lat="43.132614836339464" lon="11.575639842788746"><ele>263.5</ele><time>2026-04-08T10:28:12Z</time></trkpt><trkpt lat="43.132749082476415" lon="11.575684396595737"><ele>264.0</ele><time>2026-04-08T10:28:13Z</time></trkpt><trkpt lat="43.13288559085505" lon="11.575728213262343"><ele>264.5</ele><time>2026-04-08T10:28:14Z</time></trkpt><trkpt lat="43.13302239842566" lon="11.575771673024462"><ele>265.0</ele><time>2026-04-08T10:28:15Z</time></trkpt><trkpt lat="43.13316695028202" lon="11.575820017492243"><ele>265.0</ele><time>2026-04-08T10:28:16Z</time></trkpt><trkpt lat="43.13330974883868" lon="11.575870294382668"><ele>265.0</ele><time>2026-04-08T10:28:17Z</time></trkpt><trkpt lat="43.13346458985726" lon="11.575915281491907"><ele>265.0</ele><time>2026-04-08T10:28:18Z</time></trkpt><trkpt lat="43.13362684972681" lon="11.575973367651113"><ele>265.0</ele><time>2026-04-08T10:28:19Z</time></trkpt><trkpt lat="43.133800568680506" lon="11.576028947298724"><ele>265.0</ele><time>2026-04-08T10:28:20Z</time></trkpt><trkpt lat="43.13398595887323" lon="11.57608930781809"><ele>265.0</ele><time>2026-04-08T10:28:21Z</time></trkpt><trkpt lat="43.13417722522813" lon="11.576149521216717"><ele>263.66666666666663</ele><time>2026-04-08T10:28:22Z</time></trkpt><trkpt lat="43.13435076573242" lon="11.576205953049996"><ele>262.3333333333333</ele><time>2026-04-08T10:28:23Z</time></trkpt><trkpt lat="43.13450807958538" lon="11.576257607933766"><ele>261.0</ele><time>2026-04-08T10:28:24Z</time></trkpt><trkpt lat="43.13466215451168" lon="11.576312550415807"><ele>261.0</ele><time>2026-04-08T10:28:25Z</time></trkpt><trkpt lat="43.134830594980556" lon="11.576380708779302"><ele>261.0</ele><time>2026-04-08T10:28:26Z</time></trkpt><trkpt lat="43.134995402072796" lon="11.576499119215635"><ele>261.0</ele><time>2026-04-08T10:28:27Z</time></trkpt><trkpt lat="43.135161024253634" lon="11.576622652339745"><ele>260.6666666666667</ele><time>2026-04-08T10:28:28Z</time></trkpt><trkpt lat="43.13530848954076" lon="11.57675275459117"><ele>260.33333333333337</ele><time>2026-04-08T10:28:29Z</time></trkpt><trkpt lat="43.135453554063716" lon="11.576884312175299"><ele>260.0</ele><time>2026-04-08T10:28:30Z</time></trkpt><trkpt lat="43.13560528794049" lon="11.577021701456617"><ele>260.6666666666667</ele><time>2026-04-08T10:28:31Z</time></trkpt><trkpt lat="43.13576119091992" lon="11.577161413908216"><ele>261.3333333333333</ele><time>2026-04-08T10:28:32Z</time></trkpt><trkpt lat="43.13592378885964" lon="11.577307126080036"><ele>262.0</ele><time>2026-04-08T10:28:33Z</time></trkpt><trkpt lat="43.13608902173275" lon="11.577455199575532"><ele>262.0</ele><time>2026-04-08T10:28:34Z</time></trkpt><trkpt lat="43.1362434786359" lon="11.577593616171823"><ele>262.0</ele><time>2026-04-08T10:28:35Z</time></trkpt><trkpt lat="43.136378329603694" lon="11.577714462836743"><ele>262.0</ele><time>2026-04-08T10:28:36Z</time></trkpt><trkpt lat="43.13649711923578" lon="11.577820916210753"><ele>262.5</ele><time>2026-04-08T10:28:37Z</time></trkpt><trkpt lat="43.13661162393884" lon="11.577922866824853"><ele>263.0</ele><time>2026-04-08T10:28:38Z</time></trkpt><trkpt lat="43.13673349732508" lon="11.578031272189406"><ele>263.5</ele><time>2026-04-08T10:28:39Z</time></trkpt><trkpt lat="43.136849100583845" lon="11.578135853663795"><ele>264.0</ele><time>2026-04-08T10:28:40Z</time></trkpt><trkpt lat="43.13695253371297" lon="11.578229721370805"><ele>264.0</ele><time>2026-04-08T10:28:41Z</time></trkpt><trkpt lat="43.13704968346375" lon="11.578317776838148"><ele>264.0</ele><time>2026-04-08T10:28:42Z</time></trkpt><trkpt lat="43.137145342594984" lon="11.578404063040006"><ele>264.0</ele><time>2026-04-08T10:28:43Z</time></trkpt><trkpt lat="43.13724723204656" lon="11.578495969136556"><ele>264.0</ele><time>2026-04-08T10:28:44Z</time></trkpt><trkpt lat="43.137337602600326" lon="11.57857748500907"><ele>264.2</ele><time>2026-04-08T10:28:45Z</time></trkpt><trkpt lat="43.1374128138878" lon="11.578645326919043"><ele>264.4</ele><time>2026-04-08T10:28:46Z</time></trkpt><trkpt lat="43.13746941387211" lon="11.578696381091705"><ele>264.6</ele><time>2026-04-08T10:28:47Z</time></trkpt><trkpt lat="43.137559575522324" lon="11.57877770852064"><ele>264.8</ele><time>2026-04-08T10:28:49Z</time></trkpt><trkpt lat="43.13770599835499" lon="11.578640795248695"><ele>265.0</ele><time>2026-04-08T10:28:52Z</time></trkpt><trkpt lat="43.137776020265726" lon="11.578507190376103"><ele>265.4285714285714</ele><time>2026-04-08T10:28:54Z</time></trkpt><trkpt lat="43.13781366871808" lon="11.578433328643728"><ele>265.85714285714283</ele><time>2026-04-08T10:28:55Z</time></trkpt><trkpt lat="43.137855379843465" lon="11.578367779317437"><ele>266.2857142857143</ele><time>2026-04-08T10:28:56Z</time></trkpt><trkpt lat="43.13789026021537" lon="11.57829422109166"><ele>266.71428571428567</ele><time>2026-04-08T10:28:57Z</time></trkpt><trkpt lat="43.137938491927926" lon="11.578215267588424"><ele>267.1428571428571</ele><time>2026-04-08T10:28:58Z</time></trkpt><trkpt lat="43.13798291433621" lon="11.578134905750646"><ele>267.57142857142856</ele><time>2026-04-08T10:28:59Z</time></trkpt><trkpt lat="43.138030712099535" lon="11.578051501473277"><ele>268.0</ele><time>2026-04-08T10:29:00Z</time></trkpt><trkpt lat="43.138091921048556" lon="11.577945191686517"><ele>267.6</ele><time>2026-04-08T10:29:01Z</time></trkpt><trkpt lat="43.13815596740865" lon="11.577832656932262"><ele>267.20000000000005</ele><time>2026-04-08T10:29:02Z</time></trkpt><trkpt lat="43.138226147422515" lon="11.577712612157011"><ele>266.8</ele><time>2026-04-08T10:29:03Z</time></trkpt><trkpt lat="43.138297706280916" lon="11.577588679012342"><ele>266.40000000000003</ele><time>2026-04-08T10:29:04Z</time></trkpt><trkpt lat="43.138355751110545" lon="11.577493994293453"><ele>266.0</ele><time>2026-04-08T10:29:05Z</time></trkpt><trkpt lat="43.138409577104845" lon="11.577398969334778"><ele>267.8</ele><time>2026-04-08T10:29:06Z</time></trkpt><trkpt lat="43.138465549680554" lon="11.577302259763286"><ele>269.6</ele><time>2026-04-08T10:29:07Z</time></trkpt><trkpt lat="43.13852663523761" lon="11.577197139374574"><ele>271.4</ele><time>2026-04-08T10:29:08Z</time></trkpt><trkpt lat="43.13858892114964" lon="11.577089658233065"><ele>273.2</ele><time>2026-04-08T10:29:09Z</time></trkpt><trkpt lat="43.13864503354851" lon="11.577003248762285"><ele>275.0</ele><time>2026-04-08T10:29:10Z</time></trkpt><trkpt lat="43.13869143586507" lon="11.576913794934939"><ele>275.6</ele><time>2026-04-08T10:29:11Z</time></trkpt><trkpt lat="43.13873121365924" lon="11.576809328654688"><ele>276.2</ele><time>2026-04-08T10:29:12Z</time></trkpt><trkpt lat="43.138761261866534" lon="11.576690606609995"><ele>276.8</ele><time>2026-04-08T10:29:13Z</time></trkpt><trkpt lat="43.13878153388827" lon="11.57656217950739"><ele>277.4</ele><time>2026-04-08T10:29:14Z</time></trkpt><trkpt lat="43.13879302729963" lon="11.576428028732387"><ele>278.0</ele><time>2026-04-08T10:29:15Z</time></trkpt><trkpt lat="43.138795145013304" lon="11.576297609604994"><ele>279.4</ele><time>2026-04-08T10:29:16Z</time></trkpt><trkpt lat="43.13879457256285" lon="11.576163708958402"><ele>280.8</ele><time>2026-04-08T10:29:17Z</time></trkpt><trkpt lat="43.138795347932316" lon="11.576023261612194"><ele>282.2</ele><time>2026-04-08T10:29:18Z</time></trkpt><trkpt lat="43.13878629865775" lon="11.575875521305042"><ele>283.6</ele><time>2026-04-08T10:29:19Z</time></trkpt><trkpt lat="43.13877795425935" lon="11.575736342525795"><ele>285.0</ele><time>2026-04-08T10:29:20Z</time></trkpt><trkpt lat="43.13876536331755" lon="11.575617973712914"><ele>285.0</ele><time>2026-04-08T10:29:21Z</time></trkpt><trkpt lat="43.13873257426549" lon="11.575501119718483"><ele>285.0</ele><time>2026-04-08T10:29:22Z</time></trkpt><trkpt lat="43.138682863556824" lon="11.575389277078536"><ele>285.0</ele><time>2026-04-08T10:29:23Z</time></trkpt><trkpt lat="43.13862071757832" lon="11.575289913700889"><ele>285.0</ele><time>2026-04-08T10:29:24Z</time></trkpt><trkpt lat="43.138537966393365" lon="11.575184995855006"><ele>285.0</ele><time>2026-04-08T10:29:25Z</time></trkpt><trkpt lat="43.13844369108502" lon="11.575078077834652"><ele>287.6</ele><time>2026-04-08T10:29:26Z</time></trkpt><trkpt lat="43.13834475981776" lon="11.574965556512943"><ele>290.2</ele><time>2026-04-08T10:29:27Z</time></trkpt><trkpt lat="43.13825312155462" lon="11.574850666277277"><ele>292.8</ele><time>2026-04-08T10:29:28Z</time></trkpt><trkpt lat="43.1381763394003" lon="11.574765482284501"><ele>295.4</ele><time>2026-04-08T10:29:29Z</time></trkpt><trkpt lat="43.138123391284736" lon="11.574693291987794"><ele>298.0</ele><time>2026-04-08T10:29:30Z</time></trkpt><trkpt lat="43.1380817025896" lon="11.574609780957104"><ele>298.6</ele><time>2026-04-08T10:29:31Z</time></trkpt><trkpt lat="43.13804453900762" lon="11.574504524460002"><ele>299.20000000000005</ele><time>2026-04-08T10:29:32Z</time></trkpt><trkpt lat="43.13802313427913" lon="11.574389538430541"><ele>299.8</ele><time>2026-04-08T10:29:33Z</time></trkpt><trkpt lat="43.1380138511037" lon="11.574265689658908"><ele>300.40000000000003</ele><time>2026-04-08T10:29:34Z</time></trkpt><trkpt lat="43.13801135927436" lon="11.574123345635813"><ele>301.0</ele><time>2026-04-08T10:29:34.999Z</time></trkpt><trkpt lat="43.138007496158274" lon="11.573953551991451"><ele>301.0</ele><time>2026-04-08T10:29:35.999Z</time></trkpt><trkpt lat="43.13800156365557" lon="11.573789111170052"><ele>301.0</ele><time>2026-04-08T10:29:36.999Z</time></trkpt><trkpt lat="43.13799676968311" lon="11.573658058148206"><ele>301.0</ele><time>2026-04-08T10:29:38Z</time></trkpt><trkpt lat="43.137993730247395" lon="11.573534083762418"><ele>301.0</ele><time>2026-04-08T10:29:39Z</time></trkpt><trkpt lat="43.13799119764229" lon="11.573391878956285"><ele>301.0</ele><time>2026-04-08T10:29:40Z</time></trkpt><trkpt lat="43.13798344532835" lon="11.573235607390291"><ele>300.25</ele><time>2026-04-08T10:29:41Z</time></trkpt><trkpt lat="43.137976322863494" lon="11.573062127765038"><ele>299.5</ele><time>2026-04-08T10:29:42Z</time></trkpt><trkpt lat="43.137968998648276" lon="11.57288474630045"><ele>298.75</ele><time>2026-04-08T10:29:43Z</time></trkpt><trkpt lat="43.13796551682986" lon="11.572731796036681"><ele>298.0</ele><time>2026-04-08T10:29:44Z</time></trkpt><trkpt lat="43.13796633637936" lon="11.57260172259559"><ele>297.3333333333333</ele><time>2026-04-08T10:29:45Z</time></trkpt><trkpt lat="43.13796412719079" lon="11.572466272949733"><ele>296.66666666666663</ele><time>2026-04-08T10:29:46Z</time></trkpt><trkpt lat="43.13796290347504" lon="11.572327265573831"><ele>296.0</ele><time>2026-04-08T10:29:47Z</time></trkpt><trkpt lat="43.13797396065125" lon="11.572205830296916"><ele>295.3333333333333</ele><time>2026-04-08T10:29:48Z</time></trkpt><trkpt lat="43.13800488420391" lon="11.572112222065103"><ele>294.6666666666667</ele><time>2026-04-08T10:29:49Z</time></trkpt><trkpt lat="43.13804775718451" lon="11.572028228477507"><ele>294.0</ele><time>2026-04-08T10:29:50Z</time></trkpt><trkpt lat="43.13811775650711" lon="11.57195585023541"><ele>292.4</ele><time>2026-04-08T10:29:51Z</time></trkpt><trkpt lat="43.13819977782479" lon="11.571904484918164"><ele>290.79999999999995</ele><time>2026-04-08T10:29:52Z</time></trkpt><trkpt lat="43.13828498378355" lon="11.57186564083786"><ele>289.20000000000005</ele><time>2026-04-08T10:29:53Z</time></trkpt><trkpt lat="43.13837303949333" lon="11.571834757741216"><ele>287.6</ele><time>2026-04-08T10:29:54Z</time></trkpt><trkpt lat="43.1384603017568" lon="11.571777631865917"><ele>286.0</ele><time>2026-04-08T10:29:55Z</time></trkpt><trkpt lat="43.138543861886646" lon="11.571707799546903"><ele>288.8</ele><time>2026-04-08T10:29:56Z</time></trkpt><trkpt lat="43.138617859493955" lon="11.571619105558566"><ele>291.6</ele><time>2026-04-08T10:29:57Z</time></trkpt><trkpt lat="43.13867275481514" lon="11.571520575907071"><ele>294.4</ele><time>2026-04-08T10:29:58Z</time></trkpt><trkpt lat="43.13871586510635" lon="11.57139450053447"><ele>297.2</ele><time>2026-04-08T10:29:59Z</time></trkpt><trkpt lat="43.13874157157411" lon="11.571250449683548"><ele>300.0</ele><time>2026-04-08T10:30:00Z</time></trkpt><trkpt lat="43.13873647175733" lon="11.571112458573705"><ele>300.0</ele><time>2026-04-08T10:30:01Z</time></trkpt><trkpt lat="43.1387158703721" lon="11.570981735417908"><ele>300.0</ele><time>2026-04-08T10:30:02Z</time></trkpt><trkpt lat="43.13867338835669" lon="11.570853965523966"><ele>300.0</ele><time>2026-04-08T10:30:03Z</time></trkpt><trkpt lat="43.13862262987003" lon="11.570751086767443"><ele>300.0</ele><time>2026-04-08T10:30:04Z</time></trkpt><trkpt lat="43.13856561553652" lon="11.570668703332954"><ele>300.0</ele><time>2026-04-08T10:30:05Z</time></trkpt><trkpt lat="43.13851143027786" lon="11.570571580352246"><ele>300.0</ele><time>2026-04-08T10:30:06Z</time></trkpt><trkpt lat="43.138474253622945" lon="11.570454441390465"><ele>300.0</ele><time>2026-04-08T10:30:07Z</time></trkpt><trkpt lat="43.138459417607464" lon="11.570326919132702"><ele>300.0</ele><time>2026-04-08T10:30:08Z</time></trkpt><trkpt lat="43.138463857654834" lon="11.570195342673566"><ele>300.0</ele><time>2026-04-08T10:30:09Z</time></trkpt><trkpt lat="43.13848953884945" lon="11.570050589961753"><ele>300.0</ele><time>2026-04-08T10:30:10Z</time></trkpt><trkpt lat="43.13852463446537" lon="11.569880342810125"><ele>301.25</ele><time>2026-04-08T10:30:11Z</time></trkpt><trkpt lat="43.1385444333362" lon="11.569693811400327"><ele>302.5</ele><time>2026-04-08T10:30:12Z</time></trkpt><trkpt lat="43.138548614326965" lon="11.56949825194966"><ele>303.75</ele><time>2026-04-08T10:30:13Z</time></trkpt><trkpt lat="43.1385443952978" lon="11.569337682857388"><ele>305.0</ele><time>2026-04-08T10:30:14Z</time></trkpt><trkpt lat="43.13853179071709" lon="11.569185814542513"><ele>305.2</ele><time>2026-04-08T10:30:15Z</time></trkpt><trkpt lat="43.138511229346165" lon="11.569040168373018"><ele>305.4</ele><time>2026-04-08T10:30:16Z</time></trkpt><trkpt lat="43.13848540286533" lon="11.568914282359131"><ele>305.6</ele><time>2026-04-08T10:30:17Z</time></trkpt><trkpt lat="43.13845219041299" lon="11.568803994811605"><ele>305.8</ele><time>2026-04-08T10:30:18Z</time></trkpt><trkpt lat="43.13840781006912" lon="11.568699681814119"><ele>306.0</ele><time>2026-04-08T10:30:19Z</time></trkpt><trkpt lat="43.13835838268438" lon="11.568605872820905"><ele>306.1666666666667</ele><time>2026-04-08T10:30:20Z</time></trkpt><trkpt lat="43.13830284703706" lon="11.568531707145429"><ele>306.3333333333333</ele><time>2026-04-08T10:30:21Z</time></trkpt><trkpt lat="43.13823977775824" lon="11.568454925692373"><ele>306.5</ele><time>2026-04-08T10:30:22Z</time></trkpt><trkpt lat="43.13817913025352" lon="11.5683792368613"><ele>306.66666666666663</ele><time>2026-04-08T10:30:23Z</time></trkpt><trkpt lat="43.13812200443374" lon="11.568307326377072"><ele>306.8333333333333</ele><time>2026-04-08T10:30:24Z</time></trkpt><trkpt lat="43.1380588819422" lon="11.56822211956719"><ele>307.0</ele><time>2026-04-08T10:30:25Z</time></trkpt><trkpt lat="43.13799682842462" lon="11.568140653574364"><ele>304.0</ele><time>2026-04-08T10:30:26Z</time></trkpt><trkpt lat="43.13794602320042" lon="11.568057839439705"><ele>301.0</ele><time>2026-04-08T10:30:27Z</time></trkpt><trkpt lat="43.137908017391545" lon="11.56796575530637"><ele>298.0</ele><time>2026-04-08T10:30:28Z</time></trkpt><trkpt lat="43.13788117393841" lon="11.567852604092087"><ele>295.0</ele><time>2026-04-08T10:30:29Z</time></trkpt><trkpt lat="43.137878367404" lon="11.5677415310609"><ele>292.0</ele><time>2026-04-08T10:30:30Z</time></trkpt><trkpt lat="43.137882769298706" lon="11.56762973121363"><ele>289.0</ele><time>2026-04-08T10:30:31Z</time></trkpt><trkpt lat="43.13789523895343" lon="11.567508024940395"><ele>289.0</ele><time>2026-04-08T10:30:32Z</time></trkpt><trkpt lat="43.1379158678948" lon="11.567379326301209"><ele>289.0</ele><time>2026-04-08T10:30:33Z</time></trkpt><trkpt lat="43.13793612708307" lon="11.567246621363182"><ele>289.0</ele><time>2026-04-08T10:30:34Z</time></trkpt><trkpt lat="43.13795004212609" lon="11.567106363109449"><ele>289.0</ele><time>2026-04-08T10:30:35Z</time></trkpt><trkpt lat="43.13795330542255" lon="11.566976975510938"><ele>289.0</ele><time>2026-04-08T10:30:36Z</time></trkpt><trkpt lat="43.137948549456695" lon="11.566856824817147"><ele>288.8</ele><time>2026-04-08T10:30:37Z</time></trkpt><trkpt lat="43.1379399256805" lon="11.566727868595082"><ele>288.59999999999997</ele><time>2026-04-08T10:30:38Z</time></trkpt><trkpt lat="43.13792753424888" lon="11.566595864717945"><ele>288.4</ele><time>2026-04-08T10:30:39Z</time></trkpt><trkpt lat="43.13791547364644" lon="11.56646620273432"><ele>288.2</ele><time>2026-04-08T10:30:40Z</time></trkpt><trkpt lat="43.13790472607394" lon="11.5663487344903"><ele>288.0</ele><time>2026-04-08T10:30:41Z</time></trkpt><trkpt lat="43.13789640100379" lon="11.566203253764002"><ele>287.2</ele><time>2026-04-08T10:30:42Z</time></trkpt><trkpt lat="43.13788874121542" lon="11.566040572813097"><ele>286.4</ele><time>2026-04-08T10:30:43Z</time></trkpt><trkpt lat="43.13787687980316" lon="11.565887268485284"><ele>285.59999999999997</ele><time>2026-04-08T10:30:44Z</time></trkpt><trkpt lat="43.13787100693242" lon="11.565757464816246"><ele>284.8</ele><time>2026-04-08T10:30:45Z</time></trkpt><trkpt lat="43.137866804669464" lon="11.565638559728647"><ele>284.0</ele><time>2026-04-08T10:30:46Z</time></trkpt><trkpt lat="43.137860266427715" lon="11.565523024822404"><ele>284.0</ele><time>2026-04-08T10:30:47Z</time></trkpt><trkpt lat="43.13785542613804" lon="11.56540164807995"><ele>284.0</ele><time>2026-04-08T10:30:48Z</time></trkpt><trkpt lat="43.13784583174509" lon="11.565292738190756"><ele>284.0</ele><time>2026-04-08T10:30:49Z</time></trkpt><trkpt lat="43.13782117530783" lon="11.565178935037196"><ele>284.0</ele><time>2026-04-08T10:30:50Z</time></trkpt><trkpt lat="43.13777510720254" lon="11.565055492148954"><ele>284.0</ele><time>2026-04-08T10:30:51Z</time></trkpt><trkpt lat="43.137727282536204" lon="11.564935136428634"><ele>284.6666666666667</ele><time>2026-04-08T10:30:52Z</time></trkpt><trkpt lat="43.137674947213284" lon="11.564836271175984"><ele>285.33333333333337</ele><time>2026-04-08T10:30:53Z</time></trkpt><trkpt lat="43.13762388675578" lon="11.564743698225175"><ele>286.0</ele><time>2026-04-08T10:30:54Z</time></trkpt><trkpt lat="43.13758875638203" lon="11.564654918315107"><ele>286.6666666666667</ele><time>2026-04-08T10:30:55Z</time></trkpt><trkpt lat="43.137544006512364" lon="11.56457054989567"><ele>287.3333333333333</ele><time>2026-04-08T10:30:56Z</time></trkpt><trkpt lat="43.13750898735703" lon="11.564493447710023"><ele>288.0</ele><time>2026-04-08T10:30:57Z</time></trkpt><trkpt lat="43.13746522456578" lon="11.564421106125215"><ele>283.0</ele><time>2026-04-08T10:30:58Z</time></trkpt><trkpt lat="43.1373802443844" lon="11.564318077653077"><ele>278.0</ele><time>2026-04-08T10:31:00Z</time></trkpt><trkpt lat="43.137305007677064" lon="11.564291493158665"><ele>273.0</ele><time>2026-04-08T10:31:01Z</time></trkpt><trkpt lat="43.13721884144858" lon="11.564307426163777"><ele>268.0</ele><time>2026-04-08T10:31:02Z</time></trkpt><trkpt lat="43.137124366519124" lon="11.564349509237763"><ele>263.0</ele><time>2026-04-08T10:31:03Z</time></trkpt><trkpt lat="43.137044787000924" lon="11.564432803819033"><ele>263.0</ele><time>2026-04-08T10:31:04Z</time></trkpt><trkpt lat="43.13699406510094" lon="11.56452587333711"><ele>263.0</ele><time>2026-04-08T10:31:05Z</time></trkpt><trkpt lat="43.13695792643193" lon="11.564626945812705"><ele>263.0</ele><time>2026-04-08T10:31:06Z</time></trkpt><trkpt lat="43.13693828064214" lon="11.56475011116875"><ele>263.0</ele><time>2026-04-08T10:31:07Z</time></trkpt><trkpt lat="43.13695077780347" lon="11.564883731445045"><ele>263.0</ele><time>2026-04-08T10:31:08Z</time></trkpt><trkpt lat="43.13697896166198" lon="11.565015615136238"><ele>263.6666666666667</ele><time>2026-04-08T10:31:09Z</time></trkpt><trkpt lat="43.1370277991851" lon="11.565139125210028"><ele>264.33333333333337</ele><time>2026-04-08T10:31:10Z</time></trkpt><trkpt lat="43.13709329597752" lon="11.565253193964043"><ele>265.0</ele><time>2026-04-08T10:31:11Z</time></trkpt><trkpt lat="43.13714612518023" lon="11.565356059299814"><ele>265.6666666666667</ele><time>2026-04-08T10:31:12Z</time></trkpt><trkpt lat="43.137191121199905" lon="11.565447456883026"><ele>266.3333333333333</ele><time>2026-04-08T10:31:13Z</time></trkpt><trkpt lat="43.13722071704817" lon="11.56553178150644"><ele>267.0</ele><time>2026-04-08T10:31:14Z</time></trkpt><trkpt lat="43.137234955677904" lon="11.565621580532639"><ele>267.0</ele><time>2026-04-08T10:31:15Z</time></trkpt><trkpt lat="43.137239178711326" lon="11.565718106303606"><ele>267.0</ele><time>2026-04-08T10:31:16Z</time></trkpt><trkpt lat="43.13722972126191" lon="11.565836182311457"><ele>267.0</ele><time>2026-04-08T10:31:17Z</time></trkpt><trkpt lat="43.13720098209829" lon="11.565956182174489"><ele>267.0</ele><time>2026-04-08T10:31:18Z</time></trkpt><trkpt lat="43.13715347991944" lon="11.566070235884045"><ele>267.0</ele><time>2026-04-08T10:31:19Z</time></trkpt><trkpt lat="43.13709262992168" lon="11.566154313283128"><ele>267.0</ele><time>2026-04-08T10:31:20Z</time></trkpt><trkpt lat="43.13702035691291" lon="11.566243556034843"><ele>268.0</ele><time>2026-04-08T10:31:21Z</time></trkpt><trkpt lat="43.136936007570625" lon="11.566325366476592"><ele>269.0</ele><time>2026-04-08T10:31:22Z</time></trkpt><trkpt lat="43.136820920562435" lon="11.566360423673993"><ele>270.0</ele><time>2026-04-08T10:31:23Z</time></trkpt><trkpt lat="43.13670353505431" lon="11.566423129248948"><ele>271.0</ele><time>2026-04-08T10:31:24Z</time></trkpt><trkpt lat="43.1365984872109" lon="11.566461430946458"><ele>266.40000000000003</ele><time>2026-04-08T10:31:25Z</time></trkpt><trkpt lat="43.136502625562905" lon="11.56650167415398"><ele>261.8</ele><time>2026-04-08T10:31:26Z</time></trkpt><trkpt lat="43.13642157489659" lon="11.5665429066995"><ele>257.20000000000005</ele><time>2026-04-08T10:31:27Z</time></trkpt><trkpt lat="43.13634191800509" lon="11.566549888590185"><ele>252.60000000000002</ele><time>2026-04-08T10:31:28Z</time></trkpt><trkpt lat="43.136210245733004" lon="11.56656346333067"><ele>248.0</ele><time>2026-04-08T10:31:30Z</time></trkpt><trkpt lat="43.136140091826185" lon="11.566535948986353"><ele>248.00000000000003</ele><time>2026-04-08T10:31:31Z</time></trkpt><trkpt lat="43.13611264676384" lon="11.566441602366497"><ele>248.0</ele><time>2026-04-08T10:31:32Z</time></trkpt><trkpt lat="43.13611667383693" lon="11.566336733322014"><ele>248.0</ele><time>2026-04-08T10:31:33Z</time></trkpt><trkpt lat="43.13614521919046" lon="11.566231251441023"><ele>248.0</ele><time>2026-04-08T10:31:34Z</time></trkpt><trkpt lat="43.13619395519358" lon="11.566131751396878"><ele>248.00000000000003</ele><time>2026-04-08T10:31:35Z</time></trkpt><trkpt lat="43.136250104727594" lon="11.566059109180307"><ele>248.0</ele><time>2026-04-08T10:31:36Z</time></trkpt><trkpt lat="43.13630687032191" lon="11.565991950885826"><ele>248.00000000000003</ele><time>2026-04-08T10:31:37Z</time></trkpt><trkpt lat="43.136357142921106" lon="11.565909777636076"><ele>248.0</ele><time>2026-04-08T10:31:38Z</time></trkpt><trkpt lat="43.13639523836387" lon="11.565813293043146"><ele>248.0</ele><time>2026-04-08T10:31:39Z</time></trkpt><trkpt lat="43.13640775298743" lon="11.56571222993542"><ele>248.0</ele><time>2026-04-08T10:31:40Z</time></trkpt><trkpt lat="43.13639660631267" lon="11.565603164428982"><ele>248.00000000000003</ele><time>2026-04-08T10:31:40.999Z</time></trkpt><trkpt lat="43.13636458141677" lon="11.565488557016954"><ele>248.0</ele><time>2026-04-08T10:31:41.999Z</time></trkpt><trkpt lat="43.136306470932574" lon="11.565385336202903"><ele>247.50000000000003</ele><time>2026-04-08T10:31:43Z</time></trkpt><trkpt lat="43.1362270678069" lon="11.565297190674636"><ele>247.0</ele><time>2026-04-08T10:31:44Z</time></trkpt><trkpt lat="43.136160616828995" lon="11.565228335630787"><ele>246.5</ele><time>2026-04-08T10:31:45Z</time></trkpt><trkpt lat="43.13609916402977" lon="11.565153862882305"><ele>246.0</ele><time>2026-04-08T10:31:46Z</time></trkpt><trkpt lat="43.136066088413195" lon="11.565065420378728"><ele>245.50000000000003</ele><time>2026-04-08T10:31:47Z</time></trkpt><trkpt lat="43.136053940710674" lon="11.564949329854967"><ele>245.0</ele><time>2026-04-08T10:31:48Z</time></trkpt><trkpt lat="43.136058343821624" lon="11.564822384152489"><ele>245.0</ele><time>2026-04-08T10:31:49Z</time></trkpt><trkpt lat="43.13607801513018" lon="11.564689224247061"><ele>245.0</ele><time>2026-04-08T10:31:50Z</time></trkpt><trkpt lat="43.1361121966643" lon="11.564576482981698"><ele>245.0</ele><time>2026-04-08T10:31:51Z</time></trkpt><trkpt lat="43.13615657882421" lon="11.564469029087014"><ele>245.0</ele><time>2026-04-08T10:31:52Z</time></trkpt><trkpt lat="43.13621485619334" lon="11.564351014339389"><ele>245.0</ele><time>2026-04-08T10:31:53Z</time></trkpt><trkpt lat="43.1362689141738" lon="11.564242460191839"><ele>244.33333333333334</ele><time>2026-04-08T10:31:54Z</time></trkpt><trkpt lat="43.13631392278326" lon="11.564145766522117"><ele>243.66666666666669</ele><time>2026-04-08T10:31:55Z</time></trkpt><trkpt lat="43.136346807783795" lon="11.564044609104052"><ele>243.0</ele><time>2026-04-08T10:31:56Z</time></trkpt><trkpt lat="43.13637178053723" lon="11.563938915525803"><ele>242.33333333333331</ele><time>2026-04-08T10:31:57Z</time></trkpt><trkpt lat="43.13638677100287" lon="11.563808023338947"><ele>241.66666666666666</ele><time>2026-04-08T10:31:58Z</time></trkpt><trkpt lat="43.13638725497814" lon="11.563670599409894"><ele>241.0</ele><time>2026-04-08T10:31:59Z</time></trkpt><trkpt lat="43.136369881947" lon="11.563544047577272"><ele>241.0</ele><time>2026-04-08T10:32:00Z</time></trkpt><trkpt lat="43.1363405260392" lon="11.56343277949632"><ele>241.00000000000003</ele><time>2026-04-08T10:32:01Z</time></trkpt><trkpt lat="43.13629864002525" lon="11.563336810715136"><ele>241.00000000000003</ele><time>2026-04-08T10:32:02Z</time></trkpt><trkpt lat="43.13624523251622" lon="11.563238953940553"><ele>241.0</ele><time>2026-04-08T10:32:03Z</time></trkpt><trkpt lat="43.13616311881531" lon="11.563127043930809"><ele>241.0</ele><time>2026-04-08T10:32:04Z</time></trkpt><trkpt lat="43.136085825281675" lon="11.563009651350725"><ele>241.0</ele><time>2026-04-08T10:32:05Z</time></trkpt><trkpt lat="43.13599749965898" lon="11.562937501761821"><ele>241.00000000000003</ele><time>2026-04-08T10:32:06Z</time></trkpt><trkpt lat="43.13592463674482" lon="11.56284337947493"><ele>241.00000000000003</ele><time>2026-04-08T10:32:07Z</time></trkpt><trkpt lat="43.135842392105" lon="11.562742852021577"><ele>241.0</ele><time>2026-04-08T10:32:08Z</time></trkpt><trkpt lat="43.13575918373769" lon="11.562637770320542"><ele>241.0</ele><time>2026-04-08T10:32:09Z</time></trkpt><trkpt lat="43.13568109354095" lon="11.5625399754253"><ele>238.4</ele><time>2026-04-08T10:32:10Z</time></trkpt><trkpt lat="43.135609362760356" lon="11.562448243532426"><ele>235.8</ele><time>2026-04-08T10:32:11Z</time></trkpt><trkpt lat="43.13554360385042" lon="11.562359213147777"><ele>233.20000000000002</ele><time>2026-04-08T10:32:12Z</time></trkpt><trkpt lat="43.13548166585255" lon="11.562265254622217"><ele>230.60000000000002</ele><time>2026-04-08T10:32:13Z</time></trkpt><trkpt lat="43.13542500470501" lon="11.562174473387257"><ele>228.0</ele><time>2026-04-08T10:32:14Z</time></trkpt><trkpt lat="43.13536377273333" lon="11.562069368081223"><ele>229.0</ele><time>2026-04-08T10:32:15Z</time></trkpt><trkpt lat="43.13530466557441" lon="11.56195309090868"><ele>230.0</ele><time>2026-04-08T10:32:16Z</time></trkpt><trkpt lat="43.13524775173762" lon="11.561842566261419"><ele>231.0</ele><time>2026-04-08T10:32:17Z</time></trkpt><trkpt lat="43.1351911828046" lon="11.561734505271643"><ele>232.0</ele><time>2026-04-08T10:32:18Z</time></trkpt><trkpt lat="43.135134850236824" lon="11.561631350107758"><ele>233.0</ele><time>2026-04-08T10:32:19Z</time></trkpt><trkpt lat="43.135082031983785" lon="11.561535741210001"><ele>233.0</ele><time>2026-04-08T10:32:20Z</time></trkpt><trkpt lat="43.135028705874284" lon="11.561428781361034"><ele>233.0</ele><time>2026-04-08T10:32:21Z</time></trkpt><trkpt lat="43.13496199541731" lon="11.561301573632651"><ele>233.0</ele><time>2026-04-08T10:32:22Z</time></trkpt><trkpt lat="43.134888079024165" lon="11.56116693989076"><ele>233.0</ele><time>2026-04-08T10:32:23Z</time></trkpt><trkpt lat="43.134813287018964" lon="11.5610248643117"><ele>227.75</ele><time>2026-04-08T10:32:24Z</time></trkpt><trkpt lat="43.13474648109899" lon="11.560894055936053"><ele>222.5</ele><time>2026-04-08T10:32:25Z</time></trkpt><trkpt lat="43.13468149909969" lon="11.560770797579448"><ele>217.25</ele><time>2026-04-08T10:32:26Z</time></trkpt><trkpt lat="43.13461109818626" lon="11.560636330741914"><ele>212.0</ele><time>2026-04-08T10:32:27Z</time></trkpt><trkpt lat="43.13454120879557" lon="11.560505529516815"><ele>212.0</ele><time>2026-04-08T10:32:28Z</time></trkpt><trkpt lat="43.13447368273532" lon="11.56038457210708"><ele>212.0</ele><time>2026-04-08T10:32:29Z</time></trkpt><trkpt lat="43.13440968139598" lon="11.560266748063098"><ele>212.0</ele><time>2026-04-08T10:32:30Z</time></trkpt><trkpt lat="43.13435302722714" lon="11.560165573736514"><ele>212.0</ele><time>2026-04-08T10:32:31Z</time></trkpt><trkpt lat="43.134297004196505" lon="11.560066577499915"><ele>212.0</ele><time>2026-04-08T10:32:32Z</time></trkpt><trkpt lat="43.134246420150866" lon="11.559969157324934"><ele>212.8</ele><time>2026-04-08T10:32:33Z</time></trkpt><trkpt lat="43.13419549658936" lon="11.559872363612158"><ele>213.6</ele><time>2026-04-08T10:32:34Z</time></trkpt><trkpt lat="43.134139481987894" lon="11.559761105382865"><ele>214.40000000000003</ele><time>2026-04-08T10:32:35Z</time></trkpt><trkpt lat="43.13408860760245" lon="11.55964216257409"><ele>215.20000000000002</ele><time>2026-04-08T10:32:36Z</time></trkpt><trkpt lat="43.13404835643842" lon="11.55954018168196"><ele>216.0</ele><time>2026-04-08T10:32:37Z</time></trkpt><trkpt lat="43.134024374738125" lon="11.559397345581019"><ele>212.8</ele><time>2026-04-08T10:32:38Z</time></trkpt><trkpt lat="43.13401019928581" lon="11.559238563023236"><ele>209.60000000000002</ele><time>2026-04-08T10:32:39Z</time></trkpt><trkpt lat="43.13400744873965" lon="11.559083000884621"><ele>206.4</ele><time>2026-04-08T10:32:40Z</time></trkpt><trkpt lat="43.13401029021304" lon="11.558946558282354"><ele>203.2</ele><time>2026-04-08T10:32:41Z</time></trkpt><trkpt lat="43.13401368454356" lon="11.558806915977302"><ele>200.0</ele><time>2026-04-08T10:32:42Z</time></trkpt><trkpt lat="43.13401729072637" lon="11.558662154923903"><ele>200.0</ele><time>2026-04-08T10:32:43Z</time></trkpt><trkpt lat="43.13402514313146" lon="11.55853718064873"><ele>200.0</ele><time>2026-04-08T10:32:44Z</time></trkpt><trkpt lat="43.134031986899664" lon="11.558396880949532"><ele>200.0</ele><time>2026-04-08T10:32:45Z</time></trkpt><trkpt lat="43.134035880359264" lon="11.558244091268389"><ele>200.0</ele><time>2026-04-08T10:32:46Z</time></trkpt><trkpt lat="43.13403474854393" lon="11.558067836537056"><ele>200.0</ele><time>2026-04-08T10:32:47Z</time></trkpt><trkpt lat="43.1340180430374" lon="11.55789233587043"><ele>200.0</ele><time>2026-04-08T10:32:48Z</time></trkpt><trkpt lat="43.13399628624196" lon="11.557722469225512"><ele>200.0</ele><time>2026-04-08T10:32:49Z</time></trkpt><trkpt lat="43.133977494853404" lon="11.55757474223141"><ele>200.0</ele><time>2026-04-08T10:32:50Z</time></trkpt><trkpt lat="43.13395548456389" lon="11.557401927523523"><ele>200.0</ele><time>2026-04-08T10:32:51Z</time></trkpt><trkpt lat="43.13393458913341" lon="11.55724682830979"><ele>200.0</ele><time>2026-04-08T10:32:52Z</time></trkpt><trkpt lat="43.133902749733366" lon="11.557086961903298"><ele>200.0</ele><time>2026-04-08T10:32:53Z</time></trkpt><trkpt lat="43.13387888086893" lon="11.556908173161297"><ele>200.0</ele><time>2026-04-08T10:32:54Z</time></trkpt><trkpt lat="43.133847401767156" lon="11.556743184022311"><ele>200.0</ele><time>2026-04-08T10:32:55Z</time></trkpt><trkpt lat="43.13382372576523" lon="11.556599305141471"><ele>201.0</ele><time>2026-04-08T10:32:56Z</time></trkpt><trkpt lat="43.13380709936404" lon="11.556443465586304"><ele>202.0</ele><time>2026-04-08T10:32:57Z</time></trkpt><trkpt lat="43.13377944389192" lon="11.556307694447154"><ele>203.0</ele><time>2026-04-08T10:32:58Z</time></trkpt><trkpt lat="43.13375250771945" lon="11.55618609194272"><ele>204.0</ele><time>2026-04-08T10:32:59Z</time></trkpt><trkpt lat="43.13369999055815" lon="11.556071013777872"><ele>205.0</ele><time>2026-04-08T10:33:00Z</time></trkpt><trkpt lat="43.133624902948924" lon="11.55597909350472"><ele>207.0</ele><time>2026-04-08T10:33:01Z</time></trkpt><trkpt lat="43.133542176956574" lon="11.555908291535005"><ele>209.0</ele><time>2026-04-08T10:33:02Z</time></trkpt><trkpt lat="43.133460768846156" lon="11.555852861886331"><ele>211.0</ele><time>2026-04-08T10:33:03Z</time></trkpt><trkpt lat="43.133357099406034" lon="11.555835346723475"><ele>213.0</ele><time>2026-04-08T10:33:04Z</time></trkpt><trkpt lat="43.133245033736614" lon="11.555836828141327"><ele>215.0</ele><time>2026-04-08T10:33:05Z</time></trkpt><trkpt lat="43.1331334014097" lon="11.555869149501847"><ele>215.75</ele><time>2026-04-08T10:33:06Z</time></trkpt><trkpt lat="43.1330268300786" lon="11.55595461209105"><ele>216.5</ele><time>2026-04-08T10:33:07Z</time></trkpt><trkpt lat="43.13293124416753" lon="11.556058884618446"><ele>217.25</ele><time>2026-04-08T10:33:08Z</time></trkpt><trkpt lat="43.132839323118375" lon="11.556190612839481"><ele>218.0</ele><time>2026-04-08T10:33:09Z</time></trkpt><trkpt lat="43.13274826659292" lon="11.556323529823572"><ele>218.0</ele><time>2026-04-08T10:33:10Z</time></trkpt><trkpt lat="43.13264971288571" lon="11.5564574298389"><ele>218.0</ele><time>2026-04-08T10:33:11Z</time></trkpt><trkpt lat="43.13255599791405" lon="11.55658058014103"><ele>218.0</ele><time>2026-04-08T10:33:12Z</time></trkpt><trkpt lat="43.13248565352715" lon="11.556701294192942"><ele>218.0</ele><time>2026-04-08T10:33:13Z</time></trkpt><trkpt lat="43.132406133134076" lon="11.55680269177029"><ele>217.0</ele><time>2026-04-08T10:33:14Z</time></trkpt><trkpt lat="43.132324300244754" lon="11.55690603880317"><ele>216.0</ele><time>2026-04-08T10:33:15Z</time></trkpt><trkpt lat="43.13223500176303" lon="11.556999506353838"><ele>215.0</ele><time>2026-04-08T10:33:16Z</time></trkpt><trkpt lat="43.132120908828725" lon="11.557069089977274"><ele>214.0</ele><time>2026-04-08T10:33:17Z</time></trkpt><trkpt lat="43.13199989781817" lon="11.557125464890808"><ele>214.0</ele><time>2026-04-08T10:33:18Z</time></trkpt><trkpt lat="43.13187158419978" lon="11.557177104313796"><ele>214.0</ele><time>2026-04-08T10:33:19Z</time></trkpt><trkpt lat="43.13173651841994" lon="11.557239741214909"><ele>214.0</ele><time>2026-04-08T10:33:20Z</time></trkpt><trkpt lat="43.13159922768197" lon="11.557299573094912"><ele>214.0</ele><time>2026-04-08T10:33:21Z</time></trkpt><trkpt lat="43.131488603698166" lon="11.557342640824823"><ele>213.66666666666666</ele><time>2026-04-08T10:33:22Z</time></trkpt><trkpt lat="43.13140136288802" lon="11.557362249957599"><ele>213.33333333333331</ele><time>2026-04-08T10:33:23Z</time></trkpt><trkpt lat="43.131323656627444" lon="11.557353727554515"><ele>213.0</ele><time>2026-04-08T10:33:24Z</time></trkpt><trkpt lat="43.13125191367769" lon="11.557319038420397"><ele>212.66666666666669</ele><time>2026-04-08T10:33:25Z</time></trkpt><trkpt lat="43.13118191956118" lon="11.557259497522345"><ele>212.33333333333334</ele><time>2026-04-08T10:33:26Z</time></trkpt><trkpt lat="43.13112615292392" lon="11.557172030332616"><ele>212.0</ele><time>2026-04-08T10:33:27Z</time></trkpt><trkpt lat="43.131090389160434" lon="11.557061999801126"><ele>215.00000000000003</ele><time>2026-04-08T10:33:28Z</time></trkpt><trkpt lat="43.13106708195467" lon="11.556936401062217"><ele>218.0</ele><time>2026-04-08T10:33:29Z</time></trkpt><trkpt lat="43.13106924543633" lon="11.556826329183577"><ele>221.0</ele><time>2026-04-08T10:33:30Z</time></trkpt><trkpt lat="43.13110093622158" lon="11.556730941168258"><ele>224.0</ele><time>2026-04-08T10:33:31Z</time></trkpt><trkpt lat="43.131146319081935" lon="11.556635295748773"><ele>227.00000000000003</ele><time>2026-04-08T10:33:32Z</time></trkpt><trkpt lat="43.131224909245944" lon="11.556551584623799"><ele>230.0</ele><time>2026-04-08T10:33:33Z</time></trkpt><trkpt lat="43.131326530334505" lon="11.556486940042372"><ele>230.0</ele><time>2026-04-08T10:33:34Z</time></trkpt><trkpt lat="43.13142755394702" lon="11.556425243137737"><ele>230.0</ele><time>2026-04-08T10:33:35Z</time></trkpt><trkpt lat="43.13153879445626" lon="11.556344039592556"><ele>230.0</ele><time>2026-04-08T10:33:36Z</time></trkpt><trkpt lat="43.13165674140518" lon="11.556249408552336"><ele>230.0</ele><time>2026-04-08T10:33:37Z</time></trkpt><trkpt lat="43.13177243411314" lon="11.556147581884535"><ele>233.25</ele><time>2026-04-08T10:33:38Z</time></trkpt><trkpt lat="43.131880583032356" lon="11.556050902256796"><ele>236.5</ele><time>2026-04-08T10:33:39Z</time></trkpt><trkpt lat="43.13199306538351" lon="11.555952810424687"><ele>239.75</ele><time>2026-04-08T10:33:40Z</time></trkpt><trkpt lat="43.1321074540952" lon="11.555838435778188"><ele>243.0</ele><time>2026-04-08T10:33:41Z</time></trkpt><trkpt lat="43.132222967090364" lon="11.555725399270564"><ele>243.0</ele><time>2026-04-08T10:33:42Z</time></trkpt><trkpt lat="43.13233745450186" lon="11.555602703437406"><ele>243.0</ele><time>2026-04-08T10:33:43Z</time></trkpt><trkpt lat="43.1324371460628" lon="11.5554948651591"><ele>243.0</ele><time>2026-04-08T10:33:44Z</time></trkpt><trkpt lat="43.132537068892255" lon="11.555386982192132"><ele>243.0</ele><time>2026-04-08T10:33:45Z</time></trkpt><trkpt lat="43.132621900773245" lon="11.555299243193314"><ele>243.60000000000002</ele><time>2026-04-08T10:33:46Z</time></trkpt><trkpt lat="43.132697467610335" lon="11.555219969486146"><ele>244.20000000000002</ele><time>2026-04-08T10:33:46.999Z</time></trkpt><trkpt lat="43.13276791152971" lon="11.555139856131524"><ele>244.8</ele><time>2026-04-08T10:33:47.999Z</time></trkpt><trkpt lat="43.13281710972175" lon="11.55504794439857"><ele>245.4</ele><time>2026-04-08T10:33:48.999Z</time></trkpt><trkpt lat="43.132860838175084" lon="11.55493903064928"><ele>246.0</ele><time>2026-04-08T10:33:49.999Z</time></trkpt><trkpt lat="43.13288723676303" lon="11.554819338650429"><ele>246.0</ele><time>2026-04-08T10:33:50.999Z</time></trkpt><trkpt lat="43.13288576520008" lon="11.55470350566565"><ele>246.0</ele><time>2026-04-08T10:33:51.999Z</time></trkpt><trkpt lat="43.1328663066815" lon="11.554598085493739"><ele>246.0</ele><time>2026-04-08T10:33:52.999Z</time></trkpt><trkpt lat="43.1328240104669" lon="11.554490137279144"><ele>246.0</ele><time>2026-04-08T10:33:53.999Z</time></trkpt><trkpt lat="43.132776014728925" lon="11.554396344354089"><ele>246.0</ele><time>2026-04-08T10:33:54.999Z</time></trkpt><trkpt lat="43.13270814447675" lon="11.554297312351723"><ele>246.0</ele><time>2026-04-08T10:33:55.999Z</time></trkpt><trkpt lat="43.13262901066998" lon="11.554204631496996"><ele>246.66666666666666</ele><time>2026-04-08T10:33:56.999Z</time></trkpt><trkpt lat="43.13255656355353" lon="11.55413013927325"><ele>247.33333333333331</ele><time>2026-04-08T10:33:58Z</time></trkpt><trkpt lat="43.13249438019526" lon="11.554078257957316"><ele>248.0</ele><time>2026-04-08T10:33:59Z</time></trkpt><trkpt lat="43.13242789763469" lon="11.554037948320294"><ele>248.66666666666666</ele><time>2026-04-08T10:34:00Z</time></trkpt><trkpt lat="43.13234451744315" lon="11.554031588667389"><ele>249.33333333333331</ele><time>2026-04-08T10:34:01Z</time></trkpt><trkpt lat="43.13225134435564" lon="11.554060901451626"><ele>250.0</ele><time>2026-04-08T10:34:02Z</time></trkpt><trkpt lat="43.13216033634751" lon="11.55413072184822"><ele>251.5</ele><time>2026-04-08T10:34:03Z</time></trkpt><trkpt lat="43.13207274924215" lon="11.554221251355177"><ele>253.0</ele><time>2026-04-08T10:34:04Z</time></trkpt><trkpt lat="43.13196882158488" lon="11.554358135267698"><ele>254.5</ele><time>2026-04-08T10:34:05Z</time></trkpt><trkpt lat="43.13186633305575" lon="11.554504212079406"><ele>256.0</ele><time>2026-04-08T10:34:06Z</time></trkpt><trkpt lat="43.131788093296656" lon="11.554621228494653"><ele>256.0</ele><time>2026-04-08T10:34:07Z</time></trkpt><trkpt lat="43.131720051069955" lon="11.554722113813169"><ele>256.0</ele><time>2026-04-08T10:34:08Z</time></trkpt><trkpt lat="43.13164856054323" lon="11.554823959450214"><ele>256.0</ele><time>2026-04-08T10:34:09Z</time></trkpt><trkpt lat="43.13156572059677" lon="11.554956393281065"><ele>256.0</ele><time>2026-04-08T10:34:10Z</time></trkpt><trkpt lat="43.1314784009063" lon="11.555044248944508"><ele>256.0</ele><time>2026-04-08T10:34:11Z</time></trkpt><trkpt lat="43.131394513378645" lon="11.555110380286909"><ele>257.2</ele><time>2026-04-08T10:34:12Z</time></trkpt><trkpt lat="43.13129663566749" lon="11.555159014839253"><ele>258.40000000000003</ele><time>2026-04-08T10:34:13Z</time></trkpt><trkpt lat="43.13119920980364" lon="11.55517444993386"><ele>259.6</ele><time>2026-04-08T10:34:14Z</time></trkpt><trkpt lat="43.13111745304452" lon="11.555162382673913"><ele>260.8</ele><time>2026-04-08T10:34:15Z</time></trkpt><trkpt lat="43.13103535611928" lon="11.555126648839941"><ele>262.0</ele><time>2026-04-08T10:34:16Z</time></trkpt><trkpt lat="43.13095405057878" lon="11.555061326176695"><ele>262.0</ele><time>2026-04-08T10:34:17Z</time></trkpt><trkpt lat="43.13087497531466" lon="11.55497403845506"><ele>262.0</ele><time>2026-04-08T10:34:18Z</time></trkpt><trkpt lat="43.130805369694116" lon="11.554868144154247"><ele>262.0</ele><time>2026-04-08T10:34:19Z</time></trkpt><trkpt lat="43.130747081454686" lon="11.554752766746585"><ele>262.0</ele><time>2026-04-08T10:34:20Z</time></trkpt><trkpt lat="43.130679287926085" lon="11.554643872520055"><ele>262.0</ele><time>2026-04-08T10:34:21Z</time></trkpt><trkpt lat="43.130590667043734" lon="11.554540914960493"><ele>263.0</ele><time>2026-04-08T10:34:22Z</time></trkpt><trkpt lat="43.13048119959887" lon="11.554448712526382"><ele>264.0</ele><time>2026-04-08T10:34:23Z</time></trkpt><trkpt lat="43.13037083084568" lon="11.554359054073815"><ele>265.0</ele><time>2026-04-08T10:34:24Z</time></trkpt><trkpt lat="43.13025929045194" lon="11.554253643728833"><ele>266.0</ele><time>2026-04-08T10:34:25Z</time></trkpt><trkpt lat="43.13017277908496" lon="11.554145687575906"><ele>266.0</ele><time>2026-04-08T10:34:26Z</time></trkpt><trkpt lat="43.1300876821118" lon="11.554042979874781"><ele>266.0</ele><time>2026-04-08T10:34:27Z</time></trkpt><trkpt lat="43.13000107178229" lon="11.553955286195672"><ele>266.0</ele><time>2026-04-08T10:34:28Z</time></trkpt><trkpt lat="43.12990568122226" lon="11.553881499780502"><ele>266.0</ele><time>2026-04-08T10:34:29Z</time></trkpt><trkpt lat="43.12979786994565" lon="11.5538329476531"><ele>266.0</ele><time>2026-04-08T10:34:30Z</time></trkpt><trkpt lat="43.129707703690684" lon="11.55380823123825"><ele>266.2</ele><time>2026-04-08T10:34:31Z</time></trkpt><trkpt lat="43.129616879110266" lon="11.553801689006903"><ele>266.40000000000003</ele><time>2026-04-08T10:34:32Z</time></trkpt><trkpt lat="43.129523656522345" lon="11.553772951664808"><ele>266.6</ele><time>2026-04-08T10:34:33Z</time></trkpt><trkpt lat="43.129454944481914" lon="11.553757653609969"><ele>266.8</ele><time>2026-04-08T10:34:34Z</time></trkpt><trkpt lat="43.12935875375927" lon="11.553653505289208"><ele>267.0</ele><time>2026-04-08T10:34:36Z</time></trkpt><trkpt lat="43.12932672973488" lon="11.553552020538756"><ele>268.5714285714286</ele><time>2026-04-08T10:34:37Z</time></trkpt><trkpt lat="43.12932261958553" lon="11.553446899787588"><ele>270.14285714285717</ele><time>2026-04-08T10:34:38Z</time></trkpt><trkpt lat="43.12934239477176" lon="11.553351542280835"><ele>271.7142857142857</ele><time>2026-04-08T10:34:39Z</time></trkpt><trkpt lat="43.129381946542836" lon="11.553270906499957"><ele>273.28571428571433</ele><time>2026-04-08T10:34:40Z</time></trkpt><trkpt lat="43.12944024485152" lon="11.553208435432438"><ele>274.8571428571429</ele><time>2026-04-08T10:34:41Z</time></trkpt><trkpt lat="43.129503742726946" lon="11.553156663022063"><ele>276.42857142857144</ele><time>2026-04-08T10:34:42Z</time></trkpt><trkpt lat="43.12957760756609" lon="11.553121243969677"><ele>278.0</ele><time>2026-04-08T10:34:43Z</time></trkpt><trkpt lat="43.12966366760426" lon="11.553133234824976"><ele>278.0</ele><time>2026-04-08T10:34:44Z</time></trkpt><trkpt lat="43.12975569804735" lon="11.553128272799645"><ele>278.0</ele><time>2026-04-08T10:34:45Z</time></trkpt><trkpt lat="43.12986770827369" lon="11.553164207458266"><ele>278.0</ele><time>2026-04-08T10:34:46Z</time></trkpt><trkpt lat="43.12998791868099" lon="11.553233600469188"><ele>278.0</ele><time>2026-04-08T10:34:47Z</time></trkpt><trkpt lat="43.13011409115922" lon="11.553279904190966"><ele>278.0</ele><time>2026-04-08T10:34:48Z</time></trkpt><trkpt lat="43.130222052562964" lon="11.553298747938255"><ele>278.0</ele><time>2026-04-08T10:34:49Z</time></trkpt><trkpt lat="43.130329280610184" lon="11.553347988581141"><ele>278.0</ele><time>2026-04-08T10:34:50Z</time></trkpt><trkpt lat="43.130434617629575" lon="11.553383165088709"><ele>278.0</ele><time>2026-04-08T10:34:51Z</time></trkpt><trkpt lat="43.1305257868058" lon="11.553413411888592"><ele>278.0</ele><time>2026-04-08T10:34:52Z</time></trkpt><trkpt lat="43.13061137988785" lon="11.553423084967296"><ele>278.0</ele><time>2026-04-08T10:34:53Z</time></trkpt><trkpt lat="43.13071233123929" lon="11.55342183302283"><ele>278.0</ele><time>2026-04-08T10:34:54Z</time></trkpt><trkpt lat="43.13080137954804" lon="11.553398054030321"><ele>278.0</ele><time>2026-04-08T10:34:55Z</time></trkpt><trkpt lat="43.13087719475313" lon="11.553350451341444"><ele>278.0</ele><time>2026-04-08T10:34:56Z</time></trkpt><trkpt lat="43.13095065085085" lon="11.553287268043704"><ele>278.0</ele><time>2026-04-08T10:34:57Z</time></trkpt><trkpt lat="43.13102611479817" lon="11.553202407294965"><ele>278.83333333333337</ele><time>2026-04-08T10:34:58Z</time></trkpt><trkpt lat="43.13108044400384" lon="11.5531095002482"><ele>279.6666666666667</ele><time>2026-04-08T10:34:59Z</time></trkpt><trkpt lat="43.13111391203301" lon="11.553018566265395"><ele>280.5</ele><time>2026-04-08T10:35:00Z</time></trkpt><trkpt lat="43.13113372673717" lon="11.552911327540745"><ele>281.3333333333333</ele><time>2026-04-08T10:35:01Z</time></trkpt><trkpt lat="43.13114137232022" lon="11.55279649024325"><ele>282.16666666666663</ele><time>2026-04-08T10:35:02Z</time></trkpt><trkpt lat="43.13113827206086" lon="11.552677169253164"><ele>283.0</ele><time>2026-04-08T10:35:03Z</time></trkpt><trkpt lat="43.131125686749506" lon="11.552544726520267"><ele>284.8</ele><time>2026-04-08T10:35:04Z</time></trkpt><trkpt lat="43.13110868637955" lon="11.552403007559565"><ele>286.6</ele><time>2026-04-08T10:35:05Z</time></trkpt><trkpt lat="43.13109858228018" lon="11.552258811809201"><ele>288.4</ele><time>2026-04-08T10:35:06Z</time></trkpt><trkpt lat="43.131099883999134" lon="11.552111170876664"><ele>290.2</ele><time>2026-04-08T10:35:07Z</time></trkpt><trkpt lat="43.13111741152303" lon="11.551951128225443"><ele>292.0</ele><time>2026-04-08T10:35:08Z</time></trkpt><trkpt lat="43.13115993963923" lon="11.551803173146217"><ele>294.25</ele><time>2026-04-08T10:35:09Z</time></trkpt><trkpt lat="43.13122017275979" lon="11.551654205642222"><ele>296.5</ele><time>2026-04-08T10:35:10Z</time></trkpt><trkpt lat="43.13129062032314" lon="11.551511516881627"><ele>298.75</ele><time>2026-04-08T10:35:11Z</time></trkpt><trkpt lat="43.131361599769434" lon="11.551395811196326"><ele>301.0</ele><time>2026-04-08T10:35:12Z</time></trkpt><trkpt lat="43.13143614324037" lon="11.551281880982463"><ele>300.25</ele><time>2026-04-08T10:35:13Z</time></trkpt><trkpt lat="43.13151159554602" lon="11.55114650085322"><ele>299.5</ele><time>2026-04-08T10:35:14Z</time></trkpt><trkpt lat="43.13159211880418" lon="11.55099139921008"><ele>298.75</ele><time>2026-04-08T10:35:15Z</time></trkpt><trkpt lat="43.131682732583734" lon="11.550828242510597"><ele>298.0</ele><time>2026-04-08T10:35:16Z</time></trkpt><trkpt lat="43.131773150522115" lon="11.550657982582555"><ele>298.0</ele><time>2026-04-08T10:35:17Z</time></trkpt><trkpt lat="43.131876064802334" lon="11.55046736564227"><ele>298.0</ele><time>2026-04-08T10:35:18Z</time></trkpt><trkpt lat="43.13198315144041" lon="11.550264796335743"><ele>298.0</ele><time>2026-04-08T10:35:19Z</time></trkpt><trkpt lat="43.13207668146295" lon="11.550090056206008"><ele>300.0</ele><time>2026-04-08T10:35:20Z</time></trkpt><trkpt lat="43.13215502306742" lon="11.549940932199629"><ele>302.0</ele><time>2026-04-08T10:35:21Z</time></trkpt><trkpt lat="43.13223768747007" lon="11.54978673172412"><ele>304.0</ele><time>2026-04-08T10:35:22Z</time></trkpt><trkpt lat="43.13231395516535" lon="11.549652195553406"><ele>306.0</ele><time>2026-04-08T10:35:23Z</time></trkpt><trkpt lat="43.13238626328066" lon="11.549525653817982"><ele>306.75</ele><time>2026-04-08T10:35:24Z</time></trkpt><trkpt lat="43.13246753385982" lon="11.549395281907666"><ele>307.5</ele><time>2026-04-08T10:35:25Z</time></trkpt><trkpt lat="43.132568199476864" lon="11.549277087527628"><ele>308.25</ele><time>2026-04-08T10:35:26Z</time></trkpt><trkpt lat="43.13268395548336" lon="11.549172530356293"><ele>309.0</ele><time>2026-04-08T10:35:27Z</time></trkpt><trkpt lat="43.132812733157955" lon="11.549081486371179"><ele>309.0</ele><time>2026-04-08T10:35:28Z</time></trkpt><trkpt lat="43.1329416388114" lon="11.54899323916901"><ele>309.0</ele><time>2026-04-08T10:35:29Z</time></trkpt><trkpt lat="43.13305122990385" lon="11.548916808510434"><ele>309.0</ele><time>2026-04-08T10:35:30Z</time></trkpt><trkpt lat="43.13316061366443" lon="11.548836559231292"><ele>309.0</ele><time>2026-04-08T10:35:31Z</time></trkpt><trkpt lat="43.13325532906246" lon="11.548768024480516"><ele>309.4</ele><time>2026-04-08T10:35:32Z</time></trkpt><trkpt lat="43.13332279870093" lon="11.54867906110381"><ele>309.79999999999995</ele><time>2026-04-08T10:35:33Z</time></trkpt><trkpt lat="43.13338073509953" lon="11.54858062216532"><ele>310.20000000000005</ele><time>2026-04-08T10:35:34Z</time></trkpt><trkpt lat="43.13342896814706" lon="11.548464197031743"><ele>310.6</ele><time>2026-04-08T10:35:35Z</time></trkpt><trkpt lat="43.133468195485335" lon="11.54832923131502"><ele>311.0</ele><time>2026-04-08T10:35:36Z</time></trkpt><trkpt lat="43.13348952538754" lon="11.548201948863609"><ele>311.0</ele><time>2026-04-08T10:35:37Z</time></trkpt><trkpt lat="43.133497460145634" lon="11.548072538139385"><ele>311.0</ele><time>2026-04-08T10:35:38Z</time></trkpt><trkpt lat="43.13348862325227" lon="11.547926602180873"><ele>311.0</ele><time>2026-04-08T10:35:39Z</time></trkpt><trkpt lat="43.13346147169986" lon="11.547782759302239"><ele>311.0</ele><time>2026-04-08T10:35:40Z</time></trkpt><trkpt lat="43.133417514042726" lon="11.547605872845196"><ele>311.0</ele><time>2026-04-08T10:35:41Z</time></trkpt><trkpt lat="43.13336469238645" lon="11.547405169220523"><ele>311.0</ele><time>2026-04-08T10:35:42Z</time></trkpt><trkpt lat="43.13331189473492" lon="11.547197249640087"><ele>311.0</ele><time>2026-04-08T10:35:43Z</time></trkpt><trkpt lat="43.13326465657018" lon="11.54700575004029"><ele>311.0</ele><time>2026-04-08T10:35:44Z</time></trkpt><trkpt lat="43.1332151455572" lon="11.546811924877616"><ele>305.6666666666667</ele><time>2026-04-08T10:35:45Z</time></trkpt><trkpt lat="43.13316351078743" lon="11.546607042098799"><ele>300.3333333333333</ele><time>2026-04-08T10:35:46Z</time></trkpt><trkpt lat="43.13311294917855" lon="11.54638633728322"><ele>295.0</ele><time>2026-04-08T10:35:47Z</time></trkpt><trkpt lat="43.1330610832211" lon="11.546159853310467"><ele>295.0</ele><time>2026-04-08T10:35:48Z</time></trkpt><trkpt lat="43.13300985590167" lon="11.545943922115049"><ele>295.0</ele><time>2026-04-08T10:35:49Z</time></trkpt><trkpt lat="43.132955458608755" lon="11.545706726919356"><ele>295.0</ele><time>2026-04-08T10:35:50Z</time></trkpt><trkpt lat="43.13290824013635" lon="11.545494298192587"><ele>295.75</ele><time>2026-04-08T10:35:51Z</time></trkpt><trkpt lat="43.132864525012295" lon="11.545296326133075"><ele>296.5</ele><time>2026-04-08T10:35:52Z</time></trkpt><trkpt lat="43.13281862174644" lon="11.545107637178337"><ele>297.25</ele><time>2026-04-08T10:35:53Z</time></trkpt><trkpt lat="43.13277384464586" lon="11.54491420371905"><ele>298.0</ele><time>2026-04-08T10:35:54Z</time></trkpt><trkpt lat="43.13272746318799" lon="11.544707914032276"><ele>299.0</ele><time>2026-04-08T10:35:55Z</time></trkpt><trkpt lat="43.13268159247705" lon="11.544500450823472"><ele>300.0</ele><time>2026-04-08T10:35:56Z</time></trkpt><trkpt lat="43.1326341410054" lon="11.544312317946575"><ele>301.0</ele><time>2026-04-08T10:35:57Z</time></trkpt><trkpt lat="43.13258451955168" lon="11.544134307497872"><ele>302.0</ele><time>2026-04-08T10:35:58Z</time></trkpt><trkpt lat="43.132529536973514" lon="11.543950764926254"><ele>302.0</ele><time>2026-04-08T10:35:59Z</time></trkpt><trkpt lat="43.132476684192866" lon="11.543772095187324"><ele>302.0</ele><time>2026-04-08T10:36:00Z</time></trkpt><trkpt lat="43.13241726973402" lon="11.543619037742683"><ele>302.0</ele><time>2026-04-08T10:36:01Z</time></trkpt><trkpt lat="43.13236296908524" lon="11.543482162761636"><ele>302.0</ele><time>2026-04-08T10:36:02Z</time></trkpt><trkpt lat="43.13231435844758" lon="11.543359343528351"><ele>302.0</ele><time>2026-04-08T10:36:03Z</time></trkpt><trkpt lat="43.132270807087274" lon="11.543251273039148"><ele>302.0</ele><time>2026-04-08T10:36:04Z</time></trkpt><trkpt lat="43.13223239757214" lon="11.543151187213493"><ele>302.0</ele><time>2026-04-08T10:36:05Z</time></trkpt><trkpt lat="43.13219606928124" lon="11.543056737853105"><ele>302.0</ele><time>2026-04-08T10:36:06Z</time></trkpt><trkpt lat="43.13214612531841" lon="11.542914693782592"><ele>302.0</ele><time>2026-04-08T10:36:08Z</time></trkpt><trkpt lat="43.132113398577914" lon="11.542832703311028"><ele>302.0</ele><time>2026-04-08T10:36:10Z</time></trkpt><trkpt lat="43.13207485726812" lon="11.542763313940789"><ele>302.4</ele><time>2026-04-08T10:36:15Z</time></trkpt><trkpt lat="43.13201132017415" lon="11.542620775868121"><ele>302.79999999999995</ele><time>2026-04-08T10:36:17Z</time></trkpt><trkpt lat="43.131979939986564" lon="11.542523584004348"><ele>303.2</ele><time>2026-04-08T10:36:18Z</time></trkpt><trkpt lat="43.13193048129209" lon="11.542411623242247"><ele>303.59999999999997</ele><time>2026-04-08T10:36:19Z</time></trkpt><trkpt lat="43.13188453041114" lon="11.542296170863397"><ele>304.0</ele><time>2026-04-08T10:36:20Z</time></trkpt><trkpt lat="43.13184932122988" lon="11.542173203556588"><ele>304.0</ele><time>2026-04-08T10:36:21Z</time></trkpt><trkpt lat="43.13182758891784" lon="11.542048825045745"><ele>304.0</ele><time>2026-04-08T10:36:22Z</time></trkpt><trkpt lat="43.13182258413766" lon="11.541897176502564"><ele>304.0</ele><time>2026-04-08T10:36:23Z</time></trkpt><trkpt lat="43.13183823717072" lon="11.541756381329826"><ele>304.0</ele><time>2026-04-08T10:36:24Z</time></trkpt><trkpt lat="43.13186207117167" lon="11.541621917244143"><ele>304.0</ele><time>2026-04-08T10:36:25Z</time></trkpt><trkpt lat="43.13189372628883" lon="11.541483018404152"><ele>304.25</ele><time>2026-04-08T10:36:26Z</time></trkpt><trkpt lat="43.13192320667059" lon="11.541340109364532"><ele>304.5</ele><time>2026-04-08T10:36:27Z</time></trkpt><trkpt lat="43.13194150101696" lon="11.541179256678715"><ele>304.75</ele><time>2026-04-08T10:36:28Z</time></trkpt><trkpt lat="43.13195574251887" lon="11.541002392396555"><ele>305.0</ele><time>2026-04-08T10:36:29Z</time></trkpt><trkpt lat="43.13197474406052" lon="11.540833506098288"><ele>305.2</ele><time>2026-04-08T10:36:30Z</time></trkpt><trkpt lat="43.131997344418174" lon="11.540686888855944"><ele>305.4</ele><time>2026-04-08T10:36:31Z</time></trkpt><trkpt lat="43.13202539759571" lon="11.540544615653664"><ele>305.6</ele><time>2026-04-08T10:36:32Z</time></trkpt><trkpt lat="43.132064796011534" lon="11.540402692498686"><ele>305.8</ele><time>2026-04-08T10:36:33Z</time></trkpt><trkpt lat="43.13210936730763" lon="11.540258889457897"><ele>306.0</ele><time>2026-04-08T10:36:34Z</time></trkpt><trkpt lat="43.132147384313335" lon="11.54010388587235"><ele>306.0</ele><time>2026-04-08T10:36:35Z</time></trkpt><trkpt lat="43.132176681403244" lon="11.539952712630695"><ele>306.0</ele><time>2026-04-08T10:36:36Z</time></trkpt><trkpt lat="43.13219396987106" lon="11.53981188420506"><ele>306.0</ele><time>2026-04-08T10:36:37Z</time></trkpt><trkpt lat="43.132207534748154" lon="11.539654800427748"><ele>306.0</ele><time>2026-04-08T10:36:38Z</time></trkpt><trkpt lat="43.132206353911954" lon="11.539482460689866"><ele>304.75</ele><time>2026-04-08T10:36:39Z</time></trkpt><trkpt lat="43.13219888110908" lon="11.539300145309392"><ele>303.5</ele><time>2026-04-08T10:36:40Z</time></trkpt><trkpt lat="43.132198477114585" lon="11.539129265196038"><ele>302.25</ele><time>2026-04-08T10:36:41Z</time></trkpt><trkpt lat="43.13221189988132" lon="11.538977784996689"><ele>301.0</ele><time>2026-04-08T10:36:42Z</time></trkpt><trkpt lat="43.132230799923725" lon="11.538831003454693"><ele>299.0</ele><time>2026-04-08T10:36:43Z</time></trkpt><trkpt lat="43.13225239734127" lon="11.538673753440607"><ele>297.0</ele><time>2026-04-08T10:36:44Z</time></trkpt><trkpt lat="43.132273214271514" lon="11.538509018591178"><ele>295.0</ele><time>2026-04-08T10:36:45Z</time></trkpt><trkpt lat="43.13230088888872" lon="11.538352539901291"><ele>293.0</ele><time>2026-04-08T10:36:46Z</time></trkpt><trkpt lat="43.132342688405984" lon="11.53818932069537"><ele>291.4</ele><time>2026-04-08T10:36:47Z</time></trkpt><trkpt lat="43.132390862089395" lon="11.538032999953863"><ele>289.8</ele><time>2026-04-08T10:36:48Z</time></trkpt><trkpt lat="43.13243938317897" lon="11.5378919937883"><ele>288.2</ele><time>2026-04-08T10:36:49Z</time></trkpt><trkpt lat="43.132480030769834" lon="11.537765828133383"><ele>286.6</ele><time>2026-04-08T10:36:50Z</time></trkpt><trkpt lat="43.13252483769396" lon="11.537634856090023"><ele>285.0</ele><time>2026-04-08T10:36:51Z</time></trkpt><trkpt lat="43.13257418030804" lon="11.53748715823725"><ele>284.5</ele><time>2026-04-08T10:36:52Z</time></trkpt><trkpt lat="43.132624403785826" lon="11.537354180358959"><ele>284.0</ele><time>2026-04-08T10:36:53Z</time></trkpt><trkpt lat="43.13268113971745" lon="11.537223369832137"><ele>283.5</ele><time>2026-04-08T10:36:54Z</time></trkpt><trkpt lat="43.13275674526194" lon="11.537076399416147"><ele>283.0</ele><time>2026-04-08T10:36:55Z</time></trkpt><trkpt lat="43.13285936160388" lon="11.536914826074819"><ele>281.25</ele><time>2026-04-08T10:36:56Z</time></trkpt><trkpt lat="43.13296315882323" lon="11.536781186439404"><ele>279.5</ele><time>2026-04-08T10:36:57Z</time></trkpt><trkpt lat="43.13305220639283" lon="11.536664253178118"><ele>277.75</ele><time>2026-04-08T10:36:58Z</time></trkpt><trkpt lat="43.133145826676724" lon="11.53653565378642"><ele>276.0</ele><time>2026-04-08T10:36:59Z</time></trkpt><trkpt lat="43.13324061176582" lon="11.536390686824712"><ele>276.0</ele><time>2026-04-08T10:37:00Z</time></trkpt><trkpt lat="43.13332394173012" lon="11.53626245620292"><ele>276.0</ele><time>2026-04-08T10:37:01Z</time></trkpt><trkpt lat="43.13340039577347" lon="11.536142867768604"><ele>276.0</ele><time>2026-04-08T10:37:02Z</time></trkpt><trkpt lat="43.13348314422252" lon="11.5360032260667"><ele>276.0</ele><time>2026-04-08T10:37:03Z</time></trkpt><trkpt lat="43.133564007220734" lon="11.535846227811886"><ele>275.0</ele><time>2026-04-08T10:37:04Z</time></trkpt><trkpt lat="43.13364459073739" lon="11.535668120403292"><ele>274.0</ele><time>2026-04-08T10:37:05Z</time></trkpt><trkpt lat="43.13372162423146" lon="11.53548467241462"><ele>273.0</ele><time>2026-04-08T10:37:06Z</time></trkpt><trkpt lat="43.13380796548661" lon="11.535288915891252"><ele>271.3333333333333</ele><time>2026-04-08T10:37:07Z</time></trkpt><trkpt lat="43.13390406776781" lon="11.535064039719293"><ele>269.66666666666663</ele><time>2026-04-08T10:37:08Z</time></trkpt><trkpt lat="43.13399514116934" lon="11.534845528787633"><ele>268.0</ele><time>2026-04-08T10:37:09Z</time></trkpt><trkpt lat="43.13407463544766" lon="11.534662619763505"><ele>268.0</ele><time>2026-04-08T10:37:10Z</time></trkpt><trkpt lat="43.13415256028482" lon="11.53448461880515"><ele>268.0</ele><time>2026-04-08T10:37:11Z</time></trkpt><trkpt lat="43.1342377014529" lon="11.53428996745931"><ele>268.0</ele><time>2026-04-08T10:37:12Z</time></trkpt><trkpt lat="43.1343139449523" lon="11.534104269057453"><ele>268.0</ele><time>2026-04-08T10:37:13Z</time></trkpt><trkpt lat="43.134378461338166" lon="11.533935318671649"><ele>268.0</ele><time>2026-04-08T10:37:14Z</time></trkpt><trkpt lat="43.1344337644857" lon="11.533776456550196"><ele>268.0</ele><time>2026-04-08T10:37:15Z</time></trkpt><trkpt lat="43.13449012685116" lon="11.533607403132319"><ele>268.0</ele><time>2026-04-08T10:37:16Z</time></trkpt><trkpt lat="43.13453796034478" lon="11.53345828970452"><ele>267.0</ele><time>2026-04-08T10:37:17Z</time></trkpt><trkpt lat="43.13458446819897" lon="11.533311668713424"><ele>266.0</ele><time>2026-04-08T10:37:18Z</time></trkpt><trkpt lat="43.13463491723948" lon="11.533138015851106"><ele>265.0</ele><time>2026-04-08T10:37:19Z</time></trkpt><trkpt lat="43.13468855442205" lon="11.5329479343241"><ele>264.0</ele><time>2026-04-08T10:37:20Z</time></trkpt><trkpt lat="43.134735051171766" lon="11.532779301975538"><ele>263.75</ele><time>2026-04-08T10:37:21Z</time></trkpt><trkpt lat="43.13477896859416" lon="11.532616826360924"><ele>263.5</ele><time>2026-04-08T10:37:22Z</time></trkpt><trkpt lat="43.1348220661655" lon="11.532432056421664"><ele>263.25</ele><time>2026-04-08T10:37:23Z</time></trkpt><trkpt lat="43.134862569226584" lon="11.532236308277566"><ele>263.0</ele><time>2026-04-08T10:37:24Z</time></trkpt><trkpt lat="43.134902278127036" lon="11.532053016631941"><ele>265.0</ele><time>2026-04-08T10:37:25Z</time></trkpt><trkpt lat="43.134934834296736" lon="11.531889358640905"><ele>267.0</ele><time>2026-04-08T10:37:26Z</time></trkpt><trkpt lat="43.134963657888214" lon="11.531709829549378"><ele>269.0</ele><time>2026-04-08T10:37:27Z</time></trkpt><trkpt lat="43.13499432834646" lon="11.53149993649077"><ele>271.0</ele><time>2026-04-08T10:37:28Z</time></trkpt><trkpt lat="43.13502448048067" lon="11.531296772364394"><ele>271.8</ele><time>2026-04-08T10:37:29Z</time></trkpt><trkpt lat="43.135042040027706" lon="11.531132369223677"><ele>272.6</ele><time>2026-04-08T10:37:30Z</time></trkpt><trkpt lat="43.135052715333096" lon="11.530987973188086"><ele>273.4</ele><time>2026-04-08T10:37:31Z</time></trkpt><trkpt lat="43.13506392009266" lon="11.530866821261442"><ele>274.2</ele><time>2026-04-08T10:37:32Z</time></trkpt><trkpt lat="43.13507149044611" lon="11.530730725115218"><ele>275.0</ele><time>2026-04-08T10:37:33Z</time></trkpt><trkpt lat="43.13505816894731" lon="11.5305794225534"><ele>275.0</ele><time>2026-04-08T10:37:34Z</time></trkpt><trkpt lat="43.13501389454519" lon="11.530409855324272"><ele>275.0</ele><time>2026-04-08T10:37:35Z</time></trkpt><trkpt lat="43.134960133439634" lon="11.530251364181773"><ele>275.0</ele><time>2026-04-08T10:37:36Z</time></trkpt><trkpt lat="43.134909828476026" lon="11.530118279978657"><ele>275.0</ele><time>2026-04-08T10:37:37Z</time></trkpt><trkpt lat="43.134863550088106" lon="11.529997376662784"><ele>272.4</ele><time>2026-04-08T10:37:38Z</time></trkpt><trkpt lat="43.134828595905965" lon="11.529881252096471"><ele>269.8</ele><time>2026-04-08T10:37:39Z</time></trkpt><trkpt lat="43.134794163777755" lon="11.529766134887026"><ele>267.2</ele><time>2026-04-08T10:37:40Z</time></trkpt><trkpt lat="43.134748285225996" lon="11.529649216031926"><ele>264.6</ele><time>2026-04-08T10:37:41Z</time></trkpt><trkpt lat="43.134699420601144" lon="11.52951596388676"><ele>262.0</ele><time>2026-04-08T10:37:42Z</time></trkpt><trkpt lat="43.134650431432476" lon="11.52937131528795"><ele>262.0</ele><time>2026-04-08T10:37:43Z</time></trkpt><trkpt lat="43.13460667154513" lon="11.529225812058327"><ele>262.0</ele><time>2026-04-08T10:37:44Z</time></trkpt><trkpt lat="43.134559153436705" lon="11.529100465811405"><ele>262.0</ele><time>2026-04-08T10:37:45Z</time></trkpt><trkpt lat="43.13452143708373" lon="11.52898632921524"><ele>262.0</ele><time>2026-04-08T10:37:46Z</time></trkpt><trkpt lat="43.1344772122507" lon="11.528866800716791"><ele>262.0</ele><time>2026-04-08T10:37:47Z</time></trkpt><trkpt lat="43.134432614954655" lon="11.528744378214379"><ele>262.2</ele><time>2026-04-08T10:37:48Z</time></trkpt><trkpt lat="43.134397491415356" lon="11.528604312867575"><ele>262.4</ele><time>2026-04-08T10:37:49Z</time></trkpt><trkpt lat="43.13437958510877" lon="11.528476819546757"><ele>262.6</ele><time>2026-04-08T10:37:50Z</time></trkpt><trkpt lat="43.134375661869925" lon="11.528354541708664"><ele>262.8</ele><time>2026-04-08T10:37:51Z</time></trkpt><trkpt lat="43.13437979916682" lon="11.528239297760024"><ele>263.0</ele><time>2026-04-08T10:37:52Z</time></trkpt><trkpt lat="43.13438670912948" lon="11.528121276166729"><ele>263.0</ele><time>2026-04-08T10:37:53Z</time></trkpt><trkpt lat="43.13439443268006" lon="11.527984144093246"><ele>263.0</ele><time>2026-04-08T10:37:54Z</time></trkpt><trkpt lat="43.134407740605155" lon="11.527818650372579"><ele>263.0</ele><time>2026-04-08T10:37:55Z</time></trkpt><trkpt lat="43.13442202056558" lon="11.527651354808539"><ele>263.0</ele><time>2026-04-08T10:37:56Z</time></trkpt><trkpt lat="43.13443420913614" lon="11.527489949704636"><ele>262.25</ele><time>2026-04-08T10:37:57Z</time></trkpt><trkpt lat="43.134445205287314" lon="11.527354207258801"><ele>261.5</ele><time>2026-04-08T10:37:58Z</time></trkpt><trkpt lat="43.1344556174057" lon="11.52719808961659"><ele>260.75</ele><time>2026-04-08T10:37:59Z</time></trkpt><trkpt lat="43.134470683452015" lon="11.5270228210872"><ele>260.0</ele><time>2026-04-08T10:38:00Z</time></trkpt><trkpt lat="43.13448786744916" lon="11.526845248077327"><ele>258.5</ele><time>2026-04-08T10:38:01Z</time></trkpt><trkpt lat="43.134506619277666" lon="11.526656032580556"><ele>257.0</ele><time>2026-04-08T10:38:02Z</time></trkpt><trkpt lat="43.13452127655405" lon="11.526483808472962"><ele>255.5</ele><time>2026-04-08T10:38:03Z</time></trkpt><trkpt lat="43.13453494746302" lon="11.52631838311637"><ele>254.0</ele><time>2026-04-08T10:38:04Z</time></trkpt><trkpt lat="43.13454965432259" lon="11.52615989855321"><ele>253.0</ele><time>2026-04-08T10:38:05Z</time></trkpt><trkpt lat="43.13456917643299" lon="11.525998239004556"><ele>252.0</ele><time>2026-04-08T10:38:06Z</time></trkpt><trkpt lat="43.134610477252" lon="11.525831083565437"><ele>251.0</ele><time>2026-04-08T10:38:07Z</time></trkpt><trkpt lat="43.13466907321037" lon="11.525676443880162"><ele>250.0</ele><time>2026-04-08T10:38:08Z</time></trkpt><trkpt lat="43.1347326290709" lon="11.525546217321033"><ele>250.0</ele><time>2026-04-08T10:38:09Z</time></trkpt><trkpt lat="43.13479612536071" lon="11.52540804408951"><ele>250.0</ele><time>2026-04-08T10:38:10Z</time></trkpt><trkpt lat="43.13485566484293" lon="11.525245116599487"><ele>250.0</ele><time>2026-04-08T10:38:11Z</time></trkpt><trkpt lat="43.13491520616291" lon="11.52507365705576"><ele>250.0</ele><time>2026-04-08T10:38:12Z</time></trkpt><trkpt lat="43.13496148014016" lon="11.524892901205805"><ele>250.4</ele><time>2026-04-08T10:38:13Z</time></trkpt><trkpt lat="43.13500870359597" lon="11.524728497759847"><ele>250.8</ele><time>2026-04-08T10:38:14Z</time></trkpt><trkpt lat="43.135047796338384" lon="11.524583794826558"><ele>251.2</ele><time>2026-04-08T10:38:15Z</time></trkpt><trkpt lat="43.13507339701492" lon="11.52445543171528"><ele>251.6</ele><time>2026-04-08T10:38:16Z</time></trkpt><trkpt lat="43.135083525542434" lon="11.524323808416526"><ele>252.0</ele><time>2026-04-08T10:38:17Z</time></trkpt><trkpt lat="43.135085594556024" lon="11.524172628695101"><ele>252.0</ele><time>2026-04-08T10:38:18Z</time></trkpt><trkpt lat="43.135079334754785" lon="11.524010491560313"><ele>252.0</ele><time>2026-04-08T10:38:19Z</time></trkpt><trkpt lat="43.1350705183656" lon="11.52384332581478"><ele>252.0</ele><time>2026-04-08T10:38:20Z</time></trkpt><trkpt lat="43.13506551912421" lon="11.523675810063803"><ele>252.0</ele><time>2026-04-08T10:38:21Z</time></trkpt><trkpt lat="43.135052515225354" lon="11.523512934644327"><ele>250.75</ele><time>2026-04-08T10:38:22Z</time></trkpt><trkpt lat="43.13503891789912" lon="11.523328557454512"><ele>249.5</ele><time>2026-04-08T10:38:23Z</time></trkpt><trkpt lat="43.135028837826894" lon="11.523135298155394"><ele>248.25</ele><time>2026-04-08T10:38:24Z</time></trkpt><trkpt lat="43.13501870516904" lon="11.522957047967646"><ele>247.0</ele><time>2026-04-08T10:38:25Z</time></trkpt><trkpt lat="43.13500744434626" lon="11.522790165357197"><ele>245.5</ele><time>2026-04-08T10:38:26Z</time></trkpt><trkpt lat="43.13499992040268" lon="11.52262435792955"><ele>244.0</ele><time>2026-04-08T10:38:27Z</time></trkpt><trkpt lat="43.13499638579067" lon="11.522447074379034"><ele>242.5</ele><time>2026-04-08T10:38:28Z</time></trkpt><trkpt lat="43.13499593558302" lon="11.522255415087562"><ele>241.0</ele><time>2026-04-08T10:38:29Z</time></trkpt><trkpt lat="43.135003920210984" lon="11.52206421757817"><ele>240.0</ele><time>2026-04-08T10:38:30Z</time></trkpt><trkpt lat="43.13501383395271" lon="11.521890916839231"><ele>239.0</ele><time>2026-04-08T10:38:31Z</time></trkpt><trkpt lat="43.13501885367231" lon="11.521725394565935"><ele>238.0</ele><time>2026-04-08T10:38:32Z</time></trkpt><trkpt lat="43.1350203527299" lon="11.521570521586145"><ele>237.0</ele><time>2026-04-08T10:38:33Z</time></trkpt><trkpt lat="43.13501934255494" lon="11.521435086892197"><ele>237.0</ele><time>2026-04-08T10:38:34Z</time></trkpt><trkpt lat="43.135018786404466" lon="11.521292694031672"><ele>237.0</ele><time>2026-04-08T10:38:35Z</time></trkpt><trkpt lat="43.13501934260369" lon="11.521139748829064"><ele>237.0</ele><time>2026-04-08T10:38:36Z</time></trkpt><trkpt lat="43.13501648653257" lon="11.520984760809506"><ele>237.0</ele><time>2026-04-08T10:38:37Z</time></trkpt><trkpt lat="43.13501233900429" lon="11.520822828840384"><ele>237.0</ele><time>2026-04-08T10:38:38Z</time></trkpt><trkpt lat="43.13500171419598" lon="11.52065359805081"><ele>236.75</ele><time>2026-04-08T10:38:39Z</time></trkpt><trkpt lat="43.13498311010097" lon="11.520487211862163"><ele>236.5</ele><time>2026-04-08T10:38:40Z</time></trkpt><trkpt lat="43.13496000269052" lon="11.520326575945091"><ele>236.25</ele><time>2026-04-08T10:38:41Z</time></trkpt><trkpt lat="43.134928883505886" lon="11.52015939598335"><ele>236.0</ele><time>2026-04-08T10:38:42Z</time></trkpt><trkpt lat="43.13489141346872" lon="11.519987290408961"><ele>234.8</ele><time>2026-04-08T10:38:43Z</time></trkpt><trkpt lat="43.13484960254194" lon="11.519828601190289"><ele>233.60000000000002</ele><time>2026-04-08T10:38:44Z</time></trkpt><trkpt lat="43.13481041904801" lon="11.519692758352994"><ele>232.4</ele><time>2026-04-08T10:38:45Z</time></trkpt><trkpt lat="43.13477957647197" lon="11.519568845744063"><ele>231.2</ele><time>2026-04-08T10:38:46Z</time></trkpt><trkpt lat="43.134748013200614" lon="11.51943688565964"><ele>230.0</ele><time>2026-04-08T10:38:47Z</time></trkpt><trkpt lat="43.1347182002924" lon="11.519291895984496"><ele>230.0</ele><time>2026-04-08T10:38:48Z</time></trkpt><trkpt lat="43.13470094778112" lon="11.519135110947742"><ele>230.0</ele><time>2026-04-08T10:38:49Z</time></trkpt><trkpt lat="43.13468785732984" lon="11.518958259144094"><ele>230.0</ele><time>2026-04-08T10:38:50Z</time></trkpt><trkpt lat="43.134674324379546" lon="11.518774688125227"><ele>230.0</ele><time>2026-04-08T10:38:51Z</time></trkpt><trkpt lat="43.134662977623904" lon="11.518592870574848"><ele>232.6</ele><time>2026-04-08T10:38:52Z</time></trkpt><trkpt lat="43.13465851937387" lon="11.51843346713277"><ele>235.2</ele><time>2026-04-08T10:38:53Z</time></trkpt><trkpt lat="43.13466023205941" lon="11.518282065847384"><ele>237.8</ele><time>2026-04-08T10:38:54Z</time></trkpt><trkpt lat="43.13467549665995" lon="11.518141257734994"><ele>240.4</ele><time>2026-04-08T10:38:55Z</time></trkpt><trkpt lat="43.134691232419115" lon="11.518006402772334"><ele>243.0</ele><time>2026-04-08T10:38:56Z</time></trkpt><trkpt lat="43.13472259658986" lon="11.517872608226252"><ele>244.0</ele><time>2026-04-08T10:38:57Z</time></trkpt><trkpt lat="43.1347675097473" lon="11.51774239964199"><ele>245.0</ele><time>2026-04-08T10:38:58Z</time></trkpt><trkpt lat="43.134836324743524" lon="11.51763065600615"><ele>246.0</ele><time>2026-04-08T10:38:59Z</time></trkpt><trkpt lat="43.13491869003667" lon="11.517519675779058"><ele>247.0</ele><time>2026-04-08T10:39:00Z</time></trkpt><trkpt lat="43.13500215534091" lon="11.51740033869459"><ele>248.0</ele><time>2026-04-08T10:39:01Z</time></trkpt><trkpt lat="43.135085560982795" lon="11.517264562331397"><ele>246.0</ele><time>2026-04-08T10:39:02Z</time></trkpt><trkpt lat="43.13516573976444" lon="11.517124317515712"><ele>244.0</ele><time>2026-04-08T10:39:03Z</time></trkpt><trkpt lat="43.1352521072695" lon="11.516976618377468"><ele>242.0</ele><time>2026-04-08T10:39:04Z</time></trkpt><trkpt lat="43.135334210543846" lon="11.516837185831196"><ele>240.0</ele><time>2026-04-08T10:39:05Z</time></trkpt><trkpt lat="43.13541026259477" lon="11.516709535872737"><ele>240.0</ele><time>2026-04-08T10:39:06Z</time></trkpt><trkpt lat="43.135489379274745" lon="11.516567911379873"><ele>240.0</ele><time>2026-04-08T10:39:07Z</time></trkpt><trkpt lat="43.13557164730863" lon="11.516422465078103"><ele>240.0</ele><time>2026-04-08T10:39:08Z</time></trkpt><trkpt lat="43.13565294497366" lon="11.516284474644666"><ele>240.0</ele><time>2026-04-08T10:39:09Z</time></trkpt><trkpt lat="43.13573037738458" lon="11.516156297101503"><ele>237.8</ele><time>2026-04-08T10:39:10Z</time></trkpt><trkpt lat="43.13581214415677" lon="11.516048285693529"><ele>235.6</ele><time>2026-04-08T10:39:11Z</time></trkpt><trkpt lat="43.135901572648805" lon="11.515957457462282"><ele>233.39999999999998</ele><time>2026-04-08T10:39:12Z</time></trkpt><trkpt lat="43.13599971213153" lon="11.51587687539908"><ele>231.2</ele><time>2026-04-08T10:39:13Z</time></trkpt><trkpt lat="43.136082640625474" lon="11.515803926097039"><ele>229.0</ele><time>2026-04-08T10:39:14Z</time></trkpt><trkpt lat="43.13615414145083" lon="11.515716626916806"><ele>229.0</ele><time>2026-04-08T10:39:15Z</time></trkpt><trkpt lat="43.13622376479805" lon="11.515617262300994"><ele>228.99999999999997</ele><time>2026-04-08T10:39:16Z</time></trkpt><trkpt lat="43.13627129400192" lon="11.515500840753715"><ele>228.99999999999997</ele><time>2026-04-08T10:39:17Z</time></trkpt><trkpt lat="43.13630551031718" lon="11.51536921561858"><ele>229.0</ele><time>2026-04-08T10:39:18Z</time></trkpt><trkpt lat="43.136328293312" lon="11.515228815848142"><ele>229.0</ele><time>2026-04-08T10:39:19Z</time></trkpt><trkpt lat="43.136340438837365" lon="11.515087378335128"><ele>229.0</ele><time>2026-04-08T10:39:20Z</time></trkpt><trkpt lat="43.13634014166838" lon="11.51493866392742"><ele>229.0</ele><time>2026-04-08T10:39:21Z</time></trkpt><trkpt lat="43.13632777444484" lon="11.514777183423863"><ele>229.0</ele><time>2026-04-08T10:39:22Z</time></trkpt><trkpt lat="43.13630618456627" lon="11.514616985107116"><ele>229.0</ele><time>2026-04-08T10:39:23Z</time></trkpt><trkpt lat="43.13625866462097" lon="11.51446565514067"><ele>229.0</ele><time>2026-04-08T10:39:24Z</time></trkpt><trkpt lat="43.1361935579132" lon="11.514310635720916"><ele>229.0</ele><time>2026-04-08T10:39:25Z</time></trkpt><trkpt lat="43.13611253100762" lon="11.514158008366664"><ele>229.0</ele><time>2026-04-08T10:39:26Z</time></trkpt><trkpt lat="43.1360284487904" lon="11.514004309758372"><ele>229.0</ele><time>2026-04-08T10:39:27Z</time></trkpt><trkpt lat="43.13594661858907" lon="11.513846886535962"><ele>227.25</ele><time>2026-04-08T10:39:28Z</time></trkpt><trkpt lat="43.135871733775325" lon="11.513692222589352"><ele>225.5</ele><time>2026-04-08T10:39:29Z</time></trkpt><trkpt lat="43.13580078252876" lon="11.513538952711398"><ele>223.75</ele><time>2026-04-08T10:39:30Z</time></trkpt><trkpt lat="43.13574026468056" lon="11.513395708582836"><ele>222.0</ele><time>2026-04-08T10:39:31Z</time></trkpt><trkpt lat="43.135678287674985" lon="11.513247681795358"><ele>222.0</ele><time>2026-04-08T10:39:32Z</time></trkpt><trkpt lat="43.13561362887028" lon="11.513084249851131"><ele>222.0</ele><time>2026-04-08T10:39:33Z</time></trkpt><trkpt lat="43.13555183623834" lon="11.512902808844226"><ele>222.0</ele><time>2026-04-08T10:39:34Z</time></trkpt><trkpt lat="43.135502495165575" lon="11.512713816139696"><ele>222.0</ele><time>2026-04-08T10:39:35Z</time></trkpt><trkpt lat="43.13544964956129" lon="11.5125280252382"><ele>223.25</ele><time>2026-04-08T10:39:36Z</time></trkpt><trkpt lat="43.13539222492634" lon="11.512365937536213"><ele>224.5</ele><time>2026-04-08T10:39:37Z</time></trkpt><trkpt lat="43.135320791260824" lon="11.512216346082466"><ele>225.75</ele><time>2026-04-08T10:39:38Z</time></trkpt><trkpt lat="43.135237629974114" lon="11.512065722789496"><ele>227.0</ele><time>2026-04-08T10:39:39Z</time></trkpt><trkpt lat="43.13514371325939" lon="11.511910106166097"><ele>228.0</ele><time>2026-04-08T10:39:40Z</time></trkpt><trkpt lat="43.135055396618135" lon="11.511760312978536"><ele>229.0</ele><time>2026-04-08T10:39:41Z</time></trkpt><trkpt lat="43.134966075758314" lon="11.511604829742009"><ele>230.0</ele><time>2026-04-08T10:39:42Z</time></trkpt><trkpt lat="43.134886990956936" lon="11.511445723206444"><ele>231.0</ele><time>2026-04-08T10:39:43Z</time></trkpt><trkpt lat="43.13482786009328" lon="11.511314089587769"><ele>232.33333333333334</ele><time>2026-04-08T10:39:44Z</time></trkpt><trkpt lat="43.13477320402903" lon="11.511191407742423"><ele>233.66666666666669</ele><time>2026-04-08T10:39:45Z</time></trkpt><trkpt lat="43.13472049872402" lon="11.511079479265215"><ele>235.0</ele><time>2026-04-08T10:39:46Z</time></trkpt><trkpt lat="43.13467971521479" lon="11.510978537236069"><ele>236.33333333333334</ele><time>2026-04-08T10:39:47Z</time></trkpt><trkpt lat="43.13464515979316" lon="11.510895426929308"><ele>237.66666666666669</ele><time>2026-04-08T10:39:48Z</time></trkpt><trkpt lat="43.134612300369014" lon="11.510819168967638"><ele>239.0</ele><time>2026-04-08T10:39:49.001Z</time></trkpt><trkpt lat="43.13456618017126" lon="11.51071277917577"><ele>239.00000000000003</ele><time>2026-04-08T10:39:51.001Z</time></trkpt><trkpt lat="43.1345296299836" lon="11.510631495234303"><ele>239.0</ele><time>2026-04-08T10:40:06.001Z</time></trkpt><trkpt lat="43.134466351634956" lon="11.510498574189644"><ele>239.0</ele><time>2026-04-08T10:40:08.001Z</time></trkpt><trkpt lat="43.13442588057575" lon="11.510408405272827"><ele>239.0</ele><time>2026-04-08T10:40:09.001Z</time></trkpt><trkpt lat="43.13438164936909" lon="11.510316115399762"><ele>239.00000000000003</ele><time>2026-04-08T10:40:10.001Z</time></trkpt><trkpt lat="43.134337549906746" lon="11.510226168893071"><ele>239.0</ele><time>2026-04-08T10:40:11.001Z</time></trkpt><trkpt lat="43.13429138951218" lon="11.510139334447668"><ele>238.16666666666669</ele><time>2026-04-08T10:40:12.001Z</time></trkpt><trkpt lat="43.13424701924955" lon="11.510050430921156"><ele>237.33333333333334</ele><time>2026-04-08T10:40:13.001Z</time></trkpt><trkpt lat="43.13420709890033" lon="11.509956521495827"><ele>236.5</ele><time>2026-04-08T10:40:14.001Z</time></trkpt><trkpt lat="43.13416687030317" lon="11.509862283504724"><ele>235.66666666666669</ele><time>2026-04-08T10:40:15.001Z</time></trkpt><trkpt lat="43.13412558008824" lon="11.509770909345555"><ele>234.83333333333334</ele><time>2026-04-08T10:40:16.001Z</time></trkpt><trkpt lat="43.134086311977704" lon="11.509679180375366"><ele>234.0</ele><time>2026-04-08T10:40:17.001Z</time></trkpt><trkpt lat="43.134042003971636" lon="11.509580004953712"><ele>232.0</ele><time>2026-04-08T10:40:18.001Z</time></trkpt><trkpt lat="43.13398558739004" lon="11.509461966667864"><ele>230.0</ele><time>2026-04-08T10:40:19.001Z</time></trkpt><trkpt lat="43.13392658160207" lon="11.509333369419108"><ele>228.0</ele><time>2026-04-08T10:40:20.001Z</time></trkpt><trkpt lat="43.13386924918953" lon="11.509183264836862"><ele>226.0</ele><time>2026-04-08T10:40:21Z</time></trkpt><trkpt lat="43.13381580291256" lon="11.50902013661008"><ele>226.0</ele><time>2026-04-08T10:40:22Z</time></trkpt><trkpt lat="43.13378230527164" lon="11.508864258860655"><ele>226.0</ele><time>2026-04-08T10:40:23Z</time></trkpt><trkpt lat="43.133752433204116" lon="11.508717098502961"><ele>226.0</ele><time>2026-04-08T10:40:24Z</time></trkpt><trkpt lat="43.13371473423595" lon="11.508578161471535"><ele>226.0</ele><time>2026-04-08T10:40:25Z</time></trkpt><trkpt lat="43.13366974435472" lon="11.508429225488507"><ele>224.5</ele><time>2026-04-08T10:40:26Z</time></trkpt><trkpt lat="43.13363608387564" lon="11.508251799100588"><ele>223.0</ele><time>2026-04-08T10:40:27Z</time></trkpt><trkpt lat="43.1336059902118" lon="11.508090067576044"><ele>221.5</ele><time>2026-04-08T10:40:28Z</time></trkpt><trkpt lat="43.13358017130858" lon="11.507934361158236"><ele>220.0</ele><time>2026-04-08T10:40:29Z</time></trkpt><trkpt lat="43.133568290848814" lon="11.507762324925391"><ele>218.5</ele><time>2026-04-08T10:40:30Z</time></trkpt><trkpt lat="43.13356845333298" lon="11.507579361800854"><ele>217.0</ele><time>2026-04-08T10:40:31Z</time></trkpt><trkpt lat="43.13357150826144" lon="11.50738475222213"><ele>215.5</ele><time>2026-04-08T10:40:32Z</time></trkpt><trkpt lat="43.133592787601906" lon="11.507197199055328"><ele>214.0</ele><time>2026-04-08T10:40:33Z</time></trkpt><trkpt lat="43.13361277976263" lon="11.507009183327852"><ele>213.5</ele><time>2026-04-08T10:40:34Z</time></trkpt><trkpt lat="43.13363506714828" lon="11.506825272991613"><ele>213.0</ele><time>2026-04-08T10:40:35Z</time></trkpt><trkpt lat="43.133656723394594" lon="11.50664624844389"><ele>212.5</ele><time>2026-04-08T10:40:36Z</time></trkpt><trkpt lat="43.13367997069586" lon="11.506466727023415"><ele>212.0</ele><time>2026-04-08T10:40:37Z</time></trkpt><trkpt lat="43.13370341230242" lon="11.506277433666986"><ele>211.0</ele><time>2026-04-08T10:40:38Z</time></trkpt><trkpt lat="43.13373264460955" lon="11.50607986194079"><ele>210.0</ele><time>2026-04-08T10:40:39Z</time></trkpt><trkpt lat="43.13376040337981" lon="11.505869196947508"><ele>209.0</ele><time>2026-04-08T10:40:40Z</time></trkpt><trkpt lat="43.13378597240071" lon="11.505649959055077"><ele>209.0</ele><time>2026-04-08T10:40:41Z</time></trkpt><trkpt lat="43.13381126493206" lon="11.505429143732544"><ele>209.0</ele><time>2026-04-08T10:40:42Z</time></trkpt><trkpt lat="43.133834571298905" lon="11.505228618271214"><ele>209.0</ele><time>2026-04-08T10:40:43Z</time></trkpt><trkpt lat="43.133856703056786" lon="11.505048438792985"><ele>209.0</ele><time>2026-04-08T10:40:44Z</time></trkpt><trkpt lat="43.1338778667558" lon="11.504878832034695"><ele>209.5</ele><time>2026-04-08T10:40:45Z</time></trkpt><trkpt lat="43.13389759192219" lon="11.504715027839982"><ele>210.0</ele><time>2026-04-08T10:40:46Z</time></trkpt><trkpt lat="43.133916582404424" lon="11.504553745824635"><ele>210.5</ele><time>2026-04-08T10:40:47Z</time></trkpt><trkpt lat="43.133935991701726" lon="11.50440326346776"><ele>211.0</ele><time>2026-04-08T10:40:48Z</time></trkpt><trkpt lat="43.133962054838925" lon="11.504246652221745"><ele>211.5</ele><time>2026-04-08T10:40:49Z</time></trkpt><trkpt lat="43.13398667070016" lon="11.504076572509037"><ele>212.0</ele><time>2026-04-08T10:40:50Z</time></trkpt><trkpt lat="43.13401473536694" lon="11.50386978231476"><ele>212.5</ele><time>2026-04-08T10:40:51Z</time></trkpt><trkpt lat="43.13404996158857" lon="11.503661160234625"><ele>213.0</ele><time>2026-04-08T10:40:52Z</time></trkpt><trkpt lat="43.134087705329115" lon="11.503471432501915"><ele>212.0</ele><time>2026-04-08T10:40:53Z</time></trkpt><trkpt lat="43.1341251042329" lon="11.503288820992088"><ele>211.0</ele><time>2026-04-08T10:40:54Z</time></trkpt><trkpt lat="43.13415955208557" lon="11.503116066477098"><ele>210.0</ele><time>2026-04-08T10:40:55Z</time></trkpt><trkpt lat="43.13419549635531" lon="11.502949862374521"><ele>209.0</ele><time>2026-04-08T10:40:56Z</time></trkpt><trkpt lat="43.13423184962858" lon="11.502794227407076"><ele>207.25</ele><time>2026-04-08T10:40:57Z</time></trkpt><trkpt lat="43.13426441254126" lon="11.502639640721863"><ele>205.5</ele><time>2026-04-08T10:40:58Z</time></trkpt><trkpt lat="43.13429806528247" lon="11.502484129989558"><ele>203.75</ele><time>2026-04-08T10:40:59Z</time></trkpt><trkpt lat="43.13432855567519" lon="11.502324555125462"><ele>202.0</ele><time>2026-04-08T10:41:00Z</time></trkpt><trkpt lat="43.13435514135032" lon="11.50216526891472"><ele>200.0</ele><time>2026-04-08T10:41:01Z</time></trkpt><trkpt lat="43.134386229791254" lon="11.501990024271755"><ele>198.0</ele><time>2026-04-08T10:41:02Z</time></trkpt><trkpt lat="43.13442422691686" lon="11.501795740991009"><ele>196.0</ele><time>2026-04-08T10:41:03Z</time></trkpt><trkpt lat="43.134460237874315" lon="11.501616070144285"><ele>194.0</ele><time>2026-04-08T10:41:04Z</time></trkpt><trkpt lat="43.13449478433358" lon="11.50144384940826"><ele>194.0</ele><time>2026-04-08T10:41:05Z</time></trkpt><trkpt lat="43.134521251407335" lon="11.501275535783384"><ele>194.0</ele><time>2026-04-08T10:41:06Z</time></trkpt><trkpt lat="43.1345510601" lon="11.50108946006914"><ele>194.0</ele><time>2026-04-08T10:41:07Z</time></trkpt><trkpt lat="43.134589071768424" lon="11.500902644547864"><ele>194.0</ele><time>2026-04-08T10:41:08Z</time></trkpt><trkpt lat="43.134625009715016" lon="11.500722758761995"><ele>191.75</ele><time>2026-04-08T10:41:09Z</time></trkpt><trkpt lat="43.13466392550284" lon="11.500541714599812"><ele>189.5</ele><time>2026-04-08T10:41:10Z</time></trkpt><trkpt lat="43.13470437249785" lon="11.500361715080878"><ele>187.25</ele><time>2026-04-08T10:41:11Z</time></trkpt><trkpt lat="43.134741175386125" lon="11.500174508469401"><ele>185.0</ele><time>2026-04-08T10:41:12Z</time></trkpt><trkpt lat="43.13478142719023" lon="11.499993724080447"><ele>182.75</ele><time>2026-04-08T10:41:13Z</time></trkpt><trkpt lat="43.1348239530186" lon="11.499814299957439"><ele>180.5</ele><time>2026-04-08T10:41:14Z</time></trkpt><trkpt lat="43.13486793281761" lon="11.499632834556106"><ele>178.25</ele><time>2026-04-08T10:41:15Z</time></trkpt><trkpt lat="43.13491815503267" lon="11.499434293893202"><ele>176.0</ele><time>2026-04-08T10:41:16Z</time></trkpt><trkpt lat="43.13497592924558" lon="11.499219118733636"><ele>173.66666666666666</ele><time>2026-04-08T10:41:17Z</time></trkpt><trkpt lat="43.1350442514796" lon="11.499014031064027"><ele>171.33333333333334</ele><time>2026-04-08T10:41:18Z</time></trkpt><trkpt lat="43.13511288616424" lon="11.4988025527952"><ele>169.0</ele><time>2026-04-08T10:41:19Z</time></trkpt><trkpt lat="43.13518689897066" lon="11.498573330867112"><ele>167.25</ele><time>2026-04-08T10:41:20Z</time></trkpt><trkpt lat="43.135224162479055" lon="11.498441907379663"><ele>165.5</ele><time>2026-04-08T10:41:21Z</time></trkpt><trkpt lat="43.13528204973844" lon="11.498246292751002"><ele>163.75</ele><time>2026-04-08T10:41:22Z</time></trkpt><trkpt lat="43.13534827415113" lon="11.498033111160902"><ele>162.0</ele><time>2026-04-08T10:41:23Z</time></trkpt><trkpt lat="43.13540901565221" lon="11.497838794797635"><ele>161.75</ele><time>2026-04-08T10:41:24Z</time></trkpt><trkpt lat="43.135464833489515" lon="11.497664131629362"><ele>161.5</ele><time>2026-04-08T10:41:25Z</time></trkpt><trkpt lat="43.135525758495135" lon="11.497495240139092"><ele>161.25</ele><time>2026-04-08T10:41:26Z</time></trkpt><trkpt lat="43.13559705519465" lon="11.497326730030602"><ele>161.0</ele><time>2026-04-08T10:41:27Z</time></trkpt><trkpt lat="43.13568180945494" lon="11.497149018403048"><ele>161.33333333333331</ele><time>2026-04-08T10:41:28Z</time></trkpt><trkpt lat="43.13578076747394" lon="11.496966844395939"><ele>161.66666666666666</ele><time>2026-04-08T10:41:29Z</time></trkpt><trkpt lat="43.13588638701256" lon="11.496785834625246"><ele>162.0</ele><time>2026-04-08T10:41:30Z</time></trkpt><trkpt lat="43.135997934623084" lon="11.496593283095748"><ele>162.0</ele><time>2026-04-08T10:41:31Z</time></trkpt><trkpt lat="43.1361074238162" lon="11.496413747384134"><ele>162.0</ele><time>2026-04-08T10:41:32Z</time></trkpt><trkpt lat="43.13623771766747" lon="11.496210499621526"><ele>162.0</ele><time>2026-04-08T10:41:33Z</time></trkpt><trkpt lat="43.13635516845389" lon="11.496024674129448"><ele>162.33333333333334</ele><time>2026-04-08T10:41:34Z</time></trkpt><trkpt lat="43.136459162328386" lon="11.495851574542936"><ele>162.66666666666669</ele><time>2026-04-08T10:41:35Z</time></trkpt><trkpt lat="43.136563542152096" lon="11.4956711653835"><ele>163.0</ele><time>2026-04-08T10:41:36Z</time></trkpt><trkpt lat="43.136669116784134" lon="11.495478097855788"><ele>164.33333333333334</ele><time>2026-04-08T10:41:37Z</time></trkpt><trkpt lat="43.136775262717535" lon="11.495299525625404"><ele>165.66666666666666</ele><time>2026-04-08T10:41:38Z</time></trkpt><trkpt lat="43.136870997052476" lon="11.495131095372008"><ele>167.0</ele><time>2026-04-08T10:41:39Z</time></trkpt><trkpt lat="43.1369719657404" lon="11.494956498767861"><ele>167.0</ele><time>2026-04-08T10:41:40Z</time></trkpt><trkpt lat="43.13707731284198" lon="11.494773962756904"><ele>167.0</ele><time>2026-04-08T10:41:41Z</time></trkpt><trkpt lat="43.13718024772502" lon="11.49460175550949"><ele>167.0</ele><time>2026-04-08T10:41:42Z</time></trkpt><trkpt lat="43.13726985899232" lon="11.494449722485102"><ele>166.5</ele><time>2026-04-08T10:41:43Z</time></trkpt><trkpt lat="43.13735141008929" lon="11.494311331201"><ele>166.0</ele><time>2026-04-08T10:41:44Z</time></trkpt><trkpt lat="43.137420646135816" lon="11.49416557852371"><ele>165.5</ele><time>2026-04-08T10:41:45Z</time></trkpt><trkpt lat="43.13745228753148" lon="11.493980345369042"><ele>165.0</ele><time>2026-04-08T10:41:46Z</time></trkpt><trkpt lat="43.13748052123805" lon="11.493776598531394"><ele>166.33333333333334</ele><time>2026-04-08T10:41:47Z</time></trkpt><trkpt lat="43.137520015577856" lon="11.493558611053201"><ele>167.66666666666669</ele><time>2026-04-08T10:41:48Z</time></trkpt><trkpt lat="43.137537706878305" lon="11.493326564056142"><ele>169.0</ele><time>2026-04-08T10:41:49Z</time></trkpt><trkpt lat="43.137561424828085" lon="11.493082621831102"><ele>169.66666666666669</ele><time>2026-04-08T10:41:50Z</time></trkpt><trkpt lat="43.137587040453504" lon="11.492822045518965"><ele>170.33333333333334</ele><time>2026-04-08T10:41:51Z</time></trkpt><trkpt lat="43.13761669814171" lon="11.4925400197002"><ele>171.0</ele><time>2026-04-08T10:41:52Z</time></trkpt><trkpt lat="43.13764199233088" lon="11.492270978614725"><ele>172.75</ele><time>2026-04-08T10:41:53Z</time></trkpt><trkpt lat="43.13767536136184" lon="11.492049848313059"><ele>174.5</ele><time>2026-04-08T10:41:54Z</time></trkpt><trkpt lat="43.13769039849292" lon="11.491851629317706"><ele>176.25</ele><time>2026-04-08T10:41:55Z</time></trkpt><trkpt lat="43.13771551706218" lon="11.491678986376787"><ele>178.0</ele><time>2026-04-08T10:41:56Z</time></trkpt><trkpt lat="43.137739441098745" lon="11.491524342691017"><ele>178.0</ele><time>2026-04-08T10:41:57Z</time></trkpt><trkpt lat="43.137759127363914" lon="11.491382143339587"><ele>178.0</ele><time>2026-04-08T10:41:58Z</time></trkpt><trkpt lat="43.13777554529465" lon="11.491252991072166"><ele>178.0</ele><time>2026-04-08T10:41:59Z</time></trkpt><trkpt lat="43.13779034777691" lon="11.491110250524018"><ele>178.0</ele><time>2026-04-08T10:42:00Z</time></trkpt><trkpt lat="43.13781227152494" lon="11.490948538280502"><ele>178.0</ele><time>2026-04-08T10:42:01Z</time></trkpt><trkpt lat="43.13782354800974" lon="11.490816869954037"><ele>177.8</ele><time>2026-04-08T10:42:02Z</time></trkpt><trkpt lat="43.137825278966474" lon="11.490703346970971"><ele>177.60000000000002</ele><time>2026-04-08T10:42:03Z</time></trkpt><trkpt lat="43.1378207578648" lon="11.490597250548916"><ele>177.39999999999998</ele><time>2026-04-08T10:42:04Z</time></trkpt><trkpt lat="43.13780788646099" lon="11.490482011005724"><ele>177.2</ele><time>2026-04-08T10:42:05Z</time></trkpt><trkpt lat="43.13779756832688" lon="11.490349825837452"><ele>177.0</ele><time>2026-04-08T10:42:06.001Z</time></trkpt><trkpt lat="43.13778455560527" lon="11.490202163864184"><ele>177.0</ele><time>2026-04-08T10:42:07.001Z</time></trkpt><trkpt lat="43.13776793191149" lon="11.49005578618571"><ele>177.0</ele><time>2026-04-08T10:42:08.001Z</time></trkpt><trkpt lat="43.13775570413453" lon="11.489901871353355"><ele>177.0</ele><time>2026-04-08T10:42:09.001Z</time></trkpt><trkpt lat="43.137742195067204" lon="11.489750422192913"><ele>177.0</ele><time>2026-04-08T10:42:10.001Z</time></trkpt><trkpt lat="43.13773357069886" lon="11.489588043329915"><ele>174.0</ele><time>2026-04-08T10:42:11.001Z</time></trkpt><trkpt lat="43.13772708164825" lon="11.489420190123406"><ele>171.0</ele><time>2026-04-08T10:42:12.001Z</time></trkpt><trkpt lat="43.137718397685674" lon="11.489258179703285"><ele>168.0</ele><time>2026-04-08T10:42:13.001Z</time></trkpt><trkpt lat="43.137715217265836" lon="11.489107939563187"><ele>165.0</ele><time>2026-04-08T10:42:14.001Z</time></trkpt><trkpt lat="43.13771280385747" lon="11.488960362787129"><ele>165.0</ele><time>2026-04-08T10:42:15.001Z</time></trkpt><trkpt lat="43.13770777252568" lon="11.488828068769335"><ele>165.0</ele><time>2026-04-08T10:42:16.001Z</time></trkpt><trkpt lat="43.13770634330835" lon="11.488701481994257"><ele>165.0</ele><time>2026-04-08T10:42:17.001Z</time></trkpt><trkpt lat="43.13769588091055" lon="11.488577401450875"><ele>165.0</ele><time>2026-04-08T10:42:18.001Z</time></trkpt><trkpt lat="43.13769311414345" lon="11.488453865870314"><ele>165.0</ele><time>2026-04-08T10:42:19.001Z</time></trkpt><trkpt lat="43.137692031949896" lon="11.488333010491395"><ele>163.33333333333334</ele><time>2026-04-08T10:42:20.001Z</time></trkpt><trkpt lat="43.13769196260126" lon="11.48820870985064"><ele>161.66666666666666</ele><time>2026-04-08T10:42:21.001Z</time></trkpt><trkpt lat="43.137690439329425" lon="11.488079078865441"><ele>160.0</ele><time>2026-04-08T10:42:22.001Z</time></trkpt><trkpt lat="43.137689022999425" lon="11.48795529919441"><ele>158.33333333333331</ele><time>2026-04-08T10:42:23.001Z</time></trkpt><trkpt lat="43.13768941346298" lon="11.487838287365541"><ele>156.66666666666666</ele><time>2026-04-08T10:42:24.001Z</time></trkpt><trkpt lat="43.137686260634176" lon="11.487740939807457"><ele>155.0</ele><time>2026-04-08T10:42:25.001Z</time></trkpt><trkpt lat="43.13769199619648" lon="11.48765212612779"><ele>154.2</ele><time>2026-04-08T10:42:26.001Z</time></trkpt><trkpt lat="43.137693757803866" lon="11.487465867000203"><ele>153.4</ele><time>2026-04-08T10:42:28.001Z</time></trkpt><trkpt lat="43.137692001265464" lon="11.487364889985338"><ele>152.6</ele><time>2026-04-08T10:42:29.001Z</time></trkpt><trkpt lat="43.13768982240086" lon="11.487247344863967"><ele>151.8</ele><time>2026-04-08T10:42:30.001Z</time></trkpt><trkpt lat="43.137692765682544" lon="11.487127650498792"><ele>151.0</ele><time>2026-04-08T10:42:31.001Z</time></trkpt><trkpt lat="43.13769694083896" lon="11.487019174852405"><ele>150.5</ele><time>2026-04-08T10:42:32.001Z</time></trkpt><trkpt lat="43.137699429392754" lon="11.486915447502245"><ele>150.0</ele><time>2026-04-08T10:42:33.001Z</time></trkpt><trkpt lat="43.137698957964304" lon="11.486804623305016"><ele>149.5</ele><time>2026-04-08T10:42:34.001Z</time></trkpt><trkpt lat="43.1376973996459" lon="11.48668407438164"><ele>149.0</ele><time>2026-04-08T10:42:35.001Z</time></trkpt><trkpt lat="43.137697844538" lon="11.486562745350215"><ele>148.5</ele><time>2026-04-08T10:42:36.001Z</time></trkpt><trkpt lat="43.13770338792272" lon="11.486460079836782"><ele>148.0</ele><time>2026-04-08T10:42:37.001Z</time></trkpt><trkpt lat="43.13770380880572" lon="11.486346153052086"><ele>148.0</ele><time>2026-04-08T10:42:38.001Z</time></trkpt><trkpt lat="43.13770261619095" lon="11.486237498620511"><ele>148.0</ele><time>2026-04-08T10:42:39.001Z</time></trkpt><trkpt lat="43.13770324385106" lon="11.486142981409696"><ele>148.0</ele><time>2026-04-08T10:42:40.001Z</time></trkpt><trkpt lat="43.13770524733155" lon="11.485982060257328"><ele>148.0</ele><time>2026-04-08T10:42:42.001Z</time></trkpt><trkpt lat="43.13770922498057" lon="11.485892946377882"><ele>148.0</ele><time>2026-04-08T10:42:44.001Z</time></trkpt><trkpt lat="43.13764866217588" lon="11.485797594943032"><ele>148.0</ele><time>2026-04-08T10:42:57Z</time></trkpt><trkpt lat="43.13758187191129" lon="11.48578945288245"><ele>148.0</ele><time>2026-04-08T10:42:59Z</time></trkpt><trkpt lat="43.13752312557441" lon="11.485753308791018"><ele>148.0</ele><time>2026-04-08T10:47:10Z</time></trkpt><trkpt lat="43.1374146368916" lon="11.485788418890094"><ele>148.0</ele><time>2026-04-08T10:47:17Z</time></trkpt><trkpt lat="43.137279132308436" lon="11.485797662661867"><ele>148.0</ele><time>2026-04-08T10:47:19Z</time></trkpt><trkpt lat="43.137192560198635" lon="11.485796907213166"><ele>148.0</ele><time>2026-04-08T10:47:20Z</time></trkpt><trkpt lat="43.137113591287374" lon="11.485793374446578"><ele>147.6</ele><time>2026-04-08T10:47:21Z</time></trkpt><trkpt lat="43.13702808492391" lon="11.485791528467875"><ele>147.20000000000002</ele><time>2026-04-08T10:47:22Z</time></trkpt><trkpt lat="43.13693007127836" lon="11.485790934079354"><ele>146.8</ele><time>2026-04-08T10:47:23Z</time></trkpt><trkpt lat="43.136839534246775" lon="11.485788700644958"><ele>146.4</ele><time>2026-04-08T10:47:24Z</time></trkpt><trkpt lat="43.13673868145778" lon="11.485788884479925"><ele>146.0</ele><time>2026-04-08T10:47:25Z</time></trkpt><trkpt lat="43.136645597058696" lon="11.485788116515444"><ele>146.2</ele><time>2026-04-08T10:47:26Z</time></trkpt><trkpt lat="43.13655206058094" lon="11.485784904353356"><ele>146.39999999999998</ele><time>2026-04-08T10:47:27Z</time></trkpt><trkpt lat="43.136453978546506" lon="11.485780718330696"><ele>146.6</ele><time>2026-04-08T10:47:28Z</time></trkpt><trkpt lat="43.13635242498963" lon="11.485780715297624"><ele>146.79999999999998</ele><time>2026-04-08T10:47:29Z</time></trkpt><trkpt lat="43.13625268582117" lon="11.485783437136005"><ele>147.0</ele><time>2026-04-08T10:47:30Z</time></trkpt><trkpt lat="43.13615531703901" lon="11.485783519908818"><ele>147.0</ele><time>2026-04-08T10:47:31Z</time></trkpt><trkpt lat="43.13606323102531" lon="11.485783572275738"><ele>147.0</ele><time>2026-04-08T10:47:32Z</time></trkpt><trkpt lat="43.135972962540514" lon="11.485781647224421"><ele>147.0</ele><time>2026-04-08T10:47:33Z</time></trkpt><trkpt lat="43.13587726820577" lon="11.485774779773065"><ele>147.0</ele><time>2026-04-08T10:47:34Z</time></trkpt><trkpt lat="43.135768649867885" lon="11.485770092041381"><ele>147.0</ele><time>2026-04-08T10:47:35Z</time></trkpt><trkpt lat="43.13566303376206" lon="11.485767492551357"><ele>147.0</ele><time>2026-04-08T10:47:36Z</time></trkpt><trkpt lat="43.1355662265152" lon="11.485760947715487"><ele>147.0</ele><time>2026-04-08T10:47:37Z</time></trkpt><trkpt lat="43.13547247473605" lon="11.485754278160337"><ele>147.0</ele><time>2026-04-08T10:47:38Z</time></trkpt><trkpt lat="43.135386583637555" lon="11.485755649442137"><ele>147.0</ele><time>2026-04-08T10:47:39Z</time></trkpt><trkpt lat="43.13529871569967" lon="11.485751295913525"><ele>147.0</ele><time>2026-04-08T10:47:40Z</time></trkpt><trkpt lat="43.13521181445477" lon="11.485746184625135"><ele>147.0</ele><time>2026-04-08T10:47:41Z</time></trkpt><trkpt lat="43.13512532100856" lon="11.48574248385289"><ele>147.0</ele><time>2026-04-08T10:47:42Z</time></trkpt><trkpt lat="43.13505387320976" lon="11.48573942891524"><ele>147.0</ele><time>2026-04-08T10:47:43Z</time></trkpt><trkpt lat="43.13493603974989" lon="11.485717438947262"><ele>147.0</ele><time>2026-04-08T10:47:45Z</time></trkpt><trkpt lat="43.13482141206589" lon="11.485641973991177"><ele>147.0</ele><time>2026-04-08T10:47:47Z</time></trkpt><trkpt lat="43.13474449507706" lon="11.485613735397127"><ele>147.2</ele><time>2026-04-08T10:47:48Z</time></trkpt><trkpt lat="43.13468028804298" lon="11.485511918128674"><ele>147.39999999999998</ele><time>2026-04-08T10:47:49Z</time></trkpt><trkpt lat="43.13466533774701" lon="11.485342280716784"><ele>147.60000000000002</ele><time>2026-04-08T10:47:50Z</time></trkpt><trkpt lat="43.13463260372727" lon="11.48521539870106"><ele>147.8</ele><time>2026-04-08T10:47:51Z</time></trkpt><trkpt lat="43.13459782010121" lon="11.485080572282083"><ele>148.0</ele><time>2026-04-08T10:47:52Z</time></trkpt><trkpt lat="43.13454668513253" lon="11.484945898033256"><ele>147.5</ele><time>2026-04-08T10:47:53Z</time></trkpt><trkpt lat="43.13451091242758" lon="11.484798502361585"><ele>147.0</ele><time>2026-04-08T10:47:54Z</time></trkpt><trkpt lat="43.13447064536097" lon="11.484649891779751"><ele>146.5</ele><time>2026-04-08T10:47:55Z</time></trkpt><trkpt lat="43.13443040837284" lon="11.484501711320696"><ele>146.0</ele><time>2026-04-08T10:47:56Z</time></trkpt><trkpt lat="43.13439252541318" lon="11.484357089629569"><ele>145.83333333333331</ele><time>2026-04-08T10:47:57Z</time></trkpt><trkpt lat="43.13435785752005" lon="11.484228810621309"><ele>145.66666666666666</ele><time>2026-04-08T10:47:58Z</time></trkpt><trkpt lat="43.134326511473795" lon="11.484114572083094"><ele>145.5</ele><time>2026-04-08T10:47:59Z</time></trkpt><trkpt lat="43.134311700310924" lon="11.483998691172756"><ele>145.33333333333334</ele><time>2026-04-08T10:48:00Z</time></trkpt><trkpt lat="43.134270786648216" lon="11.483900937416259"><ele>145.16666666666669</ele><time>2026-04-08T10:48:01Z</time></trkpt><trkpt lat="43.13423980445047" lon="11.483789113239316"><ele>145.0</ele><time>2026-04-08T10:48:02Z</time></trkpt><trkpt lat="43.13420872931329" lon="11.48367023262248"><ele>145.0</ele><time>2026-04-08T10:48:03Z</time></trkpt><trkpt lat="43.13417945381287" lon="11.4835533278763"><ele>145.0</ele><time>2026-04-08T10:48:04Z</time></trkpt><trkpt lat="43.13415363137362" lon="11.483465186210898"><ele>145.0</ele><time>2026-04-08T10:48:05Z</time></trkpt><trkpt lat="43.13412725856436" lon="11.483377662623749"><ele>145.0</ele><time>2026-04-08T10:48:06Z</time></trkpt><trkpt lat="43.13409039404413" lon="11.483236656785481"><ele>145.0</ele><time>2026-04-08T10:48:08Z</time></trkpt><trkpt lat="43.13411320378116" lon="11.483145634541966"><ele>145.0</ele><time>2026-04-08T10:48:12Z</time></trkpt><trkpt lat="43.13422968574058" lon="11.483139385988409"><ele>145.0</ele><time>2026-04-08T10:48:17Z</time></trkpt><trkpt lat="43.13430209587211" lon="11.48315812425767"><ele>145.0</ele><time>2026-04-08T10:48:18Z</time></trkpt><trkpt lat="43.13439462212812" lon="11.483177959445179"><ele>145.0</ele><time>2026-04-08T10:48:19Z</time></trkpt><trkpt lat="43.134488041301104" lon="11.483197091377248"><ele>145.0</ele><time>2026-04-08T10:48:20Z</time></trkpt><trkpt lat="43.13459563911012" lon="11.483216694641953"><ele>145.0</ele><time>2026-04-08T10:48:21Z</time></trkpt><trkpt lat="43.13469240942102" lon="11.483234081719349"><ele>145.0</ele><time>2026-04-08T10:48:22Z</time></trkpt><trkpt lat="43.13478946663518" lon="11.483249677426276"><ele>145.0</ele><time>2026-04-08T10:48:23Z</time></trkpt><trkpt lat="43.13488581230541" lon="11.48326701321831"><ele>145.0</ele><time>2026-04-08T10:48:24Z</time></trkpt><trkpt lat="43.13497974577148" lon="11.483277588591488"><ele>145.0</ele><time>2026-04-08T10:48:25Z</time></trkpt><trkpt lat="43.135066631167916" lon="11.48328961994391"><ele>145.0</ele><time>2026-04-08T10:48:26Z</time></trkpt><trkpt lat="43.13514447292423" lon="11.483299980022052"><ele>145.16666666666669</ele><time>2026-04-08T10:48:27Z</time></trkpt><trkpt lat="43.1352190837285" lon="11.483313981966807"><ele>145.33333333333334</ele><time>2026-04-08T10:48:28Z</time></trkpt><trkpt lat="43.13529019710108" lon="11.4833249821858"><ele>145.5</ele><time>2026-04-08T10:48:29Z</time></trkpt><trkpt lat="43.13536782305402" lon="11.483339194545161"><ele>145.66666666666666</ele><time>2026-04-08T10:48:30Z</time></trkpt><trkpt lat="43.13544443779363" lon="11.483353344901944"><ele>145.83333333333331</ele><time>2026-04-08T10:48:31Z</time></trkpt><trkpt lat="43.13552685193586" lon="11.483373890293242"><ele>146.0</ele><time>2026-04-08T10:48:32Z</time></trkpt><trkpt lat="43.135615099429245" lon="11.483386403856219"><ele>146.0</ele><time>2026-04-08T10:48:33Z</time></trkpt><trkpt lat="43.13570772043097" lon="11.483395418283344"><ele>146.0</ele><time>2026-04-08T10:48:34Z</time></trkpt><trkpt lat="43.135807041474486" lon="11.483399331326776"><ele>146.0</ele><time>2026-04-08T10:48:35Z</time></trkpt><trkpt lat="43.13590879776534" lon="11.483403009372351"><ele>146.0</ele><time>2026-04-08T10:48:36Z</time></trkpt><trkpt lat="43.13601300554869" lon="11.483407830072206"><ele>146.0</ele><time>2026-04-08T10:48:37Z</time></trkpt><trkpt lat="43.13611539673586" lon="11.48341257807972"><ele>146.0</ele><time>2026-04-08T10:48:38Z</time></trkpt><trkpt lat="43.136212789233944" lon="11.483412193692109"><ele>146.0</ele><time>2026-04-08T10:48:39Z</time></trkpt><trkpt lat="43.13631668071743" lon="11.48340760787705"><ele>146.0</ele><time>2026-04-08T10:48:40Z</time></trkpt><trkpt lat="43.13642826765822" lon="11.483406363587806"><ele>146.0</ele><time>2026-04-08T10:48:41Z</time></trkpt><trkpt lat="43.13654429296684" lon="11.48340321743816"><ele>146.0</ele><time>2026-04-08T10:48:42Z</time></trkpt><trkpt lat="43.13666084445074" lon="11.483401291480549"><ele>146.0</ele><time>2026-04-08T10:48:43Z</time></trkpt><trkpt lat="43.13678207723906" lon="11.483396369101536"><ele>146.0</ele><time>2026-04-08T10:48:44Z</time></trkpt><trkpt lat="43.13690443437424" lon="11.48353438355766"><ele>146.0</ele><time>2026-04-08T10:48:45Z</time></trkpt><trkpt lat="43.137016159881455" lon="11.483390288355269"><ele>146.0</ele><time>2026-04-08T10:48:46Z</time></trkpt><trkpt lat="43.137121372210935" lon="11.483385731509925"><ele>146.0</ele><time>2026-04-08T10:48:47Z</time></trkpt><trkpt lat="43.13722954547943" lon="11.483378898126286"><ele>146.0</ele><time>2026-04-08T10:48:48Z</time></trkpt><trkpt lat="43.13734336190542" lon="11.483376405223085"><ele>146.0</ele><time>2026-04-08T10:48:49Z</time></trkpt><trkpt lat="43.13745460946414" lon="11.483384145910158"><ele>146.0</ele><time>2026-04-08T10:48:50Z</time></trkpt><trkpt lat="43.137551061977824" lon="11.483382148951069"><ele>146.0</ele><time>2026-04-08T10:48:51Z</time></trkpt><trkpt lat="43.13763031772494" lon="11.483379037915899"><ele>146.2</ele><time>2026-04-08T10:48:52Z</time></trkpt><trkpt lat="43.13771509099713" lon="11.483373962500334"><ele>146.39999999999998</ele><time>2026-04-08T10:48:53Z</time></trkpt><trkpt lat="43.13780248364783" lon="11.483368360654946"><ele>146.6</ele><time>2026-04-08T10:48:54Z</time></trkpt><trkpt lat="43.1378963689965" lon="11.483369624900876"><ele>146.79999999999998</ele><time>2026-04-08T10:48:55Z</time></trkpt><trkpt lat="43.13799624218461" lon="11.483369591528312"><ele>147.0</ele><time>2026-04-08T10:48:56Z</time></trkpt><trkpt lat="43.138101101557254" lon="11.48336488211494"><ele>147.0</ele><time>2026-04-08T10:48:57Z</time></trkpt><trkpt lat="43.13820824484563" lon="11.483360363265506"><ele>147.0</ele><time>2026-04-08T10:48:58Z</time></trkpt><trkpt lat="43.13832107830568" lon="11.483351657335353"><ele>147.0</ele><time>2026-04-08T10:48:59Z</time></trkpt><trkpt lat="43.138437982374434" lon="11.483326301535897"><ele>147.0</ele><time>2026-04-08T10:49:00Z</time></trkpt><trkpt lat="43.13856124012827" lon="11.483293682193162"><ele>146.75</ele><time>2026-04-08T10:49:01Z</time></trkpt><trkpt lat="43.138689561692125" lon="11.48325326970206"><ele>146.5</ele><time>2026-04-08T10:49:02Z</time></trkpt><trkpt lat="43.138816994477395" lon="11.483209385073533"><ele>146.25</ele><time>2026-04-08T10:49:03Z</time></trkpt><trkpt lat="43.13893051850073" lon="11.4831575156078"><ele>146.0</ele><time>2026-04-08T10:49:04Z</time></trkpt><trkpt lat="43.13903303932752" lon="11.483102828351305"><ele>145.8</ele><time>2026-04-08T10:49:05Z</time></trkpt><trkpt lat="43.1391336654788" lon="11.483051128811878"><ele>145.6</ele><time>2026-04-08T10:49:06Z</time></trkpt><trkpt lat="43.1392334662962" lon="11.482987468517793"><ele>145.4</ele><time>2026-04-08T10:49:07Z</time></trkpt><trkpt lat="43.13933374918067" lon="11.48292060464134"><ele>145.2</ele><time>2026-04-08T10:49:08Z</time></trkpt><trkpt lat="43.1394339723197" lon="11.48284980506782"><ele>145.0</ele><time>2026-04-08T10:49:09Z</time></trkpt><trkpt lat="43.139535505692486" lon="11.482775920018042"><ele>145.4</ele><time>2026-04-08T10:49:10Z</time></trkpt><trkpt lat="43.13962733519769" lon="11.48270788224813"><ele>145.8</ele><time>2026-04-08T10:49:11Z</time></trkpt><trkpt lat="43.139706826332024" lon="11.48265059950917"><ele>146.2</ele><time>2026-04-08T10:49:12Z</time></trkpt><trkpt lat="43.139773915730174" lon="11.482604195765536"><ele>146.6</ele><time>2026-04-08T10:49:13Z</time></trkpt><trkpt lat="43.13987861305139" lon="11.482530187915025"><ele>147.0</ele><time>2026-04-08T10:49:15Z</time></trkpt><trkpt lat="43.139946986285196" lon="11.48247741937695"><ele>147.0</ele><time>2026-04-08T10:49:17Z</time></trkpt><trkpt lat="43.139900784432946" lon="11.48230972197131"><ele>147.0</ele><time>2026-04-08T10:49:18Z</time></trkpt><trkpt lat="43.13986613823695" lon="11.482232109465203"><ele>147.0</ele><time>2026-04-08T10:49:19Z</time></trkpt><trkpt lat="43.13984471636022" lon="11.482144468856262"><ele>147.0</ele><time>2026-04-08T10:49:20Z</time></trkpt><trkpt lat="43.13981276906941" lon="11.482051954976946"><ele>147.0</ele><time>2026-04-08T10:49:21Z</time></trkpt><trkpt lat="43.139778834529245" lon="11.481953617892302"><ele>147.0</ele><time>2026-04-08T10:49:22Z</time></trkpt><trkpt lat="43.13974187497878" lon="11.481846514735885"><ele>147.2</ele><time>2026-04-08T10:49:23Z</time></trkpt><trkpt lat="43.139703608171985" lon="11.48173562335523"><ele>147.39999999999998</ele><time>2026-04-08T10:49:24Z</time></trkpt><trkpt lat="43.13966445276692" lon="11.481622156977643"><ele>147.60000000000002</ele><time>2026-04-08T10:49:25Z</time></trkpt><trkpt lat="43.13962571974419" lon="11.481509914608042"><ele>147.8</ele><time>2026-04-08T10:49:26Z</time></trkpt><trkpt lat="43.13958688246409" lon="11.481397370098845"><ele>148.0</ele><time>2026-04-08T10:49:27Z</time></trkpt><trkpt lat="43.139532335165704" lon="11.481295181465152"><ele>147.16666666666669</ele><time>2026-04-08T10:49:28Z</time></trkpt><trkpt lat="43.13949342468629" lon="11.481183735221634"><ele>146.33333333333334</ele><time>2026-04-08T10:49:29Z</time></trkpt><trkpt lat="43.13945346122403" lon="11.481082440116449"><ele>145.5</ele><time>2026-04-08T10:49:30Z</time></trkpt><trkpt lat="43.13939993405741" lon="11.48100529670286"><ele>144.66666666666666</ele><time>2026-04-08T10:49:31Z</time></trkpt><trkpt lat="43.13934947989541" lon="11.480933976796422"><ele>143.83333333333331</ele><time>2026-04-08T10:49:32Z</time></trkpt><trkpt lat="43.13926729494588" lon="11.480945260374781"><ele>143.0</ele><time>2026-04-08T10:49:33Z</time></trkpt><trkpt lat="43.13918949476142" lon="11.480949695099264"><ele>143.0</ele><time>2026-04-08T10:49:34Z</time></trkpt><trkpt lat="43.139111375571396" lon="11.48096718545294"><ele>143.0</ele><time>2026-04-08T10:49:35Z</time></trkpt><trkpt lat="43.13903266273251" lon="11.480985498774483"><ele>143.0</ele><time>2026-04-08T10:49:36Z</time></trkpt><trkpt lat="43.138949538676336" lon="11.481002449086693"><ele>143.0</ele><time>2026-04-08T10:49:37Z</time></trkpt><trkpt lat="43.13886470702434" lon="11.481021776950808"><ele>143.0</ele><time>2026-04-08T10:49:38Z</time></trkpt><trkpt lat="43.13878142497279" lon="11.481037713876026"><ele>143.0</ele><time>2026-04-08T10:49:39Z</time></trkpt><trkpt lat="43.138707013487846" lon="11.481055225484262"><ele>143.33333333333331</ele><time>2026-04-08T10:49:40Z</time></trkpt><trkpt lat="43.138636240543285" lon="11.481070102509427"><ele>143.66666666666666</ele><time>2026-04-08T10:49:41Z</time></trkpt><trkpt lat="43.1385725834135" lon="11.481079793014665"><ele>144.0</ele><time>2026-04-08T10:49:42Z</time></trkpt><trkpt lat="43.13847434685526" lon="11.481084782818405"><ele>144.33333333333334</ele><time>2026-04-08T10:49:44Z</time></trkpt><trkpt lat="43.138405577111385" lon="11.48108104297164"><ele>144.66666666666669</ele><time>2026-04-08T10:49:47Z</time></trkpt><trkpt lat="43.13848599838002" lon="11.481118011347533"><ele>145.0</ele><time>2026-04-08T10:50:24Z</time></trkpt><trkpt lat="43.13859405733876" lon="11.481088380415892"><ele>145.0</ele><time>2026-04-08T10:50:26Z</time></trkpt><trkpt lat="43.13870730759644" lon="11.481066205086497"><ele>145.0</ele><time>2026-04-08T10:50:26.999Z</time></trkpt><trkpt lat="43.138774756696115" lon="11.481051592441707"><ele>145.0</ele><time>2026-04-08T10:50:27.999Z</time></trkpt><trkpt lat="43.13885340053016" lon="11.481036689572928"><ele>145.0</ele><time>2026-04-08T10:50:28.999Z</time></trkpt><trkpt lat="43.13893285621064" lon="11.481015330640018"><ele>145.0</ele><time>2026-04-08T10:50:29.999Z</time></trkpt><trkpt lat="43.13902028723665" lon="11.480990307271647"><ele>145.0</ele><time>2026-04-08T10:50:30.999Z</time></trkpt><trkpt lat="43.139118758311504" lon="11.48097364137578"><ele>144.66666666666669</ele><time>2026-04-08T10:50:31.999Z</time></trkpt><trkpt lat="43.13920529825947" lon="11.480957848991833"><ele>144.33333333333334</ele><time>2026-04-08T10:50:32.999Z</time></trkpt><trkpt lat="43.13927770692113" lon="11.480967954972606"><ele>144.0</ele><time>2026-04-08T10:50:33.999Z</time></trkpt><trkpt lat="43.13933811088068" lon="11.481015271549422"><ele>143.66666666666666</ele><time>2026-04-08T10:50:35Z</time></trkpt><trkpt lat="43.13940231204636" lon="11.481115256976272"><ele>143.33333333333331</ele><time>2026-04-08T10:50:36Z</time></trkpt><trkpt lat="43.139454614543354" lon="11.48118542631856"><ele>143.0</ele><time>2026-04-08T10:50:37Z</time></trkpt><trkpt lat="43.13947146357756" lon="11.481269745934753"><ele>143.83333333333331</ele><time>2026-04-08T10:50:39Z</time></trkpt><trkpt lat="43.13952868860127" lon="11.481376414974427"><ele>144.66666666666666</ele><time>2026-04-08T10:51:00Z</time></trkpt><trkpt lat="43.13955878191341" lon="11.481452330711654"><ele>145.5</ele><time>2026-04-08T10:51:01Z</time></trkpt><trkpt lat="43.139593989547016" lon="11.481545041443622"><ele>146.33333333333334</ele><time>2026-04-08T10:51:02Z</time></trkpt><trkpt lat="43.139629449910615" lon="11.481642575763221"><ele>147.16666666666669</ele><time>2026-04-08T10:51:03Z</time></trkpt><trkpt lat="43.13966858785448" lon="11.481754162933745"><ele>148.0</ele><time>2026-04-08T10:51:04Z</time></trkpt><trkpt lat="43.13971227550599" lon="11.481881465328534"><ele>148.0</ele><time>2026-04-08T10:51:05Z</time></trkpt><trkpt lat="43.13974788465841" lon="11.482003820444952"><ele>148.0</ele><time>2026-04-08T10:51:06Z</time></trkpt><trkpt lat="43.13977843208092" lon="11.482103307446684"><ele>148.0</ele><time>2026-04-08T10:51:07Z</time></trkpt><trkpt lat="43.13981158328173" lon="11.482211191490087"><ele>148.0</ele><time>2026-04-08T10:51:08Z</time></trkpt><trkpt lat="43.139832093232016" lon="11.482308502734991"><ele>148.0</ele><time>2026-04-08T10:51:09Z</time></trkpt><trkpt lat="43.13988192998853" lon="11.482411049065115"><ele>148.0</ele><time>2026-04-08T10:51:11Z</time></trkpt><trkpt lat="43.139770683103244" lon="11.48254685038887"><ele>147.83333333333334</ele><time>2026-04-08T10:51:33Z</time></trkpt><trkpt lat="43.13970291437144" lon="11.482601250808004"><ele>147.66666666666669</ele><time>2026-04-08T10:51:34Z</time></trkpt><trkpt lat="43.139632343994386" lon="11.48265459044268"><ele>147.5</ele><time>2026-04-08T10:51:35Z</time></trkpt><trkpt lat="43.13954952943602" lon="11.482708611059058"><ele>147.33333333333334</ele><time>2026-04-08T10:51:36Z</time></trkpt><trkpt lat="43.13946481397303" lon="11.482765988904921"><ele>147.16666666666666</ele><time>2026-04-08T10:51:37Z</time></trkpt><trkpt lat="43.13938027246939" lon="11.482822089222399"><ele>147.0</ele><time>2026-04-08T10:51:38Z</time></trkpt><trkpt lat="43.13928635140856" lon="11.482882403421668"><ele>146.79999999999998</ele><time>2026-04-08T10:51:39Z</time></trkpt><trkpt lat="43.13919032334203" lon="11.482946004752506"><ele>146.6</ele><time>2026-04-08T10:51:40Z</time></trkpt><trkpt lat="43.139086502083714" lon="11.483006877185392"><ele>146.39999999999998</ele><time>2026-04-08T10:51:41Z</time></trkpt><trkpt lat="43.13898864044456" lon="11.48305968707646"><ele>146.2</ele><time>2026-04-08T10:51:42Z</time></trkpt><trkpt lat="43.13889194057114" lon="11.483106386685602"><ele>146.0</ele><time>2026-04-08T10:51:43Z</time></trkpt><trkpt lat="43.138791674495856" lon="11.483147943691069"><ele>146.0</ele><time>2026-04-08T10:51:44Z</time></trkpt><trkpt lat="43.13868835051828" lon="11.48318795908804"><ele>146.0</ele><time>2026-04-08T10:51:45Z</time></trkpt><trkpt lat="43.138583071255894" lon="11.483225227217535"><ele>146.0</ele><time>2026-04-08T10:51:46Z</time></trkpt><trkpt lat="43.138467959482135" lon="11.483256990788012"><ele>146.0</ele><time>2026-04-08T10:51:47Z</time></trkpt><trkpt lat="43.13835043588755" lon="11.483282729386222"><ele>146.0</ele><time>2026-04-08T10:51:48Z</time></trkpt><trkpt lat="43.13824126756065" lon="11.4833010043618"><ele>146.0</ele><time>2026-04-08T10:51:49Z</time></trkpt><trkpt lat="43.13813993900802" lon="11.483310239682242"><ele>146.0</ele><time>2026-04-08T10:51:50Z</time></trkpt><trkpt lat="43.138038784697265" lon="11.483315856697754"><ele>146.0</ele><time>2026-04-08T10:51:51Z</time></trkpt><trkpt lat="43.13793441440856" lon="11.483321191812488"><ele>146.0</ele><time>2026-04-08T10:51:52Z</time></trkpt><trkpt lat="43.137839183142454" lon="11.48332607844402"><ele>146.0</ele><time>2026-04-08T10:51:53Z</time></trkpt><trkpt lat="43.13775090932103" lon="11.48333035361098"><ele>146.0</ele><time>2026-04-08T10:51:54Z</time></trkpt><trkpt lat="43.13766540992164" lon="11.483331705884103"><ele>146.0</ele><time>2026-04-08T10:51:55Z</time></trkpt><trkpt lat="43.13757689367339" lon="11.483331934770584"><ele>146.0</ele><time>2026-04-08T10:51:56Z</time></trkpt><trkpt lat="43.13749098201432" lon="11.483335342971918"><ele>146.0</ele><time>2026-04-08T10:51:57Z</time></trkpt><trkpt lat="43.137410482007105" lon="11.483341784873238"><ele>146.0</ele><time>2026-04-08T10:51:58Z</time></trkpt><trkpt lat="43.13734515496069" lon="11.483345373178425"><ele>146.0</ele><time>2026-04-08T10:51:59Z</time></trkpt><trkpt lat="43.13724131258558" lon="11.483344212058196"><ele>146.0</ele><time>2026-04-08T10:52:01Z</time></trkpt><trkpt lat="43.137122126340195" lon="11.483353827053163"><ele>146.0</ele><time>2026-04-08T10:52:03Z</time></trkpt><trkpt lat="43.13705446843405" lon="11.483355992118414"><ele>146.0</ele><time>2026-04-08T10:52:04Z</time></trkpt><trkpt lat="43.13695034626141" lon="11.483356479307554"><ele>146.0</ele><time>2026-04-08T10:52:06Z</time></trkpt><trkpt lat="43.13685503141153" lon="11.483350283794406"><ele>146.0</ele><time>2026-04-08T10:52:08Z</time></trkpt><trkpt lat="43.136792614158686" lon="11.483288034957859"><ele>146.0</ele><time>2026-04-08T10:52:10Z</time></trkpt><trkpt lat="43.136805022548586" lon="11.483147558199093"><ele>146.0</ele><time>2026-04-08T10:52:12Z</time></trkpt><trkpt lat="43.13678222951761" lon="11.48296934444529"><ele>146.0</ele><time>2026-04-08T10:52:14Z</time></trkpt><trkpt lat="43.13677704480078" lon="11.48286990960515"><ele>146.0</ele><time>2026-04-08T10:52:15Z</time></trkpt><trkpt lat="43.13677048582191" lon="11.48275586107588"><ele>146.0</ele><time>2026-04-08T10:52:16Z</time></trkpt><trkpt lat="43.13676712055459" lon="11.482658803703554"><ele>146.0</ele><time>2026-04-08T10:52:17Z</time></trkpt><trkpt lat="43.13676621973407" lon="11.482511127802553"><ele>146.0</ele><time>2026-04-08T10:52:19Z</time></trkpt><trkpt lat="43.136758629609865" lon="11.48238613472345"><ele>146.0</ele><time>2026-04-08T10:52:21Z</time></trkpt><trkpt lat="43.13675127116289" lon="11.482243755880653"><ele>146.0</ele><time>2026-04-08T10:52:23Z</time></trkpt><trkpt lat="43.136743554733755" lon="11.482121573963903"><ele>146.2</ele><time>2026-04-08T10:52:25Z</time></trkpt><trkpt lat="43.13673718600859" lon="11.482025109188067"><ele>146.39999999999998</ele><time>2026-04-08T10:52:27Z</time></trkpt><trkpt lat="43.13672042867217" lon="11.481905033094746"><ele>146.6</ele><time>2026-04-08T10:52:29Z</time></trkpt><trkpt lat="43.13667654160889" lon="11.481764505642493"><ele>146.79999999999998</ele><time>2026-04-08T10:52:30.999Z</time></trkpt><trkpt lat="43.13663570775036" lon="11.481593080969162"><ele>147.0</ele><time>2026-04-08T10:52:32.999Z</time></trkpt><trkpt lat="43.13661391951325" lon="11.481492160032543"><ele>147.0</ele><time>2026-04-08T10:52:33.999Z</time></trkpt><trkpt lat="43.136582013463126" lon="11.481390360816391"><ele>147.0</ele><time>2026-04-08T10:52:34.999Z</time></trkpt><trkpt lat="43.136549857618625" lon="11.481258021562237"><ele>147.0</ele><time>2026-04-08T10:52:35.999Z</time></trkpt><trkpt lat="43.1365192037554" lon="11.481130558168273"><ele>147.0</ele><time>2026-04-08T10:52:36.999Z</time></trkpt><trkpt lat="43.136495216954046" lon="11.48102777499596"><ele>147.0</ele><time>2026-04-08T10:52:37.999Z</time></trkpt><trkpt lat="43.1364722803813" lon="11.480937916677341"><ele>147.0</ele><time>2026-04-08T10:52:38.999Z</time></trkpt><trkpt lat="43.13644947125564" lon="11.480854969524968"><ele>146.66666666666666</ele><time>2026-04-08T10:52:39.999Z</time></trkpt><trkpt lat="43.13642781454754" lon="11.480773671649127"><ele>146.33333333333334</ele><time>2026-04-08T10:52:41Z</time></trkpt><trkpt lat="43.136413448123065" lon="11.480678329433983"><ele>146.0</ele><time>2026-04-08T10:52:43Z</time></trkpt><trkpt lat="43.13638191899873" lon="11.480581238590482"><ele>145.66666666666669</ele><time>2026-04-08T10:52:46Z</time></trkpt><trkpt lat="43.13634142276819" lon="11.480464006888672"><ele>145.33333333333334</ele><time>2026-04-08T10:52:48Z</time></trkpt><trkpt lat="43.13634879531184" lon="11.480354537454705"><ele>145.0</ele><time>2026-04-08T10:52:51Z</time></trkpt><trkpt lat="43.13646704126632" lon="11.480298161011518"><ele>143.75</ele><time>2026-04-08T10:52:54Z</time></trkpt><trkpt lat="43.136596529794176" lon="11.480269596605089"><ele>142.5</ele><time>2026-04-08T10:52:56Z</time></trkpt><trkpt lat="43.136694726348296" lon="11.480240521288279"><ele>141.25</ele><time>2026-04-08T10:52:58Z</time></trkpt><trkpt lat="43.136770082753486" lon="11.480174206875422"><ele>140.0</ele><time>2026-04-08T10:53:00Z</time></trkpt><trkpt lat="43.13677156270587" lon="11.47998847284841"><ele>140.0</ele><time>2026-04-08T10:53:03Z</time></trkpt><trkpt lat="43.1367174539696" lon="11.479941408304283"><ele>140.0</ele><time>2026-04-08T10:53:04Z</time></trkpt><trkpt lat="43.136695031591465" lon="11.479844210272262"><ele>140.0</ele><time>2026-04-08T10:53:07Z</time></trkpt><trkpt lat="43.13663349477333" lon="11.479810239181882"><ele>140.0</ele><time>2026-04-08T10:53:13Z</time></trkpt><trkpt lat="43.13655815830925" lon="11.479831396111802"><ele>140.0</ele><time>2026-04-08T10:53:16Z</time></trkpt><trkpt lat="43.13649585904347" lon="11.479861048423828"><ele>140.0</ele><time>2026-04-08T10:53:22Z</time></trkpt><trkpt lat="43.136551321838056" lon="11.479797619763728"><ele>140.0</ele><time>2026-04-08T10:56:22Z</time></trkpt><trkpt lat="43.136654585875654" lon="11.479876810365516"><ele>140.0</ele><time>2026-04-08T10:56:32Z</time></trkpt><trkpt lat="43.13664082316736" lon="11.479755524326302"><ele>140.0</ele><time>2026-04-08T10:56:37Z</time></trkpt><trkpt lat="43.13667506521686" lon="11.47963595994568"><ele>140.0</ele><time>2026-04-08T10:56:42Z</time></trkpt><trkpt lat="43.1366074099181" lon="11.479616828039"><ele>140.0</ele><time>2026-04-08T10:56:47Z</time></trkpt><trkpt lat="43.1365325932496" lon="11.47956721687816"><ele>140.0</ele><time>2026-04-08T10:56:53Z</time></trkpt><trkpt lat="43.136530483224256" lon="11.479471661626617"><ele>140.0</ele><time>2026-04-08T10:57:06Z</time></trkpt><trkpt lat="43.13645450164996" lon="11.479466573332944"><ele>140.16666666666666</ele><time>2026-04-08T10:57:14Z</time></trkpt><trkpt lat="43.13639110000051" lon="11.479488035801952"><ele>140.33333333333331</ele><time>2026-04-08T10:57:17Z</time></trkpt><trkpt lat="43.136354339021544" lon="11.479385170162297"><ele>140.5</ele><time>2026-04-08T10:57:21Z</time></trkpt><trkpt lat="43.1364401077542" lon="11.479522292261745"><ele>140.66666666666666</ele><time>2026-04-08T10:57:36Z</time></trkpt><trkpt lat="43.13651798779987" lon="11.479518952003799"><ele>140.83333333333334</ele><time>2026-04-08T10:57:41Z</time></trkpt><trkpt lat="43.13660609944316" lon="11.479519256664046"><ele>141.0</ele><time>2026-04-08T10:57:43Z</time></trkpt><trkpt lat="43.136676819394275" lon="11.479514582344809"><ele>141.0</ele><time>2026-04-08T10:57:45Z</time></trkpt><trkpt lat="43.136609757978945" lon="11.479486495121156"><ele>141.0</ele><time>2026-04-08T10:57:46Z</time></trkpt><trkpt lat="43.13669043660585" lon="11.479496534885579"><ele>141.0</ele><time>2026-04-08T10:58:13Z</time></trkpt><trkpt lat="43.13671262213252" lon="11.479398154967525"><ele>141.0</ele><time>2026-04-08T10:58:16Z</time></trkpt><trkpt lat="43.13668499469849" lon="11.47947648848851"><ele>141.0</ele><time>2026-04-08T10:58:24Z</time></trkpt><trkpt lat="43.136749646193444" lon="11.479408264597064"><ele>141.0</ele><time>2026-04-08T10:58:27Z</time></trkpt><trkpt lat="43.136682962546175" lon="11.47943277154756"><ele>141.0</ele><time>2026-04-08T10:58:37Z</time></trkpt><trkpt lat="43.136650768126394" lon="11.4795183137225"><ele>141.0</ele><time>2026-04-08T10:58:49Z</time></trkpt><trkpt lat="43.13664909225667" lon="11.479386408013792"><ele>141.0</ele><time>2026-04-08T11:03:44Z</time></trkpt><trkpt lat="43.13656939149706" lon="11.479441415821881"><ele>141.0</ele><time>2026-04-08T11:06:01Z</time></trkpt><trkpt lat="43.13649047501717" lon="11.47945082981462"><ele>141.0</ele><time>2026-04-08T11:06:04Z</time></trkpt><trkpt lat="43.13636873189477" lon="11.479493453724821"><ele>141.0</ele><time>2026-04-08T11:06:15Z</time></trkpt><trkpt lat="43.13630041668853" lon="11.479460292045308"><ele>141.0</ele><time>2026-04-08T11:06:18Z</time></trkpt><trkpt lat="43.13624046001058" lon="11.479417714816915"><ele>141.0</ele><time>2026-04-08T11:06:21Z</time></trkpt><trkpt lat="43.136376340178465" lon="11.479447546148668"><ele>141.0</ele><time>2026-04-08T11:06:23Z</time></trkpt><trkpt lat="43.136465157603546" lon="11.479539899972465"><ele>141.0</ele><time>2026-04-08T11:06:39Z</time></trkpt><trkpt lat="43.13655202678117" lon="11.479556069779575"><ele>141.0</ele><time>2026-04-08T11:06:41Z</time></trkpt><trkpt lat="43.136624213852514" lon="11.47950911912765"><ele>141.0</ele><time>2026-04-08T11:06:45Z</time></trkpt><trkpt lat="43.13658830670499" lon="11.479418794950613"><ele>141.0</ele><time>2026-04-08T11:07:00Z</time></trkpt><trkpt lat="43.13652560012778" lon="11.47936039584946"><ele>141.0</ele><time>2026-04-08T11:07:04Z</time></trkpt><trkpt lat="43.136546703664074" lon="11.479444510429344"><ele>141.0</ele><time>2026-04-08T11:07:07Z</time></trkpt><trkpt lat="43.136583397310034" lon="11.479603888816158"><ele>141.0</ele><time>2026-04-08T11:08:25Z</time></trkpt><trkpt lat="43.13655209340037" lon="11.479683194650839"><ele>141.0</ele><time>2026-04-08T11:08:35Z</time></trkpt><trkpt lat="43.1366044251789" lon="11.479738144224001"><ele>140.8</ele><time>2026-04-08T11:08:58Z</time></trkpt><trkpt lat="43.136530024205136" lon="11.47967584036817"><ele>140.6</ele><time>2026-04-08T11:09:02Z</time></trkpt><trkpt lat="43.13664494662046" lon="11.479724733350801"><ele>140.4</ele><time>2026-04-08T11:11:03Z</time></trkpt><trkpt lat="43.13658543889407" lon="11.479909527954389"><ele>140.2</ele><time>2026-04-08T11:11:09.999Z</time></trkpt><trkpt lat="43.13652749682934" lon="11.479871634736417"><ele>140.0</ele><time>2026-04-08T11:12:06Z</time></trkpt><trkpt lat="43.13651683931762" lon="11.479963446710876"><ele>140.0</ele><time>2026-04-08T11:12:29Z</time></trkpt><trkpt lat="43.136552255664576" lon="11.479846303955036"><ele>140.0</ele><time>2026-04-08T11:13:06.999Z</time></trkpt><trkpt lat="43.13658313482674" lon="11.479940836698397"><ele>140.0</ele><time>2026-04-08T11:31:11Z</time></trkpt><trkpt lat="43.1365173395942" lon="11.47993929389474"><ele>140.0</ele><time>2026-04-08T11:42:26Z</time></trkpt><trkpt lat="43.13659532586732" lon="11.479932044068127"><ele>140.0</ele><time>2026-04-08T11:45:22Z</time></trkpt><trkpt lat="43.13655605945203" lon="11.479831213794293"><ele>140.0</ele><time>2026-04-08T11:45:26Z</time></trkpt><trkpt lat="43.136447249039776" lon="11.479854396898205"><ele>140.57142857142858</ele><time>2026-04-08T11:45:28Z</time></trkpt><trkpt lat="43.136367373978004" lon="11.479889471534076"><ele>141.14285714285714</ele><time>2026-04-08T11:45:29Z</time></trkpt><trkpt lat="43.13630519094671" lon="11.479918558623197"><ele>141.71428571428572</ele><time>2026-04-08T11:45:30Z</time></trkpt><trkpt lat="43.13624441427961" lon="11.479945183920249"><ele>142.28571428571428</ele><time>2026-04-08T11:45:32Z</time></trkpt><trkpt lat="43.136215755629344" lon="11.480023107865444"><ele>142.85714285714286</ele><time>2026-04-08T11:45:34Z</time></trkpt><trkpt lat="43.13622812196915" lon="11.480118362094938"><ele>143.42857142857144</ele><time>2026-04-08T11:45:35Z</time></trkpt><trkpt lat="43.136269940343475" lon="11.480241295707577"><ele>144.0</ele><time>2026-04-08T11:45:36Z</time></trkpt><trkpt lat="43.13630015314107" lon="11.480364319060952"><ele>144.2</ele><time>2026-04-08T11:45:37Z</time></trkpt><trkpt lat="43.136330023636646" lon="11.480501205083042"><ele>144.4</ele><time>2026-04-08T11:45:38Z</time></trkpt><trkpt lat="43.13636431786188" lon="11.480644209488679"><ele>144.6</ele><time>2026-04-08T11:45:39Z</time></trkpt><trkpt lat="43.13639906090146" lon="11.480774673654757"><ele>144.8</ele><time>2026-04-08T11:45:40Z</time></trkpt><trkpt lat="43.136428626302155" lon="11.480880353432827"><ele>145.0</ele><time>2026-04-08T11:45:41Z</time></trkpt><trkpt lat="43.13645230108114" lon="11.480992696381598"><ele>145.0</ele><time>2026-04-08T11:45:42Z</time></trkpt><trkpt lat="43.13647768636277" lon="11.481103535634526"><ele>145.0</ele><time>2026-04-08T11:45:43Z</time></trkpt><trkpt lat="43.136508540658525" lon="11.481229266336351"><ele>145.0</ele><time>2026-04-08T11:45:44Z</time></trkpt><trkpt lat="43.13653767781106" lon="11.481342000339607"><ele>145.0</ele><time>2026-04-08T11:45:45Z</time></trkpt><trkpt lat="43.13655973916162" lon="11.481426896612518"><ele>145.0</ele><time>2026-04-08T11:45:46Z</time></trkpt><trkpt lat="43.136591695042036" lon="11.48156436158729"><ele>145.0</ele><time>2026-04-08T11:45:48Z</time></trkpt><trkpt lat="43.136627566797756" lon="11.481715070061151"><ele>145.4</ele><time>2026-04-08T11:45:50Z</time></trkpt><trkpt lat="43.1366370046778" lon="11.481808728727284"><ele>145.8</ele><time>2026-04-08T11:45:52Z</time></trkpt><trkpt lat="43.136667268388" lon="11.481923686625699"><ele>146.2</ele><time>2026-04-08T11:45:56Z</time></trkpt><trkpt lat="43.136768994504855" lon="11.481928829614326"><ele>146.6</ele><time>2026-04-08T11:45:58Z</time></trkpt><trkpt lat="43.13689744816289" lon="11.481908780401811"><ele>147.0</ele><time>2026-04-08T11:46:00Z</time></trkpt><trkpt lat="43.13696089458848" lon="11.481906820608945"><ele>147.0</ele><time>2026-04-08T11:46:01Z</time></trkpt><trkpt lat="43.13703660663389" lon="11.481901861325346"><ele>147.0</ele><time>2026-04-08T11:46:02Z</time></trkpt><trkpt lat="43.1371185127179" lon="11.481893876336622"><ele>147.0</ele><time>2026-04-08T11:46:03Z</time></trkpt><trkpt lat="43.13719742317735" lon="11.481885002711127"><ele>147.0</ele><time>2026-04-08T11:46:04Z</time></trkpt><trkpt lat="43.137313192595656" lon="11.481862992514728"><ele>147.0</ele><time>2026-04-08T11:46:06Z</time></trkpt><trkpt lat="43.13741532472206" lon="11.481860657425992"><ele>146.79999999999998</ele><time>2026-04-08T11:46:08Z</time></trkpt><trkpt lat="43.137496325514306" lon="11.481858723754977"><ele>146.6</ele><time>2026-04-08T11:46:10Z</time></trkpt><trkpt lat="43.13755052094182" lon="11.48180631652503"><ele>146.39999999999998</ele><time>2026-04-08T11:46:11Z</time></trkpt><trkpt lat="43.13757851299217" lon="11.481627115127617"><ele>146.2</ele><time>2026-04-08T11:46:13Z</time></trkpt><trkpt lat="43.1375953768584" lon="11.481527356752105"><ele>146.0</ele><time>2026-04-08T11:46:14Z</time></trkpt><trkpt lat="43.13763880420734" lon="11.481403434076782"><ele>146.0</ele><time>2026-04-08T11:46:16Z</time></trkpt><trkpt lat="43.13774773535962" lon="11.481297056818958"><ele>146.0</ele><time>2026-04-08T11:46:18Z</time></trkpt><trkpt lat="43.137832347377035" lon="11.481263857432781"><ele>146.0</ele><time>2026-04-08T11:46:19Z</time></trkpt><trkpt lat="43.13791509151225" lon="11.481245526844555"><ele>146.0</ele><time>2026-04-08T11:46:20Z</time></trkpt><trkpt lat="43.13799903000901" lon="11.481217040421203"><ele>146.0</ele><time>2026-04-08T11:46:21Z</time></trkpt><trkpt lat="43.13808043026343" lon="11.48119867348257"><ele>145.83333333333331</ele><time>2026-04-08T11:46:22Z</time></trkpt><trkpt lat="43.13815914843183" lon="11.481176172812535"><ele>145.66666666666666</ele><time>2026-04-08T11:46:23Z</time></trkpt><trkpt lat="43.13824165404598" lon="11.48116183945993"><ele>145.5</ele><time>2026-04-08T11:46:24Z</time></trkpt><trkpt lat="43.13832507439799" lon="11.481151281147815"><ele>145.33333333333334</ele><time>2026-04-08T11:46:24.999Z</time></trkpt><trkpt lat="43.13840671486694" lon="11.481130464277884"><ele>145.16666666666669</ele><time>2026-04-08T11:46:25.999Z</time></trkpt><trkpt lat="43.13847917606287" lon="11.481113953424959"><ele>145.0</ele><time>2026-04-08T11:46:26.999Z</time></trkpt><trkpt lat="43.138561834847714" lon="11.481099060728361"><ele>145.0</ele><time>2026-04-08T11:46:27.999Z</time></trkpt><trkpt lat="43.13864296331008" lon="11.481077471356308"><ele>145.0</ele><time>2026-04-08T11:46:28.999Z</time></trkpt><trkpt lat="43.1387254527393" lon="11.481063870627173"><ele>145.0</ele><time>2026-04-08T11:46:29.999Z</time></trkpt><trkpt lat="43.138804392354466" lon="11.481044405680457"><ele>145.0</ele><time>2026-04-08T11:46:30.999Z</time></trkpt><trkpt lat="43.13889121263191" lon="11.481025785458199"><ele>145.0</ele><time>2026-04-08T11:46:31.999Z</time></trkpt><trkpt lat="43.13897542332637" lon="11.481004042289035"><ele>145.0</ele><time>2026-04-08T11:46:32.999Z</time></trkpt><trkpt lat="43.13905573022559" lon="11.480987458312702"><ele>144.66666666666669</ele><time>2026-04-08T11:46:33.999Z</time></trkpt><trkpt lat="43.13912778852395" lon="11.480973711240999"><ele>144.33333333333334</ele><time>2026-04-08T11:46:34.999Z</time></trkpt><trkpt lat="43.13920611578669" lon="11.480977753405895"><ele>144.0</ele><time>2026-04-08T11:46:35.999Z</time></trkpt><trkpt lat="43.13927916928036" lon="11.480959336748036"><ele>143.66666666666666</ele><time>2026-04-08T11:46:36.999Z</time></trkpt><trkpt lat="43.13934911583924" lon="11.480993763474993"><ele>143.33333333333331</ele><time>2026-04-08T11:46:37.999Z</time></trkpt><trkpt lat="43.1394098244891" lon="11.481061136411801"><ele>143.0</ele><time>2026-04-08T11:46:38.999Z</time></trkpt><trkpt lat="43.13945869108594" lon="11.481148616021427"><ele>143.0</ele><time>2026-04-08T11:46:39.999Z</time></trkpt><trkpt lat="43.1394949142586" lon="11.481256966072086"><ele>143.0</ele><time>2026-04-08T11:46:40.999Z</time></trkpt><trkpt lat="43.139534421593666" lon="11.481386855477204"><ele>143.0</ele><time>2026-04-08T11:46:41.999Z</time></trkpt><trkpt lat="43.13959018131643" lon="11.481550749491388"><ele>143.0</ele><time>2026-04-08T11:46:42.999Z</time></trkpt><trkpt lat="43.13964782408494" lon="11.481705249572833"><ele>143.0</ele><time>2026-04-08T11:46:43.999Z</time></trkpt><trkpt lat="43.13969435259783" lon="11.481831596346387"><ele>143.8</ele><time>2026-04-08T11:46:44.999Z</time></trkpt><trkpt lat="43.139732004437334" lon="11.48194594274826"><ele>144.60000000000002</ele><time>2026-04-08T11:46:45.999Z</time></trkpt><trkpt lat="43.13976918278096" lon="11.482047688681826"><ele>145.39999999999998</ele><time>2026-04-08T11:46:46.999Z</time></trkpt><trkpt lat="43.139804250196555" lon="11.482163268471316"><ele>146.2</ele><time>2026-04-08T11:46:47.999Z</time></trkpt><trkpt lat="43.139841792481434" lon="11.482267777565147"><ele>147.0</ele><time>2026-04-08T11:46:48.999Z</time></trkpt><trkpt lat="43.13987712119686" lon="11.48240323757864"><ele>146.2</ele><time>2026-04-08T11:46:50.999Z</time></trkpt><trkpt lat="43.13992934391468" lon="11.482494078330706"><ele>145.39999999999998</ele><time>2026-04-08T11:46:53.999Z</time></trkpt><trkpt lat="43.1400213981976" lon="11.482439011654153"><ele>144.60000000000002</ele><time>2026-04-08T11:46:54.999Z</time></trkpt><trkpt lat="43.140105867991224" lon="11.482361150228108"><ele>143.8</ele><time>2026-04-08T11:46:55.999Z</time></trkpt><trkpt lat="43.140192503395234" lon="11.482295319485294"><ele>143.0</ele><time>2026-04-08T11:46:56.999Z</time></trkpt><trkpt lat="43.140284540911246" lon="11.482230165761662"><ele>143.0</ele><time>2026-04-08T11:46:57.999Z</time></trkpt><trkpt lat="43.14037737645403" lon="11.48216413372247"><ele>143.0</ele><time>2026-04-08T11:46:58.999Z</time></trkpt><trkpt lat="43.140474085093885" lon="11.482096704667196"><ele>143.0</ele><time>2026-04-08T11:46:59.999Z</time></trkpt><trkpt lat="43.140573174702354" lon="11.482030194486367"><ele>143.0</ele><time>2026-04-08T11:47:00.999Z</time></trkpt><trkpt lat="43.14068400786433" lon="11.481956299761535"><ele>143.0</ele><time>2026-04-08T11:47:01.999Z</time></trkpt><trkpt lat="43.140815454734344" lon="11.481870359671046"><ele>142.5</ele><time>2026-04-08T11:47:02.999Z</time></trkpt><trkpt lat="43.14093171800237" lon="11.481783739408735"><ele>142.0</ele><time>2026-04-08T11:47:03.999Z</time></trkpt><trkpt lat="43.14105652973085" lon="11.48169897866409"><ele>141.5</ele><time>2026-04-08T11:47:04.999Z</time></trkpt><trkpt lat="43.14115800223316" lon="11.481620818932049"><ele>141.0</ele><time>2026-04-08T11:47:05.999Z</time></trkpt><trkpt lat="43.141278283046645" lon="11.481540134235347"><ele>141.0</ele><time>2026-04-08T11:47:06.999Z</time></trkpt><trkpt lat="43.14139232659415" lon="11.481449619381833"><ele>141.0</ele><time>2026-04-08T11:47:07.999Z</time></trkpt><trkpt lat="43.141488301914904" lon="11.481364025334633"><ele>141.0</ele><time>2026-04-08T11:47:08.999Z</time></trkpt><trkpt lat="43.14156915971524" lon="11.48127084640058"><ele>141.0</ele><time>2026-04-08T11:47:09.999Z</time></trkpt><trkpt lat="43.14166220967337" lon="11.48117496492319"><ele>141.2</ele><time>2026-04-08T11:47:10.999Z</time></trkpt><trkpt lat="43.14175500244782" lon="11.481061017620545"><ele>141.39999999999998</ele><time>2026-04-08T11:47:11.999Z</time></trkpt><trkpt lat="43.14182543852214" lon="11.48096745114446"><ele>141.6</ele><time>2026-04-08T11:47:12.999Z</time></trkpt><trkpt lat="43.1418925926302" lon="11.48088680182443"><ele>141.79999999999998</ele><time>2026-04-08T11:47:13.999Z</time></trkpt><trkpt lat="43.14196964418843" lon="11.480795593261227"><ele>142.0</ele><time>2026-04-08T11:47:14.999Z</time></trkpt><trkpt lat="43.14205695745045" lon="11.480691257092891"><ele>142.0</ele><time>2026-04-08T11:47:15.999Z</time></trkpt><trkpt lat="43.14215796554423" lon="11.480572461071956"><ele>142.0</ele><time>2026-04-08T11:47:17Z</time></trkpt><trkpt lat="43.14226983543867" lon="11.48042952140841"><ele>142.0</ele><time>2026-04-08T11:47:18Z</time></trkpt><trkpt lat="43.14237397767145" lon="11.480304913130427"><ele>142.0</ele><time>2026-04-08T11:47:19Z</time></trkpt><trkpt lat="43.14247865686998" lon="11.480176518754108"><ele>142.25</ele><time>2026-04-08T11:47:20Z</time></trkpt><trkpt lat="43.14257079899984" lon="11.480037248430419"><ele>142.5</ele><time>2026-04-08T11:47:21Z</time></trkpt><trkpt lat="43.14265264857887" lon="11.479877190332969"><ele>142.75</ele><time>2026-04-08T11:47:22Z</time></trkpt><trkpt lat="43.14272467535061" lon="11.479696055949836"><ele>143.0</ele><time>2026-04-08T11:47:23Z</time></trkpt><trkpt lat="43.14277114857188" lon="11.479503968729992"><ele>143.0</ele><time>2026-04-08T11:47:24Z</time></trkpt><trkpt lat="43.14280140377629" lon="11.479326482205568"><ele>143.0</ele><time>2026-04-08T11:47:25Z</time></trkpt><trkpt lat="43.14283381837479" lon="11.479140194826766"><ele>143.0</ele><time>2026-04-08T11:47:26Z</time></trkpt><trkpt lat="43.14286482246505" lon="11.478948296123102"><ele>143.0</ele><time>2026-04-08T11:47:27Z</time></trkpt><trkpt lat="43.142896945777665" lon="11.478764383712223"><ele>143.0</ele><time>2026-04-08T11:47:28Z</time></trkpt><trkpt lat="43.14292575495226" lon="11.478595345984164"><ele>143.0</ele><time>2026-04-08T11:47:29Z</time></trkpt><trkpt lat="43.14295162984839" lon="11.47844184055142"><ele>143.0</ele><time>2026-04-08T11:47:30Z</time></trkpt><trkpt lat="43.14297736649282" lon="11.478279819400782"><ele>143.0</ele><time>2026-04-08T11:47:31Z</time></trkpt><trkpt lat="43.14300983351002" lon="11.478109527839694"><ele>143.0</ele><time>2026-04-08T11:47:32Z</time></trkpt><trkpt lat="43.14304980697552" lon="11.477939096237645"><ele>143.0</ele><time>2026-04-08T11:47:33Z</time></trkpt><trkpt lat="43.14308972491421" lon="11.477792838093398"><ele>143.0</ele><time>2026-04-08T11:47:34Z</time></trkpt><trkpt lat="43.143138366079654" lon="11.477660286171306"><ele>143.0</ele><time>2026-04-08T11:47:35Z</time></trkpt><trkpt lat="43.14319426097108" lon="11.477526351903842"><ele>143.0</ele><time>2026-04-08T11:47:36Z</time></trkpt><trkpt lat="43.143248613093625" lon="11.477416002131031"><ele>143.0</ele><time>2026-04-08T11:47:37Z</time></trkpt><trkpt lat="43.14330223827992" lon="11.477317457238907"><ele>143.0</ele><time>2026-04-08T11:47:38Z</time></trkpt><trkpt lat="43.143364306214735" lon="11.47721337349374"><ele>143.0</ele><time>2026-04-08T11:47:39Z</time></trkpt><trkpt lat="43.143435722367535" lon="11.477115182573217"><ele>143.0</ele><time>2026-04-08T11:47:40Z</time></trkpt><trkpt lat="43.14351675306867" lon="11.477021089192895"><ele>143.0</ele><time>2026-04-08T11:47:41Z</time></trkpt><trkpt lat="43.1436073702241" lon="11.476921630353365"><ele>143.0</ele><time>2026-04-08T11:47:42Z</time></trkpt><trkpt lat="43.14370123771293" lon="11.476816397713115"><ele>143.0</ele><time>2026-04-08T11:47:43Z</time></trkpt><trkpt lat="43.143802987350526" lon="11.476703811535574"><ele>143.0</ele><time>2026-04-08T11:47:44Z</time></trkpt><trkpt lat="43.143912853922366" lon="11.47658555112852"><ele>143.0</ele><time>2026-04-08T11:47:45Z</time></trkpt><trkpt lat="43.14402937491775" lon="11.476467222567017"><ele>143.0</ele><time>2026-04-08T11:47:46Z</time></trkpt><trkpt lat="43.144152713361464" lon="11.476347940549875"><ele>143.0</ele><time>2026-04-08T11:47:47Z</time></trkpt><trkpt lat="43.14427937900095" lon="11.476252105986704"><ele>143.0</ele><time>2026-04-08T11:47:48Z</time></trkpt><trkpt lat="43.14440296547331" lon="11.476194802709616"><ele>142.75</ele><time>2026-04-08T11:47:49Z</time></trkpt><trkpt lat="43.14454370578456" lon="11.476183438140813"><ele>142.5</ele><time>2026-04-08T11:47:50Z</time></trkpt><trkpt lat="43.14468766075381" lon="11.476231690820986"><ele>142.25</ele><time>2026-04-08T11:47:51Z</time></trkpt><trkpt lat="43.14484143438746" lon="11.476260837973173"><ele>142.0</ele><time>2026-04-08T11:47:52Z</time></trkpt><trkpt lat="43.14500492038088" lon="11.476293752304679"><ele>142.0</ele><time>2026-04-08T11:47:53Z</time></trkpt><trkpt lat="43.145178510048304" lon="11.476283807605988"><ele>142.0</ele><time>2026-04-08T11:47:54Z</time></trkpt><trkpt lat="43.14537234514813" lon="11.47624522839776"><ele>142.0</ele><time>2026-04-08T11:47:55Z</time></trkpt><trkpt lat="43.14554643480773" lon="11.476190815542443"><ele>143.0</ele><time>2026-04-08T11:47:56Z</time></trkpt><trkpt lat="43.14571581580957" lon="11.476136846197022"><ele>144.0</ele><time>2026-04-08T11:47:57Z</time></trkpt><trkpt lat="43.14586964738339" lon="11.476085528646824"><ele>145.0</ele><time>2026-04-08T11:47:58Z</time></trkpt><trkpt lat="43.14603061480022" lon="11.47602776125684"><ele>145.0</ele><time>2026-04-08T11:47:59Z</time></trkpt><trkpt lat="43.14619352943951" lon="11.475969053070871"><ele>145.0</ele><time>2026-04-08T11:48:00Z</time></trkpt><trkpt lat="43.14635565132662" lon="11.475909743340727"><ele>145.0</ele><time>2026-04-08T11:48:01Z</time></trkpt><trkpt lat="43.14651928069241" lon="11.475850086255775"><ele>146.0</ele><time>2026-04-08T11:48:02Z</time></trkpt><trkpt lat="43.14669557368569" lon="11.475784948890198"><ele>147.0</ele><time>2026-04-08T11:48:03Z</time></trkpt><trkpt lat="43.146875949051655" lon="11.475719153044237"><ele>148.0</ele><time>2026-04-08T11:48:04Z</time></trkpt><trkpt lat="43.14706368127394" lon="11.475645617420438"><ele>148.0</ele><time>2026-04-08T11:48:05Z</time></trkpt><trkpt lat="43.14725647593224" lon="11.475572408257785"><ele>148.0</ele><time>2026-04-08T11:48:06Z</time></trkpt><trkpt lat="43.14745331103492" lon="11.475501639505783"><ele>148.0</ele><time>2026-04-08T11:48:07Z</time></trkpt><trkpt lat="43.147652538487286" lon="11.475428932426558"><ele>147.33333333333334</ele><time>2026-04-08T11:48:08Z</time></trkpt><trkpt lat="43.1478555023524" lon="11.475352732667153"><ele>146.66666666666666</ele><time>2026-04-08T11:48:09Z</time></trkpt><trkpt lat="43.14805662191305" lon="11.475278603561508"><ele>146.0</ele><time>2026-04-08T11:48:10Z</time></trkpt><trkpt lat="43.14824257527687" lon="11.475208333118825"><ele>146.0</ele><time>2026-04-08T11:48:11Z</time></trkpt><trkpt lat="43.148415663347194" lon="11.475145406198202"><ele>146.0</ele><time>2026-04-08T11:48:12Z</time></trkpt><trkpt lat="43.14857887934265" lon="11.475081261896621"><ele>146.0</ele><time>2026-04-08T11:48:13Z</time></trkpt><trkpt lat="43.14874025633426" lon="11.47501737776928"><ele>146.0</ele><time>2026-04-08T11:48:14Z</time></trkpt><trkpt lat="43.148902755235724" lon="11.474952116030444"><ele>146.0</ele><time>2026-04-08T11:48:15Z</time></trkpt><trkpt lat="43.14907017269678" lon="11.474886332584665"><ele>146.0</ele><time>2026-04-08T11:48:16Z</time></trkpt><trkpt lat="43.14923763869861" lon="11.47481002242272"><ele>145.66666666666666</ele><time>2026-04-08T11:48:17Z</time></trkpt><trkpt lat="43.14940691182819" lon="11.474716739939577"><ele>145.33333333333334</ele><time>2026-04-08T11:48:18Z</time></trkpt><trkpt lat="43.14957425220455" lon="11.474612696271718"><ele>145.0</ele><time>2026-04-08T11:48:19Z</time></trkpt><trkpt lat="43.14974537603323" lon="11.474508595523503"><ele>145.66666666666669</ele><time>2026-04-08T11:48:20Z</time></trkpt><trkpt lat="43.149921235825374" lon="11.474400322032443"><ele>146.33333333333334</ele><time>2026-04-08T11:48:21Z</time></trkpt><trkpt lat="43.15010053798689" lon="11.474288676061233"><ele>147.0</ele><time>2026-04-08T11:48:22Z</time></trkpt><trkpt lat="43.15026588784715" lon="11.47418036688152"><ele>147.0</ele><time>2026-04-08T11:48:23Z</time></trkpt><trkpt lat="43.15041774353049" lon="11.474067811796301"><ele>147.0</ele><time>2026-04-08T11:48:23.999Z</time></trkpt><trkpt lat="43.15056162700285" lon="11.473941846224735"><ele>147.0</ele><time>2026-04-08T11:48:24.999Z</time></trkpt><trkpt lat="43.15070809026654" lon="11.473799729497605"><ele>147.33333333333334</ele><time>2026-04-08T11:48:25.999Z</time></trkpt><trkpt lat="43.15085707104851" lon="11.473648576687067"><ele>147.66666666666669</ele><time>2026-04-08T11:48:26.999Z</time></trkpt><trkpt lat="43.15101063466921" lon="11.473494456552137"><ele>148.0</ele><time>2026-04-08T11:48:27.999Z</time></trkpt><trkpt lat="43.151160033889724" lon="11.473352109471609"><ele>148.0</ele><time>2026-04-08T11:48:28.999Z</time></trkpt><trkpt lat="43.151298022827085" lon="11.473215911329106"><ele>148.0</ele><time>2026-04-08T11:48:29.999Z</time></trkpt><trkpt lat="43.15143908441254" lon="11.473082491093638"><ele>148.0</ele><time>2026-04-08T11:48:30.999Z</time></trkpt><trkpt lat="43.15159379298483" lon="11.472956855376347"><ele>146.33333333333334</ele><time>2026-04-08T11:48:31.999Z</time></trkpt><trkpt lat="43.151759945829525" lon="11.47284460344837"><ele>144.66666666666666</ele><time>2026-04-08T11:48:32.999Z</time></trkpt><trkpt lat="43.15193207842454" lon="11.47274259498337"><ele>143.0</ele><time>2026-04-08T11:48:33.999Z</time></trkpt><trkpt lat="43.152091126490674" lon="11.47266052440478"><ele>143.0</ele><time>2026-04-08T11:48:34.999Z</time></trkpt><trkpt lat="43.15225989099414" lon="11.472587604697532"><ele>143.0</ele><time>2026-04-08T11:48:35.999Z</time></trkpt><trkpt lat="43.152441917249305" lon="11.472522705681117"><ele>143.0</ele><time>2026-04-08T11:48:36.999Z</time></trkpt><trkpt lat="43.15263226544401" lon="11.472474724686784"><ele>143.0</ele><time>2026-04-08T11:48:37.999Z</time></trkpt><trkpt lat="43.152824161200726" lon="11.472430489346078"><ele>143.0</ele><time>2026-04-08T11:48:38.999Z</time></trkpt><trkpt lat="43.153017442889166" lon="11.472384331461871"><ele>143.0</ele><time>2026-04-08T11:48:39.999Z</time></trkpt><trkpt lat="43.153196340605405" lon="11.472339612069305"><ele>143.0</ele><time>2026-04-08T11:48:40.999Z</time></trkpt><trkpt lat="43.153375826099335" lon="11.472304631085814"><ele>143.0</ele><time>2026-04-08T11:48:41.999Z</time></trkpt><trkpt lat="43.15355629345825" lon="11.472263596921575"><ele>143.0</ele><time>2026-04-08T11:48:42.999Z</time></trkpt><trkpt lat="43.15373639151486" lon="11.472220728136215"><ele>143.0</ele><time>2026-04-08T11:48:43.999Z</time></trkpt><trkpt lat="43.153918083586824" lon="11.472177915568906"><ele>143.0</ele><time>2026-04-08T11:48:44.999Z</time></trkpt><trkpt lat="43.15410044265871" lon="11.472135509113873"><ele>143.0</ele><time>2026-04-08T11:48:45.999Z</time></trkpt><trkpt lat="43.15428448917842" lon="11.472091056446958"><ele>143.33333333333331</ele><time>2026-04-08T11:48:46.999Z</time></trkpt><trkpt lat="43.154474629974196" lon="11.47204600794983"><ele>143.66666666666666</ele><time>2026-04-08T11:48:47.999Z</time></trkpt><trkpt lat="43.1546627884744" lon="11.472001586951144"><ele>144.0</ele><time>2026-04-08T11:48:48.999Z</time></trkpt><trkpt lat="43.15485085566396" lon="11.47195827315885"><ele>144.33333333333334</ele><time>2026-04-08T11:48:49.999Z</time></trkpt><trkpt lat="43.15503983193938" lon="11.471914650383471"><ele>144.66666666666669</ele><time>2026-04-08T11:48:50.999Z</time></trkpt><trkpt lat="43.15522432352525" lon="11.471872337332027"><ele>145.0</ele><time>2026-04-08T11:48:51.999Z</time></trkpt><trkpt lat="43.155408797107725" lon="11.471829986313828"><ele>145.0</ele><time>2026-04-08T11:48:52.999Z</time></trkpt><trkpt lat="43.15559423259916" lon="11.471790074908531"><ele>145.0</ele><time>2026-04-08T11:48:53.999Z</time></trkpt><trkpt lat="43.15577770834435" lon="11.471749517119262"><ele>145.0</ele><time>2026-04-08T11:48:54.999Z</time></trkpt><trkpt lat="43.15594914280909" lon="11.47170816493745"><ele>146.0</ele><time>2026-04-08T11:48:55.999Z</time></trkpt><trkpt lat="43.156120581861074" lon="11.471675185100342"><ele>147.0</ele><time>2026-04-08T11:48:56.999Z</time></trkpt><trkpt lat="43.156298086286206" lon="11.471640782976348"><ele>148.0</ele><time>2026-04-08T11:48:57.999Z</time></trkpt><trkpt lat="43.156477515258196" lon="11.471602634464501"><ele>148.33333333333334</ele><time>2026-04-08T11:48:58.999Z</time></trkpt><trkpt lat="43.15666533175626" lon="11.471558169131612"><ele>148.66666666666666</ele><time>2026-04-08T11:48:59.999Z</time></trkpt><trkpt lat="43.15685537435987" lon="11.471511269633721"><ele>149.0</ele><time>2026-04-08T11:49:00.999Z</time></trkpt><trkpt lat="43.1570512962789" lon="11.471464356898226"><ele>149.0</ele><time>2026-04-08T11:49:01.999Z</time></trkpt><trkpt lat="43.15723874486294" lon="11.471417734410656"><ele>149.0</ele><time>2026-04-08T11:49:02.999Z</time></trkpt><trkpt lat="43.15741332408129" lon="11.471376205330717"><ele>149.0</ele><time>2026-04-08T11:49:03.999Z</time></trkpt><trkpt lat="43.15758223991897" lon="11.471333454726944"><ele>149.0</ele><time>2026-04-08T11:49:04.999Z</time></trkpt><trkpt lat="43.157749321561845" lon="11.471277447953756"><ele>149.0</ele><time>2026-04-08T11:49:05.999Z</time></trkpt><trkpt lat="43.15791976753949" lon="11.471194496607414"><ele>149.0</ele><time>2026-04-08T11:49:06.999Z</time></trkpt><trkpt lat="43.15808604760035" lon="11.471086676949563"><ele>148.33333333333331</ele><time>2026-04-08T11:49:07.999Z</time></trkpt><trkpt lat="43.15825244181545" lon="11.47096668781032"><ele>147.66666666666666</ele><time>2026-04-08T11:49:08.999Z</time></trkpt><trkpt lat="43.15841844855873" lon="11.470844760101174"><ele>147.0</ele><time>2026-04-08T11:49:09.999Z</time></trkpt><trkpt lat="43.15858842396369" lon="11.47071584387957"><ele>147.0</ele><time>2026-04-08T11:49:10.999Z</time></trkpt><trkpt lat="43.158784845675314" lon="11.470588068811841"><ele>147.0</ele><time>2026-04-08T11:49:11.999Z</time></trkpt><trkpt lat="43.15896065843294" lon="11.470446696290464"><ele>147.0</ele><time>2026-04-08T11:49:12.999Z</time></trkpt><trkpt lat="43.15911732800811" lon="11.470306378830438"><ele>147.0</ele><time>2026-04-08T11:49:13.999Z</time></trkpt><trkpt lat="43.1592640874866" lon="11.470169868502532"><ele>147.0</ele><time>2026-04-08T11:49:14.999Z</time></trkpt><trkpt lat="43.159420051041415" lon="11.47003030913286"><ele>147.0</ele><time>2026-04-08T11:49:15.999Z</time></trkpt><trkpt lat="43.159577897682176" lon="11.469873649449772"><ele>147.0</ele><time>2026-04-08T11:49:16.999Z</time></trkpt><trkpt lat="43.159739633860504" lon="11.469711045029083"><ele>147.0</ele><time>2026-04-08T11:49:17.999Z</time></trkpt><trkpt lat="43.1599080119491" lon="11.469548575571501"><ele>147.0</ele><time>2026-04-08T11:49:18.999Z</time></trkpt><trkpt lat="43.16006880383928" lon="11.469395236563264"><ele>146.66666666666666</ele><time>2026-04-08T11:49:19.999Z</time></trkpt><trkpt lat="43.160217902437296" lon="11.469249882114992"><ele>146.33333333333331</ele><time>2026-04-08T11:49:20.999Z</time></trkpt><trkpt lat="43.160366159359405" lon="11.469106605103073"><ele>146.0</ele><time>2026-04-08T11:49:21.999Z</time></trkpt><trkpt lat="43.16052206146834" lon="11.46895959817033"><ele>146.0</ele><time>2026-04-08T11:49:23Z</time></trkpt><trkpt lat="43.160693260154034" lon="11.468850298793813"><ele>146.0</ele><time>2026-04-08T11:49:24Z</time></trkpt><trkpt lat="43.1608671884241" lon="11.468767155641007"><ele>146.0</ele><time>2026-04-08T11:49:25Z</time></trkpt><trkpt lat="43.16101538281304" lon="11.468718641678256"><ele>146.75</ele><time>2026-04-08T11:49:26Z</time></trkpt><trkpt lat="43.16114581263787" lon="11.468691126815994"><ele>147.5</ele><time>2026-04-08T11:49:27Z</time></trkpt><trkpt lat="43.16128019788788" lon="11.468663748653345"><ele>148.25</ele><time>2026-04-08T11:49:28Z</time></trkpt><trkpt lat="43.161420557987235" lon="11.468635630064023"><ele>149.0</ele><time>2026-04-08T11:49:29Z</time></trkpt><trkpt lat="43.161572605040476" lon="11.468606122689263"><ele>149.5</ele><time>2026-04-08T11:49:30Z</time></trkpt><trkpt lat="43.16172902362929" lon="11.468575766985513"><ele>150.0</ele><time>2026-04-08T11:49:31Z</time></trkpt><trkpt lat="43.161877221005554" lon="11.468547006756951"><ele>150.5</ele><time>2026-04-08T11:49:32Z</time></trkpt><trkpt lat="43.1620098665577" lon="11.468522001660626"><ele>151.0</ele><time>2026-04-08T11:49:33Z</time></trkpt><trkpt lat="43.162138441867846" lon="11.468498246282488"><ele>151.0</ele><time>2026-04-08T11:49:34Z</time></trkpt><trkpt lat="43.162254413850135" lon="11.468476775187575"><ele>151.0</ele><time>2026-04-08T11:49:35Z</time></trkpt><trkpt lat="43.16238388683687" lon="11.468452749299168"><ele>151.0</ele><time>2026-04-08T11:49:36Z</time></trkpt><trkpt lat="43.16251871859209" lon="11.468405290135125"><ele>151.0</ele><time>2026-04-08T11:49:37Z</time></trkpt><trkpt lat="43.162668511132196" lon="11.468388908346862"><ele>150.0</ele><time>2026-04-08T11:49:38Z</time></trkpt><trkpt lat="43.162818504417835" lon="11.468343389013699"><ele>149.0</ele><time>2026-04-08T11:49:39Z</time></trkpt><trkpt lat="43.16297334678074" lon="11.468276019303598"><ele>148.0</ele><time>2026-04-08T11:49:40Z</time></trkpt><trkpt lat="43.163122911979286" lon="11.46817612526896"><ele>147.5</ele><time>2026-04-08T11:49:41Z</time></trkpt><trkpt lat="43.16326591131571" lon="11.468073122142668"><ele>147.0</ele><time>2026-04-08T11:49:42Z</time></trkpt><trkpt lat="43.16338591969443" lon="11.467979690279979"><ele>146.5</ele><time>2026-04-08T11:49:43Z</time></trkpt><trkpt lat="43.16349609360372" lon="11.46790597050846"><ele>146.0</ele><time>2026-04-08T11:49:44Z</time></trkpt><trkpt lat="43.163587079002745" lon="11.467848206076923"><ele>146.0</ele><time>2026-04-08T11:49:45Z</time></trkpt><trkpt lat="43.16366751965428" lon="11.46779757008234"><ele>146.0</ele><time>2026-04-08T11:49:46Z</time></trkpt><trkpt lat="43.16373603900549" lon="11.467771248305459"><ele>146.0</ele><time>2026-04-08T11:49:47Z</time></trkpt><trkpt lat="43.16382457046101" lon="11.467788063443992"><ele>146.0</ele><time>2026-04-08T11:49:49Z</time></trkpt><trkpt lat="43.163888290832844" lon="11.467883044334469"><ele>146.0</ele><time>2026-04-08T11:49:51Z</time></trkpt><trkpt lat="43.16391035292951" lon="11.467977125861497"><ele>146.0</ele><time>2026-04-08T11:49:53Z</time></trkpt><trkpt lat="43.16394125813667" lon="11.468072325475914"><ele>146.0</ele><time>2026-04-08T11:49:55Z</time></trkpt><trkpt lat="43.16398971719509" lon="11.468215274656833"><ele>146.0</ele><time>2026-04-08T11:49:57Z</time></trkpt><trkpt lat="43.16405349923118" lon="11.468382517097819"><ele>146.0</ele><time>2026-04-08T11:49:59Z</time></trkpt><trkpt lat="43.16407673300615" lon="11.46846486603123"><ele>146.0</ele><time>2026-04-08T11:50:00Z</time></trkpt><trkpt lat="43.16409222819604" lon="11.46855883446855"><ele>146.0</ele><time>2026-04-08T11:50:01Z</time></trkpt><trkpt lat="43.16410016421628" lon="11.468658941392759"><ele>146.42857142857142</ele><time>2026-04-08T11:50:02Z</time></trkpt><trkpt lat="43.16408698109095" lon="11.46874541422763"><ele>146.85714285714286</ele><time>2026-04-08T11:50:03Z</time></trkpt><trkpt lat="43.164062310384374" lon="11.468840249286458"><ele>147.28571428571428</ele><time>2026-04-08T11:50:04Z</time></trkpt><trkpt lat="43.16402220369519" lon="11.468926277124885"><ele>147.71428571428572</ele><time>2026-04-08T11:50:05Z</time></trkpt><trkpt lat="43.163970525929166" lon="11.468986383828117"><ele>148.14285714285714</ele><time>2026-04-08T11:50:06Z</time></trkpt><trkpt lat="43.16390691337453" lon="11.469019221229466"><ele>148.57142857142856</ele><time>2026-04-08T11:50:07Z</time></trkpt><trkpt lat="43.16382052507099" lon="11.469059974532552"><ele>149.0</ele><time>2026-04-08T11:50:08Z</time></trkpt><trkpt lat="43.16368750555789" lon="11.469079083245852"><ele>149.8</ele><time>2026-04-08T11:50:09Z</time></trkpt><trkpt lat="43.16356179510659" lon="11.469118982171448"><ele>150.60000000000002</ele><time>2026-04-08T11:50:10Z</time></trkpt><trkpt lat="43.16345961021286" lon="11.46913652853173"><ele>151.4</ele><time>2026-04-08T11:50:11Z</time></trkpt><trkpt lat="43.163380925032534" lon="11.469159593231646"><ele>152.20000000000002</ele><time>2026-04-08T11:50:12Z</time></trkpt><trkpt lat="43.16329472376996" lon="11.469197545333248"><ele>153.0</ele><time>2026-04-08T11:50:13Z</time></trkpt><trkpt lat="43.1632093573119" lon="11.469244864715117"><ele>152.8</ele><time>2026-04-08T11:50:14Z</time></trkpt><trkpt lat="43.16312767588036" lon="11.469306590008419"><ele>152.60000000000002</ele><time>2026-04-08T11:50:15Z</time></trkpt><trkpt lat="43.163049248068646" lon="11.469384161210893"><ele>152.39999999999998</ele><time>2026-04-08T11:50:16Z</time></trkpt><trkpt lat="43.16297833621566" lon="11.469463554723628"><ele>152.2</ele><time>2026-04-08T11:50:17Z</time></trkpt><trkpt lat="43.162903953973995" lon="11.46953932028486"><ele>152.0</ele><time>2026-04-08T11:50:18Z</time></trkpt><trkpt lat="43.16283553898099" lon="11.469631012265353"><ele>153.0</ele><time>2026-04-08T11:50:19Z</time></trkpt><trkpt lat="43.16277755187471" lon="11.46973453851537"><ele>154.0</ele><time>2026-04-08T11:50:20Z</time></trkpt><trkpt lat="43.16273163233098" lon="11.469848471722665"><ele>155.0</ele><time>2026-04-08T11:50:21Z</time></trkpt><trkpt lat="43.16268476524154" lon="11.4699637295978"><ele>156.0</ele><time>2026-04-08T11:50:22Z</time></trkpt><trkpt lat="43.1626590454975" lon="11.470099176347627"><ele>157.0</ele><time>2026-04-08T11:50:23Z</time></trkpt><trkpt lat="43.162657590193284" lon="11.470229869501795"><ele>157.0</ele><time>2026-04-08T11:50:24Z</time></trkpt><trkpt lat="43.16264333371168" lon="11.470361280500791"><ele>157.0</ele><time>2026-04-08T11:50:25Z</time></trkpt><trkpt lat="43.16263052219042" lon="11.47050392250512"><ele>157.0</ele><time>2026-04-08T11:50:26Z</time></trkpt><trkpt lat="43.162631829101684" lon="11.47064906201812"><ele>157.0</ele><time>2026-04-08T11:50:27Z</time></trkpt><trkpt lat="43.1626260001155" lon="11.470782700473348"><ele>157.0</ele><time>2026-04-08T11:50:28Z</time></trkpt><trkpt lat="43.16261877275075" lon="11.47092455504256"><ele>158.0</ele><time>2026-04-08T11:50:29Z</time></trkpt><trkpt lat="43.16261484732657" lon="11.471063757652411"><ele>159.0</ele><time>2026-04-08T11:50:29.999Z</time></trkpt><trkpt lat="43.162606966154584" lon="11.47118716239097"><ele>160.0</ele><time>2026-04-08T11:50:30.999Z</time></trkpt><trkpt lat="43.16260238237413" lon="11.471315776798054"><ele>161.0</ele><time>2026-04-08T11:50:31.999Z</time></trkpt><trkpt lat="43.16258998179302" lon="11.471436894165429"><ele>162.0</ele><time>2026-04-08T11:50:32.999Z</time></trkpt><trkpt lat="43.162572006721774" lon="11.471559067730286"><ele>163.0</ele><time>2026-04-08T11:50:33.999Z</time></trkpt><trkpt lat="43.16252597790984" lon="11.47166021838804"><ele>164.0</ele><time>2026-04-08T11:50:34.999Z</time></trkpt><trkpt lat="43.162486070371045" lon="11.471762825698878"><ele>165.0</ele><time>2026-04-08T11:50:35.999Z</time></trkpt><trkpt lat="43.162436192243185" lon="11.471859965370465"><ele>166.0</ele><time>2026-04-08T11:50:36.999Z</time></trkpt><trkpt lat="43.16238608450721" lon="11.471960978825692"><ele>167.0</ele><time>2026-04-08T11:50:37.999Z</time></trkpt><trkpt lat="43.16234005702001" lon="11.47209120809792"><ele>168.0</ele><time>2026-04-08T11:50:38.999Z</time></trkpt><trkpt lat="43.16228011199277" lon="11.472214178599328"><ele>169.0</ele><time>2026-04-08T11:50:39.999Z</time></trkpt><trkpt lat="43.16220637396308" lon="11.472353182773263"><ele>170.0</ele><time>2026-04-08T11:50:40.999Z</time></trkpt><trkpt lat="43.16214056359121" lon="11.472476909940474"><ele>171.0</ele><time>2026-04-08T11:50:41.999Z</time></trkpt><trkpt lat="43.16209560982096" lon="11.4725767016518"><ele>172.0</ele><time>2026-04-08T11:50:42.999Z</time></trkpt><trkpt lat="43.16205187923434" lon="11.472675367324367"><ele>172.0</ele><time>2026-04-08T11:50:43.999Z</time></trkpt><trkpt lat="43.16200117795903" lon="11.47278558128065"><ele>172.0</ele><time>2026-04-08T11:50:44.999Z</time></trkpt><trkpt lat="43.161938771075334" lon="11.472897078454999"><ele>172.0</ele><time>2026-04-08T11:50:45.999Z</time></trkpt><trkpt lat="43.161893858789306" lon="11.472975641482934"><ele>172.0</ele><time>2026-04-08T11:50:46.999Z</time></trkpt><trkpt lat="43.16185273238452" lon="11.47305867076402"><ele>172.0</ele><time>2026-04-08T11:50:47.999Z</time></trkpt><trkpt lat="43.16183049045837" lon="11.47314824301007"><ele>172.0</ele><time>2026-04-08T11:50:48.999Z</time></trkpt><trkpt lat="43.161811318692415" lon="11.473233576728992"><ele>173.0</ele><time>2026-04-08T11:50:49.999Z</time></trkpt><trkpt lat="43.161779657479464" lon="11.473318521559701"><ele>174.0</ele><time>2026-04-08T11:50:50.999Z</time></trkpt><trkpt lat="43.16177418430236" lon="11.473432574903276"><ele>175.0</ele><time>2026-04-08T11:50:51.999Z</time></trkpt><trkpt lat="43.16178137519581" lon="11.473544258128337"><ele>176.0</ele><time>2026-04-08T11:50:52.999Z</time></trkpt><trkpt lat="43.16181102173621" lon="11.473666139227126"><ele>177.0</ele><time>2026-04-08T11:50:53.999Z</time></trkpt><trkpt lat="43.16185127079234" lon="11.473807563940168"><ele>178.0</ele><time>2026-04-08T11:50:54.999Z</time></trkpt><trkpt lat="43.161885802381" lon="11.473924353330274"><ele>178.33333333333334</ele><time>2026-04-08T11:50:55.999Z</time></trkpt><trkpt lat="43.16190535155504" lon="11.47401182122534"><ele>178.66666666666669</ele><time>2026-04-08T11:50:56.999Z</time></trkpt><trkpt lat="43.16191846318928" lon="11.474171889464625"><ele>179.0</ele><time>2026-04-08T11:50:58.999Z</time></trkpt><trkpt lat="43.16190531717907" lon="11.47428067291846"><ele>179.33333333333334</ele><time>2026-04-08T11:50:59.999Z</time></trkpt><trkpt lat="43.16190645924289" lon="11.474392162592386"><ele>179.66666666666666</ele><time>2026-04-08T11:51:00.999Z</time></trkpt><trkpt lat="43.16190580725418" lon="11.474517005180893"><ele>180.0</ele><time>2026-04-08T11:51:01.999Z</time></trkpt><trkpt lat="43.161937298117664" lon="11.474632797045082"><ele>180.0</ele><time>2026-04-08T11:51:02.999Z</time></trkpt><trkpt lat="43.16197677414461" lon="11.474719798073739"><ele>180.0</ele><time>2026-04-08T11:51:03.999Z</time></trkpt><trkpt lat="43.16203191239299" lon="11.474813088520454"><ele>180.0</ele><time>2026-04-08T11:51:04.999Z</time></trkpt><trkpt lat="43.16210521980136" lon="11.474890187335518"><ele>180.0</ele><time>2026-04-08T11:51:05.999Z</time></trkpt><trkpt lat="43.16218496189789" lon="11.474951848356724"><ele>180.0</ele><time>2026-04-08T11:51:06.999Z</time></trkpt><trkpt lat="43.16226646178236" lon="11.474995386225197"><ele>180.0</ele><time>2026-04-08T11:51:07.999Z</time></trkpt><trkpt lat="43.16233645943844" lon="11.475002644846189"><ele>181.66666666666666</ele><time>2026-04-08T11:51:08.999Z</time></trkpt><trkpt lat="43.16240438277417" lon="11.475011758910606"><ele>183.33333333333334</ele><time>2026-04-08T11:51:09.999Z</time></trkpt><trkpt lat="43.162484519851546" lon="11.47501724845902"><ele>185.0</ele><time>2026-04-08T11:51:10.999Z</time></trkpt><trkpt lat="43.16257973550864" lon="11.475029484238792"><ele>186.66666666666669</ele><time>2026-04-08T11:51:11.999Z</time></trkpt><trkpt lat="43.16266520515693" lon="11.47503111958431"><ele>188.33333333333334</ele><time>2026-04-08T11:51:12.999Z</time></trkpt><trkpt lat="43.16272886699017" lon="11.475125439472743"><ele>190.0</ele><time>2026-04-08T11:51:13.999Z</time></trkpt><trkpt lat="43.16282154759302" lon="11.475191050135912"><ele>190.0</ele><time>2026-04-08T11:51:14.999Z</time></trkpt><trkpt lat="43.16292036439621" lon="11.475250659045944"><ele>190.0</ele><time>2026-04-08T11:51:15.999Z</time></trkpt><trkpt lat="43.16303266374381" lon="11.475310563449613"><ele>190.0</ele><time>2026-04-08T11:51:16.999Z</time></trkpt><trkpt lat="43.16314397132173" lon="11.475367990947888"><ele>190.0</ele><time>2026-04-08T11:51:17.999Z</time></trkpt><trkpt lat="43.16326267466063" lon="11.475429234183244"><ele>189.25</ele><time>2026-04-08T11:51:18.999Z</time></trkpt><trkpt lat="43.163369082773634" lon="11.475483642935435"><ele>188.5</ele><time>2026-04-08T11:51:19.999Z</time></trkpt><trkpt lat="43.163481506863185" lon="11.475517044403958"><ele>187.75</ele><time>2026-04-08T11:51:20.999Z</time></trkpt><trkpt lat="43.16358836930405" lon="11.47557035274746"><ele>187.0</ele><time>2026-04-08T11:51:21.999Z</time></trkpt><trkpt lat="43.16369469232019" lon="11.4756243492024"><ele>187.0</ele><time>2026-04-08T11:51:22.999Z</time></trkpt><trkpt lat="43.16380754056228" lon="11.475667843570053"><ele>187.0</ele><time>2026-04-08T11:51:23.999Z</time></trkpt><trkpt lat="43.163914887013775" lon="11.475728251745162"><ele>187.0</ele><time>2026-04-08T11:51:24.999Z</time></trkpt><trkpt lat="43.164013925257834" lon="11.475784480289505"><ele>187.0</ele><time>2026-04-08T11:51:25.999Z</time></trkpt><trkpt lat="43.16412121076291" lon="11.475846728156533"><ele>187.0</ele><time>2026-04-08T11:51:26.999Z</time></trkpt><trkpt lat="43.164241137250706" lon="11.475907618625575"><ele>187.0</ele><time>2026-04-08T11:51:27.999Z</time></trkpt><trkpt lat="43.164361561524736" lon="11.475971462110762"><ele>187.0</ele><time>2026-04-08T11:51:29Z</time></trkpt><trkpt lat="43.16448189077974" lon="11.47603533423755"><ele>187.0</ele><time>2026-04-08T11:51:30Z</time></trkpt><trkpt lat="43.164614557274206" lon="11.476093752606175"><ele>187.0</ele><time>2026-04-08T11:51:31Z</time></trkpt><trkpt lat="43.16475317818902" lon="11.476138076911251"><ele>187.0</ele><time>2026-04-08T11:51:32Z</time></trkpt><trkpt lat="43.164891523477124" lon="11.476197554757547"><ele>187.0</ele><time>2026-04-08T11:51:33Z</time></trkpt><trkpt lat="43.165025406832804" lon="11.47624237363829"><ele>187.0</ele><time>2026-04-08T11:51:34Z</time></trkpt><trkpt lat="43.16515898071186" lon="11.476285349873459"><ele>186.39999999999998</ele><time>2026-04-08T11:51:35Z</time></trkpt><trkpt lat="43.16525732530578" lon="11.476308976171548"><ele>185.79999999999998</ele><time>2026-04-08T11:51:36Z</time></trkpt><trkpt lat="43.16536892847882" lon="11.476334645678318"><ele>185.2</ele><time>2026-04-08T11:51:37Z</time></trkpt><trkpt lat="43.16544087913849" lon="11.476390197290739"><ele>184.6</ele><time>2026-04-08T11:51:38Z</time></trkpt><trkpt lat="43.165537500418964" lon="11.476444882803618"><ele>184.0</ele><time>2026-04-08T11:51:39Z</time></trkpt><trkpt lat="43.16563529310931" lon="11.476517539729135"><ele>185.75</ele><time>2026-04-08T11:51:40Z</time></trkpt><trkpt lat="43.165738711410214" lon="11.476595010591526"><ele>187.5</ele><time>2026-04-08T11:51:41Z</time></trkpt><trkpt lat="43.16584715240873" lon="11.476664892750483"><ele>189.25</ele><time>2026-04-08T11:51:42Z</time></trkpt><trkpt lat="43.16596062102969" lon="11.476736614959483"><ele>191.0</ele><time>2026-04-08T11:51:43Z</time></trkpt><trkpt lat="43.166070915144566" lon="11.476801354787936"><ele>191.0</ele><time>2026-04-08T11:51:44Z</time></trkpt><trkpt lat="43.16618798730282" lon="11.476872747349052"><ele>191.0</ele><time>2026-04-08T11:51:45Z</time></trkpt><trkpt lat="43.16630360499723" lon="11.476954497931436"><ele>191.0</ele><time>2026-04-08T11:51:46Z</time></trkpt><trkpt lat="43.16639876335299" lon="11.477019980103192"><ele>191.0</ele><time>2026-04-08T11:51:47Z</time></trkpt><trkpt lat="43.166483379095155" lon="11.477084775867835"><ele>191.4</ele><time>2026-04-08T11:51:48Z</time></trkpt><trkpt lat="43.166554686800815" lon="11.477155222400341"><ele>191.8</ele><time>2026-04-08T11:51:49Z</time></trkpt><trkpt lat="43.16663837085392" lon="11.47723552339157"><ele>192.20000000000002</ele><time>2026-04-08T11:51:50Z</time></trkpt><trkpt lat="43.166727874318426" lon="11.477331394997414"><ele>192.60000000000002</ele><time>2026-04-08T11:51:51Z</time></trkpt><trkpt lat="43.16680396865544" lon="11.477419830796208"><ele>193.0</ele><time>2026-04-08T11:51:52Z</time></trkpt><trkpt lat="43.1668800928965" lon="11.477504643746892"><ele>193.0</ele><time>2026-04-08T11:51:53Z</time></trkpt><trkpt lat="43.1669589050748" lon="11.477575400871375"><ele>193.0</ele><time>2026-04-08T11:51:54Z</time></trkpt><trkpt lat="43.16703826146006" lon="11.47765385384441"><ele>193.0</ele><time>2026-04-08T11:51:55Z</time></trkpt><trkpt lat="43.16710363193458" lon="11.477737313148692"><ele>193.0</ele><time>2026-04-08T11:51:56Z</time></trkpt><trkpt lat="43.16718207084834" lon="11.47778579399211"><ele>193.0</ele><time>2026-04-08T11:51:57Z</time></trkpt><trkpt lat="43.16726880500054" lon="11.477796434461727"><ele>193.2</ele><time>2026-04-08T11:51:58Z</time></trkpt><trkpt lat="43.167361556055745" lon="11.477822703740914"><ele>193.4</ele><time>2026-04-08T11:51:59Z</time></trkpt><trkpt lat="43.16746716253284" lon="11.477828566598827"><ele>193.6</ele><time>2026-04-08T11:52:00Z</time></trkpt><trkpt lat="43.167578808979165" lon="11.477827993196351"><ele>193.79999999999998</ele><time>2026-04-08T11:52:01Z</time></trkpt><trkpt lat="43.1676970882429" lon="11.477835515175128"><ele>194.0</ele><time>2026-04-08T11:52:02Z</time></trkpt><trkpt lat="43.167820514004745" lon="11.47782237392441"><ele>194.0</ele><time>2026-04-08T11:52:03Z</time></trkpt><trkpt lat="43.1679168022162" lon="11.477822472272587"><ele>194.0</ele><time>2026-04-08T11:52:04Z</time></trkpt><trkpt lat="43.16801252161659" lon="11.47782256021407"><ele>194.0</ele><time>2026-04-08T11:52:05Z</time></trkpt><trkpt lat="43.16811776681016" lon="11.477820301745702"><ele>194.0</ele><time>2026-04-08T11:52:06Z</time></trkpt><trkpt lat="43.16822366106208" lon="11.477828491260297"><ele>194.0</ele><time>2026-04-08T11:52:07Z</time></trkpt><trkpt lat="43.16833670238311" lon="11.477842619867173"><ele>194.5</ele><time>2026-04-08T11:52:08Z</time></trkpt><trkpt lat="43.16844756727053" lon="11.477872926557858"><ele>195.0</ele><time>2026-04-08T11:52:09Z</time></trkpt><trkpt lat="43.16857163869457" lon="11.477907506567831"><ele>195.5</ele><time>2026-04-08T11:52:10Z</time></trkpt><trkpt lat="43.16869727870961" lon="11.477937345478292"><ele>196.0</ele><time>2026-04-08T11:52:11Z</time></trkpt><trkpt lat="43.168818843577014" lon="11.47796191218825"><ele>196.0</ele><time>2026-04-08T11:52:12Z</time></trkpt><trkpt lat="43.1689353545162" lon="11.477983452178998"><ele>196.0</ele><time>2026-04-08T11:52:13Z</time></trkpt><trkpt lat="43.16903607204836" lon="11.47801641999784"><ele>196.0</ele><time>2026-04-08T11:52:14Z</time></trkpt><trkpt lat="43.16913817894438" lon="11.478058400947077"><ele>196.0</ele><time>2026-04-08T11:52:15Z</time></trkpt><trkpt lat="43.16923531656221" lon="11.478124345309334"><ele>196.0</ele><time>2026-04-08T11:52:16Z</time></trkpt><trkpt lat="43.16931927366183" lon="11.478224425566772"><ele>196.0</ele><time>2026-04-08T11:52:17Z</time></trkpt><trkpt lat="43.169387155718304" lon="11.478317398348096"><ele>196.0</ele><time>2026-04-08T11:52:18Z</time></trkpt><trkpt lat="43.16944995734721" lon="11.478437534698683"><ele>196.0</ele><time>2026-04-08T11:52:19Z</time></trkpt><trkpt lat="43.16950399820485" lon="11.478553969756817"><ele>196.0</ele><time>2026-04-08T11:52:20Z</time></trkpt><trkpt lat="43.16957239367062" lon="11.478672730336358"><ele>196.0</ele><time>2026-04-08T11:52:21Z</time></trkpt><trkpt lat="43.16963576821796" lon="11.478801079227543"><ele>197.0</ele><time>2026-04-08T11:52:22Z</time></trkpt><trkpt lat="43.169694430722686" lon="11.478932117566302"><ele>198.0</ele><time>2026-04-08T11:52:23Z</time></trkpt><trkpt lat="43.16976027012682" lon="11.479057554427934"><ele>199.0</ele><time>2026-04-08T11:52:24Z</time></trkpt><trkpt lat="43.16982757574195" lon="11.479163811166563"><ele>200.0</ele><time>2026-04-08T11:52:25Z</time></trkpt><trkpt lat="43.16989146777902" lon="11.479256910408814"><ele>201.0</ele><time>2026-04-08T11:52:26Z</time></trkpt><trkpt lat="43.169970457325576" lon="11.479328367545463"><ele>201.0</ele><time>2026-04-08T11:52:27Z</time></trkpt><trkpt lat="43.170051166764644" lon="11.479378313073239"><ele>201.0</ele><time>2026-04-08T11:52:28Z</time></trkpt><trkpt lat="43.17015223294543" lon="11.479425180554216"><ele>201.0</ele><time>2026-04-08T11:52:29Z</time></trkpt><trkpt lat="43.17025797386991" lon="11.479474379539445"><ele>201.0</ele><time>2026-04-08T11:52:30Z</time></trkpt><trkpt lat="43.170372650195354" lon="11.479521474369177"><ele>201.0</ele><time>2026-04-08T11:52:31Z</time></trkpt><trkpt lat="43.17048807258695" lon="11.479569812174594"><ele>201.60000000000002</ele><time>2026-04-08T11:52:32Z</time></trkpt><trkpt lat="43.170582331839164" lon="11.479609633458919"><ele>202.2</ele><time>2026-04-08T11:52:33Z</time></trkpt><trkpt lat="43.1706662360964" lon="11.479663491986695"><ele>202.8</ele><time>2026-04-08T11:52:33.999Z</time></trkpt><trkpt lat="43.17073706775986" lon="11.479752259730281"><ele>203.39999999999998</ele><time>2026-04-08T11:52:34.999Z</time></trkpt><trkpt lat="43.170805686384895" lon="11.47983553380649"><ele>204.0</ele><time>2026-04-08T11:52:35.999Z</time></trkpt><trkpt lat="43.17086865687294" lon="11.479928448812473"><ele>204.0</ele><time>2026-04-08T11:52:36.999Z</time></trkpt><trkpt lat="43.170909372713595" lon="11.480043805286448"><ele>204.0</ele><time>2026-04-08T11:52:37.999Z</time></trkpt><trkpt lat="43.17095871893137" lon="11.480184010964539"><ele>204.0</ele><time>2026-04-08T11:52:38.999Z</time></trkpt><trkpt lat="43.171005133647434" lon="11.480340259624963"><ele>204.0</ele><time>2026-04-08T11:52:39.999Z</time></trkpt><trkpt lat="43.171046837702484" lon="11.480529755961099"><ele>203.75</ele><time>2026-04-08T11:52:40.999Z</time></trkpt><trkpt lat="43.17107712093064" lon="11.48070359612729"><ele>203.5</ele><time>2026-04-08T11:52:41.999Z</time></trkpt><trkpt lat="43.17110210928634" lon="11.480856918687502"><ele>203.25</ele><time>2026-04-08T11:52:42.999Z</time></trkpt><trkpt lat="43.17112472933442" lon="11.480996344885462"><ele>203.0</ele><time>2026-04-08T11:52:43.999Z</time></trkpt><trkpt lat="43.17115298877558" lon="11.481159956640514"><ele>203.0</ele><time>2026-04-08T11:52:44.999Z</time></trkpt><trkpt lat="43.17118265113147" lon="11.48133091746599"><ele>203.0</ele><time>2026-04-08T11:52:45.999Z</time></trkpt><trkpt lat="43.171217448829104" lon="11.481520226338205"><ele>203.0</ele><time>2026-04-08T11:52:46.999Z</time></trkpt><trkpt lat="43.17126815190423" lon="11.481705730050278"><ele>203.0</ele><time>2026-04-08T11:52:47.999Z</time></trkpt><trkpt lat="43.17129156341645" lon="11.481885871942048"><ele>203.0</ele><time>2026-04-08T11:52:48.999Z</time></trkpt><trkpt lat="43.17130651405871" lon="11.482044413183662"><ele>203.0</ele><time>2026-04-08T11:52:49.999Z</time></trkpt><trkpt lat="43.17134889089723" lon="11.482179220783506"><ele>203.0</ele><time>2026-04-08T11:52:50.999Z</time></trkpt><trkpt lat="43.17139505540482" lon="11.482306287448546"><ele>203.0</ele><time>2026-04-08T11:52:51.999Z</time></trkpt><trkpt lat="43.171449154636576" lon="11.482420972278401"><ele>203.0</ele><time>2026-04-08T11:52:52.999Z</time></trkpt><trkpt lat="43.17150428465251" lon="11.482539448495443"><ele>204.60000000000002</ele><time>2026-04-08T11:52:53.999Z</time></trkpt><trkpt lat="43.17156206691675" lon="11.482664066909782"><ele>206.20000000000002</ele><time>2026-04-08T11:52:54.999Z</time></trkpt><trkpt lat="43.171604815051275" lon="11.482781806260002"><ele>207.8</ele><time>2026-04-08T11:52:55.999Z</time></trkpt><trkpt lat="43.17166320292812" lon="11.482893477513718"><ele>209.4</ele><time>2026-04-08T11:52:56.999Z</time></trkpt><trkpt lat="43.17171748744994" lon="11.483019267966094"><ele>211.0</ele><time>2026-04-08T11:52:57.999Z</time></trkpt><trkpt lat="43.171766531344915" lon="11.483117673602298"><ele>211.0</ele><time>2026-04-08T11:52:58.999Z</time></trkpt><trkpt lat="43.17182520238597" lon="11.483207055529961"><ele>211.0</ele><time>2026-04-08T11:52:59.999Z</time></trkpt><trkpt lat="43.17190892285464" lon="11.483297341214305"><ele>211.0</ele><time>2026-04-08T11:53:00.999Z</time></trkpt><trkpt lat="43.17200248165988" lon="11.483380011307288"><ele>211.0</ele><time>2026-04-08T11:53:01.999Z</time></trkpt><trkpt lat="43.17209287013869" lon="11.48346702089218"><ele>211.0</ele><time>2026-04-08T11:53:02.999Z</time></trkpt><trkpt lat="43.17218325746208" lon="11.483565310845925"><ele>211.0</ele><time>2026-04-08T11:53:03.999Z</time></trkpt><trkpt lat="43.17228020718641" lon="11.48365589695247"><ele>211.0</ele><time>2026-04-08T11:53:04.999Z</time></trkpt><trkpt lat="43.17237390016328" lon="11.4837426852907"><ele>211.0</ele><time>2026-04-08T11:53:05.999Z</time></trkpt><trkpt lat="43.1724579289864" lon="11.483799651044597"><ele>211.0</ele><time>2026-04-08T11:53:06.999Z</time></trkpt><trkpt lat="43.17254620720892" lon="11.483845325665367"><ele>211.0</ele><time>2026-04-08T11:53:07.999Z</time></trkpt><trkpt lat="43.172643158423" lon="11.483885755868716"><ele>213.8</ele><time>2026-04-08T11:53:08.999Z</time></trkpt><trkpt lat="43.17273500999561" lon="11.483928565210247"><ele>216.60000000000002</ele><time>2026-04-08T11:53:09.999Z</time></trkpt><trkpt lat="43.17283328644" lon="11.483963584887247"><ele>219.4</ele><time>2026-04-08T11:53:10.999Z</time></trkpt><trkpt lat="43.17293039899065" lon="11.48400672933243"><ele>222.2</ele><time>2026-04-08T11:53:11.999Z</time></trkpt><trkpt lat="43.173032246677" lon="11.484048945406267"><ele>225.0</ele><time>2026-04-08T11:53:12.999Z</time></trkpt><trkpt lat="43.17312983778986" lon="11.484081819270232"><ele>226.0</ele><time>2026-04-08T11:53:13.999Z</time></trkpt><trkpt lat="43.17323694996486" lon="11.48410676965735"><ele>227.0</ele><time>2026-04-08T11:53:14.999Z</time></trkpt><trkpt lat="43.173346013215934" lon="11.484140539219322"><ele>228.0</ele><time>2026-04-08T11:53:15.999Z</time></trkpt><trkpt lat="43.17346442223042" lon="11.484175662088823"><ele>229.0</ele><time>2026-04-08T11:53:16.999Z</time></trkpt><trkpt lat="43.17358462882167" lon="11.484218334433447"><ele>229.0</ele><time>2026-04-08T11:53:17.999Z</time></trkpt><trkpt lat="43.173709719974" lon="11.484248333039917"><ele>229.0</ele><time>2026-04-08T11:53:18.999Z</time></trkpt><trkpt lat="43.17383768459768" lon="11.48429160680584"><ele>229.0</ele><time>2026-04-08T11:53:19.999Z</time></trkpt><trkpt lat="43.17397505769038" lon="11.484342719510032"><ele>229.0</ele><time>2026-04-08T11:53:20.999Z</time></trkpt><trkpt lat="43.17408627921217" lon="11.484393673480195"><ele>229.0</ele><time>2026-04-08T11:53:21.999Z</time></trkpt><trkpt lat="43.17419199946497" lon="11.484409654078265"><ele>229.0</ele><time>2026-04-08T11:53:22.999Z</time></trkpt><trkpt lat="43.174297789547566" lon="11.484434550912303"><ele>229.0</ele><time>2026-04-08T11:53:23.999Z</time></trkpt><trkpt lat="43.17441289228582" lon="11.484470990320474"><ele>229.0</ele><time>2026-04-08T11:53:24.999Z</time></trkpt><trkpt lat="43.17452985300902" lon="11.484515575320229"><ele>229.0</ele><time>2026-04-08T11:53:25.999Z</time></trkpt><trkpt lat="43.1746303095468" lon="11.484565230575527"><ele>229.0</ele><time>2026-04-08T11:53:26.999Z</time></trkpt><trkpt lat="43.174737932215955" lon="11.48463240135493"><ele>229.0</ele><time>2026-04-08T11:53:27.999Z</time></trkpt><trkpt lat="43.17484778745462" lon="11.484695877379876"><ele>229.0</ele><time>2026-04-08T11:53:28.999Z</time></trkpt><trkpt lat="43.17496071357294" lon="11.484768992560582"><ele>228.99999999999997</ele><time>2026-04-08T11:53:29.999Z</time></trkpt><trkpt lat="43.175050402601656" lon="11.48483035828051"><ele>229.0</ele><time>2026-04-08T11:53:30.999Z</time></trkpt><trkpt lat="43.17514607819519" lon="11.484890002586825"><ele>229.0</ele><time>2026-04-08T11:53:31.999Z</time></trkpt><trkpt lat="43.175218141578135" lon="11.48494532512169"><ele>229.0</ele><time>2026-04-08T11:53:32.999Z</time></trkpt><trkpt lat="43.175286528488634" lon="11.48497960848885"><ele>228.99999999999997</ele><time>2026-04-08T11:53:33.999Z</time></trkpt><trkpt lat="43.1753565712381" lon="11.485046350501602"><ele>229.0</ele><time>2026-04-08T11:53:36Z</time></trkpt><trkpt lat="43.17541850881153" lon="11.485079014154431"><ele>228.99999999999997</ele><time>2026-04-08T11:53:38Z</time></trkpt><trkpt lat="43.175510643375624" lon="11.484890659240827"><ele>229.0</ele><time>2026-04-08T11:53:39Z</time></trkpt><trkpt lat="43.17556323144001" lon="11.484818194165848"><ele>229.0</ele><time>2026-04-08T11:53:40Z</time></trkpt><trkpt lat="43.17560425774681" lon="11.484737817768444"><ele>229.0</ele><time>2026-04-08T11:53:41Z</time></trkpt><trkpt lat="43.17564452371396" lon="11.484658930760313"><ele>228.99999999999997</ele><time>2026-04-08T11:53:42Z</time></trkpt><trkpt lat="43.17568076175409" lon="11.484584253380916"><ele>229.0</ele><time>2026-04-08T11:53:43Z</time></trkpt><trkpt lat="43.175706070177846" lon="11.484500825952404"><ele>228.99999999999997</ele><time>2026-04-08T11:53:44Z</time></trkpt><trkpt lat="43.17574476683457" lon="11.484415594099415"><ele>229.0</ele><time>2026-04-08T11:53:45Z</time></trkpt><trkpt lat="43.17579062788391" lon="11.484339458263596"><ele>229.0</ele><time>2026-04-08T11:53:46Z</time></trkpt><trkpt lat="43.17580584813202" lon="11.484247234012294"><ele>229.0</ele><time>2026-04-08T11:53:47Z</time></trkpt><trkpt lat="43.17583659971685" lon="11.484161186215488"><ele>228.99999999999997</ele><time>2026-04-08T11:53:48Z</time></trkpt><trkpt lat="43.17582949973479" lon="11.4840460074706"><ele>229.0</ele><time>2026-04-08T11:53:49Z</time></trkpt><trkpt lat="43.17582393739257" lon="11.483919208273193"><ele>228.99999999999997</ele><time>2026-04-08T11:53:50Z</time></trkpt><trkpt lat="43.175821423375176" lon="11.483785293221068"><ele>229.0</ele><time>2026-04-08T11:53:51Z</time></trkpt><trkpt lat="43.175803064108415" lon="11.483672896534635"><ele>229.0</ele><time>2026-04-08T11:53:52Z</time></trkpt><trkpt lat="43.175792875262815" lon="11.483551446998206"><ele>229.0</ele><time>2026-04-08T11:53:53Z</time></trkpt><trkpt lat="43.175786620921166" lon="11.483429108951615"><ele>228.99999999999997</ele><time>2026-04-08T11:53:54Z</time></trkpt><trkpt lat="43.1757760493398" lon="11.483315001398466"><ele>229.0</ele><time>2026-04-08T11:53:55Z</time></trkpt><trkpt lat="43.17576555256401" lon="11.48319044957786"><ele>227.39999999999998</ele><time>2026-04-08T11:53:56Z</time></trkpt><trkpt lat="43.17577132208793" lon="11.483069635521439"><ele>225.79999999999998</ele><time>2026-04-08T11:53:57Z</time></trkpt><trkpt lat="43.1757579141184" lon="11.482932638586833"><ele>224.20000000000002</ele><time>2026-04-08T11:53:59Z</time></trkpt><trkpt lat="43.17573626923371" lon="11.482812014265361"><ele>222.60000000000002</ele><time>2026-04-08T11:54:01Z</time></trkpt><trkpt lat="43.1756799310019" lon="11.48270071444541"><ele>221.0</ele><time>2026-04-08T11:54:03Z</time></trkpt><trkpt lat="43.175626963910425" lon="11.482561762131963"><ele>218.66666666666669</ele><time>2026-04-08T11:54:05Z</time></trkpt><trkpt lat="43.175623810936095" lon="11.482455956941763"><ele>216.33333333333334</ele><time>2026-04-08T11:54:06Z</time></trkpt><trkpt lat="43.17563635177965" lon="11.482340358920542"><ele>214.0</ele><time>2026-04-08T11:54:07Z</time></trkpt><trkpt lat="43.17565858625067" lon="11.48222229413093"><ele>211.66666666666669</ele><time>2026-04-08T11:54:08Z</time></trkpt><trkpt lat="43.17568387979779" lon="11.482099346427137"><ele>209.33333333333334</ele><time>2026-04-08T11:54:09Z</time></trkpt><trkpt lat="43.1757020933709" lon="11.481980401756706"><ele>207.0</ele><time>2026-04-08T11:54:10Z</time></trkpt><trkpt lat="43.17572493693979" lon="11.481877853121816"><ele>207.00000000000003</ele><time>2026-04-08T11:54:11Z</time></trkpt><trkpt lat="43.175753576853445" lon="11.48179600146631"><ele>207.0</ele><time>2026-04-08T11:54:12Z</time></trkpt><trkpt lat="43.17579631501627" lon="11.481717820841235"><ele>207.0</ele><time>2026-04-08T11:54:13Z</time></trkpt><trkpt lat="43.17585168416195" lon="11.481661709272927"><ele>207.0</ele><time>2026-04-08T11:54:14Z</time></trkpt><trkpt lat="43.17590762943957" lon="11.481616244096521"><ele>207.0</ele><time>2026-04-08T11:54:15Z</time></trkpt><trkpt lat="43.175969259519015" lon="11.481542645837159"><ele>207.00000000000003</ele><time>2026-04-08T11:54:16Z</time></trkpt><trkpt lat="43.17602057688974" lon="11.481455387692668"><ele>207.0</ele><time>2026-04-08T11:54:17Z</time></trkpt><trkpt lat="43.1760546727628" lon="11.48135964938601"><ele>205.5</ele><time>2026-04-08T11:54:18Z</time></trkpt><trkpt lat="43.17607861409726" lon="11.481252694090218"><ele>204.0</ele><time>2026-04-08T11:54:19Z</time></trkpt><trkpt lat="43.176103663479125" lon="11.481153195190586"><ele>202.5</ele><time>2026-04-08T11:54:20Z</time></trkpt><trkpt lat="43.176116311497175" lon="11.48105443617811"><ele>201.0</ele><time>2026-04-08T11:54:21Z</time></trkpt><trkpt lat="43.176133302529266" lon="11.480938992177977"><ele>199.5</ele><time>2026-04-08T11:54:22Z</time></trkpt><trkpt lat="43.176145541821136" lon="11.480823596583237"><ele>198.0</ele><time>2026-04-08T11:54:23Z</time></trkpt><trkpt lat="43.17615736739499" lon="11.480721308751656"><ele>198.0</ele><time>2026-04-08T11:54:24Z</time></trkpt><trkpt lat="43.17617185037212" lon="11.48062658508422"><ele>198.0</ele><time>2026-04-08T11:54:25Z</time></trkpt><trkpt lat="43.17617993253067" lon="11.480530605621388"><ele>198.0</ele><time>2026-04-08T11:54:26Z</time></trkpt><trkpt lat="43.1761900971036" lon="11.480441336341928"><ele>198.0</ele><time>2026-04-08T11:54:27Z</time></trkpt><trkpt lat="43.17620324216239" lon="11.480347284023976"><ele>198.0</ele><time>2026-04-08T11:54:28Z</time></trkpt><trkpt lat="43.176228656209545" lon="11.480264508838564"><ele>198.0</ele><time>2026-04-08T11:54:29Z</time></trkpt><trkpt lat="43.17625898918294" lon="11.48018322074879"><ele>198.0</ele><time>2026-04-08T11:54:30Z</time></trkpt><trkpt lat="43.176306581357004" lon="11.480105713885537"><ele>197.5</ele><time>2026-04-08T11:54:31Z</time></trkpt><trkpt lat="43.176366920492065" lon="11.480029605115648"><ele>197.0</ele><time>2026-04-08T11:54:32Z</time></trkpt><trkpt lat="43.176435599078545" lon="11.47994876072639"><ele>196.5</ele><time>2026-04-08T11:54:33Z</time></trkpt><trkpt lat="43.17649569918833" lon="11.479870110526049"><ele>196.0</ele><time>2026-04-08T11:54:34Z</time></trkpt><trkpt lat="43.17655232945594" lon="11.479789081077925"><ele>195.5</ele><time>2026-04-08T11:54:35Z</time></trkpt><trkpt lat="43.176600458604035" lon="11.479706526633993"><ele>195.0</ele><time>2026-04-08T11:54:36Z</time></trkpt><trkpt lat="43.17663953566292" lon="11.479612042666547"><ele>193.66666666666666</ele><time>2026-04-08T11:54:37Z</time></trkpt><trkpt lat="43.17667436814273" lon="11.479516859984999"><ele>192.33333333333334</ele><time>2026-04-08T11:54:38Z</time></trkpt><trkpt lat="43.176699923796946" lon="11.479399095570022"><ele>191.0</ele><time>2026-04-08T11:54:39Z</time></trkpt><trkpt lat="43.17671878696455" lon="11.479262625708273"><ele>189.66666666666669</ele><time>2026-04-08T11:54:40Z</time></trkpt><trkpt lat="43.17671643641417" lon="11.479137079297791"><ele>188.33333333333334</ele><time>2026-04-08T11:54:41Z</time></trkpt><trkpt lat="43.17670558248236" lon="11.479017251277948"><ele>187.0</ele><time>2026-04-08T11:54:42Z</time></trkpt><trkpt lat="43.17668999669529" lon="11.478909292122092"><ele>187.0</ele><time>2026-04-08T11:54:43Z</time></trkpt><trkpt lat="43.17667974132301" lon="11.478791496391608"><ele>187.0</ele><time>2026-04-08T11:54:44Z</time></trkpt><trkpt lat="43.17667315629327" lon="11.478677162636572"><ele>187.0</ele><time>2026-04-08T11:54:45Z</time></trkpt><trkpt lat="43.17666494640353" lon="11.478565235208416"><ele>187.0</ele><time>2026-04-08T11:54:46Z</time></trkpt><trkpt lat="43.176665490672484" lon="11.478441103872465"><ele>187.0</ele><time>2026-04-08T11:54:46.999Z</time></trkpt><trkpt lat="43.17667499443069" lon="11.478327682417309"><ele>187.0</ele><time>2026-04-08T11:54:47.999Z</time></trkpt><trkpt lat="43.176692140531074" lon="11.478201289080284"><ele>185.66666666666669</ele><time>2026-04-08T11:54:48.999Z</time></trkpt><trkpt lat="43.17670902543312" lon="11.478096103924775"><ele>184.33333333333334</ele><time>2026-04-08T11:54:49.999Z</time></trkpt><trkpt lat="43.17672616796039" lon="11.477988021159575"><ele>183.0</ele><time>2026-04-08T11:54:50.999Z</time></trkpt><trkpt lat="43.176745094465616" lon="11.477877801557415"><ele>181.66666666666666</ele><time>2026-04-08T11:54:51.999Z</time></trkpt><trkpt lat="43.17676701844004" lon="11.477780057778489"><ele>180.33333333333331</ele><time>2026-04-08T11:54:52.999Z</time></trkpt><trkpt lat="43.17680453800014" lon="11.47769685015968"><ele>179.0</ele><time>2026-04-08T11:54:53.999Z</time></trkpt><trkpt lat="43.176863191959896" lon="11.477622296653175"><ele>176.5</ele><time>2026-04-08T11:54:54.999Z</time></trkpt><trkpt lat="43.17693842791491" lon="11.477559970197388"><ele>174.0</ele><time>2026-04-08T11:54:55.999Z</time></trkpt><trkpt lat="43.177040030791055" lon="11.477524263068975"><ele>171.5</ele><time>2026-04-08T11:54:56.999Z</time></trkpt><trkpt lat="43.17716595288748" lon="11.47749646414735"><ele>169.0</ele><time>2026-04-08T11:54:57.999Z</time></trkpt><trkpt lat="43.17729693052861" lon="11.477474860703639"><ele>166.33333333333334</ele><time>2026-04-08T11:54:58.999Z</time></trkpt><trkpt lat="43.177448307933645" lon="11.477449206748716"><ele>163.66666666666666</ele><time>2026-04-08T11:54:59.999Z</time></trkpt><trkpt lat="43.17762996924857" lon="11.477417340027955"><ele>161.0</ele><time>2026-04-08T11:55:00.999Z</time></trkpt><trkpt lat="43.177793987305115" lon="11.477391922373364"><ele>161.0</ele><time>2026-04-08T11:55:01.999Z</time></trkpt><trkpt lat="43.177969667857" lon="11.47736616854943"><ele>161.0</ele><time>2026-04-08T11:55:02.999Z</time></trkpt><trkpt lat="43.17814603800926" lon="11.477342091641273"><ele>161.0</ele><time>2026-04-08T11:55:03.999Z</time></trkpt><trkpt lat="43.17830941472489" lon="11.477313776736919"><ele>159.66666666666666</ele><time>2026-04-08T11:55:04.999Z</time></trkpt><trkpt lat="43.178469607066184" lon="11.477283844505234"><ele>158.33333333333334</ele><time>2026-04-08T11:55:05.999Z</time></trkpt><trkpt lat="43.1786215599496" lon="11.477250479447143"><ele>157.0</ele><time>2026-04-08T11:55:06.999Z</time></trkpt><trkpt lat="43.17875731661988" lon="11.477205414436174"><ele>157.0</ele><time>2026-04-08T11:55:07.999Z</time></trkpt><trkpt lat="43.17889385119127" lon="11.47716647655299"><ele>157.0</ele><time>2026-04-08T11:55:08.999Z</time></trkpt><trkpt lat="43.17903258260232" lon="11.477128286571462"><ele>157.0</ele><time>2026-04-08T11:55:09.999Z</time></trkpt><trkpt lat="43.17916820735243" lon="11.477096235138934"><ele>157.0</ele><time>2026-04-08T11:55:10.999Z</time></trkpt><trkpt lat="43.179289920962745" lon="11.477077331230573"><ele>156.5</ele><time>2026-04-08T11:55:11.999Z</time></trkpt><trkpt lat="43.179405357490914" lon="11.477083311893827"><ele>156.0</ele><time>2026-04-08T11:55:12.999Z</time></trkpt><trkpt lat="43.17952082055943" lon="11.477107424202174"><ele>155.5</ele><time>2026-04-08T11:55:13.999Z</time></trkpt><trkpt lat="43.17964940791473" lon="11.47714545996918"><ele>155.0</ele><time>2026-04-08T11:55:14.999Z</time></trkpt><trkpt lat="43.17978994154526" lon="11.477180505318493"><ele>155.0</ele><time>2026-04-08T11:55:15.999Z</time></trkpt><trkpt lat="43.179939501575916" lon="11.477220226902809"><ele>155.0</ele><time>2026-04-08T11:55:16.999Z</time></trkpt><trkpt lat="43.18009103543584" lon="11.477261295349445"><ele>155.0</ele><time>2026-04-08T11:55:17.999Z</time></trkpt><trkpt lat="43.18024241104272" lon="11.477301726972877"><ele>155.0</ele><time>2026-04-08T11:55:18.999Z</time></trkpt><trkpt lat="43.180394016649004" lon="11.477344871559273"><ele>155.0</ele><time>2026-04-08T11:55:19.999Z</time></trkpt><trkpt lat="43.18055289259476" lon="11.477383732548663"><ele>155.0</ele><time>2026-04-08T11:55:20.999Z</time></trkpt><trkpt lat="43.18071626515246" lon="11.47741177390501"><ele>155.33333333333331</ele><time>2026-04-08T11:55:21.999Z</time></trkpt><trkpt lat="43.18088006934241" lon="11.47744358685847"><ele>155.66666666666666</ele><time>2026-04-08T11:55:22.999Z</time></trkpt><trkpt lat="43.18104368748899" lon="11.477477348965074"><ele>156.0</ele><time>2026-04-08T11:55:23.999Z</time></trkpt><trkpt lat="43.18120374837975" lon="11.477518312650497"><ele>156.0</ele><time>2026-04-08T11:55:24.999Z</time></trkpt><trkpt lat="43.181364779582715" lon="11.477561004768331"><ele>156.0</ele><time>2026-04-08T11:55:25.999Z</time></trkpt><trkpt lat="43.18151382512447" lon="11.477606414043125"><ele>156.0</ele><time>2026-04-08T11:55:26.999Z</time></trkpt><trkpt lat="43.18164896497038" lon="11.477641828941449"><ele>156.0</ele><time>2026-04-08T11:55:27.999Z</time></trkpt><trkpt lat="43.181773551857155" lon="11.47768089728585"><ele>156.0</ele><time>2026-04-08T11:55:28.999Z</time></trkpt><trkpt lat="43.18189427808733" lon="11.477711323485936"><ele>156.0</ele><time>2026-04-08T11:55:29.999Z</time></trkpt><trkpt lat="43.18200830229753" lon="11.477754182788127"><ele>156.0</ele><time>2026-04-08T11:55:30.999Z</time></trkpt><trkpt lat="43.1821155530315" lon="11.477792505888043"><ele>156.0</ele><time>2026-04-08T11:55:31.999Z</time></trkpt><trkpt lat="43.18221903401805" lon="11.477821613063774"><ele>156.0</ele><time>2026-04-08T11:55:32.999Z</time></trkpt><trkpt lat="43.18231172085621" lon="11.477834882211559"><ele>156.0</ele><time>2026-04-08T11:55:33.999Z</time></trkpt><trkpt lat="43.1824002323436" lon="11.477850553215944"><ele>156.0</ele><time>2026-04-08T11:55:34.999Z</time></trkpt><trkpt lat="43.18249070456202" lon="11.477772542619915"><ele>156.0</ele><time>2026-04-08T11:55:35.999Z</time></trkpt><trkpt lat="43.182577923153254" lon="11.477693908147506"><ele>155.75</ele><time>2026-04-08T11:55:36.999Z</time></trkpt><trkpt lat="43.18268475814997" lon="11.477599952506033"><ele>155.5</ele><time>2026-04-08T11:55:37.999Z</time></trkpt><trkpt lat="43.18279454461179" lon="11.477498730965642"><ele>155.25</ele><time>2026-04-08T11:55:38.999Z</time></trkpt><trkpt lat="43.1829089204115" lon="11.477403765985123"><ele>155.0</ele><time>2026-04-08T11:55:39.999Z</time></trkpt><trkpt lat="43.18302505425229" lon="11.477310590538755"><ele>155.0</ele><time>2026-04-08T11:55:41Z</time></trkpt><trkpt lat="43.18314768574171" lon="11.477210747596375"><ele>155.0</ele><time>2026-04-08T11:55:42Z</time></trkpt><trkpt lat="43.18327599854887" lon="11.47711006856734"><ele>155.0</ele><time>2026-04-08T11:55:43Z</time></trkpt><trkpt lat="43.18341307583729" lon="11.477000343385818"><ele>155.0</ele><time>2026-04-08T11:55:44Z</time></trkpt><trkpt lat="43.1835494021697" lon="11.476890116696213"><ele>154.33333333333331</ele><time>2026-04-08T11:55:45Z</time></trkpt><trkpt lat="43.18369144183027" lon="11.476774687475833"><ele>153.66666666666666</ele><time>2026-04-08T11:55:46Z</time></trkpt><trkpt lat="43.18383795046053" lon="11.476658185414964"><ele>153.0</ele><time>2026-04-08T11:55:47Z</time></trkpt><trkpt lat="43.18398346148708" lon="11.47653863646564"><ele>153.33333333333334</ele><time>2026-04-08T11:55:48Z</time></trkpt><trkpt lat="43.18413529592348" lon="11.47642367413817"><ele>153.66666666666669</ele><time>2026-04-08T11:55:49Z</time></trkpt><trkpt lat="43.18429032774754" lon="11.47629873060962"><ele>154.0</ele><time>2026-04-08T11:55:50Z</time></trkpt><trkpt lat="43.18444384910733" lon="11.476173436771962"><ele>154.0</ele><time>2026-04-08T11:55:51Z</time></trkpt><trkpt lat="43.18459053620073" lon="11.476057710902648"><ele>154.0</ele><time>2026-04-08T11:55:52Z</time></trkpt><trkpt lat="43.18474123327193" lon="11.475939003200647"><ele>154.0</ele><time>2026-04-08T11:55:53Z</time></trkpt><trkpt lat="43.18488746225616" lon="11.475814277269475"><ele>154.33333333333334</ele><time>2026-04-08T11:55:54Z</time></trkpt><trkpt lat="43.185033465138694" lon="11.475691105894134"><ele>154.66666666666666</ele><time>2026-04-08T11:55:55Z</time></trkpt><trkpt lat="43.18517066075809" lon="11.475573980394607"><ele>155.0</ele><time>2026-04-08T11:55:56Z</time></trkpt><trkpt lat="43.18529860858826" lon="11.475463463406717"><ele>154.66666666666666</ele><time>2026-04-08T11:55:57Z</time></trkpt><trkpt lat="43.1854357057439" lon="11.475348388101745"><ele>154.33333333333334</ele><time>2026-04-08T11:55:58Z</time></trkpt><trkpt lat="43.185565330367474" lon="11.475246120183773"><ele>154.0</ele><time>2026-04-08T11:55:59Z</time></trkpt><trkpt lat="43.1856881863615" lon="11.47514722889306"><ele>154.0</ele><time>2026-04-08T11:56:00Z</time></trkpt><trkpt lat="43.18579376518279" lon="11.47505527339944"><ele>154.0</ele><time>2026-04-08T11:56:01Z</time></trkpt><trkpt lat="43.18589189198998" lon="11.47498094178177"><ele>154.0</ele><time>2026-04-08T11:56:02Z</time></trkpt><trkpt lat="43.18599908371245" lon="11.474910705714628"><ele>154.0</ele><time>2026-04-08T11:56:03Z</time></trkpt><trkpt lat="43.18609927057421" lon="11.47486315475621"><ele>154.0</ele><time>2026-04-08T11:56:04Z</time></trkpt><trkpt lat="43.186194947048975" lon="11.474833078718973"><ele>154.0</ele><time>2026-04-08T11:56:05Z</time></trkpt><trkpt lat="43.18630082477488" lon="11.474848318323188"><ele>154.0</ele><time>2026-04-08T11:56:06Z</time></trkpt><trkpt lat="43.186415959052624" lon="11.474850019382629"><ele>154.0</ele><time>2026-04-08T11:56:07Z</time></trkpt><trkpt lat="43.18654785378173" lon="11.474829255104822"><ele>154.25</ele><time>2026-04-08T11:56:08Z</time></trkpt><trkpt lat="43.186680444578286" lon="11.474837679914353"><ele>154.5</ele><time>2026-04-08T11:56:09Z</time></trkpt><trkpt lat="43.18681430366815" lon="11.474808895754137"><ele>154.75</ele><time>2026-04-08T11:56:10Z</time></trkpt><trkpt lat="43.18693930589925" lon="11.474788664961999"><ele>155.0</ele><time>2026-04-08T11:56:11Z</time></trkpt><trkpt lat="43.18704354173986" lon="11.474771296230484"><ele>155.0</ele><time>2026-04-08T11:56:12Z</time></trkpt><trkpt lat="43.18713330848543" lon="11.474768656901027"><ele>155.0</ele><time>2026-04-08T11:56:13Z</time></trkpt><trkpt lat="43.18721512370643" lon="11.474771048487552"><ele>155.0</ele><time>2026-04-08T11:56:14Z</time></trkpt><trkpt lat="43.18729732643478" lon="11.474777892826195"><ele>155.0</ele><time>2026-04-08T11:56:15Z</time></trkpt><trkpt lat="43.18737891066865" lon="11.47483468605761"><ele>155.0</ele><time>2026-04-08T11:56:16Z</time></trkpt><trkpt lat="43.1874651467184" lon="11.474872785139278"><ele>155.0</ele><time>2026-04-08T11:56:17Z</time></trkpt><trkpt lat="43.18752723126301" lon="11.47493227179116"><ele>155.57142857142858</ele><time>2026-04-08T11:56:18Z</time></trkpt><trkpt lat="43.1875954668928" lon="11.474969941076013"><ele>156.14285714285714</ele><time>2026-04-08T11:56:19Z</time></trkpt><trkpt lat="43.18766807423973" lon="11.474999037555968"><ele>156.71428571428572</ele><time>2026-04-08T11:56:20Z</time></trkpt><trkpt lat="43.18773171859281" lon="11.475022270686427"><ele>157.28571428571428</ele><time>2026-04-08T11:56:21Z</time></trkpt><trkpt lat="43.18779032903153" lon="11.4749903184896"><ele>157.85714285714286</ele><time>2026-04-08T11:56:22Z</time></trkpt><trkpt lat="43.187838865804245" lon="11.474916879176119"><ele>158.42857142857142</ele><time>2026-04-08T11:56:23Z</time></trkpt><trkpt lat="43.18789744460109" lon="11.4748644640632"><ele>159.0</ele><time>2026-04-08T11:56:24Z</time></trkpt><trkpt lat="43.187929224708455" lon="11.474769517374783"><ele>159.0</ele><time>2026-04-08T11:56:25Z</time></trkpt><trkpt lat="43.187932918295125" lon="11.47466264917774"><ele>159.0</ele><time>2026-04-08T11:56:26Z</time></trkpt><trkpt lat="43.18796189412909" lon="11.474568405291082"><ele>159.0</ele><time>2026-04-08T11:56:27Z</time></trkpt><trkpt lat="43.18799763785538" lon="11.474474445871675"><ele>159.0</ele><time>2026-04-08T11:56:28Z</time></trkpt><trkpt lat="43.18804751445424" lon="11.47437757762713"><ele>159.0</ele><time>2026-04-08T11:56:29Z</time></trkpt><trkpt lat="43.188113056763704" lon="11.474305937874036"><ele>159.0</ele><time>2026-04-08T11:56:30Z</time></trkpt><trkpt lat="43.18819573548998" lon="11.47424571746632"><ele>160.2</ele><time>2026-04-08T11:56:31Z</time></trkpt><trkpt lat="43.18829044564527" lon="11.474180500980944"><ele>161.4</ele><time>2026-04-08T11:56:32Z</time></trkpt><trkpt lat="43.18837404419044" lon="11.474099422531555"><ele>162.6</ele><time>2026-04-08T11:56:33Z</time></trkpt><trkpt lat="43.18843724712005" lon="11.474007739890398"><ele>163.8</ele><time>2026-04-08T11:56:34Z</time></trkpt><trkpt lat="43.188494882476554" lon="11.473932146869434"><ele>165.0</ele><time>2026-04-08T11:56:35Z</time></trkpt><trkpt lat="43.18851896300656" lon="11.473823787895189"><ele>165.0</ele><time>2026-04-08T11:56:36Z</time></trkpt><trkpt lat="43.18855569400276" lon="11.473725565323402"><ele>165.0</ele><time>2026-04-08T11:56:37Z</time></trkpt><trkpt lat="43.18859729194151" lon="11.47361932637484"><ele>165.0</ele><time>2026-04-08T11:56:38Z</time></trkpt><trkpt lat="43.18863714919077" lon="11.473499631625414"><ele>165.0</ele><time>2026-04-08T11:56:39Z</time></trkpt><trkpt lat="43.188675250102946" lon="11.47337729585489"><ele>165.0</ele><time>2026-04-08T11:56:40Z</time></trkpt><trkpt lat="43.1887188519178" lon="11.473257678239856"><ele>165.0</ele><time>2026-04-08T11:56:41Z</time></trkpt><trkpt lat="43.18877253882809" lon="11.473132786349382"><ele>165.0</ele><time>2026-04-08T11:56:42Z</time></trkpt><trkpt lat="43.18882910165475" lon="11.473004273939539"><ele>165.0</ele><time>2026-04-08T11:56:43Z</time></trkpt><trkpt lat="43.188894265260195" lon="11.472856095947066"><ele>165.0</ele><time>2026-04-08T11:56:44Z</time></trkpt><trkpt lat="43.18895471935246" lon="11.472697956158994"><ele>165.4</ele><time>2026-04-08T11:56:45Z</time></trkpt><trkpt lat="43.18900733922006" lon="11.47253438641185"><ele>165.8</ele><time>2026-04-08T11:56:46Z</time></trkpt><trkpt lat="43.1890372031374" lon="11.472397486772596"><ele>166.2</ele><time>2026-04-08T11:56:47Z</time></trkpt><trkpt lat="43.18906680095973" lon="11.47226441651467"><ele>166.6</ele><time>2026-04-08T11:56:48Z</time></trkpt><trkpt lat="43.189108274640844" lon="11.472141596433929"><ele>167.0</ele><time>2026-04-08T11:56:49Z</time></trkpt><trkpt lat="43.18915111410796" lon="11.472004765545986"><ele>167.0</ele><time>2026-04-08T11:56:50Z</time></trkpt><trkpt lat="43.18918334270397" lon="11.471886450186432"><ele>167.0</ele><time>2026-04-08T11:56:51Z</time></trkpt><trkpt lat="43.18922367141359" lon="11.47178034921332"><ele>167.0</ele><time>2026-04-08T11:56:52Z</time></trkpt><trkpt lat="43.18928017536681" lon="11.471664809073994"><ele>167.0</ele><time>2026-04-08T11:56:53Z</time></trkpt><trkpt lat="43.189353520025286" lon="11.471549603160252"><ele>167.0</ele><time>2026-04-08T11:56:54Z</time></trkpt><trkpt lat="43.189439062138824" lon="11.471450416773349"><ele>167.0</ele><time>2026-04-08T11:56:55Z</time></trkpt><trkpt lat="43.18952490171972" lon="11.471372157187956"><ele>167.0</ele><time>2026-04-08T11:56:56Z</time></trkpt><trkpt lat="43.18961638327802" lon="11.471302473753026"><ele>167.0</ele><time>2026-04-08T11:56:57Z</time></trkpt><trkpt lat="43.18971934501224" lon="11.47123820892302"><ele>167.0</ele><time>2026-04-08T11:56:58Z</time></trkpt><trkpt lat="43.189830387976336" lon="11.47117541377355"><ele>167.0</ele><time>2026-04-08T11:56:59Z</time></trkpt><trkpt lat="43.1899316656749" lon="11.471116505009407"><ele>166.6</ele><time>2026-04-08T11:57:00Z</time></trkpt><trkpt lat="43.19001990239701" lon="11.471070943525575"><ele>166.2</ele><time>2026-04-08T11:57:01Z</time></trkpt><trkpt lat="43.19011576750839" lon="11.470999575664852"><ele>165.8</ele><time>2026-04-08T11:57:02Z</time></trkpt><trkpt lat="43.19019974871971" lon="11.470927033472499"><ele>165.4</ele><time>2026-04-08T11:57:03Z</time></trkpt><trkpt lat="43.19029339775349" lon="11.470827770140525"><ele>165.0</ele><time>2026-04-08T11:57:04Z</time></trkpt><trkpt lat="43.19038222169459" lon="11.470723315787286"><ele>165.0</ele><time>2026-04-08T11:57:05Z</time></trkpt><trkpt lat="43.190466385752416" lon="11.470627146555369"><ele>165.0</ele><time>2026-04-08T11:57:05.999Z</time></trkpt><trkpt lat="43.1905426078339" lon="11.470527983020947"><ele>165.0</ele><time>2026-04-08T11:57:06.999Z</time></trkpt><trkpt lat="43.19060729918777" lon="11.470447152832195"><ele>165.0</ele><time>2026-04-08T11:57:07.999Z</time></trkpt><trkpt lat="43.1906834406156" lon="11.47036091247177"><ele>165.0</ele><time>2026-04-08T11:57:08.999Z</time></trkpt><trkpt lat="43.19075339146295" lon="11.470263907058504"><ele>164.25</ele><time>2026-04-08T11:57:09.999Z</time></trkpt><trkpt lat="43.19081929961634" lon="11.470143495431257"><ele>163.5</ele><time>2026-04-08T11:57:10.999Z</time></trkpt><trkpt lat="43.19087603009418" lon="11.470013310220907"><ele>162.75</ele><time>2026-04-08T11:57:11.999Z</time></trkpt><trkpt lat="43.190936183150875" lon="11.469876417748265"><ele>162.0</ele><time>2026-04-08T11:57:12.999Z</time></trkpt><trkpt lat="43.19099952082336" lon="11.469738857995052"><ele>161.0</ele><time>2026-04-08T11:57:13.999Z</time></trkpt><trkpt lat="43.19105883534913" lon="11.469595981853761"><ele>160.0</ele><time>2026-04-08T11:57:14.999Z</time></trkpt><trkpt lat="43.19111175843668" lon="11.469451290275462"><ele>159.0</ele><time>2026-04-08T11:57:15.999Z</time></trkpt><trkpt lat="43.19115764060867" lon="11.46932700004516"><ele>158.0</ele><time>2026-04-08T11:57:16.999Z</time></trkpt><trkpt lat="43.19121059970989" lon="11.469209863012527"><ele>157.0</ele><time>2026-04-08T11:57:17.999Z</time></trkpt><trkpt lat="43.19127232059001" lon="11.469099608184859"><ele>157.0</ele><time>2026-04-08T11:57:18.999Z</time></trkpt><trkpt lat="43.19135243304366" lon="11.468995133583281"><ele>157.0</ele><time>2026-04-08T11:57:19.999Z</time></trkpt><trkpt lat="43.19144427965087" lon="11.468900876989398"><ele>157.0</ele><time>2026-04-08T11:57:20.999Z</time></trkpt><trkpt lat="43.19154880078394" lon="11.468814592600282"><ele>157.0</ele><time>2026-04-08T11:57:21.999Z</time></trkpt><trkpt lat="43.19163592921526" lon="11.468729907410113"><ele>157.4</ele><time>2026-04-08T11:57:22.999Z</time></trkpt><trkpt lat="43.19172742047113" lon="11.46865055459593"><ele>157.79999999999998</ele><time>2026-04-08T11:57:23.999Z</time></trkpt><trkpt lat="43.191815653127684" lon="11.468569635684059"><ele>158.2</ele><time>2026-04-08T11:57:24.999Z</time></trkpt><trkpt lat="43.191909074549244" lon="11.468484955100516"><ele>158.6</ele><time>2026-04-08T11:57:25.999Z</time></trkpt><trkpt lat="43.19200035925029" lon="11.468393896621125"><ele>159.0</ele><time>2026-04-08T11:57:26.999Z</time></trkpt><trkpt lat="43.192099428984335" lon="11.468302696632646"><ele>159.0</ele><time>2026-04-08T11:57:27.999Z</time></trkpt><trkpt lat="43.19218876302399" lon="11.468202989659142"><ele>159.0</ele><time>2026-04-08T11:57:28.999Z</time></trkpt><trkpt lat="43.19228792415692" lon="11.468103295909213"><ele>159.0</ele><time>2026-04-08T11:57:29.999Z</time></trkpt><trkpt lat="43.19238915409953" lon="11.468010560328366"><ele>159.0</ele><time>2026-04-08T11:57:30.999Z</time></trkpt><trkpt lat="43.192494215003826" lon="11.467908388458994"><ele>158.25</ele><time>2026-04-08T11:57:31.999Z</time></trkpt><trkpt lat="43.19260208767738" lon="11.467800024109746"><ele>157.5</ele><time>2026-04-08T11:57:32.999Z</time></trkpt><trkpt lat="43.19271241473248" lon="11.467686242662893"><ele>156.75</ele><time>2026-04-08T11:57:33.999Z</time></trkpt><trkpt lat="43.19282841482995" lon="11.467574462170004"><ele>156.0</ele><time>2026-04-08T11:57:34.999Z</time></trkpt><trkpt lat="43.19294606556517" lon="11.467462117202619"><ele>156.0</ele><time>2026-04-08T11:57:35.999Z</time></trkpt><trkpt lat="43.19304867752415" lon="11.46736353588835"><ele>156.0</ele><time>2026-04-08T11:57:36.999Z</time></trkpt><trkpt lat="43.19315175368387" lon="11.46726279039119"><ele>156.0</ele><time>2026-04-08T11:57:37.999Z</time></trkpt><trkpt lat="43.1932601484707" lon="11.467156336677233"><ele>156.0</ele><time>2026-04-08T11:57:38.999Z</time></trkpt><trkpt lat="43.19337570147702" lon="11.467049769953082"><ele>156.0</ele><time>2026-04-08T11:57:39.999Z</time></trkpt><trkpt lat="43.193495564581056" lon="11.466940866185494"><ele>156.0</ele><time>2026-04-08T11:57:40.999Z</time></trkpt><trkpt lat="43.19361130600214" lon="11.466830501537144"><ele>156.0</ele><time>2026-04-08T11:57:41.999Z</time></trkpt><trkpt lat="43.19371568411002" lon="11.466737663451804"><ele>156.0</ele><time>2026-04-08T11:57:42.999Z</time></trkpt><trkpt lat="43.193820535663946" lon="11.466643598362992"><ele>156.0</ele><time>2026-04-08T11:57:43.999Z</time></trkpt><trkpt lat="43.1939282402282" lon="11.466540064048525"><ele>156.0</ele><time>2026-04-08T11:57:44.999Z</time></trkpt><trkpt lat="43.19405135614934" lon="11.466434822087967"><ele>156.0</ele><time>2026-04-08T11:57:45.999Z</time></trkpt><trkpt lat="43.19417825233219" lon="11.466319092120846"><ele>156.0</ele><time>2026-04-08T11:57:47Z</time></trkpt><trkpt lat="43.194310957352215" lon="11.466201217013301"><ele>155.8</ele><time>2026-04-08T11:57:48Z</time></trkpt><trkpt lat="43.19442152396119" lon="11.466106040649208"><ele>155.6</ele><time>2026-04-08T11:57:49Z</time></trkpt><trkpt lat="43.194499785541396" lon="11.466006061192326"><ele>155.4</ele><time>2026-04-08T11:57:50Z</time></trkpt><trkpt lat="43.194577543401614" lon="11.465934706932304"><ele>155.2</ele><time>2026-04-08T11:57:51Z</time></trkpt><trkpt lat="43.194648738543904" lon="11.465867327600177"><ele>155.0</ele><time>2026-04-08T11:57:52Z</time></trkpt><trkpt lat="43.19471123999358" lon="11.465805556432308"><ele>155.0</ele><time>2026-04-08T11:57:53Z</time></trkpt><trkpt lat="43.194800562246265" lon="11.465715888905196"><ele>155.0</ele><time>2026-04-08T11:57:55Z</time></trkpt><trkpt lat="43.19486584479323" lon="11.465680960470582"><ele>155.0</ele><time>2026-04-08T11:57:58Z</time></trkpt><trkpt lat="43.19493750085753" lon="11.465841786625642"><ele>155.0</ele><time>2026-04-08T11:58:00Z</time></trkpt><trkpt lat="43.19499018352231" lon="11.465914106274129"><ele>155.0</ele><time>2026-04-08T11:58:01Z</time></trkpt><trkpt lat="43.19506246227703" lon="11.465981978665702"><ele>155.0</ele><time>2026-04-08T11:58:02Z</time></trkpt><trkpt lat="43.19512498160396" lon="11.466073710029152"><ele>155.0</ele><time>2026-04-08T11:58:03Z</time></trkpt><trkpt lat="43.19519302912982" lon="11.466166390045787"><ele>155.0</ele><time>2026-04-08T11:58:04Z</time></trkpt><trkpt lat="43.195262633843" lon="11.46626680746393"><ele>155.0</ele><time>2026-04-08T11:58:05Z</time></trkpt><trkpt lat="43.19532329615177" lon="11.466362041112076"><ele>155.0</ele><time>2026-04-08T11:58:06Z</time></trkpt><trkpt lat="43.19536949679926" lon="11.466447057555625"><ele>155.6</ele><time>2026-04-08T11:58:07Z</time></trkpt><trkpt lat="43.195397745571015" lon="11.466550001858558"><ele>156.2</ele><time>2026-04-08T11:58:08Z</time></trkpt><trkpt lat="43.19541760006992" lon="11.46667474838606"><ele>156.8</ele><time>2026-04-08T11:58:09Z</time></trkpt><trkpt lat="43.195436097102316" lon="11.466798636967594"><ele>157.4</ele><time>2026-04-08T11:58:10Z</time></trkpt><trkpt lat="43.19545428634531" lon="11.4669334768247"><ele>158.0</ele><time>2026-04-08T11:58:11Z</time></trkpt><trkpt lat="43.19546809547237" lon="11.467077816803272"><ele>158.33333333333331</ele><time>2026-04-08T11:58:12Z</time></trkpt><trkpt lat="43.195489130186196" lon="11.467217365467913"><ele>158.66666666666666</ele><time>2026-04-08T11:58:13Z</time></trkpt><trkpt lat="43.195508258945715" lon="11.46733996760584"><ele>159.0</ele><time>2026-04-08T11:58:14Z</time></trkpt><trkpt lat="43.195532971887914" lon="11.467433588863246"><ele>159.33333333333334</ele><time>2026-04-08T11:58:15Z</time></trkpt><trkpt lat="43.195574438084584" lon="11.46753027718772"><ele>159.66666666666669</ele><time>2026-04-08T11:58:16Z</time></trkpt><trkpt lat="43.19563479153524" lon="11.46760657542211"><ele>160.0</ele><time>2026-04-08T11:58:17Z</time></trkpt><trkpt lat="43.195704701279105" lon="11.467650000981092"><ele>160.83333333333334</ele><time>2026-04-08T11:58:18Z</time></trkpt><trkpt lat="43.195785138548295" lon="11.467675704174306"><ele>161.66666666666669</ele><time>2026-04-08T11:58:19Z</time></trkpt><trkpt lat="43.195869587192135" lon="11.467697396091763"><ele>162.5</ele><time>2026-04-08T11:58:20Z</time></trkpt><trkpt lat="43.19595404743829" lon="11.467725813277879"><ele>163.33333333333334</ele><time>2026-04-08T11:58:21Z</time></trkpt><trkpt lat="43.19603734665754" lon="11.467766743038544"><ele>164.16666666666666</ele><time>2026-04-08T11:58:22Z</time></trkpt><trkpt lat="43.19611030881955" lon="11.4678210597633"><ele>165.0</ele><time>2026-04-08T11:58:23Z</time></trkpt><trkpt lat="43.196182459725236" lon="11.46788592110981"><ele>165.4</ele><time>2026-04-08T11:58:24Z</time></trkpt><trkpt lat="43.19625481139296" lon="11.467970030238353"><ele>165.8</ele><time>2026-04-08T11:58:25Z</time></trkpt><trkpt lat="43.196322742383494" lon="11.468061822768508"><ele>166.2</ele><time>2026-04-08T11:58:26Z</time></trkpt><trkpt lat="43.196389095307104" lon="11.46816232989892"><ele>166.6</ele><time>2026-04-08T11:58:27Z</time></trkpt><trkpt lat="43.1964529470159" lon="11.468278148612773"><ele>167.0</ele><time>2026-04-08T11:58:28Z</time></trkpt><trkpt lat="43.19650995087416" lon="11.46837985736568"><ele>168.33333333333331</ele><time>2026-04-08T11:58:29Z</time></trkpt><trkpt lat="43.19655378310011" lon="11.468469941455133"><ele>169.66666666666666</ele><time>2026-04-08T11:58:30Z</time></trkpt><trkpt lat="43.196588003799256" lon="11.468578412893725"><ele>171.0</ele><time>2026-04-08T11:58:31Z</time></trkpt><trkpt lat="43.19658858069378" lon="11.468705317215504"><ele>172.33333333333334</ele><time>2026-04-08T11:58:32Z</time></trkpt><trkpt lat="43.19661908001987" lon="11.468826939796092"><ele>173.66666666666669</ele><time>2026-04-08T11:58:33Z</time></trkpt><trkpt lat="43.19663840768582" lon="11.468934458806745"><ele>175.0</ele><time>2026-04-08T11:58:34Z</time></trkpt><trkpt lat="43.19667914909879" lon="11.469030167144368"><ele>176.2</ele><time>2026-04-08T11:58:35Z</time></trkpt><trkpt lat="43.19673847238422" lon="11.469129322982086"><ele>177.4</ele><time>2026-04-08T11:58:36Z</time></trkpt><trkpt lat="43.196801137758015" lon="11.46921331133117"><ele>178.60000000000002</ele><time>2026-04-08T11:58:37Z</time></trkpt><trkpt lat="43.19687040008431" lon="11.469323673434348"><ele>179.8</ele><time>2026-04-08T11:58:38Z</time></trkpt><trkpt lat="43.19693710317189" lon="11.46943499361012"><ele>181.0</ele><time>2026-04-08T11:58:39Z</time></trkpt><trkpt lat="43.196994873448666" lon="11.469559386132131"><ele>181.20000000000002</ele><time>2026-04-08T11:58:40Z</time></trkpt><trkpt lat="43.19704876970195" lon="11.469688911108548"><ele>181.4</ele><time>2026-04-08T11:58:41Z</time></trkpt><trkpt lat="43.19710229098663" lon="11.469819451153697"><ele>181.6</ele><time>2026-04-08T11:58:42Z</time></trkpt><trkpt lat="43.19713802557972" lon="11.469919075060762"><ele>181.8</ele><time>2026-04-08T11:58:43Z</time></trkpt><trkpt lat="43.19717563017376" lon="11.470033340370525"><ele>182.0</ele><time>2026-04-08T11:58:44Z</time></trkpt><trkpt lat="43.19721193872324" lon="11.470144685751308"><ele>182.0</ele><time>2026-04-08T11:58:45Z</time></trkpt><trkpt lat="43.197249195405206" lon="11.470259953821891"><ele>182.0</ele><time>2026-04-08T11:58:46Z</time></trkpt><trkpt lat="43.197287117690706" lon="11.470345391791849"><ele>182.0</ele><time>2026-04-08T11:58:47Z</time></trkpt><trkpt lat="43.19736830829351" lon="11.470463983974296"><ele>182.0</ele><time>2026-04-08T11:58:49Z</time></trkpt><trkpt lat="43.19742514135021" lon="11.470534690427925"><ele>182.0</ele><time>2026-04-08T11:58:50Z</time></trkpt><trkpt lat="43.1975051742848" lon="11.470560910476882"><ele>182.0</ele><time>2026-04-08T11:58:51Z</time></trkpt><trkpt lat="43.197586653976366" lon="11.47058734576349"><ele>185.6</ele><time>2026-04-08T11:58:52Z</time></trkpt><trkpt lat="43.19767355063335" lon="11.47059702326744"><ele>189.2</ele><time>2026-04-08T11:58:53Z</time></trkpt><trkpt lat="43.197760291777534" lon="11.470602151470244"><ele>192.8</ele><time>2026-04-08T11:58:54Z</time></trkpt><trkpt lat="43.19784731221717" lon="11.470641262072268"><ele>196.4</ele><time>2026-04-08T11:58:55Z</time></trkpt><trkpt lat="43.19793526283309" lon="11.470671452681524"><ele>200.0</ele><time>2026-04-08T11:58:56Z</time></trkpt><trkpt lat="43.19801979330641" lon="11.47073548698539"><ele>200.0</ele><time>2026-04-08T11:58:57Z</time></trkpt><trkpt lat="43.19811136690604" lon="11.470796014801536"><ele>200.0</ele><time>2026-04-08T11:58:58Z</time></trkpt><trkpt lat="43.19819178244692" lon="11.470884570007739"><ele>200.0</ele><time>2026-04-08T11:58:59Z</time></trkpt><trkpt lat="43.19825836866654" lon="11.470968043674567"><ele>200.0</ele><time>2026-04-08T11:59:00Z</time></trkpt><trkpt lat="43.19830921194466" lon="11.471061227500355"><ele>200.0</ele><time>2026-04-08T11:59:01Z</time></trkpt><trkpt lat="43.19836637719595" lon="11.471180320017302"><ele>202.0</ele><time>2026-04-08T11:59:02Z</time></trkpt><trkpt lat="43.19843679120943" lon="11.471338347384464"><ele>204.0</ele><time>2026-04-08T11:59:03Z</time></trkpt><trkpt lat="43.198470434733935" lon="11.471467736590972"><ele>206.0</ele><time>2026-04-08T11:59:04Z</time></trkpt><trkpt lat="43.19849208866449" lon="11.471579275606596"><ele>208.0</ele><time>2026-04-08T11:59:05Z</time></trkpt><trkpt lat="43.19851543978202" lon="11.471706256066726"><ele>210.0</ele><time>2026-04-08T11:59:06Z</time></trkpt><trkpt lat="43.19852870203972" lon="11.47184548276183"><ele>210.0</ele><time>2026-04-08T11:59:07Z</time></trkpt><trkpt lat="43.19853257863185" lon="11.47199943793656"><ele>210.0</ele><time>2026-04-08T11:59:08Z</time></trkpt><trkpt lat="43.19851824251822" lon="11.472155561922978"><ele>210.0</ele><time>2026-04-08T11:59:09Z</time></trkpt><trkpt lat="43.19849920436601" lon="11.472332037171613"><ele>210.0</ele><time>2026-04-08T11:59:10Z</time></trkpt><trkpt lat="43.19848216189073" lon="11.472494818517728"><ele>210.6</ele><time>2026-04-08T11:59:11Z</time></trkpt><trkpt lat="43.19846917628583" lon="11.472625262643893"><ele>211.2</ele><time>2026-04-08T11:59:12Z</time></trkpt><trkpt lat="43.198479562981674" lon="11.472755014090636"><ele>211.8</ele><time>2026-04-08T11:59:13Z</time></trkpt><trkpt lat="43.19849877794106" lon="11.472871871789078"><ele>212.4</ele><time>2026-04-08T11:59:13.999Z</time></trkpt><trkpt lat="43.198545754995585" lon="11.472991553950626"><ele>213.0</ele><time>2026-04-08T11:59:14.999Z</time></trkpt><trkpt lat="43.19860538665423" lon="11.473121610002728"><ele>213.2</ele><time>2026-04-08T11:59:15.999Z</time></trkpt><trkpt lat="43.19866236204481" lon="11.473229960657982"><ele>213.4</ele><time>2026-04-08T11:59:16.999Z</time></trkpt><trkpt lat="43.198714818059116" lon="11.473329684048243"><ele>213.59999999999997</ele><time>2026-04-08T11:59:17.999Z</time></trkpt><trkpt lat="43.19876823089836" lon="11.4734400908907"><ele>213.79999999999998</ele><time>2026-04-08T11:59:18.999Z</time></trkpt><trkpt lat="43.19881428296734" lon="11.47353831962684"><ele>214.0</ele><time>2026-04-08T11:59:19.999Z</time></trkpt><trkpt lat="43.19884354268489" lon="11.473644624814634"><ele>212.2</ele><time>2026-04-08T11:59:20.999Z</time></trkpt><trkpt lat="43.19886206663041" lon="11.473776532509408"><ele>210.39999999999998</ele><time>2026-04-08T11:59:21.999Z</time></trkpt><trkpt lat="43.19886388706303" lon="11.473922298206904"><ele>208.6</ele><time>2026-04-08T11:59:22.999Z</time></trkpt><trkpt lat="43.19885444961357" lon="11.474072468713"><ele>206.8</ele><time>2026-04-08T11:59:23.999Z</time></trkpt><trkpt lat="43.19885395247424" lon="11.474195449541986"><ele>205.0</ele><time>2026-04-08T11:59:24.999Z</time></trkpt><trkpt lat="43.19886865788766" lon="11.474311364888052"><ele>205.0</ele><time>2026-04-08T11:59:25.999Z</time></trkpt><trkpt lat="43.198898059026426" lon="11.474421404435816"><ele>205.0</ele><time>2026-04-08T11:59:26.999Z</time></trkpt><trkpt lat="43.198944958219634" lon="11.474544463734714"><ele>205.0</ele><time>2026-04-08T11:59:27.999Z</time></trkpt><trkpt lat="43.19900829004245" lon="11.474662895847668"><ele>205.0</ele><time>2026-04-08T11:59:28.999Z</time></trkpt><trkpt lat="43.199080692099756" lon="11.47479514913662"><ele>205.0</ele><time>2026-04-08T11:59:29.999Z</time></trkpt><trkpt lat="43.19916117661363" lon="11.474926702856129"><ele>203.8</ele><time>2026-04-08T11:59:30.999Z</time></trkpt><trkpt lat="43.19923646123376" lon="11.4750708735009"><ele>202.6</ele><time>2026-04-08T11:59:31.999Z</time></trkpt><trkpt lat="43.19929360719092" lon="11.475181463600247"><ele>201.39999999999998</ele><time>2026-04-08T11:59:32.999Z</time></trkpt><trkpt lat="43.199355786382284" lon="11.47529130231722"><ele>200.2</ele><time>2026-04-08T11:59:33.999Z</time></trkpt><trkpt lat="43.199426048850924" lon="11.475400029462612"><ele>199.0</ele><time>2026-04-08T11:59:34.999Z</time></trkpt><trkpt lat="43.19949948064366" lon="11.475503817704869"><ele>200.39999999999998</ele><time>2026-04-08T11:59:35.999Z</time></trkpt><trkpt lat="43.199578636527725" lon="11.475596276317926"><ele>201.8</ele><time>2026-04-08T11:59:36.999Z</time></trkpt><trkpt lat="43.19967295275714" lon="11.475678908182404"><ele>203.2</ele><time>2026-04-08T11:59:37.999Z</time></trkpt><trkpt lat="43.19977595846661" lon="11.47575959631743"><ele>204.60000000000002</ele><time>2026-04-08T11:59:38.999Z</time></trkpt><trkpt lat="43.199877087071805" lon="11.475833815501412"><ele>206.0</ele><time>2026-04-08T11:59:39.999Z</time></trkpt><trkpt lat="43.19997093274992" lon="11.475892780595505"><ele>206.0</ele><time>2026-04-08T11:59:40.999Z</time></trkpt><trkpt lat="43.20004428619774" lon="11.475970084949994"><ele>206.0</ele><time>2026-04-08T11:59:41.999Z</time></trkpt><trkpt lat="43.20011677033349" lon="11.476071484096169"><ele>206.0</ele><time>2026-04-08T11:59:42.999Z</time></trkpt><trkpt lat="43.200198087931376" lon="11.476180296724293"><ele>206.0</ele><time>2026-04-08T11:59:43.999Z</time></trkpt><trkpt lat="43.20029499244817" lon="11.476281966528367"><ele>206.0</ele><time>2026-04-08T11:59:44.999Z</time></trkpt><trkpt lat="43.200401679833746" lon="11.476383360650967"><ele>207.0</ele><time>2026-04-08T11:59:45.999Z</time></trkpt><trkpt lat="43.200508595511565" lon="11.476488676901193"><ele>208.0</ele><time>2026-04-08T11:59:46.999Z</time></trkpt><trkpt lat="43.200611768697094" lon="11.476605765435282"><ele>209.0</ele><time>2026-04-08T11:59:47.999Z</time></trkpt><trkpt lat="43.20070081755251" lon="11.476734559273492"><ele>210.0</ele><time>2026-04-08T11:59:48.999Z</time></trkpt><trkpt lat="43.200764498266125" lon="11.476857521982128"><ele>210.0</ele><time>2026-04-08T11:59:49.999Z</time></trkpt><trkpt lat="43.20082490565347" lon="11.476995862539496"><ele>210.0</ele><time>2026-04-08T11:59:50.999Z</time></trkpt><trkpt lat="43.20089507626756" lon="11.477151731046815"><ele>210.0</ele><time>2026-04-08T11:59:51.999Z</time></trkpt><trkpt lat="43.20096819305497" lon="11.477329535045415"><ele>210.0</ele><time>2026-04-08T11:59:53Z</time></trkpt><trkpt lat="43.201044986637676" lon="11.477516788443184"><ele>209.0</ele><time>2026-04-08T11:59:54Z</time></trkpt><trkpt lat="43.20110688872645" lon="11.477688305735473"><ele>208.0</ele><time>2026-04-08T11:59:55Z</time></trkpt><trkpt lat="43.20116264811068" lon="11.477838178749447"><ele>207.0</ele><time>2026-04-08T11:59:56Z</time></trkpt><trkpt lat="43.20122472018619" lon="11.47799266624216"><ele>206.0</ele><time>2026-04-08T11:59:57Z</time></trkpt><trkpt lat="43.20129200491568" lon="11.478152325557973"><ele>206.75</ele><time>2026-04-08T11:59:58Z</time></trkpt><trkpt lat="43.201354525067515" lon="11.47830949792033"><ele>207.5</ele><time>2026-04-08T11:59:59Z</time></trkpt><trkpt lat="43.201416290851945" lon="11.478457659785816"><ele>208.25</ele><time>2026-04-08T12:00:00Z</time></trkpt><trkpt lat="43.20147386284593" lon="11.478597588180271"><ele>209.0</ele><time>2026-04-08T12:00:01Z</time></trkpt><trkpt lat="43.20153052288877" lon="11.478743567372305"><ele>210.0</ele><time>2026-04-08T12:00:02Z</time></trkpt><trkpt lat="43.20158560322742" lon="11.478894832630031"><ele>211.0</ele><time>2026-04-08T12:00:03Z</time></trkpt><trkpt lat="43.201639710719746" lon="11.479058222471577"><ele>212.0</ele><time>2026-04-08T12:00:04Z</time></trkpt><trkpt lat="43.2016920942823" lon="11.47923400902548"><ele>213.0</ele><time>2026-04-08T12:00:05Z</time></trkpt><trkpt lat="43.201741716897416" lon="11.479414627107186"><ele>213.0</ele><time>2026-04-08T12:00:06Z</time></trkpt><trkpt lat="43.201790458334294" lon="11.479596501229548"><ele>213.0</ele><time>2026-04-08T12:00:07Z</time></trkpt><trkpt lat="43.201838865981365" lon="11.479783135105984"><ele>213.0</ele><time>2026-04-08T12:00:08Z</time></trkpt><trkpt lat="43.20188617437094" lon="11.479955301273073"><ele>213.0</ele><time>2026-04-08T12:00:09Z</time></trkpt><trkpt lat="43.2019357177671" lon="11.480102937138815"><ele>212.75</ele><time>2026-04-08T12:00:10Z</time></trkpt><trkpt lat="43.20198950072791" lon="11.480240252268267"><ele>212.5</ele><time>2026-04-08T12:00:11Z</time></trkpt><trkpt lat="43.20204690654861" lon="11.480381335501237"><ele>212.25</ele><time>2026-04-08T12:00:12Z</time></trkpt><trkpt lat="43.202101179414505" lon="11.480526087976033"><ele>212.0</ele><time>2026-04-08T12:00:13Z</time></trkpt><trkpt lat="43.20215060942629" lon="11.480661414795994"><ele>212.5</ele><time>2026-04-08T12:00:14Z</time></trkpt><trkpt lat="43.202188162106964" lon="11.480797927792782"><ele>213.0</ele><time>2026-04-08T12:00:15Z</time></trkpt><trkpt lat="43.202214183423145" lon="11.480941726964256"><ele>213.5</ele><time>2026-04-08T12:00:16Z</time></trkpt><trkpt lat="43.20223169369095" lon="11.48110131808864"><ele>214.0</ele><time>2026-04-08T12:00:17Z</time></trkpt><trkpt lat="43.20225253975284" lon="11.481269761701247"><ele>214.0</ele><time>2026-04-08T12:00:18Z</time></trkpt><trkpt lat="43.202274547718275" lon="11.481440877181434"><ele>214.0</ele><time>2026-04-08T12:00:19Z</time></trkpt><trkpt lat="43.20229367342779" lon="11.481608202626841"><ele>214.0</ele><time>2026-04-08T12:00:20Z</time></trkpt><trkpt lat="43.202307849712206" lon="11.481753045705597"><ele>214.0</ele><time>2026-04-08T12:00:21Z</time></trkpt><trkpt lat="43.202313192895076" lon="11.481901636338705"><ele>214.0</ele><time>2026-04-08T12:00:22Z</time></trkpt><trkpt lat="43.202296817479315" lon="11.482039014304847"><ele>213.99999999999997</ele><time>2026-04-08T12:00:23Z</time></trkpt><trkpt lat="43.20226524582076" lon="11.48216675692069"><ele>213.99999999999997</ele><time>2026-04-08T12:00:24Z</time></trkpt><trkpt lat="43.20223481422668" lon="11.482306408721668"><ele>214.0</ele><time>2026-04-08T12:00:25Z</time></trkpt><trkpt lat="43.20220482251453" lon="11.482469392354345"><ele>214.0</ele><time>2026-04-08T12:00:26Z</time></trkpt><trkpt lat="43.20218582937908" lon="11.48262740267695"><ele>215.49999999999997</ele><time>2026-04-08T12:00:27Z</time></trkpt><trkpt lat="43.20218057146308" lon="11.482763660812317"><ele>217.0</ele><time>2026-04-08T12:00:28Z</time></trkpt><trkpt lat="43.20218509448627" lon="11.48290180524708"><ele>218.5</ele><time>2026-04-08T12:00:29Z</time></trkpt><trkpt lat="43.20219380826423" lon="11.483028238325838"><ele>220.0</ele><time>2026-04-08T12:00:30Z</time></trkpt><trkpt lat="43.20219599829157" lon="11.483129295513628"><ele>221.49999999999997</ele><time>2026-04-08T12:00:31Z</time></trkpt><trkpt lat="43.20217956871876" lon="11.483232386469444"><ele>223.0</ele><time>2026-04-08T12:00:32Z</time></trkpt><trkpt lat="43.20213884230797" lon="11.48333762426838"><ele>225.8</ele><time>2026-04-08T12:00:33Z</time></trkpt><trkpt lat="43.202083854709294" lon="11.483433792080302"><ele>228.60000000000002</ele><time>2026-04-08T12:00:34Z</time></trkpt><trkpt lat="43.20201744898877" lon="11.483530557531049"><ele>231.39999999999998</ele><time>2026-04-08T12:00:35Z</time></trkpt><trkpt lat="43.20194572830107" lon="11.483641206923881"><ele>234.2</ele><time>2026-04-08T12:00:36Z</time></trkpt><trkpt lat="43.20187306873188" lon="11.483758600998575"><ele>237.0</ele><time>2026-04-08T12:00:37Z</time></trkpt><trkpt lat="43.20180895477759" lon="11.483860106848018"><ele>239.66666666666666</ele><time>2026-04-08T12:00:38Z</time></trkpt><trkpt lat="43.20177885110551" lon="11.483949440212784"><ele>242.33333333333331</ele><time>2026-04-08T12:00:39Z</time></trkpt><trkpt lat="43.20175703002673" lon="11.484112929649449"><ele>245.0</ele><time>2026-04-08T12:00:41Z</time></trkpt><trkpt lat="43.201773381997484" lon="11.484200762704047"><ele>247.66666666666666</ele><time>2026-04-08T12:00:42Z</time></trkpt><trkpt lat="43.20180845409643" lon="11.484285236640119"><ele>250.33333333333331</ele><time>2026-04-08T12:00:43Z</time></trkpt><trkpt lat="43.20185183556434" lon="11.484368696983616"><ele>253.0</ele><time>2026-04-08T12:00:44Z</time></trkpt><trkpt lat="43.201902746882965" lon="11.484459981928689"><ele>253.0</ele><time>2026-04-08T12:00:45Z</time></trkpt><trkpt lat="43.20195546861223" lon="11.484563557245322"><ele>253.0</ele><time>2026-04-08T12:00:46Z</time></trkpt><trkpt lat="43.20200043601008" lon="11.484674386203277"><ele>253.0</ele><time>2026-04-08T12:00:47Z</time></trkpt><trkpt lat="43.202029012663616" lon="11.48477682176367"><ele>253.0</ele><time>2026-04-08T12:00:48Z</time></trkpt><trkpt lat="43.20206584845307" lon="11.48487986275745"><ele>253.0</ele><time>2026-04-08T12:00:49Z</time></trkpt><trkpt lat="43.20210101427635" lon="11.485027666703605"><ele>253.2</ele><time>2026-04-08T12:00:50Z</time></trkpt><trkpt lat="43.20211566452841" lon="11.485173607445278"><ele>253.4</ele><time>2026-04-08T12:00:51Z</time></trkpt><trkpt lat="43.202144893086015" lon="11.485319522002893"><ele>253.59999999999997</ele><time>2026-04-08T12:00:52Z</time></trkpt><trkpt lat="43.20217405322123" lon="11.485437702681375"><ele>253.79999999999998</ele><time>2026-04-08T12:00:53Z</time></trkpt><trkpt lat="43.20219281865072" lon="11.485532007787498"><ele>254.0</ele><time>2026-04-08T12:00:54Z</time></trkpt><trkpt lat="43.20222369505505" lon="11.485624887047527"><ele>254.0</ele><time>2026-04-08T12:00:55Z</time></trkpt><trkpt lat="43.20225400017358" lon="11.485741845680609"><ele>253.99999999999997</ele><time>2026-04-08T12:00:56Z</time></trkpt><trkpt lat="43.20228139585221" lon="11.48585369233841"><ele>253.99999999999997</ele><time>2026-04-08T12:00:57Z</time></trkpt><trkpt lat="43.202320294245126" lon="11.485971524340027"><ele>254.0</ele><time>2026-04-08T12:00:58Z</time></trkpt><trkpt lat="43.202372992425474" lon="11.486092391413813"><ele>254.0</ele><time>2026-04-08T12:00:59Z</time></trkpt><trkpt lat="43.20243222911664" lon="11.486186662935324"><ele>252.79999999999998</ele><time>2026-04-08T12:01:00Z</time></trkpt><trkpt lat="43.20249752761211" lon="11.486294772938328"><ele>251.59999999999997</ele><time>2026-04-08T12:01:01Z</time></trkpt><trkpt lat="43.20255705936157" lon="11.48639202051764"><ele>250.4</ele><time>2026-04-08T12:01:02Z</time></trkpt><trkpt lat="43.202635735197724" lon="11.48650937224431"><ele>249.2</ele><time>2026-04-08T12:01:03Z</time></trkpt><trkpt lat="43.20272023801033" lon="11.486599114416462"><ele>248.0</ele><time>2026-04-08T12:01:04Z</time></trkpt><trkpt lat="43.202791350211434" lon="11.486683663504696"><ele>248.0</ele><time>2026-04-08T12:01:05Z</time></trkpt><trkpt lat="43.20286241801135" lon="11.486779600965457"><ele>248.0</ele><time>2026-04-08T12:01:06Z</time></trkpt><trkpt lat="43.202943913324795" lon="11.48686546213393"><ele>248.0</ele><time>2026-04-08T12:01:07Z</time></trkpt><trkpt lat="43.20302355114942" lon="11.486961586689421"><ele>248.0</ele><time>2026-04-08T12:01:08Z</time></trkpt><trkpt lat="43.203094237106676" lon="11.487060945418136"><ele>248.0</ele><time>2026-04-08T12:01:09Z</time></trkpt><trkpt lat="43.20315732367185" lon="11.487140892382689"><ele>248.16666666666669</ele><time>2026-04-08T12:01:10Z</time></trkpt><trkpt lat="43.20322584843871" lon="11.487226480895982"><ele>248.33333333333334</ele><time>2026-04-08T12:01:11Z</time></trkpt><trkpt lat="43.20329028972458" lon="11.487312054213916"><ele>248.5</ele><time>2026-04-08T12:01:12Z</time></trkpt><trkpt lat="43.203356170888476" lon="11.487405917467012"><ele>248.66666666666669</ele><time>2026-04-08T12:01:13Z</time></trkpt><trkpt lat="43.20341121667005" lon="11.487484638284142"><ele>248.83333333333334</ele><time>2026-04-08T12:01:14Z</time></trkpt><trkpt lat="43.2034734942749" lon="11.4875569767984"><ele>249.0</ele><time>2026-04-08T12:01:15Z</time></trkpt><trkpt lat="43.20354046031373" lon="11.487637219265912"><ele>249.0</ele><time>2026-04-08T12:01:16Z</time></trkpt><trkpt lat="43.20360981877487" lon="11.487732424543053"><ele>248.99999999999997</ele><time>2026-04-08T12:01:17Z</time></trkpt><trkpt lat="43.20367570547366" lon="11.487835118752207"><ele>248.99999999999997</ele><time>2026-04-08T12:01:17.999Z</time></trkpt><trkpt lat="43.20373493704835" lon="11.487948714467025"><ele>249.0</ele><time>2026-04-08T12:01:18.999Z</time></trkpt><trkpt lat="43.203802390042945" lon="11.488069723340596"><ele>249.0</ele><time>2026-04-08T12:01:19.999Z</time></trkpt><trkpt lat="43.20386041905497" lon="11.488195836513444"><ele>246.39999999999998</ele><time>2026-04-08T12:01:20.999Z</time></trkpt><trkpt lat="43.203922844684364" lon="11.488306759274531"><ele>243.79999999999998</ele><time>2026-04-08T12:01:21.999Z</time></trkpt><trkpt lat="43.20398729542562" lon="11.488419126923478"><ele>241.20000000000002</ele><time>2026-04-08T12:01:22.999Z</time></trkpt><trkpt lat="43.204059195538015" lon="11.488532376413632"><ele>238.60000000000002</ele><time>2026-04-08T12:01:23.999Z</time></trkpt><trkpt lat="43.2041336754379" lon="11.488646214734837"><ele>236.0</ele><time>2026-04-08T12:01:24.999Z</time></trkpt><trkpt lat="43.20420956150856" lon="11.48874916671896"><ele>238.4</ele><time>2026-04-08T12:01:25.999Z</time></trkpt><trkpt lat="43.204268018844914" lon="11.488843547351022"><ele>240.8</ele><time>2026-04-08T12:01:26.999Z</time></trkpt><trkpt lat="43.20432434124434" lon="11.488931499845997"><ele>243.20000000000002</ele><time>2026-04-08T12:01:27.999Z</time></trkpt><trkpt lat="43.20438717563018" lon="11.48902207679317"><ele>245.60000000000002</ele><time>2026-04-08T12:01:28.999Z</time></trkpt><trkpt lat="43.20445284020713" lon="11.489131456971181"><ele>248.0</ele><time>2026-04-08T12:01:29.999Z</time></trkpt><trkpt lat="43.20451446661671" lon="11.48925590702599"><ele>248.0</ele><time>2026-04-08T12:01:30.999Z</time></trkpt><trkpt lat="43.20456194034316" lon="11.489390835027026"><ele>248.0</ele><time>2026-04-08T12:01:31.999Z</time></trkpt><trkpt lat="43.20460616609045" lon="11.489533533383678"><ele>248.0</ele><time>2026-04-08T12:01:32.999Z</time></trkpt><trkpt lat="43.204646019171456" lon="11.489668521020286"><ele>248.0</ele><time>2026-04-08T12:01:33.999Z</time></trkpt><trkpt lat="43.204691385728864" lon="11.489801737227797"><ele>248.0</ele><time>2026-04-08T12:01:34.999Z</time></trkpt><trkpt lat="43.20473322538152" lon="11.489942862617388"><ele>247.25</ele><time>2026-04-08T12:01:35.999Z</time></trkpt><trkpt lat="43.20478040622069" lon="11.49008339222072"><ele>246.5</ele><time>2026-04-08T12:01:36.999Z</time></trkpt><trkpt lat="43.20482765224928" lon="11.490224308393811"><ele>245.75</ele><time>2026-04-08T12:01:37.999Z</time></trkpt><trkpt lat="43.2048971653112" lon="11.49034803012881"><ele>245.0</ele><time>2026-04-08T12:01:38.999Z</time></trkpt><trkpt lat="43.20497421433428" lon="11.490459952145878"><ele>245.0</ele><time>2026-04-08T12:01:39.999Z</time></trkpt><trkpt lat="43.20506593918814" lon="11.49057292120967"><ele>245.0</ele><time>2026-04-08T12:01:40.999Z</time></trkpt><trkpt lat="43.20515819698003" lon="11.490682411121846"><ele>245.0</ele><time>2026-04-08T12:01:41.999Z</time></trkpt><trkpt lat="43.205243476208004" lon="11.490776198881715"><ele>245.0</ele><time>2026-04-08T12:01:42.999Z</time></trkpt><trkpt lat="43.205329153252656" lon="11.490835709892766"><ele>245.0</ele><time>2026-04-08T12:01:43.999Z</time></trkpt><trkpt lat="43.20541941328353" lon="11.49087786437565"><ele>245.0</ele><time>2026-04-08T12:01:44.999Z</time></trkpt><trkpt lat="43.20551739624224" lon="11.490895407463192"><ele>245.0</ele><time>2026-04-08T12:01:45.999Z</time></trkpt><trkpt lat="43.205627249139766" lon="11.490928778850476"><ele>245.0</ele><time>2026-04-08T12:01:46.999Z</time></trkpt><trkpt lat="43.20574920586283" lon="11.490921598809116"><ele>245.0</ele><time>2026-04-08T12:01:47.999Z</time></trkpt><trkpt lat="43.20586789433096" lon="11.490888157122152"><ele>247.6</ele><time>2026-04-08T12:01:48.999Z</time></trkpt><trkpt lat="43.20597228949169" lon="11.490860024242325"><ele>250.2</ele><time>2026-04-08T12:01:49.999Z</time></trkpt><trkpt lat="43.20607085800496" lon="11.490880375478373"><ele>252.8</ele><time>2026-04-08T12:01:50.999Z</time></trkpt><trkpt lat="43.206169552599896" lon="11.49089705466514"><ele>255.4</ele><time>2026-04-08T12:01:51.999Z</time></trkpt><trkpt lat="43.206268466338734" lon="11.490894392145167"><ele>258.0</ele><time>2026-04-08T12:01:52.999Z</time></trkpt><trkpt lat="43.20636500285393" lon="11.490926455626182"><ele>258.0</ele><time>2026-04-08T12:01:53.999Z</time></trkpt><trkpt lat="43.206435576384735" lon="11.490990643465032"><ele>258.0</ele><time>2026-04-08T12:01:54.999Z</time></trkpt><trkpt lat="43.20651859179653" lon="11.491048302817594"><ele>258.0</ele><time>2026-04-08T12:01:55.999Z</time></trkpt><trkpt lat="43.20660837662819" lon="11.491110028883549"><ele>258.0</ele><time>2026-04-08T12:01:56.999Z</time></trkpt><trkpt lat="43.206663723532806" lon="11.491246719132311"><ele>258.0</ele><time>2026-04-08T12:01:57.999Z</time></trkpt><trkpt lat="43.2067236691908" lon="11.491380830115926"><ele>257.0</ele><time>2026-04-08T12:01:59Z</time></trkpt><trkpt lat="43.2067847281906" lon="11.491519642838641"><ele>256.0</ele><time>2026-04-08T12:02:00Z</time></trkpt><trkpt lat="43.20684720566419" lon="11.49163112087739"><ele>255.0</ele><time>2026-04-08T12:02:01Z</time></trkpt><trkpt lat="43.20689945246667" lon="11.491750128076108"><ele>254.0</ele><time>2026-04-08T12:02:02Z</time></trkpt><trkpt lat="43.20695442722811" lon="11.491863912223366"><ele>253.0</ele><time>2026-04-08T12:02:03Z</time></trkpt><trkpt lat="43.20701320858662" lon="11.491965001507218"><ele>253.0</ele><time>2026-04-08T12:02:04Z</time></trkpt><trkpt lat="43.20708156986842" lon="11.492047607294506"><ele>253.0</ele><time>2026-04-08T12:02:05Z</time></trkpt><trkpt lat="43.20716656489947" lon="11.492139703904233"><ele>253.0</ele><time>2026-04-08T12:02:06Z</time></trkpt><trkpt lat="43.20725987857798" lon="11.492230861562751"><ele>253.0</ele><time>2026-04-08T12:02:07Z</time></trkpt><trkpt lat="43.207355031088746" lon="11.492316562505318"><ele>253.0</ele><time>2026-04-08T12:02:08Z</time></trkpt><trkpt lat="43.20744610388788" lon="11.492414149819416"><ele>251.75</ele><time>2026-04-08T12:02:09Z</time></trkpt><trkpt lat="43.20754623562173" lon="11.492510131204227"><ele>250.5</ele><time>2026-04-08T12:02:10Z</time></trkpt><trkpt lat="43.20764417516875" lon="11.492622356792806"><ele>249.25</ele><time>2026-04-08T12:02:11Z</time></trkpt><trkpt lat="43.207757416220566" lon="11.492731513169016"><ele>248.0</ele><time>2026-04-08T12:02:12Z</time></trkpt><trkpt lat="43.20787415771338" lon="11.492858400750944"><ele>248.5</ele><time>2026-04-08T12:02:13Z</time></trkpt><trkpt lat="43.20799211997238" lon="11.492986249958149"><ele>249.0</ele><time>2026-04-08T12:02:14Z</time></trkpt><trkpt lat="43.20810936271868" lon="11.493118698963894"><ele>249.5</ele><time>2026-04-08T12:02:15Z</time></trkpt><trkpt lat="43.20822920186336" lon="11.49322419950239"><ele>250.0</ele><time>2026-04-08T12:02:16Z</time></trkpt><trkpt lat="43.20833149709841" lon="11.493328168887558"><ele>250.0</ele><time>2026-04-08T12:02:17Z</time></trkpt><trkpt lat="43.208446023845376" lon="11.493420632999564"><ele>250.0</ele><time>2026-04-08T12:02:18Z</time></trkpt><trkpt lat="43.208548523067975" lon="11.493502141993147"><ele>250.0</ele><time>2026-04-08T12:02:19Z</time></trkpt><trkpt lat="43.20863791460535" lon="11.493574775283692"><ele>250.0</ele><time>2026-04-08T12:02:20Z</time></trkpt><trkpt lat="43.20871221922431" lon="11.493639037710729"><ele>250.0</ele><time>2026-04-08T12:02:21Z</time></trkpt><trkpt lat="43.20877639516935" lon="11.493730611134504"><ele>251.8</ele><time>2026-04-08T12:02:22Z</time></trkpt><trkpt lat="43.208845843199676" lon="11.493843659084888"><ele>253.6</ele><time>2026-04-08T12:02:23Z</time></trkpt><trkpt lat="43.20890177412917" lon="11.493955216175992"><ele>255.39999999999998</ele><time>2026-04-08T12:02:24Z</time></trkpt><trkpt lat="43.20895500287013" lon="11.494083817467681"><ele>257.2</ele><time>2026-04-08T12:02:25Z</time></trkpt><trkpt lat="43.20900877566224" lon="11.49422988605362"><ele>259.0</ele><time>2026-04-08T12:02:26Z</time></trkpt><trkpt lat="43.20905644210772" lon="11.494375373702372"><ele>259.0</ele><time>2026-04-08T12:02:27Z</time></trkpt><trkpt lat="43.209087027992965" lon="11.49454130517026"><ele>259.0</ele><time>2026-04-08T12:02:28Z</time></trkpt><trkpt lat="43.209122105776345" lon="11.494704224515946"><ele>259.0</ele><time>2026-04-08T12:02:29Z</time></trkpt><trkpt lat="43.20915634003112" lon="11.494875781227012"><ele>259.0</ele><time>2026-04-08T12:02:30Z</time></trkpt><trkpt lat="43.20919220154945" lon="11.49504458025155"><ele>259.4</ele><time>2026-04-08T12:02:31Z</time></trkpt><trkpt lat="43.209215833805374" lon="11.4952079509752"><ele>259.79999999999995</ele><time>2026-04-08T12:02:32Z</time></trkpt><trkpt lat="43.20922119185194" lon="11.495332553141116"><ele>260.20000000000005</ele><time>2026-04-08T12:02:33Z</time></trkpt><trkpt lat="43.209232521470774" lon="11.495433483720428"><ele>260.6</ele><time>2026-04-08T12:02:34Z</time></trkpt><trkpt lat="43.209290284770496" lon="11.495578495032758"><ele>261.0</ele><time>2026-04-08T12:02:36Z</time></trkpt><trkpt lat="43.20932993890443" lon="11.495666756889703"><ele>261.40000000000003</ele><time>2026-04-08T12:02:37Z</time></trkpt><trkpt lat="43.209369324205795" lon="11.495753704118146"><ele>261.8</ele><time>2026-04-08T12:02:38Z</time></trkpt><trkpt lat="43.209411346202636" lon="11.495860964159057"><ele>262.20000000000005</ele><time>2026-04-08T12:02:39Z</time></trkpt><trkpt lat="43.2094547240342" lon="11.495980840092724"><ele>262.6</ele><time>2026-04-08T12:02:40Z</time></trkpt><trkpt lat="43.209490744417906" lon="11.496122664606048"><ele>263.0</ele><time>2026-04-08T12:02:41Z</time></trkpt><trkpt lat="43.209531924659835" lon="11.496260530078235"><ele>263.33333333333337</ele><time>2026-04-08T12:02:42Z</time></trkpt><trkpt lat="43.20957597389875" lon="11.496375638640039"><ele>263.6666666666667</ele><time>2026-04-08T12:02:43Z</time></trkpt><trkpt lat="43.20962966277551" lon="11.49646943429814"><ele>264.0</ele><time>2026-04-08T12:02:44Z</time></trkpt><trkpt lat="43.20967944428591" lon="11.496557049390317"><ele>264.3333333333333</ele><time>2026-04-08T12:02:45Z</time></trkpt><trkpt lat="43.20973651215316" lon="11.496643436743543"><ele>264.66666666666663</ele><time>2026-04-08T12:02:46Z</time></trkpt><trkpt lat="43.2098034084028" lon="11.49671762912764"><ele>265.0</ele><time>2026-04-08T12:02:47Z</time></trkpt><trkpt lat="43.209870732173016" lon="11.496780163627323"><ele>265.0</ele><time>2026-04-08T12:02:48Z</time></trkpt><trkpt lat="43.20994555553211" lon="11.496838783032082"><ele>265.0</ele><time>2026-04-08T12:02:49Z</time></trkpt><trkpt lat="43.21001574498685" lon="11.496894658327772"><ele>265.0</ele><time>2026-04-08T12:02:50Z</time></trkpt><trkpt lat="43.21008940084896" lon="11.49694899459498"><ele>265.0</ele><time>2026-04-08T12:02:51Z</time></trkpt><trkpt lat="43.210153441762216" lon="11.496992807979618"><ele>265.0</ele><time>2026-04-08T12:02:52Z</time></trkpt><trkpt lat="43.210213085957434" lon="11.497034330969955"><ele>265.0</ele><time>2026-04-08T12:02:53Z</time></trkpt><trkpt lat="43.21027922422504" lon="11.497085684804865"><ele>264.8333333333333</ele><time>2026-04-08T12:02:54Z</time></trkpt><trkpt lat="43.21035431776821" lon="11.497146889209477"><ele>264.66666666666663</ele><time>2026-04-08T12:02:55Z</time></trkpt><trkpt lat="43.21042548042113" lon="11.497210117835149"><ele>264.5</ele><time>2026-04-08T12:02:56Z</time></trkpt><trkpt lat="43.21048982366515" lon="11.497260438774404"><ele>264.3333333333333</ele><time>2026-04-08T12:02:57Z</time></trkpt><trkpt lat="43.210555309794735" lon="11.497312406659711"><ele>264.1666666666667</ele><time>2026-04-08T12:02:58Z</time></trkpt><trkpt lat="43.210620567833665" lon="11.497364482503482"><ele>264.0</ele><time>2026-04-08T12:02:59Z</time></trkpt><trkpt lat="43.21068220928508" lon="11.4974213828611"><ele>264.0</ele><time>2026-04-08T12:03:00Z</time></trkpt><trkpt lat="43.21073458872641" lon="11.497484444235988"><ele>264.0</ele><time>2026-04-08T12:03:01Z</time></trkpt><trkpt lat="43.210777256537014" lon="11.497561535449206"><ele>264.0</ele><time>2026-04-08T12:03:02Z</time></trkpt><trkpt lat="43.21081338422343" lon="11.497644921851162"><ele>264.0</ele><time>2026-04-08T12:03:03Z</time></trkpt><trkpt lat="43.21083625815578" lon="11.497729822888228"><ele>264.0</ele><time>2026-04-08T12:03:04Z</time></trkpt><trkpt lat="43.210856114147646" lon="11.49782581822713"><ele>264.0</ele><time>2026-04-08T12:03:05Z</time></trkpt><trkpt lat="43.21087247972808" lon="11.497931783508232"><ele>264.0</ele><time>2026-04-08T12:03:06Z</time></trkpt><trkpt lat="43.210883682418974" lon="11.49802636024504"><ele>263.1666666666667</ele><time>2026-04-08T12:03:07Z</time></trkpt><trkpt lat="43.21089833192323" lon="11.498117111499418"><ele>262.3333333333333</ele><time>2026-04-08T12:03:08Z</time></trkpt><trkpt lat="43.21091828056106" lon="11.498206069038801"><ele>261.5</ele><time>2026-04-08T12:03:09Z</time></trkpt><trkpt lat="43.210935496088" lon="11.49829849903985"><ele>260.66666666666663</ele><time>2026-04-08T12:03:10Z</time></trkpt><trkpt lat="43.210962036143584" lon="11.498383755248643"><ele>259.8333333333333</ele><time>2026-04-08T12:03:11Z</time></trkpt><trkpt lat="43.21099612063042" lon="11.49845871711059"><ele>259.0</ele><time>2026-04-08T12:03:12Z</time></trkpt><trkpt lat="43.211094610056925" lon="11.498573635572528"><ele>259.0</ele><time>2026-04-08T12:03:14Z</time></trkpt><trkpt lat="43.21115874997549" lon="11.498614934074688"><ele>259.0</ele><time>2026-04-08T12:03:15Z</time></trkpt><trkpt lat="43.21122387733766" lon="11.498649521799468"><ele>259.0</ele><time>2026-04-08T12:03:16Z</time></trkpt><trkpt lat="43.21128574788079" lon="11.498667040128735"><ele>259.0</ele><time>2026-04-08T12:03:17Z</time></trkpt><trkpt lat="43.21141698279213" lon="11.498698890719673"><ele>259.0</ele><time>2026-04-08T12:03:19Z</time></trkpt><trkpt lat="43.21149764335407" lon="11.498665428884802"><ele>259.0</ele><time>2026-04-08T12:03:20Z</time></trkpt><trkpt lat="43.211574019618894" lon="11.498676153358355"><ele>257.5</ele><time>2026-04-08T12:03:21Z</time></trkpt><trkpt lat="43.211646846189524" lon="11.498642439114345"><ele>256.0</ele><time>2026-04-08T12:03:22Z</time></trkpt><trkpt lat="43.21171518137329" lon="11.498627744016312"><ele>254.5</ele><time>2026-04-08T12:03:23Z</time></trkpt><trkpt lat="43.211831085676984" lon="11.498591196284012"><ele>253.0</ele><time>2026-04-08T12:03:25Z</time></trkpt><trkpt lat="43.211943030238466" lon="11.498600950531237"><ele>251.49999999999997</ele><time>2026-04-08T12:03:26.999Z</time></trkpt><trkpt lat="43.21200084506279" lon="11.49864204410298"><ele>250.0</ele><time>2026-04-08T12:03:27.999Z</time></trkpt><trkpt lat="43.21205305620383" lon="11.498703692080676"><ele>248.99999999999997</ele><time>2026-04-08T12:03:28.999Z</time></trkpt><trkpt lat="43.212103324904206" lon="11.498783927075612"><ele>248.0</ele><time>2026-04-08T12:03:29.999Z</time></trkpt><trkpt lat="43.21215071216632" lon="11.498877124828114"><ele>247.0</ele><time>2026-04-08T12:03:30.999Z</time></trkpt><trkpt lat="43.212183574351826" lon="11.498977562411135"><ele>246.0</ele><time>2026-04-08T12:03:31.999Z</time></trkpt><trkpt lat="43.21220251499873" lon="11.499084966442311"><ele>244.99999999999997</ele><time>2026-04-08T12:03:32.999Z</time></trkpt><trkpt lat="43.21221098687903" lon="11.499184042796227"><ele>244.0</ele><time>2026-04-08T12:03:33.999Z</time></trkpt><trkpt lat="43.21220583855173" lon="11.499281075300818"><ele>243.99999999999997</ele><time>2026-04-08T12:03:34.999Z</time></trkpt><trkpt lat="43.212186567360376" lon="11.499370555067712"><ele>244.0</ele><time>2026-04-08T12:03:35.999Z</time></trkpt><trkpt lat="43.212113831031914" lon="11.499513279789108"><ele>244.0</ele><time>2026-04-08T12:03:37.999Z</time></trkpt><trkpt lat="43.21205941187935" lon="11.499567230908793"><ele>244.0</ele><time>2026-04-08T12:03:38.999Z</time></trkpt><trkpt lat="43.21198140241994" lon="11.499575357871375"><ele>243.99999999999997</ele><time>2026-04-08T12:03:39.999Z</time></trkpt><trkpt lat="43.21189512549394" lon="11.499615209780714"><ele>244.0</ele><time>2026-04-08T12:03:40.999Z</time></trkpt><trkpt lat="43.21181281594891" lon="11.499666297019989"><ele>241.83333333333331</ele><time>2026-04-08T12:03:41.999Z</time></trkpt><trkpt lat="43.211732908521924" lon="11.499704182844617"><ele>239.66666666666666</ele><time>2026-04-08T12:03:42.999Z</time></trkpt><trkpt lat="43.21166820249117" lon="11.499753085426649"><ele>237.5</ele><time>2026-04-08T12:03:43.999Z</time></trkpt><trkpt lat="43.21160650941259" lon="11.49980823257703"><ele>235.33333333333331</ele><time>2026-04-08T12:03:44.999Z</time></trkpt><trkpt lat="43.21157447680512" lon="11.49994821244076"><ele>233.16666666666666</ele><time>2026-04-08T12:03:45.999Z</time></trkpt><trkpt lat="43.21153734127544" lon="11.500088825985683"><ele>231.0</ele><time>2026-04-08T12:03:46.999Z</time></trkpt><trkpt lat="43.211502178674664" lon="11.50025797746229"><ele>228.60000000000002</ele><time>2026-04-08T12:03:47.999Z</time></trkpt><trkpt lat="43.21147506442594" lon="11.500429383860878"><ele>226.20000000000002</ele><time>2026-04-08T12:03:48.999Z</time></trkpt><trkpt lat="43.211449352757164" lon="11.500566063959928"><ele>223.79999999999998</ele><time>2026-04-08T12:03:49.999Z</time></trkpt><trkpt lat="43.21140913657201" lon="11.50066927853342"><ele>221.39999999999998</ele><time>2026-04-08T12:03:50.999Z</time></trkpt><trkpt lat="43.21138597455023" lon="11.500767279588137"><ele>219.0</ele><time>2026-04-08T12:03:51.999Z</time></trkpt><trkpt lat="43.211360469923335" lon="11.500850323709335"><ele>219.0</ele><time>2026-04-08T12:03:52.999Z</time></trkpt><trkpt lat="43.21127385983741" lon="11.50100025237845"><ele>219.0</ele><time>2026-04-08T12:03:54.999Z</time></trkpt><trkpt lat="43.21117986383163" lon="11.501044332307343"><ele>219.0</ele><time>2026-04-08T12:03:55.999Z</time></trkpt><trkpt lat="43.21108319841256" lon="11.501081920487826"><ele>219.0</ele><time>2026-04-08T12:03:56.999Z</time></trkpt><trkpt lat="43.21097598485978" lon="11.50114357271527"><ele>219.0</ele><time>2026-04-08T12:03:57.999Z</time></trkpt><trkpt lat="43.210862752978606" lon="11.50122641673544"><ele>219.0</ele><time>2026-04-08T12:03:58.999Z</time></trkpt><trkpt lat="43.21076557294103" lon="11.501347064318354"><ele>219.0</ele><time>2026-04-08T12:03:59.999Z</time></trkpt><trkpt lat="43.21067324905326" lon="11.501427101671018"><ele>219.0</ele><time>2026-04-08T12:04:00.999Z</time></trkpt><trkpt lat="43.21060932864663" lon="11.501529345416708"><ele>219.2</ele><time>2026-04-08T12:04:01.999Z</time></trkpt><trkpt lat="43.210558926119255" lon="11.501643414206194"><ele>219.39999999999998</ele><time>2026-04-08T12:04:02.999Z</time></trkpt><trkpt lat="43.210512127514484" lon="11.50176950068979"><ele>219.6</ele><time>2026-04-08T12:04:03.999Z</time></trkpt><trkpt lat="43.21047441565035" lon="11.501902534614096"><ele>219.8</ele><time>2026-04-08T12:04:05Z</time></trkpt><trkpt lat="43.210440784217475" lon="11.502009665521497"><ele>220.0</ele><time>2026-04-08T12:04:06Z</time></trkpt><trkpt lat="43.210421081326594" lon="11.50211622901892"><ele>221.66666666666666</ele><time>2026-04-08T12:04:07Z</time></trkpt><trkpt lat="43.21038190135662" lon="11.50221443633614"><ele>223.33333333333331</ele><time>2026-04-08T12:04:08Z</time></trkpt><trkpt lat="43.21034170417438" lon="11.502298789728314"><ele>225.0</ele><time>2026-04-08T12:04:09Z</time></trkpt><trkpt lat="43.21028116412168" lon="11.502349507018923"><ele>226.66666666666669</ele><time>2026-04-08T12:04:10Z</time></trkpt><trkpt lat="43.21023572313226" lon="11.502411257971612"><ele>228.33333333333334</ele><time>2026-04-08T12:04:11Z</time></trkpt><trkpt lat="43.21016933318251" lon="11.502475424289823"><ele>230.0</ele><time>2026-04-08T12:04:12Z</time></trkpt><trkpt lat="43.21009507906292" lon="11.502545172249032"><ele>230.0</ele><time>2026-04-08T12:04:13Z</time></trkpt><trkpt lat="43.2100207963643" lon="11.502628389476005"><ele>230.0</ele><time>2026-04-08T12:04:14Z</time></trkpt><trkpt lat="43.20993741760058" lon="11.502711098856881"><ele>230.0</ele><time>2026-04-08T12:04:15Z</time></trkpt><trkpt lat="43.209856985618366" lon="11.502788557200082"><ele>230.0</ele><time>2026-04-08T12:04:16Z</time></trkpt><trkpt lat="43.20977941299791" lon="11.5028615829914"><ele>230.0</ele><time>2026-04-08T12:04:17Z</time></trkpt><trkpt lat="43.209715920165365" lon="11.502931615643833"><ele>228.16666666666669</ele><time>2026-04-08T12:04:18Z</time></trkpt><trkpt lat="43.20964978098704" lon="11.503004556800697"><ele>226.33333333333334</ele><time>2026-04-08T12:04:19Z</time></trkpt><trkpt lat="43.20958493807847" lon="11.503071721722991"><ele>224.5</ele><time>2026-04-08T12:04:20Z</time></trkpt><trkpt lat="43.209525521109285" lon="11.503145560572818"><ele>222.66666666666669</ele><time>2026-04-08T12:04:21Z</time></trkpt><trkpt lat="43.20945630796161" lon="11.50320940853326"><ele>220.83333333333334</ele><time>2026-04-08T12:04:22Z</time></trkpt><trkpt lat="43.20939045200502" lon="11.503286232169808"><ele>219.0</ele><time>2026-04-08T12:04:23Z</time></trkpt><trkpt lat="43.20932463146204" lon="11.50337077322317"><ele>219.0</ele><time>2026-04-08T12:04:24Z</time></trkpt><trkpt lat="43.20925824635916" lon="11.503460637650452"><ele>218.99999999999997</ele><time>2026-04-08T12:04:25Z</time></trkpt><trkpt lat="43.209199870397036" lon="11.503572593219005"><ele>218.99999999999997</ele><time>2026-04-08T12:04:26Z</time></trkpt><trkpt lat="43.20914706288241" lon="11.503676256399507"><ele>219.0</ele><time>2026-04-08T12:04:27Z</time></trkpt><trkpt lat="43.209093190139285" lon="11.503767818530129"><ele>219.0</ele><time>2026-04-08T12:04:28Z</time></trkpt><trkpt lat="43.20904282908159" lon="11.5038574691202"><ele>217.16666666666666</ele><time>2026-04-08T12:04:29Z</time></trkpt><trkpt lat="43.20899163798254" lon="11.503954085722748"><ele>215.33333333333331</ele><time>2026-04-08T12:04:30Z</time></trkpt><trkpt lat="43.20893263954377" lon="11.504053830951412"><ele>213.5</ele><time>2026-04-08T12:04:31Z</time></trkpt><trkpt lat="43.208876012883984" lon="11.504149749088038"><ele>211.66666666666666</ele><time>2026-04-08T12:04:32Z</time></trkpt><trkpt lat="43.20881615619794" lon="11.504243177237829"><ele>209.83333333333331</ele><time>2026-04-08T12:04:33Z</time></trkpt><trkpt lat="43.208766082336275" lon="11.504327333373183"><ele>208.0</ele><time>2026-04-08T12:04:34Z</time></trkpt><trkpt lat="43.208708189242685" lon="11.504409748239281"><ele>207.99999999999997</ele><time>2026-04-08T12:04:35Z</time></trkpt><trkpt lat="43.20864452799002" lon="11.504476607362133"><ele>208.0</ele><time>2026-04-08T12:04:36Z</time></trkpt><trkpt lat="43.20857070429773" lon="11.504522035616256"><ele>208.0</ele><time>2026-04-08T12:04:37Z</time></trkpt><trkpt lat="43.20849472561421" lon="11.50455105233606"><ele>208.0</ele><time>2026-04-08T12:04:38Z</time></trkpt><trkpt lat="43.208420478864724" lon="11.504564453527198"><ele>207.99999999999997</ele><time>2026-04-08T12:04:39Z</time></trkpt><trkpt lat="43.2083256509104" lon="11.504578821960711"><ele>208.0</ele><time>2026-04-08T12:04:40Z</time></trkpt><trkpt lat="43.208226575279625" lon="11.50459079545147"><ele>205.33333333333331</ele><time>2026-04-08T12:04:41Z</time></trkpt><trkpt lat="43.2081362029924" lon="11.504594726653755"><ele>202.66666666666666</ele><time>2026-04-08T12:04:42Z</time></trkpt><trkpt lat="43.208049197694976" lon="11.504596793380326"><ele>200.0</ele><time>2026-04-08T12:04:43Z</time></trkpt><trkpt lat="43.20798032644799" lon="11.504590276700233"><ele>197.33333333333331</ele><time>2026-04-08T12:04:44Z</time></trkpt><trkpt lat="43.207916299213764" lon="11.504572426208206"><ele>194.66666666666666</ele><time>2026-04-08T12:04:45Z</time></trkpt><trkpt lat="43.20781619670801" lon="11.504526386760999"><ele>192.0</ele><time>2026-04-08T12:04:47Z</time></trkpt><trkpt lat="43.20775691279871" lon="11.504569043267729"><ele>190.33333333333334</ele><time>2026-04-08T12:04:49Z</time></trkpt><trkpt lat="43.20772412395201" lon="11.504670113946862"><ele>188.66666666666666</ele><time>2026-04-08T12:04:51Z</time></trkpt><trkpt lat="43.20781539420888" lon="11.504746006338097"><ele>187.0</ele><time>2026-04-08T12:04:53Z</time></trkpt><trkpt lat="43.20788444227889" lon="11.504804926219787"><ele>185.33333333333331</ele><time>2026-04-08T12:04:55Z</time></trkpt><trkpt lat="43.207952333213036" lon="11.50483693936958"><ele>183.66666666666666</ele><time>2026-04-08T12:04:56Z</time></trkpt><trkpt lat="43.208021225732956" lon="11.5048698787843"><ele>182.0</ele><time>2026-04-08T12:04:57Z</time></trkpt><trkpt lat="43.208104951541" lon="11.504911397680704"><ele>183.66666666666666</ele><time>2026-04-08T12:04:58Z</time></trkpt><trkpt lat="43.20819536900991" lon="11.504956234962613"><ele>185.33333333333331</ele><time>2026-04-08T12:04:59Z</time></trkpt><trkpt lat="43.208285371403335" lon="11.504978364752043"><ele>187.0</ele><time>2026-04-08T12:05:00Z</time></trkpt><trkpt lat="43.20835567547469" lon="11.505042596503321"><ele>188.66666666666666</ele><time>2026-04-08T12:05:01Z</time></trkpt><trkpt lat="43.208432186351686" lon="11.505083250945042"><ele>190.33333333333334</ele><time>2026-04-08T12:05:02Z</time></trkpt><trkpt lat="43.20852398145011" lon="11.505101857373527"><ele>192.0</ele><time>2026-04-08T12:05:03Z</time></trkpt><trkpt lat="43.20862173304656" lon="11.505090610870452"><ele>192.0</ele><time>2026-04-08T12:05:04Z</time></trkpt><trkpt lat="43.20869733563558" lon="11.505098249081305"><ele>192.0</ele><time>2026-04-08T12:05:05Z</time></trkpt><trkpt lat="43.208761506473195" lon="11.50512002048619"><ele>192.0</ele><time>2026-04-08T12:05:06Z</time></trkpt><trkpt lat="43.20882434365953" lon="11.505132804441534"><ele>192.0</ele><time>2026-04-08T12:05:07Z</time></trkpt><trkpt lat="43.20888677208687" lon="11.505148841532405"><ele>192.0</ele><time>2026-04-08T12:05:08Z</time></trkpt><trkpt lat="43.2090011187097" lon="11.50516819666288"><ele>192.0</ele><time>2026-04-08T12:05:10Z</time></trkpt><trkpt lat="43.20912525065005" lon="11.505123820094871"><ele>190.99999999999997</ele><time>2026-04-08T12:05:12Z</time></trkpt><trkpt lat="43.20919305044143" lon="11.505086554213314"><ele>190.0</ele><time>2026-04-08T12:05:13Z</time></trkpt><trkpt lat="43.209259251942505" lon="11.505041257067699"><ele>189.0</ele><time>2026-04-08T12:05:14Z</time></trkpt><trkpt lat="43.20932447764369" lon="11.504992472665347"><ele>188.0</ele><time>2026-04-08T12:05:15Z</time></trkpt><trkpt lat="43.209384235161544" lon="11.504944081022638"><ele>187.0</ele><time>2026-04-08T12:05:16Z</time></trkpt><trkpt lat="43.20946045297695" lon="11.504926632240682"><ele>185.99999999999997</ele><time>2026-04-08T12:05:17Z</time></trkpt><trkpt lat="43.20953045459746" lon="11.504927416835342"><ele>185.0</ele><time>2026-04-08T12:05:18Z</time></trkpt><trkpt lat="43.209605439460425" lon="11.50493162640064"><ele>185.0</ele><time>2026-04-08T12:05:19Z</time></trkpt><trkpt lat="43.20968944504427" lon="11.504966105701904"><ele>185.0</ele><time>2026-04-08T12:05:20Z</time></trkpt><trkpt lat="43.20978352646072" lon="11.505027174108529"><ele>185.0</ele><time>2026-04-08T12:05:21Z</time></trkpt><trkpt lat="43.20987500062364" lon="11.505080532674343"><ele>185.0</ele><time>2026-04-08T12:05:22Z</time></trkpt><trkpt lat="43.209951946725255" lon="11.505160238588998"><ele>185.0</ele><time>2026-04-08T12:05:23Z</time></trkpt><trkpt lat="43.210023461902004" lon="11.505236340714479"><ele>183.66666666666666</ele><time>2026-04-08T12:05:24Z</time></trkpt><trkpt lat="43.21009215095303" lon="11.505302524575702"><ele>182.33333333333331</ele><time>2026-04-08T12:05:24.999Z</time></trkpt><trkpt lat="43.21015680820145" lon="11.505355970996378"><ele>181.0</ele><time>2026-04-08T12:05:25.999Z</time></trkpt><trkpt lat="43.210228124966726" lon="11.505393825191076"><ele>179.66666666666666</ele><time>2026-04-08T12:05:26.999Z</time></trkpt><trkpt lat="43.210304649817694" lon="11.505418705694105"><ele>178.33333333333334</ele><time>2026-04-08T12:05:27.999Z</time></trkpt><trkpt lat="43.210388460055746" lon="11.50543655185203"><ele>177.0</ele><time>2026-04-08T12:05:28.999Z</time></trkpt><trkpt lat="43.210471881661284" lon="11.505449247720145"><ele>176.39999999999998</ele><time>2026-04-08T12:05:29.999Z</time></trkpt><trkpt lat="43.21056463626961" lon="11.505461504611871"><ele>175.79999999999998</ele><time>2026-04-08T12:05:30.999Z</time></trkpt><trkpt lat="43.21066502003838" lon="11.505465865026908"><ele>175.2</ele><time>2026-04-08T12:05:31.999Z</time></trkpt><trkpt lat="43.2107541336946" lon="11.50544801078177"><ele>174.6</ele><time>2026-04-08T12:05:32.999Z</time></trkpt><trkpt lat="43.21084203210657" lon="11.50542084764609"><ele>174.0</ele><time>2026-04-08T12:05:33.999Z</time></trkpt><trkpt lat="43.21093309272024" lon="11.505390561901603"><ele>174.0</ele><time>2026-04-08T12:05:34.999Z</time></trkpt><trkpt lat="43.211014025851505" lon="11.505370692873953"><ele>174.0</ele><time>2026-04-08T12:05:35.999Z</time></trkpt><trkpt lat="43.21108447412898" lon="11.505351055887516"><ele>174.0</ele><time>2026-04-08T12:05:36.999Z</time></trkpt><trkpt lat="43.21114884587411" lon="11.505349638036252"><ele>174.0</ele><time>2026-04-08T12:05:37.999Z</time></trkpt><trkpt lat="43.21122692875574" lon="11.505374576087528"><ele>174.0</ele><time>2026-04-08T12:05:38.999Z</time></trkpt><trkpt lat="43.21130195589994" lon="11.505436538629167"><ele>174.0</ele><time>2026-04-08T12:05:39.999Z</time></trkpt><trkpt lat="43.2113604058922" lon="11.50553593239539"><ele>172.2</ele><time>2026-04-08T12:05:40.999Z</time></trkpt><trkpt lat="43.211390742607215" lon="11.505668281546882"><ele>170.39999999999998</ele><time>2026-04-08T12:05:41.999Z</time></trkpt><trkpt lat="43.211426051759766" lon="11.505794066362816"><ele>168.6</ele><time>2026-04-08T12:05:42.999Z</time></trkpt><trkpt lat="43.21147728375015" lon="11.505914759697378"><ele>166.8</ele><time>2026-04-08T12:05:43.999Z</time></trkpt><trkpt lat="43.21152117183155" lon="11.506072712731074"><ele>165.0</ele><time>2026-04-08T12:05:44.999Z</time></trkpt><trkpt lat="43.21156741991267" lon="11.506238102100713"><ele>165.0</ele><time>2026-04-08T12:05:45.999Z</time></trkpt><trkpt lat="43.21161277415395" lon="11.506400546873104"><ele>165.0</ele><time>2026-04-08T12:05:46.999Z</time></trkpt><trkpt lat="43.211659169191776" lon="11.506571259539983"><ele>165.0</ele><time>2026-04-08T12:05:47.999Z</time></trkpt><trkpt lat="43.211712000718734" lon="11.506753742024959"><ele>165.0</ele><time>2026-04-08T12:05:48.999Z</time></trkpt><trkpt lat="43.21176637036454" lon="11.506942943159077"><ele>164.75</ele><time>2026-04-08T12:05:49.999Z</time></trkpt><trkpt lat="43.21182152766546" lon="11.507139655161643"><ele>164.5</ele><time>2026-04-08T12:05:50.999Z</time></trkpt><trkpt lat="43.211872326635714" lon="11.507313094024154"><ele>164.25</ele><time>2026-04-08T12:05:51.999Z</time></trkpt><trkpt lat="43.21191659633077" lon="11.507458605313433"><ele>164.0</ele><time>2026-04-08T12:05:52.999Z</time></trkpt><trkpt lat="43.2119600490517" lon="11.507568362169817"><ele>164.0</ele><time>2026-04-08T12:05:53.999Z</time></trkpt><trkpt lat="43.21201143998236" lon="11.507661877870984"><ele>164.0</ele><time>2026-04-08T12:05:54.999Z</time></trkpt><trkpt lat="43.21207039386998" lon="11.507723076826146"><ele>164.0</ele><time>2026-04-08T12:05:55.999Z</time></trkpt><trkpt lat="43.21214006289301" lon="11.507773332093729"><ele>164.0</ele><time>2026-04-08T12:05:56.999Z</time></trkpt><trkpt lat="43.212227566483925" lon="11.507824257106448"><ele>164.0</ele><time>2026-04-08T12:05:57.999Z</time></trkpt><trkpt lat="43.212326266225304" lon="11.507871099753881"><ele>164.0</ele><time>2026-04-08T12:05:58.999Z</time></trkpt><trkpt lat="43.212415327517405" lon="11.50792034038241"><ele>163.6</ele><time>2026-04-08T12:05:59.999Z</time></trkpt><trkpt lat="43.21248533712081" lon="11.50798304940701"><ele>163.2</ele><time>2026-04-08T12:06:00.999Z</time></trkpt><trkpt lat="43.21255035806531" lon="11.508066714127937"><ele>162.79999999999998</ele><time>2026-04-08T12:06:01.999Z</time></trkpt><trkpt lat="43.212616608848016" lon="11.50818070092108"><ele>162.39999999999998</ele><time>2026-04-08T12:06:02.999Z</time></trkpt><trkpt lat="43.21268006423298" lon="11.508332240843407"><ele>162.0</ele><time>2026-04-08T12:06:03.999Z</time></trkpt><trkpt lat="43.21274842448801" lon="11.508489762982247"><ele>162.0</ele><time>2026-04-08T12:06:04.999Z</time></trkpt><trkpt lat="43.21281935814678" lon="11.508654288751949"><ele>162.0</ele><time>2026-04-08T12:06:05.999Z</time></trkpt><trkpt lat="43.212897659393505" lon="11.508812830525985"><ele>162.0</ele><time>2026-04-08T12:06:06.999Z</time></trkpt><trkpt lat="43.21296340866798" lon="11.50895187301037"><ele>162.0</ele><time>2026-04-08T12:06:07.999Z</time></trkpt><trkpt lat="43.213024473310085" lon="11.50907616639119"><ele>161.8</ele><time>2026-04-08T12:06:08.999Z</time></trkpt><trkpt lat="43.213090431314285" lon="11.50919499349251"><ele>161.6</ele><time>2026-04-08T12:06:09.999Z</time></trkpt><trkpt lat="43.21315071987367" lon="11.509315053839787"><ele>161.4</ele><time>2026-04-08T12:06:11Z</time></trkpt><trkpt lat="43.21320375723024" lon="11.509426568907257"><ele>161.20000000000002</ele><time>2026-04-08T12:06:12Z</time></trkpt><trkpt lat="43.213265832291846" lon="11.50953020951947"><ele>161.0</ele><time>2026-04-08T12:06:13Z</time></trkpt><trkpt lat="43.21334087340762" lon="11.50963313690696"><ele>161.4</ele><time>2026-04-08T12:06:14Z</time></trkpt><trkpt lat="43.213429596905776" lon="11.50973778361322"><ele>161.8</ele><time>2026-04-08T12:06:15Z</time></trkpt><trkpt lat="43.21351684585373" lon="11.509851822277236"><ele>162.20000000000002</ele><time>2026-04-08T12:06:16Z</time></trkpt><trkpt lat="43.2136030693164" lon="11.509946878858795"><ele>162.60000000000002</ele><time>2026-04-08T12:06:17Z</time></trkpt><trkpt lat="43.2136750302751" lon="11.510041230732906"><ele>163.0</ele><time>2026-04-08T12:06:18Z</time></trkpt><trkpt lat="43.21375130808637" lon="11.510153262475491"><ele>163.0</ele><time>2026-04-08T12:06:19Z</time></trkpt><trkpt lat="43.21383241500695" lon="11.510270458222509"><ele>163.0</ele><time>2026-04-08T12:06:20Z</time></trkpt><trkpt lat="43.21391308642713" lon="11.510406324604643"><ele>163.0</ele><time>2026-04-08T12:06:21Z</time></trkpt><trkpt lat="43.213987683955935" lon="11.510550772650946"><ele>163.0</ele><time>2026-04-08T12:06:22Z</time></trkpt><trkpt lat="43.214055027537306" lon="11.51068102777438"><ele>163.2</ele><time>2026-04-08T12:06:23Z</time></trkpt><trkpt lat="43.21411679574377" lon="11.510789938360794"><ele>163.4</ele><time>2026-04-08T12:06:24Z</time></trkpt><trkpt lat="43.21417123928292" lon="11.51089497362232"><ele>163.6</ele><time>2026-04-08T12:06:25Z</time></trkpt><trkpt lat="43.21422163289275" lon="11.5110164743177"><ele>163.79999999999998</ele><time>2026-04-08T12:06:26Z</time></trkpt><trkpt lat="43.21425220305455" lon="11.51115197731871"><ele>164.0</ele><time>2026-04-08T12:06:27Z</time></trkpt><trkpt lat="43.21425991883524" lon="11.51128849124027"><ele>164.39999999999998</ele><time>2026-04-08T12:06:28Z</time></trkpt><trkpt lat="43.214229574597" lon="11.511421410593211"><ele>164.8</ele><time>2026-04-08T12:06:29Z</time></trkpt><trkpt lat="43.21421113943044" lon="11.51156831849837"><ele>165.2</ele><time>2026-04-08T12:06:30Z</time></trkpt><trkpt lat="43.2141817041013" lon="11.51169095647422"><ele>165.60000000000002</ele><time>2026-04-08T12:06:31Z</time></trkpt><trkpt lat="43.21417579620228" lon="11.511797592771458"><ele>166.0</ele><time>2026-04-08T12:06:32Z</time></trkpt><trkpt lat="43.21420809361881" lon="11.51196909397196"><ele>166.0</ele><time>2026-04-08T12:06:34Z</time></trkpt><trkpt lat="43.21423388350749" lon="11.512060794229694"><ele>166.0</ele><time>2026-04-08T12:06:35Z</time></trkpt><trkpt lat="43.214270436857106" lon="11.512145106288008"><ele>166.0</ele><time>2026-04-08T12:06:36Z</time></trkpt><trkpt lat="43.2143076537292" lon="11.512221969980475"><ele>166.0</ele><time>2026-04-08T12:06:37Z</time></trkpt><trkpt lat="43.21435457924531" lon="11.512291671541014"><ele>166.0</ele><time>2026-04-08T12:06:38Z</time></trkpt><trkpt lat="43.21440566072822" lon="11.512353771761195"><ele>166.0</ele><time>2026-04-08T12:06:39Z</time></trkpt><trkpt lat="43.2144706676101" lon="11.512411069534021"><ele>166.0</ele><time>2026-04-08T12:06:40Z</time></trkpt><trkpt lat="43.214536331618305" lon="11.512470968142825"><ele>166.4</ele><time>2026-04-08T12:06:41Z</time></trkpt><trkpt lat="43.21461024476992" lon="11.512536564366224"><ele>166.8</ele><time>2026-04-08T12:06:42Z</time></trkpt><trkpt lat="43.21469533907691" lon="11.51261605766013"><ele>167.20000000000002</ele><time>2026-04-08T12:06:43Z</time></trkpt><trkpt lat="43.21478920710897" lon="11.512699209861934"><ele>167.60000000000002</ele><time>2026-04-08T12:06:44Z</time></trkpt><trkpt lat="43.21488702308537" lon="11.512793781290343"><ele>168.0</ele><time>2026-04-08T12:06:45Z</time></trkpt><trkpt lat="43.21498212866414" lon="11.512889334904898"><ele>170.4</ele><time>2026-04-08T12:06:46Z</time></trkpt><trkpt lat="43.215081863594094" lon="11.512991163730362"><ele>172.8</ele><time>2026-04-08T12:06:47Z</time></trkpt><trkpt lat="43.21518088871102" lon="11.513099841516274"><ele>175.2</ele><time>2026-04-08T12:06:48Z</time></trkpt><trkpt lat="43.21525929100293" lon="11.513199840737709"><ele>177.6</ele><time>2026-04-08T12:06:49Z</time></trkpt><trkpt lat="43.215314247013765" lon="11.513284675739412"><ele>180.0</ele><time>2026-04-08T12:06:50Z</time></trkpt><trkpt lat="43.21536214877853" lon="11.513372512783553"><ele>180.0</ele><time>2026-04-08T12:06:51Z</time></trkpt><trkpt lat="43.21540548371774" lon="11.513469099713125"><ele>180.0</ele><time>2026-04-08T12:06:52Z</time></trkpt><trkpt lat="43.215444961189895" lon="11.513572350374506"><ele>180.0</ele><time>2026-04-08T12:06:53Z</time></trkpt><trkpt lat="43.215474487524496" lon="11.513688919523519"><ele>180.0</ele><time>2026-04-08T12:06:54Z</time></trkpt><trkpt lat="43.2154956902713" lon="11.513811986623454"><ele>180.0</ele><time>2026-04-08T12:06:55Z</time></trkpt><trkpt lat="43.21549104128097" lon="11.513911269675827"><ele>180.0</ele><time>2026-04-08T12:06:56Z</time></trkpt><trkpt lat="43.21551881996556" lon="11.514004083590702"><ele>180.33333333333334</ele><time>2026-04-08T12:06:57Z</time></trkpt><trkpt lat="43.21553744151644" lon="11.514113094621193"><ele>180.66666666666666</ele><time>2026-04-08T12:06:58Z</time></trkpt><trkpt lat="43.21556348335633" lon="11.514219905646199"><ele>181.0</ele><time>2026-04-08T12:06:59Z</time></trkpt><trkpt lat="43.215602947523834" lon="11.51432363240377"><ele>181.33333333333331</ele><time>2026-04-08T12:07:00Z</time></trkpt><trkpt lat="43.21563782840328" lon="11.514439641754496"><ele>181.66666666666666</ele><time>2026-04-08T12:07:01Z</time></trkpt><trkpt lat="43.215683559102175" lon="11.514554861165946"><ele>182.0</ele><time>2026-04-08T12:07:02Z</time></trkpt><trkpt lat="43.21572815241337" lon="11.514679075952516"><ele>180.39999999999998</ele><time>2026-04-08T12:07:03Z</time></trkpt><trkpt lat="43.21576827114533" lon="11.514803665024788"><ele>178.79999999999998</ele><time>2026-04-08T12:07:04Z</time></trkpt><trkpt lat="43.21580676903025" lon="11.514927920325906"><ele>177.2</ele><time>2026-04-08T12:07:05Z</time></trkpt><trkpt lat="43.21584704614486" lon="11.515048634325927"><ele>175.6</ele><time>2026-04-08T12:07:06Z</time></trkpt><trkpt lat="43.21589275787273" lon="11.51517845273654"><ele>174.0</ele><time>2026-04-08T12:07:07Z</time></trkpt><trkpt lat="43.21593972671058" lon="11.515311518918104"><ele>172.5</ele><time>2026-04-08T12:07:08Z</time></trkpt><trkpt lat="43.21598853812581" lon="11.515450317097388"><ele>171.0</ele><time>2026-04-08T12:07:09Z</time></trkpt><trkpt lat="43.2160380977675" lon="11.515596440394582"><ele>169.5</ele><time>2026-04-08T12:07:10Z</time></trkpt><trkpt lat="43.216099993085365" lon="11.515740525483444"><ele>168.0</ele><time>2026-04-08T12:07:11Z</time></trkpt><trkpt lat="43.216175808194855" lon="11.515897323009627"><ele>168.0</ele><time>2026-04-08T12:07:12Z</time></trkpt><trkpt lat="43.21625801116745" lon="11.51605375112599"><ele>168.0</ele><time>2026-04-08T12:07:13Z</time></trkpt><trkpt lat="43.216330844111376" lon="11.51619622590489"><ele>168.0</ele><time>2026-04-08T12:07:14Z</time></trkpt><trkpt lat="43.216394048331495" lon="11.516323202463587"><ele>168.0</ele><time>2026-04-08T12:07:15Z</time></trkpt><trkpt lat="43.21646083603776" lon="11.5164391142019"><ele>168.25</ele><time>2026-04-08T12:07:16Z</time></trkpt><trkpt lat="43.216528532715486" lon="11.516565737313563"><ele>168.5</ele><time>2026-04-08T12:07:17Z</time></trkpt><trkpt lat="43.216598123347275" lon="11.516706119018378"><ele>168.75</ele><time>2026-04-08T12:07:18Z</time></trkpt><trkpt lat="43.21666252385168" lon="11.516851137622128"><ele>169.0</ele><time>2026-04-08T12:07:19Z</time></trkpt><trkpt lat="43.21674133401329" lon="11.516999913606126"><ele>169.25</ele><time>2026-04-08T12:07:20Z</time></trkpt><trkpt lat="43.21681357379047" lon="11.517164498679453"><ele>169.5</ele><time>2026-04-08T12:07:21Z</time></trkpt><trkpt lat="43.21688108373912" lon="11.517328157115047"><ele>169.75</ele><time>2026-04-08T12:07:22Z</time></trkpt><trkpt lat="43.2169520326266" lon="11.517496888366507"><ele>170.0</ele><time>2026-04-08T12:07:23Z</time></trkpt><trkpt lat="43.2170175441616" lon="11.517660550040658"><ele>170.0</ele><time>2026-04-08T12:07:24Z</time></trkpt><trkpt lat="43.21706701248604" lon="11.517801589164021"><ele>170.0</ele><time>2026-04-08T12:07:25Z</time></trkpt><trkpt lat="43.21712080555994" lon="11.51794029105278"><ele>170.0</ele><time>2026-04-08T12:07:25.999Z</time></trkpt><trkpt lat="43.2171785711616" lon="11.518084665249276"><ele>170.0</ele><time>2026-04-08T12:07:26.999Z</time></trkpt><trkpt lat="43.21723505919812" lon="11.518232728993233"><ele>169.75</ele><time>2026-04-08T12:07:27.999Z</time></trkpt><trkpt lat="43.217289636625715" lon="11.518373718899324"><ele>169.5</ele><time>2026-04-08T12:07:28.999Z</time></trkpt><trkpt lat="43.21733486620453" lon="11.518501430883942"><ele>169.25</ele><time>2026-04-08T12:07:29.999Z</time></trkpt><trkpt lat="43.21737859518821" lon="11.518643484784123"><ele>169.0</ele><time>2026-04-08T12:07:30.999Z</time></trkpt><trkpt lat="43.21742207796253" lon="11.5187978101043"><ele>170.25</ele><time>2026-04-08T12:07:31.999Z</time></trkpt><trkpt lat="43.217455414883425" lon="11.51895452059786"><ele>171.5</ele><time>2026-04-08T12:07:32.999Z</time></trkpt><trkpt lat="43.21746839129382" lon="11.519103161013076"><ele>172.75</ele><time>2026-04-08T12:07:33.999Z</time></trkpt><trkpt lat="43.217466026981484" lon="11.51926618892957"><ele>174.0</ele><time>2026-04-08T12:07:34.999Z</time></trkpt><trkpt lat="43.21745706570127" lon="11.519429618958048"><ele>175.5</ele><time>2026-04-08T12:07:35.999Z</time></trkpt><trkpt lat="43.21744364551294" lon="11.519592810960706"><ele>177.0</ele><time>2026-04-08T12:07:36.999Z</time></trkpt><trkpt lat="43.217428967899615" lon="11.519768067274667"><ele>178.5</ele><time>2026-04-08T12:07:37.999Z</time></trkpt><trkpt lat="43.21742150554563" lon="11.51995064547412"><ele>180.0</ele><time>2026-04-08T12:07:38.999Z</time></trkpt><trkpt lat="43.21741214527781" lon="11.520135135419991"><ele>180.0</ele><time>2026-04-08T12:07:39.999Z</time></trkpt><trkpt lat="43.21740354806235" lon="11.520317799096567"><ele>180.0</ele><time>2026-04-08T12:07:40.999Z</time></trkpt><trkpt lat="43.21739921359949" lon="11.520461299279104"><ele>180.0</ele><time>2026-04-08T12:07:41.999Z</time></trkpt><trkpt lat="43.217394656488416" lon="11.52057843115584"><ele>180.0</ele><time>2026-04-08T12:07:42.999Z</time></trkpt><trkpt lat="43.217391728859106" lon="11.52069419364129"><ele>180.0</ele><time>2026-04-08T12:07:43.999Z</time></trkpt><trkpt lat="43.217402256501735" lon="11.520784603062548"><ele>179.83333333333334</ele><time>2026-04-08T12:07:44.999Z</time></trkpt><trkpt lat="43.217401408054414" lon="11.520885217339131"><ele>179.66666666666666</ele><time>2026-04-08T12:07:45.999Z</time></trkpt><trkpt lat="43.2174472599321" lon="11.520983317285733"><ele>179.5</ele><time>2026-04-08T12:07:46.999Z</time></trkpt><trkpt lat="43.217493173597084" lon="11.521094678197677"><ele>179.33333333333331</ele><time>2026-04-08T12:07:47.999Z</time></trkpt><trkpt lat="43.217543264742886" lon="11.521190712794537"><ele>179.16666666666666</ele><time>2026-04-08T12:07:48.999Z</time></trkpt><trkpt lat="43.217602557927904" lon="11.521264264710053"><ele>179.0</ele><time>2026-04-08T12:07:49.999Z</time></trkpt><trkpt lat="43.21766187422665" lon="11.52135531279474"><ele>179.0</ele><time>2026-04-08T12:07:50.999Z</time></trkpt><trkpt lat="43.21775021206279" lon="11.521407738902754"><ele>179.0</ele><time>2026-04-08T12:07:51.999Z</time></trkpt><trkpt lat="43.21784150420311" lon="11.521473187367254"><ele>179.0</ele><time>2026-04-08T12:07:52.999Z</time></trkpt><trkpt lat="43.217932432209764" lon="11.521519798239016"><ele>179.0</ele><time>2026-04-08T12:07:53.999Z</time></trkpt><trkpt lat="43.21801359627832" lon="11.5215685482808"><ele>179.0</ele><time>2026-04-08T12:07:54.999Z</time></trkpt><trkpt lat="43.218080871722066" lon="11.521626431699069"><ele>179.0</ele><time>2026-04-08T12:07:55.999Z</time></trkpt><trkpt lat="43.21813391785338" lon="11.521698370880676"><ele>179.0</ele><time>2026-04-08T12:07:56.999Z</time></trkpt><trkpt lat="43.21816694686116" lon="11.521794959696265"><ele>179.0</ele><time>2026-04-08T12:07:57.999Z</time></trkpt><trkpt lat="43.218167944691906" lon="11.521931905728689"><ele>179.0</ele><time>2026-04-08T12:07:58.999Z</time></trkpt><trkpt lat="43.21816558774601" lon="11.52206646678807"><ele>179.0</ele><time>2026-04-08T12:07:59.999Z</time></trkpt><trkpt lat="43.21817801458585" lon="11.522207698197112"><ele>179.16666666666666</ele><time>2026-04-08T12:08:00.999Z</time></trkpt><trkpt lat="43.21821667763479" lon="11.522319806137743"><ele>179.33333333333331</ele><time>2026-04-08T12:08:01.999Z</time></trkpt><trkpt lat="43.21824943063801" lon="11.52242445905457"><ele>179.5</ele><time>2026-04-08T12:08:02.999Z</time></trkpt><trkpt lat="43.218267345684716" lon="11.52254460642959"><ele>179.66666666666666</ele><time>2026-04-08T12:08:03.999Z</time></trkpt><trkpt lat="43.218301369220896" lon="11.522658938571489"><ele>179.83333333333334</ele><time>2026-04-08T12:08:04.999Z</time></trkpt><trkpt lat="43.21834169918288" lon="11.52275965944469"><ele>180.0</ele><time>2026-04-08T12:08:05.999Z</time></trkpt><trkpt lat="43.218381385687216" lon="11.522867074068571"><ele>178.4</ele><time>2026-04-08T12:08:06.999Z</time></trkpt><trkpt lat="43.21841640703566" lon="11.522977663236766"><ele>176.8</ele><time>2026-04-08T12:08:07.999Z</time></trkpt><trkpt lat="43.218449897121495" lon="11.523075802426108"><ele>175.2</ele><time>2026-04-08T12:08:08.999Z</time></trkpt><trkpt lat="43.21848810268322" lon="11.523173600665437"><ele>173.6</ele><time>2026-04-08T12:08:09.999Z</time></trkpt><trkpt lat="43.21854968587671" lon="11.523290413775175"><ele>172.0</ele><time>2026-04-08T12:08:10.999Z</time></trkpt><trkpt lat="43.21860635638145" lon="11.523427748804592"><ele>172.0</ele><time>2026-04-08T12:08:11.999Z</time></trkpt><trkpt lat="43.21867959802102" lon="11.52355309879219"><ele>172.0</ele><time>2026-04-08T12:08:12.999Z</time></trkpt><trkpt lat="43.21876154997719" lon="11.523693937789297"><ele>172.0</ele><time>2026-04-08T12:08:13.999Z</time></trkpt><trkpt lat="43.218834805167475" lon="11.523818412696086"><ele>172.0</ele><time>2026-04-08T12:08:14.999Z</time></trkpt><trkpt lat="43.21890513028695" lon="11.523939622045928"><ele>172.0</ele><time>2026-04-08T12:08:15.999Z</time></trkpt><trkpt lat="43.218973579061846" lon="11.524067721863373"><ele>172.0</ele><time>2026-04-08T12:08:17Z</time></trkpt><trkpt lat="43.21904883622305" lon="11.524203347179334"><ele>172.0</ele><time>2026-04-08T12:08:18Z</time></trkpt><trkpt lat="43.219120414840134" lon="11.524327425973409"><ele>172.0</ele><time>2026-04-08T12:08:19Z</time></trkpt><trkpt lat="43.219190603116786" lon="11.52444272894032"><ele>171.0</ele><time>2026-04-08T12:08:20Z</time></trkpt><trkpt lat="43.219262921063354" lon="11.52456314998928"><ele>170.0</ele><time>2026-04-08T12:08:21Z</time></trkpt><trkpt lat="43.21933922087829" lon="11.52468384031466"><ele>169.0</ele><time>2026-04-08T12:08:22Z</time></trkpt><trkpt lat="43.2194079595351" lon="11.52478722755083"><ele>168.0</ele><time>2026-04-08T12:08:23Z</time></trkpt><trkpt lat="43.21948049502231" lon="11.5248799539063"><ele>167.0</ele><time>2026-04-08T12:08:24Z</time></trkpt><trkpt lat="43.21955176909944" lon="11.524940750121974"><ele>167.0</ele><time>2026-04-08T12:08:25Z</time></trkpt><trkpt lat="43.21962730132729" lon="11.524997129558551"><ele>167.0</ele><time>2026-04-08T12:08:26Z</time></trkpt><trkpt lat="43.21970305063386" lon="11.525027662876935"><ele>167.0</ele><time>2026-04-08T12:08:27Z</time></trkpt><trkpt lat="43.21977270571876" lon="11.525033184559842"><ele>167.0</ele><time>2026-04-08T12:08:28Z</time></trkpt><trkpt lat="43.21984422481655" lon="11.525056568502904"><ele>167.0</ele><time>2026-04-08T12:08:29Z</time></trkpt><trkpt lat="43.21994529139013" lon="11.525022046373818"><ele>167.0</ele><time>2026-04-08T12:08:30Z</time></trkpt><trkpt lat="43.22003839074087" lon="11.524962970283035"><ele>168.2</ele><time>2026-04-08T12:08:31Z</time></trkpt><trkpt lat="43.22012391840522" lon="11.524924658147766"><ele>169.39999999999998</ele><time>2026-04-08T12:08:32Z</time></trkpt><trkpt lat="43.220208692232944" lon="11.52488317050098"><ele>170.60000000000002</ele><time>2026-04-08T12:08:33Z</time></trkpt><trkpt lat="43.22029508600264" lon="11.524850957126416"><ele>171.8</ele><time>2026-04-08T12:08:34Z</time></trkpt><trkpt lat="43.22039233068599" lon="11.524840370241192"><ele>173.0</ele><time>2026-04-08T12:08:35Z</time></trkpt><trkpt lat="43.22048880906993" lon="11.524863964034257"><ele>173.0</ele><time>2026-04-08T12:08:36Z</time></trkpt><trkpt lat="43.22058940304109" lon="11.524919185044169"><ele>173.0</ele><time>2026-04-08T12:08:37Z</time></trkpt><trkpt lat="43.22068903098989" lon="11.524999718015179"><ele>173.0</ele><time>2026-04-08T12:08:38Z</time></trkpt><trkpt lat="43.22078054557128" lon="11.52509558152731"><ele>173.0</ele><time>2026-04-08T12:08:39Z</time></trkpt><trkpt lat="43.220865059948146" lon="11.525166978658955"><ele>173.0</ele><time>2026-04-08T12:08:40Z</time></trkpt><trkpt lat="43.22095289392011" lon="11.525218038393902"><ele>174.0</ele><time>2026-04-08T12:08:41Z</time></trkpt><trkpt lat="43.221059535075625" lon="11.525254727502855"><ele>175.0</ele><time>2026-04-08T12:08:42Z</time></trkpt><trkpt lat="43.221178861901755" lon="11.525279841599653"><ele>176.0</ele><time>2026-04-08T12:08:43Z</time></trkpt><trkpt lat="43.22128479097908" lon="11.525303143048818"><ele>177.0</ele><time>2026-04-08T12:08:44Z</time></trkpt><trkpt lat="43.221393570785914" lon="11.525323353740019"><ele>178.0</ele><time>2026-04-08T12:08:45Z</time></trkpt><trkpt lat="43.22151590498359" lon="11.525342485822781"><ele>179.5</ele><time>2026-04-08T12:08:46Z</time></trkpt><trkpt lat="43.22165405583048" lon="11.525364271427954"><ele>181.0</ele><time>2026-04-08T12:08:47Z</time></trkpt><trkpt lat="43.22179703277849" lon="11.525387093445898"><ele>182.5</ele><time>2026-04-08T12:08:48Z</time></trkpt><trkpt lat="43.22192967539181" lon="11.525404679214722"><ele>184.0</ele><time>2026-04-08T12:08:49Z</time></trkpt><trkpt lat="43.22204627494899" lon="11.525419859701893"><ele>181.39999999999998</ele><time>2026-04-08T12:08:50Z</time></trkpt><trkpt lat="43.222162993523824" lon="11.525443316312835"><ele>178.8</ele><time>2026-04-08T12:08:51Z</time></trkpt><trkpt lat="43.22228172581428" lon="11.525466159818185"><ele>176.2</ele><time>2026-04-08T12:08:52Z</time></trkpt><trkpt lat="43.222390226238794" lon="11.52548226313506"><ele>173.60000000000002</ele><time>2026-04-08T12:08:53Z</time></trkpt><trkpt lat="43.22248789456463" lon="11.525485026413428"><ele>171.0</ele><time>2026-04-08T12:08:54Z</time></trkpt><trkpt lat="43.222586743229314" lon="11.525484725629301"><ele>170.60000000000002</ele><time>2026-04-08T12:08:55Z</time></trkpt><trkpt lat="43.2226888884046" lon="11.525495522008796"><ele>170.2</ele><time>2026-04-08T12:08:56Z</time></trkpt><trkpt lat="43.222778628145996" lon="11.525571953388933"><ele>169.8</ele><time>2026-04-08T12:08:57Z</time></trkpt><trkpt lat="43.22288245613657" lon="11.525645233792197"><ele>169.39999999999998</ele><time>2026-04-08T12:08:58Z</time></trkpt><trkpt lat="43.222960029550705" lon="11.525775456039625"><ele>169.0</ele><time>2026-04-08T12:08:59Z</time></trkpt><trkpt lat="43.2230620276553" lon="11.52585462172287"><ele>170.39999999999998</ele><time>2026-04-08T12:09:00Z</time></trkpt><trkpt lat="43.22315031766625" lon="11.525917925309264"><ele>171.8</ele><time>2026-04-08T12:09:01Z</time></trkpt><trkpt lat="43.22322594404533" lon="11.525959156638963"><ele>173.2</ele><time>2026-04-08T12:09:02Z</time></trkpt><trkpt lat="43.22331235851606" lon="11.525980309239728"><ele>174.60000000000002</ele><time>2026-04-08T12:09:03Z</time></trkpt><trkpt lat="43.223397912837584" lon="11.52598016071168"><ele>176.0</ele><time>2026-04-08T12:09:04Z</time></trkpt><trkpt lat="43.223498332707486" lon="11.525970522972486"><ele>176.0</ele><time>2026-04-08T12:09:05Z</time></trkpt><trkpt lat="43.223611364718884" lon="11.525984637880894"><ele>176.0</ele><time>2026-04-08T12:09:06Z</time></trkpt><trkpt lat="43.22372886895102" lon="11.525967595522646"><ele>176.0</ele><time>2026-04-08T12:09:07Z</time></trkpt><trkpt lat="43.2238468145171" lon="11.525962832786812"><ele>176.0</ele><time>2026-04-08T12:09:08Z</time></trkpt><trkpt lat="43.22396330739231" lon="11.525955986195365"><ele>176.25</ele><time>2026-04-08T12:09:09Z</time></trkpt><trkpt lat="43.22406731107624" lon="11.525942314859874"><ele>176.5</ele><time>2026-04-08T12:09:10Z</time></trkpt><trkpt lat="43.2241675016106" lon="11.525929692220497"><ele>176.75</ele><time>2026-04-08T12:09:11Z</time></trkpt><trkpt lat="43.22428546422593" lon="11.52591895772266"><ele>177.0</ele><time>2026-04-08T12:09:12Z</time></trkpt><trkpt lat="43.22441556768457" lon="11.525925050340994"><ele>177.0</ele><time>2026-04-08T12:09:13Z</time></trkpt><trkpt lat="43.22455675899553" lon="11.525954376726819"><ele>177.0</ele><time>2026-04-08T12:09:14Z</time></trkpt><trkpt lat="43.22470803220553" lon="11.525998805192353"><ele>177.0</ele><time>2026-04-08T12:09:15Z</time></trkpt><trkpt lat="43.22486408763108" lon="11.526048083341506"><ele>178.0</ele><time>2026-04-08T12:09:16Z</time></trkpt><trkpt lat="43.22502107573514" lon="11.526096092699495"><ele>179.0</ele><time>2026-04-08T12:09:17Z</time></trkpt><trkpt lat="43.22518155043944" lon="11.526143304530759"><ele>180.0</ele><time>2026-04-08T12:09:18Z</time></trkpt><trkpt lat="43.225320713608596" lon="11.52617109987391"><ele>180.0</ele><time>2026-04-08T12:09:19Z</time></trkpt><trkpt lat="43.22545631570782" lon="11.5262076077355"><ele>180.0</ele><time>2026-04-08T12:09:20Z</time></trkpt><trkpt lat="43.22558518813277" lon="11.52624889206572"><ele>180.0</ele><time>2026-04-08T12:09:21Z</time></trkpt><trkpt lat="43.22568859418405" lon="11.526308311317916"><ele>180.0</ele><time>2026-04-08T12:09:22Z</time></trkpt><trkpt lat="43.22579143213207" lon="11.526323363275571"><ele>179.0</ele><time>2026-04-08T12:09:23Z</time></trkpt><trkpt lat="43.22587826670341" lon="11.52638794983602"><ele>178.0</ele><time>2026-04-08T12:09:24Z</time></trkpt><trkpt lat="43.2259837223361" lon="11.526389498118963"><ele>177.0</ele><time>2026-04-08T12:09:25Z</time></trkpt><trkpt lat="43.22608896683316" lon="11.52639989305216"><ele>176.0</ele><time>2026-04-08T12:09:26Z</time></trkpt><trkpt lat="43.22621001420664" lon="11.526395010699515"><ele>175.0</ele><time>2026-04-08T12:09:27Z</time></trkpt><trkpt lat="43.22633297555745" lon="11.526395845181796"><ele>175.0</ele><time>2026-04-08T12:09:28Z</time></trkpt><trkpt lat="43.22644266389817" lon="11.526380250649652"><ele>175.0</ele><time>2026-04-08T12:09:29Z</time></trkpt><trkpt lat="43.22654407118018" lon="11.526376676894454"><ele>175.0</ele><time>2026-04-08T12:09:30Z</time></trkpt><trkpt lat="43.22665333987341" lon="11.52637440034881"><ele>175.0</ele><time>2026-04-08T12:09:31Z</time></trkpt><trkpt lat="43.22675939525104" lon="11.526375982726922"><ele>175.0</ele><time>2026-04-08T12:09:32Z</time></trkpt><trkpt lat="43.226858800925164" lon="11.526374878928708"><ele>175.4</ele><time>2026-04-08T12:09:33Z</time></trkpt><trkpt lat="43.226966115985206" lon="11.52636922902606"><ele>175.8</ele><time>2026-04-08T12:09:34Z</time></trkpt><trkpt lat="43.227061970015605" lon="11.526381240375656"><ele>176.2</ele><time>2026-04-08T12:09:35Z</time></trkpt><trkpt lat="43.227162666617645" lon="11.526414466487582"><ele>176.6</ele><time>2026-04-08T12:09:36Z</time></trkpt><trkpt lat="43.2272381949852" lon="11.52644444727019"><ele>177.0</ele><time>2026-04-08T12:09:37Z</time></trkpt><trkpt lat="43.227315202737536" lon="11.526493981309072"><ele>176.2</ele><time>2026-04-08T12:09:38Z</time></trkpt><trkpt lat="43.22738980065306" lon="11.526573163384326"><ele>175.39999999999998</ele><time>2026-04-08T12:09:39Z</time></trkpt><trkpt lat="43.22747205162026" lon="11.526667995685967"><ele>174.60000000000002</ele><time>2026-04-08T12:09:40Z</time></trkpt><trkpt lat="43.22756310534941" lon="11.526760849244056"><ele>173.8</ele><time>2026-04-08T12:09:41Z</time></trkpt><trkpt lat="43.22765391499084" lon="11.526855792057882"><ele>173.0</ele><time>2026-04-08T12:09:42Z</time></trkpt><trkpt lat="43.22773726550261" lon="11.526944037792786"><ele>173.0</ele><time>2026-04-08T12:09:43Z</time></trkpt><trkpt lat="43.22782128618303" lon="11.527020631467696"><ele>173.0</ele><time>2026-04-08T12:09:44Z</time></trkpt><trkpt lat="43.22791135605096" lon="11.527109807831176"><ele>173.0</ele><time>2026-04-08T12:09:45Z</time></trkpt><trkpt lat="43.2280072505255" lon="11.527184468178323"><ele>173.0</ele><time>2026-04-08T12:09:46Z</time></trkpt><trkpt lat="43.22810374208246" lon="11.527237300126561"><ele>173.0</ele><time>2026-04-08T12:09:47Z</time></trkpt><trkpt lat="43.22820392636507" lon="11.527286244697004"><ele>172.0</ele><time>2026-04-08T12:09:47.999Z</time></trkpt><trkpt lat="43.22831212425694" lon="11.52732957408904"><ele>171.0</ele><time>2026-04-08T12:09:48.999Z</time></trkpt><trkpt lat="43.228415133524855" lon="11.52737731484085"><ele>170.0</ele><time>2026-04-08T12:09:49.999Z</time></trkpt><trkpt lat="43.22850593536771" lon="11.52742133272783"><ele>169.0</ele><time>2026-04-08T12:09:50.999Z</time></trkpt><trkpt lat="43.22858951010041" lon="11.52746436558188"><ele>168.0</ele><time>2026-04-08T12:09:51.999Z</time></trkpt><trkpt lat="43.22868589010336" lon="11.527515353081245"><ele>168.0</ele><time>2026-04-08T12:09:52.999Z</time></trkpt><trkpt lat="43.228769238316474" lon="11.527591933814415"><ele>168.0</ele><time>2026-04-08T12:09:53.999Z</time></trkpt><trkpt lat="43.2288606367625" lon="11.527691018152908"><ele>168.0</ele><time>2026-04-08T12:09:54.999Z</time></trkpt><trkpt lat="43.228953596548116" lon="11.527798321717858"><ele>168.0</ele><time>2026-04-08T12:09:55.999Z</time></trkpt><trkpt lat="43.22903979437567" lon="11.527906393511365"><ele>169.5</ele><time>2026-04-08T12:09:56.999Z</time></trkpt><trkpt lat="43.22913390455096" lon="11.52802489071397"><ele>171.0</ele><time>2026-04-08T12:09:57.999Z</time></trkpt><trkpt lat="43.22923162004398" lon="11.528138677088947"><ele>172.5</ele><time>2026-04-08T12:09:58.999Z</time></trkpt><trkpt lat="43.229337816423275" lon="11.528266584642026"><ele>174.0</ele><time>2026-04-08T12:09:59.999Z</time></trkpt><trkpt lat="43.22942724591987" lon="11.528378817727456"><ele>174.0</ele><time>2026-04-08T12:10:00.999Z</time></trkpt><trkpt lat="43.22950540433972" lon="11.528469884303805"><ele>174.0</ele><time>2026-04-08T12:10:01.999Z</time></trkpt><trkpt lat="43.22958831016116" lon="11.52855982062102"><ele>174.0</ele><time>2026-04-08T12:10:02.999Z</time></trkpt><trkpt lat="43.22966700485741" lon="11.528656180872549"><ele>174.0</ele><time>2026-04-08T12:10:03.999Z</time></trkpt><trkpt lat="43.2297310871865" lon="11.528706887807601"><ele>174.0</ele><time>2026-04-08T12:10:04.999Z</time></trkpt><trkpt lat="43.22980841094799" lon="11.528778383835537"><ele>174.39999999999998</ele><time>2026-04-08T12:10:06.999Z</time></trkpt><trkpt lat="43.2298788938819" lon="11.528800018646649"><ele>174.8</ele><time>2026-04-08T12:10:09.999Z</time></trkpt><trkpt lat="43.230000766363375" lon="11.528916546543318"><ele>175.2</ele><time>2026-04-08T12:10:11.999Z</time></trkpt><trkpt lat="43.23006638932405" lon="11.529013811723154"><ele>175.60000000000002</ele><time>2026-04-08T12:10:12.999Z</time></trkpt><trkpt lat="43.23013373130432" lon="11.529122130289101"><ele>176.0</ele><time>2026-04-08T12:10:13.999Z</time></trkpt><trkpt lat="43.23022101961801" lon="11.529236518919067"><ele>176.0</ele><time>2026-04-08T12:10:14.999Z</time></trkpt><trkpt lat="43.230306052832745" lon="11.529346339039856"><ele>176.0</ele><time>2026-04-08T12:10:15.999Z</time></trkpt><trkpt lat="43.2303951919567" lon="11.529463486276082"><ele>176.0</ele><time>2026-04-08T12:10:16.999Z</time></trkpt><trkpt lat="43.23048831191977" lon="11.529588455750162"><ele>176.0</ele><time>2026-04-08T12:10:17.999Z</time></trkpt><trkpt lat="43.230581166992415" lon="11.529721711515633"><ele>175.0</ele><time>2026-04-08T12:10:18.999Z</time></trkpt><trkpt lat="43.230683169323285" lon="11.529856576593462"><ele>174.0</ele><time>2026-04-08T12:10:19.999Z</time></trkpt><trkpt lat="43.23077710057492" lon="11.529987243153363"><ele>173.0</ele><time>2026-04-08T12:10:20.999Z</time></trkpt><trkpt lat="43.23086657052647" lon="11.530107813855016"><ele>172.0</ele><time>2026-04-08T12:10:21.999Z</time></trkpt><trkpt lat="43.23095686915131" lon="11.530235267282862"><ele>172.0</ele><time>2026-04-08T12:10:23Z</time></trkpt><trkpt lat="43.23105816536523" lon="11.53037533891627"><ele>172.0</ele><time>2026-04-08T12:10:24Z</time></trkpt><trkpt lat="43.23114881694797" lon="11.530506862042108"><ele>172.0</ele><time>2026-04-08T12:10:25Z</time></trkpt><trkpt lat="43.231234875014444" lon="11.530653213165847"><ele>172.0</ele><time>2026-04-08T12:10:26Z</time></trkpt><trkpt lat="43.23131199250435" lon="11.530820263427621"><ele>171.33333333333334</ele><time>2026-04-08T12:10:27Z</time></trkpt><trkpt lat="43.23137843401203" lon="11.531008293293892"><ele>170.66666666666666</ele><time>2026-04-08T12:10:28Z</time></trkpt><trkpt lat="43.2314352039908" lon="11.531211965506042"><ele>170.0</ele><time>2026-04-08T12:10:29Z</time></trkpt><trkpt lat="43.23148099117852" lon="11.53140996196476"><ele>170.0</ele><time>2026-04-08T12:10:30Z</time></trkpt><trkpt lat="43.231522739217155" lon="11.531608478663824"><ele>170.0</ele><time>2026-04-08T12:10:31Z</time></trkpt><trkpt lat="43.23154968942853" lon="11.531822788750427"><ele>170.0</ele><time>2026-04-08T12:10:32Z</time></trkpt><trkpt lat="43.231606928220195" lon="11.532030325194423"><ele>170.0</ele><time>2026-04-08T12:10:33Z</time></trkpt><trkpt lat="43.23164858907857" lon="11.532234898179416"><ele>170.0</ele><time>2026-04-08T12:10:34Z</time></trkpt><trkpt lat="43.23169193907616" lon="11.53245753583877"><ele>170.0</ele><time>2026-04-08T12:10:35Z</time></trkpt><trkpt lat="43.23174008064223" lon="11.532684454045123"><ele>170.0</ele><time>2026-04-08T12:10:36Z</time></trkpt><trkpt lat="43.23177167511763" lon="11.532926799594744"><ele>170.0</ele><time>2026-04-08T12:10:37Z</time></trkpt><trkpt lat="43.23181842779266" lon="11.533155235287"><ele>170.0</ele><time>2026-04-08T12:10:38Z</time></trkpt><trkpt lat="43.23186153015668" lon="11.533365487204424"><ele>170.0</ele><time>2026-04-08T12:10:39Z</time></trkpt><trkpt lat="43.23191755298704" lon="11.533560554925614"><ele>170.0</ele><time>2026-04-08T12:10:40Z</time></trkpt><trkpt lat="43.2319566009303" lon="11.533742805096047"><ele>170.0</ele><time>2026-04-08T12:10:41Z</time></trkpt><trkpt lat="43.23200454048025" lon="11.533914158300233"><ele>170.0</ele><time>2026-04-08T12:10:42Z</time></trkpt><trkpt lat="43.23207424082838" lon="11.534065402674512"><ele>169.33333333333331</ele><time>2026-04-08T12:10:43Z</time></trkpt><trkpt lat="43.23217383711465" lon="11.534214537282974"><ele>168.66666666666666</ele><time>2026-04-08T12:10:44Z</time></trkpt><trkpt lat="43.232295121709186" lon="11.534355692927942"><ele>168.0</ele><time>2026-04-08T12:10:45Z</time></trkpt><trkpt lat="43.232436653968" lon="11.53448374809169"><ele>168.66666666666666</ele><time>2026-04-08T12:10:46Z</time></trkpt><trkpt lat="43.232584116064764" lon="11.534605055651488"><ele>169.33333333333331</ele><time>2026-04-08T12:10:47Z</time></trkpt><trkpt lat="43.232718363232735" lon="11.534713765314832"><ele>170.0</ele><time>2026-04-08T12:10:48Z</time></trkpt><trkpt lat="43.23284129577092" lon="11.53480204756312"><ele>170.0</ele><time>2026-04-08T12:10:49Z</time></trkpt><trkpt lat="43.2329586144363" lon="11.534889671453037"><ele>170.0</ele><time>2026-04-08T12:10:50Z</time></trkpt><trkpt lat="43.23308551559301" lon="11.534984206638756"><ele>170.0</ele><time>2026-04-08T12:10:51Z</time></trkpt><trkpt lat="43.23321752220471" lon="11.535084920580331"><ele>170.0</ele><time>2026-04-08T12:10:52Z</time></trkpt><trkpt lat="43.23334016739901" lon="11.535185552031708"><ele>169.66666666666666</ele><time>2026-04-08T12:10:53Z</time></trkpt><trkpt lat="43.23346670390893" lon="11.535295312021045"><ele>169.33333333333334</ele><time>2026-04-08T12:10:54Z</time></trkpt><trkpt lat="43.233580040274376" lon="11.535429123299112"><ele>169.0</ele><time>2026-04-08T12:10:55Z</time></trkpt><trkpt lat="43.23367675916103" lon="11.535588171200029"><ele>169.0</ele><time>2026-04-08T12:10:56Z</time></trkpt><trkpt lat="43.23376759300856" lon="11.535759118143433"><ele>169.0</ele><time>2026-04-08T12:10:57Z</time></trkpt><trkpt lat="43.233864343610314" lon="11.535943564636815"><ele>169.0</ele><time>2026-04-08T12:10:58Z</time></trkpt><trkpt lat="43.233963038147046" lon="11.536124317374812"><ele>170.0</ele><time>2026-04-08T12:10:59Z</time></trkpt><trkpt lat="43.23406230510693" lon="11.536306173828171"><ele>171.0</ele><time>2026-04-08T12:11:00Z</time></trkpt><trkpt lat="43.23416388078406" lon="11.536495536673065"><ele>172.0</ele><time>2026-04-08T12:11:01Z</time></trkpt><trkpt lat="43.234274927830356" lon="11.536698148712816"><ele>172.0</ele><time>2026-04-08T12:11:02Z</time></trkpt><trkpt lat="43.23438712099428" lon="11.53690840320689"><ele>172.0</ele><time>2026-04-08T12:11:03Z</time></trkpt><trkpt lat="43.23448716816809" lon="11.537099360583294"><ele>172.0</ele><time>2026-04-08T12:11:04Z</time></trkpt><trkpt lat="43.2345882269789" lon="11.537293325255712"><ele>172.0</ele><time>2026-04-08T12:11:05Z</time></trkpt><trkpt lat="43.23468805789875" lon="11.537475378203707"><ele>172.0</ele><time>2026-04-08T12:11:06Z</time></trkpt><trkpt lat="43.2347825592821" lon="11.537650604697859"><ele>172.0</ele><time>2026-04-08T12:11:07Z</time></trkpt><trkpt lat="43.23486878077254" lon="11.537821647139245"><ele>172.66666666666669</ele><time>2026-04-08T12:11:08Z</time></trkpt><trkpt lat="43.234961404189754" lon="11.537991463138564"><ele>173.33333333333334</ele><time>2026-04-08T12:11:09Z</time></trkpt><trkpt lat="43.235057505265345" lon="11.538169679378228"><ele>174.0</ele><time>2026-04-08T12:11:10Z</time></trkpt><trkpt lat="43.23515848430095" lon="11.538353107610664"><ele>174.0</ele><time>2026-04-08T12:11:11Z</time></trkpt><trkpt lat="43.23525081370091" lon="11.53852095980177"><ele>174.0</ele><time>2026-04-08T12:11:12Z</time></trkpt><trkpt lat="43.23534433041486" lon="11.53868486313195"><ele>174.0</ele><time>2026-04-08T12:11:13Z</time></trkpt><trkpt lat="43.23544432500283" lon="11.53886348427556"><ele>173.75</ele><time>2026-04-08T12:11:14Z</time></trkpt><trkpt lat="43.23553311916494" lon="11.539028630604394"><ele>173.5</ele><time>2026-04-08T12:11:15Z</time></trkpt><trkpt lat="43.235616984822194" lon="11.53918814639698"><ele>173.25</ele><time>2026-04-08T12:11:16Z</time></trkpt><trkpt lat="43.23570216817987" lon="11.539347814824039"><ele>173.0</ele><time>2026-04-08T12:11:17Z</time></trkpt><trkpt lat="43.23577531671413" lon="11.539492347123277"><ele>173.5</ele><time>2026-04-08T12:11:18Z</time></trkpt><trkpt lat="43.23584198955544" lon="11.539649095795143"><ele>174.0</ele><time>2026-04-08T12:11:19Z</time></trkpt><trkpt lat="43.235890490870965" lon="11.539837599977368"><ele>174.5</ele><time>2026-04-08T12:11:20Z</time></trkpt><trkpt lat="43.23587459888155" lon="11.54006029091824"><ele>175.0</ele><time>2026-04-08T12:11:21Z</time></trkpt><trkpt lat="43.23586358754641" lon="11.540317505884257"><ele>175.0</ele><time>2026-04-08T12:11:22Z</time></trkpt><trkpt lat="43.235856651432826" lon="11.540481162746726"><ele>175.0</ele><time>2026-04-08T12:11:23Z</time></trkpt><trkpt lat="43.2358638890547" lon="11.540703071790489"><ele>175.0</ele><time>2026-04-08T12:11:24Z</time></trkpt><trkpt lat="43.2358451262126" lon="11.540928171173105"><ele>175.0</ele><time>2026-04-08T12:11:25Z</time></trkpt><trkpt lat="43.23583840867925" lon="11.541164471707862"><ele>176.33333333333334</ele><time>2026-04-08T12:11:26Z</time></trkpt><trkpt lat="43.235829240247995" lon="11.54140404006963"><ele>177.66666666666666</ele><time>2026-04-08T12:11:27Z</time></trkpt><trkpt lat="43.23582040004906" lon="11.541649194854218"><ele>179.0</ele><time>2026-04-08T12:11:28Z</time></trkpt><trkpt lat="43.235810902396985" lon="11.541897025742976"><ele>179.0</ele><time>2026-04-08T12:11:29Z</time></trkpt><trkpt lat="43.235799486405575" lon="11.542136862751091"><ele>179.0</ele><time>2026-04-08T12:11:30Z</time></trkpt><trkpt lat="43.23579110190888" lon="11.542357265257525"><ele>179.0</ele><time>2026-04-08T12:11:31Z</time></trkpt><trkpt lat="43.23578109759459" lon="11.542582841476523"><ele>179.0</ele><time>2026-04-08T12:11:32Z</time></trkpt><trkpt lat="43.235772373218424" lon="11.542813556103575"><ele>179.0</ele><time>2026-04-08T12:11:33Z</time></trkpt><trkpt lat="43.23576187359403" lon="11.54304926291801"><ele>179.0</ele><time>2026-04-08T12:11:34Z</time></trkpt><trkpt lat="43.23575170121947" lon="11.543290010039334"><ele>178.66666666666666</ele><time>2026-04-08T12:11:35Z</time></trkpt><trkpt lat="43.23574267867294" lon="11.543530757220937"><ele>178.33333333333334</ele><time>2026-04-08T12:11:36Z</time></trkpt><trkpt lat="43.23573482935073" lon="11.543745184119041"><ele>178.0</ele><time>2026-04-08T12:11:37Z</time></trkpt><trkpt lat="43.235711706249994" lon="11.543967212931296"><ele>177.66666666666669</ele><time>2026-04-08T12:11:38Z</time></trkpt><trkpt lat="43.23570302141613" lon="11.544201551075261"><ele>177.33333333333334</ele><time>2026-04-08T12:11:39Z</time></trkpt><trkpt lat="43.23569510639541" lon="11.544415117732415"><ele>177.0</ele><time>2026-04-08T12:11:40Z</time></trkpt><trkpt lat="43.23569044740569" lon="11.54462076483752"><ele>176.66666666666666</ele><time>2026-04-08T12:11:41Z</time></trkpt><trkpt lat="43.23571099625574" lon="11.544828591307263"><ele>176.33333333333331</ele><time>2026-04-08T12:11:42Z</time></trkpt><trkpt lat="43.23571594825218" lon="11.545046607785007"><ele>176.0</ele><time>2026-04-08T12:11:43Z</time></trkpt><trkpt lat="43.23575971402843" lon="11.545276168906053"><ele>176.0</ele><time>2026-04-08T12:11:44Z</time></trkpt><trkpt lat="43.23584239154752" lon="11.545504198806826"><ele>176.0</ele><time>2026-04-08T12:11:45Z</time></trkpt><trkpt lat="43.235906261217295" lon="11.545742194874922"><ele>176.0</ele><time>2026-04-08T12:11:46Z</time></trkpt><trkpt lat="43.235996193304366" lon="11.54593774771713"><ele>176.0</ele><time>2026-04-08T12:11:47Z</time></trkpt><trkpt lat="43.23607687798802" lon="11.5461300541321"><ele>176.0</ele><time>2026-04-08T12:11:48Z</time></trkpt><trkpt lat="43.23617834905867" lon="11.546322677955192"><ele>176.0</ele><time>2026-04-08T12:11:49Z</time></trkpt><trkpt lat="43.23629973112834" lon="11.546515533719878"><ele>176.66666666666666</ele><time>2026-04-08T12:11:50Z</time></trkpt><trkpt lat="43.236420820246465" lon="11.546729579177327"><ele>177.33333333333334</ele><time>2026-04-08T12:11:51Z</time></trkpt><trkpt lat="43.236551004358795" lon="11.546923636771854"><ele>178.0</ele><time>2026-04-08T12:11:52Z</time></trkpt><trkpt lat="43.236668259733094" lon="11.547091504845335"><ele>176.66666666666669</ele><time>2026-04-08T12:11:53Z</time></trkpt><trkpt lat="43.23679661582126" lon="11.54723419720147"><ele>175.33333333333334</ele><time>2026-04-08T12:11:54Z</time></trkpt><trkpt lat="43.23693238210015" lon="11.547387834045429"><ele>174.0</ele><time>2026-04-08T12:11:55Z</time></trkpt><trkpt lat="43.23708307418017" lon="11.547558370372624"><ele>174.0</ele><time>2026-04-08T12:11:56Z</time></trkpt><trkpt lat="43.237230288712205" lon="11.547753237136657"><ele>174.0</ele><time>2026-04-08T12:11:57Z</time></trkpt><trkpt lat="43.237379515878246" lon="11.547920753100854"><ele>174.0</ele><time>2026-04-08T12:11:58Z</time></trkpt><trkpt lat="43.237545673655696" lon="11.54809217873255"><ele>174.66666666666666</ele><time>2026-04-08T12:11:59Z</time></trkpt><trkpt lat="43.237683389171124" lon="11.548245123556873"><ele>175.33333333333331</ele><time>2026-04-08T12:12:00Z</time></trkpt><trkpt lat="43.237814678768615" lon="11.548387617607329"><ele>176.0</ele><time>2026-04-08T12:12:01Z</time></trkpt><trkpt lat="43.237954495287816" lon="11.548532295621255"><ele>176.0</ele><time>2026-04-08T12:12:02Z</time></trkpt><trkpt lat="43.23810206201855" lon="11.548679454620132"><ele>176.0</ele><time>2026-04-08T12:12:03Z</time></trkpt><trkpt lat="43.23825641542031" lon="11.548817340782294"><ele>176.0</ele><time>2026-04-08T12:12:04Z</time></trkpt><trkpt lat="43.238419856601084" lon="11.548960546536545"><ele>176.0</ele><time>2026-04-08T12:12:05Z</time></trkpt><trkpt lat="43.23857949352463" lon="11.549094663151008"><ele>176.0</ele><time>2026-04-08T12:12:06Z</time></trkpt><trkpt lat="43.23873020107444" lon="11.549208298705551"><ele>176.0</ele><time>2026-04-08T12:12:07Z</time></trkpt><trkpt lat="43.23889240156664" lon="11.549320839378977"><ele>175.66666666666666</ele><time>2026-04-08T12:12:08Z</time></trkpt><trkpt lat="43.23905773592681" lon="11.549435920245442"><ele>175.33333333333334</ele><time>2026-04-08T12:12:09Z</time></trkpt><trkpt lat="43.23919312235949" lon="11.549573418628373"><ele>175.0</ele><time>2026-04-08T12:12:10Z</time></trkpt><trkpt lat="43.2393237997043" lon="11.549710553750842"><ele>175.0</ele><time>2026-04-08T12:12:11Z</time></trkpt><trkpt lat="43.239455188433176" lon="11.549865595150816"><ele>175.0</ele><time>2026-04-08T12:12:12Z</time></trkpt><trkpt lat="43.23958971004561" lon="11.550038778749334"><ele>175.0</ele><time>2026-04-08T12:12:13Z</time></trkpt><trkpt lat="43.239722751863084" lon="11.550220753830743"><ele>174.33333333333334</ele><time>2026-04-08T12:12:14Z</time></trkpt><trkpt lat="43.23987030372567" lon="11.550423306405914"><ele>173.66666666666666</ele><time>2026-04-08T12:12:15Z</time></trkpt><trkpt lat="43.240003605033266" lon="11.550608308964504"><ele>173.0</ele><time>2026-04-08T12:12:15.999Z</time></trkpt><trkpt lat="43.24013211529192" lon="11.550787063627975"><ele>173.0</ele><time>2026-04-08T12:12:16.999Z</time></trkpt><trkpt lat="43.24026415719675" lon="11.550938098127304"><ele>173.0</ele><time>2026-04-08T12:12:17.999Z</time></trkpt><trkpt lat="43.240376697426804" lon="11.551099166827592"><ele>173.0</ele><time>2026-04-08T12:12:18.999Z</time></trkpt><trkpt lat="43.24048146102179" lon="11.551247673874531"><ele>172.5</ele><time>2026-04-08T12:12:19.999Z</time></trkpt><trkpt lat="43.24058047092763" lon="11.551389820505898"><ele>172.0</ele><time>2026-04-08T12:12:20.999Z</time></trkpt><trkpt lat="43.24065645640945" lon="11.551495313409564"><ele>171.5</ele><time>2026-04-08T12:12:21.999Z</time></trkpt><trkpt lat="43.24073268098832" lon="11.551601004486379"><ele>171.0</ele><time>2026-04-08T12:12:22.999Z</time></trkpt><trkpt lat="43.2407866801169" lon="11.551714490965095"><ele>172.60000000000002</ele><time>2026-04-08T12:12:23.999Z</time></trkpt><trkpt lat="43.24082826921907" lon="11.551831993026509"><ele>174.2</ele><time>2026-04-08T12:12:24.999Z</time></trkpt><trkpt lat="43.24082773408959" lon="11.551938446763735"><ele>175.8</ele><time>2026-04-08T12:12:25.999Z</time></trkpt><trkpt lat="43.24078420424817" lon="11.552036830142821"><ele>177.39999999999998</ele><time>2026-04-08T12:12:26.999Z</time></trkpt><trkpt lat="43.240727620245146" lon="11.552144997489702"><ele>179.0</ele><time>2026-04-08T12:12:27.999Z</time></trkpt><trkpt lat="43.240687937188035" lon="11.552279184152"><ele>179.2</ele><time>2026-04-08T12:12:29Z</time></trkpt><trkpt lat="43.240638631327336" lon="11.552378497002868"><ele>179.39999999999998</ele><time>2026-04-08T12:12:30Z</time></trkpt><trkpt lat="43.240593160941685" lon="11.552495568637685"><ele>179.6</ele><time>2026-04-08T12:12:31Z</time></trkpt><trkpt lat="43.24053550353168" lon="11.552613560405195"><ele>179.8</ele><time>2026-04-08T12:12:32Z</time></trkpt><trkpt lat="43.24046993789257" lon="11.552750404429158"><ele>180.0</ele><time>2026-04-08T12:12:33Z</time></trkpt><trkpt lat="43.240395333076606" lon="11.552900142476707"><ele>178.6</ele><time>2026-04-08T12:12:34Z</time></trkpt><trkpt lat="43.240324880580665" lon="11.553024848926386"><ele>177.2</ele><time>2026-04-08T12:12:35Z</time></trkpt><trkpt lat="43.240252685806226" lon="11.5531058887838"><ele>175.8</ele><time>2026-04-08T12:12:36Z</time></trkpt><trkpt lat="43.240206301663285" lon="11.553190701216138"><ele>174.4</ele><time>2026-04-08T12:12:37Z</time></trkpt><trkpt lat="43.24032720383198" lon="11.55309531129537"><ele>173.0</ele><time>2026-04-08T12:13:35Z</time></trkpt><trkpt lat="43.24045459028815" lon="11.5531260185052"><ele>173.0</ele><time>2026-04-08T12:13:37Z</time></trkpt><trkpt lat="43.24052230205071" lon="11.553166456012391"><ele>173.0</ele><time>2026-04-08T12:13:38Z</time></trkpt><trkpt lat="43.24058897979877" lon="11.553216291419437"><ele>173.0</ele><time>2026-04-08T12:13:39Z</time></trkpt><trkpt lat="43.2406631142283" lon="11.553268955915327"><ele>173.0</ele><time>2026-04-08T12:13:40Z</time></trkpt><trkpt lat="43.24074515948148" lon="11.553324198411104"><ele>173.0</ele><time>2026-04-08T12:13:41Z</time></trkpt><trkpt lat="43.24083325004349" lon="11.55338633155974"><ele>173.0</ele><time>2026-04-08T12:13:42Z</time></trkpt><trkpt lat="43.240903377185" lon="11.553444671693505"><ele>173.0</ele><time>2026-04-08T12:13:43Z</time></trkpt><trkpt lat="43.24098824779549" lon="11.553516533738511"><ele>173.0</ele><time>2026-04-08T12:13:44Z</time></trkpt><trkpt lat="43.241068210098426" lon="11.553585642397463"><ele>173.0</ele><time>2026-04-08T12:13:45Z</time></trkpt><trkpt lat="43.24113679143579" lon="11.55363498343882"><ele>173.0</ele><time>2026-04-08T12:13:46Z</time></trkpt><trkpt lat="43.24120131825064" lon="11.553691596862803"><ele>173.0</ele><time>2026-04-08T12:13:47Z</time></trkpt><trkpt lat="43.24126768530172" lon="11.55373951915103"><ele>173.0</ele><time>2026-04-08T12:13:48Z</time></trkpt><trkpt lat="43.24134049375518" lon="11.553780282909566"><ele>173.0</ele><time>2026-04-08T12:13:49Z</time></trkpt><trkpt lat="43.24141873127374" lon="11.553811393085704"><ele>173.0</ele><time>2026-04-08T12:13:50Z</time></trkpt><trkpt lat="43.2415076283837" lon="11.553836073899136"><ele>173.0</ele><time>2026-04-08T12:13:51Z</time></trkpt><trkpt lat="43.241593348755956" lon="11.553837853120124"><ele>173.0</ele><time>2026-04-08T12:13:52Z</time></trkpt><trkpt lat="43.2416796615897" lon="11.553829976732903"><ele>173.0</ele><time>2026-04-08T12:13:53Z</time></trkpt><trkpt lat="43.241762765574286" lon="11.553820874874232"><ele>173.0</ele><time>2026-04-08T12:13:54Z</time></trkpt><trkpt lat="43.241835095930234" lon="11.553827981165194"><ele>173.83333333333331</ele><time>2026-04-08T12:13:55Z</time></trkpt><trkpt lat="43.241906074169755" lon="11.553848305828195"><ele>174.66666666666666</ele><time>2026-04-08T12:13:56Z</time></trkpt><trkpt lat="43.241990046297545" lon="11.55388088799765"><ele>175.5</ele><time>2026-04-08T12:13:57Z</time></trkpt><trkpt lat="43.24206625397792" lon="11.55392054778168"><ele>176.33333333333334</ele><time>2026-04-08T12:13:58Z</time></trkpt><trkpt lat="43.242149949672196" lon="11.55397883200911"><ele>177.16666666666669</ele><time>2026-04-08T12:13:59Z</time></trkpt><trkpt lat="43.2422339279989" lon="11.554045327892988"><ele>178.0</ele><time>2026-04-08T12:14:00Z</time></trkpt><trkpt lat="43.24232186931721" lon="11.554117111328036"><ele>181.2</ele><time>2026-04-08T12:14:01Z</time></trkpt><trkpt lat="43.24241445816028" lon="11.554195471635841"><ele>184.4</ele><time>2026-04-08T12:14:02Z</time></trkpt><trkpt lat="43.24251145888906" lon="11.554272382292417"><ele>187.6</ele><time>2026-04-08T12:14:03Z</time></trkpt><trkpt lat="43.242613640245494" lon="11.554347406434227"><ele>190.79999999999998</ele><time>2026-04-08T12:14:04Z</time></trkpt><trkpt lat="43.242709737069504" lon="11.554417914503647"><ele>194.0</ele><time>2026-04-08T12:14:05Z</time></trkpt><trkpt lat="43.24278747714771" lon="11.554464023366132"><ele>194.0</ele><time>2026-04-08T12:14:06Z</time></trkpt><trkpt lat="43.24287626363165" lon="11.554498230374458"><ele>194.0</ele><time>2026-04-08T12:14:07Z</time></trkpt><trkpt lat="43.24297000559183" lon="11.554522089796198"><ele>194.0</ele><time>2026-04-08T12:14:08Z</time></trkpt><trkpt lat="43.24306307191987" lon="11.554535599900895"><ele>194.0</ele><time>2026-04-08T12:14:09Z</time></trkpt><trkpt lat="43.243156913736904" lon="11.554543489537021"><ele>194.0</ele><time>2026-04-08T12:14:10Z</time></trkpt><trkpt lat="43.24325324628203" lon="11.554535782202128"><ele>195.2</ele><time>2026-04-08T12:14:11Z</time></trkpt><trkpt lat="43.24335964050288" lon="11.554514635671115"><ele>196.39999999999998</ele><time>2026-04-08T12:14:12Z</time></trkpt><trkpt lat="43.243466646122386" lon="11.554495536394972"><ele>197.6</ele><time>2026-04-08T12:14:13Z</time></trkpt><trkpt lat="43.24357754009758" lon="11.554478078001377"><ele>198.8</ele><time>2026-04-08T12:14:14Z</time></trkpt><trkpt lat="43.24368888935513" lon="11.55446377391322"><ele>200.0</ele><time>2026-04-08T12:14:15Z</time></trkpt><trkpt lat="43.24380629726231" lon="11.554446040303832"><ele>200.0</ele><time>2026-04-08T12:14:16Z</time></trkpt><trkpt lat="43.2439289435651" lon="11.554432529787146"><ele>200.0</ele><time>2026-04-08T12:14:17Z</time></trkpt><trkpt lat="43.24403913330676" lon="11.55441445664394"><ele>200.0</ele><time>2026-04-08T12:14:18Z</time></trkpt><trkpt lat="43.244143703955594" lon="11.554401388164408"><ele>200.0</ele><time>2026-04-08T12:14:19Z</time></trkpt><trkpt lat="43.24425147956928" lon="11.554391140845988"><ele>200.0</ele><time>2026-04-08T12:14:20Z</time></trkpt><trkpt lat="43.24436886452175" lon="11.554377394148478"><ele>198.0</ele><time>2026-04-08T12:14:21Z</time></trkpt><trkpt lat="43.24448561790185" lon="11.554362898062218"><ele>196.0</ele><time>2026-04-08T12:14:22Z</time></trkpt><trkpt lat="43.24459224460581" lon="11.554352888140683"><ele>194.0</ele><time>2026-04-08T12:14:23Z</time></trkpt><trkpt lat="43.244694643045236" lon="11.554347655750103"><ele>192.0</ele><time>2026-04-08T12:14:24Z</time></trkpt><trkpt lat="43.24480162426676" lon="11.55433507037545"><ele>190.0</ele><time>2026-04-08T12:14:25Z</time></trkpt><trkpt lat="43.244915097170164" lon="11.554318310165911"><ele>189.0</ele><time>2026-04-08T12:14:26Z</time></trkpt><trkpt lat="43.245042187807265" lon="11.554300078731487"><ele>188.0</ele><time>2026-04-08T12:14:27Z</time></trkpt><trkpt lat="43.24517750757351" lon="11.554280496612312"><ele>187.0</ele><time>2026-04-08T12:14:28Z</time></trkpt><trkpt lat="43.24531746983068" lon="11.554257632543415"><ele>186.0</ele><time>2026-04-08T12:14:29Z</time></trkpt><trkpt lat="43.24546257037948" lon="11.554231553673446"><ele>186.0</ele><time>2026-04-08T12:14:30Z</time></trkpt><trkpt lat="43.245601659707035" lon="11.554211080205071"><ele>186.0</ele><time>2026-04-08T12:14:30.999Z</time></trkpt><trkpt lat="43.245727845967025" lon="11.554192761490901"><ele>186.0</ele><time>2026-04-08T12:14:31.999Z</time></trkpt><trkpt lat="43.2458466017941" lon="11.55417430053721"><ele>186.0</ele><time>2026-04-08T12:14:32.999Z</time></trkpt><trkpt lat="43.24596476757561" lon="11.554156149328877"><ele>183.75</ele><time>2026-04-08T12:14:33.999Z</time></trkpt><trkpt lat="43.246089833396034" lon="11.554145089537446"><ele>181.5</ele><time>2026-04-08T12:14:35Z</time></trkpt><trkpt lat="43.2462153158909" lon="11.55413044035013"><ele>179.25</ele><time>2026-04-08T12:14:36Z</time></trkpt><trkpt lat="43.24633283350503" lon="11.554119355798884"><ele>177.0</ele><time>2026-04-08T12:14:37Z</time></trkpt><trkpt lat="43.24644059811211" lon="11.554114689227356"><ele>175.75</ele><time>2026-04-08T12:14:38Z</time></trkpt><trkpt lat="43.24655029359446" lon="11.55411789162088"><ele>174.5</ele><time>2026-04-08T12:14:39Z</time></trkpt><trkpt lat="43.24666462540918" lon="11.554139021026009"><ele>173.25</ele><time>2026-04-08T12:14:40Z</time></trkpt><trkpt lat="43.24676954070272" lon="11.554209752928463"><ele>172.0</ele><time>2026-04-08T12:14:41Z</time></trkpt><trkpt lat="43.24689164051915" lon="11.554256059447926"><ele>172.0</ele><time>2026-04-08T12:14:42Z</time></trkpt><trkpt lat="43.24701283217895" lon="11.554342072010714"><ele>172.0</ele><time>2026-04-08T12:14:43Z</time></trkpt><trkpt lat="43.24713711692524" lon="11.554428993165809"><ele>172.0</ele><time>2026-04-08T12:14:44Z</time></trkpt><trkpt lat="43.24725755818362" lon="11.554514672759085"><ele>172.0</ele><time>2026-04-08T12:14:45Z</time></trkpt><trkpt lat="43.24737881719517" lon="11.554611175885183"><ele>173.75</ele><time>2026-04-08T12:14:46Z</time></trkpt><trkpt lat="43.247505613840005" lon="11.554711525192827"><ele>175.5</ele><time>2026-04-08T12:14:47Z</time></trkpt><trkpt lat="43.24763100006189" lon="11.55480495118972"><ele>177.25</ele><time>2026-04-08T12:14:48Z</time></trkpt><trkpt lat="43.247740035391544" lon="11.554891677643308"><ele>179.0</ele><time>2026-04-08T12:14:49Z</time></trkpt><trkpt lat="43.24781952809206" lon="11.554967239945427"><ele>179.0</ele><time>2026-04-08T12:14:50Z</time></trkpt><trkpt lat="43.24788231063793" lon="11.55505424652273"><ele>179.0</ele><time>2026-04-08T12:14:51Z</time></trkpt><trkpt lat="43.247920493040894" lon="11.55516438570108"><ele>179.0</ele><time>2026-04-08T12:14:52Z</time></trkpt><trkpt lat="43.2479892994354" lon="11.55526954105217"><ele>179.0</ele><time>2026-04-08T12:14:53Z</time></trkpt><trkpt lat="43.248058998730336" lon="11.555391596786329"><ele>179.0</ele><time>2026-04-08T12:14:54Z</time></trkpt><trkpt lat="43.248143673768304" lon="11.555505070201091"><ele>180.6</ele><time>2026-04-08T12:14:55Z</time></trkpt><trkpt lat="43.24824451136211" lon="11.555611744703842"><ele>182.2</ele><time>2026-04-08T12:14:56Z</time></trkpt><trkpt lat="43.24834294031334" lon="11.555700708255781"><ele>183.79999999999998</ele><time>2026-04-08T12:14:57Z</time></trkpt><trkpt lat="43.24843051753282" lon="11.55576866801192"><ele>185.39999999999998</ele><time>2026-04-08T12:14:58Z</time></trkpt><trkpt lat="43.24851526162469" lon="11.555837261973597"><ele>187.0</ele><time>2026-04-08T12:14:59Z</time></trkpt><trkpt lat="43.24860277187515" lon="11.55590251847675"><ele>187.0</ele><time>2026-04-08T12:15:00Z</time></trkpt><trkpt lat="43.24869895716623" lon="11.55598063225537"><ele>187.0</ele><time>2026-04-08T12:15:01Z</time></trkpt><trkpt lat="43.248797771693376" lon="11.556048290524961"><ele>187.0</ele><time>2026-04-08T12:15:02Z</time></trkpt><trkpt lat="43.24889236189266" lon="11.556091188264498"><ele>187.0</ele><time>2026-04-08T12:15:03Z</time></trkpt><trkpt lat="43.24898825572173" lon="11.556101204816187"><ele>187.0</ele><time>2026-04-08T12:15:04Z</time></trkpt><trkpt lat="43.24909338028679" lon="11.556088924181495"><ele>189.25</ele><time>2026-04-08T12:15:05Z</time></trkpt><trkpt lat="43.249209345838864" lon="11.556058685901139"><ele>191.5</ele><time>2026-04-08T12:15:06Z</time></trkpt><trkpt lat="43.24933961562166" lon="11.55605433998391"><ele>193.75</ele><time>2026-04-08T12:15:07Z</time></trkpt><trkpt lat="43.24947054900785" lon="11.556031142984555"><ele>196.0</ele><time>2026-04-08T12:15:08Z</time></trkpt><trkpt lat="43.24958310687844" lon="11.556011201506907"><ele>196.0</ele><time>2026-04-08T12:15:09Z</time></trkpt><trkpt lat="43.24968894265096" lon="11.555981385243772"><ele>196.0</ele><time>2026-04-08T12:15:10Z</time></trkpt><trkpt lat="43.24978451325539" lon="11.555975195655927"><ele>196.0</ele><time>2026-04-08T12:15:11Z</time></trkpt><trkpt lat="43.24988259877475" lon="11.555971268105566"><ele>196.0</ele><time>2026-04-08T12:15:12Z</time></trkpt><trkpt lat="43.24998291388346" lon="11.55595205095978"><ele>196.0</ele><time>2026-04-08T12:15:13Z</time></trkpt><trkpt lat="43.25008832311342" lon="11.555905909031456"><ele>196.75</ele><time>2026-04-08T12:15:14Z</time></trkpt><trkpt lat="43.2501900586477" lon="11.555832947747726"><ele>197.5</ele><time>2026-04-08T12:15:15Z</time></trkpt><trkpt lat="43.2502853107668" lon="11.555746617625838"><ele>198.25</ele><time>2026-04-08T12:15:16Z</time></trkpt><trkpt lat="43.25038071648452" lon="11.555658855540402"><ele>199.0</ele><time>2026-04-08T12:15:17Z</time></trkpt><trkpt lat="43.250476232637475" lon="11.555561855459"><ele>199.0</ele><time>2026-04-08T12:15:18Z</time></trkpt><trkpt lat="43.250569217463614" lon="11.555459064535649"><ele>199.0</ele><time>2026-04-08T12:15:19Z</time></trkpt><trkpt lat="43.25066023315371" lon="11.555350303812991"><ele>199.0</ele><time>2026-04-08T12:15:20Z</time></trkpt><trkpt lat="43.25074899503979" lon="11.55524632560641"><ele>199.0</ele><time>2026-04-08T12:15:21Z</time></trkpt><trkpt lat="43.25084625885958" lon="11.55514402501418"><ele>202.2</ele><time>2026-04-08T12:15:22Z</time></trkpt><trkpt lat="43.25093895567481" lon="11.55506285598362"><ele>205.39999999999998</ele><time>2026-04-08T12:15:23Z</time></trkpt><trkpt lat="43.25101515212584" lon="11.555005026821418"><ele>208.6</ele><time>2026-04-08T12:15:24Z</time></trkpt><trkpt lat="43.2510989391595" lon="11.554955887744685"><ele>211.8</ele><time>2026-04-08T12:15:25Z</time></trkpt><trkpt lat="43.251208833511996" lon="11.554903823837282"><ele>215.0</ele><time>2026-04-08T12:15:26Z</time></trkpt><trkpt lat="43.25132538338588" lon="11.554849133838971"><ele>215.0</ele><time>2026-04-08T12:15:27Z</time></trkpt><trkpt lat="43.25145454453738" lon="11.554799638275728"><ele>215.0</ele><time>2026-04-08T12:15:28Z</time></trkpt><trkpt lat="43.251587209745416" lon="11.554751559806173"><ele>215.0</ele><time>2026-04-08T12:15:29Z</time></trkpt><trkpt lat="43.251721820377725" lon="11.554703794292855"><ele>215.0</ele><time>2026-04-08T12:15:30Z</time></trkpt><trkpt lat="43.251836231299166" lon="11.554671287444718"><ele>214.8</ele><time>2026-04-08T12:15:31Z</time></trkpt><trkpt lat="43.25194031095322" lon="11.554644798493902"><ele>214.6</ele><time>2026-04-08T12:15:32Z</time></trkpt><trkpt lat="43.252038149342226" lon="11.554626840638285"><ele>214.39999999999998</ele><time>2026-04-08T12:15:33Z</time></trkpt><trkpt lat="43.25212446683901" lon="11.554620634227058"><ele>214.2</ele><time>2026-04-08T12:15:34Z</time></trkpt><trkpt lat="43.25222506072265" lon="11.55462434078925"><ele>214.0</ele><time>2026-04-08T12:15:35Z</time></trkpt><trkpt lat="43.252336421267884" lon="11.554650537174336"><ele>214.0</ele><time>2026-04-08T12:15:36Z</time></trkpt><trkpt lat="43.25246251185395" lon="11.554695622852288"><ele>214.0</ele><time>2026-04-08T12:15:37Z</time></trkpt><trkpt lat="43.25258459412054" lon="11.55472907665167"><ele>214.0</ele><time>2026-04-08T12:15:38Z</time></trkpt><trkpt lat="43.25269313963692" lon="11.554738797435053"><ele>214.0</ele><time>2026-04-08T12:15:39Z</time></trkpt><trkpt lat="43.25280396737398" lon="11.554732113003638"><ele>214.0</ele><time>2026-04-08T12:15:40Z</time></trkpt><trkpt lat="43.252917395340496" lon="11.554700780895011"><ele>214.0</ele><time>2026-04-08T12:15:41Z</time></trkpt><trkpt lat="43.25304398982768" lon="11.554668293145424"><ele>214.0</ele><time>2026-04-08T12:15:42Z</time></trkpt><trkpt lat="43.25317934982292" lon="11.554623205967822"><ele>214.0</ele><time>2026-04-08T12:15:43Z</time></trkpt><trkpt lat="43.253283425737344" lon="11.55457847314553"><ele>217.6</ele><time>2026-04-08T12:15:44Z</time></trkpt><trkpt lat="43.253375774296664" lon="11.55453503658812"><ele>221.2</ele><time>2026-04-08T12:15:45Z</time></trkpt><trkpt lat="43.25345315318231" lon="11.554477512883814"><ele>224.79999999999998</ele><time>2026-04-08T12:15:46Z</time></trkpt><trkpt lat="43.25353391805457" lon="11.554413547780669"><ele>228.39999999999998</ele><time>2026-04-08T12:15:47Z</time></trkpt><trkpt lat="43.25361698118311" lon="11.554350888269735"><ele>232.0</ele><time>2026-04-08T12:15:48Z</time></trkpt><trkpt lat="43.25370485568657" lon="11.55427652221483"><ele>232.0</ele><time>2026-04-08T12:15:49Z</time></trkpt><trkpt lat="43.253781512225764" lon="11.554204626313398"><ele>232.0</ele><time>2026-04-08T12:15:50Z</time></trkpt><trkpt lat="43.25385250018061" lon="11.554136360713992"><ele>232.0</ele><time>2026-04-08T12:15:51Z</time></trkpt><trkpt lat="43.253928268357335" lon="11.554036262000167"><ele>232.0</ele><time>2026-04-08T12:15:52Z</time></trkpt><trkpt lat="43.25400307665483" lon="11.553927632896125"><ele>232.0</ele><time>2026-04-08T12:15:53Z</time></trkpt><trkpt lat="43.25404524369595" lon="11.553773574703278"><ele>234.6</ele><time>2026-04-08T12:15:54Z</time></trkpt><trkpt lat="43.25407229509415" lon="11.553617631841114"><ele>237.2</ele><time>2026-04-08T12:15:55Z</time></trkpt><trkpt lat="43.25406251920888" lon="11.553464601327311"><ele>239.8</ele><time>2026-04-08T12:15:56Z</time></trkpt><trkpt lat="43.25407143474869" lon="11.553355995917752"><ele>242.4</ele><time>2026-04-08T12:15:57Z</time></trkpt><trkpt lat="43.254107466881784" lon="11.553252897292836"><ele>245.0</ele><time>2026-04-08T12:15:58Z</time></trkpt><trkpt lat="43.254131615903965" lon="11.553141527592613"><ele>245.00000000000003</ele><time>2026-04-08T12:15:59Z</time></trkpt><trkpt lat="43.25418735011246" lon="11.5530662167317"><ele>245.0</ele><time>2026-04-08T12:16:00Z</time></trkpt><trkpt lat="43.254245379645866" lon="11.55301320707964"><ele>245.0</ele><time>2026-04-08T12:16:01Z</time></trkpt><trkpt lat="43.25431433447706" lon="11.552978244520054"><ele>245.0</ele><time>2026-04-08T12:16:02Z</time></trkpt><trkpt lat="43.25438171553426" lon="11.552948159741414"><ele>245.00000000000003</ele><time>2026-04-08T12:16:03Z</time></trkpt><trkpt lat="43.25448920094892" lon="11.552940346573063"><ele>245.0</ele><time>2026-04-08T12:16:05Z</time></trkpt><trkpt lat="43.25456390995833" lon="11.552943386153443"><ele>245.0</ele><time>2026-04-08T12:16:06Z</time></trkpt><trkpt lat="43.25466982930529" lon="11.552940423000734"><ele>245.0</ele><time>2026-04-08T12:16:07Z</time></trkpt><trkpt lat="43.25478620763698" lon="11.552936565408924"><ele>245.0</ele><time>2026-04-08T12:16:08Z</time></trkpt><trkpt lat="43.25490889675224" lon="11.552930530405233"><ele>245.0</ele><time>2026-04-08T12:16:09Z</time></trkpt><trkpt lat="43.25504325339203" lon="11.552922281582267"><ele>245.6</ele><time>2026-04-08T12:16:10Z</time></trkpt><trkpt lat="43.25515936104405" lon="11.552917034908035"><ele>246.2</ele><time>2026-04-08T12:16:11Z</time></trkpt><trkpt lat="43.25525963685238" lon="11.552914472511775"><ele>246.8</ele><time>2026-04-08T12:16:12Z</time></trkpt><trkpt lat="43.255362142745675" lon="11.552913041892827"><ele>247.4</ele><time>2026-04-08T12:16:13Z</time></trkpt><trkpt lat="43.25546392203314" lon="11.552926774676617"><ele>248.0</ele><time>2026-04-08T12:16:14Z</time></trkpt><trkpt lat="43.2555605514717" lon="11.552948334574534"><ele>249.0</ele><time>2026-04-08T12:16:15Z</time></trkpt><trkpt lat="43.25566741860937" lon="11.552985587212751"><ele>250.0</ele><time>2026-04-08T12:16:16Z</time></trkpt><trkpt lat="43.255777597911944" lon="11.553050428282052"><ele>251.0</ele><time>2026-04-08T12:16:17Z</time></trkpt><trkpt lat="43.255886258066575" lon="11.553122601460563"><ele>252.0</ele><time>2026-04-08T12:16:18Z</time></trkpt><trkpt lat="43.255979751163615" lon="11.553183085681304"><ele>252.0</ele><time>2026-04-08T12:16:19Z</time></trkpt><trkpt lat="43.25608090559511" lon="11.553244622544325"><ele>252.0</ele><time>2026-04-08T12:16:20Z</time></trkpt><trkpt lat="43.25618395785516" lon="11.553311328363405"><ele>252.0</ele><time>2026-04-08T12:16:21Z</time></trkpt><trkpt lat="43.25628972794732" lon="11.55338296986074"><ele>252.0</ele><time>2026-04-08T12:16:22Z</time></trkpt><trkpt lat="43.25638059657798" lon="11.553448803037973"><ele>252.0</ele><time>2026-04-08T12:16:23Z</time></trkpt><trkpt lat="43.25646391027639" lon="11.553503456201042"><ele>251.8</ele><time>2026-04-08T12:16:24Z</time></trkpt><trkpt lat="43.25654504053946" lon="11.553555883434676"><ele>251.6</ele><time>2026-04-08T12:16:25Z</time></trkpt><trkpt lat="43.25662999829874" lon="11.553608852838785"><ele>251.40000000000003</ele><time>2026-04-08T12:16:26Z</time></trkpt><trkpt lat="43.256721756424426" lon="11.553663154672279"><ele>251.20000000000002</ele><time>2026-04-08T12:16:27Z</time></trkpt><trkpt lat="43.25680892663053" lon="11.553697626317609"><ele>251.0</ele><time>2026-04-08T12:16:28Z</time></trkpt><trkpt lat="43.25690306408401" lon="11.553723955009032"><ele>251.0</ele><time>2026-04-08T12:16:29Z</time></trkpt><trkpt lat="43.25699812245805" lon="11.553722352962343"><ele>251.00000000000003</ele><time>2026-04-08T12:16:30Z</time></trkpt><trkpt lat="43.25709773588906" lon="11.553712925235283"><ele>251.00000000000003</ele><time>2026-04-08T12:16:31Z</time></trkpt><trkpt lat="43.257199463834844" lon="11.553688310102686"><ele>251.0</ele><time>2026-04-08T12:16:32Z</time></trkpt><trkpt lat="43.257308979014" lon="11.553665493232408"><ele>251.0</ele><time>2026-04-08T12:16:33Z</time></trkpt><trkpt lat="43.25741419372226" lon="11.55363015533764"><ele>251.25</ele><time>2026-04-08T12:16:34Z</time></trkpt><trkpt lat="43.257526051456914" lon="11.553583639711215"><ele>251.5</ele><time>2026-04-08T12:16:35Z</time></trkpt><trkpt lat="43.257639732700476" lon="11.553535197315234"><ele>251.75</ele><time>2026-04-08T12:16:36Z</time></trkpt><trkpt lat="43.25773974232949" lon="11.553491342991364"><ele>252.0</ele><time>2026-04-08T12:16:37Z</time></trkpt><trkpt lat="43.25784290324605" lon="11.553430228570924"><ele>252.0</ele><time>2026-04-08T12:16:38Z</time></trkpt><trkpt lat="43.257943749408916" lon="11.553378358624027"><ele>252.0</ele><time>2026-04-08T12:16:39Z</time></trkpt><trkpt lat="43.25804528964029" lon="11.553335909997188"><ele>252.0</ele><time>2026-04-08T12:16:40Z</time></trkpt><trkpt lat="43.25814343987412" lon="11.553296829693851"><ele>252.0</ele><time>2026-04-08T12:16:41Z</time></trkpt><trkpt lat="43.25825001195194" lon="11.553275324726751"><ele>252.0</ele><time>2026-04-08T12:16:42Z</time></trkpt><trkpt lat="43.258363200197756" lon="11.553248028903445"><ele>252.0</ele><time>2026-04-08T12:16:43Z</time></trkpt><trkpt lat="43.258469591011874" lon="11.553219978986062"><ele>252.0</ele><time>2026-04-08T12:16:44Z</time></trkpt><trkpt lat="43.25857884926037" lon="11.553193482033034"><ele>252.0</ele><time>2026-04-08T12:16:45Z</time></trkpt><trkpt lat="43.258680654761974" lon="11.553168000595054"><ele>252.0</ele><time>2026-04-08T12:16:46Z</time></trkpt><trkpt lat="43.25878436395132" lon="11.553143496998288"><ele>252.0</ele><time>2026-04-08T12:16:47Z</time></trkpt><trkpt lat="43.258890953778135" lon="11.553104656544981"><ele>250.8</ele><time>2026-04-08T12:16:48Z</time></trkpt><trkpt lat="43.258995425611346" lon="11.553036692245952"><ele>249.6</ele><time>2026-04-08T12:16:49Z</time></trkpt><trkpt lat="43.25908305221803" lon="11.552956181702053"><ele>248.40000000000003</ele><time>2026-04-08T12:16:50Z</time></trkpt><trkpt lat="43.25916815295396" lon="11.552865425399853"><ele>247.20000000000002</ele><time>2026-04-08T12:16:51Z</time></trkpt><trkpt lat="43.25926044585597" lon="11.552775813701176"><ele>246.0</ele><time>2026-04-08T12:16:52Z</time></trkpt><trkpt lat="43.25934708155594" lon="11.552666518402349"><ele>246.0</ele><time>2026-04-08T12:16:53Z</time></trkpt><trkpt lat="43.25942601294609" lon="11.552535228298645"><ele>246.0</ele><time>2026-04-08T12:16:54Z</time></trkpt><trkpt lat="43.25947810767204" lon="11.552381664703443"><ele>246.0</ele><time>2026-04-08T12:16:55Z</time></trkpt><trkpt lat="43.25952506927133" lon="11.55223269736701"><ele>246.0</ele><time>2026-04-08T12:16:56Z</time></trkpt><trkpt lat="43.25957509871547" lon="11.552080022821704"><ele>246.0</ele><time>2026-04-08T12:16:57Z</time></trkpt><trkpt lat="43.25960601251961" lon="11.551928038324"><ele>246.00000000000003</ele><time>2026-04-08T12:16:58Z</time></trkpt><trkpt lat="43.25965020023289" lon="11.551766352392406"><ele>246.00000000000003</ele><time>2026-04-08T12:16:59Z</time></trkpt><trkpt lat="43.25968438728103" lon="11.55161910614195"><ele>246.0</ele><time>2026-04-08T12:17:00Z</time></trkpt><trkpt lat="43.25970812333025" lon="11.551505772474359"><ele>246.0</ele><time>2026-04-08T12:17:01Z</time></trkpt><trkpt lat="43.25972701240662" lon="11.55142045893893"><ele>246.00000000000003</ele><time>2026-04-08T12:17:02Z</time></trkpt><trkpt lat="43.25974547478075" lon="11.551334239832899"><ele>246.0</ele><time>2026-04-08T12:17:03Z</time></trkpt><trkpt lat="43.259770589241676" lon="11.55123997020087"><ele>246.00000000000003</ele><time>2026-04-08T12:17:04Z</time></trkpt><trkpt lat="43.259801908566835" lon="11.551142714048785"><ele>246.00000000000003</ele><time>2026-04-08T12:17:05Z</time></trkpt><trkpt lat="43.25983990243976" lon="11.551043492121698"><ele>246.0</ele><time>2026-04-08T12:17:06Z</time></trkpt><trkpt lat="43.25988377216215" lon="11.550956281724767"><ele>246.00000000000003</ele><time>2026-04-08T12:17:07Z</time></trkpt><trkpt lat="43.25992604766488" lon="11.550874951643479"><ele>246.00000000000003</ele><time>2026-04-08T12:17:08Z</time></trkpt><trkpt lat="43.259968375316426" lon="11.550795033120695"><ele>246.33333333333334</ele><time>2026-04-08T12:17:09Z</time></trkpt><trkpt lat="43.26001830623993" lon="11.550712119906498"><ele>246.66666666666669</ele><time>2026-04-08T12:17:10Z</time></trkpt><trkpt lat="43.26007243466313" lon="11.550622022424083"><ele>247.0</ele><time>2026-04-08T12:17:11Z</time></trkpt><trkpt lat="43.260123806142865" lon="11.550531695443695"><ele>247.33333333333334</ele><time>2026-04-08T12:17:12Z</time></trkpt><trkpt lat="43.26018299249841" lon="11.550436021866043"><ele>247.66666666666669</ele><time>2026-04-08T12:17:13Z</time></trkpt><trkpt lat="43.26024801156959" lon="11.550342172036153"><ele>248.0</ele><time>2026-04-08T12:17:14Z</time></trkpt><trkpt lat="43.26031767270779" lon="11.550248307056172"><ele>246.60000000000002</ele><time>2026-04-08T12:17:15Z</time></trkpt><trkpt lat="43.26039675638974" lon="11.550165836726208"><ele>245.20000000000002</ele><time>2026-04-08T12:17:16Z</time></trkpt><trkpt lat="43.260477769809526" lon="11.550099857806064"><ele>243.8</ele><time>2026-04-08T12:17:17Z</time></trkpt><trkpt lat="43.26056113618511" lon="11.550044189050618"><ele>242.4</ele><time>2026-04-08T12:17:18Z</time></trkpt><trkpt lat="43.26067535729245" lon="11.54999214545211"><ele>241.0</ele><time>2026-04-08T12:17:19Z</time></trkpt><trkpt lat="43.26080335856035" lon="11.549960659905818"><ele>239.0</ele><time>2026-04-08T12:17:20Z</time></trkpt><trkpt lat="43.26092572492393" lon="11.549941642693172"><ele>237.0</ele><time>2026-04-08T12:17:21Z</time></trkpt><trkpt lat="43.261036480410546" lon="11.549950454874194"><ele>235.0</ele><time>2026-04-08T12:17:22Z</time></trkpt><trkpt lat="43.26114614775361" lon="11.549966891009396"><ele>233.0</ele><time>2026-04-08T12:17:23Z</time></trkpt><trkpt lat="43.26126402825378" lon="11.54999168256082"><ele>233.0</ele><time>2026-04-08T12:17:24Z</time></trkpt><trkpt lat="43.261381194144235" lon="11.550000314945196"><ele>233.0</ele><time>2026-04-08T12:17:25Z</time></trkpt><trkpt lat="43.261507744391594" lon="11.549981763023558"><ele>233.0</ele><time>2026-04-08T12:17:26Z</time></trkpt><trkpt lat="43.26162566960095" lon="11.549941190620887"><ele>233.0</ele><time>2026-04-08T12:17:27Z</time></trkpt><trkpt lat="43.261720626555366" lon="11.54988788026469"><ele>233.5</ele><time>2026-04-08T12:17:28Z</time></trkpt><trkpt lat="43.26181162717157" lon="11.549837883234503"><ele>234.0</ele><time>2026-04-08T12:17:29Z</time></trkpt><trkpt lat="43.2619124168477" lon="11.549766376995182"><ele>234.5</ele><time>2026-04-08T12:17:30Z</time></trkpt><trkpt lat="43.262021584268446" lon="11.549664988695472"><ele>235.0</ele><time>2026-04-08T12:17:31Z</time></trkpt><trkpt lat="43.262140903067674" lon="11.549549900816388"><ele>235.5</ele><time>2026-04-08T12:17:32Z</time></trkpt><trkpt lat="43.26225184684799" lon="11.549408527564971"><ele>236.0</ele><time>2026-04-08T12:17:33Z</time></trkpt><trkpt lat="43.26235428809316" lon="11.549281879792735"><ele>236.5</ele><time>2026-04-08T12:17:34Z</time></trkpt><trkpt lat="43.26246005899624" lon="11.54913541448668"><ele>237.0</ele><time>2026-04-08T12:17:35Z</time></trkpt><trkpt lat="43.26255487791361" lon="11.548987685766472"><ele>239.25</ele><time>2026-04-08T12:17:36Z</time></trkpt><trkpt lat="43.2626487544619" lon="11.548837565248569"><ele>241.5</ele><time>2026-04-08T12:17:37Z</time></trkpt><trkpt lat="43.26272306627717" lon="11.548679069669674"><ele>243.75</ele><time>2026-04-08T12:17:38Z</time></trkpt><trkpt lat="43.262800972570794" lon="11.548521958367207"><ele>246.0</ele><time>2026-04-08T12:17:39Z</time></trkpt><trkpt lat="43.26288969028574" lon="11.54836361484458"><ele>248.0</ele><time>2026-04-08T12:17:40Z</time></trkpt><trkpt lat="43.26297731024601" lon="11.548199634266515"><ele>250.0</ele><time>2026-04-08T12:17:41Z</time></trkpt><trkpt lat="43.26306277870604" lon="11.548039914708273"><ele>252.0</ele><time>2026-04-08T12:17:42Z</time></trkpt><trkpt lat="43.26311503243193" lon="11.547882158479352"><ele>254.0</ele><time>2026-04-08T12:17:43Z</time></trkpt><trkpt lat="43.263155868143485" lon="11.547759222155502"><ele>256.0</ele><time>2026-04-08T12:17:44Z</time></trkpt><trkpt lat="43.263210666349764" lon="11.547629356230793"><ele>258.0</ele><time>2026-04-08T12:17:45Z</time></trkpt><trkpt lat="43.263270425678755" lon="11.547499883780729"><ele>260.0</ele><time>2026-04-08T12:17:46Z</time></trkpt><trkpt lat="43.26334993309768" lon="11.547376830184225"><ele>262.0</ele><time>2026-04-08T12:17:47Z</time></trkpt><trkpt lat="43.26342423780921" lon="11.547288891240221"><ele>264.0</ele><time>2026-04-08T12:17:48Z</time></trkpt><trkpt lat="43.263488816711465" lon="11.5472178620167"><ele>264.0</ele><time>2026-04-08T12:17:49Z</time></trkpt><trkpt lat="43.263558628772294" lon="11.54715276408923"><ele>264.0</ele><time>2026-04-08T12:17:50Z</time></trkpt><trkpt lat="43.263640585502614" lon="11.547084261532564"><ele>264.0</ele><time>2026-04-08T12:17:51Z</time></trkpt><trkpt lat="43.26373399359822" lon="11.54699782754027"><ele>264.0</ele><time>2026-04-08T12:17:52Z</time></trkpt><trkpt lat="43.26383621270007" lon="11.546900489696954"><ele>264.0</ele><time>2026-04-08T12:17:53Z</time></trkpt><trkpt lat="43.263929084420596" lon="11.546812329244146"><ele>264.0</ele><time>2026-04-08T12:17:54Z</time></trkpt><trkpt lat="43.26401645643026" lon="11.546724865996946"><ele>264.0</ele><time>2026-04-08T12:17:55Z</time></trkpt><trkpt lat="43.264099307585155" lon="11.546635588285799"><ele>264.0</ele><time>2026-04-08T12:17:56Z</time></trkpt><trkpt lat="43.264190239121824" lon="11.546533769255616"><ele>264.0</ele><time>2026-04-08T12:17:57Z</time></trkpt><trkpt lat="43.26427791231606" lon="11.54643268479846"><ele>264.0</ele><time>2026-04-08T12:17:58Z</time></trkpt><trkpt lat="43.26435014225602" lon="11.546321910245155"><ele>266.4</ele><time>2026-04-08T12:17:59Z</time></trkpt><trkpt lat="43.264405113044404" lon="11.546203806810537"><ele>268.79999999999995</ele><time>2026-04-08T12:18:00Z</time></trkpt><trkpt lat="43.26444856721439" lon="11.546069577139207"><ele>271.20000000000005</ele><time>2026-04-08T12:18:01Z</time></trkpt><trkpt lat="43.264491070634335" lon="11.545931372317671"><ele>273.6</ele><time>2026-04-08T12:18:02Z</time></trkpt><trkpt lat="43.26452229755255" lon="11.545785633720792"><ele>276.0</ele><time>2026-04-08T12:18:03Z</time></trkpt><trkpt lat="43.26454343211233" lon="11.545637857564634"><ele>276.0</ele><time>2026-04-08T12:18:04Z</time></trkpt><trkpt lat="43.26456822859193" lon="11.545483509410884"><ele>276.0</ele><time>2026-04-08T12:18:05Z</time></trkpt><trkpt lat="43.264595033737045" lon="11.545343193693954"><ele>276.0</ele><time>2026-04-08T12:18:06Z</time></trkpt><trkpt lat="43.26460895504771" lon="11.54521680260924"><ele>276.0</ele><time>2026-04-08T12:18:07Z</time></trkpt><trkpt lat="43.264630195838315" lon="11.545114765080493"><ele>276.0</ele><time>2026-04-08T12:18:08Z</time></trkpt><trkpt lat="43.264643795001916" lon="11.545024205211726"><ele>276.14285714285717</ele><time>2026-04-08T12:18:09Z</time></trkpt><trkpt lat="43.264659417613956" lon="11.544937950260449"><ele>276.28571428571433</ele><time>2026-04-08T12:18:10Z</time></trkpt><trkpt lat="43.26467674083187" lon="11.544836005500526"><ele>276.42857142857144</ele><time>2026-04-08T12:18:11Z</time></trkpt><trkpt lat="43.26469368306859" lon="11.544730582489017"><ele>276.57142857142856</ele><time>2026-04-08T12:18:12Z</time></trkpt><trkpt lat="43.264719757321444" lon="11.54463332285726"><ele>276.71428571428567</ele><time>2026-04-08T12:18:13Z</time></trkpt><trkpt lat="43.26475621107607" lon="11.544538436418364"><ele>276.85714285714283</ele><time>2026-04-08T12:18:14Z</time></trkpt><trkpt lat="43.26480005831938" lon="11.544456679839517"><ele>277.0</ele><time>2026-04-08T12:18:15Z</time></trkpt><trkpt lat="43.26484523789539" lon="11.544374367746531"><ele>273.0</ele><time>2026-04-08T12:18:16Z</time></trkpt><trkpt lat="43.2648955615815" lon="11.544297882821628"><ele>269.0</ele><time>2026-04-08T12:18:17Z</time></trkpt><trkpt lat="43.26494935316095" lon="11.544215659212002"><ele>265.0</ele><time>2026-04-08T12:18:18Z</time></trkpt><trkpt lat="43.264995835526655" lon="11.544128528479593"><ele>261.0</ele><time>2026-04-08T12:18:19Z</time></trkpt><trkpt lat="43.26503527433647" lon="11.544033482105647"><ele>257.0</ele><time>2026-04-08T12:18:20Z</time></trkpt><trkpt lat="43.26507047479572" lon="11.543937348223709"><ele>253.0</ele><time>2026-04-08T12:18:21Z</time></trkpt><trkpt lat="43.26510630516131" lon="11.543827991633979"><ele>252.99999999999997</ele><time>2026-04-08T12:18:22Z</time></trkpt><trkpt lat="43.26513823341674" lon="11.543728069196513"><ele>253.0</ele><time>2026-04-08T12:18:23Z</time></trkpt><trkpt lat="43.26517423937228" lon="11.543621881327493"><ele>253.0</ele><time>2026-04-08T12:18:24Z</time></trkpt><trkpt lat="43.26520341414208" lon="11.543520422873385"><ele>253.0</ele><time>2026-04-08T12:18:25Z</time></trkpt><trkpt lat="43.26522382404514" lon="11.543421990033886"><ele>252.99999999999997</ele><time>2026-04-08T12:18:26Z</time></trkpt><trkpt lat="43.26523894831049" lon="11.543291283468406"><ele>253.0</ele><time>2026-04-08T12:18:27Z</time></trkpt><trkpt lat="43.26524243687024" lon="11.543147370817417"><ele>251.2</ele><time>2026-04-08T12:18:28Z</time></trkpt><trkpt lat="43.26522952204792" lon="11.54300309449161"><ele>249.4</ele><time>2026-04-08T12:18:29Z</time></trkpt><trkpt lat="43.2652143142884" lon="11.542848942660598"><ele>247.59999999999997</ele><time>2026-04-08T12:18:30Z</time></trkpt><trkpt lat="43.26520252331781" lon="11.54271481507725"><ele>245.79999999999998</ele><time>2026-04-08T12:18:31Z</time></trkpt><trkpt lat="43.265206884569565" lon="11.542575594848671"><ele>244.0</ele><time>2026-04-08T12:18:32Z</time></trkpt><trkpt lat="43.265232276063024" lon="11.542425136706877"><ele>242.25</ele><time>2026-04-08T12:18:33Z</time></trkpt><trkpt lat="43.26528253890009" lon="11.54228145934481"><ele>240.5</ele><time>2026-04-08T12:18:34Z</time></trkpt><trkpt lat="43.26534034351717" lon="11.54213676709397"><ele>238.75</ele><time>2026-04-08T12:18:35Z</time></trkpt><trkpt lat="43.26539511504052" lon="11.54197480489397"><ele>237.0</ele><time>2026-04-08T12:18:36Z</time></trkpt><trkpt lat="43.26544587824639" lon="11.54181057814101"><ele>237.2</ele><time>2026-04-08T12:18:37Z</time></trkpt><trkpt lat="43.26547949846924" lon="11.541639402092478"><ele>237.39999999999998</ele><time>2026-04-08T12:18:38Z</time></trkpt><trkpt lat="43.26549917741548" lon="11.541503416782769"><ele>237.60000000000002</ele><time>2026-04-08T12:18:39Z</time></trkpt><trkpt lat="43.265522848582975" lon="11.541379797377392"><ele>237.8</ele><time>2026-04-08T12:18:39.999Z</time></trkpt><trkpt lat="43.265537488540645" lon="11.541239007008569"><ele>238.0</ele><time>2026-04-08T12:18:40.999Z</time></trkpt><trkpt lat="43.265551463846535" lon="11.541084327774309"><ele>237.99999999999997</ele><time>2026-04-08T12:18:41.999Z</time></trkpt><trkpt lat="43.265563019514566" lon="11.540943784962668"><ele>238.0</ele><time>2026-04-08T12:18:42.999Z</time></trkpt><trkpt lat="43.26557280382725" lon="11.540832748341545"><ele>238.0</ele><time>2026-04-08T12:18:43.999Z</time></trkpt><trkpt lat="43.265586789812204" lon="11.540734741089095"><ele>238.0</ele><time>2026-04-08T12:18:44.999Z</time></trkpt><trkpt lat="43.265614586463414" lon="11.540635669359405"><ele>237.99999999999997</ele><time>2026-04-08T12:18:45.999Z</time></trkpt><trkpt lat="43.265650130526886" lon="11.540553289910378"><ele>238.0</ele><time>2026-04-08T12:18:47Z</time></trkpt><trkpt lat="43.26571179697996" lon="11.540449459851542"><ele>239.8</ele><time>2026-04-08T12:18:49Z</time></trkpt><trkpt lat="43.26579767994709" lon="11.540327849497942"><ele>241.60000000000002</ele><time>2026-04-08T12:18:51Z</time></trkpt><trkpt lat="43.2658459108764" lon="11.540267750565045"><ele>243.39999999999998</ele><time>2026-04-08T12:18:52Z</time></trkpt><trkpt lat="43.265932075797494" lon="11.540135458965674"><ele>245.2</ele><time>2026-04-08T12:18:54Z</time></trkpt><trkpt lat="43.26598122199123" lon="11.540059337840557"><ele>247.0</ele><time>2026-04-08T12:18:55Z</time></trkpt><trkpt lat="43.26603813863033" lon="11.539974209128815"><ele>246.99999999999997</ele><time>2026-04-08T12:18:56Z</time></trkpt><trkpt lat="43.26609734008811" lon="11.53988760316624"><ele>247.0</ele><time>2026-04-08T12:18:57Z</time></trkpt><trkpt lat="43.26614910672379" lon="11.53981014518805"><ele>247.0</ele><time>2026-04-08T12:18:58Z</time></trkpt><trkpt lat="43.266197298005174" lon="11.539736030279476"><ele>247.0</ele><time>2026-04-08T12:18:59Z</time></trkpt><trkpt lat="43.26624636506454" lon="11.539662209436722"><ele>246.99999999999997</ele><time>2026-04-08T12:19:00Z</time></trkpt><trkpt lat="43.26629835432231" lon="11.53957229658192"><ele>247.0</ele><time>2026-04-08T12:19:01Z</time></trkpt><trkpt lat="43.26634924699377" lon="11.539468368433392"><ele>247.83333333333331</ele><time>2026-04-08T12:19:02Z</time></trkpt><trkpt lat="43.26640892610543" lon="11.539354401964854"><ele>248.66666666666666</ele><time>2026-04-08T12:19:03Z</time></trkpt><trkpt lat="43.2664550941264" lon="11.539261276161909"><ele>249.5</ele><time>2026-04-08T12:19:04Z</time></trkpt><trkpt lat="43.26650159156316" lon="11.53918472425164"><ele>250.33333333333331</ele><time>2026-04-08T12:19:05Z</time></trkpt><trkpt lat="43.26655596185374" lon="11.53912365464265"><ele>251.16666666666666</ele><time>2026-04-08T12:19:06Z</time></trkpt><trkpt lat="43.26662129668024" lon="11.539085419298107"><ele>252.0</ele><time>2026-04-08T12:19:07Z</time></trkpt><trkpt lat="43.26669817227522" lon="11.539037672721802"><ele>249.2</ele><time>2026-04-08T12:19:08Z</time></trkpt><trkpt lat="43.26678988114497" lon="11.538989012455948"><ele>246.39999999999998</ele><time>2026-04-08T12:19:09Z</time></trkpt><trkpt lat="43.266885860306736" lon="11.538938895724385"><ele>243.60000000000002</ele><time>2026-04-08T12:19:10Z</time></trkpt><trkpt lat="43.26697269130006" lon="11.538888295758984"><ele>240.8</ele><time>2026-04-08T12:19:11Z</time></trkpt><trkpt lat="43.26705604720131" lon="11.538843441296988"><ele>238.0</ele><time>2026-04-08T12:19:12Z</time></trkpt><trkpt lat="43.26713105253586" lon="11.538792266493942"><ele>237.99999999999997</ele><time>2026-04-08T12:19:13Z</time></trkpt><trkpt lat="43.26720470515375" lon="11.538736591727286"><ele>238.0</ele><time>2026-04-08T12:19:14Z</time></trkpt><trkpt lat="43.267281407139365" lon="11.538684439824111"><ele>238.0</ele><time>2026-04-08T12:19:15Z</time></trkpt><trkpt lat="43.267363876478875" lon="11.538629794250038"><ele>238.0</ele><time>2026-04-08T12:19:16Z</time></trkpt><trkpt lat="43.267441125020895" lon="11.538567335374474"><ele>237.99999999999997</ele><time>2026-04-08T12:19:17Z</time></trkpt><trkpt lat="43.267504666126925" lon="11.538525906626049"><ele>238.0</ele><time>2026-04-08T12:19:18Z</time></trkpt><trkpt lat="43.26756929128512" lon="11.538477810905796"><ele>237.16666666666666</ele><time>2026-04-08T12:19:19Z</time></trkpt><trkpt lat="43.26763496172446" lon="11.538431810023113"><ele>236.33333333333331</ele><time>2026-04-08T12:19:20Z</time></trkpt><trkpt lat="43.26775308326269" lon="11.538349480087442"><ele>235.5</ele><time>2026-04-08T12:19:22Z</time></trkpt><trkpt lat="43.26781017849174" lon="11.538304580152763"><ele>234.66666666666669</ele><time>2026-04-08T12:19:23Z</time></trkpt><trkpt lat="43.267872059929076" lon="11.53825097482065"><ele>233.83333333333334</ele><time>2026-04-08T12:19:24Z</time></trkpt><trkpt lat="43.267939102427704" lon="11.538206545166751"><ele>233.0</ele><time>2026-04-08T12:19:25Z</time></trkpt><trkpt lat="43.26800382100763" lon="11.538156599322786"><ele>233.00000000000003</ele><time>2026-04-08T12:19:26Z</time></trkpt><trkpt lat="43.268077005341816" lon="11.538109769986747"><ele>233.0</ele><time>2026-04-08T12:19:27Z</time></trkpt><trkpt lat="43.268143103077264" lon="11.53806970113142"><ele>233.0</ele><time>2026-04-08T12:19:28Z</time></trkpt><trkpt lat="43.26821243551965" lon="11.53801916162822"><ele>233.0</ele><time>2026-04-08T12:19:29Z</time></trkpt><trkpt lat="43.2682932349714" lon="11.537964275974721"><ele>233.00000000000003</ele><time>2026-04-08T12:19:30Z</time></trkpt><trkpt lat="43.268371023832714" lon="11.537905444939383"><ele>233.0</ele><time>2026-04-08T12:19:31Z</time></trkpt><trkpt lat="43.26844330379876" lon="11.537853063560169"><ele>230.33333333333334</ele><time>2026-04-08T12:19:32Z</time></trkpt><trkpt lat="43.268519918650995" lon="11.537798569494"><ele>227.66666666666669</ele><time>2026-04-08T12:19:33Z</time></trkpt><trkpt lat="43.26859162333131" lon="11.537750681636664"><ele>225.0</ele><time>2026-04-08T12:19:34Z</time></trkpt><trkpt lat="43.268670131927436" lon="11.537715923785857"><ele>222.33333333333331</ele><time>2026-04-08T12:19:35Z</time></trkpt><trkpt lat="43.26876436366335" lon="11.53770846985959"><ele>219.66666666666666</ele><time>2026-04-08T12:19:36Z</time></trkpt><trkpt lat="43.26884533453665" lon="11.537716897162895"><ele>217.0</ele><time>2026-04-08T12:19:37Z</time></trkpt><trkpt lat="43.26892211344274" lon="11.53774251364197"><ele>215.0</ele><time>2026-04-08T12:19:38Z</time></trkpt><trkpt lat="43.2689927676114" lon="11.537773633348296"><ele>213.0</ele><time>2026-04-08T12:19:39Z</time></trkpt><trkpt lat="43.26906011237951" lon="11.537800352599799"><ele>211.0</ele><time>2026-04-08T12:19:40Z</time></trkpt><trkpt lat="43.26912972262476" lon="11.537823510480852"><ele>209.0</ele><time>2026-04-08T12:19:41Z</time></trkpt><trkpt lat="43.269198756413914" lon="11.537833517364133"><ele>207.0</ele><time>2026-04-08T12:19:42Z</time></trkpt><trkpt lat="43.269279177130734" lon="11.537839267850524"><ele>205.0</ele><time>2026-04-08T12:19:43Z</time></trkpt><trkpt lat="43.269355151674354" lon="11.537837892743207"><ele>203.0</ele><time>2026-04-08T12:19:44Z</time></trkpt><trkpt lat="43.26943298028696" lon="11.537827375624634"><ele>203.00000000000003</ele><time>2026-04-08T12:19:45Z</time></trkpt><trkpt lat="43.26950846028013" lon="11.537803137013888"><ele>203.0</ele><time>2026-04-08T12:19:46Z</time></trkpt><trkpt lat="43.26958778046338" lon="11.537771093966839"><ele>203.0</ele><time>2026-04-08T12:19:47Z</time></trkpt><trkpt lat="43.269666257892716" lon="11.537739310580761"><ele>203.0</ele><time>2026-04-08T12:19:48Z</time></trkpt><trkpt lat="43.269752245541206" lon="11.537692440662266"><ele>203.00000000000003</ele><time>2026-04-08T12:19:49Z</time></trkpt><trkpt lat="43.26983949567217" lon="11.53764735909021"><ele>203.0</ele><time>2026-04-08T12:19:50Z</time></trkpt><trkpt lat="43.269922634681684" lon="11.537592253277333"><ele>200.4</ele><time>2026-04-08T12:19:51Z</time></trkpt><trkpt lat="43.270004348916935" lon="11.537562854887467"><ele>197.8</ele><time>2026-04-08T12:19:52Z</time></trkpt><trkpt lat="43.27009024359581" lon="11.53755784477104"><ele>195.2</ele><time>2026-04-08T12:19:53Z</time></trkpt><trkpt lat="43.2701875500787" lon="11.53759988392988"><ele>192.6</ele><time>2026-04-08T12:19:54Z</time></trkpt><trkpt lat="43.27029523399194" lon="11.537655015403365"><ele>190.0</ele><time>2026-04-08T12:19:55Z</time></trkpt><trkpt lat="43.27039911412186" lon="11.53767259137548"><ele>190.0</ele><time>2026-04-08T12:19:56Z</time></trkpt><trkpt lat="43.27048679961116" lon="11.537706289407591"><ele>190.0</ele><time>2026-04-08T12:19:57Z</time></trkpt><trkpt lat="43.2705808944119" lon="11.53772719168336"><ele>190.0</ele><time>2026-04-08T12:19:58Z</time></trkpt><trkpt lat="43.270673457568165" lon="11.537744104319872"><ele>190.0</ele><time>2026-04-08T12:19:59Z</time></trkpt><trkpt lat="43.27075398020721" lon="11.537775287154538"><ele>190.0</ele><time>2026-04-08T12:20:00Z</time></trkpt><trkpt lat="43.27081632887829" lon="11.537814392635156"><ele>190.0</ele><time>2026-04-08T12:20:01Z</time></trkpt><trkpt lat="43.270875710242976" lon="11.537859319391869"><ele>188.6</ele><time>2026-04-08T12:20:02Z</time></trkpt><trkpt lat="43.27097336068078" lon="11.537937450198097"><ele>187.2</ele><time>2026-04-08T12:20:04Z</time></trkpt><trkpt lat="43.27104795390479" lon="11.538046633973131"><ele>185.8</ele><time>2026-04-08T12:20:06Z</time></trkpt><trkpt lat="43.271118263166564" lon="11.538117894537322"><ele>184.4</ele><time>2026-04-08T12:20:07Z</time></trkpt><trkpt lat="43.271172788273375" lon="11.538210422247559"><ele>183.0</ele><time>2026-04-08T12:20:08Z</time></trkpt><trkpt lat="43.27122759473106" lon="11.538318480884437"><ele>183.0</ele><time>2026-04-08T12:20:09Z</time></trkpt><trkpt lat="43.27129384733668" lon="11.538461537959174"><ele>183.0</ele><time>2026-04-08T12:20:10Z</time></trkpt><trkpt lat="43.27136454572632" lon="11.53861870043922"><ele>183.0</ele><time>2026-04-08T12:20:11Z</time></trkpt><trkpt lat="43.27143001438359" lon="11.538780621253986"><ele>183.0</ele><time>2026-04-08T12:20:12Z</time></trkpt><trkpt lat="43.27151231024974" lon="11.538972019522443"><ele>184.33333333333334</ele><time>2026-04-08T12:20:13Z</time></trkpt><trkpt lat="43.27159606228588" lon="11.539180529119841"><ele>185.66666666666669</ele><time>2026-04-08T12:20:14Z</time></trkpt><trkpt lat="43.27167594327166" lon="11.539380044395797"><ele>187.0</ele><time>2026-04-08T12:20:15Z</time></trkpt><trkpt lat="43.271740698614316" lon="11.539542312481032"><ele>187.5</ele><time>2026-04-08T12:20:16Z</time></trkpt><trkpt lat="43.27180120589467" lon="11.539693485317793"><ele>188.0</ele><time>2026-04-08T12:20:17Z</time></trkpt><trkpt lat="43.27187006322735" lon="11.539874400793098"><ele>188.5</ele><time>2026-04-08T12:20:18Z</time></trkpt><trkpt lat="43.271936468055245" lon="11.540045963131053"><ele>189.0</ele><time>2026-04-08T12:20:19Z</time></trkpt><trkpt lat="43.27200717338321" lon="11.540221240801474"><ele>189.5</ele><time>2026-04-08T12:20:20Z</time></trkpt><trkpt lat="43.27207947787007" lon="11.540404267298157"><ele>190.0</ele><time>2026-04-08T12:20:21Z</time></trkpt><trkpt lat="43.27214277269425" lon="11.540557204593238"><ele>190.5</ele><time>2026-04-08T12:20:22Z</time></trkpt><trkpt lat="43.27220282272011" lon="11.540703004013931"><ele>191.0</ele><time>2026-04-08T12:20:23Z</time></trkpt><trkpt lat="43.27225879156715" lon="11.540860577153875"><ele>192.0</ele><time>2026-04-08T12:20:24Z</time></trkpt><trkpt lat="43.27232188641053" lon="11.541021584581168"><ele>193.0</ele><time>2026-04-08T12:20:25Z</time></trkpt><trkpt lat="43.272366744985106" lon="11.541150773361817"><ele>194.0</ele><time>2026-04-08T12:20:26Z</time></trkpt><trkpt lat="43.272399519255764" lon="11.54127662853444"><ele>195.0</ele><time>2026-04-08T12:20:27Z</time></trkpt><trkpt lat="43.27243082936003" lon="11.541425567580534"><ele>196.0</ele><time>2026-04-08T12:20:28Z</time></trkpt><trkpt lat="43.272462114361225" lon="11.541598418876678"><ele>197.75</ele><time>2026-04-08T12:20:29Z</time></trkpt><trkpt lat="43.27248603866409" lon="11.541777164148735"><ele>199.5</ele><time>2026-04-08T12:20:30Z</time></trkpt><trkpt lat="43.272508246373114" lon="11.541965165198562"><ele>201.25</ele><time>2026-04-08T12:20:31Z</time></trkpt><trkpt lat="43.272523116936625" lon="11.54215599434573"><ele>203.0</ele><time>2026-04-08T12:20:32Z</time></trkpt><trkpt lat="43.272535785808316" lon="11.542309130203828"><ele>204.60000000000002</ele><time>2026-04-08T12:20:33Z</time></trkpt><trkpt lat="43.27255468509149" lon="11.542444246669435"><ele>206.20000000000002</ele><time>2026-04-08T12:20:34Z</time></trkpt><trkpt lat="43.272578339912926" lon="11.542583460015276"><ele>207.8</ele><time>2026-04-08T12:20:35Z</time></trkpt><trkpt lat="43.27261231242944" lon="11.542719110728266"><ele>209.4</ele><time>2026-04-08T12:20:36Z</time></trkpt><trkpt lat="43.27264434476461" lon="11.542819454555241"><ele>211.0</ele><time>2026-04-08T12:20:37Z</time></trkpt><trkpt lat="43.27269016387832" lon="11.542895720268264"><ele>212.49999999999997</ele><time>2026-04-08T12:20:38Z</time></trkpt><trkpt lat="43.27275487037541" lon="11.54295592298783"><ele>214.0</ele><time>2026-04-08T12:20:39Z</time></trkpt><trkpt lat="43.272833278989324" lon="11.542971707615267"><ele>215.5</ele><time>2026-04-08T12:20:40Z</time></trkpt><trkpt lat="43.2729025122402" lon="11.542949474820556"><ele>217.0</ele><time>2026-04-08T12:20:40.999Z</time></trkpt><trkpt lat="43.27298386778243" lon="11.542921033258912"><ele>218.49999999999997</ele><time>2026-04-08T12:20:41.999Z</time></trkpt><trkpt lat="43.273071914041424" lon="11.542903233531637"><ele>220.0</ele><time>2026-04-08T12:20:42.999Z</time></trkpt><trkpt lat="43.2731559858593" lon="11.542912398032605"><ele>221.99999999999997</ele><time>2026-04-08T12:20:43.999Z</time></trkpt><trkpt lat="43.273231150381356" lon="11.542951966439961"><ele>224.0</ele><time>2026-04-08T12:20:44.999Z</time></trkpt><trkpt lat="43.27329625497678" lon="11.543009809019667"><ele>226.0</ele><time>2026-04-08T12:20:45.999Z</time></trkpt><trkpt lat="43.27336112184462" lon="11.543068883788463"><ele>228.0</ele><time>2026-04-08T12:20:46.999Z</time></trkpt><trkpt lat="43.27343493328793" lon="11.543140088032754"><ele>229.99999999999997</ele><time>2026-04-08T12:20:47.999Z</time></trkpt><trkpt lat="43.273507861334785" lon="11.543225589944331"><ele>232.0</ele><time>2026-04-08T12:20:48.999Z</time></trkpt><trkpt lat="43.27356487584297" lon="11.543300325352588"><ele>232.0</ele><time>2026-04-08T12:20:49.999Z</time></trkpt><trkpt lat="43.27363661287371" lon="11.543448963769453"><ele>232.0</ele><time>2026-04-08T12:20:51.999Z</time></trkpt><trkpt lat="43.27364858137535" lon="11.543554917643277"><ele>232.0</ele><time>2026-04-08T12:20:53Z</time></trkpt><trkpt lat="43.27361355381471" lon="11.543668531636525"><ele>232.0</ele><time>2026-04-08T12:20:54Z</time></trkpt><trkpt lat="43.27356633487884" lon="11.54377385317696"><ele>232.0</ele><time>2026-04-08T12:20:55Z</time></trkpt><trkpt lat="43.27351780032239" lon="11.543861602073097"><ele>233.6</ele><time>2026-04-08T12:20:56Z</time></trkpt><trkpt lat="43.27345477573226" lon="11.543957159334244"><ele>235.2</ele><time>2026-04-08T12:20:57Z</time></trkpt><trkpt lat="43.2733899809654" lon="11.544057644186665"><ele>236.8</ele><time>2026-04-08T12:20:58Z</time></trkpt><trkpt lat="43.273319421283425" lon="11.544160601982016"><ele>238.4</ele><time>2026-04-08T12:20:59Z</time></trkpt><trkpt lat="43.273246961966045" lon="11.54427548788549"><ele>240.0</ele><time>2026-04-08T12:21:00Z</time></trkpt><trkpt lat="43.27320717552993" lon="11.544373415858974"><ele>240.0</ele><time>2026-04-08T12:21:01Z</time></trkpt><trkpt lat="43.27320250907193" lon="11.54447788579345"><ele>240.0</ele><time>2026-04-08T12:21:02Z</time></trkpt><trkpt lat="43.27318699412248" lon="11.544577077760053"><ele>240.0</ele><time>2026-04-08T12:21:03Z</time></trkpt><trkpt lat="43.273182736099855" lon="11.544691705795369"><ele>240.0</ele><time>2026-04-08T12:21:04Z</time></trkpt><trkpt lat="43.273173978957395" lon="11.544821391393038"><ele>240.0</ele><time>2026-04-08T12:21:05Z</time></trkpt><trkpt lat="43.273171325191306" lon="11.544964668075757"><ele>240.0</ele><time>2026-04-08T12:21:06Z</time></trkpt><trkpt lat="43.27316447520608" lon="11.545122279211329"><ele>241.0</ele><time>2026-04-08T12:21:07Z</time></trkpt><trkpt lat="43.27315639746365" lon="11.54527523306901"><ele>242.0</ele><time>2026-04-08T12:21:08Z</time></trkpt><trkpt lat="43.27314794087905" lon="11.545394786742168"><ele>243.0</ele><time>2026-04-08T12:21:09Z</time></trkpt><trkpt lat="43.27313178878491" lon="11.545510294956"><ele>244.0</ele><time>2026-04-08T12:21:10Z</time></trkpt><trkpt lat="43.27313624366699" lon="11.545627090586589"><ele>245.0</ele><time>2026-04-08T12:21:11Z</time></trkpt><trkpt lat="43.273148213585046" lon="11.54574955852885"><ele>246.4</ele><time>2026-04-08T12:21:12Z</time></trkpt><trkpt lat="43.27316390854996" lon="11.545876061143517"><ele>247.8</ele><time>2026-04-08T12:21:13Z</time></trkpt><trkpt lat="43.27318477386987" lon="11.546009318317179"><ele>249.2</ele><time>2026-04-08T12:21:14Z</time></trkpt><trkpt lat="43.27321096986171" lon="11.5461416514386"><ele>250.6</ele><time>2026-04-08T12:21:15Z</time></trkpt><trkpt lat="43.273243411531546" lon="11.546271076075238"><ele>252.0</ele><time>2026-04-08T12:21:16Z</time></trkpt><trkpt lat="43.27328073557428" lon="11.546399875016403"><ele>253.8</ele><time>2026-04-08T12:21:17Z</time></trkpt><trkpt lat="43.273322999292716" lon="11.546530266600355"><ele>255.6</ele><time>2026-04-08T12:21:18Z</time></trkpt><trkpt lat="43.27337379423161" lon="11.54665877807022"><ele>257.40000000000003</ele><time>2026-04-08T12:21:19Z</time></trkpt><trkpt lat="43.273428992258815" lon="11.54678054508104"><ele>259.2</ele><time>2026-04-08T12:21:20Z</time></trkpt><trkpt lat="43.2734743978263" lon="11.546870803557534"><ele>261.0</ele><time>2026-04-08T12:21:21Z</time></trkpt><trkpt lat="43.27352846965164" lon="11.5469477028042"><ele>261.0</ele><time>2026-04-08T12:21:22Z</time></trkpt><trkpt lat="43.27359905317245" lon="11.54702014749232"><ele>261.0</ele><time>2026-04-08T12:21:23Z</time></trkpt><trkpt lat="43.273684292373964" lon="11.547078652705038"><ele>261.0</ele><time>2026-04-08T12:21:24Z</time></trkpt><trkpt lat="43.27377401328519" lon="11.547124564480326"><ele>261.0</ele><time>2026-04-08T12:21:25Z</time></trkpt><trkpt lat="43.27387022325515" lon="11.547138812024684"><ele>261.0</ele><time>2026-04-08T12:21:26Z</time></trkpt><trkpt lat="43.27398451363017" lon="11.547133549050582"><ele>264.6</ele><time>2026-04-08T12:21:27Z</time></trkpt><trkpt lat="43.27411363374138" lon="11.54712581895895"><ele>268.20000000000005</ele><time>2026-04-08T12:21:28Z</time></trkpt><trkpt lat="43.27422775513454" lon="11.547126995866796"><ele>271.79999999999995</ele><time>2026-04-08T12:21:29Z</time></trkpt><trkpt lat="43.27431947404518" lon="11.547125437853548"><ele>275.4</ele><time>2026-04-08T12:21:30Z</time></trkpt><trkpt lat="43.274409254173385" lon="11.547109261544882"><ele>279.0</ele><time>2026-04-08T12:21:31Z</time></trkpt><trkpt lat="43.27448661043688" lon="11.547093155691522"><ele>279.0</ele><time>2026-04-08T12:21:32Z</time></trkpt><trkpt lat="43.27457015481155" lon="11.547092650846846"><ele>279.0</ele><time>2026-04-08T12:21:33Z</time></trkpt><trkpt lat="43.27465273101196" lon="11.547121484427002"><ele>279.0</ele><time>2026-04-08T12:21:34Z</time></trkpt><trkpt lat="43.27473484134781" lon="11.547181025514341"><ele>279.0</ele><time>2026-04-08T12:21:35Z</time></trkpt><trkpt lat="43.27483218591855" lon="11.547262020866434"><ele>279.0</ele><time>2026-04-08T12:21:36Z</time></trkpt><trkpt lat="43.27493362598998" lon="11.547350130397842"><ele>280.75</ele><time>2026-04-08T12:21:37Z</time></trkpt><trkpt lat="43.27504464422578" lon="11.54744175220718"><ele>282.5</ele><time>2026-04-08T12:21:38Z</time></trkpt><trkpt lat="43.27515408046257" lon="11.547535565099247"><ele>284.25</ele><time>2026-04-08T12:21:39Z</time></trkpt><trkpt lat="43.275266626962036" lon="11.547630386270042"><ele>286.0</ele><time>2026-04-08T12:21:40Z</time></trkpt><trkpt lat="43.27536743493097" lon="11.547719995867782"><ele>286.0</ele><time>2026-04-08T12:21:41Z</time></trkpt><trkpt lat="43.275436187455846" lon="11.547788207889157"><ele>286.0</ele><time>2026-04-08T12:21:42Z</time></trkpt><trkpt lat="43.275499616724154" lon="11.547843002282384"><ele>286.0</ele><time>2026-04-08T12:21:43Z</time></trkpt><trkpt lat="43.275565188318694" lon="11.547893575667109"><ele>286.0</ele><time>2026-04-08T12:21:44Z</time></trkpt><trkpt lat="43.2756445447623" lon="11.54795449078102"><ele>286.0</ele><time>2026-04-08T12:21:45Z</time></trkpt><trkpt lat="43.27573140098017" lon="11.548009898316558"><ele>286.0</ele><time>2026-04-08T12:21:46Z</time></trkpt><trkpt lat="43.275828287874816" lon="11.548060006223482"><ele>289.0</ele><time>2026-04-08T12:21:47Z</time></trkpt><trkpt lat="43.27593108730837" lon="11.548105597427025"><ele>292.0</ele><time>2026-04-08T12:21:48Z</time></trkpt><trkpt lat="43.276043621380126" lon="11.54814654223301"><ele>295.0</ele><time>2026-04-08T12:21:49Z</time></trkpt><trkpt lat="43.27614792835906" lon="11.548184154354319"><ele>298.0</ele><time>2026-04-08T12:21:50Z</time></trkpt><trkpt lat="43.27623925518806" lon="11.548211513374849"><ele>301.0</ele><time>2026-04-08T12:21:51Z</time></trkpt><trkpt lat="43.276330130636694" lon="11.548242771882952"><ele>301.0</ele><time>2026-04-08T12:21:52Z</time></trkpt><trkpt lat="43.27640791202392" lon="11.548272113113935"><ele>301.0</ele><time>2026-04-08T12:21:53Z</time></trkpt><trkpt lat="43.27648102149548" lon="11.54830387222662"><ele>301.0</ele><time>2026-04-08T12:21:54Z</time></trkpt><trkpt lat="43.2765572809809" lon="11.548343405657228"><ele>301.0</ele><time>2026-04-08T12:21:55Z</time></trkpt><trkpt lat="43.276626366615446" lon="11.54838937561921"><ele>301.0</ele><time>2026-04-08T12:21:56Z</time></trkpt><trkpt lat="43.27669784654475" lon="11.548442416455762"><ele>301.0</ele><time>2026-04-08T12:21:57Z</time></trkpt><trkpt lat="43.27676428262175" lon="11.54849407003732"><ele>301.2857142857143</ele><time>2026-04-08T12:21:58Z</time></trkpt><trkpt lat="43.27682493161173" lon="11.548544019476285"><ele>301.57142857142856</ele><time>2026-04-08T12:21:59Z</time></trkpt><trkpt lat="43.2768782887259" lon="11.548599934394417"><ele>301.8571428571429</ele><time>2026-04-08T12:22:00Z</time></trkpt><trkpt lat="43.27693609236644" lon="11.548660602586276"><ele>302.1428571428571</ele><time>2026-04-08T12:22:01Z</time></trkpt><trkpt lat="43.27699715832377" lon="11.54871807474672"><ele>302.42857142857144</ele><time>2026-04-08T12:22:02Z</time></trkpt><trkpt lat="43.27704836952405" lon="11.54877169328201"><ele>302.7142857142857</ele><time>2026-04-08T12:22:03Z</time></trkpt><trkpt lat="43.27711094727251" lon="11.548835049970823"><ele>303.0</ele><time>2026-04-08T12:22:04Z</time></trkpt><trkpt lat="43.27717997033674" lon="11.548899671230004"><ele>303.0</ele><time>2026-04-08T12:22:05Z</time></trkpt><trkpt lat="43.27724588789264" lon="11.548951742167244"><ele>303.0</ele><time>2026-04-08T12:22:06Z</time></trkpt><trkpt lat="43.27730656947555" lon="11.549000868579272"><ele>303.0</ele><time>2026-04-08T12:22:07Z</time></trkpt><trkpt lat="43.27736800862048" lon="11.549051587566897"><ele>303.0</ele><time>2026-04-08T12:22:08Z</time></trkpt><trkpt lat="43.27743417519575" lon="11.549107438862562"><ele>303.0</ele><time>2026-04-08T12:22:09Z</time></trkpt><trkpt lat="43.27749645098569" lon="11.549160593947866"><ele>303.0</ele><time>2026-04-08T12:22:10Z</time></trkpt><trkpt lat="43.277556748778046" lon="11.54921556629384"><ele>303.0</ele><time>2026-04-08T12:22:11Z</time></trkpt><trkpt lat="43.27761272317531" lon="11.549261965968928"><ele>300.6666666666667</ele><time>2026-04-08T12:22:12Z</time></trkpt><trkpt lat="43.27767476550681" lon="11.549315972599558"><ele>298.3333333333333</ele><time>2026-04-08T12:22:13Z</time></trkpt><trkpt lat="43.277743116097305" lon="11.549375005658424"><ele>296.0</ele><time>2026-04-08T12:22:14Z</time></trkpt><trkpt lat="43.27781596860856" lon="11.549415228159699"><ele>293.66666666666663</ele><time>2026-04-08T12:22:15Z</time></trkpt><trkpt lat="43.27789285437796" lon="11.549436935828421"><ele>291.3333333333333</ele><time>2026-04-08T12:22:16Z</time></trkpt><trkpt lat="43.27798280949718" lon="11.54945086559128"><ele>289.0</ele><time>2026-04-08T12:22:17Z</time></trkpt><trkpt lat="43.278078709744904" lon="11.549451356607625"><ele>286.0</ele><time>2026-04-08T12:22:18Z</time></trkpt><trkpt lat="43.278174295232475" lon="11.549446577414454"><ele>283.0</ele><time>2026-04-08T12:22:19Z</time></trkpt><trkpt lat="43.27827736687384" lon="11.549445020061274"><ele>280.0</ele><time>2026-04-08T12:22:20Z</time></trkpt><trkpt lat="43.278374305249024" lon="11.549449093778877"><ele>277.0</ele><time>2026-04-08T12:22:21Z</time></trkpt><trkpt lat="43.278462146987536" lon="11.549453311219116"><ele>274.0</ele><time>2026-04-08T12:22:22Z</time></trkpt><trkpt lat="43.2785430393414" lon="11.549456921299306"><ele>274.0</ele><time>2026-04-08T12:22:23Z</time></trkpt><trkpt lat="43.278634598566214" lon="11.549463887248864"><ele>274.0</ele><time>2026-04-08T12:22:24Z</time></trkpt><trkpt lat="43.27871171368853" lon="11.54946547516758"><ele>274.0</ele><time>2026-04-08T12:22:25Z</time></trkpt><trkpt lat="43.278802437465245" lon="11.549477997154519"><ele>274.0</ele><time>2026-04-08T12:22:26Z</time></trkpt><trkpt lat="43.27888136405302" lon="11.54950097350951"><ele>274.0</ele><time>2026-04-08T12:22:27Z</time></trkpt><trkpt lat="43.278963520186345" lon="11.549550791268755"><ele>274.0</ele><time>2026-04-08T12:22:28Z</time></trkpt><trkpt lat="43.27904418195363" lon="11.549606786134346"><ele>273.59999999999997</ele><time>2026-04-08T12:22:29Z</time></trkpt><trkpt lat="43.27913087417709" lon="11.549669287976062"><ele>273.2</ele><time>2026-04-08T12:22:30Z</time></trkpt><trkpt lat="43.27921626547309" lon="11.549736293889007"><ele>272.79999999999995</ele><time>2026-04-08T12:22:31Z</time></trkpt><trkpt lat="43.27929901182891" lon="11.549787670787394"><ele>272.4</ele><time>2026-04-08T12:22:32Z</time></trkpt><trkpt lat="43.279386668547545" lon="11.549840028728902"><ele>272.0</ele><time>2026-04-08T12:22:33Z</time></trkpt><trkpt lat="43.27948641356117" lon="11.549894964952214"><ele>272.0</ele><time>2026-04-08T12:22:34Z</time></trkpt><trkpt lat="43.279586354767225" lon="11.549931912756817"><ele>272.0</ele><time>2026-04-08T12:22:35Z</time></trkpt><trkpt lat="43.27966976517217" lon="11.549946857230951"><ele>272.0</ele><time>2026-04-08T12:22:36Z</time></trkpt><trkpt lat="43.27975286952641" lon="11.549941728530541"><ele>272.0</ele><time>2026-04-08T12:22:37Z</time></trkpt><trkpt lat="43.27984459715568" lon="11.549930432743707"><ele>272.0</ele><time>2026-04-08T12:22:38Z</time></trkpt><trkpt lat="43.27994467341821" lon="11.549913312564998"><ele>271.25</ele><time>2026-04-08T12:22:39Z</time></trkpt><trkpt lat="43.280057316033535" lon="11.54988461659096"><ele>270.5</ele><time>2026-04-08T12:22:40Z</time></trkpt><trkpt lat="43.28017403227317" lon="11.549834629936395"><ele>269.75</ele><time>2026-04-08T12:22:40.999Z</time></trkpt><trkpt lat="43.28029820758153" lon="11.549757272309582"><ele>269.0</ele><time>2026-04-08T12:22:41.999Z</time></trkpt><trkpt lat="43.28041861848946" lon="11.54967475175109"><ele>269.0</ele><time>2026-04-08T12:22:42.999Z</time></trkpt><trkpt lat="43.28053244035163" lon="11.549588814823402"><ele>269.0</ele><time>2026-04-08T12:22:43.999Z</time></trkpt><trkpt lat="43.280617075600176" lon="11.54951486900777"><ele>269.0</ele><time>2026-04-08T12:22:44.999Z</time></trkpt><trkpt lat="43.28070478556841" lon="11.549418133429764"><ele>269.0</ele><time>2026-04-08T12:22:45.999Z</time></trkpt><trkpt lat="43.28078072713756" lon="11.549298099652622"><ele>272.0</ele><time>2026-04-08T12:22:46.999Z</time></trkpt><trkpt lat="43.28085292106667" lon="11.549167866486167"><ele>275.0</ele><time>2026-04-08T12:22:47.999Z</time></trkpt><trkpt lat="43.28092743569589" lon="11.549025041227239"><ele>278.0</ele><time>2026-04-08T12:22:48.999Z</time></trkpt><trkpt lat="43.28099786182225" lon="11.548914083199884"><ele>281.0</ele><time>2026-04-08T12:22:49.999Z</time></trkpt><trkpt lat="43.281066250598144" lon="11.548820869985922"><ele>281.0</ele><time>2026-04-08T12:22:50.999Z</time></trkpt><trkpt lat="43.28114397519308" lon="11.548733517961146"><ele>281.0</ele><time>2026-04-08T12:22:51.999Z</time></trkpt><trkpt lat="43.28120650391296" lon="11.548665151017588"><ele>281.0</ele><time>2026-04-08T12:22:52.999Z</time></trkpt><trkpt lat="43.28129685870144" lon="11.548586123785377"><ele>281.0</ele><time>2026-04-08T12:22:54.999Z</time></trkpt><trkpt lat="43.281374894806454" lon="11.548493780255676"><ele>281.0</ele><time>2026-04-08T12:22:56.999Z</time></trkpt><trkpt lat="43.28143240057616" lon="11.548435284714"><ele>283.8571428571429</ele><time>2026-04-08T12:22:57.999Z</time></trkpt><trkpt lat="43.281494060918625" lon="11.548371284995952"><ele>286.7142857142857</ele><time>2026-04-08T12:22:59Z</time></trkpt><trkpt lat="43.28155521197977" lon="11.548310394927404"><ele>289.57142857142856</ele><time>2026-04-08T12:23:00Z</time></trkpt><trkpt lat="43.28162503021235" lon="11.54824777909624"><ele>292.42857142857144</ele><time>2026-04-08T12:23:01Z</time></trkpt><trkpt lat="43.28169210989583" lon="11.548192861735506"><ele>295.2857142857143</ele><time>2026-04-08T12:23:02Z</time></trkpt><trkpt lat="43.281753449891745" lon="11.548159931176043"><ele>298.14285714285717</ele><time>2026-04-08T12:23:03Z</time></trkpt><trkpt lat="43.2818202282198" lon="11.548137422838536"><ele>301.0</ele><time>2026-04-08T12:23:04Z</time></trkpt><trkpt lat="43.28189121820308" lon="11.548123922242414"><ele>301.0</ele><time>2026-04-08T12:23:05Z</time></trkpt><trkpt lat="43.28196163077389" lon="11.548133867008966"><ele>301.0</ele><time>2026-04-08T12:23:06Z</time></trkpt><trkpt lat="43.28204755194603" lon="11.548171012513608"><ele>301.0</ele><time>2026-04-08T12:23:08Z</time></trkpt><trkpt lat="43.282145857771425" lon="11.548141278146561"><ele>301.0</ele><time>2026-04-08T12:23:30Z</time></trkpt><trkpt lat="43.2822763826829" lon="11.548139231069717"><ele>301.0</ele><time>2026-04-08T12:23:32Z</time></trkpt><trkpt lat="43.28234824176556" lon="11.548148401325912"><ele>302.16666666666663</ele><time>2026-04-08T12:23:33Z</time></trkpt><trkpt lat="43.282435162916045" lon="11.54816472849272"><ele>303.3333333333333</ele><time>2026-04-08T12:23:34Z</time></trkpt><trkpt lat="43.28251726527344" lon="11.548173153306164"><ele>304.5</ele><time>2026-04-08T12:23:35Z</time></trkpt><trkpt lat="43.282594569082434" lon="11.548184832634362"><ele>305.6666666666667</ele><time>2026-04-08T12:23:36Z</time></trkpt><trkpt lat="43.282668831480805" lon="11.548200678028637"><ele>306.83333333333337</ele><time>2026-04-08T12:23:37Z</time></trkpt><trkpt lat="43.28274842754206" lon="11.548228041668445"><ele>308.0</ele><time>2026-04-08T12:23:38Z</time></trkpt><trkpt lat="43.282815571136865" lon="11.54825731528202"><ele>308.0</ele><time>2026-04-08T12:23:39Z</time></trkpt><trkpt lat="43.28287627529487" lon="11.548287901479915"><ele>308.0</ele><time>2026-04-08T12:23:40Z</time></trkpt><trkpt lat="43.28293756992244" lon="11.548323528084369"><ele>308.0</ele><time>2026-04-08T12:23:41Z</time></trkpt><trkpt lat="43.28300493953198" lon="11.548369954035413"><ele>308.0</ele><time>2026-04-08T12:23:42Z</time></trkpt><trkpt lat="43.28308188830199" lon="11.548426919169767"><ele>308.0</ele><time>2026-04-08T12:23:43Z</time></trkpt><trkpt lat="43.28316286723117" lon="11.548489996889273"><ele>308.0</ele><time>2026-04-08T12:23:44Z</time></trkpt><trkpt lat="43.28323357925558" lon="11.548557440166709"><ele>309.6</ele><time>2026-04-08T12:23:45Z</time></trkpt><trkpt lat="43.283312281681106" lon="11.548627825243202"><ele>311.20000000000005</ele><time>2026-04-08T12:23:46Z</time></trkpt><trkpt lat="43.28339904039022" lon="11.548689980972872"><ele>312.8</ele><time>2026-04-08T12:23:47Z</time></trkpt><trkpt lat="43.2834942622855" lon="11.548725375435948"><ele>314.40000000000003</ele><time>2026-04-08T12:23:48Z</time></trkpt><trkpt lat="43.28355871226512" lon="11.548778335722409"><ele>316.0</ele><time>2026-04-08T12:23:49Z</time></trkpt><trkpt lat="43.283657989823325" lon="11.54881654393134"><ele>316.0</ele><time>2026-04-08T12:23:50Z</time></trkpt><trkpt lat="43.28375295455408" lon="11.548841791503214"><ele>316.0</ele><time>2026-04-08T12:23:51Z</time></trkpt><trkpt lat="43.28385673869849" lon="11.54885305925297"><ele>316.0</ele><time>2026-04-08T12:23:52Z</time></trkpt><trkpt lat="43.28395542014703" lon="11.54884229442043"><ele>316.0</ele><time>2026-04-08T12:23:53Z</time></trkpt><trkpt lat="43.284046653072906" lon="11.548837684658803"><ele>316.0</ele><time>2026-04-08T12:23:54Z</time></trkpt><trkpt lat="43.284121015820375" lon="11.548816556252955"><ele>312.2</ele><time>2026-04-08T12:23:55Z</time></trkpt><trkpt lat="43.284197973396864" lon="11.548765862568128"><ele>308.40000000000003</ele><time>2026-04-08T12:23:56Z</time></trkpt><trkpt lat="43.28427817770045" lon="11.548706128957859"><ele>304.6</ele><time>2026-04-08T12:23:57Z</time></trkpt><trkpt lat="43.28434264396949" lon="11.548619488737591"><ele>300.8</ele><time>2026-04-08T12:23:58Z</time></trkpt><trkpt lat="43.284394407614755" lon="11.548511512627496"><ele>297.0</ele><time>2026-04-08T12:23:59Z</time></trkpt><trkpt lat="43.2844518167434" lon="11.548372171466797"><ele>296.5</ele><time>2026-04-08T12:24:00Z</time></trkpt><trkpt lat="43.28450788108367" lon="11.548211738449218"><ele>296.0</ele><time>2026-04-08T12:24:01Z</time></trkpt><trkpt lat="43.284585002068845" lon="11.548037661739537"><ele>295.5</ele><time>2026-04-08T12:24:02Z</time></trkpt><trkpt lat="43.28464947652798" lon="11.547875400348506"><ele>295.0</ele><time>2026-04-08T12:24:03Z</time></trkpt><trkpt lat="43.284699432420005" lon="11.547735231571721"><ele>292.5</ele><time>2026-04-08T12:24:04Z</time></trkpt><trkpt lat="43.28473047510748" lon="11.547580090777517"><ele>290.0</ele><time>2026-04-08T12:24:05Z</time></trkpt><trkpt lat="43.28474878439381" lon="11.54741391001904"><ele>287.5</ele><time>2026-04-08T12:24:06Z</time></trkpt><trkpt lat="43.284756867245946" lon="11.547235630441923"><ele>285.0</ele><time>2026-04-08T12:24:07Z</time></trkpt><trkpt lat="43.28476977351981" lon="11.54709289660054"><ele>290.0</ele><time>2026-04-08T12:24:08Z</time></trkpt><trkpt lat="43.2848081200343" lon="11.546973074704397"><ele>295.0</ele><time>2026-04-08T12:24:09Z</time></trkpt><trkpt lat="43.28487215256918" lon="11.546859591769444"><ele>300.0</ele><time>2026-04-08T12:24:10Z</time></trkpt><trkpt lat="43.284953397235206" lon="11.546761928761445"><ele>305.0</ele><time>2026-04-08T12:24:11Z</time></trkpt><trkpt lat="43.285041839746455" lon="11.54667766197201"><ele>310.0</ele><time>2026-04-08T12:24:12Z</time></trkpt><trkpt lat="43.285141635749284" lon="11.546590330778303"><ele>310.0</ele><time>2026-04-08T12:24:13Z</time></trkpt><trkpt lat="43.285253445813744" lon="11.546509708148225"><ele>310.0</ele><time>2026-04-08T12:24:14Z</time></trkpt><trkpt lat="43.28537933795602" lon="11.546451945115491"><ele>310.0</ele><time>2026-04-08T12:24:15Z</time></trkpt><trkpt lat="43.285511353208165" lon="11.546418208476167"><ele>310.0</ele><time>2026-04-08T12:24:16Z</time></trkpt><trkpt lat="43.285611376844976" lon="11.546370653933547"><ele>309.6</ele><time>2026-04-08T12:24:17Z</time></trkpt><trkpt lat="43.28571517264585" lon="11.54630507774956"><ele>309.2</ele><time>2026-04-08T12:24:18Z</time></trkpt><trkpt lat="43.28582244793598" lon="11.546217231035033"><ele>308.8</ele><time>2026-04-08T12:24:19Z</time></trkpt><trkpt lat="43.28591978598537" lon="11.5461328673602"><ele>308.4</ele><time>2026-04-08T12:24:20Z</time></trkpt><trkpt lat="43.28599536493955" lon="11.54605450031704"><ele>308.0</ele><time>2026-04-08T12:24:21Z</time></trkpt><trkpt lat="43.286075067155494" lon="11.545989151580486"><ele>308.8</ele><time>2026-04-08T12:24:22Z</time></trkpt><trkpt lat="43.286151822103065" lon="11.54593832750319"><ele>309.6</ele><time>2026-04-08T12:24:23Z</time></trkpt><trkpt lat="43.286235322852676" lon="11.54589223875664"><ele>310.4</ele><time>2026-04-08T12:24:24Z</time></trkpt><trkpt lat="43.28632178273267" lon="11.545877958851229"><ele>311.2</ele><time>2026-04-08T12:24:25Z</time></trkpt><trkpt lat="43.28641261403574" lon="11.54588502772845"><ele>312.0</ele><time>2026-04-08T12:24:26Z</time></trkpt><trkpt lat="43.28650548937399" lon="11.54592282335419"><ele>312.0</ele><time>2026-04-08T12:24:27Z</time></trkpt><trkpt lat="43.286594119732" lon="11.545989017136879"><ele>312.0</ele><time>2026-04-08T12:24:28Z</time></trkpt><trkpt lat="43.28668546489495" lon="11.54607367231617"><ele>312.0</ele><time>2026-04-08T12:24:29Z</time></trkpt><trkpt lat="43.28675754979942" lon="11.546131094363968"><ele>312.0</ele><time>2026-04-08T12:24:30Z</time></trkpt><trkpt lat="43.28683545823597" lon="11.546161059666435"><ele>312.0</ele><time>2026-04-08T12:24:31Z</time></trkpt><trkpt lat="43.286918418506566" lon="11.546175369305736"><ele>312.0</ele><time>2026-04-08T12:24:32Z</time></trkpt><trkpt lat="43.28701373919834" lon="11.546157820059978"><ele>312.0</ele><time>2026-04-08T12:24:33Z</time></trkpt><trkpt lat="43.28709607183764" lon="11.546126208251277"><ele>312.0</ele><time>2026-04-08T12:24:34Z</time></trkpt><trkpt lat="43.287160671281626" lon="11.54606977325963"><ele>312.0</ele><time>2026-04-08T12:24:35Z</time></trkpt><trkpt lat="43.28721364759465" lon="11.545992540034883"><ele>312.0</ele><time>2026-04-08T12:24:36Z</time></trkpt><trkpt lat="43.287258567706786" lon="11.545899725816081"><ele>312.0</ele><time>2026-04-08T12:24:37Z</time></trkpt><trkpt lat="43.287285232463965" lon="11.545760751314344"><ele>309.25</ele><time>2026-04-08T12:24:38Z</time></trkpt><trkpt lat="43.28732442009605" lon="11.545589341077815"><ele>306.5</ele><time>2026-04-08T12:24:39Z</time></trkpt><trkpt lat="43.2873407652716" lon="11.545380906377728"><ele>303.75</ele><time>2026-04-08T12:24:40Z</time></trkpt><trkpt lat="43.28737593352688" lon="11.545208216674089"><ele>301.0</ele><time>2026-04-08T12:24:41Z</time></trkpt><trkpt lat="43.28738543325801" lon="11.545056188357462"><ele>301.0</ele><time>2026-04-08T12:24:42Z</time></trkpt><trkpt lat="43.287391797999916" lon="11.544887158561941"><ele>301.0</ele><time>2026-04-08T12:24:43Z</time></trkpt><trkpt lat="43.287408163527104" lon="11.54472665496055"><ele>301.0</ele><time>2026-04-08T12:24:44Z</time></trkpt><trkpt lat="43.28743383909476" lon="11.544586680381713"><ele>301.0</ele><time>2026-04-08T12:24:45Z</time></trkpt><trkpt lat="43.287474512769336" lon="11.544435529320065"><ele>300.6</ele><time>2026-04-08T12:24:46Z</time></trkpt><trkpt lat="43.287516564326395" lon="11.544308524096548"><ele>300.20000000000005</ele><time>2026-04-08T12:24:47Z</time></trkpt><trkpt lat="43.28755924497013" lon="11.54418572897001"><ele>299.79999999999995</ele><time>2026-04-08T12:24:47.999Z</time></trkpt><trkpt lat="43.287602503976075" lon="11.544071877524841"><ele>299.4</ele><time>2026-04-08T12:24:48.999Z</time></trkpt><trkpt lat="43.28763180628874" lon="11.543962458794988"><ele>299.0</ele><time>2026-04-08T12:24:49.999Z</time></trkpt><trkpt lat="43.287642817923505" lon="11.54383207126398"><ele>297.75</ele><time>2026-04-08T12:24:50.999Z</time></trkpt><trkpt lat="43.28764184375585" lon="11.543685043396405"><ele>296.5</ele><time>2026-04-08T12:24:51.999Z</time></trkpt><trkpt lat="43.28763012152292" lon="11.543541992660984"><ele>295.25</ele><time>2026-04-08T12:24:52.999Z</time></trkpt><trkpt lat="43.28762433021524" lon="11.543373208479728"><ele>294.0</ele><time>2026-04-08T12:24:53.999Z</time></trkpt><trkpt lat="43.287651253241265" lon="11.543190606985053"><ele>294.0</ele><time>2026-04-08T12:24:54.999Z</time></trkpt><trkpt lat="43.28770084594619" lon="11.543006933786426"><ele>294.0</ele><time>2026-04-08T12:24:55.999Z</time></trkpt><trkpt lat="43.28775655896251" lon="11.542836150804126"><ele>294.0</ele><time>2026-04-08T12:24:56.999Z</time></trkpt><trkpt lat="43.28779841270766" lon="11.542696955462317"><ele>294.0</ele><time>2026-04-08T12:24:57.999Z</time></trkpt><trkpt lat="43.28783908484566" lon="11.542575066979879"><ele>296.0</ele><time>2026-04-08T12:24:58.999Z</time></trkpt><trkpt lat="43.28790232655721" lon="11.542452707853222"><ele>298.0</ele><time>2026-04-08T12:24:59.999Z</time></trkpt><trkpt lat="43.28798034991116" lon="11.542318673144944"><ele>300.0</ele><time>2026-04-08T12:25:00.999Z</time></trkpt><trkpt lat="43.28806561319118" lon="11.542173788770215"><ele>302.0</ele><time>2026-04-08T12:25:01.999Z</time></trkpt><trkpt lat="43.28814844179461" lon="11.542014788165208"><ele>302.0</ele><time>2026-04-08T12:25:02.999Z</time></trkpt><trkpt lat="43.28821508245139" lon="11.541858244380977"><ele>302.0</ele><time>2026-04-08T12:25:03.999Z</time></trkpt><trkpt lat="43.28826830815116" lon="11.541712061085825"><ele>302.0</ele><time>2026-04-08T12:25:05Z</time></trkpt><trkpt lat="43.28830252804039" lon="11.541590337083177"><ele>302.0</ele><time>2026-04-08T12:25:06Z</time></trkpt><trkpt lat="43.288353446169815" lon="11.54149380395158"><ele>302.0</ele><time>2026-04-08T12:25:07Z</time></trkpt><trkpt lat="43.288431123755785" lon="11.54141259368972"><ele>302.0</ele><time>2026-04-08T12:25:08Z</time></trkpt><trkpt lat="43.288527557188544" lon="11.541335615010972"><ele>302.0</ele><time>2026-04-08T12:25:09Z</time></trkpt><trkpt lat="43.288627494136605" lon="11.541285313582044"><ele>302.0</ele><time>2026-04-08T12:25:10Z</time></trkpt><trkpt lat="43.28873965404827" lon="11.541242870443558"><ele>302.0</ele><time>2026-04-08T12:25:11Z</time></trkpt><trkpt lat="43.28886911674321" lon="11.541208670859158"><ele>302.0</ele><time>2026-04-08T12:25:12Z</time></trkpt><trkpt lat="43.288980199073976" lon="11.541181349463175"><ele>302.0</ele><time>2026-04-08T12:25:13Z</time></trkpt><trkpt lat="43.28908921846551" lon="11.541148426870315"><ele>302.0</ele><time>2026-04-08T12:25:14Z</time></trkpt><trkpt lat="43.28918593056443" lon="11.54111651804441"><ele>302.0</ele><time>2026-04-08T12:25:15Z</time></trkpt><trkpt lat="43.28927640123983" lon="11.541099022241315"><ele>302.0</ele><time>2026-04-08T12:25:16Z</time></trkpt><trkpt lat="43.289377952712364" lon="11.541107992859214"><ele>302.0</ele><time>2026-04-08T12:25:17Z</time></trkpt><trkpt lat="43.28948485396063" lon="11.541142787963192"><ele>302.0</ele><time>2026-04-08T12:25:18Z</time></trkpt><trkpt lat="43.28959295266543" lon="11.541190582284315"><ele>302.0</ele><time>2026-04-08T12:25:19Z</time></trkpt><trkpt lat="43.289714936205606" lon="11.54123361695975"><ele>302.0</ele><time>2026-04-08T12:25:20Z</time></trkpt><trkpt lat="43.28982482165895" lon="11.541241930821652"><ele>302.0</ele><time>2026-04-08T12:25:21Z</time></trkpt><trkpt lat="43.289928512623945" lon="11.541236030800562"><ele>302.0</ele><time>2026-04-08T12:25:22Z</time></trkpt><trkpt lat="43.290029537401416" lon="11.54122256338588"><ele>302.0</ele><time>2026-04-08T12:25:23Z</time></trkpt><trkpt lat="43.290127368673105" lon="11.541213031755916"><ele>302.0</ele><time>2026-04-08T12:25:24Z</time></trkpt><trkpt lat="43.29022369365748" lon="11.541210335352686"><ele>302.0</ele><time>2026-04-08T12:25:25Z</time></trkpt><trkpt lat="43.29031043620717" lon="11.541219129750903"><ele>303.6</ele><time>2026-04-08T12:25:26Z</time></trkpt><trkpt lat="43.290399433276825" lon="11.541240951253112"><ele>305.2</ele><time>2026-04-08T12:25:27Z</time></trkpt><trkpt lat="43.29049935347607" lon="11.541269753983402"><ele>306.8</ele><time>2026-04-08T12:25:28Z</time></trkpt><trkpt lat="43.290594511712385" lon="11.541320886349254"><ele>308.4</ele><time>2026-04-08T12:25:29Z</time></trkpt><trkpt lat="43.29068555126588" lon="11.54136229953025"><ele>310.0</ele><time>2026-04-08T12:25:30Z</time></trkpt><trkpt lat="43.29077333021717" lon="11.541393601268396"><ele>310.0</ele><time>2026-04-08T12:25:31Z</time></trkpt><trkpt lat="43.29087010456921" lon="11.541412255812773"><ele>310.0</ele><time>2026-04-08T12:25:32Z</time></trkpt><trkpt lat="43.290964152841866" lon="11.541406581598727"><ele>310.0</ele><time>2026-04-08T12:25:33Z</time></trkpt><trkpt lat="43.29104620674787" lon="11.541375612068626"><ele>310.0</ele><time>2026-04-08T12:25:34Z</time></trkpt><trkpt lat="43.29111968639211" lon="11.541317091860114"><ele>310.0</ele><time>2026-04-08T12:25:35Z</time></trkpt><trkpt lat="43.291190211136744" lon="11.541238401883067"><ele>308.8</ele><time>2026-04-08T12:25:36Z</time></trkpt><trkpt lat="43.29125217922955" lon="11.541145927617553"><ele>307.6</ele><time>2026-04-08T12:25:37Z</time></trkpt><trkpt lat="43.29130091624352" lon="11.541050295958664"><ele>306.4</ele><time>2026-04-08T12:25:38Z</time></trkpt><trkpt lat="43.2913421650605" lon="11.54095491838408"><ele>305.2</ele><time>2026-04-08T12:25:39Z</time></trkpt><trkpt lat="43.291342922284606" lon="11.540787731073399"><ele>304.0</ele><time>2026-04-08T12:25:41Z</time></trkpt><trkpt lat="43.29133298438157" lon="11.540690309204424"><ele>304.0</ele><time>2026-04-08T12:25:42Z</time></trkpt><trkpt lat="43.29132501125074" lon="11.540582210733554"><ele>304.0</ele><time>2026-04-08T12:25:43Z</time></trkpt><trkpt lat="43.291313213528895" lon="11.54045983728936"><ele>304.0</ele><time>2026-04-08T12:25:44Z</time></trkpt><trkpt lat="43.29130985585079" lon="11.540318111329016"><ele>304.0</ele><time>2026-04-08T12:25:45Z</time></trkpt><trkpt lat="43.291326885214275" lon="11.540163287116336"><ele>304.0</ele><time>2026-04-08T12:25:46Z</time></trkpt><trkpt lat="43.29136164882158" lon="11.539996033797076"><ele>303.59999999999997</ele><time>2026-04-08T12:25:47Z</time></trkpt><trkpt lat="43.291407558288526" lon="11.539860308456403"><ele>303.2</ele><time>2026-04-08T12:25:48Z</time></trkpt><trkpt lat="43.29145094228665" lon="11.53974658606781"><ele>302.79999999999995</ele><time>2026-04-08T12:25:49Z</time></trkpt><trkpt lat="43.291499453285006" lon="11.53961557134184"><ele>302.4</ele><time>2026-04-08T12:25:50Z</time></trkpt><trkpt lat="43.291554369394895" lon="11.53947075018865"><ele>302.0</ele><time>2026-04-08T12:25:51Z</time></trkpt><trkpt lat="43.29161166332311" lon="11.539322002274677"><ele>305.0</ele><time>2026-04-08T12:25:52Z</time></trkpt><trkpt lat="43.2916687349732" lon="11.539180614186165"><ele>308.0</ele><time>2026-04-08T12:25:53Z</time></trkpt><trkpt lat="43.29171462903484" lon="11.53907004404063"><ele>311.0</ele><time>2026-04-08T12:25:54Z</time></trkpt><trkpt lat="43.29176289655565" lon="11.538962704795484"><ele>314.0</ele><time>2026-04-08T12:25:55Z</time></trkpt><trkpt lat="43.2918135311379" lon="11.538881815956914"><ele>317.0</ele><time>2026-04-08T12:25:56Z</time></trkpt><trkpt lat="43.29188209890073" lon="11.538834052303402"><ele>317.0</ele><time>2026-04-08T12:25:57Z</time></trkpt><trkpt lat="43.29196395605189" lon="11.538810526651886"><ele>317.0</ele><time>2026-04-08T12:25:58Z</time></trkpt><trkpt lat="43.29206061728225" lon="11.538805059852152"><ele>317.0</ele><time>2026-04-08T12:25:59Z</time></trkpt><trkpt lat="43.29215763895287" lon="11.5388329864499"><ele>317.0</ele><time>2026-04-08T12:26:00Z</time></trkpt><trkpt lat="43.29225645853123" lon="11.538880540200115"><ele>317.0</ele><time>2026-04-08T12:26:01Z</time></trkpt><trkpt lat="43.29236476364771" lon="11.538915110386249"><ele>317.0</ele><time>2026-04-08T12:26:02Z</time></trkpt><trkpt lat="43.29247312140789" lon="11.538940945215789"><ele>317.0</ele><time>2026-04-08T12:26:03Z</time></trkpt><trkpt lat="43.29256206652771" lon="11.538944732116008"><ele>317.0</ele><time>2026-04-08T12:26:04Z</time></trkpt><trkpt lat="43.292640473738395" lon="11.538938068118958"><ele>317.0</ele><time>2026-04-08T12:26:05Z</time></trkpt><trkpt lat="43.292719969162604" lon="11.538908263427988"><ele>317.0</ele><time>2026-04-08T12:26:06Z</time></trkpt><trkpt lat="43.29279649205929" lon="11.538857508593102"><ele>317.0</ele><time>2026-04-08T12:26:07Z</time></trkpt><trkpt lat="43.29287326999205" lon="11.538777880692315"><ele>315.75</ele><time>2026-04-08T12:26:08Z</time></trkpt><trkpt lat="43.292972461467066" lon="11.538677727456323"><ele>314.5</ele><time>2026-04-08T12:26:09Z</time></trkpt><trkpt lat="43.29306482826496" lon="11.538582888682555"><ele>313.25</ele><time>2026-04-08T12:26:10Z</time></trkpt><trkpt lat="43.29316881077797" lon="11.538482445678072"><ele>312.0</ele><time>2026-04-08T12:26:11Z</time></trkpt><trkpt lat="43.29328501010858" lon="11.538379963464847"><ele>312.0</ele><time>2026-04-08T12:26:12Z</time></trkpt><trkpt lat="43.293407399273015" lon="11.538270831228775"><ele>312.0</ele><time>2026-04-08T12:26:13Z</time></trkpt><trkpt lat="43.29353669179761" lon="11.538150783206126"><ele>312.0</ele><time>2026-04-08T12:26:14Z</time></trkpt><trkpt lat="43.29364893320788" lon="11.538042198781016"><ele>312.0</ele><time>2026-04-08T12:26:15Z</time></trkpt><trkpt lat="43.29376576425809" lon="11.537939755432044"><ele>312.25</ele><time>2026-04-08T12:26:16Z</time></trkpt><trkpt lat="43.2938939516375" lon="11.537837836992638"><ele>312.5</ele><time>2026-04-08T12:26:17Z</time></trkpt><trkpt lat="43.29400954775426" lon="11.537717818911455"><ele>312.75</ele><time>2026-04-08T12:26:18Z</time></trkpt><trkpt lat="43.29412680747775" lon="11.537593872317252"><ele>313.0</ele><time>2026-04-08T12:26:19Z</time></trkpt><trkpt lat="43.29423303707981" lon="11.537470419996918"><ele>313.0</ele><time>2026-04-08T12:26:20Z</time></trkpt><trkpt lat="43.29432641620351" lon="11.537348477405127"><ele>313.0</ele><time>2026-04-08T12:26:21Z</time></trkpt><trkpt lat="43.29438770143527" lon="11.537263652775252"><ele>313.0</ele><time>2026-04-08T12:26:22Z</time></trkpt><trkpt lat="43.29446876590765" lon="11.537170408136022"><ele>313.0</ele><time>2026-04-08T12:26:23Z</time></trkpt><trkpt lat="43.294565622536894" lon="11.537078837282865"><ele>313.0</ele><time>2026-04-08T12:26:24Z</time></trkpt><trkpt lat="43.29467891597728" lon="11.536995165700459"><ele>311.8</ele><time>2026-04-08T12:26:25Z</time></trkpt><trkpt lat="43.294774939710514" lon="11.536944949076217"><ele>310.6</ele><time>2026-04-08T12:26:26Z</time></trkpt><trkpt lat="43.29486740435515" lon="11.536900375761174"><ele>309.4</ele><time>2026-04-08T12:26:27Z</time></trkpt><trkpt lat="43.294962625003514" lon="11.536848272663082"><ele>308.2</ele><time>2026-04-08T12:26:28Z</time></trkpt><trkpt lat="43.295065549793605" lon="11.536803586244238"><ele>307.0</ele><time>2026-04-08T12:26:29Z</time></trkpt><trkpt lat="43.29517012904835" lon="11.536792135811657"><ele>307.0</ele><time>2026-04-08T12:26:30Z</time></trkpt><trkpt lat="43.29527224630974" lon="11.536781864637362"><ele>307.0</ele><time>2026-04-08T12:26:31Z</time></trkpt><trkpt lat="43.29535560389452" lon="11.536734573478942"><ele>307.0</ele><time>2026-04-08T12:26:32Z</time></trkpt><trkpt lat="43.29543255887814" lon="11.536671292408812"><ele>307.0</ele><time>2026-04-08T12:26:33Z</time></trkpt><trkpt lat="43.29550104405321" lon="11.536578627532155"><ele>307.0</ele><time>2026-04-08T12:26:34Z</time></trkpt><trkpt lat="43.29555283802156" lon="11.536467089375533"><ele>308.5</ele><time>2026-04-08T12:26:35Z</time></trkpt><trkpt lat="43.295605570643055" lon="11.536343051230638"><ele>310.0</ele><time>2026-04-08T12:26:36Z</time></trkpt><trkpt lat="43.295655225161276" lon="11.536194276022758"><ele>311.5</ele><time>2026-04-08T12:26:37Z</time></trkpt><trkpt lat="43.29570456332482" lon="11.536037782185078"><ele>313.0</ele><time>2026-04-08T12:26:38Z</time></trkpt><trkpt lat="43.295756524633255" lon="11.535877322591263"><ele>315.5</ele><time>2026-04-08T12:26:39Z</time></trkpt><trkpt lat="43.2958041864704" lon="11.535710171913314"><ele>318.0</ele><time>2026-04-08T12:26:40Z</time></trkpt><trkpt lat="43.295822482347305" lon="11.535531543000046"><ele>320.5</ele><time>2026-04-08T12:26:41Z</time></trkpt><trkpt lat="43.29582570434017" lon="11.53534455241399"><ele>323.0</ele><time>2026-04-08T12:26:42Z</time></trkpt><trkpt lat="43.29583236153746" lon="11.535196088091723"><ele>323.6666666666667</ele><time>2026-04-08T12:26:43Z</time></trkpt><trkpt lat="43.295847365646814" lon="11.535061493011174"><ele>324.33333333333337</ele><time>2026-04-08T12:26:44Z</time></trkpt><trkpt lat="43.29585387363787" lon="11.534949984063012"><ele>325.0</ele><time>2026-04-08T12:26:45Z</time></trkpt><trkpt lat="43.29585645925462" lon="11.534848578399403"><ele>325.6666666666667</ele><time>2026-04-08T12:26:46Z</time></trkpt><trkpt lat="43.2958209749131" lon="11.534747996478382"><ele>326.3333333333333</ele><time>2026-04-08T12:26:47Z</time></trkpt><trkpt lat="43.29575923600581" lon="11.534656712378293"><ele>327.0</ele><time>2026-04-08T12:26:48Z</time></trkpt><trkpt lat="43.29568007564" lon="11.534582182430183"><ele>327.75</ele><time>2026-04-08T12:26:49Z</time></trkpt><trkpt lat="43.29558321265902" lon="11.534517853878036"><ele>328.5</ele><time>2026-04-08T12:26:50Z</time></trkpt><trkpt lat="43.29548915236565" lon="11.534426313889853"><ele>329.25</ele><time>2026-04-08T12:26:50.999Z</time></trkpt><trkpt lat="43.29537668156907" lon="11.534365047420149"><ele>330.0</ele><time>2026-04-08T12:26:51.999Z</time></trkpt><trkpt lat="43.295297346086365" lon="11.534256537717345"><ele>330.0</ele><time>2026-04-08T12:26:52.999Z</time></trkpt><trkpt lat="43.29522941981643" lon="11.53416725604455"><ele>330.0</ele><time>2026-04-08T12:26:53.999Z</time></trkpt><trkpt lat="43.29515997932402" lon="11.53409108744173"><ele>330.0</ele><time>2026-04-08T12:26:54.999Z</time></trkpt><trkpt lat="43.295097289293075" lon="11.53399486193277"><ele>330.0</ele><time>2026-04-08T12:26:55.999Z</time></trkpt><trkpt lat="43.29500028891449" lon="11.533903721700213"><ele>330.0</ele><time>2026-04-08T12:26:56.999Z</time></trkpt><trkpt lat="43.29487878306491" lon="11.533844796156176"><ele>330.0</ele><time>2026-04-08T12:26:57.999Z</time></trkpt><trkpt lat="43.29478025390787" lon="11.5337735792614"><ele>330.0</ele><time>2026-04-08T12:26:58.999Z</time></trkpt><trkpt lat="43.2946890309568" lon="11.533725499785888"><ele>330.0</ele><time>2026-04-08T12:26:59.999Z</time></trkpt><trkpt lat="43.294619329504066" lon="11.533675296393755"><ele>330.0</ele><time>2026-04-08T12:27:00.999Z</time></trkpt><trkpt lat="43.29455608177896" lon="11.533606640071042"><ele>330.0</ele><time>2026-04-08T12:27:01.999Z</time></trkpt><trkpt lat="43.29450847011718" lon="11.533507146709505"><ele>329.0</ele><time>2026-04-08T12:27:02.999Z</time></trkpt><trkpt lat="43.2944610542858" lon="11.533381376342358"><ele>328.0</ele><time>2026-04-08T12:27:03.999Z</time></trkpt><trkpt lat="43.294463197307934" lon="11.533223912784088"><ele>327.0</ele><time>2026-04-08T12:27:04.999Z</time></trkpt><trkpt lat="43.29447719572269" lon="11.533086381912696"><ele>326.0</ele><time>2026-04-08T12:27:05.999Z</time></trkpt><trkpt lat="43.29447801256725" lon="11.532957276163476"><ele>325.0</ele><time>2026-04-08T12:27:06.999Z</time></trkpt><trkpt lat="43.294475172779855" lon="11.532832709046932"><ele>325.0</ele><time>2026-04-08T12:27:07.999Z</time></trkpt><trkpt lat="43.29447809220826" lon="11.532697310127805"><ele>325.0</ele><time>2026-04-08T12:27:08.999Z</time></trkpt><trkpt lat="43.29449908229864" lon="11.532562356515555"><ele>325.0</ele><time>2026-04-08T12:27:09.999Z</time></trkpt><trkpt lat="43.294519708972686" lon="11.532441079719193"><ele>325.0</ele><time>2026-04-08T12:27:11Z</time></trkpt><trkpt lat="43.29454738775952" lon="11.532314660987947"><ele>325.0</ele><time>2026-04-08T12:27:12Z</time></trkpt><trkpt lat="43.29458471615077" lon="11.532168231169294"><ele>325.5</ele><time>2026-04-08T12:27:13Z</time></trkpt><trkpt lat="43.294637718359816" lon="11.532019469499172"><ele>326.0</ele><time>2026-04-08T12:27:14Z</time></trkpt><trkpt lat="43.29468843941651" lon="11.531883022874638"><ele>326.5</ele><time>2026-04-08T12:27:15Z</time></trkpt><trkpt lat="43.294744694952186" lon="11.53174040255965"><ele>327.0</ele><time>2026-04-08T12:27:16Z</time></trkpt><trkpt lat="43.294816180868395" lon="11.531602213795889"><ele>325.6</ele><time>2026-04-08T12:27:17Z</time></trkpt><trkpt lat="43.29489154116758" lon="11.531479829367612"><ele>324.20000000000005</ele><time>2026-04-08T12:27:18Z</time></trkpt><trkpt lat="43.294955485095784" lon="11.531362827941273"><ele>322.8</ele><time>2026-04-08T12:27:19Z</time></trkpt><trkpt lat="43.29501919863471" lon="11.531247429736732"><ele>321.4</ele><time>2026-04-08T12:27:20Z</time></trkpt><trkpt lat="43.295089442936266" lon="11.531130463842693"><ele>320.0</ele><time>2026-04-08T12:27:21Z</time></trkpt><trkpt lat="43.2951669169975" lon="11.531031559417446"><ele>320.0</ele><time>2026-04-08T12:27:22Z</time></trkpt><trkpt lat="43.295254054465246" lon="11.53094887371052"><ele>320.0</ele><time>2026-04-08T12:27:23Z</time></trkpt><trkpt lat="43.295350243361916" lon="11.530869118321375"><ele>320.0</ele><time>2026-04-08T12:27:24Z</time></trkpt><trkpt lat="43.2954570662087" lon="11.530784888737381"><ele>320.0</ele><time>2026-04-08T12:27:25Z</time></trkpt><trkpt lat="43.29556355503751" lon="11.530717104699717"><ele>317.0</ele><time>2026-04-08T12:27:26Z</time></trkpt><trkpt lat="43.295664786692626" lon="11.530655413784375"><ele>314.0</ele><time>2026-04-08T12:27:27Z</time></trkpt><trkpt lat="43.29575374785152" lon="11.530606871644922"><ele>311.0</ele><time>2026-04-08T12:27:28Z</time></trkpt><trkpt lat="43.29583990640059" lon="11.530563674558055"><ele>308.0</ele><time>2026-04-08T12:27:29Z</time></trkpt><trkpt lat="43.29591921742617" lon="11.530528083676268"><ele>305.0</ele><time>2026-04-08T12:27:30Z</time></trkpt><trkpt lat="43.29599729470277" lon="11.530495708504331"><ele>305.0</ele><time>2026-04-08T12:27:31Z</time></trkpt><trkpt lat="43.296086763243885" lon="11.530458126230222"><ele>305.0</ele><time>2026-04-08T12:27:32Z</time></trkpt><trkpt lat="43.29617144986202" lon="11.530425708922174"><ele>305.0</ele><time>2026-04-08T12:27:33Z</time></trkpt><trkpt lat="43.2962474365512" lon="11.53039536942818"><ele>305.0</ele><time>2026-04-08T12:27:34Z</time></trkpt><trkpt lat="43.296325911635755" lon="11.530363246516522"><ele>305.0</ele><time>2026-04-08T12:27:35Z</time></trkpt><trkpt lat="43.296400024430135" lon="11.53033259195183"><ele>305.0</ele><time>2026-04-08T12:27:36Z</time></trkpt><trkpt lat="43.29646651365429" lon="11.530296707223355"><ele>303.5</ele><time>2026-04-08T12:27:37Z</time></trkpt><trkpt lat="43.296531580387544" lon="11.530257276545074"><ele>302.0</ele><time>2026-04-08T12:27:38Z</time></trkpt><trkpt lat="43.296592821686055" lon="11.53020708864"><ele>300.5</ele><time>2026-04-08T12:27:39Z</time></trkpt><trkpt lat="43.29665392194388" lon="11.530060348707124"><ele>299.0</ele><time>2026-04-08T12:27:41Z</time></trkpt><trkpt lat="43.29665846288325" lon="11.529964628988427"><ele>297.5</ele><time>2026-04-08T12:27:42Z</time></trkpt><trkpt lat="43.296618399186045" lon="11.529856392318102"><ele>296.0</ele><time>2026-04-08T12:27:43Z</time></trkpt><trkpt lat="43.29654957992903" lon="11.529781820058641"><ele>296.0</ele><time>2026-04-08T12:27:44Z</time></trkpt><trkpt lat="43.29645484041976" lon="11.529730232464313"><ele>296.0</ele><time>2026-04-08T12:27:45Z</time></trkpt><trkpt lat="43.29635684958468" lon="11.529677900648371"><ele>296.0</ele><time>2026-04-08T12:27:46Z</time></trkpt><trkpt lat="43.29625343645789" lon="11.529629791823092"><ele>296.0</ele><time>2026-04-08T12:27:47Z</time></trkpt><trkpt lat="43.2961588885231" lon="11.529595527991267"><ele>296.0</ele><time>2026-04-08T12:27:48Z</time></trkpt><trkpt lat="43.29606170181029" lon="11.529613583859323"><ele>295.6</ele><time>2026-04-08T12:27:49Z</time></trkpt><trkpt lat="43.29596397318864" lon="11.529590529264159"><ele>295.20000000000005</ele><time>2026-04-08T12:27:50Z</time></trkpt><trkpt lat="43.295874943914065" lon="11.529515730616472"><ele>294.79999999999995</ele><time>2026-04-08T12:27:51Z</time></trkpt><trkpt lat="43.29578380951143" lon="11.52944415786608"><ele>294.4</ele><time>2026-04-08T12:27:52Z</time></trkpt><trkpt lat="43.29568352030331" lon="11.529366791302904"><ele>294.0</ele><time>2026-04-08T12:27:53Z</time></trkpt><trkpt lat="43.29558734046364" lon="11.529306685524558"><ele>294.5</ele><time>2026-04-08T12:27:54Z</time></trkpt><trkpt lat="43.295494243424436" lon="11.529295562016435"><ele>295.0</ele><time>2026-04-08T12:27:55Z</time></trkpt><trkpt lat="43.295422461573935" lon="11.529243336389243"><ele>295.5</ele><time>2026-04-08T12:27:56Z</time></trkpt><trkpt lat="43.29531582604414" lon="11.529163555868196"><ele>296.0</ele><time>2026-04-08T12:27:58Z</time></trkpt><trkpt lat="43.29529945637516" lon="11.529062510756958"><ele>296.5</ele><time>2026-04-08T12:27:59Z</time></trkpt><trkpt lat="43.29532871613789" lon="11.528971213251655"><ele>297.0</ele><time>2026-04-08T12:28:00Z</time></trkpt><trkpt lat="43.29538197383749" lon="11.528902095793825"><ele>297.0</ele><time>2026-04-08T12:28:01Z</time></trkpt><trkpt lat="43.29545465989602" lon="11.52884640657699"><ele>297.0</ele><time>2026-04-08T12:28:02Z</time></trkpt><trkpt lat="43.29554382807345" lon="11.52879164394432"><ele>297.0</ele><time>2026-04-08T12:28:03Z</time></trkpt><trkpt lat="43.29563603387686" lon="11.52873130066006"><ele>297.0</ele><time>2026-04-08T12:28:04Z</time></trkpt><trkpt lat="43.29570494782686" lon="11.528674732997892"><ele>297.0</ele><time>2026-04-08T12:28:05Z</time></trkpt><trkpt lat="43.295774203670874" lon="11.528608024514066"><ele>297.0</ele><time>2026-04-08T12:28:06Z</time></trkpt><trkpt lat="43.295841790296826" lon="11.528519025673654"><ele>296.1666666666667</ele><time>2026-04-08T12:28:07Z</time></trkpt><trkpt lat="43.29587515317232" lon="11.528436854596277"><ele>295.3333333333333</ele><time>2026-04-08T12:28:08Z</time></trkpt><trkpt lat="43.295903744200075" lon="11.52833927970369"><ele>294.5</ele><time>2026-04-08T12:28:09Z</time></trkpt><trkpt lat="43.29592645068993" lon="11.528218999289006"><ele>293.66666666666663</ele><time>2026-04-08T12:28:10Z</time></trkpt><trkpt lat="43.29593888491417" lon="11.528077409292335"><ele>292.8333333333333</ele><time>2026-04-08T12:28:11Z</time></trkpt><trkpt lat="43.29594756519277" lon="11.527931416192487"><ele>292.0</ele><time>2026-04-08T12:28:12Z</time></trkpt><trkpt lat="43.295968881665594" lon="11.527783100063026"><ele>292.0</ele><time>2026-04-08T12:28:13Z</time></trkpt><trkpt lat="43.29599198749884" lon="11.52763073670885"><ele>292.0</ele><time>2026-04-08T12:28:14Z</time></trkpt><trkpt lat="43.29601243006107" lon="11.52748428837987"><ele>292.0</ele><time>2026-04-08T12:28:15Z</time></trkpt><trkpt lat="43.29603017970524" lon="11.52734731326039"><ele>292.0</ele><time>2026-04-08T12:28:16Z</time></trkpt><trkpt lat="43.296058615435584" lon="11.52721628810406"><ele>292.0</ele><time>2026-04-08T12:28:17Z</time></trkpt><trkpt lat="43.296094158463966" lon="11.527100824902863"><ele>291.4</ele><time>2026-04-08T12:28:18Z</time></trkpt><trkpt lat="43.296146352084016" lon="11.526988630519707"><ele>290.79999999999995</ele><time>2026-04-08T12:28:19Z</time></trkpt><trkpt lat="43.2962061866522" lon="11.526869061069185"><ele>290.2</ele><time>2026-04-08T12:28:20Z</time></trkpt><trkpt lat="43.29627717512612" lon="11.526750526156974"><ele>289.59999999999997</ele><time>2026-04-08T12:28:21Z</time></trkpt><trkpt lat="43.296355850766716" lon="11.526629623749784"><ele>289.0</ele><time>2026-04-08T12:28:22Z</time></trkpt><trkpt lat="43.29643474160841" lon="11.526501773677138"><ele>289.0</ele><time>2026-04-08T12:28:23Z</time></trkpt><trkpt lat="43.29650619499114" lon="11.526388475425119"><ele>289.0</ele><time>2026-04-08T12:28:24Z</time></trkpt><trkpt lat="43.29656765450323" lon="11.526303336467514"><ele>289.0</ele><time>2026-04-08T12:28:25Z</time></trkpt><trkpt lat="43.29663135919781" lon="11.526226359753355"><ele>289.0</ele><time>2026-04-08T12:28:26Z</time></trkpt><trkpt lat="43.29669689820118" lon="11.52616913009074"><ele>289.0</ele><time>2026-04-08T12:28:27Z</time></trkpt><trkpt lat="43.296749551698504" lon="11.52610624725129"><ele>289.0</ele><time>2026-04-08T12:28:28Z</time></trkpt><trkpt lat="43.29678455145789" lon="11.526014658917331"><ele>289.0</ele><time>2026-04-08T12:28:29Z</time></trkpt><trkpt lat="43.29679581728832" lon="11.525906499796834"><ele>289.0</ele><time>2026-04-08T12:28:30Z</time></trkpt><trkpt lat="43.29678833554768" lon="11.525782664327256"><ele>289.0</ele><time>2026-04-08T12:28:31Z</time></trkpt><trkpt lat="43.296768443390434" lon="11.52564498496397"><ele>289.0</ele><time>2026-04-08T12:28:32Z</time></trkpt><trkpt lat="43.296749737029856" lon="11.52549317436401"><ele>289.0</ele><time>2026-04-08T12:28:33Z</time></trkpt><trkpt lat="43.29675447949257" lon="11.525354610669407"><ele>289.5</ele><time>2026-04-08T12:28:34Z</time></trkpt><trkpt lat="43.29676964346436" lon="11.525246219099559"><ele>290.0</ele><time>2026-04-08T12:28:35Z</time></trkpt><trkpt lat="43.296786170896986" lon="11.525137454633636"><ele>290.5</ele><time>2026-04-08T12:28:36Z</time></trkpt><trkpt lat="43.2967817138114" lon="11.525020233370354"><ele>291.0</ele><time>2026-04-08T12:28:37Z</time></trkpt><trkpt lat="43.29675296448497" lon="11.524906579300316"><ele>291.5</ele><time>2026-04-08T12:28:38Z</time></trkpt><trkpt lat="43.29670916042726" lon="11.524792785901855"><ele>292.0</ele><time>2026-04-08T12:28:39Z</time></trkpt><trkpt lat="43.29665967405036" lon="11.524678501891893"><ele>294.0</ele><time>2026-04-08T12:28:40Z</time></trkpt><trkpt lat="43.296616815011994" lon="11.524557331107806"><ele>296.0</ele><time>2026-04-08T12:28:41Z</time></trkpt><trkpt lat="43.29658429135155" lon="11.524424734591824"><ele>298.0</ele><time>2026-04-08T12:28:42Z</time></trkpt><trkpt lat="43.296566487831754" lon="11.524283042381308"><ele>300.0</ele><time>2026-04-08T12:28:43Z</time></trkpt><trkpt lat="43.29655020460492" lon="11.524123658212888"><ele>302.0</ele><time>2026-04-08T12:28:44Z</time></trkpt><trkpt lat="43.29653174339306" lon="11.523967364214238"><ele>302.0</ele><time>2026-04-08T12:28:45Z</time></trkpt><trkpt lat="43.29651231080332" lon="11.523835123200064"><ele>302.0</ele><time>2026-04-08T12:28:46Z</time></trkpt><trkpt lat="43.29649082315656" lon="11.523696790854785"><ele>302.0</ele><time>2026-04-08T12:28:47Z</time></trkpt><trkpt lat="43.29647042827294" lon="11.523569948124628"><ele>302.0</ele><time>2026-04-08T12:28:48Z</time></trkpt><trkpt lat="43.296454659298185" lon="11.523442567266153"><ele>302.0</ele><time>2026-04-08T12:28:49Z</time></trkpt><trkpt lat="43.29644423509643" lon="11.523304102681987"><ele>302.8</ele><time>2026-04-08T12:28:50Z</time></trkpt><trkpt lat="43.296439510986595" lon="11.523153600462962"><ele>303.6</ele><time>2026-04-08T12:28:51Z</time></trkpt><trkpt lat="43.2964357782567" lon="11.523010514271256"><ele>304.40000000000003</ele><time>2026-04-08T12:28:52Z</time></trkpt><trkpt lat="43.296435874613884" lon="11.522889052556147"><ele>305.2</ele><time>2026-04-08T12:28:53Z</time></trkpt><trkpt lat="43.29644440360342" lon="11.522774448096936"><ele>306.0</ele><time>2026-04-08T12:28:54Z</time></trkpt><trkpt lat="43.29646748671673" lon="11.52265994778727"><ele>306.0</ele><time>2026-04-08T12:28:55Z</time></trkpt><trkpt lat="43.29650614431821" lon="11.52254453121025"><ele>306.0</ele><time>2026-04-08T12:28:55.999Z</time></trkpt><trkpt lat="43.29656209678818" lon="11.522427009953534"><ele>306.0</ele><time>2026-04-08T12:28:56.999Z</time></trkpt><trkpt lat="43.29662935331106" lon="11.522320668316244"><ele>306.0</ele><time>2026-04-08T12:28:57.999Z</time></trkpt><trkpt lat="43.2966779434316" lon="11.52220687617978"><ele>306.0</ele><time>2026-04-08T12:28:58.999Z</time></trkpt><trkpt lat="43.29671293456528" lon="11.522071885606566"><ele>304.3333333333333</ele><time>2026-04-08T12:28:59.999Z</time></trkpt><trkpt lat="43.2967303569411" lon="11.521941367427523"><ele>302.6666666666667</ele><time>2026-04-08T12:29:00.999Z</time></trkpt><trkpt lat="43.29674368980424" lon="11.521815206847842"><ele>301.0</ele><time>2026-04-08T12:29:01.999Z</time></trkpt><trkpt lat="43.296768069424964" lon="11.521709369473815"><ele>299.33333333333337</ele><time>2026-04-08T12:29:02.999Z</time></trkpt><trkpt lat="43.29681527222877" lon="11.52162216206157"><ele>297.6666666666667</ele><time>2026-04-08T12:29:03.999Z</time></trkpt><trkpt lat="43.29689155368952" lon="11.521547271135475"><ele>296.0</ele><time>2026-04-08T12:29:04.999Z</time></trkpt><trkpt lat="43.29699283032498" lon="11.521480176814215"><ele>296.0</ele><time>2026-04-08T12:29:05.999Z</time></trkpt><trkpt lat="43.297100502422964" lon="11.521430692458997"><ele>296.0</ele><time>2026-04-08T12:29:06.999Z</time></trkpt><trkpt lat="43.297197496478596" lon="11.521393663015463"><ele>296.0</ele><time>2026-04-08T12:29:07.999Z</time></trkpt><trkpt lat="43.29729348001654" lon="11.52136934755125"><ele>296.0</ele><time>2026-04-08T12:29:08.999Z</time></trkpt><trkpt lat="43.297384278605236" lon="11.521362340986135"><ele>296.0</ele><time>2026-04-08T12:29:09.999Z</time></trkpt><trkpt lat="43.297468452966044" lon="11.521374314664381"><ele>297.33333333333337</ele><time>2026-04-08T12:29:10.999Z</time></trkpt><trkpt lat="43.29755343123894" lon="11.521405283890905"><ele>298.6666666666667</ele><time>2026-04-08T12:29:11.999Z</time></trkpt><trkpt lat="43.29763074125544" lon="11.52145143424523"><ele>300.0</ele><time>2026-04-08T12:29:12.999Z</time></trkpt><trkpt lat="43.29769566374909" lon="11.52151042830561"><ele>301.3333333333333</ele><time>2026-04-08T12:29:13.999Z</time></trkpt><trkpt lat="43.29775898912885" lon="11.521575519739086"><ele>302.66666666666663</ele><time>2026-04-08T12:29:14.999Z</time></trkpt><trkpt lat="43.29782402086164" lon="11.521644301364987"><ele>304.0</ele><time>2026-04-08T12:29:15.999Z</time></trkpt><trkpt lat="43.29789336059163" lon="11.52172068853723"><ele>304.0</ele><time>2026-04-08T12:29:17Z</time></trkpt><trkpt lat="43.29796136991666" lon="11.521812104661826"><ele>304.0</ele><time>2026-04-08T12:29:18Z</time></trkpt><trkpt lat="43.29802156676763" lon="11.521913010697121"><ele>304.0</ele><time>2026-04-08T12:29:19Z</time></trkpt><trkpt lat="43.29806471596624" lon="11.52200716548954"><ele>304.0</ele><time>2026-04-08T12:29:20Z</time></trkpt><trkpt lat="43.29809759079251" lon="11.522092003867867"><ele>304.0</ele><time>2026-04-08T12:29:21Z</time></trkpt><trkpt lat="43.298139562748545" lon="11.522183066948642"><ele>304.0</ele><time>2026-04-08T12:29:22Z</time></trkpt><trkpt lat="43.29819916189464" lon="11.522260917039771"><ele>304.16666666666663</ele><time>2026-04-08T12:29:23Z</time></trkpt><trkpt lat="43.29826618816493" lon="11.522314988608985"><ele>304.3333333333333</ele><time>2026-04-08T12:29:24Z</time></trkpt><trkpt lat="43.29834644372068" lon="11.522341201159469"><ele>304.5</ele><time>2026-04-08T12:29:25Z</time></trkpt><trkpt lat="43.29843509274772" lon="11.52232790261616"><ele>304.6666666666667</ele><time>2026-04-08T12:29:26Z</time></trkpt><trkpt lat="43.298522318379824" lon="11.522293437324247"><ele>304.83333333333337</ele><time>2026-04-08T12:29:27Z</time></trkpt><trkpt lat="43.29859712062932" lon="11.5222667055121"><ele>305.0</ele><time>2026-04-08T12:29:28Z</time></trkpt><trkpt lat="43.298671647682625" lon="11.522278023828832"><ele>305.0</ele><time>2026-04-08T12:29:29Z</time></trkpt><trkpt lat="43.29874997665713" lon="11.52232093183664"><ele>305.0</ele><time>2026-04-08T12:29:30Z</time></trkpt><trkpt lat="43.29882163524742" lon="11.52239535257357"><ele>305.0</ele><time>2026-04-08T12:29:31Z</time></trkpt><trkpt lat="43.2988887524474" lon="11.522477130419277"><ele>305.0</ele><time>2026-04-08T12:29:32Z</time></trkpt><trkpt lat="43.2989750228985" lon="11.522534711829163"><ele>305.0</ele><time>2026-04-08T12:29:33Z</time></trkpt><trkpt lat="43.29906873209176" lon="11.522551492173251"><ele>303.6</ele><time>2026-04-08T12:29:34Z</time></trkpt><trkpt lat="43.299169375437245" lon="11.522540179772877"><ele>302.2</ele><time>2026-04-08T12:29:35Z</time></trkpt><trkpt lat="43.299277499929325" lon="11.522517602221347"><ele>300.8</ele><time>2026-04-08T12:29:36Z</time></trkpt><trkpt lat="43.299369624203784" lon="11.522494598289503"><ele>299.4</ele><time>2026-04-08T12:29:37Z</time></trkpt><trkpt lat="43.29944533396663" lon="11.522470122800286"><ele>298.0</ele><time>2026-04-08T12:29:38Z</time></trkpt><trkpt lat="43.299520850697654" lon="11.522433900552793"><ele>298.0</ele><time>2026-04-08T12:29:39Z</time></trkpt><trkpt lat="43.29958541418024" lon="11.522383999956887"><ele>298.0</ele><time>2026-04-08T12:29:40Z</time></trkpt><trkpt lat="43.29966184701281" lon="11.522328040108563"><ele>298.0</ele><time>2026-04-08T12:29:41Z</time></trkpt><trkpt lat="43.29974215438322" lon="11.522275460954065"><ele>298.0</ele><time>2026-04-08T12:29:42Z</time></trkpt><trkpt lat="43.29983810707996" lon="11.522242521121788"><ele>298.0</ele><time>2026-04-08T12:29:43Z</time></trkpt><trkpt lat="43.29995904992488" lon="11.522229740853394"><ele>298.2</ele><time>2026-04-08T12:29:44Z</time></trkpt><trkpt lat="43.300080095432925" lon="11.522238847403374"><ele>298.4</ele><time>2026-04-08T12:29:45Z</time></trkpt><trkpt lat="43.30019216667568" lon="11.522279180353605"><ele>298.59999999999997</ele><time>2026-04-08T12:29:46Z</time></trkpt><trkpt lat="43.3002876167052" lon="11.522285689785498"><ele>298.8</ele><time>2026-04-08T12:29:47Z</time></trkpt><trkpt lat="43.300383000151605" lon="11.522351610001031"><ele>299.0</ele><time>2026-04-08T12:29:48Z</time></trkpt><trkpt lat="43.30048315068699" lon="11.52240798132028"><ele>297.75</ele><time>2026-04-08T12:29:49Z</time></trkpt><trkpt lat="43.30058689382047" lon="11.52246393947584"><ele>296.5</ele><time>2026-04-08T12:29:50Z</time></trkpt><trkpt lat="43.30069855734464" lon="11.52251364907477"><ele>295.25</ele><time>2026-04-08T12:29:51Z</time></trkpt><trkpt lat="43.30082184439181" lon="11.522546907052087"><ele>294.0</ele><time>2026-04-08T12:29:52Z</time></trkpt><trkpt lat="43.300944022784755" lon="11.522571366308865"><ele>294.0</ele><time>2026-04-08T12:29:53Z</time></trkpt><trkpt lat="43.30104964474505" lon="11.522606895787037"><ele>294.0</ele><time>2026-04-08T12:29:54Z</time></trkpt><trkpt lat="43.30116807090527" lon="11.522666985399386"><ele>294.0</ele><time>2026-04-08T12:29:55Z</time></trkpt><trkpt lat="43.30128129510631" lon="11.522736527717946"><ele>294.0</ele><time>2026-04-08T12:29:56Z</time></trkpt><trkpt lat="43.301374080809346" lon="11.522800119463316"><ele>293.0</ele><time>2026-04-08T12:29:57Z</time></trkpt><trkpt lat="43.301469001410375" lon="11.522861028943773"><ele>292.0</ele><time>2026-04-08T12:29:58Z</time></trkpt><trkpt lat="43.301580530662896" lon="11.522902206653235"><ele>291.0</ele><time>2026-04-08T12:29:59Z</time></trkpt><trkpt lat="43.30170591211638" lon="11.52292388472715"><ele>290.0</ele><time>2026-04-08T12:30:00Z</time></trkpt><trkpt lat="43.301815673341245" lon="11.522920795154732"><ele>294.6</ele><time>2026-04-08T12:30:01Z</time></trkpt><trkpt lat="43.3019111481229" lon="11.522926633426216"><ele>299.2</ele><time>2026-04-08T12:30:02Z</time></trkpt><trkpt lat="43.30199615281116" lon="11.522946963745845"><ele>303.8</ele><time>2026-04-08T12:30:03Z</time></trkpt><trkpt lat="43.30208302148831" lon="11.522954716189842"><ele>308.4</ele><time>2026-04-08T12:30:04Z</time></trkpt><trkpt lat="43.302183946563346" lon="11.522949207083549"><ele>313.0</ele><time>2026-04-08T12:30:05Z</time></trkpt><trkpt lat="43.30228260544199" lon="11.52291963012902"><ele>308.8</ele><time>2026-04-08T12:30:06Z</time></trkpt><trkpt lat="43.30238912256617" lon="11.52286876967785"><ele>304.6</ele><time>2026-04-08T12:30:07Z</time></trkpt><trkpt lat="43.30249971975523" lon="11.522815576448625"><ele>300.4</ele><time>2026-04-08T12:30:08Z</time></trkpt><trkpt lat="43.30260528781688" lon="11.522769925832517"><ele>296.2</ele><time>2026-04-08T12:30:09Z</time></trkpt><trkpt lat="43.3027050318393" lon="11.522733355295669"><ele>292.0</ele><time>2026-04-08T12:30:10Z</time></trkpt><trkpt lat="43.302815031564485" lon="11.522703120943119"><ele>292.0</ele><time>2026-04-08T12:30:11Z</time></trkpt><trkpt lat="43.30292058421448" lon="11.52270207329654"><ele>292.0</ele><time>2026-04-08T12:30:12Z</time></trkpt><trkpt lat="43.30302482048241" lon="11.522695594320897"><ele>292.0</ele><time>2026-04-08T12:30:13Z</time></trkpt><trkpt lat="43.3031161073112" lon="11.522694886824022"><ele>292.0</ele><time>2026-04-08T12:30:14Z</time></trkpt><trkpt lat="43.303198475140825" lon="11.522711256465183"><ele>292.0</ele><time>2026-04-08T12:30:15Z</time></trkpt><trkpt lat="43.303279047465665" lon="11.522749203783388"><ele>291.4</ele><time>2026-04-08T12:30:16Z</time></trkpt><trkpt lat="43.303360958386584" lon="11.522803643627809"><ele>290.79999999999995</ele><time>2026-04-08T12:30:17Z</time></trkpt><trkpt lat="43.303432953041934" lon="11.52287856325778"><ele>290.2</ele><time>2026-04-08T12:30:18Z</time></trkpt><trkpt lat="43.303494911920815" lon="11.522979883860515"><ele>289.59999999999997</ele><time>2026-04-08T12:30:19Z</time></trkpt><trkpt lat="43.30356114605881" lon="11.523105938946216"><ele>289.0</ele><time>2026-04-08T12:30:20Z</time></trkpt><trkpt lat="43.30363529513357" lon="11.523243676100133"><ele>290.0</ele><time>2026-04-08T12:30:21Z</time></trkpt><trkpt lat="43.30371081894819" lon="11.523373002413281"><ele>291.0</ele><time>2026-04-08T12:30:22Z</time></trkpt><trkpt lat="43.30377225524552" lon="11.523484780069497"><ele>292.0</ele><time>2026-04-08T12:30:23Z</time></trkpt><trkpt lat="43.303829244131705" lon="11.52359163542535"><ele>293.0</ele><time>2026-04-08T12:30:24Z</time></trkpt><trkpt lat="43.30388344585103" lon="11.523675152744792"><ele>294.0</ele><time>2026-04-08T12:30:25Z</time></trkpt><trkpt lat="43.30394330849065" lon="11.52376431278105"><ele>294.0</ele><time>2026-04-08T12:30:26Z</time></trkpt><trkpt lat="43.304018117164226" lon="11.523834833336606"><ele>294.0</ele><time>2026-04-08T12:30:27Z</time></trkpt><trkpt lat="43.30409411002715" lon="11.523866889815801"><ele>294.0</ele><time>2026-04-08T12:30:28Z</time></trkpt><trkpt lat="43.30418307782461" lon="11.52387974686767"><ele>294.0</ele><time>2026-04-08T12:30:29Z</time></trkpt><trkpt lat="43.30428168377931" lon="11.523866505446284"><ele>294.0</ele><time>2026-04-08T12:30:30Z</time></trkpt><trkpt lat="43.30436057859436" lon="11.523810690302557"><ele>294.0</ele><time>2026-04-08T12:30:31Z</time></trkpt><trkpt lat="43.30442242680834" lon="11.523736386310617"><ele>294.0</ele><time>2026-04-08T12:30:32Z</time></trkpt><trkpt lat="43.30449655940908" lon="11.52364606995822"><ele>294.0</ele><time>2026-04-08T12:30:33Z</time></trkpt><trkpt lat="43.304562643431886" lon="11.523535245061456"><ele>294.0</ele><time>2026-04-08T12:30:34Z</time></trkpt><trkpt lat="43.304625975489735" lon="11.523412609280806"><ele>294.0</ele><time>2026-04-08T12:30:35Z</time></trkpt><trkpt lat="43.30469453089158" lon="11.523327050731233"><ele>294.0</ele><time>2026-04-08T12:30:36Z</time></trkpt><trkpt lat="43.30476155618795" lon="11.523255145405447"><ele>296.4</ele><time>2026-04-08T12:30:37Z</time></trkpt><trkpt lat="43.304850819110925" lon="11.523197249744001"><ele>298.79999999999995</ele><time>2026-04-08T12:30:38Z</time></trkpt><trkpt lat="43.30493479720479" lon="11.523129512784562"><ele>301.20000000000005</ele><time>2026-04-08T12:30:39Z</time></trkpt><trkpt lat="43.30503884867156" lon="11.523069824924216"><ele>303.6</ele><time>2026-04-08T12:30:40Z</time></trkpt><trkpt lat="43.305146649112885" lon="11.523003981279503"><ele>306.0</ele><time>2026-04-08T12:30:41Z</time></trkpt><trkpt lat="43.30528012830156" lon="11.522941568627799"><ele>305.2</ele><time>2026-04-08T12:30:42Z</time></trkpt><trkpt lat="43.305412890840145" lon="11.522884670268466"><ele>304.40000000000003</ele><time>2026-04-08T12:30:43Z</time></trkpt><trkpt lat="43.305520712257895" lon="11.522841199769706"><ele>303.6</ele><time>2026-04-08T12:30:44Z</time></trkpt><trkpt lat="43.3056045264275" lon="11.522818289991406"><ele>302.8</ele><time>2026-04-08T12:30:45Z</time></trkpt><trkpt lat="43.30568308884731" lon="11.522808071760648"><ele>302.0</ele><time>2026-04-08T12:30:46Z</time></trkpt><trkpt lat="43.305774550314396" lon="11.522823807261604"><ele>305.0</ele><time>2026-04-08T12:30:47Z</time></trkpt><trkpt lat="43.30587631523249" lon="11.522856352202329"><ele>308.0</ele><time>2026-04-08T12:30:48Z</time></trkpt><trkpt lat="43.305988191614134" lon="11.522899219994482"><ele>311.0</ele><time>2026-04-08T12:30:49Z</time></trkpt><trkpt lat="43.30611235175599" lon="11.522959758186698"><ele>314.0</ele><time>2026-04-08T12:30:50Z</time></trkpt><trkpt lat="43.30623545155382" lon="11.523007628884555"><ele>315.0</ele><time>2026-04-08T12:30:51Z</time></trkpt><trkpt lat="43.30637246934114" lon="11.523030287267153"><ele>316.0</ele><time>2026-04-08T12:30:52Z</time></trkpt><trkpt lat="43.30650897165954" lon="11.523045874420651"><ele>317.0</ele><time>2026-04-08T12:30:53Z</time></trkpt><trkpt lat="43.30665291122866" lon="11.523065517788"><ele>318.0</ele><time>2026-04-08T12:30:54Z</time></trkpt><trkpt lat="43.30679464866267" lon="11.523080672508513"><ele>319.75</ele><time>2026-04-08T12:30:55Z</time></trkpt><trkpt lat="43.306908064066775" lon="11.523081542349793"><ele>321.5</ele><time>2026-04-08T12:30:56Z</time></trkpt><trkpt lat="43.307019336720714" lon="11.523079486661"><ele>323.25</ele><time>2026-04-08T12:30:56.999Z</time></trkpt><trkpt lat="43.30713413996778" lon="11.523079122232446"><ele>325.0</ele><time>2026-04-08T12:30:57.999Z</time></trkpt><trkpt lat="43.30724514612629" lon="11.523078722449815"><ele>325.16666666666663</ele><time>2026-04-08T12:30:58.999Z</time></trkpt><trkpt lat="43.30733054426269" lon="11.523105713414521"><ele>325.3333333333333</ele><time>2026-04-08T12:30:59.999Z</time></trkpt><trkpt lat="43.307425354423046" lon="11.523129259365101"><ele>325.5</ele><time>2026-04-08T12:31:00.999Z</time></trkpt><trkpt lat="43.307500650556364" lon="11.523176424180157"><ele>325.6666666666667</ele><time>2026-04-08T12:31:01.999Z</time></trkpt><trkpt lat="43.3075510993542" lon="11.52326499742809"><ele>325.83333333333337</ele><time>2026-04-08T12:31:02.999Z</time></trkpt><trkpt lat="43.30761365905147" lon="11.523347485942448"><ele>326.0</ele><time>2026-04-08T12:31:03.999Z</time></trkpt><trkpt lat="43.30767656153559" lon="11.523435860650286"><ele>326.0</ele><time>2026-04-08T12:31:04.999Z</time></trkpt><trkpt lat="43.30778032085637" lon="11.523491458981846"><ele>326.0</ele><time>2026-04-08T12:31:05.999Z</time></trkpt><trkpt lat="43.30787675145857" lon="11.523558598948286"><ele>326.0</ele><time>2026-04-08T12:31:06.999Z</time></trkpt><trkpt lat="43.30797534157179" lon="11.523638962488636"><ele>326.0</ele><time>2026-04-08T12:31:07.999Z</time></trkpt><trkpt lat="43.30807075448172" lon="11.523718633883327"><ele>326.0</ele><time>2026-04-08T12:31:08.999Z</time></trkpt><trkpt lat="43.308155233105346" lon="11.52378374843301"><ele>326.0</ele><time>2026-04-08T12:31:09.999Z</time></trkpt><trkpt lat="43.308229213911424" lon="11.523837733242686"><ele>326.0</ele><time>2026-04-08T12:31:10.999Z</time></trkpt><trkpt lat="43.30830166814727" lon="11.523885056862884"><ele>326.0</ele><time>2026-04-08T12:31:11.999Z</time></trkpt><trkpt lat="43.308359823793396" lon="11.523930811827276"><ele>326.0</ele><time>2026-04-08T12:31:12.999Z</time></trkpt><trkpt lat="43.308451278443584" lon="11.524034154747781"><ele>326.0</ele><time>2026-04-08T12:31:14.999Z</time></trkpt><trkpt lat="43.3085103592862" lon="11.524080947161927"><ele>326.0</ele><time>2026-04-08T12:31:15.999Z</time></trkpt><trkpt lat="43.308581213605045" lon="11.524204218346616"><ele>326.0</ele><time>2026-04-08T12:31:17.999Z</time></trkpt><trkpt lat="43.30862985134125" lon="11.524298382839323"><ele>326.0</ele><time>2026-04-08T12:31:19.999Z</time></trkpt><trkpt lat="43.30868806272447" lon="11.524406012030916"><ele>326.0</ele><time>2026-04-08T12:31:21.999Z</time></trkpt><trkpt lat="43.30873491334831" lon="11.52446446418617"><ele>326.0</ele><time>2026-04-08T12:31:25Z</time></trkpt><trkpt lat="43.3088129541423" lon="11.52450505723586"><ele>326.0</ele><time>2026-04-08T12:31:28Z</time></trkpt><trkpt lat="43.30885802579009" lon="11.52436549178882"><ele>326.0</ele><time>2026-04-08T12:31:29Z</time></trkpt><trkpt lat="43.30888682791655" lon="11.524195772817912"><ele>326.20000000000005</ele><time>2026-04-08T12:31:31Z</time></trkpt><trkpt lat="43.30891793304546" lon="11.524019634634275"><ele>326.40000000000003</ele><time>2026-04-08T12:31:33Z</time></trkpt><trkpt lat="43.30892305947737" lon="11.523928277565169"><ele>326.6</ele><time>2026-04-08T12:31:34Z</time></trkpt><trkpt lat="43.30890961363328" lon="11.523757580965928"><ele>326.8</ele><time>2026-04-08T12:31:36Z</time></trkpt><trkpt lat="43.308893096765" lon="11.523670759466038"><ele>327.0</ele><time>2026-04-08T12:31:37Z</time></trkpt><trkpt lat="43.30888233299184" lon="11.523577015555297"><ele>327.0</ele><time>2026-04-08T12:31:38Z</time></trkpt><trkpt lat="43.3088741495092" lon="11.523474376564886"><ele>327.0</ele><time>2026-04-08T12:31:39Z</time></trkpt><trkpt lat="43.30886840626492" lon="11.523378979770882"><ele>327.0</ele><time>2026-04-08T12:31:40Z</time></trkpt><trkpt lat="43.30888349096766" lon="11.523286078258602"><ele>327.0</ele><time>2026-04-08T12:31:41Z</time></trkpt><trkpt lat="43.308914434752026" lon="11.523198531976394"><ele>327.0</ele><time>2026-04-08T12:31:42Z</time></trkpt><trkpt lat="43.30898768911675" lon="11.523089352410759"><ele>327.0</ele><time>2026-04-08T12:31:43Z</time></trkpt><trkpt lat="43.30906784169863" lon="11.52297674054301"><ele>323.6</ele><time>2026-04-08T12:31:44Z</time></trkpt><trkpt lat="43.30915083722607" lon="11.52289533282815"><ele>320.20000000000005</ele><time>2026-04-08T12:31:45Z</time></trkpt><trkpt lat="43.30923331465283" lon="11.522832127958438"><ele>316.8</ele><time>2026-04-08T12:31:46Z</time></trkpt><trkpt lat="43.309311112393466" lon="11.522765221757423"><ele>313.4</ele><time>2026-04-08T12:31:47Z</time></trkpt><trkpt lat="43.3093913392558" lon="11.522714392771661"><ele>310.0</ele><time>2026-04-08T12:31:48Z</time></trkpt><trkpt lat="43.3094745587712" lon="11.522657133855452"><ele>310.0</ele><time>2026-04-08T12:31:49Z</time></trkpt><trkpt lat="43.30956162764755" lon="11.522592654016103"><ele>310.0</ele><time>2026-04-08T12:31:50Z</time></trkpt><trkpt lat="43.309639813429705" lon="11.522520115389819"><ele>310.0</ele><time>2026-04-08T12:31:51Z</time></trkpt><trkpt lat="43.3097168346105" lon="11.522447878268542"><ele>310.0</ele><time>2026-04-08T12:31:52Z</time></trkpt><trkpt lat="43.309784523779655" lon="11.522347033986218"><ele>310.0</ele><time>2026-04-08T12:31:53Z</time></trkpt><trkpt lat="43.309837271865185" lon="11.522219946931914"><ele>309.4</ele><time>2026-04-08T12:31:54Z</time></trkpt><trkpt lat="43.3098641428632" lon="11.522097401643682"><ele>308.8</ele><time>2026-04-08T12:31:55Z</time></trkpt><trkpt lat="43.30987426057939" lon="11.521980978709488"><ele>308.2</ele><time>2026-04-08T12:31:56Z</time></trkpt><trkpt lat="43.30987549974763" lon="11.521859717518018"><ele>307.6</ele><time>2026-04-08T12:31:57Z</time></trkpt><trkpt lat="43.30986349509414" lon="11.5217145413614"><ele>307.0</ele><time>2026-04-08T12:31:58Z</time></trkpt><trkpt lat="43.309824464120055" lon="11.521558738110855"><ele>306.5</ele><time>2026-04-08T12:31:59Z</time></trkpt><trkpt lat="43.30978083691009" lon="11.521389482351161"><ele>306.0</ele><time>2026-04-08T12:32:00Z</time></trkpt><trkpt lat="43.30973917273862" lon="11.521228784753484"><ele>305.5</ele><time>2026-04-08T12:32:01Z</time></trkpt><trkpt lat="43.30971758320111" lon="11.521077609526207"><ele>305.0</ele><time>2026-04-08T12:32:02Z</time></trkpt><trkpt lat="43.309717652112056" lon="11.520944494339147"><ele>302.75</ele><time>2026-04-08T12:32:03Z</time></trkpt><trkpt lat="43.3097150718762" lon="11.520782340639824"><ele>300.5</ele><time>2026-04-08T12:32:04Z</time></trkpt><trkpt lat="43.309708517675" lon="11.520595140434615"><ele>298.25</ele><time>2026-04-08T12:32:05Z</time></trkpt><trkpt lat="43.30969207566182" lon="11.520418366912898"><ele>296.0</ele><time>2026-04-08T12:32:06Z</time></trkpt><trkpt lat="43.30968042896846" lon="11.520256374315133"><ele>296.0</ele><time>2026-04-08T12:32:07Z</time></trkpt><trkpt lat="43.30965947605045" lon="11.520107379560976"><ele>296.0</ele><time>2026-04-08T12:32:08Z</time></trkpt><trkpt lat="43.309653316019926" lon="11.519963027205229"><ele>296.0</ele><time>2026-04-08T12:32:09Z</time></trkpt><trkpt lat="43.309672231534215" lon="11.519839135438215"><ele>296.0</ele><time>2026-04-08T12:32:10Z</time></trkpt><trkpt lat="43.30970767485099" lon="11.519706047326832"><ele>296.0</ele><time>2026-04-08T12:32:11Z</time></trkpt><trkpt lat="43.30973379677078" lon="11.519535214282094"><ele>296.0</ele><time>2026-04-08T12:32:12Z</time></trkpt><trkpt lat="43.30980230642702" lon="11.519372452287769"><ele>296.0</ele><time>2026-04-08T12:32:13Z</time></trkpt><trkpt lat="43.30986927718044" lon="11.51920355329852"><ele>296.0</ele><time>2026-04-08T12:32:14Z</time></trkpt><trkpt lat="43.30992659512148" lon="11.519060247455176"><ele>296.0</ele><time>2026-04-08T12:32:15Z</time></trkpt><trkpt lat="43.30997067580715" lon="11.518911008894404"><ele>296.0</ele><time>2026-04-08T12:32:16Z</time></trkpt><trkpt lat="43.30997988141754" lon="11.518735326972896"><ele>296.0</ele><time>2026-04-08T12:32:17Z</time></trkpt><trkpt lat="43.309964753480074" lon="11.518557074659011"><ele>296.0</ele><time>2026-04-08T12:32:18Z</time></trkpt><trkpt lat="43.309922921981084" lon="11.518384144800583"><ele>296.0</ele><time>2026-04-08T12:32:19Z</time></trkpt><trkpt lat="43.30986880828041" lon="11.518196833579221"><ele>295.75</ele><time>2026-04-08T12:32:20Z</time></trkpt><trkpt lat="43.30980698105822" lon="11.518018708524185"><ele>295.5</ele><time>2026-04-08T12:32:21Z</time></trkpt><trkpt lat="43.30974130008279" lon="11.51787266213297"><ele>295.25</ele><time>2026-04-08T12:32:22Z</time></trkpt><trkpt lat="43.30965824585021" lon="11.517737377773932"><ele>295.0</ele><time>2026-04-08T12:32:23Z</time></trkpt><trkpt lat="43.309558362888446" lon="11.517597454874199"><ele>293.75</ele><time>2026-04-08T12:32:24Z</time></trkpt><trkpt lat="43.309440823330604" lon="11.517479212549645"><ele>292.5</ele><time>2026-04-08T12:32:25Z</time></trkpt><trkpt lat="43.309344619955496" lon="11.517371769640029"><ele>291.25</ele><time>2026-04-08T12:32:26Z</time></trkpt><trkpt lat="43.30925982231883" lon="11.517267429062779"><ele>290.0</ele><time>2026-04-08T12:32:27Z</time></trkpt><trkpt lat="43.30919857811568" lon="11.51714520639566"><ele>290.8</ele><time>2026-04-08T12:32:28Z</time></trkpt><trkpt lat="43.30917436598929" lon="11.51698939884569"><ele>291.6</ele><time>2026-04-08T12:32:29Z</time></trkpt><trkpt lat="43.30916999841182" lon="11.516850243544935"><ele>292.4</ele><time>2026-04-08T12:32:30Z</time></trkpt><trkpt lat="43.30918330752902" lon="11.516715744585655"><ele>293.2</ele><time>2026-04-08T12:32:31Z</time></trkpt><trkpt lat="43.30922220412734" lon="11.516616981249511"><ele>294.0</ele><time>2026-04-08T12:32:32Z</time></trkpt><trkpt lat="43.3092925418595" lon="11.51654150650226"><ele>294.0</ele><time>2026-04-08T12:32:33Z</time></trkpt><trkpt lat="43.30936902980582" lon="11.516443761294413"><ele>294.0</ele><time>2026-04-08T12:32:34Z</time></trkpt><trkpt lat="43.30948057686327" lon="11.516307614345248"><ele>294.0</ele><time>2026-04-08T12:32:35Z</time></trkpt><trkpt lat="43.30957365034107" lon="11.516189146285058"><ele>294.0</ele><time>2026-04-08T12:32:36Z</time></trkpt><trkpt lat="43.3096648342612" lon="11.516063702373934"><ele>292.75</ele><time>2026-04-08T12:32:37Z</time></trkpt><trkpt lat="43.30975835274773" lon="11.515941203655293"><ele>291.5</ele><time>2026-04-08T12:32:38Z</time></trkpt><trkpt lat="43.309846796673945" lon="11.515832846766942"><ele>290.25</ele><time>2026-04-08T12:32:39Z</time></trkpt><trkpt lat="43.30993827491868" lon="11.515724823997303"><ele>289.0</ele><time>2026-04-08T12:32:40Z</time></trkpt><trkpt lat="43.3100365505478" lon="11.515617157860484"><ele>289.0</ele><time>2026-04-08T12:32:41Z</time></trkpt><trkpt lat="43.31013641058076" lon="11.515518957917752"><ele>289.0</ele><time>2026-04-08T12:32:42Z</time></trkpt><trkpt lat="43.31024009366674" lon="11.515445907458522"><ele>289.0</ele><time>2026-04-08T12:32:43Z</time></trkpt><trkpt lat="43.31036063563015" lon="11.515386968385668"><ele>289.0</ele><time>2026-04-08T12:32:44Z</time></trkpt><trkpt lat="43.31049783580268" lon="11.51533344718735"><ele>287.0</ele><time>2026-04-08T12:32:45Z</time></trkpt><trkpt lat="43.310648153110215" lon="11.515286320101545"><ele>285.0</ele><time>2026-04-08T12:32:46Z</time></trkpt><trkpt lat="43.310796960898195" lon="11.515240603225934"><ele>283.0</ele><time>2026-04-08T12:32:47Z</time></trkpt><trkpt lat="43.31094431503306" lon="11.515198837951273"><ele>283.0</ele><time>2026-04-08T12:32:48Z</time></trkpt><trkpt lat="43.31109418300157" lon="11.515170282863053"><ele>283.0</ele><time>2026-04-08T12:32:49Z</time></trkpt><trkpt lat="43.31125154063704" lon="11.515162453853307"><ele>283.0</ele><time>2026-04-08T12:32:50Z</time></trkpt><trkpt lat="43.311394217301206" lon="11.515170648924418"><ele>284.6</ele><time>2026-04-08T12:32:51Z</time></trkpt><trkpt lat="43.31152040204173" lon="11.51518009634572"><ele>286.20000000000005</ele><time>2026-04-08T12:32:52Z</time></trkpt><trkpt lat="43.31161922288353" lon="11.515182096377481"><ele>287.8</ele><time>2026-04-08T12:32:53Z</time></trkpt><trkpt lat="43.31171488816281" lon="11.515179671013636"><ele>289.40000000000003</ele><time>2026-04-08T12:32:54Z</time></trkpt><trkpt lat="43.31180425920918" lon="11.515181642773817"><ele>291.0</ele><time>2026-04-08T12:32:55Z</time></trkpt><trkpt lat="43.31188457799893" lon="11.515163626710338"><ele>291.0</ele><time>2026-04-08T12:32:56Z</time></trkpt><trkpt lat="43.31195924725251" lon="11.515117913893263"><ele>291.0</ele><time>2026-04-08T12:32:57Z</time></trkpt><trkpt lat="43.312033688317435" lon="11.515046928837517"><ele>291.0</ele><time>2026-04-08T12:32:58Z</time></trkpt><trkpt lat="43.3120960724944" lon="11.514948634673381"><ele>291.0</ele><time>2026-04-08T12:32:59Z</time></trkpt><trkpt lat="43.31215264702005" lon="11.514829022685014"><ele>291.0</ele><time>2026-04-08T12:33:00Z</time></trkpt><trkpt lat="43.312208579174694" lon="11.514699553430745"><ele>292.2</ele><time>2026-04-08T12:33:01Z</time></trkpt><trkpt lat="43.312269094300454" lon="11.514570791594961"><ele>293.40000000000003</ele><time>2026-04-08T12:33:02Z</time></trkpt><trkpt lat="43.312331029424676" lon="11.514448656198416"><ele>294.6</ele><time>2026-04-08T12:33:03Z</time></trkpt><trkpt lat="43.31238857275053" lon="11.5143481044346"><ele>295.8</ele><time>2026-04-08T12:33:04Z</time></trkpt><trkpt lat="43.31243962771843" lon="11.514276964235844"><ele>297.0</ele><time>2026-04-08T12:33:05Z</time></trkpt><trkpt lat="43.31249325388192" lon="11.514221942471178"><ele>297.0</ele><time>2026-04-08T12:33:06Z</time></trkpt><trkpt lat="43.31255007762756" lon="11.514172008254283"><ele>297.0</ele><time>2026-04-08T12:33:07Z</time></trkpt><trkpt lat="43.312612557631425" lon="11.514113621113369"><ele>297.0</ele><time>2026-04-08T12:33:08Z</time></trkpt><trkpt lat="43.3126765451456" lon="11.514054156356918"><ele>297.0</ele><time>2026-04-08T12:33:09Z</time></trkpt><trkpt lat="43.312757309275824" lon="11.513989758391764"><ele>297.0</ele><time>2026-04-08T12:33:10Z</time></trkpt><trkpt lat="43.31284578658815" lon="11.513931773955703"><ele>297.0</ele><time>2026-04-08T12:33:11Z</time></trkpt><trkpt lat="43.312951213994495" lon="11.513883635834414"><ele>297.0</ele><time>2026-04-08T12:33:12Z</time></trkpt><trkpt lat="43.3130662479519" lon="11.513845971622274"><ele>297.0</ele><time>2026-04-08T12:33:13Z</time></trkpt><trkpt lat="43.31318944198131" lon="11.513845384121154"><ele>297.0</ele><time>2026-04-08T12:33:14Z</time></trkpt><trkpt lat="43.31331913630639" lon="11.513881541444167"><ele>297.0</ele><time>2026-04-08T12:33:15Z</time></trkpt><trkpt lat="43.31345975666815" lon="11.513948906756191"><ele>297.6666666666667</ele><time>2026-04-08T12:33:16Z</time></trkpt><trkpt lat="43.313602227318306" lon="11.514049288908177"><ele>298.33333333333337</ele><time>2026-04-08T12:33:17Z</time></trkpt><trkpt lat="43.313757081126695" lon="11.514186783628874"><ele>299.0</ele><time>2026-04-08T12:33:18Z</time></trkpt><trkpt lat="43.313905133732774" lon="11.51434101290368"><ele>299.0</ele><time>2026-04-08T12:33:19Z</time></trkpt><trkpt lat="43.31401369848647" lon="11.514482784623832"><ele>299.0</ele><time>2026-04-08T12:33:20Z</time></trkpt><trkpt lat="43.314084774571235" lon="11.51458550372687"><ele>299.0</ele><time>2026-04-08T12:33:21Z</time></trkpt><trkpt lat="43.31415020365964" lon="11.514656000940445"><ele>299.0</ele><time>2026-04-08T12:33:22Z</time></trkpt><trkpt lat="43.3142316870666" lon="11.51468878939986"><ele>299.0</ele><time>2026-04-08T12:33:22.999Z</time></trkpt><trkpt lat="43.314321283909294" lon="11.51468336059532"><ele>299.0</ele><time>2026-04-08T12:33:23.999Z</time></trkpt><trkpt lat="43.31440742644371" lon="11.514633610203392"><ele>299.0</ele><time>2026-04-08T12:33:24.999Z</time></trkpt><trkpt lat="43.3144954725274" lon="11.514557301854644"><ele>299.0</ele><time>2026-04-08T12:33:25.999Z</time></trkpt><trkpt lat="43.31457335412459" lon="11.514446012598011"><ele>299.0</ele><time>2026-04-08T12:33:26.999Z</time></trkpt><trkpt lat="43.314644300377424" lon="11.514306360953144"><ele>299.0</ele><time>2026-04-08T12:33:27.999Z</time></trkpt><trkpt lat="43.314698648609536" lon="11.514177893147297"><ele>300.0</ele><time>2026-04-08T12:33:29Z</time></trkpt><trkpt lat="43.314752258024704" lon="11.514060159416973"><ele>301.0</ele><time>2026-04-08T12:33:30Z</time></trkpt><trkpt lat="43.314825196187726" lon="11.513963393187659"><ele>302.0</ele><time>2026-04-08T12:33:31Z</time></trkpt><trkpt lat="43.31492525002201" lon="11.513902963160596"><ele>303.0</ele><time>2026-04-08T12:33:32Z</time></trkpt><trkpt lat="43.315040976636354" lon="11.513876605057295"><ele>304.0</ele><time>2026-04-08T12:33:33Z</time></trkpt><trkpt lat="43.31515369236396" lon="11.513885893837733"><ele>304.0</ele><time>2026-04-08T12:33:34Z</time></trkpt><trkpt lat="43.31525070206797" lon="11.513898130435775"><ele>304.0</ele><time>2026-04-08T12:33:35Z</time></trkpt><trkpt lat="43.31534237594919" lon="11.513904409642182"><ele>304.0</ele><time>2026-04-08T12:33:36Z</time></trkpt><trkpt lat="43.315438384076" lon="11.513916542427747"><ele>304.0</ele><time>2026-04-08T12:33:37Z</time></trkpt><trkpt lat="43.315518951809146" lon="11.51397593517325"><ele>304.0</ele><time>2026-04-08T12:33:38Z</time></trkpt><trkpt lat="43.31556228179953" lon="11.514076231223331"><ele>304.0</ele><time>2026-04-08T12:33:39Z</time></trkpt><trkpt lat="43.31555433572341" lon="11.514202438412909"><ele>304.0</ele><time>2026-04-08T12:33:40Z</time></trkpt><trkpt lat="43.315581680098646" lon="11.51435289655171"><ele>304.0</ele><time>2026-04-08T12:33:41Z</time></trkpt><trkpt lat="43.31558616610817" lon="11.514512081199324"><ele>304.0</ele><time>2026-04-08T12:33:42Z</time></trkpt><trkpt lat="43.31560037345436" lon="11.514665537742502"><ele>304.0</ele><time>2026-04-08T12:33:43Z</time></trkpt><trkpt lat="43.315629579461" lon="11.514823037193437"><ele>302.75</ele><time>2026-04-08T12:33:44Z</time></trkpt><trkpt lat="43.31569214561803" lon="11.514975181557114"><ele>301.5</ele><time>2026-04-08T12:33:45Z</time></trkpt><trkpt lat="43.31578165098415" lon="11.515107710304491"><ele>300.25</ele><time>2026-04-08T12:33:46Z</time></trkpt><trkpt lat="43.315867653655076" lon="11.515208266453522"><ele>299.0</ele><time>2026-04-08T12:33:47Z</time></trkpt><trkpt lat="43.31596510731457" lon="11.515277917266816"><ele>299.0</ele><time>2026-04-08T12:33:48Z</time></trkpt><trkpt lat="43.31607742115029" lon="11.515311509131182"><ele>299.0</ele><time>2026-04-08T12:33:49Z</time></trkpt><trkpt lat="43.316210194748294" lon="11.515315258345222"><ele>299.0</ele><time>2026-04-08T12:33:50Z</time></trkpt><trkpt lat="43.31634618417366" lon="11.515278037145702"><ele>299.0</ele><time>2026-04-08T12:33:51Z</time></trkpt><trkpt lat="43.31647506227854" lon="11.515225276422123"><ele>299.25</ele><time>2026-04-08T12:33:52Z</time></trkpt><trkpt lat="43.31660498596937" lon="11.515174582552577"><ele>299.5</ele><time>2026-04-08T12:33:53Z</time></trkpt><trkpt lat="43.31674159089319" lon="11.51511410519106"><ele>299.75</ele><time>2026-04-08T12:33:54Z</time></trkpt><trkpt lat="43.31688444018068" lon="11.515048632403293"><ele>300.0</ele><time>2026-04-08T12:33:55Z</time></trkpt><trkpt lat="43.31700935942448" lon="11.514990223499492"><ele>300.0</ele><time>2026-04-08T12:33:56Z</time></trkpt><trkpt lat="43.31712588127352" lon="11.514942018875116"><ele>300.0</ele><time>2026-04-08T12:33:57Z</time></trkpt><trkpt lat="43.31723290807945" lon="11.514896795855396"><ele>300.0</ele><time>2026-04-08T12:33:58Z</time></trkpt><trkpt lat="43.31732469613785" lon="11.514852803386619"><ele>300.0</ele><time>2026-04-08T12:33:59Z</time></trkpt><trkpt lat="43.31741078997317" lon="11.514800117049933"><ele>300.0</ele><time>2026-04-08T12:34:00Z</time></trkpt><trkpt lat="43.31747757433783" lon="11.514727740600167"><ele>300.25</ele><time>2026-04-08T12:34:01Z</time></trkpt><trkpt lat="43.317531473385756" lon="11.51462895548988"><ele>300.5</ele><time>2026-04-08T12:34:02Z</time></trkpt><trkpt lat="43.31758368823202" lon="11.514495839030111"><ele>300.75</ele><time>2026-04-08T12:34:03Z</time></trkpt><trkpt lat="43.31763268996705" lon="11.514332615708009"><ele>301.0</ele><time>2026-04-08T12:34:04Z</time></trkpt><trkpt lat="43.31768149883948" lon="11.514154643773438"><ele>301.0</ele><time>2026-04-08T12:34:05Z</time></trkpt><trkpt lat="43.31772208959793" lon="11.513977327325593"><ele>301.0</ele><time>2026-04-08T12:34:06Z</time></trkpt><trkpt lat="43.317755198950614" lon="11.513806207209736"><ele>301.0</ele><time>2026-04-08T12:34:07Z</time></trkpt><trkpt lat="43.3177983560173" lon="11.51365989753038"><ele>301.0</ele><time>2026-04-08T12:34:08Z</time></trkpt><trkpt lat="43.31788467630866" lon="11.513534026662105"><ele>300.25</ele><time>2026-04-08T12:34:09Z</time></trkpt><trkpt lat="43.317984466642436" lon="11.513452064485104"><ele>299.5</ele><time>2026-04-08T12:34:10Z</time></trkpt><trkpt lat="43.31809334460334" lon="11.51340834089099"><ele>298.75</ele><time>2026-04-08T12:34:11Z</time></trkpt><trkpt lat="43.31822552889264" lon="11.513388897350376"><ele>298.0</ele><time>2026-04-08T12:34:12Z</time></trkpt><trkpt lat="43.318350066311815" lon="11.51339330058266"><ele>298.0</ele><time>2026-04-08T12:34:13Z</time></trkpt><trkpt lat="43.318465993960885" lon="11.513419421988116"><ele>298.0</ele><time>2026-04-08T12:34:14Z</time></trkpt><trkpt lat="43.31856732027067" lon="11.513472112443509"><ele>298.0</ele><time>2026-04-08T12:34:15Z</time></trkpt><trkpt lat="43.31865424066292" lon="11.51355635054679"><ele>298.0</ele><time>2026-04-08T12:34:16Z</time></trkpt><trkpt lat="43.31871659444796" lon="11.513670415747265"><ele>298.0</ele><time>2026-04-08T12:34:17Z</time></trkpt><trkpt lat="43.31874276707776" lon="11.513819098015295"><ele>298.4</ele><time>2026-04-08T12:34:18Z</time></trkpt><trkpt lat="43.318742473377526" lon="11.513949815461528"><ele>298.8</ele><time>2026-04-08T12:34:19Z</time></trkpt><trkpt lat="43.3187584051735" lon="11.514081068021444"><ele>299.2</ele><time>2026-04-08T12:34:20Z</time></trkpt><trkpt lat="43.318722625043435" lon="11.514212260490062"><ele>299.6</ele><time>2026-04-08T12:34:21Z</time></trkpt><trkpt lat="43.31866713216523" lon="11.514336572605831"><ele>300.0</ele><time>2026-04-08T12:34:22Z</time></trkpt><trkpt lat="43.31858088202662" lon="11.514422145328618"><ele>300.0</ele><time>2026-04-08T12:34:23Z</time></trkpt><trkpt lat="43.31850571601009" lon="11.514506496494821"><ele>300.0</ele><time>2026-04-08T12:34:24Z</time></trkpt><trkpt lat="43.31844481352906" lon="11.514603321974551"><ele>300.0</ele><time>2026-04-08T12:34:25Z</time></trkpt><trkpt lat="43.318381057594465" lon="11.514678944500854"><ele>300.0</ele><time>2026-04-08T12:34:26Z</time></trkpt><trkpt lat="43.31833673293441" lon="11.514767653936435"><ele>300.0</ele><time>2026-04-08T12:34:27Z</time></trkpt><trkpt lat="43.318324583932615" lon="11.514862752341198"><ele>300.0</ele><time>2026-04-08T12:34:28Z</time></trkpt><trkpt lat="43.318340233854535" lon="11.514950916980418"><ele>299.71428571428567</ele><time>2026-04-08T12:34:29Z</time></trkpt><trkpt lat="43.31838746607749" lon="11.51501522211048"><ele>299.42857142857144</ele><time>2026-04-08T12:34:30Z</time></trkpt><trkpt lat="43.31845216188927" lon="11.515041078569222"><ele>299.1428571428571</ele><time>2026-04-08T12:34:31Z</time></trkpt><trkpt lat="43.31851835325954" lon="11.515013125090183"><ele>298.85714285714283</ele><time>2026-04-08T12:34:32Z</time></trkpt><trkpt lat="43.31856505086818" lon="11.514951709551248"><ele>298.57142857142856</ele><time>2026-04-08T12:34:33Z</time></trkpt><trkpt lat="43.31859967770643" lon="11.514877610351355"><ele>298.2857142857143</ele><time>2026-04-08T12:34:34Z</time></trkpt><trkpt lat="43.318654513143485" lon="11.514788727336375"><ele>298.0</ele><time>2026-04-08T12:34:35Z</time></trkpt><trkpt lat="43.31872568942134" lon="11.514680656627636"><ele>298.4</ele><time>2026-04-08T12:34:36Z</time></trkpt><trkpt lat="43.318793288432225" lon="11.514567569950566"><ele>298.8</ele><time>2026-04-08T12:34:37Z</time></trkpt><trkpt lat="43.31886346659573" lon="11.51445928259678"><ele>299.2</ele><time>2026-04-08T12:34:38Z</time></trkpt><trkpt lat="43.318923329662255" lon="11.514365049955318"><ele>299.6</ele><time>2026-04-08T12:34:39Z</time></trkpt><trkpt lat="43.31897260217632" lon="11.51426258671501"><ele>300.0</ele><time>2026-04-08T12:34:40Z</time></trkpt><trkpt lat="43.31900518360636" lon="11.514133450058742"><ele>298.25</ele><time>2026-04-08T12:34:41Z</time></trkpt><trkpt lat="43.31901446405441" lon="11.513980419581667"><ele>296.5</ele><time>2026-04-08T12:34:42Z</time></trkpt><trkpt lat="43.31900934943781" lon="11.513804017975481"><ele>294.75</ele><time>2026-04-08T12:34:43Z</time></trkpt><trkpt lat="43.3189993820821" lon="11.513636304667882"><ele>293.0</ele><time>2026-04-08T12:34:44Z</time></trkpt><trkpt lat="43.31900292924321" lon="11.513493440795813"><ele>292.4</ele><time>2026-04-08T12:34:45Z</time></trkpt><trkpt lat="43.31902574383005" lon="11.513348805859708"><ele>291.8</ele><time>2026-04-08T12:34:46Z</time></trkpt><trkpt lat="43.31907496343068" lon="11.513211906010111"><ele>291.2</ele><time>2026-04-08T12:34:47Z</time></trkpt><trkpt lat="43.31913899548311" lon="11.513088723412"><ele>290.6</ele><time>2026-04-08T12:34:48Z</time></trkpt><trkpt lat="43.31919768497212" lon="11.512961287666108"><ele>290.0</ele><time>2026-04-08T12:34:49Z</time></trkpt><trkpt lat="43.31924043539559" lon="11.512827293345898"><ele>287.75</ele><time>2026-04-08T12:34:50Z</time></trkpt><trkpt lat="43.3192644018114" lon="11.512667268521971"><ele>285.5</ele><time>2026-04-08T12:34:51Z</time></trkpt><trkpt lat="43.319271110813204" lon="11.512476242575264"><ele>283.25</ele><time>2026-04-08T12:34:52Z</time></trkpt><trkpt lat="43.31926837421693" lon="11.512270369982375"><ele>281.0</ele><time>2026-04-08T12:34:53Z</time></trkpt><trkpt lat="43.31925531149451" lon="11.51208377336433"><ele>279.0</ele><time>2026-04-08T12:34:54Z</time></trkpt><trkpt lat="43.31923618765806" lon="11.511906302268647"><ele>277.0</ele><time>2026-04-08T12:34:55Z</time></trkpt><trkpt lat="43.31921508400339" lon="11.511738922527286"><ele>275.0</ele><time>2026-04-08T12:34:56Z</time></trkpt><trkpt lat="43.31919268159664" lon="11.511569938802703"><ele>273.0</ele><time>2026-04-08T12:34:57Z</time></trkpt><trkpt lat="43.31916537693734" lon="11.511406571910326"><ele>273.0</ele><time>2026-04-08T12:34:58Z</time></trkpt><trkpt lat="43.319141930648435" lon="11.511243059390008"><ele>273.0</ele><time>2026-04-08T12:34:59Z</time></trkpt><trkpt lat="43.31913501467895" lon="11.511076431909114"><ele>273.0</ele><time>2026-04-08T12:35:00Z</time></trkpt><trkpt lat="43.31914293276713" lon="11.510899657906847"><ele>273.0</ele><time>2026-04-08T12:35:01Z</time></trkpt><trkpt lat="43.319170802314154" lon="11.510731576012791"><ele>270.75</ele><time>2026-04-08T12:35:02Z</time></trkpt><trkpt lat="43.31921947844778" lon="11.510574474980332"><ele>268.5</ele><time>2026-04-08T12:35:03Z</time></trkpt><trkpt lat="43.319290584917304" lon="11.510430645146178"><ele>266.25</ele><time>2026-04-08T12:35:04Z</time></trkpt><trkpt lat="43.31938006767554" lon="11.51028058216907"><ele>264.0</ele><time>2026-04-08T12:35:05Z</time></trkpt><trkpt lat="43.31946537572069" lon="11.510146911154903"><ele>261.5</ele><time>2026-04-08T12:35:06Z</time></trkpt><trkpt lat="43.31954868273166" lon="11.510008952477346"><ele>259.0</ele><time>2026-04-08T12:35:07Z</time></trkpt><trkpt lat="43.319624637081944" lon="11.509874089652426"><ele>256.5</ele><time>2026-04-08T12:35:08Z</time></trkpt><trkpt lat="43.319694941968116" lon="11.509738208157387"><ele>254.0</ele><time>2026-04-08T12:35:09Z</time></trkpt><trkpt lat="43.3197500252561" lon="11.509597548717666"><ele>252.25</ele><time>2026-04-08T12:35:10Z</time></trkpt><trkpt lat="43.319792276396406" lon="11.509445107428864"><ele>250.5</ele><time>2026-04-08T12:35:11Z</time></trkpt><trkpt lat="43.3198224935127" lon="11.509284229633671"><ele>248.75</ele><time>2026-04-08T12:35:12Z</time></trkpt><trkpt lat="43.319844251705845" lon="11.50912645049352"><ele>247.0</ele><time>2026-04-08T12:35:13Z</time></trkpt><trkpt lat="43.31986464834262" lon="11.508970144404177"><ele>247.0</ele><time>2026-04-08T12:35:14Z</time></trkpt><trkpt lat="43.31987823876225" lon="11.508806672675883"><ele>247.0</ele><time>2026-04-08T12:35:15Z</time></trkpt><trkpt lat="43.31989386175395" lon="11.50863164488855"><ele>247.0</ele><time>2026-04-08T12:35:16Z</time></trkpt><trkpt lat="43.319889849442156" lon="11.508524887636836"><ele>247.0</ele><time>2026-04-08T12:35:17Z</time></trkpt><trkpt lat="43.31987837066417" lon="11.508378955515397"><ele>247.0</ele><time>2026-04-08T12:35:18Z</time></trkpt><trkpt lat="43.319858840557444" lon="11.508242466542008"><ele>247.0</ele><time>2026-04-08T12:35:19Z</time></trkpt><trkpt lat="43.31984374326323" lon="11.508122541017629"><ele>247.0</ele><time>2026-04-08T12:35:20Z</time></trkpt><trkpt lat="43.31983144456792" lon="11.507992023861638"><ele>247.0</ele><time>2026-04-08T12:35:21Z</time></trkpt><trkpt lat="43.319818556798005" lon="11.50785150584697"><ele>247.0</ele><time>2026-04-08T12:35:22Z</time></trkpt><trkpt lat="43.31980261952158" lon="11.507690152824594"><ele>247.0</ele><time>2026-04-08T12:35:23Z</time></trkpt><trkpt lat="43.31977894478821" lon="11.507496841566365"><ele>246.33333333333331</ele><time>2026-04-08T12:35:24Z</time></trkpt><trkpt lat="43.319754881544014" lon="11.507305552974943"><ele>245.66666666666669</ele><time>2026-04-08T12:35:24.999Z</time></trkpt><trkpt lat="43.31973810839103" lon="11.507097734275773"><ele>245.0</ele><time>2026-04-08T12:35:25.999Z</time></trkpt><trkpt lat="43.31971175862519" lon="11.50688392375078"><ele>248.25</ele><time>2026-04-08T12:35:26.999Z</time></trkpt><trkpt lat="43.319695584196424" lon="11.506682831677926"><ele>251.5</ele><time>2026-04-08T12:35:27.999Z</time></trkpt><trkpt lat="43.319680948953305" lon="11.506518042862112"><ele>254.75</ele><time>2026-04-08T12:35:28.999Z</time></trkpt><trkpt lat="43.31967400142224" lon="11.506366930698732"><ele>258.0</ele><time>2026-04-08T12:35:29.999Z</time></trkpt><trkpt lat="43.31970183022523" lon="11.506237059726823"><ele>255.2</ele><time>2026-04-08T12:35:30.999Z</time></trkpt><trkpt lat="43.31975339364599" lon="11.50613930166937"><ele>252.4</ele><time>2026-04-08T12:35:31.999Z</time></trkpt><trkpt lat="43.31982242035609" lon="11.506058434931484"><ele>249.59999999999997</ele><time>2026-04-08T12:35:32.999Z</time></trkpt><trkpt lat="43.319928502776605" lon="11.506049185844697"><ele>246.79999999999998</ele><time>2026-04-08T12:35:33.999Z</time></trkpt><trkpt lat="43.32004067453661" lon="11.506007471381556"><ele>244.0</ele><time>2026-04-08T12:35:35Z</time></trkpt><trkpt lat="43.320173540057645" lon="11.505944274276754"><ele>244.0</ele><time>2026-04-08T12:35:36Z</time></trkpt><trkpt lat="43.32033668085595" lon="11.505885807337407"><ele>244.0</ele><time>2026-04-08T12:35:37Z</time></trkpt><trkpt lat="43.32048870100818" lon="11.505829822561505"><ele>244.0</ele><time>2026-04-08T12:35:38Z</time></trkpt><trkpt lat="43.32063526919321" lon="11.505777871997413"><ele>244.75</ele><time>2026-04-08T12:35:39Z</time></trkpt><trkpt lat="43.320748895240186" lon="11.505744249321378"><ele>245.5</ele><time>2026-04-08T12:35:40Z</time></trkpt><trkpt lat="43.32087166705808" lon="11.505698384385644"><ele>246.25</ele><time>2026-04-08T12:35:41Z</time></trkpt><trkpt lat="43.32100073181384" lon="11.505675080036227"><ele>247.0</ele><time>2026-04-08T12:35:42Z</time></trkpt><trkpt lat="43.321139501172055" lon="11.505687178496618"><ele>247.0</ele><time>2026-04-08T12:35:43Z</time></trkpt><trkpt lat="43.32128130671357" lon="11.50573937457798"><ele>247.0</ele><time>2026-04-08T12:35:44Z</time></trkpt><trkpt lat="43.32141341405741" lon="11.505824817770169"><ele>247.0</ele><time>2026-04-08T12:35:45Z</time></trkpt><trkpt lat="43.32150727777318" lon="11.505961433206528"><ele>247.0</ele><time>2026-04-08T12:35:46Z</time></trkpt><trkpt lat="43.321609049514606" lon="11.506115271590042"><ele>249.66666666666666</ele><time>2026-04-08T12:35:47Z</time></trkpt><trkpt lat="43.32172741280912" lon="11.506257761746626"><ele>252.33333333333331</ele><time>2026-04-08T12:35:48Z</time></trkpt><trkpt lat="43.32184720830407" lon="11.506433875606294"><ele>255.0</ele><time>2026-04-08T12:35:49Z</time></trkpt><trkpt lat="43.32196235738316" lon="11.506600853083734"><ele>255.0</ele><time>2026-04-08T12:35:50Z</time></trkpt><trkpt lat="43.322077425633616" lon="11.5067625832396"><ele>255.0</ele><time>2026-04-08T12:35:51Z</time></trkpt><trkpt lat="43.32220502536024" lon="11.506947001635135"><ele>255.0</ele><time>2026-04-08T12:35:52Z</time></trkpt><trkpt lat="43.32230598673755" lon="11.507106053116361"><ele>258.5</ele><time>2026-04-08T12:35:53Z</time></trkpt><trkpt lat="43.32239988338093" lon="11.507250550051095"><ele>262.0</ele><time>2026-04-08T12:35:54Z</time></trkpt><trkpt lat="43.32249318204667" lon="11.507372989244598"><ele>265.5</ele><time>2026-04-08T12:35:55Z</time></trkpt><trkpt lat="43.32257999951253" lon="11.507496064419197"><ele>269.0</ele><time>2026-04-08T12:35:56Z</time></trkpt><trkpt lat="43.32267067769691" lon="11.507591945930919"><ele>269.0</ele><time>2026-04-08T12:35:57Z</time></trkpt><trkpt lat="43.322797390318" lon="11.50764889271334"><ele>269.0</ele><time>2026-04-08T12:35:58Z</time></trkpt><trkpt lat="43.322940320216865" lon="11.507682937098798"><ele>269.0</ele><time>2026-04-08T12:35:59Z</time></trkpt><trkpt lat="43.32309154005534" lon="11.507691434900591"><ele>269.0</ele><time>2026-04-08T12:36:00Z</time></trkpt><trkpt lat="43.32324885915454" lon="11.50768158690817"><ele>271.0</ele><time>2026-04-08T12:36:01Z</time></trkpt><trkpt lat="43.32341297594589" lon="11.5076735688656"><ele>273.0</ele><time>2026-04-08T12:36:02Z</time></trkpt><trkpt lat="43.32359409998108" lon="11.5076773492104"><ele>275.0</ele><time>2026-04-08T12:36:03Z</time></trkpt><trkpt lat="43.32375689292717" lon="11.507729817494846"><ele>275.0</ele><time>2026-04-08T12:36:04Z</time></trkpt><trkpt lat="43.32388460677623" lon="11.50781260746103"><ele>275.0</ele><time>2026-04-08T12:36:05Z</time></trkpt><trkpt lat="43.32398198756409" lon="11.507905047376322"><ele>275.0</ele><time>2026-04-08T12:36:06Z</time></trkpt><trkpt lat="43.32405941379448" lon="11.508027256244864"><ele>275.0</ele><time>2026-04-08T12:36:07Z</time></trkpt><trkpt lat="43.32412300409984" lon="11.508205834855755"><ele>278.0</ele><time>2026-04-08T12:36:08Z</time></trkpt><trkpt lat="43.324198860741085" lon="11.50838362276184"><ele>281.0</ele><time>2026-04-08T12:36:09Z</time></trkpt><trkpt lat="43.324289930077036" lon="11.508579231387635"><ele>284.0</ele><time>2026-04-08T12:36:10Z</time></trkpt><trkpt lat="43.32437693714179" lon="11.50879507880449"><ele>286.0</ele><time>2026-04-08T12:36:11Z</time></trkpt><trkpt lat="43.32444974733183" lon="11.50897536205263"><ele>288.0</ele><time>2026-04-08T12:36:12Z</time></trkpt><trkpt lat="43.3245140915102" lon="11.509135674960035"><ele>290.0</ele><time>2026-04-08T12:36:13Z</time></trkpt><trkpt lat="43.324584286750344" lon="11.509268289592486"><ele>292.0</ele><time>2026-04-08T12:36:14Z</time></trkpt><trkpt lat="43.324675137623515" lon="11.509385356891789"><ele>291.25</ele><time>2026-04-08T12:36:15Z</time></trkpt><trkpt lat="43.324779524420016" lon="11.509464033908326"><ele>290.5</ele><time>2026-04-08T12:36:16Z</time></trkpt><trkpt lat="43.32488465657998" lon="11.509521879074757"><ele>289.75</ele><time>2026-04-08T12:36:17Z</time></trkpt><trkpt lat="43.32500132292228" lon="11.509548082395032"><ele>289.0</ele><time>2026-04-08T12:36:18Z</time></trkpt><trkpt lat="43.32512251160281" lon="11.509531346856534"><ele>289.0</ele><time>2026-04-08T12:36:19Z</time></trkpt><trkpt lat="43.32526038751142" lon="11.509484130584715"><ele>289.0</ele><time>2026-04-08T12:36:20Z</time></trkpt><trkpt lat="43.325401210895414" lon="11.509416424863852"><ele>289.0</ele><time>2026-04-08T12:36:21Z</time></trkpt><trkpt lat="43.32555277733293" lon="11.50934386789335"><ele>289.3333333333333</ele><time>2026-04-08T12:36:22Z</time></trkpt><trkpt lat="43.325719347969276" lon="11.509272877657944"><ele>289.6666666666667</ele><time>2026-04-08T12:36:23Z</time></trkpt><trkpt lat="43.32587545239192" lon="11.509207089681997"><ele>290.0</ele><time>2026-04-08T12:36:24Z</time></trkpt><trkpt lat="43.32602773414137" lon="11.50914112828532"><ele>290.0</ele><time>2026-04-08T12:36:25Z</time></trkpt><trkpt lat="43.326182304843876" lon="11.509067914982495"><ele>290.0</ele><time>2026-04-08T12:36:26Z</time></trkpt><trkpt lat="43.32634168180126" lon="11.508994176774335"><ele>290.0</ele><time>2026-04-08T12:36:27Z</time></trkpt><trkpt lat="43.326506721885806" lon="11.508907501583746"><ele>291.0</ele><time>2026-04-08T12:36:28Z</time></trkpt><trkpt lat="43.326668310899784" lon="11.50882234538346"><ele>292.0</ele><time>2026-04-08T12:36:29Z</time></trkpt><trkpt lat="43.326831604079814" lon="11.50872442421127"><ele>293.0</ele><time>2026-04-08T12:36:30Z</time></trkpt><trkpt lat="43.32699785996145" lon="11.508625520582683"><ele>293.6666666666667</ele><time>2026-04-08T12:36:31Z</time></trkpt><trkpt lat="43.32715737024829" lon="11.508527178724329"><ele>294.3333333333333</ele><time>2026-04-08T12:36:32Z</time></trkpt><trkpt lat="43.32732458557908" lon="11.508416388577224"><ele>295.0</ele><time>2026-04-08T12:36:33Z</time></trkpt><trkpt lat="43.32746708808211" lon="11.508321506266267"><ele>296.3333333333333</ele><time>2026-04-08T12:36:34Z</time></trkpt><trkpt lat="43.327604873859634" lon="11.508230559981742"><ele>297.6666666666667</ele><time>2026-04-08T12:36:35Z</time></trkpt><trkpt lat="43.32775172379008" lon="11.50813755127067"><ele>299.0</ele><time>2026-04-08T12:36:36Z</time></trkpt><trkpt lat="43.32789467616839" lon="11.508050258329202"><ele>299.0</ele><time>2026-04-08T12:36:37Z</time></trkpt><trkpt lat="43.32804521963451" lon="11.507955216363337"><ele>299.0</ele><time>2026-04-08T12:36:38Z</time></trkpt><trkpt lat="43.32819986287966" lon="11.50785019682281"><ele>299.0</ele><time>2026-04-08T12:36:39Z</time></trkpt><trkpt lat="43.32836183265816" lon="11.507748369367267"><ele>300.33333333333337</ele><time>2026-04-08T12:36:40Z</time></trkpt><trkpt lat="43.32850258780143" lon="11.50765671976023"><ele>301.6666666666667</ele><time>2026-04-08T12:36:41Z</time></trkpt><trkpt lat="43.32863805642862" lon="11.507575017836306"><ele>303.0</ele><time>2026-04-08T12:36:42Z</time></trkpt><trkpt lat="43.32879359409324" lon="11.50747767033845"><ele>304.3333333333333</ele><time>2026-04-08T12:36:43Z</time></trkpt><trkpt lat="43.3289511956847" lon="11.507378877715434"><ele>305.66666666666663</ele><time>2026-04-08T12:36:44Z</time></trkpt><trkpt lat="43.329118537888725" lon="11.50728759685071"><ele>307.0</ele><time>2026-04-08T12:36:45Z</time></trkpt><trkpt lat="43.32929981121226" lon="11.50722168305822"><ele>307.0</ele><time>2026-04-08T12:36:46Z</time></trkpt><trkpt lat="43.329490481780276" lon="11.507170015069784"><ele>307.0</ele><time>2026-04-08T12:36:47Z</time></trkpt><trkpt lat="43.329682039156225" lon="11.507131639248609"><ele>307.0</ele><time>2026-04-08T12:36:48Z</time></trkpt><trkpt lat="43.32985098593644" lon="11.507104776395398"><ele>307.0</ele><time>2026-04-08T12:36:49Z</time></trkpt><trkpt lat="43.33001426699279" lon="11.507075134466453"><ele>307.0</ele><time>2026-04-08T12:36:50Z</time></trkpt><trkpt lat="43.33018295000483" lon="11.507038966302083"><ele>307.0</ele><time>2026-04-08T12:36:51Z</time></trkpt><trkpt lat="43.33034736010752" lon="11.507010992659417"><ele>307.0</ele><time>2026-04-08T12:36:52Z</time></trkpt><trkpt lat="43.33051106460128" lon="11.50697746339184"><ele>307.0</ele><time>2026-04-08T12:36:53Z</time></trkpt><trkpt lat="43.330662270324886" lon="11.506948981469197"><ele>307.0</ele><time>2026-04-08T12:36:54Z</time></trkpt><trkpt lat="43.330816072334024" lon="11.506918187712092"><ele>308.0</ele><time>2026-04-08T12:36:55Z</time></trkpt><trkpt lat="43.3309717206021" lon="11.506892651903739"><ele>309.0</ele><time>2026-04-08T12:36:56Z</time></trkpt><trkpt lat="43.331114307059735" lon="11.506859951041388"><ele>310.0</ele><time>2026-04-08T12:36:57Z</time></trkpt><trkpt lat="43.33125560660633" lon="11.506810891329327"><ele>311.0</ele><time>2026-04-08T12:36:58Z</time></trkpt><trkpt lat="43.33139790530574" lon="11.506744915319832"><ele>312.0</ele><time>2026-04-08T12:36:59Z</time></trkpt><trkpt lat="43.33153651105982" lon="11.50665788589254"><ele>313.0</ele><time>2026-04-08T12:37:00Z</time></trkpt><trkpt lat="43.331679503367376" lon="11.506563845903615"><ele>314.0</ele><time>2026-04-08T12:37:01Z</time></trkpt><trkpt lat="43.33182579695444" lon="11.506471723164504"><ele>314.0</ele><time>2026-04-08T12:37:02Z</time></trkpt><trkpt lat="43.33197950859862" lon="11.506368271217074"><ele>314.0</ele><time>2026-04-08T12:37:03Z</time></trkpt><trkpt lat="43.33212408431446" lon="11.50627082946985"><ele>314.0</ele><time>2026-04-08T12:37:04Z</time></trkpt><trkpt lat="43.33227500863567" lon="11.506171068706086"><ele>314.6666666666667</ele><time>2026-04-08T12:37:05Z</time></trkpt><trkpt lat="43.33241270347942" lon="11.50608340994418"><ele>315.3333333333333</ele><time>2026-04-08T12:37:06Z</time></trkpt><trkpt lat="43.33255637807847" lon="11.505995426798185"><ele>316.0</ele><time>2026-04-08T12:37:07Z</time></trkpt><trkpt lat="43.33271110209305" lon="11.50592192016349"><ele>316.0</ele><time>2026-04-08T12:37:08Z</time></trkpt><trkpt lat="43.332870915493835" lon="11.505874317156946"><ele>316.0</ele><time>2026-04-08T12:37:09Z</time></trkpt><trkpt lat="43.33303512872999" lon="11.505835815263502"><ele>316.0</ele><time>2026-04-08T12:37:10Z</time></trkpt><trkpt lat="43.33317893976062" lon="11.505798479292583"><ele>316.0</ele><time>2026-04-08T12:37:11Z</time></trkpt><trkpt lat="43.33333679079385" lon="11.505761259025297"><ele>316.0</ele><time>2026-04-08T12:37:12Z</time></trkpt><trkpt lat="43.33349922245548" lon="11.505727176702669"><ele>316.0</ele><time>2026-04-08T12:37:13Z</time></trkpt><trkpt lat="43.33366844102762" lon="11.505689831019195"><ele>316.0</ele><time>2026-04-08T12:37:14Z</time></trkpt><trkpt lat="43.333837476805044" lon="11.505657837792766"><ele>316.0</ele><time>2026-04-08T12:37:15Z</time></trkpt><trkpt lat="43.33401160171289" lon="11.505622209254515"><ele>316.0</ele><time>2026-04-08T12:37:16Z</time></trkpt><trkpt lat="43.33417849088993" lon="11.50559882200375"><ele>315.66666666666663</ele><time>2026-04-08T12:37:17Z</time></trkpt><trkpt lat="43.33433152418633" lon="11.50556462791604"><ele>315.3333333333333</ele><time>2026-04-08T12:37:17.999Z</time></trkpt><trkpt lat="43.334483255825994" lon="11.505529879409094"><ele>315.0</ele><time>2026-04-08T12:37:18.999Z</time></trkpt><trkpt lat="43.33464106700111" lon="11.505502756985935"><ele>314.6666666666667</ele><time>2026-04-08T12:37:19.999Z</time></trkpt><trkpt lat="43.33480642942575" lon="11.505467158537588"><ele>314.33333333333337</ele><time>2026-04-08T12:37:20.999Z</time></trkpt><trkpt lat="43.3349686371682" lon="11.505432648621689"><ele>314.0</ele><time>2026-04-08T12:37:21.999Z</time></trkpt><trkpt lat="43.33513420011707" lon="11.505398287022292"><ele>315.33333333333337</ele><time>2026-04-08T12:37:22.999Z</time></trkpt><trkpt lat="43.33530445185486" lon="11.505364215588463"><ele>316.6666666666667</ele><time>2026-04-08T12:37:23.999Z</time></trkpt><trkpt lat="43.33547714487279" lon="11.505329229627618"><ele>318.0</ele><time>2026-04-08T12:37:24.999Z</time></trkpt><trkpt lat="43.33564791002152" lon="11.505296910089482"><ele>318.0</ele><time>2026-04-08T12:37:25.999Z</time></trkpt><trkpt lat="43.33582546507659" lon="11.505266126261011"><ele>318.0</ele><time>2026-04-08T12:37:26.999Z</time></trkpt><trkpt lat="43.3360093021734" lon="11.505227953709134"><ele>318.0</ele><time>2026-04-08T12:37:27.999Z</time></trkpt><trkpt lat="43.336178315456785" lon="11.505193718957099"><ele>318.0</ele><time>2026-04-08T12:37:28.999Z</time></trkpt><trkpt lat="43.33634397242445" lon="11.505157924301544"><ele>318.0</ele><time>2026-04-08T12:37:29.999Z</time></trkpt><trkpt lat="43.33650856824421" lon="11.505124709287282"><ele>318.0</ele><time>2026-04-08T12:37:30.999Z</time></trkpt><trkpt lat="43.33667119308154" lon="11.505094363208666"><ele>320.0</ele><time>2026-04-08T12:37:31.999Z</time></trkpt><trkpt lat="43.33682430151641" lon="11.505090613394229"><ele>322.0</ele><time>2026-04-08T12:37:32.999Z</time></trkpt><trkpt lat="43.33698223395517" lon="11.505103436872526"><ele>324.0</ele><time>2026-04-08T12:37:33.999Z</time></trkpt><trkpt lat="43.337149737685905" lon="11.505143649555581"><ele>324.3333333333333</ele><time>2026-04-08T12:37:34.999Z</time></trkpt><trkpt lat="43.33730558561293" lon="11.505205822267593"><ele>324.66666666666663</ele><time>2026-04-08T12:37:35.999Z</time></trkpt><trkpt lat="43.33746958710456" lon="11.505292784474362"><ele>325.0</ele><time>2026-04-08T12:37:36.999Z</time></trkpt><trkpt lat="43.337634529565584" lon="11.50539135442146"><ele>326.3333333333333</ele><time>2026-04-08T12:37:37.999Z</time></trkpt><trkpt lat="43.337785180705175" lon="11.505500651880782"><ele>327.6666666666667</ele><time>2026-04-08T12:37:38.999Z</time></trkpt><trkpt lat="43.337926124127456" lon="11.50559513504635"><ele>329.0</ele><time>2026-04-08T12:37:39.999Z</time></trkpt><trkpt lat="43.338057736694424" lon="11.505674907954326"><ele>330.0</ele><time>2026-04-08T12:37:41Z</time></trkpt><trkpt lat="43.33819201882171" lon="11.505756972223153"><ele>331.0</ele><time>2026-04-08T12:37:42Z</time></trkpt><trkpt lat="43.33833508141741" lon="11.505830424342065"><ele>332.0</ele><time>2026-04-08T12:37:43Z</time></trkpt><trkpt lat="43.33848711152907" lon="11.50587400827997"><ele>332.0</ele><time>2026-04-08T12:37:44Z</time></trkpt><trkpt lat="43.33864984775288" lon="11.505901517276193"><ele>332.0</ele><time>2026-04-08T12:37:45Z</time></trkpt><trkpt lat="43.338824143078824" lon="11.50591370071286"><ele>332.0</ele><time>2026-04-08T12:37:46Z</time></trkpt><trkpt lat="43.339003837005784" lon="11.505894563935156"><ele>333.25</ele><time>2026-04-08T12:37:47Z</time></trkpt><trkpt lat="43.33915994540558" lon="11.50585654373717"><ele>334.5</ele><time>2026-04-08T12:37:48Z</time></trkpt><trkpt lat="43.339292506571546" lon="11.505801875087672"><ele>335.75</ele><time>2026-04-08T12:37:49Z</time></trkpt><trkpt lat="43.339416501170234" lon="11.505756348642612"><ele>337.0</ele><time>2026-04-08T12:37:50Z</time></trkpt><trkpt lat="43.33953469062366" lon="11.505714717294202"><ele>337.0</ele><time>2026-04-08T12:37:51Z</time></trkpt><trkpt lat="43.33964944988547" lon="11.505673859462801"><ele>337.0</ele><time>2026-04-08T12:37:52Z</time></trkpt><trkpt lat="43.33976787464597" lon="11.505634047520966"><ele>337.0</ele><time>2026-04-08T12:37:53Z</time></trkpt><trkpt lat="43.33987349088341" lon="11.505594963439888"><ele>337.0</ele><time>2026-04-08T12:37:54Z</time></trkpt><trkpt lat="43.339972876941026" lon="11.505559135366843"><ele>336.8</ele><time>2026-04-08T12:37:55Z</time></trkpt><trkpt lat="43.34007026058869" lon="11.505524335783997"><ele>336.6</ele><time>2026-04-08T12:37:56Z</time></trkpt><trkpt lat="43.34016830647751" lon="11.505489995446673"><ele>336.40000000000003</ele><time>2026-04-08T12:37:57Z</time></trkpt><trkpt lat="43.34027386133023" lon="11.5054496341926"><ele>336.20000000000005</ele><time>2026-04-08T12:37:58Z</time></trkpt><trkpt lat="43.34037304794735" lon="11.505418905868686"><ele>336.0</ele><time>2026-04-08T12:37:59Z</time></trkpt><trkpt lat="43.3404604768271" lon="11.505395681434585"><ele>335.8333333333333</ele><time>2026-04-08T12:38:00Z</time></trkpt><trkpt lat="43.34053904675772" lon="11.505383067736982"><ele>335.6666666666667</ele><time>2026-04-08T12:38:01Z</time></trkpt><trkpt lat="43.34060830418566" lon="11.50538927338876"><ele>335.5</ele><time>2026-04-08T12:38:02Z</time></trkpt><trkpt lat="43.340678499037274" lon="11.505418783102698"><ele>335.33333333333337</ele><time>2026-04-08T12:38:03Z</time></trkpt><trkpt lat="43.34074930146594" lon="11.50542930771675"><ele>335.1666666666667</ele><time>2026-04-08T12:38:04Z</time></trkpt><trkpt lat="43.3408155094677" lon="11.505423537219404"><ele>335.0</ele><time>2026-04-08T12:38:05Z</time></trkpt><trkpt lat="43.340892311413825" lon="11.505321102690266"><ele>335.0</ele><time>2026-04-08T12:38:06Z</time></trkpt><trkpt lat="43.34097778577312" lon="11.505249053110012"><ele>335.0</ele><time>2026-04-08T12:38:07Z</time></trkpt><trkpt lat="43.34108357661124" lon="11.505197712925277"><ele>335.0</ele><time>2026-04-08T12:38:08Z</time></trkpt><trkpt lat="43.34118437437483" lon="11.505161530225763"><ele>335.0</ele><time>2026-04-08T12:38:09Z</time></trkpt><trkpt lat="43.341274686006976" lon="11.505130115727395"><ele>335.0</ele><time>2026-04-08T12:38:10Z</time></trkpt><trkpt lat="43.34136389637731" lon="11.505099893902626"><ele>334.99999999999994</ele><time>2026-04-08T12:38:11Z</time></trkpt><trkpt lat="43.34144839013093" lon="11.505072572994203"><ele>335.0</ele><time>2026-04-08T12:38:12Z</time></trkpt><trkpt lat="43.34152347967835" lon="11.50505629317832"><ele>335.0</ele><time>2026-04-08T12:38:13Z</time></trkpt><trkpt lat="43.34158942218731" lon="11.50504172532549"><ele>335.0</ele><time>2026-04-08T12:38:14Z</time></trkpt><trkpt lat="43.341656422689184" lon="11.505029171118858"><ele>335.0</ele><time>2026-04-08T12:38:15Z</time></trkpt><trkpt lat="43.34172525611761" lon="11.505009920283209"><ele>334.99999999999994</ele><time>2026-04-08T12:38:16Z</time></trkpt><trkpt lat="43.34180328393473" lon="11.504994518547125"><ele>335.0</ele><time>2026-04-08T12:38:17Z</time></trkpt><trkpt lat="43.3418899660267" lon="11.504984546334276"><ele>335.0</ele><time>2026-04-08T12:38:18Z</time></trkpt><trkpt lat="43.341974068680884" lon="11.504966124904382"><ele>335.0</ele><time>2026-04-08T12:38:19Z</time></trkpt><trkpt lat="43.34206535406302" lon="11.504940327944167"><ele>335.0</ele><time>2026-04-08T12:38:20Z</time></trkpt><trkpt lat="43.3421646575688" lon="11.50491853747273"><ele>335.0</ele><time>2026-04-08T12:38:21Z</time></trkpt><trkpt lat="43.342268673835235" lon="11.50490053324483"><ele>335.0</ele><time>2026-04-08T12:38:22Z</time></trkpt><trkpt lat="43.34237371601143" lon="11.50488061457214"><ele>335.75</ele><time>2026-04-08T12:38:23Z</time></trkpt><trkpt lat="43.34248603926388" lon="11.504860282015843"><ele>336.5</ele><time>2026-04-08T12:38:24Z</time></trkpt><trkpt lat="43.34260253734824" lon="11.504839788698309"><ele>337.25</ele><time>2026-04-08T12:38:25Z</time></trkpt><trkpt lat="43.34272731501361" lon="11.504817084981763"><ele>338.0</ele><time>2026-04-08T12:38:26Z</time></trkpt><trkpt lat="43.34287262715654" lon="11.504788620314528"><ele>338.0</ele><time>2026-04-08T12:38:27Z</time></trkpt><trkpt lat="43.34299389854435" lon="11.504768123149205"><ele>338.0</ele><time>2026-04-08T12:38:28Z</time></trkpt><trkpt lat="43.3431019724887" lon="11.50474488866952"><ele>338.0</ele><time>2026-04-08T12:38:29Z</time></trkpt><trkpt lat="43.34320041634544" lon="11.504721055803365"><ele>338.0</ele><time>2026-04-08T12:38:30Z</time></trkpt><trkpt lat="43.343306325180016" lon="11.50469753375085"><ele>338.0</ele><time>2026-04-08T12:38:31Z</time></trkpt><trkpt lat="43.343419924118315" lon="11.504673107056545"><ele>338.0</ele><time>2026-04-08T12:38:32Z</time></trkpt><trkpt lat="43.34353007150713" lon="11.50465282250864"><ele>338.0</ele><time>2026-04-08T12:38:33Z</time></trkpt><trkpt lat="43.34363463705923" lon="11.504642160141527"><ele>338.0</ele><time>2026-04-08T12:38:34Z</time></trkpt><trkpt lat="43.343737941693526" lon="11.504623903251447"><ele>338.0</ele><time>2026-04-08T12:38:35Z</time></trkpt><trkpt lat="43.34382862015922" lon="11.504604888338958"><ele>338.0</ele><time>2026-04-08T12:38:36Z</time></trkpt><trkpt lat="43.34390729948768" lon="11.504588714658315"><ele>337.59999999999997</ele><time>2026-04-08T12:38:37Z</time></trkpt><trkpt lat="43.34399572516497" lon="11.50457277522068"><ele>337.2</ele><time>2026-04-08T12:38:38Z</time></trkpt><trkpt lat="43.344093541126654" lon="11.504554946234274"><ele>336.8</ele><time>2026-04-08T12:38:39Z</time></trkpt><trkpt lat="43.34419867006249" lon="11.504535977687823"><ele>336.4</ele><time>2026-04-08T12:38:40Z</time></trkpt><trkpt lat="43.344294123816766" lon="11.504517904250044"><ele>336.0</ele><time>2026-04-08T12:38:41Z</time></trkpt><trkpt lat="43.34438299629514" lon="11.504502325296343"><ele>336.0</ele><time>2026-04-08T12:38:42Z</time></trkpt><trkpt lat="43.344461656463615" lon="11.504491246850883"><ele>336.0</ele><time>2026-04-08T12:38:43Z</time></trkpt><trkpt lat="43.3445367494889" lon="11.504483316924048"><ele>336.0</ele><time>2026-04-08T12:38:44Z</time></trkpt><trkpt lat="43.3446018060984" lon="11.504476744969793"><ele>336.0</ele><time>2026-04-08T12:38:45Z</time></trkpt><trkpt lat="43.34470529566347" lon="11.504479600594987"><ele>336.0</ele><time>2026-04-08T12:38:47Z</time></trkpt><trkpt lat="43.344809870693645" lon="11.504494241975273"><ele>336.0</ele><time>2026-04-08T12:38:49Z</time></trkpt><trkpt lat="43.344888494225216" lon="11.504507856138336"><ele>337.4</ele><time>2026-04-08T12:38:50Z</time></trkpt><trkpt lat="43.3449804280753" lon="11.504527649637772"><ele>338.8</ele><time>2026-04-08T12:38:51Z</time></trkpt><trkpt lat="43.345095676373674" lon="11.504551476530091"><ele>340.2</ele><time>2026-04-08T12:38:52Z</time></trkpt><trkpt lat="43.345196010700484" lon="11.504582144172636"><ele>341.59999999999997</ele><time>2026-04-08T12:38:53Z</time></trkpt><trkpt lat="43.345282953149045" lon="11.504609682760654"><ele>343.0</ele><time>2026-04-08T12:38:54Z</time></trkpt><trkpt lat="43.34537035241941" lon="11.504645572167243"><ele>343.16666666666663</ele><time>2026-04-08T12:38:55Z</time></trkpt><trkpt lat="43.34544022939672" lon="11.504705269836855"><ele>343.3333333333333</ele><time>2026-04-08T12:38:56Z</time></trkpt><trkpt lat="43.34550421367184" lon="11.504760886666505"><ele>343.5</ele><time>2026-04-08T12:38:57Z</time></trkpt><trkpt lat="43.34555383586119" lon="11.504848819414565"><ele>343.6666666666667</ele><time>2026-04-08T12:38:58Z</time></trkpt><trkpt lat="43.3456264268919" lon="11.504917484251559"><ele>343.83333333333337</ele><time>2026-04-08T12:38:59Z</time></trkpt><trkpt lat="43.345684426559686" lon="11.505026831050381"><ele>344.0</ele><time>2026-04-08T12:39:00Z</time></trkpt><trkpt lat="43.345767945274666" lon="11.505110223006897"><ele>345.4</ele><time>2026-04-08T12:39:01Z</time></trkpt><trkpt lat="43.34585271635904" lon="11.505216451783502"><ele>346.79999999999995</ele><time>2026-04-08T12:39:02Z</time></trkpt><trkpt lat="43.345941917365785" lon="11.505315210647675"><ele>348.20000000000005</ele><time>2026-04-08T12:39:03Z</time></trkpt><trkpt lat="43.3460248557116" lon="11.505390693539855"><ele>349.6</ele><time>2026-04-08T12:39:04Z</time></trkpt><trkpt lat="43.34612131167763" lon="11.505458083520608"><ele>351.0</ele><time>2026-04-08T12:39:05Z</time></trkpt><trkpt lat="43.34621286908927" lon="11.505501830891228"><ele>351.0</ele><time>2026-04-08T12:39:06Z</time></trkpt><trkpt lat="43.34632577630704" lon="11.505549512239725"><ele>351.0</ele><time>2026-04-08T12:39:07Z</time></trkpt><trkpt lat="43.34643302856307" lon="11.505585365322505"><ele>351.0</ele><time>2026-04-08T12:39:08Z</time></trkpt><trkpt lat="43.34653565635875" lon="11.505607247546582"><ele>351.0</ele><time>2026-04-08T12:39:09Z</time></trkpt><trkpt lat="43.34664355460113" lon="11.505621688917243"><ele>351.0</ele><time>2026-04-08T12:39:10Z</time></trkpt><trkpt lat="43.346750536079476" lon="11.505615487109743"><ele>352.0</ele><time>2026-04-08T12:39:11Z</time></trkpt><trkpt lat="43.34684344441066" lon="11.505608005127606"><ele>353.0</ele><time>2026-04-08T12:39:12Z</time></trkpt><trkpt lat="43.34692168762638" lon="11.50560124607392"><ele>354.0</ele><time>2026-04-08T12:39:13Z</time></trkpt><trkpt lat="43.347042184729276" lon="11.505551244444565"><ele>355.0</ele><time>2026-04-08T12:39:15Z</time></trkpt><trkpt lat="43.347144413545735" lon="11.505331816420385"><ele>355.0</ele><time>2026-04-08T12:39:17Z</time></trkpt><trkpt lat="43.34713157462545" lon="11.505181480543849"><ele>355.0</ele><time>2026-04-08T12:39:18Z</time></trkpt><trkpt lat="43.34710239378892" lon="11.505063538899636"><ele>355.0</ele><time>2026-04-08T12:39:19Z</time></trkpt><trkpt lat="43.34706475334129" lon="11.50493103157803"><ele>355.0</ele><time>2026-04-08T12:39:20Z</time></trkpt><trkpt lat="43.34702337315788" lon="11.504785359097452"><ele>355.0</ele><time>2026-04-08T12:39:21Z</time></trkpt><trkpt lat="43.346970648276795" lon="11.504653249173987"><ele>354.5</ele><time>2026-04-08T12:39:22Z</time></trkpt><trkpt lat="43.34695140726004" lon="11.504530998748816"><ele>354.0</ele><time>2026-04-08T12:39:22.999Z</time></trkpt><trkpt lat="43.34692491801601" lon="11.504426715029439"><ele>353.5</ele><time>2026-04-08T12:39:23.999Z</time></trkpt><trkpt lat="43.34691223843183" lon="11.504322900065372"><ele>353.0</ele><time>2026-04-08T12:39:24.999Z</time></trkpt><trkpt lat="43.34691435048841" lon="11.504226947554516"><ele>352.5</ele><time>2026-04-08T12:39:25.999Z</time></trkpt><trkpt lat="43.34693835424227" lon="11.504139877443086"><ele>352.0</ele><time>2026-04-08T12:39:26.999Z</time></trkpt><trkpt lat="43.34696783982025" lon="11.50405840947637"><ele>352.0</ele><time>2026-04-08T12:39:27.999Z</time></trkpt><trkpt lat="43.34701154557042" lon="11.503951201186762"><ele>352.0</ele><time>2026-04-08T12:39:29.999Z</time></trkpt><trkpt lat="43.347056036889235" lon="11.503885351381179"><ele>352.0</ele><time>2026-04-08T12:39:31.999Z</time></trkpt><trkpt lat="43.34710780383847" lon="11.503828614848556"><ele>352.0</ele><time>2026-04-08T12:39:33.999Z</time></trkpt><trkpt lat="43.347173889588824" lon="11.503778415629258"><ele>352.0</ele><time>2026-04-08T12:39:35.999Z</time></trkpt><trkpt lat="43.347271871905455" lon="11.503728643337727"><ele>352.0</ele><time>2026-04-08T12:39:37.999Z</time></trkpt><trkpt lat="43.34733441084824" lon="11.503698975251124"><ele>349.66666666666663</ele><time>2026-04-08T12:39:38.999Z</time></trkpt><trkpt lat="43.34739820281557" lon="11.503658581692546"><ele>347.3333333333333</ele><time>2026-04-08T12:39:39.999Z</time></trkpt><trkpt lat="43.34746076860955" lon="11.503621733502762"><ele>345.0</ele><time>2026-04-08T12:39:40.999Z</time></trkpt><trkpt lat="43.3475264475275" lon="11.503592252432574"><ele>342.6666666666667</ele><time>2026-04-08T12:39:41.999Z</time></trkpt><trkpt lat="43.34760264214563" lon="11.503579210484379"><ele>340.33333333333337</ele><time>2026-04-08T12:39:43.999Z</time></trkpt><trkpt lat="43.3476997398434" lon="11.503569751689412"><ele>338.0</ele><time>2026-04-08T12:47:50.999Z</time></trkpt><trkpt lat="43.3476941422306" lon="11.503306781030405"><ele>338.0</ele><time>2026-04-08T12:47:52.999Z</time></trkpt><trkpt lat="43.34769861926002" lon="11.50356979090832"><ele>338.0</ele><time>2026-04-08T12:47:55.999Z</time></trkpt><trkpt lat="43.34767374885197" lon="11.503412946146462"><ele>338.0</ele><time>2026-04-08T12:50:53Z</time></trkpt><trkpt lat="43.34762969205919" lon="11.50352135616045"><ele>338.0</ele><time>2026-04-08T12:50:59Z</time></trkpt><trkpt lat="43.34756409804642" lon="11.503553534416973"><ele>338.0</ele><time>2026-04-08T12:51:00Z</time></trkpt><trkpt lat="43.347476657526286" lon="11.503584164359468"><ele>338.0</ele><time>2026-04-08T12:51:01Z</time></trkpt><trkpt lat="43.347377806185946" lon="11.503639133681789"><ele>338.0</ele><time>2026-04-08T12:51:02Z</time></trkpt><trkpt lat="43.347290303972564" lon="11.50368889622369"><ele>338.0</ele><time>2026-04-08T12:51:03Z</time></trkpt><trkpt lat="43.34721909124201" lon="11.503727599257841"><ele>338.0</ele><time>2026-04-08T12:51:04Z</time></trkpt><trkpt lat="43.347152711457596" lon="11.503768033058666"><ele>338.0</ele><time>2026-04-08T12:51:05Z</time></trkpt><trkpt lat="43.34709219551202" lon="11.50383077326532"><ele>340.79999999999995</ele><time>2026-04-08T12:51:06Z</time></trkpt><trkpt lat="43.34703671111804" lon="11.50391711875078"><ele>343.6</ele><time>2026-04-08T12:51:07Z</time></trkpt><trkpt lat="43.34698102718124" lon="11.50402173641784"><ele>346.4</ele><time>2026-04-08T12:51:08Z</time></trkpt><trkpt lat="43.346939234182905" lon="11.504137503905527"><ele>349.20000000000005</ele><time>2026-04-08T12:51:09Z</time></trkpt><trkpt lat="43.34692814129359" lon="11.504231113271475"><ele>352.0</ele><time>2026-04-08T12:51:10Z</time></trkpt><trkpt lat="43.34695831547225" lon="11.504486228086439"><ele>352.75</ele><time>2026-04-08T12:51:12Z</time></trkpt><trkpt lat="43.34700626863196" lon="11.504627735248016"><ele>353.5</ele><time>2026-04-08T12:51:13Z</time></trkpt><trkpt lat="43.34705286231615" lon="11.50479338484817"><ele>354.25</ele><time>2026-04-08T12:51:14Z</time></trkpt><trkpt lat="43.34710095940636" lon="11.504965922175275"><ele>355.0</ele><time>2026-04-08T12:51:15Z</time></trkpt><trkpt lat="43.34714791085232" lon="11.50510216234848"><ele>355.0</ele><time>2026-04-08T12:51:16Z</time></trkpt><trkpt lat="43.3471606315192" lon="11.505221600663067"><ele>355.0</ele><time>2026-04-08T12:51:17Z</time></trkpt><trkpt lat="43.34716317562285" lon="11.505322636724834"><ele>355.0</ele><time>2026-04-08T12:51:18Z</time></trkpt><trkpt lat="43.34713355380017" lon="11.50542177434124"><ele>355.0</ele><time>2026-04-08T12:51:19Z</time></trkpt><trkpt lat="43.347079848284075" lon="11.505508725021189"><ele>355.0</ele><time>2026-04-08T12:51:20Z</time></trkpt><trkpt lat="43.346985864517244" lon="11.505565337586818"><ele>355.0</ele><time>2026-04-08T12:51:21Z</time></trkpt><trkpt lat="43.34688636276279" lon="11.505584737825782"><ele>354.0</ele><time>2026-04-08T12:51:22Z</time></trkpt><trkpt lat="43.34675916799994" lon="11.505577059813746"><ele>353.0</ele><time>2026-04-08T12:51:23Z</time></trkpt><trkpt lat="43.34660981815329" lon="11.505561923207061"><ele>352.0</ele><time>2026-04-08T12:51:24Z</time></trkpt><trkpt lat="43.346451444081815" lon="11.505542675727487"><ele>351.0</ele><time>2026-04-08T12:51:25Z</time></trkpt><trkpt lat="43.346323356201474" lon="11.505505218747318"><ele>351.0</ele><time>2026-04-08T12:51:26Z</time></trkpt><trkpt lat="43.34620711422668" lon="11.50545799832365"><ele>351.0</ele><time>2026-04-08T12:51:27Z</time></trkpt><trkpt lat="43.34610829607224" lon="11.505403600271983"><ele>351.0</ele><time>2026-04-08T12:51:28Z</time></trkpt><trkpt lat="43.34601830843672" lon="11.505340894067905"><ele>351.0</ele><time>2026-04-08T12:51:29Z</time></trkpt><trkpt lat="43.345936692226395" lon="11.505253283445212"><ele>351.0</ele><time>2026-04-08T12:51:30Z</time></trkpt><trkpt lat="43.345842193966355" lon="11.505174901592147"><ele>351.20000000000005</ele><time>2026-04-08T12:51:31Z</time></trkpt><trkpt lat="43.34576457982639" lon="11.505070687849445"><ele>351.40000000000003</ele><time>2026-04-08T12:51:32Z</time></trkpt><trkpt lat="43.34568375111107" lon="11.504980351684633"><ele>351.6</ele><time>2026-04-08T12:51:33Z</time></trkpt><trkpt lat="43.34561770504055" lon="11.50487564002762"><ele>351.8</ele><time>2026-04-08T12:51:34Z</time></trkpt><trkpt lat="43.34555312017669" lon="11.50477980941307"><ele>352.0</ele><time>2026-04-08T12:51:35Z</time></trkpt><trkpt lat="43.34548960148419" lon="11.504707342383362"><ele>350.40000000000003</ele><time>2026-04-08T12:51:36Z</time></trkpt><trkpt lat="43.34542613331319" lon="11.50464650071905"><ele>348.8</ele><time>2026-04-08T12:51:37Z</time></trkpt><trkpt lat="43.34534120055623" lon="11.50459866197917"><ele>347.2</ele><time>2026-04-08T12:51:38Z</time></trkpt><trkpt lat="43.34522203493779" lon="11.504571956604279"><ele>345.6</ele><time>2026-04-08T12:51:38.999Z</time></trkpt><trkpt lat="43.34510213663006" lon="11.504533218704715"><ele>344.0</ele><time>2026-04-08T12:51:39.999Z</time></trkpt><trkpt lat="43.34500263601146" lon="11.50450631736494"><ele>343.79999999999995</ele><time>2026-04-08T12:51:40.999Z</time></trkpt><trkpt lat="43.34492902832467" lon="11.504491840309889"><ele>343.59999999999997</ele><time>2026-04-08T12:51:41.999Z</time></trkpt><trkpt lat="43.344842261063505" lon="11.504433942545072"><ele>343.4</ele><time>2026-04-08T12:51:43.999Z</time></trkpt><trkpt lat="43.34484800455477" lon="11.504238255373991"><ele>343.2</ele><time>2026-04-08T12:51:46.999Z</time></trkpt><trkpt lat="43.344893129996564" lon="11.504157779716667"><ele>343.0</ele><time>2026-04-08T12:51:47.999Z</time></trkpt><trkpt lat="43.3449432625825" lon="11.504056720537509"><ele>343.0</ele><time>2026-04-08T12:51:48.999Z</time></trkpt><trkpt lat="43.34499061013044" lon="11.503949904980388"><ele>343.0</ele><time>2026-04-08T12:51:49.999Z</time></trkpt><trkpt lat="43.345025257079854" lon="11.503864837336446"><ele>343.0</ele><time>2026-04-08T12:51:50.999Z</time></trkpt><trkpt lat="43.34505138076516" lon="11.503769375861832"><ele>343.0</ele><time>2026-04-08T12:51:51.999Z</time></trkpt><trkpt lat="43.34505825284111" lon="11.503655657100088"><ele>343.0</ele><time>2026-04-08T12:51:52.999Z</time></trkpt><trkpt lat="43.345034251950686" lon="11.503527104838165"><ele>343.0</ele><time>2026-04-08T12:51:53.999Z</time></trkpt><trkpt lat="43.34499121476409" lon="11.50339233332308"><ele>343.0</ele><time>2026-04-08T12:51:54.999Z</time></trkpt><trkpt lat="43.3449587567183" lon="11.503279959471163"><ele>343.0</ele><time>2026-04-08T12:51:55.999Z</time></trkpt><trkpt lat="43.34493714311652" lon="11.503189531187822"><ele>343.0</ele><time>2026-04-08T12:51:56.999Z</time></trkpt><trkpt lat="43.34493185104368" lon="11.503093418733886"><ele>343.0</ele><time>2026-04-08T12:51:57.999Z</time></trkpt><trkpt lat="43.34493398795173" lon="11.502979950467179"><ele>343.0</ele><time>2026-04-08T12:51:58.999Z</time></trkpt><trkpt lat="43.34494609199655" lon="11.502858471676031"><ele>343.0</ele><time>2026-04-08T12:51:59.999Z</time></trkpt><trkpt lat="43.344957621629334" lon="11.502756440840228"><ele>343.2</ele><time>2026-04-08T12:52:00.999Z</time></trkpt><trkpt lat="43.34498007703479" lon="11.502641312399355"><ele>343.4</ele><time>2026-04-08T12:52:01.999Z</time></trkpt><trkpt lat="43.34502101711503" lon="11.50251904674672"><ele>343.59999999999997</ele><time>2026-04-08T12:52:02.999Z</time></trkpt><trkpt lat="43.34506884673118" lon="11.5023837750955"><ele>343.79999999999995</ele><time>2026-04-08T12:52:03.999Z</time></trkpt><trkpt lat="43.34510030621701" lon="11.502252373509364"><ele>344.0</ele><time>2026-04-08T12:52:04.999Z</time></trkpt><trkpt lat="43.3451390963296" lon="11.502141073395867"><ele>342.6666666666667</ele><time>2026-04-08T12:52:05.999Z</time></trkpt><trkpt lat="43.3451696324738" lon="11.502049865022988"><ele>341.33333333333337</ele><time>2026-04-08T12:52:06.999Z</time></trkpt><trkpt lat="43.34520007851915" lon="11.501951512826244"><ele>340.0</ele><time>2026-04-08T12:52:07.999Z</time></trkpt><trkpt lat="43.34523092475525" lon="11.501839881853549"><ele>338.6666666666667</ele><time>2026-04-08T12:52:08.999Z</time></trkpt><trkpt lat="43.34524783025607" lon="11.501727372212978"><ele>337.3333333333333</ele><time>2026-04-08T12:52:09.999Z</time></trkpt><trkpt lat="43.34524410727409" lon="11.5016330876003"><ele>336.0</ele><time>2026-04-08T12:52:10.999Z</time></trkpt><trkpt lat="43.345225456252706" lon="11.501536798873765"><ele>336.0</ele><time>2026-04-08T12:52:11.999Z</time></trkpt><trkpt lat="43.345191098114775" lon="11.50141608762778"><ele>336.0</ele><time>2026-04-08T12:52:12.999Z</time></trkpt><trkpt lat="43.34516354268856" lon="11.501265257284588"><ele>336.0</ele><time>2026-04-08T12:52:13.999Z</time></trkpt><trkpt lat="43.345094958469254" lon="11.50110911994982"><ele>336.0</ele><time>2026-04-08T12:52:14.999Z</time></trkpt><trkpt lat="43.34503687448087" lon="11.500984962984646"><ele>336.0</ele><time>2026-04-08T12:52:15.999Z</time></trkpt><trkpt lat="43.34497303326377" lon="11.50087609902344"><ele>335.8333333333333</ele><time>2026-04-08T12:52:16.999Z</time></trkpt><trkpt lat="43.34493840193931" lon="11.50078514581641"><ele>335.6666666666667</ele><time>2026-04-08T12:52:17.999Z</time></trkpt><trkpt lat="43.34493031623162" lon="11.500693120177438"><ele>335.5</ele><time>2026-04-08T12:52:18.999Z</time></trkpt><trkpt lat="43.344966272035585" lon="11.500621319595702"><ele>335.33333333333337</ele><time>2026-04-08T12:52:19.999Z</time></trkpt><trkpt lat="43.34504313009931" lon="11.500571389014452"><ele>335.1666666666667</ele><time>2026-04-08T12:52:21.999Z</time></trkpt><trkpt lat="43.34508312806332" lon="11.500491062129688"><ele>335.0</ele><time>2026-04-08T12:52:25Z</time></trkpt><trkpt lat="43.3450240760124" lon="11.50034897313823"><ele>335.0</ele><time>2026-04-08T12:52:27Z</time></trkpt><trkpt lat="43.34497267008371" lon="11.500244166223203"><ele>335.0</ele><time>2026-04-08T12:52:28Z</time></trkpt><trkpt lat="43.3449338979372" lon="11.50012174392394"><ele>335.0</ele><time>2026-04-08T12:52:29Z</time></trkpt><trkpt lat="43.34488367990053" lon="11.499988845507703"><ele>335.0</ele><time>2026-04-08T12:52:30Z</time></trkpt><trkpt lat="43.34483121375761" lon="11.499853108753923"><ele>335.0</ele><time>2026-04-08T12:52:31Z</time></trkpt><trkpt lat="43.34477494152667" lon="11.499704606410269"><ele>335.25</ele><time>2026-04-08T12:52:32Z</time></trkpt><trkpt lat="43.344710188113424" lon="11.499539938572674"><ele>335.5</ele><time>2026-04-08T12:52:33Z</time></trkpt><trkpt lat="43.344646175165515" lon="11.499378572600977"><ele>335.75</ele><time>2026-04-08T12:52:34Z</time></trkpt><trkpt lat="43.344594631554166" lon="11.49924271254172"><ele>336.0</ele><time>2026-04-08T12:52:35Z</time></trkpt><trkpt lat="43.34454537078846" lon="11.499097557022885"><ele>336.0</ele><time>2026-04-08T12:52:36Z</time></trkpt><trkpt lat="43.34450151912193" lon="11.498972216923221"><ele>336.0</ele><time>2026-04-08T12:52:37Z</time></trkpt><trkpt lat="43.344455845130895" lon="11.49882684628235"><ele>336.0</ele><time>2026-04-08T12:52:38Z</time></trkpt><trkpt lat="43.344407684606594" lon="11.498674886275772"><ele>336.0</ele><time>2026-04-08T12:52:39Z</time></trkpt><trkpt lat="43.34435581839562" lon="11.498526670020766"><ele>336.20000000000005</ele><time>2026-04-08T12:52:40Z</time></trkpt><trkpt lat="43.34431443536614" lon="11.498392983136958"><ele>336.40000000000003</ele><time>2026-04-08T12:52:41Z</time></trkpt><trkpt lat="43.34427346555947" lon="11.498274442475678"><ele>336.6</ele><time>2026-04-08T12:52:42Z</time></trkpt><trkpt lat="43.344227284278915" lon="11.498142033978727"><ele>336.8</ele><time>2026-04-08T12:52:43Z</time></trkpt><trkpt lat="43.34417732443493" lon="11.498004916916793"><ele>337.0</ele><time>2026-04-08T12:52:44Z</time></trkpt><trkpt lat="43.344126517916436" lon="11.49786035450167"><ele>337.0</ele><time>2026-04-08T12:52:45Z</time></trkpt><trkpt lat="43.34408145484023" lon="11.497731738279224"><ele>337.0</ele><time>2026-04-08T12:52:46Z</time></trkpt><trkpt lat="43.34403828012882" lon="11.497614752468243"><ele>337.0</ele><time>2026-04-08T12:52:47Z</time></trkpt><trkpt lat="43.34399225591934" lon="11.497494380307774"><ele>337.0</ele><time>2026-04-08T12:52:48Z</time></trkpt><trkpt lat="43.343944056639685" lon="11.49737346154138"><ele>337.0</ele><time>2026-04-08T12:52:49Z</time></trkpt><trkpt lat="43.343903894261445" lon="11.497275510540854"><ele>336.5</ele><time>2026-04-08T12:52:50Z</time></trkpt><trkpt lat="43.34386682484585" lon="11.49719722870251"><ele>336.0</ele><time>2026-04-08T12:52:51Z</time></trkpt><trkpt lat="43.34382742841141" lon="11.497106183036"><ele>335.5</ele><time>2026-04-08T12:52:52Z</time></trkpt><trkpt lat="43.34377888636911" lon="11.497023490560256"><ele>335.0</ele><time>2026-04-08T12:52:53Z</time></trkpt><trkpt lat="43.34372335055546" lon="11.496951007107572"><ele>334.5</ele><time>2026-04-08T12:52:54Z</time></trkpt><trkpt lat="43.34366162700362" lon="11.496881243395617"><ele>334.0</ele><time>2026-04-08T12:52:55Z</time></trkpt><trkpt lat="43.34360568607774" lon="11.496806980954823"><ele>334.0</ele><time>2026-04-08T12:52:56Z</time></trkpt><trkpt lat="43.3435432213588" lon="11.496726390363508"><ele>334.0</ele><time>2026-04-08T12:52:57Z</time></trkpt><trkpt lat="43.34347747846041" lon="11.496641570693598"><ele>334.0</ele><time>2026-04-08T12:52:58Z</time></trkpt><trkpt lat="43.34341012963623" lon="11.49655447300568"><ele>334.0</ele><time>2026-04-08T12:52:59Z</time></trkpt><trkpt lat="43.343358076388895" lon="11.496474311344533"><ele>334.0</ele><time>2026-04-08T12:53:00Z</time></trkpt><trkpt lat="43.34329881579428" lon="11.49641278196353"><ele>334.0</ele><time>2026-04-08T12:53:01Z</time></trkpt><trkpt lat="43.34324698922398" lon="11.496357669080503"><ele>334.0</ele><time>2026-04-08T12:53:02Z</time></trkpt><trkpt lat="43.34319669986178" lon="11.496288181699882"><ele>334.0</ele><time>2026-04-08T12:53:03Z</time></trkpt><trkpt lat="43.3431424208743" lon="11.496214729447663"><ele>334.0</ele><time>2026-04-08T12:53:04Z</time></trkpt><trkpt lat="43.343071382957625" lon="11.496137335562285"><ele>334.0</ele><time>2026-04-08T12:53:05Z</time></trkpt><trkpt lat="43.34300406556836" lon="11.496053045696957"><ele>334.0</ele><time>2026-04-08T12:53:06Z</time></trkpt><trkpt lat="43.34293068889418" lon="11.495963822876359"><ele>334.0</ele><time>2026-04-08T12:53:07Z</time></trkpt><trkpt lat="43.34286544536151" lon="11.495881665148744"><ele>333.4</ele><time>2026-04-08T12:53:08Z</time></trkpt><trkpt lat="43.342800120734566" lon="11.495801850979094"><ele>332.79999999999995</ele><time>2026-04-08T12:53:09Z</time></trkpt><trkpt lat="43.342726223992045" lon="11.495707123550059"><ele>332.20000000000005</ele><time>2026-04-08T12:53:10Z</time></trkpt><trkpt lat="43.34263963924568" lon="11.495605281343698"><ele>331.6</ele><time>2026-04-08T12:53:11Z</time></trkpt><trkpt lat="43.34254788502169" lon="11.495498442325601"><ele>331.0</ele><time>2026-04-08T12:53:12Z</time></trkpt><trkpt lat="43.342448917501606" lon="11.49538634154743"><ele>329.0</ele><time>2026-04-08T12:53:13Z</time></trkpt><trkpt lat="43.34234652334141" lon="11.495274251810375"><ele>327.0</ele><time>2026-04-08T12:53:14Z</time></trkpt><trkpt lat="43.34224713861516" lon="11.495153701921746"><ele>325.0</ele><time>2026-04-08T12:53:15Z</time></trkpt><trkpt lat="43.342138971725994" lon="11.495026354825017"><ele>323.0</ele><time>2026-04-08T12:53:16Z</time></trkpt><trkpt lat="43.34203137376104" lon="11.494905592453723"><ele>321.25</ele><time>2026-04-08T12:53:17Z</time></trkpt><trkpt lat="43.34193126966292" lon="11.494786770686474"><ele>319.5</ele><time>2026-04-08T12:53:18Z</time></trkpt><trkpt lat="43.34183658166114" lon="11.49467419775068"><ele>317.75</ele><time>2026-04-08T12:53:19Z</time></trkpt><trkpt lat="43.34173738636753" lon="11.494554161031393"><ele>316.0</ele><time>2026-04-08T12:53:20Z</time></trkpt><trkpt lat="43.34162724334828" lon="11.494427627832934"><ele>315.0</ele><time>2026-04-08T12:53:21Z</time></trkpt><trkpt lat="43.34151140259967" lon="11.49429656991883"><ele>314.0</ele><time>2026-04-08T12:53:22Z</time></trkpt><trkpt lat="43.341389443761635" lon="11.494153742048747"><ele>313.0</ele><time>2026-04-08T12:53:23Z</time></trkpt><trkpt lat="43.341266697343144" lon="11.49400330068147"><ele>312.0</ele><time>2026-04-08T12:53:24Z</time></trkpt><trkpt lat="43.34114412670404" lon="11.493856300227703"><ele>311.0</ele><time>2026-04-08T12:53:25Z</time></trkpt><trkpt lat="43.3410079735125" lon="11.493702894432461"><ele>310.0</ele><time>2026-04-08T12:53:26Z</time></trkpt><trkpt lat="43.34087465249938" lon="11.493540490370023"><ele>310.0</ele><time>2026-04-08T12:53:27Z</time></trkpt><trkpt lat="43.34074722037346" lon="11.493389085019457"><ele>310.0</ele><time>2026-04-08T12:53:28Z</time></trkpt><trkpt lat="43.340629841864185" lon="11.493248042646147"><ele>310.0</ele><time>2026-04-08T12:53:29Z</time></trkpt><trkpt lat="43.34052232741403" lon="11.493113411943424"><ele>310.0</ele><time>2026-04-08T12:53:30Z</time></trkpt><trkpt lat="43.34040935309177" lon="11.492973703581082"><ele>310.0</ele><time>2026-04-08T12:53:31Z</time></trkpt><trkpt lat="43.340295421224525" lon="11.492823249555137"><ele>310.0</ele><time>2026-04-08T12:53:32Z</time></trkpt><trkpt lat="43.34017991656337" lon="11.49266519594341"><ele>310.3333333333333</ele><time>2026-04-08T12:53:33Z</time></trkpt><trkpt lat="43.34006921297128" lon="11.492499773099066"><ele>310.6666666666667</ele><time>2026-04-08T12:53:34Z</time></trkpt><trkpt lat="43.339955458526966" lon="11.492333605731455"><ele>311.0</ele><time>2026-04-08T12:53:35Z</time></trkpt><trkpt lat="43.33984211338409" lon="11.492160612789066"><ele>309.6666666666667</ele><time>2026-04-08T12:53:36Z</time></trkpt><trkpt lat="43.3397271128774" lon="11.49198639437164"><ele>308.3333333333333</ele><time>2026-04-08T12:53:37Z</time></trkpt><trkpt lat="43.33960945038293" lon="11.491809095496931"><ele>307.0</ele><time>2026-04-08T12:53:38Z</time></trkpt><trkpt lat="43.33949886971105" lon="11.491644116094895"><ele>307.0</ele><time>2026-04-08T12:53:38.999Z</time></trkpt><trkpt lat="43.339396563792285" lon="11.491484879747127"><ele>307.0</ele><time>2026-04-08T12:53:39.999Z</time></trkpt><trkpt lat="43.33930004481465" lon="11.491332015226664"><ele>307.0</ele><time>2026-04-08T12:53:40.999Z</time></trkpt><trkpt lat="43.33919334839612" lon="11.491176003809166"><ele>306.66666666666663</ele><time>2026-04-08T12:53:41.999Z</time></trkpt><trkpt lat="43.33907559437249" lon="11.49101815326997"><ele>306.3333333333333</ele><time>2026-04-08T12:53:42.999Z</time></trkpt><trkpt lat="43.338932578835774" lon="11.490868654335701"><ele>306.0</ele><time>2026-04-08T12:53:43.999Z</time></trkpt><trkpt lat="43.33878851727574" lon="11.490715735976659"><ele>305.0</ele><time>2026-04-08T12:53:44.999Z</time></trkpt><trkpt lat="43.3386559834109" lon="11.490574975343662"><ele>304.0</ele><time>2026-04-08T12:53:45.999Z</time></trkpt><trkpt lat="43.338526108337156" lon="11.49044165887193"><ele>303.0</ele><time>2026-04-08T12:53:46.999Z</time></trkpt><trkpt lat="43.338397934804036" lon="11.490316431582572"><ele>303.0</ele><time>2026-04-08T12:53:47.999Z</time></trkpt><trkpt lat="43.33825733333846" lon="11.490161249413486"><ele>303.0</ele><time>2026-04-08T12:53:48.999Z</time></trkpt><trkpt lat="43.33810487339259" lon="11.490000572190182"><ele>303.0</ele><time>2026-04-08T12:53:49.999Z</time></trkpt><trkpt lat="43.33794312504532" lon="11.489835283407665"><ele>301.3333333333333</ele><time>2026-04-08T12:53:50.999Z</time></trkpt><trkpt lat="43.3377961941559" lon="11.48967449732579"><ele>299.66666666666663</ele><time>2026-04-08T12:53:51.999Z</time></trkpt><trkpt lat="43.33764984962928" lon="11.489523066948282"><ele>298.0</ele><time>2026-04-08T12:53:52.999Z</time></trkpt><trkpt lat="43.337511873709914" lon="11.489380433548613"><ele>297.66666666666663</ele><time>2026-04-08T12:53:53.999Z</time></trkpt><trkpt lat="43.337387074720176" lon="11.489251130501327"><ele>297.3333333333333</ele><time>2026-04-08T12:53:54.999Z</time></trkpt><trkpt lat="43.337267760801346" lon="11.48912582983251"><ele>297.0</ele><time>2026-04-08T12:53:55.999Z</time></trkpt><trkpt lat="43.33714197243768" lon="11.48900736351597"><ele>297.6666666666667</ele><time>2026-04-08T12:53:56.999Z</time></trkpt><trkpt lat="43.33699505158711" lon="11.48890013049643"><ele>298.33333333333337</ele><time>2026-04-08T12:53:57.999Z</time></trkpt><trkpt lat="43.336840362205834" lon="11.48881783182629"><ele>299.0</ele><time>2026-04-08T12:53:58.999Z</time></trkpt><trkpt lat="43.33670114012411" lon="11.488751081325788"><ele>299.0</ele><time>2026-04-08T12:53:59.999Z</time></trkpt><trkpt lat="43.33657772269644" lon="11.488661299817634"><ele>299.0</ele><time>2026-04-08T12:54:00.999Z</time></trkpt><trkpt lat="43.33646587453546" lon="11.48854688210701"><ele>299.0</ele><time>2026-04-08T12:54:01.999Z</time></trkpt><trkpt lat="43.33636554926779" lon="11.48839595846469"><ele>299.0</ele><time>2026-04-08T12:54:02.999Z</time></trkpt><trkpt lat="43.33628014529305" lon="11.488216901313871"><ele>299.0</ele><time>2026-04-08T12:54:03.999Z</time></trkpt><trkpt lat="43.33619494831998" lon="11.488060555386324"><ele>299.0</ele><time>2026-04-08T12:54:04.999Z</time></trkpt><trkpt lat="43.33609267245026" lon="11.487914412384923"><ele>299.0</ele><time>2026-04-08T12:54:05.999Z</time></trkpt><trkpt lat="43.33595945490733" lon="11.487760186754421"><ele>296.33333333333337</ele><time>2026-04-08T12:54:06.999Z</time></trkpt><trkpt lat="43.335828993440245" lon="11.48761045612638"><ele>293.6666666666667</ele><time>2026-04-08T12:54:07.999Z</time></trkpt><trkpt lat="43.33571751956029" lon="11.4874670348573"><ele>291.0</ele><time>2026-04-08T12:54:08.999Z</time></trkpt><trkpt lat="43.33561726010169" lon="11.48732019542976"><ele>292.0</ele><time>2026-04-08T12:54:09.999Z</time></trkpt><trkpt lat="43.33552131588171" lon="11.487133049842992"><ele>293.0</ele><time>2026-04-08T12:54:10.999Z</time></trkpt><trkpt lat="43.335435741836704" lon="11.48693082443591"><ele>294.0</ele><time>2026-04-08T12:54:11.999Z</time></trkpt><trkpt lat="43.33536273838546" lon="11.486739089031929"><ele>294.0</ele><time>2026-04-08T12:54:12.999Z</time></trkpt><trkpt lat="43.33528693186066" lon="11.486558096815363"><ele>294.0</ele><time>2026-04-08T12:54:13.999Z</time></trkpt><trkpt lat="43.335208106704336" lon="11.486365505165335"><ele>294.0</ele><time>2026-04-08T12:54:14.999Z</time></trkpt><trkpt lat="43.33513472433047" lon="11.486185412990526"><ele>291.75</ele><time>2026-04-08T12:54:15.999Z</time></trkpt><trkpt lat="43.33506849250699" lon="11.486008726589105"><ele>289.5</ele><time>2026-04-08T12:54:16.999Z</time></trkpt><trkpt lat="43.335013431372154" lon="11.485824028021458"><ele>287.25</ele><time>2026-04-08T12:54:17.999Z</time></trkpt><trkpt lat="43.334970370990746" lon="11.485631983896152"><ele>285.0</ele><time>2026-04-08T12:54:18.999Z</time></trkpt><trkpt lat="43.33493928628569" lon="11.485422444073572"><ele>283.0</ele><time>2026-04-08T12:54:19.999Z</time></trkpt><trkpt lat="43.334907350752225" lon="11.485194362334797"><ele>281.0</ele><time>2026-04-08T12:54:20.999Z</time></trkpt><trkpt lat="43.33487583584347" lon="11.484950253644463"><ele>279.0</ele><time>2026-04-08T12:54:21.999Z</time></trkpt><trkpt lat="43.33484068756021" lon="11.484699476559193"><ele>277.6666666666667</ele><time>2026-04-08T12:54:22.999Z</time></trkpt><trkpt lat="43.33481398982032" lon="11.48445591667929"><ele>276.33333333333337</ele><time>2026-04-08T12:54:23.999Z</time></trkpt><trkpt lat="43.33479230063644" lon="11.484235439706845"><ele>275.0</ele><time>2026-04-08T12:54:24.999Z</time></trkpt><trkpt lat="43.33477440899099" lon="11.484004022344262"><ele>274.6666666666667</ele><time>2026-04-08T12:54:25.999Z</time></trkpt><trkpt lat="43.33475075830865" lon="11.483757140438161"><ele>274.3333333333333</ele><time>2026-04-08T12:54:26.999Z</time></trkpt><trkpt lat="43.334734287277044" lon="11.483509264055233"><ele>274.0</ele><time>2026-04-08T12:54:27.999Z</time></trkpt><trkpt lat="43.33471999037578" lon="11.483279148591397"><ele>276.3333333333333</ele><time>2026-04-08T12:54:29Z</time></trkpt><trkpt lat="43.33469404418143" lon="11.483057896129273"><ele>278.6666666666667</ele><time>2026-04-08T12:54:30Z</time></trkpt><trkpt lat="43.33466937934245" lon="11.482846837278462"><ele>281.0</ele><time>2026-04-08T12:54:31Z</time></trkpt><trkpt lat="43.33464245672759" lon="11.482661438590405"><ele>281.0</ele><time>2026-04-08T12:54:32Z</time></trkpt><trkpt lat="43.334621354696914" lon="11.482497688722818"><ele>281.0</ele><time>2026-04-08T12:54:33Z</time></trkpt><trkpt lat="43.3345958458695" lon="11.482343826645662"><ele>281.0</ele><time>2026-04-08T12:54:34Z</time></trkpt><trkpt lat="43.33459129612588" lon="11.482198684108008"><ele>281.0</ele><time>2026-04-08T12:54:35Z</time></trkpt><trkpt lat="43.334618399114554" lon="11.482046233592344"><ele>279.25</ele><time>2026-04-08T12:54:36Z</time></trkpt><trkpt lat="43.33466956904153" lon="11.481887771308033"><ele>277.5</ele><time>2026-04-08T12:54:37Z</time></trkpt><trkpt lat="43.33474104098178" lon="11.481735862390416"><ele>275.75</ele><time>2026-04-08T12:54:38Z</time></trkpt><trkpt lat="43.33482710296544" lon="11.481590452974311"><ele>274.0</ele><time>2026-04-08T12:54:39Z</time></trkpt><trkpt lat="43.33491801451216" lon="11.481441201558749"><ele>273.5</ele><time>2026-04-08T12:54:40Z</time></trkpt><trkpt lat="43.3350137748327" lon="11.48128268650496"><ele>273.0</ele><time>2026-04-08T12:54:41Z</time></trkpt><trkpt lat="43.33511708248934" lon="11.481124254365358"><ele>272.5</ele><time>2026-04-08T12:54:42Z</time></trkpt><trkpt lat="43.33519805826408" lon="11.4809887230144"><ele>272.0</ele><time>2026-04-08T12:54:43Z</time></trkpt><trkpt lat="43.33526871449704" lon="11.480874206176454"><ele>273.4</ele><time>2026-04-08T12:54:44Z</time></trkpt><trkpt lat="43.33533832334919" lon="11.480768234587687"><ele>274.79999999999995</ele><time>2026-04-08T12:54:45Z</time></trkpt><trkpt lat="43.33539314696734" lon="11.48065741824152"><ele>276.2</ele><time>2026-04-08T12:54:46Z</time></trkpt><trkpt lat="43.335454332658536" lon="11.480550967422685"><ele>277.59999999999997</ele><time>2026-04-08T12:54:47Z</time></trkpt><trkpt lat="43.335444418053804" lon="11.480376257943428"><ele>279.0</ele><time>2026-04-08T12:54:48Z</time></trkpt><trkpt lat="43.33548535775241" lon="11.48022998064348"><ele>279.2</ele><time>2026-04-08T12:54:49Z</time></trkpt><trkpt lat="43.335505518823794" lon="11.480085220654942"><ele>279.4</ele><time>2026-04-08T12:54:50Z</time></trkpt><trkpt lat="43.335535896031246" lon="11.47997144086909"><ele>279.6</ele><time>2026-04-08T12:54:51Z</time></trkpt><trkpt lat="43.335576285102945" lon="11.479827217445068"><ele>279.8</ele><time>2026-04-08T12:54:52Z</time></trkpt><trkpt lat="43.33561653639673" lon="11.479691411407298"><ele>280.0</ele><time>2026-04-08T12:54:53Z</time></trkpt><trkpt lat="43.335662330836" lon="11.47954964230068"><ele>279.5</ele><time>2026-04-08T12:54:54Z</time></trkpt><trkpt lat="43.33570866595567" lon="11.479411459286004"><ele>279.0</ele><time>2026-04-08T12:54:55Z</time></trkpt><trkpt lat="43.33576121922552" lon="11.47926344901027"><ele>278.5</ele><time>2026-04-08T12:54:56Z</time></trkpt><trkpt lat="43.33581196482117" lon="11.479099847140345"><ele>278.0</ele><time>2026-04-08T12:54:57Z</time></trkpt><trkpt lat="43.335856104514576" lon="11.478943119038146"><ele>278.0</ele><time>2026-04-08T12:54:58Z</time></trkpt><trkpt lat="43.33589930371054" lon="11.478790036538374"><ele>278.0</ele><time>2026-04-08T12:54:59Z</time></trkpt><trkpt lat="43.335944502059036" lon="11.478630117752875"><ele>278.0</ele><time>2026-04-08T12:55:00Z</time></trkpt><trkpt lat="43.33598902468957" lon="11.478466509096314"><ele>278.0</ele><time>2026-04-08T12:55:01Z</time></trkpt><trkpt lat="43.33603192799429" lon="11.478315066029435"><ele>277.0</ele><time>2026-04-08T12:55:02Z</time></trkpt><trkpt lat="43.33606127135686" lon="11.478163751174577"><ele>276.0</ele><time>2026-04-08T12:55:03Z</time></trkpt><trkpt lat="43.33606731416172" lon="11.478001261092986"><ele>275.0</ele><time>2026-04-08T12:55:04Z</time></trkpt><trkpt lat="43.33604614493392" lon="11.477827749879694"><ele>274.0</ele><time>2026-04-08T12:55:05Z</time></trkpt><trkpt lat="43.33600561756435" lon="11.477647738165526"><ele>274.0</ele><time>2026-04-08T12:55:06Z</time></trkpt><trkpt lat="43.33594723262493" lon="11.477472173719452"><ele>274.0</ele><time>2026-04-08T12:55:07Z</time></trkpt><trkpt lat="43.33588573161478" lon="11.477280772300668"><ele>274.0</ele><time>2026-04-08T12:55:08Z</time></trkpt><trkpt lat="43.33582333683376" lon="11.47708305947404"><ele>274.0</ele><time>2026-04-08T12:55:09Z</time></trkpt><trkpt lat="43.33575940068854" lon="11.476877499712085"><ele>274.25</ele><time>2026-04-08T12:55:10Z</time></trkpt><trkpt lat="43.33569529279442" lon="11.476683994815065"><ele>274.5</ele><time>2026-04-08T12:55:11Z</time></trkpt><trkpt lat="43.33563703541172" lon="11.476517353378588"><ele>274.75</ele><time>2026-04-08T12:55:12Z</time></trkpt><trkpt lat="43.335571402022964" lon="11.476360725751624"><ele>275.0</ele><time>2026-04-08T12:55:13Z</time></trkpt><trkpt lat="43.335499469080055" lon="11.476187090998224"><ele>275.0</ele><time>2026-04-08T12:55:14Z</time></trkpt><trkpt lat="43.335414902176346" lon="11.475993975071564"><ele>275.0</ele><time>2026-04-08T12:55:15Z</time></trkpt><trkpt lat="43.33532828144142" lon="11.475780574180687"><ele>275.0</ele><time>2026-04-08T12:55:16Z</time></trkpt><trkpt lat="43.335245677775276" lon="11.47558150118138"><ele>274.33333333333337</ele><time>2026-04-08T12:55:17Z</time></trkpt><trkpt lat="43.33517502429383" lon="11.475397654668843"><ele>273.6666666666667</ele><time>2026-04-08T12:55:18Z</time></trkpt><trkpt lat="43.335106375940384" lon="11.475191102310385"><ele>273.0</ele><time>2026-04-08T12:55:19Z</time></trkpt><trkpt lat="43.33504603708967" lon="11.47496756505914"><ele>273.0</ele><time>2026-04-08T12:55:20Z</time></trkpt><trkpt lat="43.33500172719006" lon="11.474740067908343"><ele>273.0</ele><time>2026-04-08T12:55:21Z</time></trkpt><trkpt lat="43.33497724598159" lon="11.474529118440358"><ele>273.0</ele><time>2026-04-08T12:55:22Z</time></trkpt><trkpt lat="43.33495678766067" lon="11.474304383628342"><ele>272.6666666666667</ele><time>2026-04-08T12:55:23Z</time></trkpt><trkpt lat="43.334934018572554" lon="11.47406242568889"><ele>272.33333333333337</ele><time>2026-04-08T12:55:24Z</time></trkpt><trkpt lat="43.3349107351111" lon="11.473835546681055"><ele>272.0</ele><time>2026-04-08T12:55:25Z</time></trkpt><trkpt lat="43.33489089241064" lon="11.473636755844009"><ele>271.75</ele><time>2026-04-08T12:55:26Z</time></trkpt><trkpt lat="43.33487603280418" lon="11.473451655872534"><ele>271.5</ele><time>2026-04-08T12:55:27Z</time></trkpt><trkpt lat="43.33486565992965" lon="11.473279193853367"><ele>271.25</ele><time>2026-04-08T12:55:28Z</time></trkpt><trkpt lat="43.33486788720098" lon="11.47310880281373"><ele>271.0</ele><time>2026-04-08T12:55:29Z</time></trkpt><trkpt lat="43.33488630153012" lon="11.472929485023487"><ele>271.0</ele><time>2026-04-08T12:55:30Z</time></trkpt><trkpt lat="43.33492948627445" lon="11.472742827259903"><ele>271.0</ele><time>2026-04-08T12:55:31Z</time></trkpt><trkpt lat="43.33498073230114" lon="11.47255072442562"><ele>271.0</ele><time>2026-04-08T12:55:32Z</time></trkpt><trkpt lat="43.33502948222203" lon="11.472371624932228"><ele>271.0</ele><time>2026-04-08T12:55:33Z</time></trkpt><trkpt lat="43.335078615673616" lon="11.472215365189154"><ele>270.0</ele><time>2026-04-08T12:55:34Z</time></trkpt><trkpt lat="43.335131784943734" lon="11.472057694166635"><ele>269.0</ele><time>2026-04-08T12:55:35Z</time></trkpt><trkpt lat="43.33518709628668" lon="11.471914369466111"><ele>268.0</ele><time>2026-04-08T12:55:36Z</time></trkpt><trkpt lat="43.335238964566386" lon="11.471769841419269"><ele>267.0</ele><time>2026-04-08T12:55:37Z</time></trkpt><trkpt lat="43.33529917855848" lon="11.47160985286544"><ele>267.0</ele><time>2026-04-08T12:55:38Z</time></trkpt><trkpt lat="43.33537427792835" lon="11.471435009831472"><ele>267.0</ele><time>2026-04-08T12:55:39Z</time></trkpt><trkpt lat="43.335454781646014" lon="11.47127056343611"><ele>267.0</ele><time>2026-04-08T12:55:40Z</time></trkpt><trkpt lat="43.33553168240826" lon="11.471110093644336"><ele>267.0</ele><time>2026-04-08T12:55:41Z</time></trkpt><trkpt lat="43.335598281278365" lon="11.470953576384998"><ele>265.75</ele><time>2026-04-08T12:55:42Z</time></trkpt><trkpt lat="43.335663137435326" lon="11.470787722134594"><ele>264.5</ele><time>2026-04-08T12:55:43Z</time></trkpt><trkpt lat="43.335725654027826" lon="11.470621655818709"><ele>263.25</ele><time>2026-04-08T12:55:43.999Z</time></trkpt><trkpt lat="43.335772790819895" lon="11.470468714873082"><ele>262.0</ele><time>2026-04-08T12:55:44.999Z</time></trkpt><trkpt lat="43.33580681370221" lon="11.470308396855867"><ele>261.0</ele><time>2026-04-08T12:55:45.999Z</time></trkpt><trkpt lat="43.335821219474674" lon="11.470134815646293"><ele>260.0</ele><time>2026-04-08T12:55:46.999Z</time></trkpt><trkpt lat="43.33580805090751" lon="11.469948893494687"><ele>259.0</ele><time>2026-04-08T12:55:47.999Z</time></trkpt><trkpt lat="43.33577169317493" lon="11.469755422073744"><ele>258.0</ele><time>2026-04-08T12:55:48.999Z</time></trkpt><trkpt lat="43.33572363039941" lon="11.469562150620586"><ele>258.0</ele><time>2026-04-08T12:55:49.999Z</time></trkpt><trkpt lat="43.335666994502546" lon="11.469394969340563"><ele>258.0</ele><time>2026-04-08T12:55:50.999Z</time></trkpt><trkpt lat="43.33561092753824" lon="11.469242187804195"><ele>258.0</ele><time>2026-04-08T12:55:51.999Z</time></trkpt><trkpt lat="43.33554519206848" lon="11.469083090715104"><ele>258.0</ele><time>2026-04-08T12:55:52.999Z</time></trkpt><trkpt lat="43.33545920487681" lon="11.46892875815898"><ele>257.5</ele><time>2026-04-08T12:55:53.999Z</time></trkpt><trkpt lat="43.335366812522516" lon="11.468793771852223"><ele>257.0</ele><time>2026-04-08T12:55:54.999Z</time></trkpt><trkpt lat="43.33527819279462" lon="11.468666418342236"><ele>256.5</ele><time>2026-04-08T12:55:55.999Z</time></trkpt><trkpt lat="43.335184332209536" lon="11.468534031342896"><ele>256.0</ele><time>2026-04-08T12:55:56.999Z</time></trkpt><trkpt lat="43.33510507424416" lon="11.468408158624161"><ele>256.0</ele><time>2026-04-08T12:55:57.999Z</time></trkpt><trkpt lat="43.33502570546054" lon="11.468277580720864"><ele>256.0</ele><time>2026-04-08T12:55:58.999Z</time></trkpt><trkpt lat="43.334960916094566" lon="11.468138908757915"><ele>256.0</ele><time>2026-04-08T12:55:59.999Z</time></trkpt><trkpt lat="43.33491033149616" lon="11.468002180135851"><ele>256.0</ele><time>2026-04-08T12:56:00.999Z</time></trkpt><trkpt lat="43.33486421362188" lon="11.467873249135165"><ele>256.2</ele><time>2026-04-08T12:56:01.999Z</time></trkpt><trkpt lat="43.334832892050464" lon="11.467745731356763"><ele>256.40000000000003</ele><time>2026-04-08T12:56:02.999Z</time></trkpt><trkpt lat="43.33481134068839" lon="11.467617445690186"><ele>256.6</ele><time>2026-04-08T12:56:03.999Z</time></trkpt><trkpt lat="43.33479314346544" lon="11.467482281364616"><ele>256.8</ele><time>2026-04-08T12:56:04.999Z</time></trkpt><trkpt lat="43.3347826655541" lon="11.467356097920405"><ele>257.0</ele><time>2026-04-08T12:56:05.999Z</time></trkpt><trkpt lat="43.3347751543647" lon="11.467227847819366"><ele>255.39999999999998</ele><time>2026-04-08T12:56:06.999Z</time></trkpt><trkpt lat="43.33476269952022" lon="11.467102343733133"><ele>253.79999999999998</ele><time>2026-04-08T12:56:07.999Z</time></trkpt><trkpt lat="43.334749575879606" lon="11.466966893208541"><ele>252.2</ele><time>2026-04-08T12:56:08.999Z</time></trkpt><trkpt lat="43.334743407867485" lon="11.466826008653836"><ele>250.6</ele><time>2026-04-08T12:56:09.999Z</time></trkpt><trkpt lat="43.33474257849932" lon="11.466672598965143"><ele>249.0</ele><time>2026-04-08T12:56:10.999Z</time></trkpt><trkpt lat="43.334749958143796" lon="11.466509495800137"><ele>249.0</ele><time>2026-04-08T12:56:11.999Z</time></trkpt><trkpt lat="43.334765137353806" lon="11.466353798944098"><ele>249.0</ele><time>2026-04-08T12:56:12.999Z</time></trkpt><trkpt lat="43.33479302249896" lon="11.4662048281649"><ele>249.0</ele><time>2026-04-08T12:56:13.999Z</time></trkpt><trkpt lat="43.33483074468959" lon="11.466051887488467"><ele>249.0</ele><time>2026-04-08T12:56:14.999Z</time></trkpt><trkpt lat="43.33488132723473" lon="11.465884728979193"><ele>248.25</ele><time>2026-04-08T12:56:15.999Z</time></trkpt><trkpt lat="43.334932498863125" lon="11.465708531258933"><ele>247.5</ele><time>2026-04-08T12:56:16.999Z</time></trkpt><trkpt lat="43.334981461685715" lon="11.465522135290835"><ele>246.75</ele><time>2026-04-08T12:56:17.999Z</time></trkpt><trkpt lat="43.33503089349594" lon="11.465329546689565"><ele>246.0</ele><time>2026-04-08T12:56:18.999Z</time></trkpt><trkpt lat="43.33508209782759" lon="11.465121403312699"><ele>245.75</ele><time>2026-04-08T12:56:19.999Z</time></trkpt><trkpt lat="43.335128833953995" lon="11.464939416506864"><ele>245.5</ele><time>2026-04-08T12:56:20.999Z</time></trkpt><trkpt lat="43.3351707547592" lon="11.464769157556974"><ele>245.25</ele><time>2026-04-08T12:56:21.999Z</time></trkpt><trkpt lat="43.335215711369194" lon="11.464589763222095"><ele>245.0</ele><time>2026-04-08T12:56:22.999Z</time></trkpt><trkpt lat="43.33526122110568" lon="11.464404813279373"><ele>243.33333333333334</ele><time>2026-04-08T12:56:23.999Z</time></trkpt><trkpt lat="43.335310964205" lon="11.464214640333166"><ele>241.66666666666669</ele><time>2026-04-08T12:56:24.999Z</time></trkpt><trkpt lat="43.33536588716188" lon="11.464001880879934"><ele>240.0</ele><time>2026-04-08T12:56:25.999Z</time></trkpt><trkpt lat="43.335426237089884" lon="11.463788284039751"><ele>240.33333333333331</ele><time>2026-04-08T12:56:26.999Z</time></trkpt><trkpt lat="43.33549877597857" lon="11.46356464267971"><ele>240.66666666666666</ele><time>2026-04-08T12:56:27.999Z</time></trkpt><trkpt lat="43.33557384378534" lon="11.463367904169937"><ele>241.0</ele><time>2026-04-08T12:56:28.999Z</time></trkpt><trkpt lat="43.33564799091788" lon="11.463189902368294"><ele>239.33333333333331</ele><time>2026-04-08T12:56:29.999Z</time></trkpt><trkpt lat="43.33572096044958" lon="11.463017227450353"><ele>237.66666666666669</ele><time>2026-04-08T12:56:30.999Z</time></trkpt><trkpt lat="43.33578835254532" lon="11.46282891144544"><ele>236.0</ele><time>2026-04-08T12:56:31.999Z</time></trkpt><trkpt lat="43.335845803326436" lon="11.462632459012475"><ele>238.75</ele><time>2026-04-08T12:56:32.999Z</time></trkpt><trkpt lat="43.3358893511206" lon="11.462443669122395"><ele>241.5</ele><time>2026-04-08T12:56:33.999Z</time></trkpt><trkpt lat="43.33591291120228" lon="11.462288802241057"><ele>244.25</ele><time>2026-04-08T12:56:35Z</time></trkpt><trkpt lat="43.33593397295565" lon="11.462144788848262"><ele>247.0</ele><time>2026-04-08T12:56:36Z</time></trkpt><trkpt lat="43.33594265982388" lon="11.461997411326163"><ele>247.5</ele><time>2026-04-08T12:56:37Z</time></trkpt><trkpt lat="43.33595458922255" lon="11.461816633387198"><ele>248.0</ele><time>2026-04-08T12:56:38Z</time></trkpt><trkpt lat="43.33596465565766" lon="11.461613932446491"><ele>248.5</ele><time>2026-04-08T12:56:39Z</time></trkpt><trkpt lat="43.335968855540294" lon="11.461400659617324"><ele>249.0</ele><time>2026-04-08T12:56:40Z</time></trkpt><trkpt lat="43.33597976818776" lon="11.46118166810301"><ele>248.0</ele><time>2026-04-08T12:56:41Z</time></trkpt><trkpt lat="43.33598923587694" lon="11.460987427804394"><ele>247.0</ele><time>2026-04-08T12:56:42Z</time></trkpt><trkpt lat="43.336001058445476" lon="11.46081777241042"><ele>246.0</ele><time>2026-04-08T12:56:43Z</time></trkpt><trkpt lat="43.33602081671185" lon="11.460637663270603"><ele>245.0</ele><time>2026-04-08T12:56:44Z</time></trkpt><trkpt lat="43.336049176954454" lon="11.460439929777953"><ele>244.25</ele><time>2026-04-08T12:56:45Z</time></trkpt><trkpt lat="43.33607722718303" lon="11.460237872427149"><ele>243.5</ele><time>2026-04-08T12:56:46Z</time></trkpt><trkpt lat="43.33610318453921" lon="11.460050648671697"><ele>242.75</ele><time>2026-04-08T12:56:47Z</time></trkpt><trkpt lat="43.3361178476006" lon="11.459865146778553"><ele>242.0</ele><time>2026-04-08T12:56:48Z</time></trkpt><trkpt lat="43.33611691675708" lon="11.45966709724625"><ele>242.0</ele><time>2026-04-08T12:56:49Z</time></trkpt><trkpt lat="43.33610670793263" lon="11.459455208436111"><ele>242.0</ele><time>2026-04-08T12:56:50Z</time></trkpt><trkpt lat="43.33608756594707" lon="11.459272225234931"><ele>242.0</ele><time>2026-04-08T12:56:51Z</time></trkpt><trkpt lat="43.33604929795087" lon="11.459106997881726"><ele>242.0</ele><time>2026-04-08T12:56:52Z</time></trkpt><trkpt lat="43.33601952326032" lon="11.45894941618867"><ele>242.0</ele><time>2026-04-08T12:56:53Z</time></trkpt><trkpt lat="43.336018382859386" lon="11.458794929606716"><ele>242.0</ele><time>2026-04-08T12:56:54Z</time></trkpt><trkpt lat="43.336054617661794" lon="11.458632148922124"><ele>242.0</ele><time>2026-04-08T12:56:55Z</time></trkpt><trkpt lat="43.336116986993815" lon="11.458498256450524"><ele>242.0</ele><time>2026-04-08T12:56:56Z</time></trkpt><trkpt lat="43.33617535919186" lon="11.458371611628666"><ele>242.0</ele><time>2026-04-08T12:56:57Z</time></trkpt><trkpt lat="43.33622056071178" lon="11.458216433250396"><ele>242.0</ele><time>2026-04-08T12:56:58Z</time></trkpt><trkpt lat="43.33624571089365" lon="11.458029743353082"><ele>242.0</ele><time>2026-04-08T12:56:59Z</time></trkpt><trkpt lat="43.33626802821932" lon="11.457836709470856"><ele>242.0</ele><time>2026-04-08T12:57:00Z</time></trkpt><trkpt lat="43.33629194177629" lon="11.45768032502934"><ele>242.0</ele><time>2026-04-08T12:57:01Z</time></trkpt><trkpt lat="43.336327697043096" lon="11.457534033745567"><ele>242.0</ele><time>2026-04-08T12:57:02Z</time></trkpt><trkpt lat="43.336361175156355" lon="11.457381892024333"><ele>242.0</ele><time>2026-04-08T12:57:03Z</time></trkpt><trkpt lat="43.33638910544409" lon="11.457222336850519"><ele>242.0</ele><time>2026-04-08T12:57:04Z</time></trkpt><trkpt lat="43.33639838946068" lon="11.457045013330891"><ele>240.5</ele><time>2026-04-08T12:57:05Z</time></trkpt><trkpt lat="43.3363874257406" lon="11.456848082672359"><ele>239.0</ele><time>2026-04-08T12:57:06Z</time></trkpt><trkpt lat="43.336360986183756" lon="11.456665063129844"><ele>237.5</ele><time>2026-04-08T12:57:07Z</time></trkpt><trkpt lat="43.33633923475755" lon="11.456496983186826"><ele>236.0</ele><time>2026-04-08T12:57:08Z</time></trkpt><trkpt lat="43.33633563884217" lon="11.456318797478819"><ele>235.75</ele><time>2026-04-08T12:57:09Z</time></trkpt><trkpt lat="43.336361121708755" lon="11.456156540502215"><ele>235.5</ele><time>2026-04-08T12:57:10Z</time></trkpt><trkpt lat="43.33640168837446" lon="11.456009186841232"><ele>235.25</ele><time>2026-04-08T12:57:11Z</time></trkpt><trkpt lat="43.336455811348635" lon="11.455849994517752"><ele>235.0</ele><time>2026-04-08T12:57:12Z</time></trkpt><trkpt lat="43.336517952062984" lon="11.455662516571136"><ele>234.5</ele><time>2026-04-08T12:57:13Z</time></trkpt><trkpt lat="43.33658165639414" lon="11.455480557193937"><ele>234.0</ele><time>2026-04-08T12:57:14Z</time></trkpt><trkpt lat="43.33664338535493" lon="11.455300609478252"><ele>233.5</ele><time>2026-04-08T12:57:15Z</time></trkpt><trkpt lat="43.33669504088889" lon="11.455138020614928"><ele>233.0</ele><time>2026-04-08T12:57:16Z</time></trkpt><trkpt lat="43.336743013937834" lon="11.454978913143295"><ele>232.5</ele><time>2026-04-08T12:57:17Z</time></trkpt><trkpt lat="43.3367927587229" lon="11.454821371144076"><ele>232.0</ele><time>2026-04-08T12:57:18Z</time></trkpt><trkpt lat="43.33682764693284" lon="11.454675882778554"><ele>231.5</ele><time>2026-04-08T12:57:19Z</time></trkpt><trkpt lat="43.33684992998997" lon="11.454508837668417"><ele>231.0</ele><time>2026-04-08T12:57:20Z</time></trkpt><trkpt lat="43.336849918193714" lon="11.45430907039103"><ele>231.0</ele><time>2026-04-08T12:57:21Z</time></trkpt><trkpt lat="43.3368494556808" lon="11.45409990792606"><ele>231.0</ele><time>2026-04-08T12:57:22Z</time></trkpt><trkpt lat="43.3368641232103" lon="11.453917805709901"><ele>231.0</ele><time>2026-04-08T12:57:23Z</time></trkpt><trkpt lat="43.336883160641655" lon="11.453758841890158"><ele>231.0</ele><time>2026-04-08T12:57:24Z</time></trkpt><trkpt lat="43.33688891641275" lon="11.453611709548609"><ele>231.0</ele><time>2026-04-08T12:57:25Z</time></trkpt><trkpt lat="43.33687563797773" lon="11.453468115669937"><ele>231.0</ele><time>2026-04-08T12:57:26Z</time></trkpt><trkpt lat="43.33684033150949" lon="11.453333313522085"><ele>231.0</ele><time>2026-04-08T12:57:27Z</time></trkpt><trkpt lat="43.33678354041215" lon="11.453181263878927"><ele>231.0</ele><time>2026-04-08T12:57:28Z</time></trkpt><trkpt lat="43.336715739632055" lon="11.453012900305987"><ele>230.33333333333331</ele><time>2026-04-08T12:57:29Z</time></trkpt><trkpt lat="43.33664920410134" lon="11.452834978659695"><ele>229.66666666666666</ele><time>2026-04-08T12:57:30Z</time></trkpt><trkpt lat="43.33658298071992" lon="11.452642965171743"><ele>229.0</ele><time>2026-04-08T12:57:31Z</time></trkpt><trkpt lat="43.33651571010446" lon="11.452458656533338"><ele>229.0</ele><time>2026-04-08T12:57:32Z</time></trkpt><trkpt lat="43.33644651715685" lon="11.452286709105296"><ele>229.0</ele><time>2026-04-08T12:57:33Z</time></trkpt><trkpt lat="43.33638425315213" lon="11.452127144464558"><ele>229.0</ele><time>2026-04-08T12:57:34Z</time></trkpt><trkpt lat="43.33631836226219" lon="11.451960947602947"><ele>229.0</ele><time>2026-04-08T12:57:35Z</time></trkpt><trkpt lat="43.33624961973849" lon="11.45178518666071"><ele>227.0</ele><time>2026-04-08T12:57:36Z</time></trkpt><trkpt lat="43.33618562229603" lon="11.451623734974678"><ele>225.0</ele><time>2026-04-08T12:57:37Z</time></trkpt><trkpt lat="43.3361245116344" lon="11.451479686236532"><ele>223.0</ele><time>2026-04-08T12:57:38Z</time></trkpt><trkpt lat="43.336055803149954" lon="11.451343630941984"><ele>221.0</ele><time>2026-04-08T12:57:39Z</time></trkpt><trkpt lat="43.33596370458312" lon="11.451225259080513"><ele>220.75</ele><time>2026-04-08T12:57:40Z</time></trkpt><trkpt lat="43.335846688253014" lon="11.451135671921516"><ele>220.5</ele><time>2026-04-08T12:57:41Z</time></trkpt><trkpt lat="43.33572938409633" lon="11.451077542612104"><ele>220.25</ele><time>2026-04-08T12:57:42Z</time></trkpt><trkpt lat="43.33562797318142" lon="11.450998323435261"><ele>220.0</ele><time>2026-04-08T12:57:43Z</time></trkpt><trkpt lat="43.33552519483056" lon="11.450943612806965"><ele>218.4</ele><time>2026-04-08T12:57:44Z</time></trkpt><trkpt lat="43.33545546379434" lon="11.450841675483968"><ele>216.8</ele><time>2026-04-08T12:57:45Z</time></trkpt><trkpt lat="43.33542606683711" lon="11.450724308756577"><ele>215.2</ele><time>2026-04-08T12:57:46Z</time></trkpt><trkpt lat="43.33543866672477" lon="11.450599957257996"><ele>213.6</ele><time>2026-04-08T12:57:47Z</time></trkpt><trkpt lat="43.33549072003311" lon="11.450491286176304"><ele>212.0</ele><time>2026-04-08T12:57:48Z</time></trkpt><trkpt lat="43.33557078694366" lon="11.450388507626961"><ele>212.0</ele><time>2026-04-08T12:57:49Z</time></trkpt><trkpt lat="43.33567179191644" lon="11.450255084343295"><ele>212.0</ele><time>2026-04-08T12:57:50Z</time></trkpt><trkpt lat="43.33576074126751" lon="11.450133505154172"><ele>212.0</ele><time>2026-04-08T12:57:51Z</time></trkpt><trkpt lat="43.33584139795875" lon="11.450029197666694"><ele>212.0</ele><time>2026-04-08T12:57:51.999Z</time></trkpt><trkpt lat="43.33593580192033" lon="11.44995643984629"><ele>212.0</ele><time>2026-04-08T12:57:52.999Z</time></trkpt><trkpt lat="43.33603144601699" lon="11.449903681920631"><ele>212.0</ele><time>2026-04-08T12:57:53.999Z</time></trkpt><trkpt lat="43.33612765200781" lon="11.449929964385108"><ele>212.0</ele><time>2026-04-08T12:57:54.999Z</time></trkpt><trkpt lat="43.33621769855628" lon="11.449919983028808"><ele>212.0</ele><time>2026-04-08T12:57:55.999Z</time></trkpt><trkpt lat="43.33630051417222" lon="11.449911892460417"><ele>212.0</ele><time>2026-04-08T12:57:56.999Z</time></trkpt><trkpt lat="43.33637376032534" lon="11.449855656228683"><ele>211.6</ele><time>2026-04-08T12:57:57.999Z</time></trkpt><trkpt lat="43.33641119428706" lon="11.449756387772275"><ele>211.2</ele><time>2026-04-08T12:57:58.999Z</time></trkpt><trkpt lat="43.336441459993154" lon="11.449627754354704"><ele>210.8</ele><time>2026-04-08T12:57:59.999Z</time></trkpt><trkpt lat="43.33646442914652" lon="11.449481341196012"><ele>210.4</ele><time>2026-04-08T12:58:00.999Z</time></trkpt><trkpt lat="43.33648701139663" lon="11.449334286862321"><ele>210.0</ele><time>2026-04-08T12:58:01.999Z</time></trkpt><trkpt lat="43.33650409419165" lon="11.449190618522525"><ele>210.0</ele><time>2026-04-08T12:58:02.999Z</time></trkpt><trkpt lat="43.336511145848945" lon="11.449046604993745"><ele>210.0</ele><time>2026-04-08T12:58:03.999Z</time></trkpt><trkpt lat="43.33649347931448" lon="11.448890269915857"><ele>210.0</ele><time>2026-04-08T12:58:04.999Z</time></trkpt><trkpt lat="43.33644479052672" lon="11.448737890180986"><ele>210.0</ele><time>2026-04-08T12:58:05.999Z</time></trkpt><trkpt lat="43.33637162461466" lon="11.448573769329451"><ele>209.25</ele><time>2026-04-08T12:58:06.999Z</time></trkpt><trkpt lat="43.336286112135795" lon="11.448395998536816"><ele>208.5</ele><time>2026-04-08T12:58:07.999Z</time></trkpt><trkpt lat="43.33621723260573" lon="11.44826349650998"><ele>207.75</ele><time>2026-04-08T12:58:08.999Z</time></trkpt><trkpt lat="43.33616916768114" lon="11.448153149877744"><ele>207.0</ele><time>2026-04-08T12:58:09.999Z</time></trkpt><trkpt lat="43.33614415096283" lon="11.448041965334898"><ele>207.0</ele><time>2026-04-08T12:58:10.999Z</time></trkpt><trkpt lat="43.33616313466557" lon="11.447917707509998"><ele>207.0</ele><time>2026-04-08T12:58:11.999Z</time></trkpt><trkpt lat="43.3362148404219" lon="11.447788400136934"><ele>207.0</ele><time>2026-04-08T12:58:12.999Z</time></trkpt><trkpt lat="43.33628614420557" lon="11.447645888260395"><ele>207.0</ele><time>2026-04-08T12:58:13.999Z</time></trkpt><trkpt lat="43.33635792503875" lon="11.44748119941516"><ele>207.25</ele><time>2026-04-08T12:58:14.999Z</time></trkpt><trkpt lat="43.336418882338656" lon="11.447311843398255"><ele>207.5</ele><time>2026-04-08T12:58:15.999Z</time></trkpt><trkpt lat="43.33646270832181" lon="11.447153165496681"><ele>207.75</ele><time>2026-04-08T12:58:16.999Z</time></trkpt><trkpt lat="43.33648828436891" lon="11.446976086669311"><ele>208.0</ele><time>2026-04-08T12:58:17.999Z</time></trkpt><trkpt lat="43.33648289881313" lon="11.44678840438474"><ele>208.25</ele><time>2026-04-08T12:58:18.999Z</time></trkpt><trkpt lat="43.33645207983543" lon="11.446602857575577"><ele>208.5</ele><time>2026-04-08T12:58:19.999Z</time></trkpt><trkpt lat="43.336410217844026" lon="11.446443339183263"><ele>208.75</ele><time>2026-04-08T12:58:20.999Z</time></trkpt><trkpt lat="43.33636325161038" lon="11.446262021605802"><ele>209.0</ele><time>2026-04-08T12:58:21.999Z</time></trkpt><trkpt lat="43.336318003882106" lon="11.446056772983178"><ele>210.66666666666669</ele><time>2026-04-08T12:58:22.999Z</time></trkpt><trkpt lat="43.33627748714437" lon="11.445842351999598"><ele>212.33333333333331</ele><time>2026-04-08T12:58:23.999Z</time></trkpt><trkpt lat="43.33622937542818" lon="11.445620433777734"><ele>214.0</ele><time>2026-04-08T12:58:24.999Z</time></trkpt><trkpt lat="43.3361525517722" lon="11.445411290502129"><ele>216.33333333333331</ele><time>2026-04-08T12:58:25.999Z</time></trkpt><trkpt lat="43.33605771347264" lon="11.445214447378877"><ele>218.66666666666669</ele><time>2026-04-08T12:58:26.999Z</time></trkpt><trkpt lat="43.33597449367205" lon="11.44505355835761"><ele>221.0</ele><time>2026-04-08T12:58:27.999Z</time></trkpt><trkpt lat="43.33589753538204" lon="11.444896410332081"><ele>221.0</ele><time>2026-04-08T12:58:28.999Z</time></trkpt><trkpt lat="43.33581388976407" lon="11.444723201926513"><ele>221.0</ele><time>2026-04-08T12:58:29.999Z</time></trkpt><trkpt lat="43.33572688189437" lon="11.444552822066447"><ele>221.0</ele><time>2026-04-08T12:58:30.999Z</time></trkpt><trkpt lat="43.335638699439826" lon="11.44437828526003"><ele>221.33333333333334</ele><time>2026-04-08T12:58:31.999Z</time></trkpt><trkpt lat="43.33554373960897" lon="11.444204010440954"><ele>221.66666666666669</ele><time>2026-04-08T12:58:32.999Z</time></trkpt><trkpt lat="43.33544693966861" lon="11.444027557191758"><ele>222.0</ele><time>2026-04-08T12:58:33.999Z</time></trkpt><trkpt lat="43.33536594597387" lon="11.443879098715248"><ele>221.8</ele><time>2026-04-08T12:58:34.999Z</time></trkpt><trkpt lat="43.33529704131105" lon="11.443747673710943"><ele>221.6</ele><time>2026-04-08T12:58:35.999Z</time></trkpt><trkpt lat="43.33523994607997" lon="11.443635362577389"><ele>221.40000000000003</ele><time>2026-04-08T12:58:36.999Z</time></trkpt><trkpt lat="43.335195938694326" lon="11.44352867486878"><ele>221.20000000000002</ele><time>2026-04-08T12:58:37.999Z</time></trkpt><trkpt lat="43.33516568773982" lon="11.443410142455008"><ele>221.0</ele><time>2026-04-08T12:58:38.999Z</time></trkpt><trkpt lat="43.33514777751145" lon="11.443283664450938"><ele>221.0</ele><time>2026-04-08T12:58:39.999Z</time></trkpt><trkpt lat="43.33513623484007" lon="11.443134494485777"><ele>221.0</ele><time>2026-04-08T12:58:41Z</time></trkpt><trkpt lat="43.33514687559811" lon="11.442965104936473"><ele>221.0</ele><time>2026-04-08T12:58:42Z</time></trkpt><trkpt lat="43.33518385426855" lon="11.44278986454851"><ele>221.0</ele><time>2026-04-08T12:58:43Z</time></trkpt><trkpt lat="43.33523577819098" lon="11.442604976640212"><ele>218.75</ele><time>2026-04-08T12:58:44Z</time></trkpt><trkpt lat="43.33528047509587" lon="11.442429828922593"><ele>216.5</ele><time>2026-04-08T12:58:45Z</time></trkpt><trkpt lat="43.335311405804326" lon="11.442261635088236"><ele>214.25</ele><time>2026-04-08T12:58:46Z</time></trkpt><trkpt lat="43.33532673958282" lon="11.442102401224247"><ele>212.0</ele><time>2026-04-08T12:58:47Z</time></trkpt><trkpt lat="43.33533292657808" lon="11.441954135760568"><ele>212.0</ele><time>2026-04-08T12:58:48Z</time></trkpt><trkpt lat="43.335316790565585" lon="11.441820156879537"><ele>212.0</ele><time>2026-04-08T12:58:49Z</time></trkpt><trkpt lat="43.33527780825594" lon="11.441700881006536"><ele>212.0</ele><time>2026-04-08T12:58:50Z</time></trkpt><trkpt lat="43.335210865495476" lon="11.441570914913566"><ele>212.0</ele><time>2026-04-08T12:58:51Z</time></trkpt><trkpt lat="43.33515060080604" lon="11.441402509219438"><ele>212.0</ele><time>2026-04-08T12:58:52Z</time></trkpt><trkpt lat="43.33512695327537" lon="11.441233000287161"><ele>213.75</ele><time>2026-04-08T12:58:53Z</time></trkpt><trkpt lat="43.33513508890644" lon="11.441076567243602"><ele>215.5</ele><time>2026-04-08T12:58:54Z</time></trkpt><trkpt lat="43.33515503740281" lon="11.44091344601754"><ele>217.25</ele><time>2026-04-08T12:58:55Z</time></trkpt><trkpt lat="43.33515772048081" lon="11.44073231431455"><ele>219.0</ele><time>2026-04-08T12:58:56Z</time></trkpt><trkpt lat="43.33513603451486" lon="11.440527924761422"><ele>221.0</ele><time>2026-04-08T12:58:57Z</time></trkpt><trkpt lat="43.335091526403" lon="11.440303564725872"><ele>223.0</ele><time>2026-04-08T12:58:58Z</time></trkpt><trkpt lat="43.33503121271548" lon="11.440067896108944"><ele>225.0</ele><time>2026-04-08T12:58:59Z</time></trkpt><trkpt lat="43.33496003111015" lon="11.43985978290637"><ele>225.0</ele><time>2026-04-08T12:59:00Z</time></trkpt><trkpt lat="43.33489534832548" lon="11.43970387797796"><ele>225.0</ele><time>2026-04-08T12:59:01Z</time></trkpt><trkpt lat="43.334827286001975" lon="11.439566253249593"><ele>225.0</ele><time>2026-04-08T12:59:02Z</time></trkpt><trkpt lat="43.334752326465505" lon="11.43941043575236"><ele>225.0</ele><time>2026-04-08T12:59:03Z</time></trkpt><trkpt lat="43.33467798792157" lon="11.439247239618128"><ele>226.4</ele><time>2026-04-08T12:59:04Z</time></trkpt><trkpt lat="43.33459492309314" lon="11.439090446671356"><ele>227.8</ele><time>2026-04-08T12:59:05Z</time></trkpt><trkpt lat="43.33452630036348" lon="11.438969952554148"><ele>229.2</ele><time>2026-04-08T12:59:06Z</time></trkpt><trkpt lat="43.334482626681854" lon="11.438875915342948"><ele>230.6</ele><time>2026-04-08T12:59:07Z</time></trkpt><trkpt lat="43.33441435454876" lon="11.43879985179705"><ele>232.0</ele><time>2026-04-08T12:59:08Z</time></trkpt><trkpt lat="43.33431682969501" lon="11.43874433755655"><ele>232.0</ele><time>2026-04-08T12:59:09Z</time></trkpt><trkpt lat="43.33420380520008" lon="11.438703144082092"><ele>232.0</ele><time>2026-04-08T12:59:10Z</time></trkpt><trkpt lat="43.33408954646743" lon="11.43866053304876"><ele>232.0</ele><time>2026-04-08T12:59:11Z</time></trkpt><trkpt lat="43.33397713690329" lon="11.438592557300181"><ele>232.0</ele><time>2026-04-08T12:59:12Z</time></trkpt><trkpt lat="43.33387815802309" lon="11.43848183576734"><ele>233.0</ele><time>2026-04-08T12:59:13Z</time></trkpt><trkpt lat="43.33378873325364" lon="11.438338126662908"><ele>234.0</ele><time>2026-04-08T12:59:14Z</time></trkpt><trkpt lat="43.33373400872023" lon="11.43819089861824"><ele>235.0</ele><time>2026-04-08T12:59:15Z</time></trkpt><trkpt lat="43.333701642698095" lon="11.438020061647341"><ele>236.0</ele><time>2026-04-08T12:59:16Z</time></trkpt><trkpt lat="43.33368920699761" lon="11.437823549550851"><ele>236.8</ele><time>2026-04-08T12:59:17Z</time></trkpt><trkpt lat="43.33368398622114" lon="11.437630944559679"><ele>237.60000000000002</ele><time>2026-04-08T12:59:18Z</time></trkpt><trkpt lat="43.333683940732726" lon="11.437488291424208"><ele>238.4</ele><time>2026-04-08T12:59:19Z</time></trkpt><trkpt lat="43.33367929845692" lon="11.437371553004818"><ele>239.2</ele><time>2026-04-08T12:59:20Z</time></trkpt><trkpt lat="43.333673950944906" lon="11.43725411396883"><ele>240.0</ele><time>2026-04-08T12:59:21Z</time></trkpt><trkpt lat="43.33366587251225" lon="11.437136539386804"><ele>240.6</ele><time>2026-04-08T12:59:22Z</time></trkpt><trkpt lat="43.333646577521556" lon="11.437013453186491"><ele>241.2</ele><time>2026-04-08T12:59:23Z</time></trkpt><trkpt lat="43.33362608408107" lon="11.436889181096964"><ele>241.8</ele><time>2026-04-08T12:59:24Z</time></trkpt><trkpt lat="43.333605201411196" lon="11.436755816027416"><ele>242.4</ele><time>2026-04-08T12:59:25Z</time></trkpt><trkpt lat="43.33358707948698" lon="11.436607865031347"><ele>243.0</ele><time>2026-04-08T12:59:26Z</time></trkpt><trkpt lat="43.333572507958415" lon="11.436442160499617"><ele>242.75</ele><time>2026-04-08T12:59:27Z</time></trkpt><trkpt lat="43.333561284412745" lon="11.436272550576968"><ele>242.5</ele><time>2026-04-08T12:59:28Z</time></trkpt><trkpt lat="43.33355203258273" lon="11.436108603511721"><ele>242.25</ele><time>2026-04-08T12:59:29Z</time></trkpt><trkpt lat="43.33354111382276" lon="11.43596644729332"><ele>242.0</ele><time>2026-04-08T12:59:30Z</time></trkpt><trkpt lat="43.33353435719539" lon="11.435822195620862"><ele>242.0</ele><time>2026-04-08T12:59:31Z</time></trkpt><trkpt lat="43.33353047409381" lon="11.435688679184365"><ele>242.0</ele><time>2026-04-08T12:59:32Z</time></trkpt><trkpt lat="43.33355650633069" lon="11.435552457708363"><ele>242.0</ele><time>2026-04-08T12:59:33Z</time></trkpt><trkpt lat="43.33359391075659" lon="11.435412259961524"><ele>242.0</ele><time>2026-04-08T12:59:34Z</time></trkpt><trkpt lat="43.3336503672497" lon="11.435276271142692"><ele>242.0</ele><time>2026-04-08T12:59:35Z</time></trkpt><trkpt lat="43.333713292526994" lon="11.435136982707299"><ele>242.25</ele><time>2026-04-08T12:59:36Z</time></trkpt><trkpt lat="43.333768615245475" lon="11.434991353549668"><ele>242.5</ele><time>2026-04-08T12:59:37Z</time></trkpt><trkpt lat="43.33380930141765" lon="11.434840063709037"><ele>242.75</ele><time>2026-04-08T12:59:38Z</time></trkpt><trkpt lat="43.33384258613175" lon="11.434687598695476"><ele>243.0</ele><time>2026-04-08T12:59:39Z</time></trkpt><trkpt lat="43.33387237443429" lon="11.434553920739429"><ele>243.0</ele><time>2026-04-08T12:59:40Z</time></trkpt><trkpt lat="43.33389775635086" lon="11.434433619368477"><ele>243.0</ele><time>2026-04-08T12:59:41Z</time></trkpt><trkpt lat="43.33391392320424" lon="11.434320264096757"><ele>243.0</ele><time>2026-04-08T12:59:42Z</time></trkpt><trkpt lat="43.333916385622196" lon="11.434200431220443"><ele>243.0</ele><time>2026-04-08T12:59:43Z</time></trkpt><trkpt lat="43.333899742645265" lon="11.434073338234331"><ele>243.0</ele><time>2026-04-08T12:59:44Z</time></trkpt><trkpt lat="43.33385794313914" lon="11.433939424935145"><ele>243.0</ele><time>2026-04-08T12:59:45Z</time></trkpt><trkpt lat="43.333803439491184" lon="11.433821084757014"><ele>243.0</ele><time>2026-04-08T12:59:46Z</time></trkpt><trkpt lat="43.333749466363955" lon="11.433716046107664"><ele>243.0</ele><time>2026-04-08T12:59:47Z</time></trkpt><trkpt lat="43.33370766972672" lon="11.433624093745793"><ele>243.0</ele><time>2026-04-08T12:59:48Z</time></trkpt><trkpt lat="43.33366941168636" lon="11.433548109813504"><ele>243.0</ele><time>2026-04-08T12:59:49Z</time></trkpt><trkpt lat="43.33360585364815" lon="11.433418165111188"><ele>244.4</ele><time>2026-04-08T12:59:51Z</time></trkpt><trkpt lat="43.33357083710943" lon="11.433334570342465"><ele>245.8</ele><time>2026-04-08T12:59:53Z</time></trkpt><trkpt lat="43.33364428338858" lon="11.433204445210347"><ele>247.2</ele><time>2026-04-08T12:59:55.999Z</time></trkpt><trkpt lat="43.333707583296636" lon="11.433180561166203"><ele>248.6</ele><time>2026-04-08T12:59:56.999Z</time></trkpt><trkpt lat="43.333799310034" lon="11.433143933308841"><ele>250.0</ele><time>2026-04-08T12:59:57.999Z</time></trkpt><trkpt lat="43.33389323226031" lon="11.433096833464004"><ele>250.0</ele><time>2026-04-08T12:59:58.999Z</time></trkpt><trkpt lat="43.33398528969065" lon="11.433043832272354"><ele>250.0</ele><time>2026-04-08T12:59:59.999Z</time></trkpt><trkpt lat="43.33409467591968" lon="11.432981637326758"><ele>250.0</ele><time>2026-04-08T13:00:00.999Z</time></trkpt><trkpt lat="43.33419995042203" lon="11.432922059487245"><ele>250.0</ele><time>2026-04-08T13:00:01.999Z</time></trkpt><trkpt lat="43.334318302492896" lon="11.432851768886145"><ele>250.25</ele><time>2026-04-08T13:00:02.999Z</time></trkpt><trkpt lat="43.3344404796943" lon="11.432785664259633"><ele>250.5</ele><time>2026-04-08T13:00:03.999Z</time></trkpt><trkpt lat="43.33456292104469" lon="11.432719520783804"><ele>250.75</ele><time>2026-04-08T13:00:04.999Z</time></trkpt><trkpt lat="43.33468973315485" lon="11.432648315794788"><ele>251.0</ele><time>2026-04-08T13:00:05.999Z</time></trkpt><trkpt lat="43.33481980719238" lon="11.432575893858921"><ele>251.25</ele><time>2026-04-08T13:00:06.999Z</time></trkpt><trkpt lat="43.334941279270886" lon="11.432510095025691"><ele>251.5</ele><time>2026-04-08T13:00:07.999Z</time></trkpt><trkpt lat="43.33507055919238" lon="11.432441114927466"><ele>251.75</ele><time>2026-04-08T13:00:08.999Z</time></trkpt><trkpt lat="43.33520057105733" lon="11.432367929483213"><ele>252.0</ele><time>2026-04-08T13:00:09.999Z</time></trkpt><trkpt lat="43.33533346086055" lon="11.432289653881062"><ele>252.0</ele><time>2026-04-08T13:00:10.999Z</time></trkpt><trkpt lat="43.33547111806657" lon="11.4322129973218"><ele>252.0</ele><time>2026-04-08T13:00:11.999Z</time></trkpt><trkpt lat="43.33560764992918" lon="11.432141487818123"><ele>252.0</ele><time>2026-04-08T13:00:12.999Z</time></trkpt><trkpt lat="43.33572822976266" lon="11.432073891918963"><ele>252.0</ele><time>2026-04-08T13:00:13.999Z</time></trkpt><trkpt lat="43.33584066563878" lon="11.432008530885282"><ele>253.0</ele><time>2026-04-08T13:00:14.999Z</time></trkpt><trkpt lat="43.335946275652724" lon="11.431947907642986"><ele>254.0</ele><time>2026-04-08T13:00:15.999Z</time></trkpt><trkpt lat="43.33606007781675" lon="11.431885346859254"><ele>255.0</ele><time>2026-04-08T13:00:16.999Z</time></trkpt><trkpt lat="43.33618324759452" lon="11.431816826804573"><ele>256.0</ele><time>2026-04-08T13:00:17.999Z</time></trkpt><trkpt lat="43.33631648051263" lon="11.431746423886398"><ele>254.66666666666666</ele><time>2026-04-08T13:00:18.999Z</time></trkpt><trkpt lat="43.33645776993125" lon="11.431669168793613"><ele>253.33333333333331</ele><time>2026-04-08T13:00:19.999Z</time></trkpt><trkpt lat="43.33660832454601" lon="11.431586945483623"><ele>252.0</ele><time>2026-04-08T13:00:20.999Z</time></trkpt><trkpt lat="43.336748972614835" lon="11.431514376848659"><ele>252.0</ele><time>2026-04-08T13:00:21.999Z</time></trkpt><trkpt lat="43.33688396326064" lon="11.431454420432706"><ele>252.0</ele><time>2026-04-08T13:00:22.999Z</time></trkpt><trkpt lat="43.33701777661871" lon="11.431409143703558"><ele>252.0</ele><time>2026-04-08T13:00:23.999Z</time></trkpt><trkpt lat="43.337160824364425" lon="11.43138497804072"><ele>252.0</ele><time>2026-04-08T13:00:24.999Z</time></trkpt><trkpt lat="43.337311327111024" lon="11.43140386609642"><ele>250.66666666666669</ele><time>2026-04-08T13:00:25.999Z</time></trkpt><trkpt lat="43.337467894614555" lon="11.431405542406631"><ele>249.33333333333334</ele><time>2026-04-08T13:00:26.999Z</time></trkpt><trkpt lat="43.33763222367631" lon="11.431408159114447"><ele>248.0</ele><time>2026-04-08T13:00:27.999Z</time></trkpt><trkpt lat="43.337785965124205" lon="11.431411588102558"><ele>248.0</ele><time>2026-04-08T13:00:28.999Z</time></trkpt><trkpt lat="43.337928260748164" lon="11.431415450192475"><ele>248.0</ele><time>2026-04-08T13:00:29.999Z</time></trkpt><trkpt lat="43.33806952197476" lon="11.431421865815874"><ele>248.0</ele><time>2026-04-08T13:00:30.999Z</time></trkpt><trkpt lat="43.33821501607947" lon="11.431441613145056"><ele>248.0</ele><time>2026-04-08T13:00:31.999Z</time></trkpt><trkpt lat="43.33836942492837" lon="11.431500834733884"><ele>248.66666666666669</ele><time>2026-04-08T13:00:32.999Z</time></trkpt><trkpt lat="43.33851006647386" lon="11.431618080354895"><ele>249.33333333333331</ele><time>2026-04-08T13:00:33.999Z</time></trkpt><trkpt lat="43.338641312963006" lon="11.431753034870937"><ele>250.0</ele><time>2026-04-08T13:00:34.999Z</time></trkpt><trkpt lat="43.33875522501807" lon="11.431882020651873"><ele>250.0</ele><time>2026-04-08T13:00:35.999Z</time></trkpt><trkpt lat="43.33887322423247" lon="11.432019709548513"><ele>250.0</ele><time>2026-04-08T13:00:36.999Z</time></trkpt><trkpt lat="43.33899805415314" lon="11.432165492696301"><ele>250.0</ele><time>2026-04-08T13:00:37.999Z</time></trkpt><trkpt lat="43.33912478552997" lon="11.432316916246684"><ele>250.0</ele><time>2026-04-08T13:00:38.999Z</time></trkpt><trkpt lat="43.33924227635849" lon="11.432473534970791"><ele>250.0</ele><time>2026-04-08T13:00:39.999Z</time></trkpt><trkpt lat="43.33933949620057" lon="11.432627017806515"><ele>250.0</ele><time>2026-04-08T13:00:40.999Z</time></trkpt><trkpt lat="43.33943141108207" lon="11.432799788776737"><ele>249.0</ele><time>2026-04-08T13:00:41.999Z</time></trkpt><trkpt lat="43.33952271662245" lon="11.432994346750787"><ele>248.0</ele><time>2026-04-08T13:00:42.999Z</time></trkpt><trkpt lat="43.33960303209628" lon="11.43318255634283"><ele>247.0</ele><time>2026-04-08T13:00:43.999Z</time></trkpt><trkpt lat="43.33967789220288" lon="11.433361017953652"><ele>247.5</ele><time>2026-04-08T13:00:44.999Z</time></trkpt><trkpt lat="43.33974721232573" lon="11.433526272759583"><ele>248.0</ele><time>2026-04-08T13:00:45.999Z</time></trkpt><trkpt lat="43.339811303295754" lon="11.433679061515255"><ele>248.5</ele><time>2026-04-08T13:00:47Z</time></trkpt><trkpt lat="43.33987330977381" lon="11.433826880997396"><ele>249.0</ele><time>2026-04-08T13:00:48Z</time></trkpt><trkpt lat="43.339930832812556" lon="11.433962887438044"><ele>249.0</ele><time>2026-04-08T13:00:49Z</time></trkpt><trkpt lat="43.33999144273765" lon="11.43409920451904"><ele>249.0</ele><time>2026-04-08T13:00:50Z</time></trkpt><trkpt lat="43.340063369705" lon="11.434250498906463"><ele>249.0</ele><time>2026-04-08T13:00:51Z</time></trkpt><trkpt lat="43.340135393877695" lon="11.434384048971221"><ele>249.0</ele><time>2026-04-08T13:00:52Z</time></trkpt><trkpt lat="43.34021777791282" lon="11.434491667652145"><ele>249.0</ele><time>2026-04-08T13:00:53Z</time></trkpt><trkpt lat="43.34031262478731" lon="11.434580364044727"><ele>249.0</ele><time>2026-04-08T13:00:54Z</time></trkpt><trkpt lat="43.340416349687516" lon="11.434633466475965"><ele>249.0</ele><time>2026-04-08T13:00:55Z</time></trkpt><trkpt lat="43.3405344171721" lon="11.434660537416342"><ele>249.0</ele><time>2026-04-08T13:00:56Z</time></trkpt><trkpt lat="43.34067591613289" lon="11.434650045970535"><ele>248.0</ele><time>2026-04-08T13:00:57Z</time></trkpt><trkpt lat="43.340810797446984" lon="11.434591335085418"><ele>247.0</ele><time>2026-04-08T13:00:58Z</time></trkpt><trkpt lat="43.34094782926709" lon="11.43454681555962"><ele>246.0</ele><time>2026-04-08T13:00:59Z</time></trkpt><trkpt lat="43.34109301456681" lon="11.434494273242283"><ele>245.0</ele><time>2026-04-08T13:01:00Z</time></trkpt><trkpt lat="43.34124186367285" lon="11.434444603634674"><ele>245.25</ele><time>2026-04-08T13:01:01Z</time></trkpt><trkpt lat="43.3413863544396" lon="11.434393799031279"><ele>245.5</ele><time>2026-04-08T13:01:02Z</time></trkpt><trkpt lat="43.3415214393851" lon="11.434347652216989"><ele>245.75</ele><time>2026-04-08T13:01:03Z</time></trkpt><trkpt lat="43.3416652150373" lon="11.434299503425173"><ele>246.0</ele><time>2026-04-08T13:01:04Z</time></trkpt><trkpt lat="43.341817713239244" lon="11.434252145929614"><ele>246.0</ele><time>2026-04-08T13:01:05Z</time></trkpt><trkpt lat="43.3419716763798" lon="11.43420362526761"><ele>246.0</ele><time>2026-04-08T13:01:06Z</time></trkpt><trkpt lat="43.34211985426196" lon="11.43415497713513"><ele>246.0</ele><time>2026-04-08T13:01:07Z</time></trkpt><trkpt lat="43.342256102196124" lon="11.434111100480528"><ele>246.33333333333331</ele><time>2026-04-08T13:01:08Z</time></trkpt><trkpt lat="43.342397183414576" lon="11.434065509943405"><ele>246.66666666666666</ele><time>2026-04-08T13:01:09Z</time></trkpt><trkpt lat="43.34254349275715" lon="11.434017011339808"><ele>247.0</ele><time>2026-04-08T13:01:10Z</time></trkpt><trkpt lat="43.34270083962219" lon="11.433962394423391"><ele>247.0</ele><time>2026-04-08T13:01:11Z</time></trkpt><trkpt lat="43.3428496959862" lon="11.433913963954618"><ele>247.0</ele><time>2026-04-08T13:01:12Z</time></trkpt><trkpt lat="43.3429784939262" lon="11.433880896687151"><ele>247.0</ele><time>2026-04-08T13:01:13Z</time></trkpt><trkpt lat="43.34309699186531" lon="11.433866369516911"><ele>247.0</ele><time>2026-04-08T13:01:14Z</time></trkpt><trkpt lat="43.343212075585654" lon="11.43391173839127"><ele>248.25</ele><time>2026-04-08T13:01:15Z</time></trkpt><trkpt lat="43.34332469481929" lon="11.43398149702244"><ele>249.5</ele><time>2026-04-08T13:01:16Z</time></trkpt><trkpt lat="43.34342712480337" lon="11.434100744515634"><ele>250.75</ele><time>2026-04-08T13:01:17Z</time></trkpt><trkpt lat="43.34353760168644" lon="11.434257896194394"><ele>252.0</ele><time>2026-04-08T13:01:18Z</time></trkpt><trkpt lat="43.34365573801566" lon="11.43443444885199"><ele>252.0</ele><time>2026-04-08T13:01:19Z</time></trkpt><trkpt lat="43.343773600981464" lon="11.43460933389253"><ele>252.0</ele><time>2026-04-08T13:01:20Z</time></trkpt><trkpt lat="43.34389357864978" lon="11.434784332481472"><ele>252.0</ele><time>2026-04-08T13:01:21Z</time></trkpt><trkpt lat="43.34400281743783" lon="11.434934310820037"><ele>254.0</ele><time>2026-04-08T13:01:22Z</time></trkpt><trkpt lat="43.34411380713768" lon="11.435072274594912"><ele>256.0</ele><time>2026-04-08T13:01:23Z</time></trkpt><trkpt lat="43.344233067311855" lon="11.435205114614671"><ele>258.0</ele><time>2026-04-08T13:01:24Z</time></trkpt><trkpt lat="43.34436027293551" lon="11.435338833215136"><ele>258.0</ele><time>2026-04-08T13:01:25Z</time></trkpt><trkpt lat="43.34449678208041" lon="11.435469529047255"><ele>258.0</ele><time>2026-04-08T13:01:26Z</time></trkpt><trkpt lat="43.34464910977715" lon="11.435568386258579"><ele>258.0</ele><time>2026-04-08T13:01:27Z</time></trkpt><trkpt lat="43.34481501137408" lon="11.435597047644581"><ele>259.0</ele><time>2026-04-08T13:01:28Z</time></trkpt><trkpt lat="43.34497669706858" lon="11.435619512879516"><ele>260.0</ele><time>2026-04-08T13:01:29Z</time></trkpt><trkpt lat="43.34514212924733" lon="11.435619981092994"><ele>261.0</ele><time>2026-04-08T13:01:30Z</time></trkpt><trkpt lat="43.34528665313219" lon="11.43561900995947"><ele>261.0</ele><time>2026-04-08T13:01:31Z</time></trkpt><trkpt lat="43.34541878701297" lon="11.435622642971849"><ele>261.0</ele><time>2026-04-08T13:01:32Z</time></trkpt><trkpt lat="43.34553217027849" lon="11.43562663308891"><ele>261.0</ele><time>2026-04-08T13:01:33Z</time></trkpt><trkpt lat="43.345644705344355" lon="11.435633035897494"><ele>261.0</ele><time>2026-04-08T13:01:34Z</time></trkpt><trkpt lat="43.34576598351132" lon="11.43565928662733"><ele>262.25</ele><time>2026-04-08T13:01:35Z</time></trkpt><trkpt lat="43.34587489776964" lon="11.435739988838302"><ele>263.5</ele><time>2026-04-08T13:01:36Z</time></trkpt><trkpt lat="43.345976383383984" lon="11.435827528784648"><ele>264.75</ele><time>2026-04-08T13:01:37Z</time></trkpt><trkpt lat="43.346097336860126" lon="11.435934839495285"><ele>266.0</ele><time>2026-04-08T13:01:38Z</time></trkpt><trkpt lat="43.34623280039037" lon="11.436041436174653"><ele>266.0</ele><time>2026-04-08T13:01:39Z</time></trkpt><trkpt lat="43.34634486389041" lon="11.436130355587277"><ele>266.0</ele><time>2026-04-08T13:01:40Z</time></trkpt><trkpt lat="43.3464424252187" lon="11.436233015455645"><ele>266.0</ele><time>2026-04-08T13:01:41Z</time></trkpt><trkpt lat="43.346544235706915" lon="11.436305963853863"><ele>266.0</ele><time>2026-04-08T13:01:42Z</time></trkpt><trkpt lat="43.346636528503986" lon="11.4364118873396"><ele>265.5</ele><time>2026-04-08T13:01:43Z</time></trkpt><trkpt lat="43.346720514533445" lon="11.436562611564367"><ele>265.0</ele><time>2026-04-08T13:01:44Z</time></trkpt><trkpt lat="43.346806295440636" lon="11.436705181156878"><ele>264.5</ele><time>2026-04-08T13:01:45Z</time></trkpt><trkpt lat="43.346883600770774" lon="11.436840201366618"><ele>264.0</ele><time>2026-04-08T13:01:46Z</time></trkpt><trkpt lat="43.34695998396077" lon="11.436974425075316"><ele>264.0</ele><time>2026-04-08T13:01:47Z</time></trkpt><trkpt lat="43.3470364976011" lon="11.437108878005693"><ele>264.0</ele><time>2026-04-08T13:01:48Z</time></trkpt><trkpt lat="43.34710847039507" lon="11.43723257468685"><ele>264.0</ele><time>2026-04-08T13:01:49Z</time></trkpt><trkpt lat="43.347173019840376" lon="11.437340684953226"><ele>264.0</ele><time>2026-04-08T13:01:50Z</time></trkpt><trkpt lat="43.34723567383992" lon="11.43744875206075"><ele>264.0</ele><time>2026-04-08T13:01:51Z</time></trkpt><trkpt lat="43.3473072860147" lon="11.437575322418455"><ele>262.75</ele><time>2026-04-08T13:01:52Z</time></trkpt><trkpt lat="43.3473887349365" lon="11.43771828419554"><ele>261.5</ele><time>2026-04-08T13:01:53Z</time></trkpt><trkpt lat="43.3474710441149" lon="11.437859773115049"><ele>260.25</ele><time>2026-04-08T13:01:54Z</time></trkpt><trkpt lat="43.347545614205835" lon="11.437987958584715"><ele>259.0</ele><time>2026-04-08T13:01:55Z</time></trkpt><trkpt lat="43.34762094624287" lon="11.438112218122575"><ele>259.0</ele><time>2026-04-08T13:01:56Z</time></trkpt><trkpt lat="43.34770617626809" lon="11.438236446553523"><ele>259.0</ele><time>2026-04-08T13:01:57Z</time></trkpt><trkpt lat="43.34780958810414" lon="11.438346335603098"><ele>259.0</ele><time>2026-04-08T13:01:58Z</time></trkpt><trkpt lat="43.34794048112053" lon="11.438406288638548"><ele>259.0</ele><time>2026-04-08T13:01:58.999Z</time></trkpt><trkpt lat="43.34807768112394" lon="11.438452785682342"><ele>257.66666666666663</ele><time>2026-04-08T13:01:59.999Z</time></trkpt><trkpt lat="43.348215749525465" lon="11.438470210239192"><ele>256.3333333333333</ele><time>2026-04-08T13:02:00.999Z</time></trkpt><trkpt lat="43.34837208133629" lon="11.4384957002009"><ele>255.0</ele><time>2026-04-08T13:02:01.999Z</time></trkpt><trkpt lat="43.348542522361456" lon="11.438524001605293"><ele>255.0</ele><time>2026-04-08T13:02:02.999Z</time></trkpt><trkpt lat="43.348713607997425" lon="11.438554931650707"><ele>255.0</ele><time>2026-04-08T13:02:03.999Z</time></trkpt><trkpt lat="43.3488653891644" lon="11.438578623356763"><ele>255.0</ele><time>2026-04-08T13:02:04.999Z</time></trkpt><trkpt lat="43.349007285291336" lon="11.438598178434074"><ele>255.0</ele><time>2026-04-08T13:02:05.999Z</time></trkpt><trkpt lat="43.34914151822017" lon="11.438623793053802"><ele>255.0</ele><time>2026-04-08T13:02:06.999Z</time></trkpt><trkpt lat="43.34926853236205" lon="11.438668502365415"><ele>255.0</ele><time>2026-04-08T13:02:07.999Z</time></trkpt><trkpt lat="43.349390328673586" lon="11.43874368165488"><ele>255.0</ele><time>2026-04-08T13:02:08.999Z</time></trkpt><trkpt lat="43.34950677772279" lon="11.43885512216552"><ele>253.66666666666669</ele><time>2026-04-08T13:02:09.999Z</time></trkpt><trkpt lat="43.34958684618233" lon="11.439020663064484"><ele>252.33333333333334</ele><time>2026-04-08T13:02:10.999Z</time></trkpt><trkpt lat="43.349670025591394" lon="11.439189588785105"><ele>251.0</ele><time>2026-04-08T13:02:11.999Z</time></trkpt><trkpt lat="43.34975699427232" lon="11.439372098826347"><ele>250.75</ele><time>2026-04-08T13:02:12.999Z</time></trkpt><trkpt lat="43.34984006769013" lon="11.439528490197784"><ele>250.5</ele><time>2026-04-08T13:02:13.999Z</time></trkpt><trkpt lat="43.349929525895234" lon="11.439670978757235"><ele>250.25</ele><time>2026-04-08T13:02:14.999Z</time></trkpt><trkpt lat="43.35002667098803" lon="11.439785368707787"><ele>250.0</ele><time>2026-04-08T13:02:15.999Z</time></trkpt><trkpt lat="43.35012194731329" lon="11.439879344224803"><ele>249.5</ele><time>2026-04-08T13:02:16.999Z</time></trkpt><trkpt lat="43.35022655999432" lon="11.439965891062677"><ele>249.0</ele><time>2026-04-08T13:02:17.999Z</time></trkpt><trkpt lat="43.35034382393567" lon="11.44004626555636"><ele>248.5</ele><time>2026-04-08T13:02:18.999Z</time></trkpt><trkpt lat="43.35047933451032" lon="11.44010630325636"><ele>248.0</ele><time>2026-04-08T13:02:19.999Z</time></trkpt><trkpt lat="43.35062653617985" lon="11.44011508004341"><ele>248.0</ele><time>2026-04-08T13:02:20.999Z</time></trkpt><trkpt lat="43.35077684065526" lon="11.440116937810625"><ele>248.0</ele><time>2026-04-08T13:02:21.999Z</time></trkpt><trkpt lat="43.35091302401119" lon="11.440093100347747"><ele>248.0</ele><time>2026-04-08T13:02:22.999Z</time></trkpt><trkpt lat="43.35105118296106" lon="11.44005319718915"><ele>248.0</ele><time>2026-04-08T13:02:23.999Z</time></trkpt><trkpt lat="43.35118789708667" lon="11.43997926573661"><ele>248.0</ele><time>2026-04-08T13:02:24.999Z</time></trkpt><trkpt lat="43.351314798956636" lon="11.43988476941478"><ele>248.0</ele><time>2026-04-08T13:02:25.999Z</time></trkpt><trkpt lat="43.351437892437076" lon="11.439781555121833"><ele>248.0</ele><time>2026-04-08T13:02:26.999Z</time></trkpt><trkpt lat="43.351576730284826" lon="11.439669514858718"><ele>248.0</ele><time>2026-04-08T13:02:27.999Z</time></trkpt><trkpt lat="43.35172484602255" lon="11.43956334497589"><ele>248.75</ele><time>2026-04-08T13:02:28.999Z</time></trkpt><trkpt lat="43.35187185095043" lon="11.439472624753911"><ele>249.5</ele><time>2026-04-08T13:02:29.999Z</time></trkpt><trkpt lat="43.35200647053575" lon="11.43941418089923"><ele>250.25</ele><time>2026-04-08T13:02:30.999Z</time></trkpt><trkpt lat="43.35212507325023" lon="11.4393844123436"><ele>251.0</ele><time>2026-04-08T13:02:31.999Z</time></trkpt><trkpt lat="43.35223918692462" lon="11.43935543158739"><ele>252.75</ele><time>2026-04-08T13:02:32.999Z</time></trkpt><trkpt lat="43.35234950525852" lon="11.439292234752045"><ele>254.5</ele><time>2026-04-08T13:02:33.999Z</time></trkpt><trkpt lat="43.35245623906776" lon="11.43918306659957"><ele>256.25</ele><time>2026-04-08T13:02:34.999Z</time></trkpt><trkpt lat="43.35256470061786" lon="11.439046695459947"><ele>258.0</ele><time>2026-04-08T13:02:35.999Z</time></trkpt><trkpt lat="43.35266800023428" lon="11.438920680062285"><ele>258.0</ele><time>2026-04-08T13:02:36.999Z</time></trkpt><trkpt lat="43.35278430848114" lon="11.438803285849408"><ele>258.0</ele><time>2026-04-08T13:02:37.999Z</time></trkpt><trkpt lat="43.352910234555516" lon="11.438694775490728"><ele>258.0</ele><time>2026-04-08T13:02:38.999Z</time></trkpt><trkpt lat="43.35304510265193" lon="11.438588455324053"><ele>258.0</ele><time>2026-04-08T13:02:39.999Z</time></trkpt><trkpt lat="43.35318841317583" lon="11.438492945582432"><ele>259.75</ele><time>2026-04-08T13:02:40.999Z</time></trkpt><trkpt lat="43.353319217596514" lon="11.438423578259222"><ele>261.5</ele><time>2026-04-08T13:02:41.999Z</time></trkpt><trkpt lat="43.35344232069393" lon="11.438381515179913"><ele>263.25</ele><time>2026-04-08T13:02:42.999Z</time></trkpt><trkpt lat="43.35356701395398" lon="11.438353490156352"><ele>265.0</ele><time>2026-04-08T13:02:43.999Z</time></trkpt><trkpt lat="43.35370557265311" lon="11.438320184882826"><ele>265.0</ele><time>2026-04-08T13:02:44.999Z</time></trkpt><trkpt lat="43.3538527436021" lon="11.438279659292235"><ele>265.0</ele><time>2026-04-08T13:02:45.999Z</time></trkpt><trkpt lat="43.35399638931389" lon="11.438243402160797"><ele>265.0</ele><time>2026-04-08T13:02:46.999Z</time></trkpt><trkpt lat="43.35411730178873" lon="11.43821248514412"><ele>265.0</ele><time>2026-04-08T13:02:47.999Z</time></trkpt><trkpt lat="43.354227108905135" lon="11.438182226736169"><ele>265.2</ele><time>2026-04-08T13:02:48.999Z</time></trkpt><trkpt lat="43.354341975764584" lon="11.438154416720945"><ele>265.4</ele><time>2026-04-08T13:02:49.999Z</time></trkpt><trkpt lat="43.354446750379495" lon="11.438140793963404"><ele>265.6</ele><time>2026-04-08T13:02:50.999Z</time></trkpt><trkpt lat="43.35454294184214" lon="11.438135948137784"><ele>265.8</ele><time>2026-04-08T13:02:51.999Z</time></trkpt><trkpt lat="43.35464989077768" lon="11.43813714369657"><ele>266.0</ele><time>2026-04-08T13:02:53Z</time></trkpt><trkpt lat="43.35476186015659" lon="11.438143814095373"><ele>266.40000000000003</ele><time>2026-04-08T13:02:54Z</time></trkpt><trkpt lat="43.35486333549374" lon="11.438151054850131"><ele>266.8</ele><time>2026-04-08T13:02:55Z</time></trkpt><trkpt lat="43.354958236193895" lon="11.438167189391322"><ele>267.20000000000005</ele><time>2026-04-08T13:02:56Z</time></trkpt><trkpt lat="43.35505614455718" lon="11.438188128395433"><ele>267.6</ele><time>2026-04-08T13:02:57Z</time></trkpt><trkpt lat="43.355160044359536" lon="11.43820622949054"><ele>268.0</ele><time>2026-04-08T13:02:58Z</time></trkpt><trkpt lat="43.35526588765406" lon="11.43824700302103"><ele>268.0</ele><time>2026-04-08T13:02:59Z</time></trkpt><trkpt lat="43.35537872135406" lon="11.43825339579556"><ele>268.0</ele><time>2026-04-08T13:03:00Z</time></trkpt><trkpt lat="43.355493445014645" lon="11.43828829759007"><ele>268.0</ele><time>2026-04-08T13:03:01Z</time></trkpt><trkpt lat="43.355610686567964" lon="11.43831829060343"><ele>268.0</ele><time>2026-04-08T13:03:02Z</time></trkpt><trkpt lat="43.35573462096747" lon="11.438346887458449"><ele>267.5</ele><time>2026-04-08T13:03:03Z</time></trkpt><trkpt lat="43.35586706285883" lon="11.438374335751439"><ele>267.0</ele><time>2026-04-08T13:03:04Z</time></trkpt><trkpt lat="43.356005849272734" lon="11.438404682416639"><ele>266.5</ele><time>2026-04-08T13:03:05Z</time></trkpt><trkpt lat="43.35612740419846" lon="11.438431337989655"><ele>266.0</ele><time>2026-04-08T13:03:06Z</time></trkpt><trkpt lat="43.35624824616154" lon="11.438458259966492"><ele>265.75</ele><time>2026-04-08T13:03:07Z</time></trkpt><trkpt lat="43.3563730699249" lon="11.43848772549033"><ele>265.5</ele><time>2026-04-08T13:03:08Z</time></trkpt><trkpt lat="43.35651151645587" lon="11.438520558718858"><ele>265.25</ele><time>2026-04-08T13:03:09Z</time></trkpt><trkpt lat="43.35663992029116" lon="11.438542586887534"><ele>265.0</ele><time>2026-04-08T13:03:10Z</time></trkpt><trkpt lat="43.356773273921256" lon="11.438569664401472"><ele>265.0</ele><time>2026-04-08T13:03:11Z</time></trkpt><trkpt lat="43.356892947421755" lon="11.438592480139539"><ele>265.0</ele><time>2026-04-08T13:03:12Z</time></trkpt><trkpt lat="43.35700696321676" lon="11.438614375219801"><ele>265.0</ele><time>2026-04-08T13:03:13Z</time></trkpt><trkpt lat="43.35712580574443" lon="11.438622456577532"><ele>265.0</ele><time>2026-04-08T13:03:14Z</time></trkpt><trkpt lat="43.357255221886426" lon="11.438604266885203"><ele>265.0</ele><time>2026-04-08T13:03:15Z</time></trkpt><trkpt lat="43.357394234131895" lon="11.43856498930469"><ele>265.0</ele><time>2026-04-08T13:03:16Z</time></trkpt><trkpt lat="43.357519383392486" lon="11.4385191344516"><ele>265.0</ele><time>2026-04-08T13:03:17Z</time></trkpt><trkpt lat="43.357630114179095" lon="11.438481286548228"><ele>265.0</ele><time>2026-04-08T13:03:18Z</time></trkpt><trkpt lat="43.35774665295716" lon="11.43844590898435"><ele>265.0</ele><time>2026-04-08T13:03:19Z</time></trkpt><trkpt lat="43.35786877429773" lon="11.438405513817534"><ele>265.0</ele><time>2026-04-08T13:03:20Z</time></trkpt><trkpt lat="43.35798013521466" lon="11.43837085474723"><ele>265.0</ele><time>2026-04-08T13:03:21Z</time></trkpt><trkpt lat="43.35807894269653" lon="11.438336329794868"><ele>265.0</ele><time>2026-04-08T13:03:22Z</time></trkpt><trkpt lat="43.35816076567213" lon="11.438284872660695"><ele>265.0</ele><time>2026-04-08T13:03:23Z</time></trkpt><trkpt lat="43.35824340908321" lon="11.438204984722864"><ele>265.5</ele><time>2026-04-08T13:03:24Z</time></trkpt><trkpt lat="43.358311384326576" lon="11.438084402219815"><ele>266.0</ele><time>2026-04-08T13:03:25Z</time></trkpt><trkpt lat="43.358375155990295" lon="11.437926330388304"><ele>266.5</ele><time>2026-04-08T13:03:26Z</time></trkpt><trkpt lat="43.358425896100556" lon="11.437745615659534"><ele>267.0</ele><time>2026-04-08T13:03:27Z</time></trkpt><trkpt lat="43.35846006911151" lon="11.437534525442553"><ele>267.5</ele><time>2026-04-08T13:03:28Z</time></trkpt><trkpt lat="43.35845558428913" lon="11.43732633440975"><ele>268.0</ele><time>2026-04-08T13:03:29Z</time></trkpt><trkpt lat="43.35843175483222" lon="11.437146787852905"><ele>268.5</ele><time>2026-04-08T13:03:30Z</time></trkpt><trkpt lat="43.35840131283155" lon="11.436967889692538"><ele>269.0</ele><time>2026-04-08T13:03:31Z</time></trkpt><trkpt lat="43.35838141671893" lon="11.436804652263811"><ele>269.0</ele><time>2026-04-08T13:03:32Z</time></trkpt><trkpt lat="43.35838291187684" lon="11.436663999299189"><ele>269.0</ele><time>2026-04-08T13:03:33Z</time></trkpt><trkpt lat="43.358409868250895" lon="11.436542241123234"><ele>269.0</ele><time>2026-04-08T13:03:34Z</time></trkpt><trkpt lat="43.35843887976876" lon="11.436418221541606"><ele>269.0</ele><time>2026-04-08T13:03:35Z</time></trkpt><trkpt lat="43.35846411345702" lon="11.436280835995728"><ele>269.0</ele><time>2026-04-08T13:03:36Z</time></trkpt><trkpt lat="43.35848655365489" lon="11.436130951469567"><ele>269.0</ele><time>2026-04-08T13:03:37Z</time></trkpt><trkpt lat="43.35851954802013" lon="11.435957759360148"><ele>269.0</ele><time>2026-04-08T13:03:38Z</time></trkpt><trkpt lat="43.35855585481829" lon="11.435790239325158"><ele>269.0</ele><time>2026-04-08T13:03:39Z</time></trkpt><trkpt lat="43.35859637241121" lon="11.435616031155782"><ele>269.0</ele><time>2026-04-08T13:03:40Z</time></trkpt><trkpt lat="43.35864885695211" lon="11.435442702459271"><ele>269.5</ele><time>2026-04-08T13:03:41Z</time></trkpt><trkpt lat="43.35871458606095" lon="11.435269822242232"><ele>270.0</ele><time>2026-04-08T13:03:42Z</time></trkpt><trkpt lat="43.358788264972674" lon="11.435089811414917"><ele>270.5</ele><time>2026-04-08T13:03:43Z</time></trkpt><trkpt lat="43.3588565374728" lon="11.434910694092725"><ele>271.0</ele><time>2026-04-08T13:03:44Z</time></trkpt><trkpt lat="43.35891771614831" lon="11.43474123031655"><ele>269.0</ele><time>2026-04-08T13:03:45Z</time></trkpt><trkpt lat="43.35896094107276" lon="11.4345662449173"><ele>267.0</ele><time>2026-04-08T13:03:46Z</time></trkpt><trkpt lat="43.35898583839979" lon="11.434372034061042"><ele>265.0</ele><time>2026-04-08T13:03:47Z</time></trkpt><trkpt lat="43.35899878904345" lon="11.434158847344582"><ele>263.0</ele><time>2026-04-08T13:03:48Z</time></trkpt><trkpt lat="43.35899721619832" lon="11.433932498352094"><ele>262.0</ele><time>2026-04-08T13:03:49Z</time></trkpt><trkpt lat="43.35898406111818" lon="11.433697373010764"><ele>261.0</ele><time>2026-04-08T13:03:50Z</time></trkpt><trkpt lat="43.3589495437062" lon="11.4334730465823"><ele>260.0</ele><time>2026-04-08T13:03:51Z</time></trkpt><trkpt lat="43.358912004673414" lon="11.433240685089476"><ele>260.0</ele><time>2026-04-08T13:03:52Z</time></trkpt><trkpt lat="43.35888306057601" lon="11.43300740858062"><ele>260.0</ele><time>2026-04-08T13:03:53Z</time></trkpt><trkpt lat="43.35887169296829" lon="11.432788998702188"><ele>260.0</ele><time>2026-04-08T13:03:54Z</time></trkpt><trkpt lat="43.35886695110982" lon="11.432578349704198"><ele>260.0</ele><time>2026-04-08T13:03:55Z</time></trkpt><trkpt lat="43.35886992353608" lon="11.43237468183831"><ele>260.0</ele><time>2026-04-08T13:03:56Z</time></trkpt><trkpt lat="43.358895110589025" lon="11.432182302311517"><ele>260.0</ele><time>2026-04-08T13:03:57Z</time></trkpt><trkpt lat="43.35893808392194" lon="11.431990113427448"><ele>260.0</ele><time>2026-04-08T13:03:58Z</time></trkpt><trkpt lat="43.35897796103655" lon="11.431809981864946"><ele>260.25</ele><time>2026-04-08T13:03:59Z</time></trkpt><trkpt lat="43.35902074251828" lon="11.431624074851182"><ele>260.5</ele><time>2026-04-08T13:03:59.999Z</time></trkpt><trkpt lat="43.35906265859485" lon="11.43142522014604"><ele>260.75</ele><time>2026-04-08T13:04:00.999Z</time></trkpt><trkpt lat="43.359099917013864" lon="11.431223377503219"><ele>261.0</ele><time>2026-04-08T13:04:01.999Z</time></trkpt><trkpt lat="43.3591398604571" lon="11.431034887896518"><ele>261.75</ele><time>2026-04-08T13:04:02.999Z</time></trkpt><trkpt lat="43.35917726979946" lon="11.430857475011825"><ele>262.5</ele><time>2026-04-08T13:04:03.999Z</time></trkpt><trkpt lat="43.35921102792352" lon="11.430666361111237"><ele>263.25</ele><time>2026-04-08T13:04:04.999Z</time></trkpt><trkpt lat="43.359232941881274" lon="11.430451276101579"><ele>264.0</ele><time>2026-04-08T13:04:05.999Z</time></trkpt><trkpt lat="43.359242884600924" lon="11.430221956385653"><ele>264.3333333333333</ele><time>2026-04-08T13:04:06.999Z</time></trkpt><trkpt lat="43.35923543291611" lon="11.429974151416193"><ele>264.66666666666663</ele><time>2026-04-08T13:04:07.999Z</time></trkpt><trkpt lat="43.359203563401486" lon="11.429758075241182"><ele>265.0</ele><time>2026-04-08T13:04:08.999Z</time></trkpt><trkpt lat="43.359175293949676" lon="11.429544524568698"><ele>263.0</ele><time>2026-04-08T13:04:09.999Z</time></trkpt><trkpt lat="43.359138855404936" lon="11.42934995549471"><ele>261.0</ele><time>2026-04-08T13:04:10.999Z</time></trkpt><trkpt lat="43.35909084302927" lon="11.429164778976816"><ele>259.0</ele><time>2026-04-08T13:04:11.999Z</time></trkpt><trkpt lat="43.35902169752836" lon="11.428965169302975"><ele>257.0</ele><time>2026-04-08T13:04:12.999Z</time></trkpt><trkpt lat="43.35891759268763" lon="11.428778226491318"><ele>255.0</ele><time>2026-04-08T13:04:13.999Z</time></trkpt><trkpt lat="43.358789665081545" lon="11.428604844173957"><ele>253.0</ele><time>2026-04-08T13:04:14.999Z</time></trkpt><trkpt lat="43.35865205619088" lon="11.42843472239175"><ele>254.0</ele><time>2026-04-08T13:04:15.999Z</time></trkpt><trkpt lat="43.35853612709525" lon="11.428239284741412"><ele>255.0</ele><time>2026-04-08T13:04:16.999Z</time></trkpt><trkpt lat="43.3584117779199" lon="11.42806674433121"><ele>256.0</ele><time>2026-04-08T13:04:17.999Z</time></trkpt><trkpt lat="43.358306195192554" lon="11.427882484135212"><ele>256.0</ele><time>2026-04-08T13:04:18.999Z</time></trkpt><trkpt lat="43.35821523582325" lon="11.427679362805826"><ele>256.0</ele><time>2026-04-08T13:04:19.999Z</time></trkpt><trkpt lat="43.358109892503805" lon="11.427502077659375"><ele>256.0</ele><time>2026-04-08T13:04:20.999Z</time></trkpt><trkpt lat="43.35799192441569" lon="11.427340223465809"><ele>255.0</ele><time>2026-04-08T13:04:21.999Z</time></trkpt><trkpt lat="43.35786874672207" lon="11.427211448237545"><ele>254.0</ele><time>2026-04-08T13:04:22.999Z</time></trkpt><trkpt lat="43.357729751211316" lon="11.427101284539507"><ele>253.0</ele><time>2026-04-08T13:04:23.999Z</time></trkpt><trkpt lat="43.357567458848195" lon="11.427003254579482"><ele>253.0</ele><time>2026-04-08T13:04:24.999Z</time></trkpt><trkpt lat="43.35739030034523" lon="11.426901110098289"><ele>253.0</ele><time>2026-04-08T13:04:25.999Z</time></trkpt><trkpt lat="43.35722444403164" lon="11.426798745414677"><ele>253.0</ele><time>2026-04-08T13:04:26.999Z</time></trkpt><trkpt lat="43.35706859136463" lon="11.426693286648531"><ele>254.0</ele><time>2026-04-08T13:04:27.999Z</time></trkpt><trkpt lat="43.35691864908091" lon="11.42658697429763"><ele>255.0</ele><time>2026-04-08T13:04:28.999Z</time></trkpt><trkpt lat="43.3567777412575" lon="11.426481209207159"><ele>256.0</ele><time>2026-04-08T13:04:29.999Z</time></trkpt><trkpt lat="43.3566464490199" lon="11.426364996035637"><ele>252.66666666666666</ele><time>2026-04-08T13:04:30.999Z</time></trkpt><trkpt lat="43.3565279048243" lon="11.426238426523662"><ele>249.33333333333331</ele><time>2026-04-08T13:04:31.999Z</time></trkpt><trkpt lat="43.35642242001418" lon="11.426093721711407"><ele>246.0</ele><time>2026-04-08T13:04:32.999Z</time></trkpt><trkpt lat="43.356314504368015" lon="11.425943197310392"><ele>246.0</ele><time>2026-04-08T13:04:33.999Z</time></trkpt><trkpt lat="43.35618986907779" lon="11.42577240578026"><ele>246.0</ele><time>2026-04-08T13:04:34.999Z</time></trkpt><trkpt lat="43.35607314476687" lon="11.42562260014883"><ele>246.0</ele><time>2026-04-08T13:04:35.999Z</time></trkpt><trkpt lat="43.355955141568266" lon="11.425479363401145"><ele>244.0</ele><time>2026-04-08T13:04:36.999Z</time></trkpt><trkpt lat="43.35584369557588" lon="11.425334356226049"><ele>242.0</ele><time>2026-04-08T13:04:37.999Z</time></trkpt><trkpt lat="43.355729523738034" lon="11.425185132005126"><ele>240.0</ele><time>2026-04-08T13:04:38.999Z</time></trkpt><trkpt lat="43.355614060092435" lon="11.425026912083087"><ele>240.0</ele><time>2026-04-08T13:04:39.999Z</time></trkpt><trkpt lat="43.355505372190684" lon="11.42487722628916"><ele>240.0</ele><time>2026-04-08T13:04:40.999Z</time></trkpt><trkpt lat="43.35539704977104" lon="11.424732382630765"><ele>240.0</ele><time>2026-04-08T13:04:41.999Z</time></trkpt><trkpt lat="43.35529148576959" lon="11.424596094091614"><ele>239.0</ele><time>2026-04-08T13:04:42.999Z</time></trkpt><trkpt lat="43.355191223222384" lon="11.42446592672124"><ele>238.0</ele><time>2026-04-08T13:04:43.999Z</time></trkpt><trkpt lat="43.35510426013019" lon="11.42434527448673"><ele>237.0</ele><time>2026-04-08T13:04:44.999Z</time></trkpt><trkpt lat="43.35503187108183" lon="11.424212007529862"><ele>236.0</ele><time>2026-04-08T13:04:45.999Z</time></trkpt><trkpt lat="43.35499335045568" lon="11.42406260962112"><ele>236.0</ele><time>2026-04-08T13:04:46.999Z</time></trkpt><trkpt lat="43.354993085614986" lon="11.423903964349055"><ele>236.0</ele><time>2026-04-08T13:04:47.999Z</time></trkpt><trkpt lat="43.35501687131309" lon="11.423738916053724"><ele>236.0</ele><time>2026-04-08T13:04:48.999Z</time></trkpt><trkpt lat="43.355063220700956" lon="11.423544297941977"><ele>236.0</ele><time>2026-04-08T13:04:49.999Z</time></trkpt><trkpt lat="43.35511707238298" lon="11.423336931200314"><ele>234.66666666666669</ele><time>2026-04-08T13:04:50.999Z</time></trkpt><trkpt lat="43.35516899260824" lon="11.42313026366904"><ele>233.33333333333331</ele><time>2026-04-08T13:04:51.999Z</time></trkpt><trkpt lat="43.35521443987206" lon="11.422910277605249"><ele>232.0</ele><time>2026-04-08T13:04:52.999Z</time></trkpt><trkpt lat="43.355252474319386" lon="11.422699394921466"><ele>230.25</ele><time>2026-04-08T13:04:53.999Z</time></trkpt><trkpt lat="43.35528659574937" lon="11.422501129612812"><ele>228.5</ele><time>2026-04-08T13:04:54.999Z</time></trkpt><trkpt lat="43.355315426910884" lon="11.422319623386006"><ele>226.75</ele><time>2026-04-08T13:04:55.999Z</time></trkpt><trkpt lat="43.355337190626614" lon="11.42214168897973"><ele>225.0</ele><time>2026-04-08T13:04:56.999Z</time></trkpt><trkpt lat="43.355357228630425" lon="11.421968478724004"><ele>223.25</ele><time>2026-04-08T13:04:57.999Z</time></trkpt><trkpt lat="43.355374289716565" lon="11.421796554748525"><ele>221.5</ele><time>2026-04-08T13:04:59Z</time></trkpt><trkpt lat="43.35538947964851" lon="11.4216268363468"><ele>219.75</ele><time>2026-04-08T13:05:00Z</time></trkpt><trkpt lat="43.35540699853497" lon="11.421460709044805"><ele>218.0</ele><time>2026-04-08T13:05:01Z</time></trkpt><trkpt lat="43.35542553027962" lon="11.421293735255313"><ele>217.25</ele><time>2026-04-08T13:05:02Z</time></trkpt><trkpt lat="43.35544727451865" lon="11.421123344933008"><ele>216.5</ele><time>2026-04-08T13:05:03Z</time></trkpt><trkpt lat="43.355474372877275" lon="11.420954329591117"><ele>215.75</ele><time>2026-04-08T13:05:04Z</time></trkpt><trkpt lat="43.35550288776312" lon="11.420794220929936"><ele>215.0</ele><time>2026-04-08T13:05:05Z</time></trkpt><trkpt lat="43.35553028772561" lon="11.420645982009448"><ele>215.5</ele><time>2026-04-08T13:05:06Z</time></trkpt><trkpt lat="43.355557203440945" lon="11.420504827046784"><ele>216.0</ele><time>2026-04-08T13:05:07Z</time></trkpt><trkpt lat="43.35558539165371" lon="11.420358658466244"><ele>216.5</ele><time>2026-04-08T13:05:08Z</time></trkpt><trkpt lat="43.35561303895548" lon="11.420205454461088"><ele>217.0</ele><time>2026-04-08T13:05:09Z</time></trkpt><trkpt lat="43.35564678165862" lon="11.420040221640184"><ele>217.0</ele><time>2026-04-08T13:05:10Z</time></trkpt><trkpt lat="43.355686917763094" lon="11.419875629423446"><ele>217.0</ele><time>2026-04-08T13:05:11Z</time></trkpt><trkpt lat="43.3557345086205" lon="11.419711031390339"><ele>217.0</ele><time>2026-04-08T13:05:12Z</time></trkpt><trkpt lat="43.355788272190246" lon="11.419564570704786"><ele>217.0</ele><time>2026-04-08T13:05:13Z</time></trkpt><trkpt lat="43.355840610615424" lon="11.419430555387768"><ele>216.75</ele><time>2026-04-08T13:05:14Z</time></trkpt><trkpt lat="43.35589700688189" lon="11.419300629696084"><ele>216.5</ele><time>2026-04-08T13:05:15Z</time></trkpt><trkpt lat="43.355960741638384" lon="11.419165251960699"><ele>216.25</ele><time>2026-04-08T13:05:16Z</time></trkpt><trkpt lat="43.356031785870066" lon="11.419012665257783"><ele>216.0</ele><time>2026-04-08T13:05:17Z</time></trkpt><trkpt lat="43.35610611311011" lon="11.4188478973574"><ele>216.25</ele><time>2026-04-08T13:05:18Z</time></trkpt><trkpt lat="43.35618830196037" lon="11.418674256940765"><ele>216.5</ele><time>2026-04-08T13:05:19Z</time></trkpt><trkpt lat="43.35626324628702" lon="11.418518789164239"><ele>216.75</ele><time>2026-04-08T13:05:20Z</time></trkpt><trkpt lat="43.35633245369647" lon="11.418376494146754"><ele>217.0</ele><time>2026-04-08T13:05:21Z</time></trkpt><trkpt lat="43.35640424932357" lon="11.41822652148271"><ele>217.0</ele><time>2026-04-08T13:05:22Z</time></trkpt><trkpt lat="43.35647662472547" lon="11.418071464652305"><ele>217.0</ele><time>2026-04-08T13:05:23Z</time></trkpt><trkpt lat="43.35655533219402" lon="11.417906701408024"><ele>217.0</ele><time>2026-04-08T13:05:24Z</time></trkpt><trkpt lat="43.35662457073849" lon="11.417758426300242"><ele>217.0</ele><time>2026-04-08T13:05:25Z</time></trkpt><trkpt lat="43.356688234737945" lon="11.417621030674413"><ele>217.39999999999998</ele><time>2026-04-08T13:05:26Z</time></trkpt><trkpt lat="43.356750684596925" lon="11.417489183854313"><ele>217.79999999999998</ele><time>2026-04-08T13:05:27Z</time></trkpt><trkpt lat="43.356805644163636" lon="11.417361712628283"><ele>218.2</ele><time>2026-04-08T13:05:28Z</time></trkpt><trkpt lat="43.35684916843311" lon="11.417230953987664"><ele>218.6</ele><time>2026-04-08T13:05:29Z</time></trkpt><trkpt lat="43.35687747314325" lon="11.417110400644551"><ele>219.0</ele><time>2026-04-08T13:05:30Z</time></trkpt><trkpt lat="43.35689246332963" lon="11.417008899340265"><ele>219.0</ele><time>2026-04-08T13:05:31Z</time></trkpt><trkpt lat="43.35690825259644" lon="11.416887406037972"><ele>218.99999999999997</ele><time>2026-04-08T13:05:33Z</time></trkpt><trkpt lat="43.35694807746419" lon="11.416788356358682"><ele>218.99999999999997</ele><time>2026-04-08T13:05:43Z</time></trkpt><trkpt lat="43.35690435822356" lon="11.41665716303655"><ele>219.0</ele><time>2026-04-08T13:05:45Z</time></trkpt><trkpt lat="43.35684894593329" lon="11.416570944847681"><ele>219.0</ele><time>2026-04-08T13:05:46Z</time></trkpt><trkpt lat="43.356784029424816" lon="11.416469606380899"><ele>219.0</ele><time>2026-04-08T13:05:47Z</time></trkpt><trkpt lat="43.35671418408227" lon="11.416358899443852"><ele>218.99999999999997</ele><time>2026-04-08T13:05:48Z</time></trkpt><trkpt lat="43.35664135379133" lon="11.416243490786789"><ele>218.99999999999997</ele><time>2026-04-08T13:05:49Z</time></trkpt><trkpt lat="43.35657955637503" lon="11.41614100809137"><ele>219.0</ele><time>2026-04-08T13:05:50Z</time></trkpt><trkpt lat="43.35651973337983" lon="11.416046157850996"><ele>219.0</ele><time>2026-04-08T13:05:51Z</time></trkpt><trkpt lat="43.35645806623664" lon="11.415949928106553"><ele>219.5</ele><time>2026-04-08T13:05:52Z</time></trkpt><trkpt lat="43.356415836773365" lon="11.415860644883313"><ele>220.0</ele><time>2026-04-08T13:05:53Z</time></trkpt><trkpt lat="43.35638130466406" lon="11.415767940171758"><ele>220.5</ele><time>2026-04-08T13:05:54Z</time></trkpt><trkpt lat="43.35640031475493" lon="11.415476701581147"><ele>221.0</ele><time>2026-04-08T13:05:56Z</time></trkpt><trkpt lat="43.35643507152104" lon="11.415331398024964"><ele>222.00000000000003</ele><time>2026-04-08T13:05:57Z</time></trkpt><trkpt lat="43.35645049406435" lon="11.415189703860998"><ele>223.0</ele><time>2026-04-08T13:05:58Z</time></trkpt><trkpt lat="43.356487430813374" lon="11.415088516410231"><ele>224.0</ele><time>2026-04-08T13:05:59Z</time></trkpt><trkpt lat="43.3565071329227" lon="11.414981844377683"><ele>225.0</ele><time>2026-04-08T13:05:59.999Z</time></trkpt><trkpt lat="43.35652912885912" lon="11.414874899039779"><ele>226.00000000000003</ele><time>2026-04-08T13:06:00.999Z</time></trkpt><trkpt lat="43.35655357384994" lon="11.414758858164996"><ele>227.0</ele><time>2026-04-08T13:06:01.999Z</time></trkpt><trkpt lat="43.35658182485301" lon="11.414634289091243"><ele>227.8</ele><time>2026-04-08T13:06:02.999Z</time></trkpt><trkpt lat="43.35661510180583" lon="11.414521164457195"><ele>228.6</ele><time>2026-04-08T13:06:03.999Z</time></trkpt><trkpt lat="43.35662638787668" lon="11.41439799868275"><ele>229.40000000000003</ele><time>2026-04-08T13:06:04.999Z</time></trkpt><trkpt lat="43.35665563833035" lon="11.414276134704773"><ele>230.20000000000002</ele><time>2026-04-08T13:06:05.999Z</time></trkpt><trkpt lat="43.356685907123506" lon="11.414152672878444"><ele>231.0</ele><time>2026-04-08T13:06:06.999Z</time></trkpt><trkpt lat="43.356716587819584" lon="11.414027688186751"><ele>231.0</ele><time>2026-04-08T13:06:07.999Z</time></trkpt><trkpt lat="43.35674775558794" lon="11.413911130453988"><ele>231.00000000000003</ele><time>2026-04-08T13:06:08.999Z</time></trkpt><trkpt lat="43.35678023097006" lon="11.413789682713032"><ele>231.00000000000003</ele><time>2026-04-08T13:06:09.999Z</time></trkpt><trkpt lat="43.356830096834706" lon="11.413674639013706"><ele>231.0</ele><time>2026-04-08T13:06:10.999Z</time></trkpt><trkpt lat="43.356860787654014" lon="11.413534672140562"><ele>231.0</ele><time>2026-04-08T13:06:11.999Z</time></trkpt><trkpt lat="43.35690557037181" lon="11.413385710913667"><ele>231.75</ele><time>2026-04-08T13:06:12.999Z</time></trkpt><trkpt lat="43.35695876354589" lon="11.413226349706978"><ele>232.5</ele><time>2026-04-08T13:06:13.999Z</time></trkpt><trkpt lat="43.35701758360541" lon="11.413047734332402"><ele>233.25</ele><time>2026-04-08T13:06:14.999Z</time></trkpt><trkpt lat="43.357069560675626" lon="11.41288452074916"><ele>234.0</ele><time>2026-04-08T13:06:15.999Z</time></trkpt><trkpt lat="43.35712116662657" lon="11.412756897187679"><ele>234.6</ele><time>2026-04-08T13:06:16.999Z</time></trkpt><trkpt lat="43.35717430411139" lon="11.41264215497514"><ele>235.2</ele><time>2026-04-08T13:06:17.999Z</time></trkpt><trkpt lat="43.35723767919927" lon="11.412536510222468"><ele>235.79999999999998</ele><time>2026-04-08T13:06:18.999Z</time></trkpt><trkpt lat="43.35731441000673" lon="11.412442294486665"><ele>236.39999999999998</ele><time>2026-04-08T13:06:19.999Z</time></trkpt><trkpt lat="43.35739023358851" lon="11.412380386302194"><ele>237.0</ele><time>2026-04-08T13:06:20.999Z</time></trkpt><trkpt lat="43.35746462928353" lon="11.412336558295493"><ele>237.83333333333334</ele><time>2026-04-08T13:06:21.999Z</time></trkpt><trkpt lat="43.357542627286456" lon="11.4123050752863"><ele>238.66666666666669</ele><time>2026-04-08T13:06:22.999Z</time></trkpt><trkpt lat="43.35762676791309" lon="11.41229360725679"><ele>239.5</ele><time>2026-04-08T13:06:23.999Z</time></trkpt><trkpt lat="43.35771903320388" lon="11.412298307811023"><ele>240.33333333333334</ele><time>2026-04-08T13:06:24.999Z</time></trkpt><trkpt lat="43.357796596537646" lon="11.412329998309543"><ele>241.16666666666669</ele><time>2026-04-08T13:06:25.999Z</time></trkpt><trkpt lat="43.3578677571653" lon="11.412365974522865"><ele>242.0</ele><time>2026-04-08T13:06:26.999Z</time></trkpt><trkpt lat="43.35796161424793" lon="11.412409669521477"><ele>243.0</ele><time>2026-04-08T13:06:27.999Z</time></trkpt><trkpt lat="43.358046396610064" lon="11.41243628894757"><ele>244.0</ele><time>2026-04-08T13:06:28.999Z</time></trkpt><trkpt lat="43.35812278137787" lon="11.412449643205"><ele>245.0</ele><time>2026-04-08T13:06:29.999Z</time></trkpt><trkpt lat="43.358213473643005" lon="11.412460743486871"><ele>246.0</ele><time>2026-04-08T13:06:30.999Z</time></trkpt><trkpt lat="43.35831058146676" lon="11.4124611209798"><ele>247.0</ele><time>2026-04-08T13:06:31.999Z</time></trkpt><trkpt lat="43.35842417936087" lon="11.412456137533665"><ele>246.99999999999997</ele><time>2026-04-08T13:06:32.999Z</time></trkpt><trkpt lat="43.35853039204799" lon="11.412444831723173"><ele>247.0</ele><time>2026-04-08T13:06:33.999Z</time></trkpt><trkpt lat="43.35861148884227" lon="11.412438064059533"><ele>247.0</ele><time>2026-04-08T13:06:34.999Z</time></trkpt><trkpt lat="43.358695792654906" lon="11.412419849169577"><ele>247.0</ele><time>2026-04-08T13:06:35.999Z</time></trkpt><trkpt lat="43.35877657153926" lon="11.4123836688134"><ele>246.99999999999997</ele><time>2026-04-08T13:06:36.999Z</time></trkpt><trkpt lat="43.35885065945261" lon="11.412331039664508"><ele>247.0</ele><time>2026-04-08T13:06:37.999Z</time></trkpt><trkpt lat="43.35891775707406" lon="11.41226819330818"><ele>247.33333333333331</ele><time>2026-04-08T13:06:38.999Z</time></trkpt><trkpt lat="43.358970720636435" lon="11.412203663881499"><ele>247.66666666666666</ele><time>2026-04-08T13:06:39.999Z</time></trkpt><trkpt lat="43.35900594188487" lon="11.412130498847553"><ele>248.0</ele><time>2026-04-08T13:06:40.999Z</time></trkpt><trkpt lat="43.35902410052396" lon="11.412036523844913"><ele>248.33333333333331</ele><time>2026-04-08T13:06:41.999Z</time></trkpt><trkpt lat="43.35903163313833" lon="11.411925651081054"><ele>248.66666666666666</ele><time>2026-04-08T13:06:42.999Z</time></trkpt><trkpt lat="43.35902307086762" lon="11.411793724325218"><ele>249.0</ele><time>2026-04-08T13:06:43.999Z</time></trkpt><trkpt lat="43.35902283474051" lon="11.411655806854649"><ele>250.79999999999998</ele><time>2026-04-08T13:06:44.999Z</time></trkpt><trkpt lat="43.35903044738849" lon="11.411520779239314"><ele>252.59999999999997</ele><time>2026-04-08T13:06:45.999Z</time></trkpt><trkpt lat="43.359044000367014" lon="11.411368445538882"><ele>254.4</ele><time>2026-04-08T13:06:46.999Z</time></trkpt><trkpt lat="43.35907419215351" lon="11.411236617031085"><ele>256.2</ele><time>2026-04-08T13:06:47.999Z</time></trkpt><trkpt lat="43.359111668194465" lon="11.411114725920187"><ele>258.0</ele><time>2026-04-08T13:06:48.999Z</time></trkpt><trkpt lat="43.35915203966956" lon="11.41103459961172"><ele>258.85714285714283</ele><time>2026-04-08T13:06:49.999Z</time></trkpt><trkpt lat="43.359206214235364" lon="11.410973308880564"><ele>259.7142857142857</ele><time>2026-04-08T13:06:50.999Z</time></trkpt><trkpt lat="43.35927486861147" lon="11.410943621144902"><ele>260.57142857142856</ele><time>2026-04-08T13:06:51.999Z</time></trkpt><trkpt lat="43.35934643906316" lon="11.41095329275616"><ele>261.42857142857144</ele><time>2026-04-08T13:06:52.999Z</time></trkpt><trkpt lat="43.3594021219009" lon="11.411013246434864"><ele>262.2857142857143</ele><time>2026-04-08T13:06:53.999Z</time></trkpt><trkpt lat="43.35945855305656" lon="11.411058981291745"><ele>263.1428571428571</ele><time>2026-04-08T13:06:54.999Z</time></trkpt><trkpt lat="43.35949754038672" lon="11.411138272970948"><ele>264.0</ele><time>2026-04-08T13:06:55.999Z</time></trkpt><trkpt lat="43.359529048728916" lon="11.411270508391702"><ele>263.0</ele><time>2026-04-08T13:06:56.999Z</time></trkpt><trkpt lat="43.35955677191786" lon="11.41137997376739"><ele>262.0</ele><time>2026-04-08T13:06:57.999Z</time></trkpt><trkpt lat="43.35957124600597" lon="11.41147206809049"><ele>261.0</ele><time>2026-04-08T13:06:58.999Z</time></trkpt><trkpt lat="43.35958740773525" lon="11.411580146940185"><ele>260.0</ele><time>2026-04-08T13:06:59.999Z</time></trkpt><trkpt lat="43.35960940827531" lon="11.411720817626556"><ele>259.0</ele><time>2026-04-08T13:07:00.999Z</time></trkpt><trkpt lat="43.3596341203392" lon="11.41183041978436"><ele>258.0</ele><time>2026-04-08T13:07:01.999Z</time></trkpt><trkpt lat="43.35966342466003" lon="11.411913751997846"><ele>260.4</ele><time>2026-04-08T13:07:02.999Z</time></trkpt><trkpt lat="43.35974640216324" lon="11.412030568896524"><ele>262.8</ele><time>2026-04-08T13:07:04.999Z</time></trkpt><trkpt lat="43.35984469345942" lon="11.412092634178139"><ele>265.2</ele><time>2026-04-08T13:07:06.999Z</time></trkpt><trkpt lat="43.35990880891421" lon="11.412067524522076"><ele>267.6</ele><time>2026-04-08T13:07:07.999Z</time></trkpt><trkpt lat="43.35998065149082" lon="11.412001609033526"><ele>270.0</ele><time>2026-04-08T13:07:09.999Z</time></trkpt><trkpt lat="43.3600076145743" lon="11.41186160747754"><ele>270.0</ele><time>2026-04-08T13:07:11.999Z</time></trkpt><trkpt lat="43.35997872135409" lon="11.411698942510984"><ele>270.0</ele><time>2026-04-08T13:07:13.999Z</time></trkpt><trkpt lat="43.3599660903063" lon="11.411601627897591"><ele>270.0</ele><time>2026-04-08T13:07:14.999Z</time></trkpt><trkpt lat="43.35995861792356" lon="11.411501106831938"><ele>270.0</ele><time>2026-04-08T13:07:15.999Z</time></trkpt><trkpt lat="43.35996836118037" lon="11.411407564030403"><ele>270.0</ele><time>2026-04-08T13:07:16.999Z</time></trkpt><trkpt lat="43.360002416504216" lon="11.41125772298585"><ele>270.0</ele><time>2026-04-08T13:07:18.999Z</time></trkpt><trkpt lat="43.36007902066783" lon="11.411131201994783"><ele>270.0</ele><time>2026-04-08T13:07:21Z</time></trkpt><trkpt lat="43.36014024960138" lon="11.411064045696804"><ele>270.0</ele><time>2026-04-08T13:07:22Z</time></trkpt><trkpt lat="43.36020568594583" lon="11.411015163837725"><ele>270.0</ele><time>2026-04-08T13:07:23Z</time></trkpt><trkpt lat="43.36027666176053" lon="11.410974490035002"><ele>270.0</ele><time>2026-04-08T13:07:24Z</time></trkpt><trkpt lat="43.36035636390229" lon="11.410936864880645"><ele>270.0</ele><time>2026-04-08T13:07:25Z</time></trkpt><trkpt lat="43.36043097166015" lon="11.410903758114848"><ele>270.0</ele><time>2026-04-08T13:07:26Z</time></trkpt><trkpt lat="43.36051292298916" lon="11.4108566918562"><ele>270.0</ele><time>2026-04-08T13:07:27Z</time></trkpt><trkpt lat="43.36061621220129" lon="11.41080853286643"><ele>270.0</ele><time>2026-04-08T13:07:28Z</time></trkpt><trkpt lat="43.36069306565888" lon="11.410771273809912"><ele>270.0</ele><time>2026-04-08T13:07:29Z</time></trkpt><trkpt lat="43.36076086418058" lon="11.410722155658133"><ele>270.0</ele><time>2026-04-08T13:07:30Z</time></trkpt><trkpt lat="43.36082504758306" lon="11.410660968641713"><ele>270.0</ele><time>2026-04-08T13:07:31Z</time></trkpt><trkpt lat="43.36086829990601" lon="11.410578806279268"><ele>271.8333333333333</ele><time>2026-04-08T13:07:32Z</time></trkpt><trkpt lat="43.36089689711954" lon="11.410479447156243"><ele>273.6666666666667</ele><time>2026-04-08T13:07:33Z</time></trkpt><trkpt lat="43.360915052715235" lon="11.410372906341662"><ele>275.5</ele><time>2026-04-08T13:07:34Z</time></trkpt><trkpt lat="43.36091921508468" lon="11.41025560111388"><ele>277.33333333333337</ele><time>2026-04-08T13:07:35Z</time></trkpt><trkpt lat="43.360914531700836" lon="11.410125518578932"><ele>279.1666666666667</ele><time>2026-04-08T13:07:36Z</time></trkpt><trkpt lat="43.36087115082752" lon="11.410016327130073"><ele>281.0</ele><time>2026-04-08T13:07:37Z</time></trkpt><trkpt lat="43.36084388340653" lon="11.409885509822885"><ele>281.0</ele><time>2026-04-08T13:07:38Z</time></trkpt><trkpt lat="43.36078794409371" lon="11.409750258714302"><ele>281.0</ele><time>2026-04-08T13:07:39Z</time></trkpt><trkpt lat="43.36073881556173" lon="11.409631268385722"><ele>281.0</ele><time>2026-04-08T13:07:40Z</time></trkpt><trkpt lat="43.36069088132348" lon="11.409520389268183"><ele>281.0</ele><time>2026-04-08T13:07:41Z</time></trkpt><trkpt lat="43.36064197188056" lon="11.409390808718225"><ele>281.0</ele><time>2026-04-08T13:07:42Z</time></trkpt><trkpt lat="43.36059447073386" lon="11.40928630595371"><ele>280.8</ele><time>2026-04-08T13:07:43Z</time></trkpt><trkpt lat="43.360544096576085" lon="11.409192450182829"><ele>280.6</ele><time>2026-04-08T13:07:44Z</time></trkpt><trkpt lat="43.36048439475462" lon="11.409081530490443"><ele>280.4</ele><time>2026-04-08T13:07:45Z</time></trkpt><trkpt lat="43.36041832763999" lon="11.408970193278853"><ele>280.2</ele><time>2026-04-08T13:07:46Z</time></trkpt><trkpt lat="43.36034088435639" lon="11.408874152500344"><ele>280.0</ele><time>2026-04-08T13:07:47Z</time></trkpt><trkpt lat="43.360268803597506" lon="11.408803444226585"><ele>281.8</ele><time>2026-04-08T13:07:48Z</time></trkpt><trkpt lat="43.36019117938638" lon="11.408733994397641"><ele>283.6</ele><time>2026-04-08T13:07:49Z</time></trkpt><trkpt lat="43.36010395366582" lon="11.408661286548805"><ele>285.4</ele><time>2026-04-08T13:07:50Z</time></trkpt><trkpt lat="43.36000796689267" lon="11.408583609780909"><ele>287.2</ele><time>2026-04-08T13:07:51Z</time></trkpt><trkpt lat="43.35990199019732" lon="11.40850182043468"><ele>289.0</ele><time>2026-04-08T13:07:52Z</time></trkpt><trkpt lat="43.359796755733605" lon="11.40842625319399"><ele>289.0</ele><time>2026-04-08T13:07:53Z</time></trkpt><trkpt lat="43.359713957750124" lon="11.408363851976985"><ele>289.0</ele><time>2026-04-08T13:07:54Z</time></trkpt><trkpt lat="43.35963618033274" lon="11.408303138852464"><ele>289.0</ele><time>2026-04-08T13:07:55Z</time></trkpt><trkpt lat="43.35957930425145" lon="11.408237463654137"><ele>289.0</ele><time>2026-04-08T13:07:56Z</time></trkpt><trkpt lat="43.35953133367395" lon="11.408140829439999"><ele>289.0</ele><time>2026-04-08T13:07:57Z</time></trkpt><trkpt lat="43.359507294916625" lon="11.408014375286823"><ele>289.0</ele><time>2026-04-08T13:07:58Z</time></trkpt><trkpt lat="43.35951462161937" lon="11.407889329923337"><ele>290.0</ele><time>2026-04-08T13:07:59Z</time></trkpt><trkpt lat="43.35952858267341" lon="11.407793416937269"><ele>291.0</ele><time>2026-04-08T13:08:00Z</time></trkpt><trkpt lat="43.35956611206689" lon="11.40769892259245"><ele>292.0</ele><time>2026-04-08T13:08:01Z</time></trkpt><trkpt lat="43.35961480791445" lon="11.407610329086356"><ele>293.0</ele><time>2026-04-08T13:08:02Z</time></trkpt><trkpt lat="43.3596796205478" lon="11.40752835186065"><ele>294.0</ele><time>2026-04-08T13:08:02.999Z</time></trkpt><trkpt lat="43.35975366094181" lon="11.407458831034862"><ele>295.0</ele><time>2026-04-08T13:08:03.999Z</time></trkpt><trkpt lat="43.359827757369914" lon="11.407415993054318"><ele>295.0</ele><time>2026-04-08T13:08:04.999Z</time></trkpt><trkpt lat="43.35991082803729" lon="11.407411618049986"><ele>295.0</ele><time>2026-04-08T13:08:05.999Z</time></trkpt><trkpt lat="43.35998335518397" lon="11.407429599967175"><ele>295.0</ele><time>2026-04-08T13:08:06.999Z</time></trkpt><trkpt lat="43.36007002126829" lon="11.407442355089188"><ele>295.0</ele><time>2026-04-08T13:08:07.999Z</time></trkpt><trkpt lat="43.36017471336409" lon="11.407470449844583"><ele>295.0</ele><time>2026-04-08T13:08:08.999Z</time></trkpt><trkpt lat="43.36028736355768" lon="11.407502597234263"><ele>295.0</ele><time>2026-04-08T13:08:09.999Z</time></trkpt><trkpt lat="43.360408086781455" lon="11.407532399958207"><ele>295.0</ele><time>2026-04-08T13:08:10.999Z</time></trkpt><trkpt lat="43.36053217400679" lon="11.40755251466722"><ele>295.0</ele><time>2026-04-08T13:08:11.999Z</time></trkpt><trkpt lat="43.360661270357674" lon="11.407570472254644"><ele>295.0</ele><time>2026-04-08T13:08:12.999Z</time></trkpt><trkpt lat="43.36079409708583" lon="11.40758080819128"><ele>296.0</ele><time>2026-04-08T13:08:13.999Z</time></trkpt><trkpt lat="43.360933630866796" lon="11.407585937510015"><ele>297.0</ele><time>2026-04-08T13:08:14.999Z</time></trkpt><trkpt lat="43.36108027641032" lon="11.407575458802937"><ele>298.0</ele><time>2026-04-08T13:08:15.999Z</time></trkpt><trkpt lat="43.36124332382922" lon="11.4075542645389"><ele>300.0</ele><time>2026-04-08T13:08:16.999Z</time></trkpt><trkpt lat="43.361401900134155" lon="11.407526772767575"><ele>302.0</ele><time>2026-04-08T13:08:17.999Z</time></trkpt><trkpt lat="43.36153013901491" lon="11.40750372900328"><ele>304.0</ele><time>2026-04-08T13:08:18.999Z</time></trkpt><trkpt lat="43.36165324786783" lon="11.407472950298109"><ele>306.0</ele><time>2026-04-08T13:08:19.999Z</time></trkpt><trkpt lat="43.36178367872389" lon="11.407435586419533"><ele>306.0</ele><time>2026-04-08T13:08:20.999Z</time></trkpt><trkpt lat="43.36191348722403" lon="11.407401691332726"><ele>306.0</ele><time>2026-04-08T13:08:21.999Z</time></trkpt><trkpt lat="43.362027718471886" lon="11.407366766044104"><ele>306.0</ele><time>2026-04-08T13:08:22.999Z</time></trkpt><trkpt lat="43.362153478155804" lon="11.407334077529312"><ele>306.0</ele><time>2026-04-08T13:08:23.999Z</time></trkpt><trkpt lat="43.36227660300535" lon="11.407298769540146"><ele>307.25</ele><time>2026-04-08T13:08:24.999Z</time></trkpt><trkpt lat="43.36238907583021" lon="11.407258357696644"><ele>308.5</ele><time>2026-04-08T13:08:25.999Z</time></trkpt><trkpt lat="43.362511441785074" lon="11.407213529296687"><ele>309.75</ele><time>2026-04-08T13:08:26.999Z</time></trkpt><trkpt lat="43.362636109478814" lon="11.40716452874171"><ele>311.0</ele><time>2026-04-08T13:08:27.999Z</time></trkpt><trkpt lat="43.3627650833576" lon="11.407105732562515"><ele>311.0</ele><time>2026-04-08T13:08:28.999Z</time></trkpt><trkpt lat="43.362902490684164" lon="11.4070386603087"><ele>311.0</ele><time>2026-04-08T13:08:29.999Z</time></trkpt><trkpt lat="43.36304561504684" lon="11.40696491826583"><ele>311.0</ele><time>2026-04-08T13:08:30.999Z</time></trkpt><trkpt lat="43.36318394930962" lon="11.406882486967946"><ele>311.0</ele><time>2026-04-08T13:08:31.999Z</time></trkpt><trkpt lat="43.36332616324614" lon="11.406795315631088"><ele>313.0</ele><time>2026-04-08T13:08:32.999Z</time></trkpt><trkpt lat="43.36345222951794" lon="11.406718200342878"><ele>315.0</ele><time>2026-04-08T13:08:33.999Z</time></trkpt><trkpt lat="43.36357396283264" lon="11.40664400300308"><ele>317.0</ele><time>2026-04-08T13:08:34.999Z</time></trkpt><trkpt lat="43.36369380410864" lon="11.406569733425975"><ele>319.0</ele><time>2026-04-08T13:08:35.999Z</time></trkpt><trkpt lat="43.36379817400701" lon="11.406505823565997"><ele>321.25</ele><time>2026-04-08T13:08:36.999Z</time></trkpt><trkpt lat="43.36390058223239" lon="11.406435673278065"><ele>323.5</ele><time>2026-04-08T13:08:37.999Z</time></trkpt><trkpt lat="43.36401685086398" lon="11.40635191226462"><ele>325.75</ele><time>2026-04-08T13:08:38.999Z</time></trkpt><trkpt lat="43.36414147765064" lon="11.406266790093305"><ele>328.0</ele><time>2026-04-08T13:08:39.999Z</time></trkpt><trkpt lat="43.364250390995686" lon="11.406192185392733"><ele>328.2</ele><time>2026-04-08T13:08:40.999Z</time></trkpt><trkpt lat="43.36434304477406" lon="11.406123837207671"><ele>328.4</ele><time>2026-04-08T13:08:41.999Z</time></trkpt><trkpt lat="43.364432145871014" lon="11.406066679599261"><ele>328.59999999999997</ele><time>2026-04-08T13:08:42.999Z</time></trkpt><trkpt lat="43.36451015811643" lon="11.4060328439587"><ele>328.79999999999995</ele><time>2026-04-08T13:08:43.999Z</time></trkpt><trkpt lat="43.36457481169133" lon="11.40602286508207"><ele>329.0</ele><time>2026-04-08T13:08:44.999Z</time></trkpt><trkpt lat="43.36467416869092" lon="11.40608210414482"><ele>331.0</ele><time>2026-04-08T13:08:46.999Z</time></trkpt><trkpt lat="43.364757640582006" lon="11.406215556652992"><ele>333.0</ele><time>2026-04-08T13:08:48.999Z</time></trkpt><trkpt lat="43.364817000484805" lon="11.40629109632969"><ele>335.0</ele><time>2026-04-08T13:08:49.999Z</time></trkpt><trkpt lat="43.36487941047786" lon="11.406366995455864"><ele>337.0</ele><time>2026-04-08T13:08:50.999Z</time></trkpt><trkpt lat="43.364945967983616" lon="11.40644251530887"><ele>339.0</ele><time>2026-04-08T13:08:51.999Z</time></trkpt><trkpt lat="43.365010099531624" lon="11.406498988288739"><ele>339.0</ele><time>2026-04-08T13:08:52.999Z</time></trkpt><trkpt lat="43.36508614346616" lon="11.406521013213045"><ele>339.0</ele><time>2026-04-08T13:08:53.999Z</time></trkpt><trkpt lat="43.36515045172332" lon="11.406501772434684"><ele>339.0</ele><time>2026-04-08T13:08:54.999Z</time></trkpt><trkpt lat="43.36521608614409" lon="11.40648727104929"><ele>339.0</ele><time>2026-04-08T13:08:55.999Z</time></trkpt><trkpt lat="43.36529635841673" lon="11.406460370445167"><ele>339.0</ele><time>2026-04-08T13:08:56.999Z</time></trkpt><trkpt lat="43.36537915715242" lon="11.406422879507277"><ele>339.0</ele><time>2026-04-08T13:08:57.999Z</time></trkpt><trkpt lat="43.36546075013929" lon="11.40638430740166"><ele>338.6</ele><time>2026-04-08T13:08:58.999Z</time></trkpt><trkpt lat="43.36555413400546" lon="11.406347752416085"><ele>338.2</ele><time>2026-04-08T13:08:59.999Z</time></trkpt><trkpt lat="43.36565419778293" lon="11.40630682844931"><ele>337.8</ele><time>2026-04-08T13:09:00.999Z</time></trkpt><trkpt lat="43.36574941023435" lon="11.40626911065744"><ele>337.40000000000003</ele><time>2026-04-08T13:09:01.999Z</time></trkpt><trkpt lat="43.365833001703535" lon="11.40623069395477"><ele>337.0</ele><time>2026-04-08T13:09:02.999Z</time></trkpt><trkpt lat="43.365902235911186" lon="11.406186204611878"><ele>338.16666666666663</ele><time>2026-04-08T13:09:03.999Z</time></trkpt><trkpt lat="43.36596173062842" lon="11.406123558579376"><ele>339.3333333333333</ele><time>2026-04-08T13:09:04.999Z</time></trkpt><trkpt lat="43.36601505553631" lon="11.406039677203378"><ele>340.5</ele><time>2026-04-08T13:09:05.999Z</time></trkpt><trkpt lat="43.366058261284714" lon="11.405936548446723"><ele>341.6666666666667</ele><time>2026-04-08T13:09:06.999Z</time></trkpt><trkpt lat="43.36610551268587" lon="11.4058078476272"><ele>342.83333333333337</ele><time>2026-04-08T13:09:07.999Z</time></trkpt><trkpt lat="43.36614817851459" lon="11.40568802854408"><ele>344.0</ele><time>2026-04-08T13:09:08.999Z</time></trkpt><trkpt lat="43.36620336061303" lon="11.405557167951521"><ele>344.0</ele><time>2026-04-08T13:09:09.999Z</time></trkpt><trkpt lat="43.366262689443495" lon="11.405418859608377"><ele>344.0</ele><time>2026-04-08T13:09:10.999Z</time></trkpt><trkpt lat="43.36632380176962" lon="11.4052701826033"><ele>344.0</ele><time>2026-04-08T13:09:11.999Z</time></trkpt><trkpt lat="43.36638753373568" lon="11.405108804966831"><ele>344.0</ele><time>2026-04-08T13:09:12.999Z</time></trkpt><trkpt lat="43.36644770989707" lon="11.40495871959291"><ele>344.0</ele><time>2026-04-08T13:09:13.999Z</time></trkpt><trkpt lat="43.36650260453361" lon="11.404837729522416"><ele>344.0</ele><time>2026-04-08T13:09:14.999Z</time></trkpt><trkpt lat="43.36656491485479" lon="11.404722674270591"><ele>344.0</ele><time>2026-04-08T13:09:15.999Z</time></trkpt><trkpt lat="43.3666402376958" lon="11.404615742512098"><ele>344.0</ele><time>2026-04-08T13:09:16.999Z</time></trkpt><trkpt lat="43.36673151857475" lon="11.404515202510474"><ele>344.0</ele><time>2026-04-08T13:09:17.999Z</time></trkpt><trkpt lat="43.36683757214465" lon="11.40442475951514"><ele>345.25</ele><time>2026-04-08T13:09:18.999Z</time></trkpt><trkpt lat="43.36694926999529" lon="11.40434859810978"><ele>346.5</ele><time>2026-04-08T13:09:19.999Z</time></trkpt><trkpt lat="43.36707659267025" lon="11.404299009067882"><ele>347.75</ele><time>2026-04-08T13:09:20.999Z</time></trkpt><trkpt lat="43.36721288515294" lon="11.40427951220279"><ele>349.0</ele><time>2026-04-08T13:09:21.999Z</time></trkpt><trkpt lat="43.36733771190927" lon="11.404282522984479"><ele>349.0</ele><time>2026-04-08T13:09:22.999Z</time></trkpt><trkpt lat="43.36748110262137" lon="11.404313809342995"><ele>349.0</ele><time>2026-04-08T13:09:23.999Z</time></trkpt><trkpt lat="43.367631622569" lon="11.40433759763886"><ele>349.0</ele><time>2026-04-08T13:09:24.999Z</time></trkpt><trkpt lat="43.367771646489636" lon="11.40435478281217"><ele>349.0</ele><time>2026-04-08T13:09:25.999Z</time></trkpt><trkpt lat="43.36790288558697" lon="11.404380119286959"><ele>349.75</ele><time>2026-04-08T13:09:26.999Z</time></trkpt><trkpt lat="43.36802999472371" lon="11.404406034841026"><ele>350.5</ele><time>2026-04-08T13:09:27.999Z</time></trkpt><trkpt lat="43.368161946288886" lon="11.404429566258438"><ele>351.25</ele><time>2026-04-08T13:09:28.999Z</time></trkpt><trkpt lat="43.36828243012392" lon="11.40444982224464"><ele>352.0</ele><time>2026-04-08T13:09:29.999Z</time></trkpt><trkpt lat="43.368399706644084" lon="11.404465838409017"><ele>352.0</ele><time>2026-04-08T13:09:30.999Z</time></trkpt><trkpt lat="43.36852864127774" lon="11.404486621696828"><ele>352.0</ele><time>2026-04-08T13:09:31.999Z</time></trkpt><trkpt lat="43.3686694365179" lon="11.404516201851624"><ele>352.0</ele><time>2026-04-08T13:09:32.999Z</time></trkpt><trkpt lat="43.3688214003916" lon="11.40452479254255"><ele>352.0</ele><time>2026-04-08T13:09:33.999Z</time></trkpt><trkpt lat="43.36894750477764" lon="11.404516770722328"><ele>352.75</ele><time>2026-04-08T13:09:34.999Z</time></trkpt><trkpt lat="43.36905745838033" lon="11.404509664928275"><ele>353.5</ele><time>2026-04-08T13:09:35.999Z</time></trkpt><trkpt lat="43.36916516670345" lon="11.404499303594925"><ele>354.25</ele><time>2026-04-08T13:09:36.999Z</time></trkpt><trkpt lat="43.369281747233536" lon="11.404489916511634"><ele>355.0</ele><time>2026-04-08T13:09:37.999Z</time></trkpt><trkpt lat="43.369400424852984" lon="11.404487949349363"><ele>355.0</ele><time>2026-04-08T13:09:39Z</time></trkpt><trkpt lat="43.36951508581132" lon="11.404485419344786"><ele>355.0</ele><time>2026-04-08T13:09:40Z</time></trkpt><trkpt lat="43.3696201247821" lon="11.404489417086284"><ele>355.0</ele><time>2026-04-08T13:09:41Z</time></trkpt><trkpt lat="43.36972428363091" lon="11.404495136942286"><ele>355.0</ele><time>2026-04-08T13:09:42Z</time></trkpt><trkpt lat="43.36983758739056" lon="11.404501479326257"><ele>355.0</ele><time>2026-04-08T13:09:43Z</time></trkpt><trkpt lat="43.369957810808884" lon="11.404505486807635"><ele>356.5</ele><time>2026-04-08T13:09:44Z</time></trkpt><trkpt lat="43.37009410186292" lon="11.40451388185477"><ele>358.0</ele><time>2026-04-08T13:09:45Z</time></trkpt><trkpt lat="43.37022263361104" lon="11.404515767998324"><ele>359.5</ele><time>2026-04-08T13:09:46Z</time></trkpt><trkpt lat="43.3703322097506" lon="11.404523200084302"><ele>361.0</ele><time>2026-04-08T13:09:47Z</time></trkpt><trkpt lat="43.370445770885354" lon="11.404529911789245"><ele>362.0</ele><time>2026-04-08T13:09:48Z</time></trkpt><trkpt lat="43.370562711150946" lon="11.404524761556832"><ele>363.0</ele><time>2026-04-08T13:09:49Z</time></trkpt><trkpt lat="43.37066815949707" lon="11.404507207851475"><ele>364.0</ele><time>2026-04-08T13:09:50Z</time></trkpt><trkpt lat="43.370766620296344" lon="11.404471412555374"><ele>365.0</ele><time>2026-04-08T13:09:51Z</time></trkpt><trkpt lat="43.370864428343154" lon="11.404419421030589"><ele>366.0</ele><time>2026-04-08T13:09:52Z</time></trkpt><trkpt lat="43.37094579768102" lon="11.404345216256955"><ele>366.0</ele><time>2026-04-08T13:09:53Z</time></trkpt><trkpt lat="43.37101626729871" lon="11.404250324440278"><ele>366.0</ele><time>2026-04-08T13:09:54Z</time></trkpt><trkpt lat="43.371078197917356" lon="11.404145698252387"><ele>366.0</ele><time>2026-04-08T13:09:55Z</time></trkpt><trkpt lat="43.37113063923229" lon="11.404020492738319"><ele>366.0</ele><time>2026-04-08T13:09:56Z</time></trkpt><trkpt lat="43.371182145489676" lon="11.403891992574026"><ele>366.0</ele><time>2026-04-08T13:09:57Z</time></trkpt><trkpt lat="43.37123454566778" lon="11.403763497127224"><ele>366.5</ele><time>2026-04-08T13:09:58Z</time></trkpt><trkpt lat="43.37129415071941" lon="11.403628649094617"><ele>367.0</ele><time>2026-04-08T13:09:59Z</time></trkpt><trkpt lat="43.37135274110036" lon="11.40349659521437"><ele>367.5</ele><time>2026-04-08T13:10:00Z</time></trkpt><trkpt lat="43.37141614298031" lon="11.403356782893498"><ele>368.0</ele><time>2026-04-08T13:10:01Z</time></trkpt><trkpt lat="43.37147185376531" lon="11.403211064609716"><ele>369.0</ele><time>2026-04-08T13:10:02Z</time></trkpt><trkpt lat="43.371537550099745" lon="11.403068636732412"><ele>370.0</ele><time>2026-04-08T13:10:03Z</time></trkpt><trkpt lat="43.371602059168936" lon="11.40291162504092"><ele>371.0</ele><time>2026-04-08T13:10:04Z</time></trkpt><trkpt lat="43.37167169251141" lon="11.402743948344305"><ele>372.0</ele><time>2026-04-08T13:10:05Z</time></trkpt><trkpt lat="43.37174348678147" lon="11.402573040279432"><ele>373.40000000000003</ele><time>2026-04-08T13:10:06Z</time></trkpt><trkpt lat="43.37180208069202" lon="11.402430137347183"><ele>374.8</ele><time>2026-04-08T13:10:07Z</time></trkpt><trkpt lat="43.37185705815821" lon="11.40230371223228"><ele>376.2</ele><time>2026-04-08T13:10:08Z</time></trkpt><trkpt lat="43.3718942049854" lon="11.402163876381426"><ele>377.6</ele><time>2026-04-08T13:10:09Z</time></trkpt><trkpt lat="43.3718889292561" lon="11.402008650417562"><ele>379.0</ele><time>2026-04-08T13:10:10Z</time></trkpt><trkpt lat="43.37190625179749" lon="11.401878914614441"><ele>379.4</ele><time>2026-04-08T13:10:11Z</time></trkpt><trkpt lat="43.37191616219555" lon="11.401770505346198"><ele>379.79999999999995</ele><time>2026-04-08T13:10:12Z</time></trkpt><trkpt lat="43.371956001860966" lon="11.401676787223547"><ele>380.20000000000005</ele><time>2026-04-08T13:10:12.999Z</time></trkpt><trkpt lat="43.37201401142304" lon="11.40158148297042"><ele>380.6</ele><time>2026-04-08T13:10:13.999Z</time></trkpt><trkpt lat="43.372087997819236" lon="11.401480801296028"><ele>381.0</ele><time>2026-04-08T13:10:14.999Z</time></trkpt><trkpt lat="43.3721819851153" lon="11.40138294230979"><ele>382.25</ele><time>2026-04-08T13:10:15.999Z</time></trkpt><trkpt lat="43.372290195988406" lon="11.401286096003945"><ele>383.5</ele><time>2026-04-08T13:10:16.999Z</time></trkpt><trkpt lat="43.37240537734944" lon="11.401182059647073"><ele>384.75</ele><time>2026-04-08T13:10:17.999Z</time></trkpt><trkpt lat="43.37250076906856" lon="11.40107641388533"><ele>386.0</ele><time>2026-04-08T13:10:18.999Z</time></trkpt><trkpt lat="43.372586468028054" lon="11.400985267338816"><ele>386.0</ele><time>2026-04-08T13:10:19.999Z</time></trkpt><trkpt lat="43.372666797259456" lon="11.400892141469598"><ele>386.0</ele><time>2026-04-08T13:10:20.999Z</time></trkpt><trkpt lat="43.37275958021411" lon="11.400794312181327"><ele>386.0</ele><time>2026-04-08T13:10:21.999Z</time></trkpt><trkpt lat="43.372850961351226" lon="11.400689014871633"><ele>386.0</ele><time>2026-04-08T13:10:22.999Z</time></trkpt><trkpt lat="43.37294139580506" lon="11.400581676136115"><ele>385.4</ele><time>2026-04-08T13:10:23.999Z</time></trkpt><trkpt lat="43.373033163109305" lon="11.400478516254829"><ele>384.8</ele><time>2026-04-08T13:10:24.999Z</time></trkpt><trkpt lat="43.37312255916713" lon="11.4003897983084"><ele>384.2</ele><time>2026-04-08T13:10:25.999Z</time></trkpt><trkpt lat="43.373218109393044" lon="11.400312102466314"><ele>383.59999999999997</ele><time>2026-04-08T13:10:26.999Z</time></trkpt><trkpt lat="43.37331468137061" lon="11.40024848312389"><ele>383.0</ele><time>2026-04-08T13:10:27.999Z</time></trkpt><trkpt lat="43.373414047662074" lon="11.400190167400615"><ele>383.0</ele><time>2026-04-08T13:10:28.999Z</time></trkpt><trkpt lat="43.37352722648727" lon="11.400136970380066"><ele>383.0</ele><time>2026-04-08T13:10:29.999Z</time></trkpt><trkpt lat="43.37365092358031" lon="11.40009394664846"><ele>383.0</ele><time>2026-04-08T13:10:30.999Z</time></trkpt><trkpt lat="43.37376806737674" lon="11.400051227205566"><ele>383.0</ele><time>2026-04-08T13:10:31.999Z</time></trkpt><trkpt lat="43.3738690683913" lon="11.400009468457103"><ele>383.0</ele><time>2026-04-08T13:10:32.999Z</time></trkpt><trkpt lat="43.373961095578" lon="11.399963966040222"><ele>383.0</ele><time>2026-04-08T13:10:33.999Z</time></trkpt><trkpt lat="43.374058237711075" lon="11.399909291110667"><ele>383.0</ele><time>2026-04-08T13:10:34.999Z</time></trkpt><trkpt lat="43.374152816532956" lon="11.399852419563556"><ele>383.0</ele><time>2026-04-08T13:10:35.999Z</time></trkpt><trkpt lat="43.37424049110456" lon="11.399788629683648"><ele>383.0</ele><time>2026-04-08T13:10:36.999Z</time></trkpt><trkpt lat="43.374330756913544" lon="11.399713067685713"><ele>382.75</ele><time>2026-04-08T13:10:37.999Z</time></trkpt><trkpt lat="43.37442470901002" lon="11.399619758959043"><ele>382.5</ele><time>2026-04-08T13:10:38.999Z</time></trkpt><trkpt lat="43.37451348808934" lon="11.399520679791"><ele>382.25</ele><time>2026-04-08T13:10:39.999Z</time></trkpt><trkpt lat="43.37461476649732" lon="11.399411200059566"><ele>382.0</ele><time>2026-04-08T13:10:40.999Z</time></trkpt><trkpt lat="43.37472465201758" lon="11.399297859411185"><ele>382.0</ele><time>2026-04-08T13:10:41.999Z</time></trkpt><trkpt lat="43.37483344666563" lon="11.39917987168613"><ele>382.0</ele><time>2026-04-08T13:10:42.999Z</time></trkpt><trkpt lat="43.37494278551753" lon="11.399053699182382"><ele>382.0</ele><time>2026-04-08T13:10:43.999Z</time></trkpt><trkpt lat="43.37505607073433" lon="11.398930076215656"><ele>382.0</ele><time>2026-04-08T13:10:44.999Z</time></trkpt><trkpt lat="43.37516244110499" lon="11.39881351221694"><ele>382.25</ele><time>2026-04-08T13:10:45.999Z</time></trkpt><trkpt lat="43.3752591528801" lon="11.39871033224931"><ele>382.5</ele><time>2026-04-08T13:10:46.999Z</time></trkpt><trkpt lat="43.37536437835871" lon="11.398612376044786"><ele>382.75</ele><time>2026-04-08T13:10:47.999Z</time></trkpt><trkpt lat="43.37548996523178" lon="11.398527828679683"><ele>383.0</ele><time>2026-04-08T13:10:48.999Z</time></trkpt><trkpt lat="43.375622617732205" lon="11.398450587281214"><ele>383.0</ele><time>2026-04-08T13:10:49.999Z</time></trkpt><trkpt lat="43.37576814931298" lon="11.398385586307676"><ele>383.0</ele><time>2026-04-08T13:10:50.999Z</time></trkpt><trkpt lat="43.37591749648932" lon="11.398322413351549"><ele>383.0</ele><time>2026-04-08T13:10:51.999Z</time></trkpt><trkpt lat="43.37604617398503" lon="11.398276851045063"><ele>383.0</ele><time>2026-04-08T13:10:52.999Z</time></trkpt><trkpt lat="43.37616212007373" lon="11.398236069864588"><ele>383.0</ele><time>2026-04-08T13:10:53.999Z</time></trkpt><trkpt lat="43.37627806299184" lon="11.398195745966202"><ele>383.0</ele><time>2026-04-08T13:10:54.999Z</time></trkpt><trkpt lat="43.37640787432931" lon="11.398150715237165"><ele>383.0</ele><time>2026-04-08T13:10:55.999Z</time></trkpt><trkpt lat="43.3765384928391" lon="11.398098707242935"><ele>383.0</ele><time>2026-04-08T13:10:56.999Z</time></trkpt><trkpt lat="43.37666292027488" lon="11.39802802688544"><ele>384.0</ele><time>2026-04-08T13:10:57.999Z</time></trkpt><trkpt lat="43.376764566672385" lon="11.397945582362958"><ele>385.0</ele><time>2026-04-08T13:10:58.999Z</time></trkpt><trkpt lat="43.3768660639868" lon="11.397843201989607"><ele>386.0</ele><time>2026-04-08T13:10:59.999Z</time></trkpt><trkpt lat="43.376968897655345" lon="11.397729234154177"><ele>387.0</ele><time>2026-04-08T13:11:00.999Z</time></trkpt><trkpt lat="43.3770783752341" lon="11.397615087023787"><ele>386.75</ele><time>2026-04-08T13:11:01.999Z</time></trkpt><trkpt lat="43.37719354037814" lon="11.397504529374748"><ele>386.5</ele><time>2026-04-08T13:11:02.999Z</time></trkpt><trkpt lat="43.37730950697868" lon="11.397406446853498"><ele>386.25</ele><time>2026-04-08T13:11:03.999Z</time></trkpt><trkpt lat="43.377424605031564" lon="11.397302833770468"><ele>386.0</ele><time>2026-04-08T13:11:04.999Z</time></trkpt><trkpt lat="43.377545646534045" lon="11.3972113940687"><ele>386.75</ele><time>2026-04-08T13:11:05.999Z</time></trkpt><trkpt lat="43.377676594235105" lon="11.397156874187422"><ele>387.5</ele><time>2026-04-08T13:11:06.999Z</time></trkpt><trkpt lat="43.37780174016964" lon="11.397131970172596"><ele>388.25</ele><time>2026-04-08T13:11:07.999Z</time></trkpt><trkpt lat="43.377939374969145" lon="11.397122113979586"><ele>389.0</ele><time>2026-04-08T13:11:08.999Z</time></trkpt><trkpt lat="43.37809884514516" lon="11.397098744742514"><ele>390.66666666666663</ele><time>2026-04-08T13:11:09.999Z</time></trkpt><trkpt lat="43.37825535129919" lon="11.397051387932319"><ele>392.33333333333337</ele><time>2026-04-08T13:11:10.999Z</time></trkpt><trkpt lat="43.378424914648036" lon="11.396987945219891"><ele>394.0</ele><time>2026-04-08T13:11:11.999Z</time></trkpt><trkpt lat="43.37860326007927" lon="11.39692740025389"><ele>394.0</ele><time>2026-04-08T13:11:12.999Z</time></trkpt><trkpt lat="43.37875980713856" lon="11.396874331891857"><ele>394.0</ele><time>2026-04-08T13:11:13.999Z</time></trkpt><trkpt lat="43.37890744476702" lon="11.39682128808219"><ele>394.0</ele><time>2026-04-08T13:11:14.999Z</time></trkpt><trkpt lat="43.379058337362586" lon="11.39677030389024"><ele>395.5</ele><time>2026-04-08T13:11:15.999Z</time></trkpt><trkpt lat="43.37919309280268" lon="11.396733274573826"><ele>397.0</ele><time>2026-04-08T13:11:16.999Z</time></trkpt><trkpt lat="43.379318237894424" lon="11.396691493154167"><ele>398.5</ele><time>2026-04-08T13:11:17.999Z</time></trkpt><trkpt lat="43.37945002000161" lon="11.396650209055153"><ele>400.0</ele><time>2026-04-08T13:11:18.999Z</time></trkpt><trkpt lat="43.37958510083431" lon="11.396609576993242"><ele>401.0</ele><time>2026-04-08T13:11:19.999Z</time></trkpt><trkpt lat="43.37972051700585" lon="11.396576987150427"><ele>402.0</ele><time>2026-04-08T13:11:20.999Z</time></trkpt><trkpt lat="43.37985798280655" lon="11.396544535408964"><ele>403.0</ele><time>2026-04-08T13:11:21.999Z</time></trkpt><trkpt lat="43.38000105343436" lon="11.39650820471278"><ele>404.0</ele><time>2026-04-08T13:11:22.999Z</time></trkpt><trkpt lat="43.38014250328071" lon="11.396470363483473"><ele>404.0</ele><time>2026-04-08T13:11:23.999Z</time></trkpt><trkpt lat="43.380279146254054" lon="11.39643491607414"><ele>404.0</ele><time>2026-04-08T13:11:24.999Z</time></trkpt><trkpt lat="43.38041193805759" lon="11.3964011829397"><ele>404.0</ele><time>2026-04-08T13:11:25.999Z</time></trkpt><trkpt lat="43.38054802852907" lon="11.396366457850313"><ele>404.0</ele><time>2026-04-08T13:11:27Z</time></trkpt><trkpt lat="43.380688738316245" lon="11.396332586951312"><ele>405.0</ele><time>2026-04-08T13:11:28Z</time></trkpt><trkpt lat="43.38081816102534" lon="11.396308180414184"><ele>406.0</ele><time>2026-04-08T13:11:29Z</time></trkpt><trkpt lat="43.38094635251014" lon="11.396294178947766"><ele>407.0</ele><time>2026-04-08T13:11:30Z</time></trkpt><trkpt lat="43.381085146690864" lon="11.396287409432242"><ele>408.0</ele><time>2026-04-08T13:11:31Z</time></trkpt><trkpt lat="43.38121649083994" lon="11.396291509140381"><ele>408.0</ele><time>2026-04-08T13:11:32Z</time></trkpt><trkpt lat="43.38134523431848" lon="11.396295777901194"><ele>408.0</ele><time>2026-04-08T13:11:33Z</time></trkpt><trkpt lat="43.38148267415227" lon="11.396291172031054"><ele>408.0</ele><time>2026-04-08T13:11:34Z</time></trkpt><trkpt lat="43.38162406608577" lon="11.396272088271314"><ele>408.0</ele><time>2026-04-08T13:11:35Z</time></trkpt><trkpt lat="43.38176622564435" lon="11.396248102673747"><ele>408.5</ele><time>2026-04-08T13:11:36Z</time></trkpt><trkpt lat="43.38189061870639" lon="11.396227213438292"><ele>409.0</ele><time>2026-04-08T13:11:37Z</time></trkpt><trkpt lat="43.3820153701871" lon="11.396208025799883"><ele>409.5</ele><time>2026-04-08T13:11:38Z</time></trkpt><trkpt lat="43.38214931729144" lon="11.396183473969984"><ele>410.0</ele><time>2026-04-08T13:11:39Z</time></trkpt><trkpt lat="43.38228327947416" lon="11.39616496485227"><ele>411.0</ele><time>2026-04-08T13:11:40Z</time></trkpt><trkpt lat="43.38242161546501" lon="11.396128821501087"><ele>412.0</ele><time>2026-04-08T13:11:41Z</time></trkpt><trkpt lat="43.38255925791849" lon="11.39609301055028"><ele>413.0</ele><time>2026-04-08T13:11:42Z</time></trkpt><trkpt lat="43.382693456522276" lon="11.39605333969406"><ele>414.0</ele><time>2026-04-08T13:11:43Z</time></trkpt><trkpt lat="43.382819571735766" lon="11.396014848544056"><ele>414.0</ele><time>2026-04-08T13:11:44Z</time></trkpt><trkpt lat="43.382946988037396" lon="11.395969715312601"><ele>414.0</ele><time>2026-04-08T13:11:45Z</time></trkpt><trkpt lat="43.38306949550306" lon="11.395923622388382"><ele>414.0</ele><time>2026-04-08T13:11:46Z</time></trkpt><trkpt lat="43.383184280901745" lon="11.39588037133099"><ele>414.0</ele><time>2026-04-08T13:11:47Z</time></trkpt><trkpt lat="43.38329784974974" lon="11.395836125809367"><ele>415.0</ele><time>2026-04-08T13:11:48Z</time></trkpt><trkpt lat="43.383403842552774" lon="11.395793637460827"><ele>416.0</ele><time>2026-04-08T13:11:49Z</time></trkpt><trkpt lat="43.38350961035888" lon="11.395753016055886"><ele>417.0</ele><time>2026-04-08T13:11:50Z</time></trkpt><trkpt lat="43.38362535542503" lon="11.395708954895671"><ele>418.0</ele><time>2026-04-08T13:11:51Z</time></trkpt><trkpt lat="43.38373994880477" lon="11.395666724336039"><ele>418.0</ele><time>2026-04-08T13:11:52Z</time></trkpt><trkpt lat="43.383846213227365" lon="11.395626871790249"><ele>418.0</ele><time>2026-04-08T13:11:53Z</time></trkpt><trkpt lat="43.38394068098453" lon="11.395591970220808"><ele>418.0</ele><time>2026-04-08T13:11:54Z</time></trkpt><trkpt lat="43.38403636429747" lon="11.395552068975633"><ele>418.0</ele><time>2026-04-08T13:11:55Z</time></trkpt><trkpt lat="43.38412808604075" lon="11.395520299055034"><ele>418.0</ele><time>2026-04-08T13:11:56Z</time></trkpt><trkpt lat="43.3842135862011" lon="11.395487689585508"><ele>417.59999999999997</ele><time>2026-04-08T13:11:57Z</time></trkpt><trkpt lat="43.38430478967687" lon="11.39544743454341"><ele>417.2</ele><time>2026-04-08T13:11:58Z</time></trkpt><trkpt lat="43.38440075887351" lon="11.395412665921727"><ele>416.8</ele><time>2026-04-08T13:11:59Z</time></trkpt><trkpt lat="43.38449315033052" lon="11.39536541189592"><ele>416.4</ele><time>2026-04-08T13:12:00Z</time></trkpt><trkpt lat="43.38458427716218" lon="11.395307615441498"><ele>416.0</ele><time>2026-04-08T13:12:01Z</time></trkpt><trkpt lat="43.384667874058984" lon="11.395233238267563"><ele>417.4</ele><time>2026-04-08T13:12:02Z</time></trkpt><trkpt lat="43.38474288440215" lon="11.395149654823639"><ele>418.8</ele><time>2026-04-08T13:12:03Z</time></trkpt><trkpt lat="43.384820516691946" lon="11.395037730982313"><ele>420.2</ele><time>2026-04-08T13:12:04Z</time></trkpt><trkpt lat="43.38489503580628" lon="11.394911431055936"><ele>421.59999999999997</ele><time>2026-04-08T13:12:05Z</time></trkpt><trkpt lat="43.38497255197003" lon="11.394787393555985"><ele>423.0</ele><time>2026-04-08T13:12:06Z</time></trkpt><trkpt lat="43.385039188837496" lon="11.394672486738466"><ele>423.5</ele><time>2026-04-08T13:12:07Z</time></trkpt><trkpt lat="43.38511504585868" lon="11.394556932733567"><ele>424.0</ele><time>2026-04-08T13:12:08Z</time></trkpt><trkpt lat="43.38519530483452" lon="11.394444084534712"><ele>424.5</ele><time>2026-04-08T13:12:09Z</time></trkpt><trkpt lat="43.38528291254202" lon="11.394323655707414"><ele>425.0</ele><time>2026-04-08T13:12:10Z</time></trkpt><trkpt lat="43.3853791994777" lon="11.394194868092967"><ele>425.0</ele><time>2026-04-08T13:12:11Z</time></trkpt><trkpt lat="43.38547796745979" lon="11.394060197816952"><ele>425.0</ele><time>2026-04-08T13:12:12Z</time></trkpt><trkpt lat="43.38557695448024" lon="11.393922254225384"><ele>425.0</ele><time>2026-04-08T13:12:13Z</time></trkpt><trkpt lat="43.38567495509818" lon="11.393780328591248"><ele>425.0</ele><time>2026-04-08T13:12:14Z</time></trkpt><trkpt lat="43.38576711352716" lon="11.393625062186672"><ele>425.75</ele><time>2026-04-08T13:12:15Z</time></trkpt><trkpt lat="43.38586505377469" lon="11.39349242662708"><ele>426.5</ele><time>2026-04-08T13:12:16Z</time></trkpt><trkpt lat="43.38594485014884" lon="11.393385561041628"><ele>427.25</ele><time>2026-04-08T13:12:17Z</time></trkpt><trkpt lat="43.386026870075646" lon="11.393251283535124"><ele>428.0</ele><time>2026-04-08T13:12:18Z</time></trkpt><trkpt lat="43.38611415056285" lon="11.393121764859885"><ele>428.0</ele><time>2026-04-08T13:12:19Z</time></trkpt><trkpt lat="43.386204010179064" lon="11.392994266421113"><ele>428.0</ele><time>2026-04-08T13:12:20Z</time></trkpt><trkpt lat="43.38628143011207" lon="11.392878061367146"><ele>428.0</ele><time>2026-04-08T13:12:21Z</time></trkpt><trkpt lat="43.38636311474476" lon="11.392768045912009"><ele>428.0</ele><time>2026-04-08T13:12:22Z</time></trkpt><trkpt lat="43.38645224204564" lon="11.392664480009543"><ele>428.75</ele><time>2026-04-08T13:12:23Z</time></trkpt><trkpt lat="43.386557477926864" lon="11.392572328321119"><ele>429.5</ele><time>2026-04-08T13:12:24Z</time></trkpt><trkpt lat="43.386660672640346" lon="11.392477575718223"><ele>430.25</ele><time>2026-04-08T13:12:25Z</time></trkpt><trkpt lat="43.38676761738657" lon="11.392378994417568"><ele>431.0</ele><time>2026-04-08T13:12:26Z</time></trkpt><trkpt lat="43.38687393681226" lon="11.392274464004451"><ele>430.75</ele><time>2026-04-08T13:12:27Z</time></trkpt><trkpt lat="43.38697725921998" lon="11.392159979300425"><ele>430.5</ele><time>2026-04-08T13:12:28Z</time></trkpt><trkpt lat="43.387071521281705" lon="11.392039771628266"><ele>430.25</ele><time>2026-04-08T13:12:29Z</time></trkpt><trkpt lat="43.38715588780603" lon="11.39190954151138"><ele>430.0</ele><time>2026-04-08T13:12:30Z</time></trkpt><trkpt lat="43.387242307647185" lon="11.39176797593057"><ele>431.0</ele><time>2026-04-08T13:12:31Z</time></trkpt><trkpt lat="43.38733602542305" lon="11.3916244573936"><ele>432.0</ele><time>2026-04-08T13:12:32Z</time></trkpt><trkpt lat="43.38743568315941" lon="11.391477496220766"><ele>433.0</ele><time>2026-04-08T13:12:33Z</time></trkpt><trkpt lat="43.38752289743392" lon="11.391345125645245"><ele>434.0</ele><time>2026-04-08T13:12:34Z</time></trkpt><trkpt lat="43.38759639878562" lon="11.391225925758839"><ele>434.4</ele><time>2026-04-08T13:12:35Z</time></trkpt><trkpt lat="43.38767280171358" lon="11.39110602378625"><ele>434.79999999999995</ele><time>2026-04-08T13:12:36Z</time></trkpt><trkpt lat="43.3877431751325" lon="11.390997438553905"><ele>435.20000000000005</ele><time>2026-04-08T13:12:37Z</time></trkpt><trkpt lat="43.387809356125025" lon="11.390897349689089"><ele>435.6</ele><time>2026-04-08T13:12:38Z</time></trkpt><trkpt lat="43.387865630825985" lon="11.390810916792239"><ele>436.0</ele><time>2026-04-08T13:12:39Z</time></trkpt><trkpt lat="43.38792988310089" lon="11.390711945018477"><ele>436.00000000000006</ele><time>2026-04-08T13:12:40Z</time></trkpt><trkpt lat="43.387988888644735" lon="11.390621478976174"><ele>436.0</ele><time>2026-04-08T13:12:41Z</time></trkpt><trkpt lat="43.388039886644634" lon="11.390540426978689"><ele>436.0</ele><time>2026-04-08T13:12:42Z</time></trkpt><trkpt lat="43.38808181292148" lon="11.390462824775526"><ele>436.0</ele><time>2026-04-08T13:12:43Z</time></trkpt><trkpt lat="43.38811328626967" lon="11.390369950242876"><ele>436.00000000000006</ele><time>2026-04-08T13:12:44Z</time></trkpt><trkpt lat="43.38813222735536" lon="11.390260995135034"><ele>436.0</ele><time>2026-04-08T13:12:45Z</time></trkpt><trkpt lat="43.388146833101814" lon="11.390141179136586"><ele>434.4</ele><time>2026-04-08T13:12:46Z</time></trkpt><trkpt lat="43.38816603693422" lon="11.3900149653242"><ele>432.8</ele><time>2026-04-08T13:12:47Z</time></trkpt><trkpt lat="43.38818512169728" lon="11.389877871776816"><ele>431.19999999999993</ele><time>2026-04-08T13:12:48Z</time></trkpt><trkpt lat="43.38821433813136" lon="11.38973095014242"><ele>429.59999999999997</ele><time>2026-04-08T13:12:49Z</time></trkpt><trkpt lat="43.388258062948964" lon="11.389577754866512"><ele>428.0</ele><time>2026-04-08T13:12:50Z</time></trkpt><trkpt lat="43.38832040703505" lon="11.389422139774297"><ele>427.75</ele><time>2026-04-08T13:12:51Z</time></trkpt><trkpt lat="43.38839253777123" lon="11.389250159081177"><ele>427.5</ele><time>2026-04-08T13:12:52Z</time></trkpt><trkpt lat="43.38846808383059" lon="11.389079603388035"><ele>427.25</ele><time>2026-04-08T13:12:53Z</time></trkpt><trkpt lat="43.38854429968731" lon="11.388909867028348"><ele>427.0</ele><time>2026-04-08T13:12:54Z</time></trkpt><trkpt lat="43.388620961709144" lon="11.388726861698801"><ele>427.5</ele><time>2026-04-08T13:12:55Z</time></trkpt><trkpt lat="43.38869400707838" lon="11.388566605705236"><ele>428.0</ele><time>2026-04-08T13:12:56Z</time></trkpt><trkpt lat="43.388764425606425" lon="11.388405028480289"><ele>428.5</ele><time>2026-04-08T13:12:57Z</time></trkpt><trkpt lat="43.38883833380824" lon="11.388246346754013"><ele>429.0</ele><time>2026-04-08T13:12:58Z</time></trkpt><trkpt lat="43.388904534893484" lon="11.388096289243528"><ele>427.25</ele><time>2026-04-08T13:12:59Z</time></trkpt><trkpt lat="43.3889727647603" lon="11.387937317424951"><ele>425.5</ele><time>2026-04-08T13:13:00Z</time></trkpt><trkpt lat="43.38904294264189" lon="11.387772534119671"><ele>423.75</ele><time>2026-04-08T13:13:01Z</time></trkpt><trkpt lat="43.38910413494366" lon="11.387612240136024"><ele>422.0</ele><time>2026-04-08T13:13:02Z</time></trkpt><trkpt lat="43.38915154605336" lon="11.387470850880149"><ele>422.0</ele><time>2026-04-08T13:13:03Z</time></trkpt><trkpt lat="43.38920150830965" lon="11.387313934457895"><ele>422.0</ele><time>2026-04-08T13:13:04Z</time></trkpt><trkpt lat="43.389275903787976" lon="11.387163129012865"><ele>422.0</ele><time>2026-04-08T13:13:05Z</time></trkpt><trkpt lat="43.38936714352858" lon="11.387011713400202"><ele>422.0</ele><time>2026-04-08T13:13:06Z</time></trkpt><trkpt lat="43.389453169139934" lon="11.386850205026803"><ele>422.0</ele><time>2026-04-08T13:13:07Z</time></trkpt><trkpt lat="43.38952566144186" lon="11.386700157823341"><ele>422.0</ele><time>2026-04-08T13:13:08Z</time></trkpt><trkpt lat="43.3895896604932" lon="11.3865643262875"><ele>422.0</ele><time>2026-04-08T13:13:09Z</time></trkpt><trkpt lat="43.38964880556035" lon="11.386437271646852"><ele>422.0</ele><time>2026-04-08T13:13:10Z</time></trkpt><trkpt lat="43.38970061400165" lon="11.386319219799788"><ele>421.99999999999994</ele><time>2026-04-08T13:13:11Z</time></trkpt><trkpt lat="43.38974674323934" lon="11.386188665982916"><ele>422.0</ele><time>2026-04-08T13:13:12Z</time></trkpt><trkpt lat="43.389787480699546" lon="11.386063681259843"><ele>422.0</ele><time>2026-04-08T13:13:13Z</time></trkpt><trkpt lat="43.389826399471374" lon="11.385954066786192"><ele>422.0</ele><time>2026-04-08T13:13:14Z</time></trkpt><trkpt lat="43.389860759168265" lon="11.385854417801301"><ele>421.99999999999994</ele><time>2026-04-08T13:13:15Z</time></trkpt><trkpt lat="43.389891754775206" lon="11.3857595128487"><ele>422.0</ele><time>2026-04-08T13:13:16Z</time></trkpt><trkpt lat="43.38996021395883" lon="11.385684177152918"><ele>422.0</ele><time>2026-04-08T13:13:17Z</time></trkpt><trkpt lat="43.39004024396294" lon="11.38560918782751"><ele>422.0</ele><time>2026-04-08T13:13:18Z</time></trkpt><trkpt lat="43.3901528703499" lon="11.385547990191498"><ele>422.0</ele><time>2026-04-08T13:13:19Z</time></trkpt><trkpt lat="43.390271538021366" lon="11.385474251871312"><ele>422.0</ele><time>2026-04-08T13:13:20Z</time></trkpt><trkpt lat="43.390400172413585" lon="11.38539122010519"><ele>422.5</ele><time>2026-04-08T13:13:21Z</time></trkpt><trkpt lat="43.390513711334776" lon="11.38531161053026"><ele>423.0</ele><time>2026-04-08T13:13:22Z</time></trkpt><trkpt lat="43.390615735552764" lon="11.385237997173336"><ele>423.5</ele><time>2026-04-08T13:13:23Z</time></trkpt><trkpt lat="43.390714494966595" lon="11.385150926059625"><ele>424.0</ele><time>2026-04-08T13:13:24Z</time></trkpt><trkpt lat="43.390825699704756" lon="11.385056843513233"><ele>424.0</ele><time>2026-04-08T13:13:25Z</time></trkpt><trkpt lat="43.39092073141659" lon="11.38497798249066"><ele>424.0</ele><time>2026-04-08T13:13:26Z</time></trkpt><trkpt lat="43.3910266913275" lon="11.384888837096065"><ele>424.0</ele><time>2026-04-08T13:13:27Z</time></trkpt><trkpt lat="43.391136314696844" lon="11.384786692034323"><ele>424.0</ele><time>2026-04-08T13:13:28Z</time></trkpt><trkpt lat="43.391249041308065" lon="11.384684957681223"><ele>424.25</ele><time>2026-04-08T13:13:29Z</time></trkpt><trkpt lat="43.39137620867867" lon="11.384575795704931"><ele>424.5</ele><time>2026-04-08T13:13:30Z</time></trkpt><trkpt lat="43.391487535191686" lon="11.38448220229043"><ele>424.75</ele><time>2026-04-08T13:13:31Z</time></trkpt><trkpt lat="43.39158710697665" lon="11.384399528322843"><ele>425.0</ele><time>2026-04-08T13:13:32Z</time></trkpt><trkpt lat="43.39167538254569" lon="11.384313363542473"><ele>425.0</ele><time>2026-04-08T13:13:33Z</time></trkpt><trkpt lat="43.3917620476503" lon="11.3842130294888"><ele>425.0</ele><time>2026-04-08T13:13:34Z</time></trkpt><trkpt lat="43.39183316500989" lon="11.384093837943064"><ele>425.0</ele><time>2026-04-08T13:13:35Z</time></trkpt><trkpt lat="43.39189307658259" lon="11.383953357552278"><ele>425.0</ele><time>2026-04-08T13:13:36Z</time></trkpt><trkpt lat="43.39193557135021" lon="11.383794310908531"><ele>425.25</ele><time>2026-04-08T13:13:37Z</time></trkpt><trkpt lat="43.39196594200051" lon="11.383617706378965"><ele>425.5</ele><time>2026-04-08T13:13:38Z</time></trkpt><trkpt lat="43.39199235953314" lon="11.383427798466482"><ele>425.75</ele><time>2026-04-08T13:13:39Z</time></trkpt><trkpt lat="43.39201370616786" lon="11.383253015113658"><ele>426.0</ele><time>2026-04-08T13:13:40Z</time></trkpt><trkpt lat="43.392053309149674" lon="11.383074607447039"><ele>425.75</ele><time>2026-04-08T13:13:41Z</time></trkpt><trkpt lat="43.3921105683947" lon="11.382906734895315"><ele>425.5</ele><time>2026-04-08T13:13:42Z</time></trkpt><trkpt lat="43.39218145792911" lon="11.382769495200394"><ele>425.25</ele><time>2026-04-08T13:13:43Z</time></trkpt><trkpt lat="43.39226754216646" lon="11.382647400602064"><ele>425.0</ele><time>2026-04-08T13:13:44Z</time></trkpt><trkpt lat="43.39236659618617" lon="11.382537524768521"><ele>425.0</ele><time>2026-04-08T13:13:45Z</time></trkpt><trkpt lat="43.39246971103863" lon="11.38243147664224"><ele>425.0</ele><time>2026-04-08T13:13:46Z</time></trkpt><trkpt lat="43.392571505481484" lon="11.38234017223928"><ele>425.0</ele><time>2026-04-08T13:13:47Z</time></trkpt><trkpt lat="43.39269047914189" lon="11.382240555501937"><ele>425.0</ele><time>2026-04-08T13:13:48Z</time></trkpt><trkpt lat="43.39282301985236" lon="11.382134923886046"><ele>425.25</ele><time>2026-04-08T13:13:49Z</time></trkpt><trkpt lat="43.39293638801777" lon="11.382037937835271"><ele>425.5</ele><time>2026-04-08T13:13:50Z</time></trkpt><trkpt lat="43.39304615956123" lon="11.38194802776629"><ele>425.75</ele><time>2026-04-08T13:13:51Z</time></trkpt><trkpt lat="43.393160864141315" lon="11.3818589880006"><ele>426.0</ele><time>2026-04-08T13:13:52Z</time></trkpt><trkpt lat="43.393279595415926" lon="11.381763580710661"><ele>424.75</ele><time>2026-04-08T13:13:53Z</time></trkpt><trkpt lat="43.39338081130089" lon="11.38167497110178"><ele>423.5</ele><time>2026-04-08T13:13:54Z</time></trkpt><trkpt lat="43.39347747886072" lon="11.381595490313629"><ele>422.25</ele><time>2026-04-08T13:13:55Z</time></trkpt><trkpt lat="43.39359503463467" lon="11.381515174357922"><ele>421.0</ele><time>2026-04-08T13:13:56Z</time></trkpt><trkpt lat="43.393689236306614" lon="11.38144040743791"><ele>421.0</ele><time>2026-04-08T13:13:57Z</time></trkpt><trkpt lat="43.393773593231906" lon="11.381371462087436"><ele>421.0</ele><time>2026-04-08T13:13:58Z</time></trkpt><trkpt lat="43.39385099678276" lon="11.381317231256672"><ele>421.0</ele><time>2026-04-08T13:13:59Z</time></trkpt><trkpt lat="43.39400916850593" lon="11.381232524955937"><ele>421.0</ele><time>2026-04-08T13:14:00Z</time></trkpt><trkpt lat="43.39412280205371" lon="11.381180941107404"><ele>419.75</ele><time>2026-04-08T13:14:01Z</time></trkpt><trkpt lat="43.394256907548936" lon="11.381129998995144"><ele>418.5</ele><time>2026-04-08T13:14:02Z</time></trkpt><trkpt lat="43.394398736849375" lon="11.381089535612173"><ele>417.25</ele><time>2026-04-08T13:14:03Z</time></trkpt><trkpt lat="43.39455799293805" lon="11.381049709576178"><ele>416.0</ele><time>2026-04-08T13:14:04Z</time></trkpt><trkpt lat="43.394726344153064" lon="11.381012442730485"><ele>416.0</ele><time>2026-04-08T13:14:05Z</time></trkpt><trkpt lat="43.39489122689461" lon="11.380979567966765"><ele>416.0</ele><time>2026-04-08T13:14:06Z</time></trkpt><trkpt lat="43.39503757920504" lon="11.380966292097888"><ele>416.0</ele><time>2026-04-08T13:14:07Z</time></trkpt><trkpt lat="43.39517536427182" lon="11.380967071757881"><ele>416.0</ele><time>2026-04-08T13:14:08Z</time></trkpt><trkpt lat="43.395307853570614" lon="11.380993015548759"><ele>416.0</ele><time>2026-04-08T13:14:09Z</time></trkpt><trkpt lat="43.39543581033554" lon="11.381015711686707"><ele>416.0</ele><time>2026-04-08T13:14:10Z</time></trkpt><trkpt lat="43.39556768969139" lon="11.381033141032775"><ele>416.0</ele><time>2026-04-08T13:14:11Z</time></trkpt><trkpt lat="43.39571016897814" lon="11.38105224620686"><ele>415.0</ele><time>2026-04-08T13:14:12Z</time></trkpt><trkpt lat="43.39584950084622" lon="11.38106796786031"><ele>414.0</ele><time>2026-04-08T13:14:13Z</time></trkpt><trkpt lat="43.39597302571457" lon="11.381072455281386"><ele>413.0</ele><time>2026-04-08T13:14:14Z</time></trkpt><trkpt lat="43.39609773043181" lon="11.38104896368816"><ele>412.0</ele><time>2026-04-08T13:14:15Z</time></trkpt><trkpt lat="43.39621278237823" lon="11.380993294882094"><ele>412.0</ele><time>2026-04-08T13:14:16Z</time></trkpt><trkpt lat="43.3963188245975" lon="11.38089049383025"><ele>412.0</ele><time>2026-04-08T13:14:17Z</time></trkpt><trkpt lat="43.39641807705943" lon="11.380772385495215"><ele>412.0</ele><time>2026-04-08T13:14:18Z</time></trkpt><trkpt lat="43.396506337787024" lon="11.38062649163241"><ele>412.0</ele><time>2026-04-08T13:14:19Z</time></trkpt><trkpt lat="43.39657940252088" lon="11.38045107392203"><ele>411.0</ele><time>2026-04-08T13:14:20Z</time></trkpt><trkpt lat="43.39662970018975" lon="11.380240204157303"><ele>410.0</ele><time>2026-04-08T13:14:21Z</time></trkpt><trkpt lat="43.39667645025971" lon="11.380013645032555"><ele>409.0</ele><time>2026-04-08T13:14:22Z</time></trkpt><trkpt lat="43.39670809340131" lon="11.37979925196055"><ele>410.25</ele><time>2026-04-08T13:14:23Z</time></trkpt><trkpt lat="43.3967439506013" lon="11.379633398314933"><ele>411.5</ele><time>2026-04-08T13:14:24Z</time></trkpt><trkpt lat="43.39677029356838" lon="11.379486096058741"><ele>412.75</ele><time>2026-04-08T13:14:25Z</time></trkpt><trkpt lat="43.39679598166247" lon="11.379337773097307"><ele>414.0</ele><time>2026-04-08T13:14:26Z</time></trkpt><trkpt lat="43.39682831354794" lon="11.37919466664818"><ele>414.0</ele><time>2026-04-08T13:14:27Z</time></trkpt><trkpt lat="43.39685583895918" lon="11.379052922994306"><ele>414.0</ele><time>2026-04-08T13:14:28Z</time></trkpt><trkpt lat="43.39688483371631" lon="11.378908754719765"><ele>414.0</ele><time>2026-04-08T13:14:29Z</time></trkpt><trkpt lat="43.396924311234464" lon="11.378756562340328"><ele>414.0</ele><time>2026-04-08T13:14:30Z</time></trkpt><trkpt lat="43.39698019074819" lon="11.3786164849052"><ele>414.0</ele><time>2026-04-08T13:14:31Z</time></trkpt><trkpt lat="43.397052448571166" lon="11.378486052090622"><ele>414.0</ele><time>2026-04-08T13:14:32Z</time></trkpt><trkpt lat="43.39713646009673" lon="11.378351950197963"><ele>414.0</ele><time>2026-04-08T13:14:33Z</time></trkpt><trkpt lat="43.39721771330272" lon="11.378206255748381"><ele>414.0</ele><time>2026-04-08T13:14:34Z</time></trkpt><trkpt lat="43.39730000543417" lon="11.378055973127285"><ele>414.0</ele><time>2026-04-08T13:14:35Z</time></trkpt><trkpt lat="43.39738100666479" lon="11.377896713968624"><ele>415.25</ele><time>2026-04-08T13:14:36Z</time></trkpt><trkpt lat="43.39746901097975" lon="11.377747019270783"><ele>416.5</ele><time>2026-04-08T13:14:37Z</time></trkpt><trkpt lat="43.39755167993829" lon="11.377611487748965"><ele>417.75</ele><time>2026-04-08T13:14:38Z</time></trkpt><trkpt lat="43.39763763644301" lon="11.377479465972826"><ele>419.0</ele><time>2026-04-08T13:14:39Z</time></trkpt><trkpt lat="43.39772099502128" lon="11.377355193900474"><ele>419.0</ele><time>2026-04-08T13:14:40Z</time></trkpt><trkpt lat="43.3978071358232" lon="11.37723423008305"><ele>419.0</ele><time>2026-04-08T13:14:41Z</time></trkpt><trkpt lat="43.39789276532223" lon="11.377110497884793"><ele>419.0</ele><time>2026-04-08T13:14:42Z</time></trkpt><trkpt lat="43.39798325470325" lon="11.376983605892084"><ele>419.0</ele><time>2026-04-08T13:14:43Z</time></trkpt><trkpt lat="43.39808193990419" lon="11.37685469937941"><ele>419.5</ele><time>2026-04-08T13:14:44Z</time></trkpt><trkpt lat="43.39817870001736" lon="11.376731533445977"><ele>420.0</ele><time>2026-04-08T13:14:45Z</time></trkpt><trkpt lat="43.39827811180115" lon="11.376624043276518"><ele>420.5</ele><time>2026-04-08T13:14:46Z</time></trkpt><trkpt lat="43.398359738589086" lon="11.376526231480936"><ele>421.0</ele><time>2026-04-08T13:14:47Z</time></trkpt><trkpt lat="43.39844885851346" lon="11.376435669211292"><ele>421.5</ele><time>2026-04-08T13:14:48Z</time></trkpt><trkpt lat="43.398546787889195" lon="11.37634747047067"><ele>422.0</ele><time>2026-04-08T13:14:49Z</time></trkpt><trkpt lat="43.39866006585657" lon="11.376257405654739"><ele>422.5</ele><time>2026-04-08T13:14:50Z</time></trkpt><trkpt lat="43.39877788164557" lon="11.376177906705463"><ele>423.0</ele><time>2026-04-08T13:14:51Z</time></trkpt><trkpt lat="43.3989009874735" lon="11.376118247284918"><ele>424.25</ele><time>2026-04-08T13:14:52Z</time></trkpt><trkpt lat="43.39903057771048" lon="11.376063242728055"><ele>425.5</ele><time>2026-04-08T13:14:53Z</time></trkpt><trkpt lat="43.39916165139576" lon="11.376034704973764"><ele>426.75</ele><time>2026-04-08T13:14:54Z</time></trkpt><trkpt lat="43.39929216214572" lon="11.376009409548072"><ele>428.0</ele><time>2026-04-08T13:14:55Z</time></trkpt><trkpt lat="43.39940555918723" lon="11.375960438659455"><ele>428.0</ele><time>2026-04-08T13:14:56Z</time></trkpt><trkpt lat="43.39949742360518" lon="11.375905637509813"><ele>427.99999999999994</ele><time>2026-04-08T13:14:57Z</time></trkpt><trkpt lat="43.39956547012092" lon="11.375840839516568"><ele>427.99999999999994</ele><time>2026-04-08T13:14:58Z</time></trkpt><trkpt lat="43.39962418779089" lon="11.375768304741756"><ele>428.0</ele><time>2026-04-08T13:14:59Z</time></trkpt><trkpt lat="43.39968735414946" lon="11.375679757402926"><ele>428.0</ele><time>2026-04-08T13:15:00Z</time></trkpt><trkpt lat="43.39975119058712" lon="11.375573022723103"><ele>430.0</ele><time>2026-04-08T13:15:01Z</time></trkpt><trkpt lat="43.39981990322567" lon="11.375446378703836"><ele>432.0</ele><time>2026-04-08T13:15:02Z</time></trkpt><trkpt lat="43.399896355523545" lon="11.375301013063691"><ele>434.0</ele><time>2026-04-08T13:15:03Z</time></trkpt><trkpt lat="43.39998180744176" lon="11.375143092292387"><ele>436.0</ele><time>2026-04-08T13:15:04Z</time></trkpt><trkpt lat="43.40006865129275" lon="11.374986771579039"><ele>436.0</ele><time>2026-04-08T13:15:05Z</time></trkpt><trkpt lat="43.40017028096194" lon="11.374824012410192"><ele>436.0</ele><time>2026-04-08T13:15:06Z</time></trkpt><trkpt lat="43.40025958184413" lon="11.3746776130516"><ele>436.0</ele><time>2026-04-08T13:15:07Z</time></trkpt><trkpt lat="43.40033424785002" lon="11.374551426818803"><ele>436.0</ele><time>2026-04-08T13:15:08Z</time></trkpt><trkpt lat="43.400413723120685" lon="11.37442230033949"><ele>436.0</ele><time>2026-04-08T13:15:09Z</time></trkpt><trkpt lat="43.40048779721213" lon="11.374283618406619"><ele>436.0</ele><time>2026-04-08T13:15:10Z</time></trkpt><trkpt lat="43.400551182097146" lon="11.374151294249174"><ele>436.0</ele><time>2026-04-08T13:15:11Z</time></trkpt><trkpt lat="43.40059090715529" lon="11.3740255957692"><ele>436.0</ele><time>2026-04-08T13:15:12Z</time></trkpt><trkpt lat="43.40061913592834" lon="11.373883533742672"><ele>436.0</ele><time>2026-04-08T13:15:13Z</time></trkpt><trkpt lat="43.400645508894776" lon="11.373739590320396"><ele>436.4</ele><time>2026-04-08T13:15:14Z</time></trkpt><trkpt lat="43.400669416152795" lon="11.373610996323858"><ele>436.8</ele><time>2026-04-08T13:15:15Z</time></trkpt><trkpt lat="43.40069031275651" lon="11.373487045948506"><ele>437.19999999999993</ele><time>2026-04-08T13:15:16Z</time></trkpt><trkpt lat="43.40073336162086" lon="11.373371610297145"><ele>437.59999999999997</ele><time>2026-04-08T13:15:17Z</time></trkpt><trkpt lat="43.400791765309144" lon="11.373240813494434"><ele>438.0</ele><time>2026-04-08T13:15:18Z</time></trkpt><trkpt lat="43.40087290312768" lon="11.373122698928423"><ele>438.0</ele><time>2026-04-08T13:15:19Z</time></trkpt><trkpt lat="43.40095414448364" lon="11.373024777475784"><ele>437.99999999999994</ele><time>2026-04-08T13:15:20Z</time></trkpt><trkpt lat="43.401033072781246" lon="11.372945968437476"><ele>437.99999999999994</ele><time>2026-04-08T13:15:21Z</time></trkpt><trkpt lat="43.401103516548524" lon="11.372870100882803"><ele>438.0</ele><time>2026-04-08T13:15:22Z</time></trkpt><trkpt lat="43.40116318823406" lon="11.372793337834525"><ele>438.0</ele><time>2026-04-08T13:15:23Z</time></trkpt><trkpt lat="43.40121320319084" lon="11.372712545007408"><ele>437.6666666666667</ele><time>2026-04-08T13:15:24Z</time></trkpt><trkpt lat="43.40125045011513" lon="11.372628845772669"><ele>437.33333333333337</ele><time>2026-04-08T13:15:25Z</time></trkpt><trkpt lat="43.40127783965453" lon="11.372540750012437"><ele>437.0</ele><time>2026-04-08T13:15:26Z</time></trkpt><trkpt lat="43.40130457507336" lon="11.372435461220578"><ele>436.6666666666667</ele><time>2026-04-08T13:15:27Z</time></trkpt><trkpt lat="43.40131648425088" lon="11.372315739511793"><ele>436.33333333333337</ele><time>2026-04-08T13:15:28Z</time></trkpt><trkpt lat="43.40131488599496" lon="11.372178718217917"><ele>436.0</ele><time>2026-04-08T13:15:29Z</time></trkpt><trkpt lat="43.40131279719164" lon="11.372041276260989"><ele>435.6</ele><time>2026-04-08T13:15:30Z</time></trkpt><trkpt lat="43.40130556183397" lon="11.371912412608133"><ele>435.20000000000005</ele><time>2026-04-08T13:15:31Z</time></trkpt><trkpt lat="43.40130267253061" lon="11.371783481954484"><ele>434.79999999999995</ele><time>2026-04-08T13:15:32Z</time></trkpt><trkpt lat="43.40130198363608" lon="11.37164064443624"><ele>434.4</ele><time>2026-04-08T13:15:33Z</time></trkpt><trkpt lat="43.40129769075175" lon="11.371492904641139"><ele>434.0</ele><time>2026-04-08T13:15:34Z</time></trkpt><trkpt lat="43.4012951215653" lon="11.371340363168358"><ele>433.2</ele><time>2026-04-08T13:15:35Z</time></trkpt><trkpt lat="43.401297580116974" lon="11.37118894480002"><ele>432.4</ele><time>2026-04-08T13:15:36Z</time></trkpt><trkpt lat="43.40130499395856" lon="11.371052510312628"><ele>431.6</ele><time>2026-04-08T13:15:37Z</time></trkpt><trkpt lat="43.40132161714171" lon="11.370914326204236"><ele>430.8</ele><time>2026-04-08T13:15:38Z</time></trkpt><trkpt lat="43.401340421214016" lon="11.370777010121262"><ele>430.0</ele><time>2026-04-08T13:15:39Z</time></trkpt><trkpt lat="43.401369479304044" lon="11.370621020991168"><ele>429.8</ele><time>2026-04-08T13:15:40Z</time></trkpt><trkpt lat="43.401414566682405" lon="11.37047989369349"><ele>429.6</ele><time>2026-04-08T13:15:41Z</time></trkpt><trkpt lat="43.401464153150144" lon="11.370355722433652"><ele>429.4</ele><time>2026-04-08T13:15:42Z</time></trkpt><trkpt lat="43.40150668621696" lon="11.370238788932138"><ele>429.2</ele><time>2026-04-08T13:15:43Z</time></trkpt><trkpt lat="43.40154265907112" lon="11.370118102357932"><ele>429.0</ele><time>2026-04-08T13:15:44Z</time></trkpt><trkpt lat="43.40158038019337" lon="11.369992451162503"><ele>429.0</ele><time>2026-04-08T13:15:45Z</time></trkpt><trkpt lat="43.40161347532807" lon="11.36986188701979"><ele>429.0</ele><time>2026-04-08T13:15:46Z</time></trkpt><trkpt lat="43.40163971264624" lon="11.369736106770329"><ele>429.0</ele><time>2026-04-08T13:15:47Z</time></trkpt><trkpt lat="43.4016638527144" lon="11.369620223003297"><ele>429.0</ele><time>2026-04-08T13:15:48Z</time></trkpt><trkpt lat="43.401682714436895" lon="11.369510736680153"><ele>429.0</ele><time>2026-04-08T13:15:49Z</time></trkpt><trkpt lat="43.40170165937604" lon="11.369400361595948"><ele>429.0</ele><time>2026-04-08T13:15:50Z</time></trkpt><trkpt lat="43.40171494814647" lon="11.369288286715637"><ele>429.2</ele><time>2026-04-08T13:15:51Z</time></trkpt><trkpt lat="43.40172621648596" lon="11.369166198149772"><ele>429.4</ele><time>2026-04-08T13:15:52Z</time></trkpt><trkpt lat="43.401736807119875" lon="11.369034706658653"><ele>429.6</ele><time>2026-04-08T13:15:53Z</time></trkpt><trkpt lat="43.40174896425086" lon="11.368899836303902"><ele>429.8</ele><time>2026-04-08T13:15:54Z</time></trkpt><trkpt lat="43.401748253920516" lon="11.368760225314139"><ele>430.0</ele><time>2026-04-08T13:15:55Z</time></trkpt><trkpt lat="43.40173761824799" lon="11.368610976702657"><ele>430.4</ele><time>2026-04-08T13:15:56Z</time></trkpt><trkpt lat="43.4017195333703" lon="11.36846970064744"><ele>430.8</ele><time>2026-04-08T13:15:57Z</time></trkpt><trkpt lat="43.40170417733491" lon="11.368322535836656"><ele>431.20000000000005</ele><time>2026-04-08T13:15:58Z</time></trkpt><trkpt lat="43.4016952479001" lon="11.368177807234106"><ele>431.6</ele><time>2026-04-08T13:15:59Z</time></trkpt><trkpt lat="43.401683664937195" lon="11.368033268370013"><ele>432.0</ele><time>2026-04-08T13:16:00Z</time></trkpt><trkpt lat="43.40167375888735" lon="11.367880324852056"><ele>432.40000000000003</ele><time>2026-04-08T13:16:01Z</time></trkpt><trkpt lat="43.40166278047954" lon="11.367727838622976"><ele>432.80000000000007</ele><time>2026-04-08T13:16:02Z</time></trkpt><trkpt lat="43.401650469482874" lon="11.367579076570019"><ele>433.2</ele><time>2026-04-08T13:16:03Z</time></trkpt><trkpt lat="43.40164336232479" lon="11.367429316728074"><ele>433.6</ele><time>2026-04-08T13:16:04Z</time></trkpt><trkpt lat="43.40162481832183" lon="11.367274575425917"><ele>434.0</ele><time>2026-04-08T13:16:05Z</time></trkpt><trkpt lat="43.40160243866555" lon="11.367134005208227"><ele>434.2</ele><time>2026-04-08T13:16:06Z</time></trkpt><trkpt lat="43.40156897576378" lon="11.367014915639462"><ele>434.4</ele><time>2026-04-08T13:16:07Z</time></trkpt><trkpt lat="43.4015195321643" lon="11.366884799441753"><ele>434.6</ele><time>2026-04-08T13:16:08Z</time></trkpt><trkpt lat="43.401460144898316" lon="11.366754241274474"><ele>434.8</ele><time>2026-04-08T13:16:09Z</time></trkpt><trkpt lat="43.40139904108073" lon="11.366622134424162"><ele>435.0</ele><time>2026-04-08T13:16:10Z</time></trkpt><trkpt lat="43.40135098413699" lon="11.36647845284752"><ele>436.5</ele><time>2026-04-08T13:16:11Z</time></trkpt><trkpt lat="43.40130572229715" lon="11.366326030101902"><ele>438.0</ele><time>2026-04-08T13:16:12Z</time></trkpt><trkpt lat="43.401274601175004" lon="11.36614530089034"><ele>439.5</ele><time>2026-04-08T13:16:13Z</time></trkpt><trkpt lat="43.40125264879073" lon="11.36596145820849"><ele>441.0</ele><time>2026-04-08T13:16:14Z</time></trkpt><trkpt lat="43.40122453784613" lon="11.365771848331063"><ele>441.0</ele><time>2026-04-08T13:16:15Z</time></trkpt><trkpt lat="43.40119095375875" lon="11.365601829837392"><ele>441.0</ele><time>2026-04-08T13:16:16Z</time></trkpt><trkpt lat="43.401168475558734" lon="11.365471788295652"><ele>441.0</ele><time>2026-04-08T13:16:17Z</time></trkpt><trkpt lat="43.40115115771101" lon="11.365359777615197"><ele>441.0</ele><time>2026-04-08T13:16:18Z</time></trkpt><trkpt lat="43.40111287084073" lon="11.365257154646498"><ele>441.0</ele><time>2026-04-08T13:16:19Z</time></trkpt><trkpt lat="43.40111383113517" lon="11.365116757590258"><ele>440.8</ele><time>2026-04-08T13:16:20Z</time></trkpt><trkpt lat="43.4011016427888" lon="11.364975228175696"><ele>440.6</ele><time>2026-04-08T13:16:21Z</time></trkpt><trkpt lat="43.40107999369865" lon="11.364826588758875"><ele>440.4</ele><time>2026-04-08T13:16:22Z</time></trkpt><trkpt lat="43.401055523032234" lon="11.364688994401469"><ele>440.2</ele><time>2026-04-08T13:16:23Z</time></trkpt><trkpt lat="43.40101387911494" lon="11.364549929780615"><ele>440.0</ele><time>2026-04-08T13:16:24Z</time></trkpt><trkpt lat="43.40095853329374" lon="11.364417197690644"><ele>440.0</ele><time>2026-04-08T13:16:25Z</time></trkpt><trkpt lat="43.400904795905326" lon="11.364286970531188"><ele>440.0</ele><time>2026-04-08T13:16:26Z</time></trkpt><trkpt lat="43.40086093873483" lon="11.364167378209116"><ele>440.0</ele><time>2026-04-08T13:16:27Z</time></trkpt><trkpt lat="43.40081069144008" lon="11.364035338930433"><ele>440.0</ele><time>2026-04-08T13:16:28Z</time></trkpt><trkpt lat="43.40079632660524" lon="11.363887697574453"><ele>440.0</ele><time>2026-04-08T13:16:29Z</time></trkpt><trkpt lat="43.400810921925014" lon="11.363751596027187"><ele>440.0</ele><time>2026-04-08T13:16:30Z</time></trkpt><trkpt lat="43.40083163416356" lon="11.363611389609042"><ele>440.0</ele><time>2026-04-08T13:16:31Z</time></trkpt><trkpt lat="43.400870912871824" lon="11.363497299527408"><ele>440.0</ele><time>2026-04-08T13:16:32Z</time></trkpt><trkpt lat="43.40092495345115" lon="11.363391090556174"><ele>440.0</ele><time>2026-04-08T13:16:33Z</time></trkpt><trkpt lat="43.400988583626656" lon="11.363305389304234"><ele>440.0</ele><time>2026-04-08T13:16:34Z</time></trkpt><trkpt lat="43.40105996411073" lon="11.36324922208915"><ele>439.99999999999994</ele><time>2026-04-08T13:16:35Z</time></trkpt><trkpt lat="43.40114360980339" lon="11.36320638558181"><ele>440.0</ele><time>2026-04-08T13:16:36Z</time></trkpt><trkpt lat="43.40123367658517" lon="11.363174811018396"><ele>440.0</ele><time>2026-04-08T13:16:37Z</time></trkpt><trkpt lat="43.40131217119335" lon="11.363123529939216"><ele>440.0</ele><time>2026-04-08T13:16:38Z</time></trkpt><trkpt lat="43.4013698316401" lon="11.363054808531759"><ele>439.99999999999994</ele><time>2026-04-08T13:16:39Z</time></trkpt><trkpt lat="43.4014133284872" lon="11.362970983970381"><ele>440.0</ele><time>2026-04-08T13:16:40Z</time></trkpt><trkpt lat="43.401444175098156" lon="11.362871098448347"><ele>440.66666666666663</ele><time>2026-04-08T13:16:41Z</time></trkpt><trkpt lat="43.40144058434979" lon="11.362753927093241"><ele>441.3333333333333</ele><time>2026-04-08T13:16:42Z</time></trkpt><trkpt lat="43.40144947549374" lon="11.362648406695813"><ele>442.0</ele><time>2026-04-08T13:16:43Z</time></trkpt><trkpt lat="43.4014407736716" lon="11.362540596482095"><ele>442.66666666666663</ele><time>2026-04-08T13:16:44Z</time></trkpt><trkpt lat="43.40141956565168" lon="11.362429387111169"><ele>443.3333333333333</ele><time>2026-04-08T13:16:45Z</time></trkpt><trkpt lat="43.40140528763546" lon="11.362310136953036"><ele>444.0</ele><time>2026-04-08T13:16:46Z</time></trkpt><trkpt lat="43.401373458774586" lon="11.362196889935852"><ele>444.0</ele><time>2026-04-08T13:16:47Z</time></trkpt><trkpt lat="43.40135299761395" lon="11.36210647203109"><ele>444.0</ele><time>2026-04-08T13:16:48Z</time></trkpt><trkpt lat="43.40135925242673" lon="11.362016409904381"><ele>444.0</ele><time>2026-04-08T13:16:49Z</time></trkpt><trkpt lat="43.401381767691106" lon="11.361927286236359"><ele>444.0</ele><time>2026-04-08T13:16:50Z</time></trkpt><trkpt lat="43.4014596886432" lon="11.361868998478721"><ele>444.0</ele><time>2026-04-08T13:16:51Z</time></trkpt><trkpt lat="43.40153306959394" lon="11.361787288301242"><ele>444.0</ele><time>2026-04-08T13:16:52Z</time></trkpt><trkpt lat="43.40160818991488" lon="11.36169226830857"><ele>444.0</ele><time>2026-04-08T13:16:53Z</time></trkpt><trkpt lat="43.40168845041743" lon="11.36160668305877"><ele>444.0</ele><time>2026-04-08T13:16:54Z</time></trkpt><trkpt lat="43.40178119764271" lon="11.36150778244665"><ele>444.0</ele><time>2026-04-08T13:16:55Z</time></trkpt><trkpt lat="43.40188772098145" lon="11.361405979506985"><ele>444.0</ele><time>2026-04-08T13:16:56Z</time></trkpt><trkpt lat="43.40197867391019" lon="11.361282316991545"><ele>443.4</ele><time>2026-04-08T13:16:57Z</time></trkpt><trkpt lat="43.40205831384838" lon="11.36117593284395"><ele>442.79999999999995</ele><time>2026-04-08T13:16:58Z</time></trkpt><trkpt lat="43.40212454266808" lon="11.36109337429797"><ele>442.20000000000005</ele><time>2026-04-08T13:16:59Z</time></trkpt><trkpt lat="43.402198492389175" lon="11.361006223498737"><ele>441.6</ele><time>2026-04-08T13:17:00Z</time></trkpt><trkpt lat="43.40228944964425" lon="11.360940790559841"><ele>441.0</ele><time>2026-04-08T13:17:01Z</time></trkpt><trkpt lat="43.402375703099715" lon="11.360902136971516"><ele>441.0</ele><time>2026-04-08T13:17:02Z</time></trkpt><trkpt lat="43.402471768348" lon="11.360886589828263"><ele>441.0</ele><time>2026-04-08T13:17:03Z</time></trkpt><trkpt lat="43.40257439761829" lon="11.3608860893332"><ele>441.0</ele><time>2026-04-08T13:17:04Z</time></trkpt><trkpt lat="43.40267896088775" lon="11.360912190302363"><ele>441.0</ele><time>2026-04-08T13:17:05Z</time></trkpt><trkpt lat="43.40277453058081" lon="11.360939891655562"><ele>441.0</ele><time>2026-04-08T13:17:06Z</time></trkpt><trkpt lat="43.40288054894889" lon="11.360972469538057"><ele>441.0</ele><time>2026-04-08T13:17:07Z</time></trkpt><trkpt lat="43.40297640039681" lon="11.360971128919784"><ele>441.0</ele><time>2026-04-08T13:17:08Z</time></trkpt><trkpt lat="43.40307325072406" lon="11.360941501804474"><ele>441.0</ele><time>2026-04-08T13:17:09Z</time></trkpt><trkpt lat="43.403172550153926" lon="11.36090082650036"><ele>441.0</ele><time>2026-04-08T13:17:10Z</time></trkpt><trkpt lat="43.40326375308286" lon="11.360866932217146"><ele>441.0</ele><time>2026-04-08T13:17:11Z</time></trkpt><trkpt lat="43.403348812481184" lon="11.360833212866758"><ele>440.6</ele><time>2026-04-08T13:17:12Z</time></trkpt><trkpt lat="43.40342628597977" lon="11.360797957070755"><ele>440.20000000000005</ele><time>2026-04-08T13:17:13Z</time></trkpt><trkpt lat="43.40353151424061" lon="11.36067119312378"><ele>439.79999999999995</ele><time>2026-04-08T13:17:15Z</time></trkpt><trkpt lat="43.403557103536876" lon="11.360568223355688"><ele>439.4</ele><time>2026-04-08T13:17:16Z</time></trkpt><trkpt lat="43.4035607267465" lon="11.360450923354044"><ele>439.0</ele><time>2026-04-08T13:17:17Z</time></trkpt><trkpt lat="43.40355091093431" lon="11.360329583225512"><ele>439.0</ele><time>2026-04-08T13:17:18Z</time></trkpt><trkpt lat="43.403534987712966" lon="11.36019532688025"><ele>439.0</ele><time>2026-04-08T13:17:19Z</time></trkpt><trkpt lat="43.403530574413075" lon="11.360043759857833"><ele>439.0</ele><time>2026-04-08T13:17:20Z</time></trkpt><trkpt lat="43.40354872440869" lon="11.359884049845643"><ele>439.0</ele><time>2026-04-08T13:17:21Z</time></trkpt><trkpt lat="43.403584453106944" lon="11.359745758703866"><ele>439.0</ele><time>2026-04-08T13:17:22Z</time></trkpt><trkpt lat="43.403611502829854" lon="11.35963077231965"><ele>440.00000000000006</ele><time>2026-04-08T13:17:23Z</time></trkpt><trkpt lat="43.403628135062746" lon="11.35952120035478"><ele>441.0</ele><time>2026-04-08T13:17:24Z</time></trkpt><trkpt lat="43.40363351810078" lon="11.359416160479233"><ele>442.0</ele><time>2026-04-08T13:17:25Z</time></trkpt><trkpt lat="43.40361985415338" lon="11.359319217610615"><ele>443.0</ele><time>2026-04-08T13:17:26Z</time></trkpt><trkpt lat="43.40358759047078" lon="11.35921700961554"><ele>444.00000000000006</ele><time>2026-04-08T13:17:27Z</time></trkpt><trkpt lat="43.40353495979764" lon="11.359127233175407"><ele>445.0</ele><time>2026-04-08T13:17:28Z</time></trkpt><trkpt lat="43.40346645587401" lon="11.359062837684395"><ele>445.0</ele><time>2026-04-08T13:17:29Z</time></trkpt><trkpt lat="43.403389506520874" lon="11.358988703804828"><ele>445.0</ele><time>2026-04-08T13:17:30Z</time></trkpt><trkpt lat="43.40328447315498" lon="11.358936004658084"><ele>445.0</ele><time>2026-04-08T13:17:31Z</time></trkpt><trkpt lat="43.40317600995371" lon="11.358933615864151"><ele>445.0</ele><time>2026-04-08T13:17:32Z</time></trkpt><trkpt lat="43.403089258281135" lon="11.358885937036273"><ele>445.0</ele><time>2026-04-08T13:17:33Z</time></trkpt><trkpt lat="43.403022785422095" lon="11.358828203743482"><ele>444.4</ele><time>2026-04-08T13:17:34Z</time></trkpt><trkpt lat="43.402976624209835" lon="11.358742927045952"><ele>443.8</ele><time>2026-04-08T13:17:35Z</time></trkpt><trkpt lat="43.402940950539886" lon="11.358622913443416"><ele>443.20000000000005</ele><time>2026-04-08T13:17:36Z</time></trkpt><trkpt lat="43.40291612237179" lon="11.358487179367383"><ele>442.6</ele><time>2026-04-08T13:17:37Z</time></trkpt><trkpt lat="43.4028931515386" lon="11.358361449109351"><ele>442.0</ele><time>2026-04-08T13:17:38Z</time></trkpt><trkpt lat="43.40286495217767" lon="11.358185952005746"><ele>442.20000000000005</ele><time>2026-04-08T13:17:39Z</time></trkpt><trkpt lat="43.40284341096727" lon="11.35802360416689"><ele>442.40000000000003</ele><time>2026-04-08T13:17:40Z</time></trkpt><trkpt lat="43.40281128992895" lon="11.357894124865707"><ele>442.59999999999997</ele><time>2026-04-08T13:17:41Z</time></trkpt><trkpt lat="43.40279158814342" lon="11.357770736776597"><ele>442.79999999999995</ele><time>2026-04-08T13:17:42Z</time></trkpt><trkpt lat="43.402779819228535" lon="11.357655650123142"><ele>443.0</ele><time>2026-04-08T13:17:43Z</time></trkpt><trkpt lat="43.402791232889854" lon="11.357543569703465"><ele>443.0</ele><time>2026-04-08T13:17:44Z</time></trkpt><trkpt lat="43.402819920118304" lon="11.357441145684561"><ele>442.99999999999994</ele><time>2026-04-08T13:17:45Z</time></trkpt><trkpt lat="43.40287109439185" lon="11.357333661991847"><ele>442.99999999999994</ele><time>2026-04-08T13:17:46Z</time></trkpt><trkpt lat="43.40294165773426" lon="11.35723223757401"><ele>443.0</ele><time>2026-04-08T13:17:47Z</time></trkpt><trkpt lat="43.40302606304975" lon="11.357178794661005"><ele>443.0</ele><time>2026-04-08T13:17:48Z</time></trkpt><trkpt lat="43.40311259765771" lon="11.35714017696413"><ele>443.79999999999995</ele><time>2026-04-08T13:17:49Z</time></trkpt><trkpt lat="43.40320818080714" lon="11.357124679493275"><ele>444.59999999999997</ele><time>2026-04-08T13:17:50Z</time></trkpt><trkpt lat="43.40331745990048" lon="11.357124917893174"><ele>445.40000000000003</ele><time>2026-04-08T13:17:51Z</time></trkpt><trkpt lat="43.403419317325046" lon="11.357145888199247"><ele>446.20000000000005</ele><time>2026-04-08T13:17:52Z</time></trkpt><trkpt lat="43.403505991270535" lon="11.35714241072286"><ele>447.0</ele><time>2026-04-08T13:17:53Z</time></trkpt><trkpt lat="43.40359461626131" lon="11.357128008526956"><ele>447.0</ele><time>2026-04-08T13:17:54Z</time></trkpt><trkpt lat="43.40367956639731" lon="11.357091051346709"><ele>447.0</ele><time>2026-04-08T13:17:55Z</time></trkpt><trkpt lat="43.40374830471965" lon="11.357053657471269"><ele>447.0</ele><time>2026-04-08T13:17:56Z</time></trkpt><trkpt lat="43.40381969882288" lon="11.357004991482544"><ele>447.0</ele><time>2026-04-08T13:17:57Z</time></trkpt><trkpt lat="43.403863436662476" lon="11.356933232022602"><ele>447.0</ele><time>2026-04-08T13:17:58Z</time></trkpt><trkpt lat="43.40387941477941" lon="11.356762439392687"><ele>447.0</ele><time>2026-04-08T13:18:00Z</time></trkpt><trkpt lat="43.40386691927968" lon="11.356666877631996"><ele>446.99999999999994</ele><time>2026-04-08T13:18:01Z</time></trkpt><trkpt lat="43.403830290358734" lon="11.356582861385109"><ele>447.0</ele><time>2026-04-08T13:18:02Z</time></trkpt><trkpt lat="43.40379443544074" lon="11.356507573475259"><ele>447.0</ele><time>2026-04-08T13:18:03Z</time></trkpt><trkpt lat="43.403748446402425" lon="11.356434822562061"><ele>447.0</ele><time>2026-04-08T13:18:04Z</time></trkpt><trkpt lat="43.403686944188316" lon="11.356352394561764"><ele>447.0</ele><time>2026-04-08T13:18:05Z</time></trkpt><trkpt lat="43.40363705904185" lon="11.356262948168546"><ele>446.99999999999994</ele><time>2026-04-08T13:18:06Z</time></trkpt><trkpt lat="43.403614490011925" lon="11.356174221716984"><ele>447.0</ele><time>2026-04-08T13:18:07Z</time></trkpt><trkpt lat="43.40363922564385" lon="11.356011530438826"><ele>446.8</ele><time>2026-04-08T13:18:09Z</time></trkpt><trkpt lat="43.40369836600382" lon="11.35593666501476"><ele>446.6</ele><time>2026-04-08T13:18:10Z</time></trkpt><trkpt lat="43.403769752339294" lon="11.355863052691154"><ele>446.40000000000003</ele><time>2026-04-08T13:18:11Z</time></trkpt><trkpt lat="43.403854427293794" lon="11.355795271214491"><ele>446.20000000000005</ele><time>2026-04-08T13:18:12Z</time></trkpt><trkpt lat="43.403955821350515" lon="11.355719546911088"><ele>446.0</ele><time>2026-04-08T13:18:13Z</time></trkpt><trkpt lat="43.40404810951664" lon="11.355655693470577"><ele>446.99999999999994</ele><time>2026-04-08T13:18:14Z</time></trkpt><trkpt lat="43.40412582413759" lon="11.355620922440286"><ele>448.0</ele><time>2026-04-08T13:18:15Z</time></trkpt><trkpt lat="43.40420079626271" lon="11.355599803349856"><ele>449.0</ele><time>2026-04-08T13:18:16Z</time></trkpt><trkpt lat="43.40428529267251" lon="11.35560866492551"><ele>450.0</ele><time>2026-04-08T13:18:17Z</time></trkpt><trkpt lat="43.40437266088781" lon="11.355636056435959"><ele>450.99999999999994</ele><time>2026-04-08T13:18:18Z</time></trkpt><trkpt lat="43.40447783105921" lon="11.35566561780474"><ele>452.0</ele><time>2026-04-08T13:18:19Z</time></trkpt><trkpt lat="43.404576460837255" lon="11.355689517544478"><ele>452.0</ele><time>2026-04-08T13:18:20Z</time></trkpt><trkpt lat="43.40464921602111" lon="11.35574375961453"><ele>452.00000000000006</ele><time>2026-04-08T13:18:21Z</time></trkpt><trkpt lat="43.40473549716014" lon="11.355815206743294"><ele>452.00000000000006</ele><time>2026-04-08T13:18:22Z</time></trkpt><trkpt lat="43.40482013116661" lon="11.35587576069722"><ele>452.0</ele><time>2026-04-08T13:18:23Z</time></trkpt><trkpt lat="43.404903669853404" lon="11.355940873375285"><ele>452.0</ele><time>2026-04-08T13:18:24Z</time></trkpt><trkpt lat="43.404981682399864" lon="11.355994328236248"><ele>452.8</ele><time>2026-04-08T13:18:25Z</time></trkpt><trkpt lat="43.40504287190349" lon="11.356050392790369"><ele>453.6</ele><time>2026-04-08T13:18:26Z</time></trkpt><trkpt lat="43.40516450912952" lon="11.356112332296743"><ele>454.40000000000003</ele><time>2026-04-08T13:18:28Z</time></trkpt><trkpt lat="43.4052325704907" lon="11.35612296914998"><ele>455.20000000000005</ele><time>2026-04-08T13:18:29Z</time></trkpt><trkpt lat="43.40529891859348" lon="11.356097657851434"><ele>456.0</ele><time>2026-04-08T13:18:30Z</time></trkpt><trkpt lat="43.405385084648415" lon="11.355985706684391"><ele>456.0</ele><time>2026-04-08T13:18:32Z</time></trkpt><trkpt lat="43.40540771621891" lon="11.355897556977453"><ele>456.0</ele><time>2026-04-08T13:18:33Z</time></trkpt><trkpt lat="43.405410259934534" lon="11.35579262769644"><ele>456.0</ele><time>2026-04-08T13:18:34Z</time></trkpt><trkpt lat="43.40543173420233" lon="11.355669075823716"><ele>456.0</ele><time>2026-04-08T13:18:35Z</time></trkpt><trkpt lat="43.40546361453824" lon="11.355570030714942"><ele>456.0</ele><time>2026-04-08T13:18:36Z</time></trkpt><trkpt lat="43.405508914147305" lon="11.355494090613709"><ele>456.0</ele><time>2026-04-08T13:18:37Z</time></trkpt><trkpt lat="43.40558053698713" lon="11.355436836204232"><ele>455.5</ele><time>2026-04-08T13:18:38Z</time></trkpt><trkpt lat="43.40565705778033" lon="11.355413540119395"><ele>455.0</ele><time>2026-04-08T13:18:39Z</time></trkpt><trkpt lat="43.40572128795864" lon="11.355437658754056"><ele>454.5</ele><time>2026-04-08T13:18:40Z</time></trkpt><trkpt lat="43.405807103915116" lon="11.355480532684009"><ele>454.0</ele><time>2026-04-08T13:18:41Z</time></trkpt><trkpt lat="43.40588572928434" lon="11.355520609029597"><ele>453.5</ele><time>2026-04-08T13:18:42Z</time></trkpt><trkpt lat="43.405957443975275" lon="11.355585388697069"><ele>453.0</ele><time>2026-04-08T13:18:43Z</time></trkpt><trkpt lat="43.406030855638896" lon="11.35565539148205"><ele>455.0</ele><time>2026-04-08T13:18:44Z</time></trkpt><trkpt lat="43.406129468109626" lon="11.35572998860839"><ele>456.99999999999994</ele><time>2026-04-08T13:18:45Z</time></trkpt><trkpt lat="43.40623242679856" lon="11.355832340256187"><ele>458.99999999999994</ele><time>2026-04-08T13:18:46Z</time></trkpt><trkpt lat="43.40631591892361" lon="11.355916053518557"><ele>461.0</ele><time>2026-04-08T13:18:47Z</time></trkpt><trkpt lat="43.40636703492946" lon="11.355982394902728"><ele>463.0</ele><time>2026-04-08T13:18:48Z</time></trkpt><trkpt lat="43.40644524838216" lon="11.356027849420387"><ele>463.50000000000006</ele><time>2026-04-08T13:18:49Z</time></trkpt><trkpt lat="43.40655256045884" lon="11.3560866356686"><ele>464.0</ele><time>2026-04-08T13:18:51Z</time></trkpt><trkpt lat="43.40661645039798" lon="11.356071815138227"><ele>464.5</ele><time>2026-04-08T13:18:52Z</time></trkpt><trkpt lat="43.40670392912328" lon="11.355967759896812"><ele>465.0</ele><time>2026-04-08T13:18:54Z</time></trkpt><trkpt lat="43.406722502131124" lon="11.35588288731089"><ele>465.50000000000006</ele><time>2026-04-08T13:18:55Z</time></trkpt><trkpt lat="43.406714089250535" lon="11.355785615598121"><ele>466.0</ele><time>2026-04-08T13:18:56Z</time></trkpt><trkpt lat="43.40669870763994" lon="11.35569358392235"><ele>466.0</ele><time>2026-04-08T13:18:57Z</time></trkpt><trkpt lat="43.406670268181955" lon="11.355579748862443"><ele>466.0</ele><time>2026-04-08T13:18:58Z</time></trkpt><trkpt lat="43.40664119544412" lon="11.355465408692359"><ele>466.0</ele><time>2026-04-08T13:18:59Z</time></trkpt><trkpt lat="43.406609292373915" lon="11.355327727654991"><ele>466.0</ele><time>2026-04-08T13:19:00Z</time></trkpt><trkpt lat="43.40658982776549" lon="11.35517884913708"><ele>466.0</ele><time>2026-04-08T13:19:01Z</time></trkpt><trkpt lat="43.40658323849974" lon="11.355057631726305"><ele>465.33333333333337</ele><time>2026-04-08T13:19:02Z</time></trkpt><trkpt lat="43.40658864446995" lon="11.354956198533822"><ele>464.6666666666667</ele><time>2026-04-08T13:19:03Z</time></trkpt><trkpt lat="43.40660587764706" lon="11.35485961295241"><ele>464.0</ele><time>2026-04-08T13:19:04Z</time></trkpt><trkpt lat="43.40664147435868" lon="11.354772301879525"><ele>463.33333333333337</ele><time>2026-04-08T13:19:05Z</time></trkpt><trkpt lat="43.40669334490348" lon="11.354706512665834"><ele>462.6666666666667</ele><time>2026-04-08T13:19:06Z</time></trkpt><trkpt lat="43.40676454256085" lon="11.354647669735092"><ele>462.0</ele><time>2026-04-08T13:19:07Z</time></trkpt><trkpt lat="43.40684270325391" lon="11.35458462494818"><ele>462.6</ele><time>2026-04-08T13:19:08Z</time></trkpt><trkpt lat="43.406938036479126" lon="11.354509862778215"><ele>463.20000000000005</ele><time>2026-04-08T13:19:09Z</time></trkpt><trkpt lat="43.40703888077665" lon="11.354437689944824"><ele>463.8</ele><time>2026-04-08T13:19:10Z</time></trkpt><trkpt lat="43.40712514128265" lon="11.354398250907384"><ele>464.4</ele><time>2026-04-08T13:19:11Z</time></trkpt><trkpt lat="43.40720838888115" lon="11.354382216854919"><ele>465.0</ele><time>2026-04-08T13:19:12Z</time></trkpt><trkpt lat="43.407285034284385" lon="11.354383651727241"><ele>465.0</ele><time>2026-04-08T13:19:13Z</time></trkpt><trkpt lat="43.40736988962485" lon="11.354403952153165"><ele>465.0</ele><time>2026-04-08T13:19:14Z</time></trkpt><trkpt lat="43.40745242728766" lon="11.354453891792927"><ele>465.0</ele><time>2026-04-08T13:19:15Z</time></trkpt><trkpt lat="43.40756423490442" lon="11.354453673830518"><ele>465.0</ele><time>2026-04-08T13:19:17Z</time></trkpt><trkpt lat="43.407613972219806" lon="11.354393664212658"><ele>465.0</ele><time>2026-04-08T13:19:18Z</time></trkpt><trkpt lat="43.40765658879635" lon="11.354312788639382"><ele>465.0</ele><time>2026-04-08T13:19:19Z</time></trkpt><trkpt lat="43.407682395907194" lon="11.354209158453797"><ele>465.0</ele><time>2026-04-08T13:19:20Z</time></trkpt><trkpt lat="43.40770566109744" lon="11.35409697706541"><ele>465.0</ele><time>2026-04-08T13:19:21Z</time></trkpt><trkpt lat="43.40773382372439" lon="11.353994801379866"><ele>465.0</ele><time>2026-04-08T13:19:22Z</time></trkpt><trkpt lat="43.40777094221492" lon="11.35390721398661"><ele>465.0</ele><time>2026-04-08T13:19:23Z</time></trkpt><trkpt lat="43.40781978780672" lon="11.353850504307173"><ele>465.0</ele><time>2026-04-08T13:19:24Z</time></trkpt><trkpt lat="43.40788837955839" lon="11.35379468532327"><ele>465.0</ele><time>2026-04-08T13:19:25Z</time></trkpt><trkpt lat="43.40795867747854" lon="11.35377113524874"><ele>464.1666666666667</ele><time>2026-04-08T13:19:26Z</time></trkpt><trkpt lat="43.40802995413253" lon="11.353775507688727"><ele>463.33333333333337</ele><time>2026-04-08T13:19:27Z</time></trkpt><trkpt lat="43.40810611808856" lon="11.35380014423225"><ele>462.5</ele><time>2026-04-08T13:19:28Z</time></trkpt><trkpt lat="43.408185311144884" lon="11.353852017487274"><ele>461.6666666666667</ele><time>2026-04-08T13:19:29Z</time></trkpt><trkpt lat="43.40823894751173" lon="11.353950568852166"><ele>460.83333333333337</ele><time>2026-04-08T13:19:30Z</time></trkpt><trkpt lat="43.40831058640704" lon="11.354030477134284"><ele>460.0</ele><time>2026-04-08T13:19:31Z</time></trkpt><trkpt lat="43.40836700460762" lon="11.354096851132327"><ele>462.00000000000006</ele><time>2026-04-08T13:19:32Z</time></trkpt><trkpt lat="43.408427454645405" lon="11.354143110884051"><ele>464.0</ele><time>2026-04-08T13:19:33Z</time></trkpt><trkpt lat="43.40849063283659" lon="11.354179956975031"><ele>466.0</ele><time>2026-04-08T13:19:34Z</time></trkpt><trkpt lat="43.408626315669046" lon="11.354180380285399"><ele>468.0</ele><time>2026-04-08T13:19:36Z</time></trkpt><trkpt lat="43.40868704975019" lon="11.3541416851114"><ele>470.00000000000006</ele><time>2026-04-08T13:19:37Z</time></trkpt><trkpt lat="43.40873526340908" lon="11.354075970942489"><ele>472.0</ele><time>2026-04-08T13:19:38Z</time></trkpt><trkpt lat="43.40877099075595" lon="11.353990684626103"><ele>472.00000000000006</ele><time>2026-04-08T13:19:39Z</time></trkpt><trkpt lat="43.40879587624504" lon="11.353882567035674"><ele>472.0</ele><time>2026-04-08T13:19:40Z</time></trkpt><trkpt lat="43.40880045738343" lon="11.353756185691637"><ele>472.0</ele><time>2026-04-08T13:19:40.999Z</time></trkpt><trkpt lat="43.408799665264354" lon="11.353634867792854"><ele>472.0</ele><time>2026-04-08T13:19:41.999Z</time></trkpt><trkpt lat="43.40881627009019" lon="11.353518384164738"><ele>472.00000000000006</ele><time>2026-04-08T13:19:42.999Z</time></trkpt><trkpt lat="43.40883774093724" lon="11.353423619370899"><ele>472.0</ele><time>2026-04-08T13:19:43.999Z</time></trkpt><trkpt lat="43.40887404354002" lon="11.353329374596841"><ele>471.20000000000005</ele><time>2026-04-08T13:19:44.999Z</time></trkpt><trkpt lat="43.40896115169739" lon="11.3532825209883"><ele>470.40000000000003</ele><time>2026-04-08T13:19:45.999Z</time></trkpt><trkpt lat="43.40904404551215" lon="11.353231362465447"><ele>469.59999999999997</ele><time>2026-04-08T13:19:46.999Z</time></trkpt><trkpt lat="43.409132684955914" lon="11.35321552200498"><ele>468.79999999999995</ele><time>2026-04-08T13:19:47.999Z</time></trkpt><trkpt lat="43.409232887089786" lon="11.353206346066791"><ele>468.0</ele><time>2026-04-08T13:19:48.999Z</time></trkpt><trkpt lat="43.4093329354267" lon="11.353212475786455"><ele>468.0</ele><time>2026-04-08T13:19:49.999Z</time></trkpt><trkpt lat="43.40942756963057" lon="11.353243555706664"><ele>468.0</ele><time>2026-04-08T13:19:50.999Z</time></trkpt><trkpt lat="43.40951539265237" lon="11.353294177682931"><ele>468.0</ele><time>2026-04-08T13:19:51.999Z</time></trkpt><trkpt lat="43.40958177445418" lon="11.35333742969347"><ele>468.0</ele><time>2026-04-08T13:19:52.999Z</time></trkpt><trkpt lat="43.40964763341756" lon="11.353359493011018"><ele>468.0</ele><time>2026-04-08T13:19:53.999Z</time></trkpt><trkpt lat="43.40972170395022" lon="11.353353935493491"><ele>468.0</ele><time>2026-04-08T13:19:54.999Z</time></trkpt><trkpt lat="43.409783834007214" lon="11.353329964611357"><ele>468.1666666666667</ele><time>2026-04-08T13:19:55.999Z</time></trkpt><trkpt lat="43.40982885515424" lon="11.3531836331971"><ele>468.33333333333337</ele><time>2026-04-08T13:19:58Z</time></trkpt><trkpt lat="43.40985708616302" lon="11.353093130129686"><ele>468.5</ele><time>2026-04-08T13:19:59Z</time></trkpt><trkpt lat="43.409863608830015" lon="11.352979269815913"><ele>468.6666666666667</ele><time>2026-04-08T13:20:00Z</time></trkpt><trkpt lat="43.409871834763216" lon="11.352870203934229"><ele>468.83333333333337</ele><time>2026-04-08T13:20:01Z</time></trkpt><trkpt lat="43.40990899062717" lon="11.352786619363348"><ele>469.0</ele><time>2026-04-08T13:20:02Z</time></trkpt><trkpt lat="43.40997156212576" lon="11.352694882093346"><ele>469.00000000000006</ele><time>2026-04-08T13:20:03Z</time></trkpt><trkpt lat="43.410037062331014" lon="11.352614935288885"><ele>469.0</ele><time>2026-04-08T13:20:04Z</time></trkpt><trkpt lat="43.41009816897873" lon="11.352535378072092"><ele>469.0</ele><time>2026-04-08T13:20:05Z</time></trkpt><trkpt lat="43.4101532044282" lon="11.352476205703052"><ele>469.0</ele><time>2026-04-08T13:20:06Z</time></trkpt><trkpt lat="43.41022827670594" lon="11.352371337482207"><ele>469.00000000000006</ele><time>2026-04-08T13:20:08Z</time></trkpt><trkpt lat="43.41027681770691" lon="11.352311183284288"><ele>469.0</ele><time>2026-04-08T13:20:11Z</time></trkpt><trkpt lat="43.41039520200113" lon="11.35232002937874"><ele>469.0</ele><time>2026-04-08T13:20:32Z</time></trkpt><trkpt lat="43.41047912338493" lon="11.352312355307518"><ele>469.0</ele><time>2026-04-08T13:20:33Z</time></trkpt><trkpt lat="43.41057299920054" lon="11.352303044898438"><ele>469.0</ele><time>2026-04-08T13:20:34Z</time></trkpt><trkpt lat="43.41067929610657" lon="11.352271008296434"><ele>469.0</ele><time>2026-04-08T13:20:35Z</time></trkpt><trkpt lat="43.41078984172671" lon="11.352239539142763"><ele>469.0</ele><time>2026-04-08T13:20:36Z</time></trkpt><trkpt lat="43.41089886451041" lon="11.352210171054374"><ele>469.5</ele><time>2026-04-08T13:20:37Z</time></trkpt><trkpt lat="43.41100403166382" lon="11.352180744770298"><ele>470.0</ele><time>2026-04-08T13:20:38Z</time></trkpt><trkpt lat="43.41111503160551" lon="11.352150904808408"><ele>470.5</ele><time>2026-04-08T13:20:39Z</time></trkpt><trkpt lat="43.411229253021546" lon="11.352116266520877"><ele>471.0</ele><time>2026-04-08T13:20:40Z</time></trkpt><trkpt lat="43.411350528180456" lon="11.352076185752308"><ele>470.0</ele><time>2026-04-08T13:20:41Z</time></trkpt><trkpt lat="43.41146591325955" lon="11.352042224555097"><ele>469.0</ele><time>2026-04-08T13:20:42Z</time></trkpt><trkpt lat="43.41158966436968" lon="11.35201303744353"><ele>468.0</ele><time>2026-04-08T13:20:43Z</time></trkpt><trkpt lat="43.41171506612071" lon="11.351982908348718"><ele>467.0</ele><time>2026-04-08T13:20:44Z</time></trkpt><trkpt lat="43.411847092589596" lon="11.351947641040635"><ele>467.0</ele><time>2026-04-08T13:20:45Z</time></trkpt><trkpt lat="43.41199697814445" lon="11.351911351171262"><ele>467.0</ele><time>2026-04-08T13:20:46Z</time></trkpt><trkpt lat="43.41217297168208" lon="11.351868429671267"><ele>467.0</ele><time>2026-04-08T13:20:47Z</time></trkpt><trkpt lat="43.412355169301826" lon="11.351830318083902"><ele>468.25</ele><time>2026-04-08T13:20:48Z</time></trkpt><trkpt lat="43.412516243787074" lon="11.351791735974645"><ele>469.5</ele><time>2026-04-08T13:20:49Z</time></trkpt><trkpt lat="43.41263994644143" lon="11.351762860624193"><ele>470.75</ele><time>2026-04-08T13:20:50Z</time></trkpt><trkpt lat="43.41277543011802" lon="11.35172667608328"><ele>472.0</ele><time>2026-04-08T13:20:51Z</time></trkpt><trkpt lat="43.412892340042156" lon="11.35167365923171"><ele>473.75</ele><time>2026-04-08T13:20:52Z</time></trkpt><trkpt lat="43.41300646959572" lon="11.351571507980143"><ele>475.5</ele><time>2026-04-08T13:20:53Z</time></trkpt><trkpt lat="43.41312743153685" lon="11.35142850834503"><ele>477.25</ele><time>2026-04-08T13:20:54Z</time></trkpt><trkpt lat="43.41321016447237" lon="11.351291110341698"><ele>479.0</ele><time>2026-04-08T13:20:55Z</time></trkpt><trkpt lat="43.41326566352372" lon="11.351199181217625"><ele>479.2</ele><time>2026-04-08T13:20:56Z</time></trkpt><trkpt lat="43.41331934395455" lon="11.35112068454072"><ele>479.4</ele><time>2026-04-08T13:20:57Z</time></trkpt><trkpt lat="43.413376303400284" lon="11.351031986832886"><ele>479.6</ele><time>2026-04-08T13:20:58Z</time></trkpt><trkpt lat="43.41343990976199" lon="11.350940495638223"><ele>479.8</ele><time>2026-04-08T13:20:59Z</time></trkpt><trkpt lat="43.41352087267432" lon="11.350825137989967"><ele>480.0</ele><time>2026-04-08T13:21:00Z</time></trkpt><trkpt lat="43.41362028350347" lon="11.35069062795602"><ele>480.0</ele><time>2026-04-08T13:21:01Z</time></trkpt><trkpt lat="43.41370388413762" lon="11.350576889046085"><ele>480.0</ele><time>2026-04-08T13:21:02Z</time></trkpt><trkpt lat="43.41377248844095" lon="11.350481021601817"><ele>480.0</ele><time>2026-04-08T13:21:03Z</time></trkpt><trkpt lat="43.41384630946376" lon="11.350406329185734"><ele>480.0</ele><time>2026-04-08T13:21:04Z</time></trkpt><trkpt lat="43.41392431716166" lon="11.350341949501946"><ele>480.0</ele><time>2026-04-08T13:21:05Z</time></trkpt><trkpt lat="43.414035424788565" lon="11.350319555344255"><ele>483.5</ele><time>2026-04-08T13:21:06Z</time></trkpt><trkpt lat="43.41414017391668" lon="11.350377952121185"><ele>487.0</ele><time>2026-04-08T13:21:07Z</time></trkpt><trkpt lat="43.41425598226477" lon="11.350451404415978"><ele>490.5</ele><time>2026-04-08T13:21:08Z</time></trkpt><trkpt lat="43.41435639061665" lon="11.350476397827016"><ele>494.0</ele><time>2026-04-08T13:21:09Z</time></trkpt><trkpt lat="43.41448389321394" lon="11.350522569178528"><ele>494.0</ele><time>2026-04-08T13:21:10Z</time></trkpt><trkpt lat="43.414549236941674" lon="11.3505114422413"><ele>494.0</ele><time>2026-04-08T13:21:11Z</time></trkpt><trkpt lat="43.414615648563455" lon="11.350434486954631"><ele>494.0</ele><time>2026-04-08T13:21:12Z</time></trkpt><trkpt lat="43.41466612423271" lon="11.350326112735909"><ele>494.0</ele><time>2026-04-08T13:21:13Z</time></trkpt><trkpt lat="43.414680422967024" lon="11.350200192993748"><ele>494.0</ele><time>2026-04-08T13:21:14Z</time></trkpt><trkpt lat="43.41468040182375" lon="11.35004235765686"><ele>493.25</ele><time>2026-04-08T13:21:15Z</time></trkpt><trkpt lat="43.41467237849361" lon="11.349848106941469"><ele>492.5</ele><time>2026-04-08T13:21:16Z</time></trkpt><trkpt lat="43.414671631294965" lon="11.349654838686144"><ele>491.75</ele><time>2026-04-08T13:21:17Z</time></trkpt><trkpt lat="43.414671289444016" lon="11.349496906414826"><ele>491.0</ele><time>2026-04-08T13:21:18Z</time></trkpt><trkpt lat="43.414689222705746" lon="11.349338846464864"><ele>491.0</ele><time>2026-04-08T13:21:19Z</time></trkpt><trkpt lat="43.41473984567297" lon="11.349195945507423"><ele>491.0</ele><time>2026-04-08T13:21:20Z</time></trkpt><trkpt lat="43.41483888872692" lon="11.34907350175515"><ele>491.0</ele><time>2026-04-08T13:21:21Z</time></trkpt><trkpt lat="43.414959006068564" lon="11.348961831963742"><ele>491.0</ele><time>2026-04-08T13:21:22Z</time></trkpt><trkpt lat="43.41507710570117" lon="11.34887895891914"><ele>490.75</ele><time>2026-04-08T13:21:23Z</time></trkpt><trkpt lat="43.415183520144005" lon="11.348825201903557"><ele>490.5</ele><time>2026-04-08T13:21:24Z</time></trkpt><trkpt lat="43.415286552395365" lon="11.348814286466737"><ele>490.25</ele><time>2026-04-08T13:21:25Z</time></trkpt><trkpt lat="43.41539076407609" lon="11.348864553809616"><ele>490.0</ele><time>2026-04-08T13:21:26Z</time></trkpt><trkpt lat="43.415524626172314" lon="11.348900480490553"><ele>490.0</ele><time>2026-04-08T13:21:27Z</time></trkpt><trkpt lat="43.41565548087276" lon="11.34896285590633"><ele>490.0</ele><time>2026-04-08T13:21:28Z</time></trkpt><trkpt lat="43.41576584935587" lon="11.348977259932713"><ele>490.0</ele><time>2026-04-08T13:21:29Z</time></trkpt><trkpt lat="43.41588399418782" lon="11.348954276441999"><ele>490.0</ele><time>2026-04-08T13:21:30Z</time></trkpt><trkpt lat="43.41601390818536" lon="11.348910104494824"><ele>490.0</ele><time>2026-04-08T13:21:31Z</time></trkpt><trkpt lat="43.41613014938306" lon="11.348878114488173"><ele>490.0</ele><time>2026-04-08T13:21:32Z</time></trkpt><trkpt lat="43.41623028094725" lon="11.348851981987519"><ele>490.0</ele><time>2026-04-08T13:21:33Z</time></trkpt><trkpt lat="43.41634165846857" lon="11.348838836967364"><ele>490.0</ele><time>2026-04-08T13:21:34Z</time></trkpt><trkpt lat="43.41645943659151" lon="11.348826530839593"><ele>493.75</ele><time>2026-04-08T13:21:35Z</time></trkpt><trkpt lat="43.416584119517545" lon="11.348823183658979"><ele>497.5</ele><time>2026-04-08T13:21:36Z</time></trkpt><trkpt lat="43.41671089693788" lon="11.34880492110439"><ele>501.25</ele><time>2026-04-08T13:21:37Z</time></trkpt><trkpt lat="43.41682921566959" lon="11.348783797080547"><ele>505.0</ele><time>2026-04-08T13:21:38Z</time></trkpt><trkpt lat="43.416930508105914" lon="11.348756451918131"><ele>505.0</ele><time>2026-04-08T13:21:39Z</time></trkpt><trkpt lat="43.417031898854525" lon="11.348717345825403"><ele>505.0</ele><time>2026-04-08T13:21:40Z</time></trkpt><trkpt lat="43.41712592719534" lon="11.348649294078372"><ele>505.0</ele><time>2026-04-08T13:21:41Z</time></trkpt><trkpt lat="43.41719187385811" lon="11.348557345896173"><ele>505.0</ele><time>2026-04-08T13:21:42Z</time></trkpt><trkpt lat="43.417233844542906" lon="11.348455527634515"><ele>505.0</ele><time>2026-04-08T13:21:43Z</time></trkpt><trkpt lat="43.41724146880123" lon="11.348351776432962"><ele>506.5</ele><time>2026-04-08T13:21:44Z</time></trkpt><trkpt lat="43.417222459393834" lon="11.348236015748775"><ele>508.0</ele><time>2026-04-08T13:21:45Z</time></trkpt><trkpt lat="43.41718996560869" lon="11.348089839568129"><ele>509.5</ele><time>2026-04-08T13:21:46Z</time></trkpt><trkpt lat="43.41714640032263" lon="11.347917427667918"><ele>511.0</ele><time>2026-04-08T13:21:47Z</time></trkpt><trkpt lat="43.41712195919952" lon="11.347729994417211"><ele>511.0</ele><time>2026-04-08T13:21:48Z</time></trkpt><trkpt lat="43.41712719442226" lon="11.347566917913824"><ele>511.0</ele><time>2026-04-08T13:21:49Z</time></trkpt><trkpt lat="43.417159102696004" lon="11.347431011384995"><ele>511.0</ele><time>2026-04-08T13:21:50Z</time></trkpt><trkpt lat="43.4172243868336" lon="11.347318249099994"><ele>511.0</ele><time>2026-04-08T13:21:51Z</time></trkpt><trkpt lat="43.417314842383256" lon="11.347217905595002"><ele>511.0</ele><time>2026-04-08T13:21:52Z</time></trkpt><trkpt lat="43.41742070996331" lon="11.34711659800939"><ele>511.0</ele><time>2026-04-08T13:21:53Z</time></trkpt><trkpt lat="43.417535718310134" lon="11.347003091525147"><ele>511.0</ele><time>2026-04-08T13:21:54Z</time></trkpt><trkpt lat="43.417676692149016" lon="11.346877970581891"><ele>511.0</ele><time>2026-04-08T13:21:55Z</time></trkpt><trkpt lat="43.417816738430446" lon="11.346761787432847"><ele>511.0</ele><time>2026-04-08T13:21:56Z</time></trkpt><trkpt lat="43.41793459618467" lon="11.346677804744148"><ele>511.0</ele><time>2026-04-08T13:21:57Z</time></trkpt><trkpt lat="43.418046969083285" lon="11.34661624975022"><ele>511.0</ele><time>2026-04-08T13:21:58Z</time></trkpt><trkpt lat="43.418152837033894" lon="11.346582959082458"><ele>511.0</ele><time>2026-04-08T13:21:59Z</time></trkpt><trkpt lat="43.418251581291365" lon="11.34654333232031"><ele>508.0</ele><time>2026-04-08T13:22:00Z</time></trkpt><trkpt lat="43.418368105293226" lon="11.346514227430436"><ele>505.0</ele><time>2026-04-08T13:22:01Z</time></trkpt><trkpt lat="43.418495519022194" lon="11.346483420397826"><ele>502.0</ele><time>2026-04-08T13:22:02Z</time></trkpt><trkpt lat="43.41860624242679" lon="11.346465477257125"><ele>499.0</ele><time>2026-04-08T13:22:03Z</time></trkpt><trkpt lat="43.418716332169204" lon="11.346462026063287"><ele>499.5</ele><time>2026-04-08T13:22:04Z</time></trkpt><trkpt lat="43.41883282675561" lon="11.34648983528582"><ele>500.0</ele><time>2026-04-08T13:22:05Z</time></trkpt><trkpt lat="43.418945083023395" lon="11.346557551614948"><ele>500.5</ele><time>2026-04-08T13:22:06Z</time></trkpt><trkpt lat="43.41904520503709" lon="11.346650104722615"><ele>501.0</ele><time>2026-04-08T13:22:07Z</time></trkpt><trkpt lat="43.41914869096183" lon="11.346749250431294"><ele>501.0</ele><time>2026-04-08T13:22:08Z</time></trkpt><trkpt lat="43.41923934986534" lon="11.346832024510539"><ele>501.0</ele><time>2026-04-08T13:22:09Z</time></trkpt><trkpt lat="43.41934364455562" lon="11.346902006235107"><ele>501.0</ele><time>2026-04-08T13:22:10Z</time></trkpt><trkpt lat="43.419438112801636" lon="11.346957624879584"><ele>501.0</ele><time>2026-04-08T13:22:11Z</time></trkpt><trkpt lat="43.419536110235384" lon="11.346997475488092"><ele>501.0</ele><time>2026-04-08T13:22:12Z</time></trkpt><trkpt lat="43.419640550565084" lon="11.347010337644257"><ele>502.20000000000005</ele><time>2026-04-08T13:22:13Z</time></trkpt><trkpt lat="43.419744988418465" lon="11.346995553246026"><ele>503.40000000000003</ele><time>2026-04-08T13:22:14Z</time></trkpt><trkpt lat="43.419852570819906" lon="11.346977340114703"><ele>504.6</ele><time>2026-04-08T13:22:15Z</time></trkpt><trkpt lat="43.41995284790972" lon="11.346981318165273"><ele>505.8</ele><time>2026-04-08T13:22:16Z</time></trkpt><trkpt lat="43.42006054814001" lon="11.34700866955214"><ele>507.0</ele><time>2026-04-08T13:22:17Z</time></trkpt><trkpt lat="43.42016500223777" lon="11.347048041817168"><ele>507.0</ele><time>2026-04-08T13:22:18Z</time></trkpt><trkpt lat="43.4202522589762" lon="11.347095900829542"><ele>507.0</ele><time>2026-04-08T13:22:19Z</time></trkpt><trkpt lat="43.420331122925305" lon="11.347155485685926"><ele>507.0</ele><time>2026-04-08T13:22:20Z</time></trkpt><trkpt lat="43.42040319193797" lon="11.34721136380264"><ele>507.0</ele><time>2026-04-08T13:22:21Z</time></trkpt><trkpt lat="43.42047236079048" lon="11.347261033180548"><ele>507.0</ele><time>2026-04-08T13:22:22Z</time></trkpt><trkpt lat="43.420560040878804" lon="11.347286909512786"><ele>507.0</ele><time>2026-04-08T13:22:23Z</time></trkpt><trkpt lat="43.420649865042435" lon="11.347288425666637"><ele>505.8</ele><time>2026-04-08T13:22:24Z</time></trkpt><trkpt lat="43.42073808311887" lon="11.347276398232157"><ele>504.6</ele><time>2026-04-08T13:22:25Z</time></trkpt><trkpt lat="43.42082965301646" lon="11.347272407026091"><ele>503.40000000000003</ele><time>2026-04-08T13:22:26Z</time></trkpt><trkpt lat="43.42092456486781" lon="11.347277706360268"><ele>502.20000000000005</ele><time>2026-04-08T13:22:27Z</time></trkpt><trkpt lat="43.42102938875957" lon="11.347298043434652"><ele>501.0</ele><time>2026-04-08T13:22:28Z</time></trkpt><trkpt lat="43.42112457739342" lon="11.347323717411735"><ele>501.0</ele><time>2026-04-08T13:22:29Z</time></trkpt><trkpt lat="43.42120009558955" lon="11.347359878979434"><ele>501.0</ele><time>2026-04-08T13:22:30Z</time></trkpt><trkpt lat="43.42126278253347" lon="11.347408755923645"><ele>501.0</ele><time>2026-04-08T13:22:31Z</time></trkpt><trkpt lat="43.421322026797895" lon="11.347479060543577"><ele>501.0</ele><time>2026-04-08T13:22:32Z</time></trkpt><trkpt lat="43.42136923377975" lon="11.34755835012696"><ele>501.0</ele><time>2026-04-08T13:22:33Z</time></trkpt><trkpt lat="43.42139554653516" lon="11.34763987816033"><ele>501.0</ele><time>2026-04-08T13:22:34Z</time></trkpt><trkpt lat="43.4213854016346" lon="11.34773559035037"><ele>501.0</ele><time>2026-04-08T13:22:35Z</time></trkpt><trkpt lat="43.42141340308053" lon="11.347838660033824"><ele>501.0</ele><time>2026-04-08T13:22:36Z</time></trkpt><trkpt lat="43.421406137858305" lon="11.347965612475647"><ele>501.0</ele><time>2026-04-08T13:22:37Z</time></trkpt><trkpt lat="43.421402350240754" lon="11.348102882047636"><ele>501.0</ele><time>2026-04-08T13:22:38Z</time></trkpt><trkpt lat="43.42139632029788" lon="11.348249768976286"><ele>501.0</ele><time>2026-04-08T13:22:39Z</time></trkpt><trkpt lat="43.42138603048255" lon="11.348385873883426"><ele>501.0</ele><time>2026-04-08T13:22:40Z</time></trkpt><trkpt lat="43.42133057898305" lon="11.348500797906128"><ele>498.6</ele><time>2026-04-08T13:22:41Z</time></trkpt><trkpt lat="43.42131415525517" lon="11.348625468905645"><ele>496.20000000000005</ele><time>2026-04-08T13:22:42Z</time></trkpt><trkpt lat="43.42130250250888" lon="11.348754233413032"><ele>493.79999999999995</ele><time>2026-04-08T13:22:43Z</time></trkpt><trkpt lat="43.421294014563955" lon="11.348896341141643"><ele>491.4</ele><time>2026-04-08T13:22:44Z</time></trkpt><trkpt lat="43.42129490874504" lon="11.34903983060752"><ele>489.0</ele><time>2026-04-08T13:22:45Z</time></trkpt><trkpt lat="43.421298090065186" lon="11.349171136271003"><ele>487.8333333333333</ele><time>2026-04-08T13:22:46Z</time></trkpt><trkpt lat="43.42130573345324" lon="11.34929026339904"><ele>486.66666666666663</ele><time>2026-04-08T13:22:47Z</time></trkpt><trkpt lat="43.42132486187753" lon="11.349405132501074"><ele>485.5</ele><time>2026-04-08T13:22:48Z</time></trkpt><trkpt lat="43.42136749908929" lon="11.349505607792176"><ele>484.3333333333333</ele><time>2026-04-08T13:22:49Z</time></trkpt><trkpt lat="43.42143515937801" lon="11.349578930309617"><ele>483.16666666666663</ele><time>2026-04-08T13:22:50Z</time></trkpt><trkpt lat="43.421530739643885" lon="11.349585983775489"><ele>482.0</ele><time>2026-04-08T13:22:51Z</time></trkpt><trkpt lat="43.4216167434242" lon="11.349583550326585"><ele>485.20000000000005</ele><time>2026-04-08T13:22:52Z</time></trkpt><trkpt lat="43.42170626602568" lon="11.349555724896197"><ele>488.40000000000003</ele><time>2026-04-08T13:22:53Z</time></trkpt><trkpt lat="43.421809942118806" lon="11.349529670771641"><ele>491.59999999999997</ele><time>2026-04-08T13:22:54Z</time></trkpt><trkpt lat="43.42190007591643" lon="11.34955573033975"><ele>494.79999999999995</ele><time>2026-04-08T13:22:55Z</time></trkpt><trkpt lat="43.421981363835044" lon="11.34961024599714"><ele>498.0</ele><time>2026-04-08T13:22:56Z</time></trkpt><trkpt lat="43.422045925038844" lon="11.349675812201545"><ele>495.6666666666667</ele><time>2026-04-08T13:22:57Z</time></trkpt><trkpt lat="43.42211168368682" lon="11.349754921855872"><ele>493.33333333333337</ele><time>2026-04-08T13:22:58Z</time></trkpt><trkpt lat="43.422173487620036" lon="11.349834845619105"><ele>491.0</ele><time>2026-04-08T13:22:59Z</time></trkpt><trkpt lat="43.42224729883863" lon="11.349883269964968"><ele>488.6666666666667</ele><time>2026-04-08T13:23:00Z</time></trkpt><trkpt lat="43.422307219116526" lon="11.349932249287624"><ele>486.33333333333337</ele><time>2026-04-08T13:23:01Z</time></trkpt><trkpt lat="43.422371584505534" lon="11.349970024497473"><ele>484.0</ele><time>2026-04-08T13:23:02Z</time></trkpt><trkpt lat="43.42243522991405" lon="11.350009406628924"><ele>484.0</ele><time>2026-04-08T13:23:03Z</time></trkpt><trkpt lat="43.4225075386894" lon="11.350075719100676"><ele>483.99999999999994</ele><time>2026-04-08T13:23:04Z</time></trkpt><trkpt lat="43.422576600818275" lon="11.350114610516028"><ele>484.0</ele><time>2026-04-08T13:23:05Z</time></trkpt><trkpt lat="43.422645491621445" lon="11.350133457265997"><ele>484.0</ele><time>2026-04-08T13:23:06Z</time></trkpt><trkpt lat="43.42268896480854" lon="11.35021564582484"><ele>483.99999999999994</ele><time>2026-04-08T13:23:07Z</time></trkpt><trkpt lat="43.42273786756106" lon="11.350286066764623"><ele>484.0</ele><time>2026-04-08T13:23:08Z</time></trkpt><trkpt lat="43.422775036397184" lon="11.350370355334913"><ele>484.0</ele><time>2026-04-08T13:23:09Z</time></trkpt><trkpt lat="43.422809606181296" lon="11.35045265974783"><ele>482.4</ele><time>2026-04-08T13:23:10Z</time></trkpt><trkpt lat="43.42284400169364" lon="11.350609333117436"><ele>480.79999999999995</ele><time>2026-04-08T13:23:12Z</time></trkpt><trkpt lat="43.42292648683423" lon="11.350708998147923"><ele>479.20000000000005</ele><time>2026-04-08T13:23:14Z</time></trkpt><trkpt lat="43.423030334633914" lon="11.35067387197218"><ele>477.6</ele><time>2026-04-08T13:23:16Z</time></trkpt><trkpt lat="43.42310156881466" lon="11.350614807574818"><ele>476.0</ele><time>2026-04-08T13:23:18Z</time></trkpt><trkpt lat="43.42318448029236" lon="11.350502231960899"><ele>475.99999999999994</ele><time>2026-04-08T13:23:20Z</time></trkpt><trkpt lat="43.423235522415375" lon="11.35043680222201"><ele>476.0</ele><time>2026-04-08T13:23:21Z</time></trkpt><trkpt lat="43.42329482783112" lon="11.350386065501784"><ele>476.0</ele><time>2026-04-08T13:23:22Z</time></trkpt><trkpt lat="43.42337864237923" lon="11.350334347248825"><ele>476.0</ele><time>2026-04-08T13:23:23Z</time></trkpt><trkpt lat="43.423459290409355" lon="11.35029821356558"><ele>475.99999999999994</ele><time>2026-04-08T13:23:24Z</time></trkpt><trkpt lat="43.4235228788586" lon="11.350271766198622"><ele>476.0</ele><time>2026-04-08T13:23:25Z</time></trkpt><trkpt lat="43.42360539710595" lon="11.350243642533925"><ele>476.0</ele><time>2026-04-08T13:23:26Z</time></trkpt><trkpt lat="43.42367361071556" lon="11.350216852632446"><ele>476.0</ele><time>2026-04-08T13:23:27Z</time></trkpt><trkpt lat="43.4237446782034" lon="11.350186095389644"><ele>476.0</ele><time>2026-04-08T13:23:28Z</time></trkpt><trkpt lat="43.42381163586872" lon="11.350190182307145"><ele>476.0</ele><time>2026-04-08T13:23:29Z</time></trkpt><trkpt lat="43.42392388238778" lon="11.350253945286383"><ele>476.0</ele><time>2026-04-08T13:23:31Z</time></trkpt><trkpt lat="43.423982042868545" lon="11.350402858160015"><ele>473.6</ele><time>2026-04-08T13:23:33Z</time></trkpt><trkpt lat="43.423979075417016" lon="11.35050592171954"><ele>471.20000000000005</ele><time>2026-04-08T13:23:34Z</time></trkpt><trkpt lat="43.423973901635186" lon="11.35061783211803"><ele>468.79999999999995</ele><time>2026-04-08T13:23:35Z</time></trkpt><trkpt lat="43.423968888341356" lon="11.35073696741482"><ele>466.4</ele><time>2026-04-08T13:23:36Z</time></trkpt><trkpt lat="43.4239633805543" lon="11.35088608561255"><ele>464.0</ele><time>2026-04-08T13:23:37Z</time></trkpt><trkpt lat="43.42395103044312" lon="11.351043152450217"><ele>462.16666666666663</ele><time>2026-04-08T13:23:38Z</time></trkpt><trkpt lat="43.42393382303685" lon="11.351170406230462"><ele>460.3333333333333</ele><time>2026-04-08T13:23:39Z</time></trkpt><trkpt lat="43.42391488229295" lon="11.3512740907787"><ele>458.5</ele><time>2026-04-08T13:23:40Z</time></trkpt><trkpt lat="43.42388932975984" lon="11.351389950054763"><ele>456.66666666666663</ele><time>2026-04-08T13:23:41Z</time></trkpt><trkpt lat="43.42385742984551" lon="11.351511071782896"><ele>454.8333333333333</ele><time>2026-04-08T13:23:42Z</time></trkpt><trkpt lat="43.42382498609103" lon="11.351616927895883"><ele>453.0</ele><time>2026-04-08T13:23:43Z</time></trkpt><trkpt lat="43.42378587415734" lon="11.351723126723364"><ele>452.1666666666667</ele><time>2026-04-08T13:23:44Z</time></trkpt><trkpt lat="43.42374134965269" lon="11.351840740444008"><ele>451.33333333333337</ele><time>2026-04-08T13:23:45Z</time></trkpt><trkpt lat="43.423708930783334" lon="11.351946049556023"><ele>450.5</ele><time>2026-04-08T13:23:46Z</time></trkpt><trkpt lat="43.423682726613286" lon="11.352053291700221"><ele>449.6666666666667</ele><time>2026-04-08T13:23:47Z</time></trkpt><trkpt lat="43.423666368493954" lon="11.352177837058093"><ele>448.83333333333337</ele><time>2026-04-08T13:23:48Z</time></trkpt><trkpt lat="43.42365849798466" lon="11.352291436101462"><ele>448.0</ele><time>2026-04-08T13:23:49Z</time></trkpt><trkpt lat="43.42365872734128" lon="11.352415245532631"><ele>447.0</ele><time>2026-04-08T13:23:50Z</time></trkpt><trkpt lat="43.42366857473906" lon="11.35254657533877"><ele>445.99999999999994</ele><time>2026-04-08T13:23:51Z</time></trkpt><trkpt lat="43.42368513561246" lon="11.3526957252656"><ele>444.99999999999994</ele><time>2026-04-08T13:23:52Z</time></trkpt><trkpt lat="43.423702532492825" lon="11.352852404479462"><ele>444.0</ele><time>2026-04-08T13:23:53Z</time></trkpt><trkpt lat="43.42371830602091" lon="11.352990727997105"><ele>443.0</ele><time>2026-04-08T13:23:54Z</time></trkpt><trkpt lat="43.42373380363034" lon="11.353115992038308"><ele>441.66666666666663</ele><time>2026-04-08T13:23:55Z</time></trkpt><trkpt lat="43.423749237649396" lon="11.353236920685884"><ele>440.3333333333333</ele><time>2026-04-08T13:23:56Z</time></trkpt><trkpt lat="43.42376594862081" lon="11.353358485379477"><ele>439.0</ele><time>2026-04-08T13:23:57Z</time></trkpt><trkpt lat="43.42378337528152" lon="11.35348525655655"><ele>437.66666666666663</ele><time>2026-04-08T13:23:58Z</time></trkpt><trkpt lat="43.42379857465977" lon="11.353606037422079"><ele>436.3333333333333</ele><time>2026-04-08T13:23:59Z</time></trkpt><trkpt lat="43.423809465200726" lon="11.353711024984715"><ele>435.0</ele><time>2026-04-08T13:24:00Z</time></trkpt><trkpt lat="43.42382343665521" lon="11.35387918390008"><ele>435.0</ele><time>2026-04-08T13:24:02Z</time></trkpt><trkpt lat="43.423832479084794" lon="11.353965219712892"><ele>435.0</ele><time>2026-04-08T13:24:03Z</time></trkpt><trkpt lat="43.42384491029818" lon="11.3540535830961"><ele>435.0</ele><time>2026-04-08T13:24:04Z</time></trkpt><trkpt lat="43.4238637180534" lon="11.354142172393223"><ele>435.0</ele><time>2026-04-08T13:24:05Z</time></trkpt><trkpt lat="43.423888714464226" lon="11.354230079665548"><ele>435.0</ele><time>2026-04-08T13:24:06Z</time></trkpt><trkpt lat="43.42394520483336" lon="11.354374040157447"><ele>435.0</ele><time>2026-04-08T13:24:08Z</time></trkpt><trkpt lat="43.423984090097214" lon="11.354449076961735"><ele>435.0</ele><time>2026-04-08T13:24:09Z</time></trkpt><trkpt lat="43.42403014130131" lon="11.354530700311264"><ele>435.0</ele><time>2026-04-08T13:24:10Z</time></trkpt><trkpt lat="43.42407352897321" lon="11.354603068890702"><ele>435.0</ele><time>2026-04-08T13:24:11Z</time></trkpt><trkpt lat="43.42416434501612" lon="11.354741086223113"><ele>435.0</ele><time>2026-04-08T13:24:13Z</time></trkpt><trkpt lat="43.42423597381764" lon="11.354802381496357"><ele>435.0</ele><time>2026-04-08T13:24:14Z</time></trkpt><trkpt lat="43.42433444694648" lon="11.354801394439782"><ele>432.8</ele><time>2026-04-08T13:24:15Z</time></trkpt><trkpt lat="43.42443433651223" lon="11.354826065466789"><ele>430.6</ele><time>2026-04-08T13:24:16Z</time></trkpt><trkpt lat="43.424540379240234" lon="11.354834306804031"><ele>428.4</ele><time>2026-04-08T13:24:17Z</time></trkpt><trkpt lat="43.42464022483605" lon="11.354842269340569"><ele>426.2</ele><time>2026-04-08T13:24:18Z</time></trkpt><trkpt lat="43.42473272767981" lon="11.35484846914137"><ele>424.0</ele><time>2026-04-08T13:24:19Z</time></trkpt><trkpt lat="43.424808636946" lon="11.354856466075988"><ele>424.00000000000006</ele><time>2026-04-08T13:24:20Z</time></trkpt><trkpt lat="43.424877925907445" lon="11.354861702958472"><ele>424.0</ele><time>2026-04-08T13:24:21Z</time></trkpt><trkpt lat="43.424985391805635" lon="11.354798944234075"><ele>424.0</ele><time>2026-04-08T13:24:23Z</time></trkpt><trkpt lat="43.42501904340118" lon="11.354719157615147"><ele>424.0</ele><time>2026-04-08T13:24:24Z</time></trkpt><trkpt lat="43.425034916735186" lon="11.354621254964782"><ele>424.00000000000006</ele><time>2026-04-08T13:24:25Z</time></trkpt><trkpt lat="43.42505677986944" lon="11.354529806624344"><ele>424.0</ele><time>2026-04-08T13:24:26Z</time></trkpt><trkpt lat="43.42510708005662" lon="11.354465762613627"><ele>424.2</ele><time>2026-04-08T13:24:27Z</time></trkpt><trkpt lat="43.42518226326257" lon="11.354424559594214"><ele>424.4</ele><time>2026-04-08T13:24:28Z</time></trkpt><trkpt lat="43.42529189621011" lon="11.354415210381644"><ele>424.6</ele><time>2026-04-08T13:24:29Z</time></trkpt><trkpt lat="43.425389843396125" lon="11.354420792237448"><ele>424.8</ele><time>2026-04-08T13:24:30Z</time></trkpt><trkpt lat="43.42547414458693" lon="11.354419814379627"><ele>425.0</ele><time>2026-04-08T13:24:31Z</time></trkpt><trkpt lat="43.42555595063125" lon="11.354388274153303"><ele>421.4</ele><time>2026-04-08T13:24:32Z</time></trkpt><trkpt lat="43.4256258549528" lon="11.354318739844711"><ele>417.8</ele><time>2026-04-08T13:24:33Z</time></trkpt><trkpt lat="43.425685301280986" lon="11.354214171338857"><ele>414.20000000000005</ele><time>2026-04-08T13:24:34Z</time></trkpt><trkpt lat="43.42573153309966" lon="11.354079224417"><ele>410.6</ele><time>2026-04-08T13:24:35Z</time></trkpt><trkpt lat="43.42577759150281" lon="11.353936413557111"><ele>407.0</ele><time>2026-04-08T13:24:36Z</time></trkpt><trkpt lat="43.42580423150129" lon="11.353790609861731"><ele>405.40000000000003</ele><time>2026-04-08T13:24:37Z</time></trkpt><trkpt lat="43.42580882070561" lon="11.353647794988454"><ele>403.8</ele><time>2026-04-08T13:24:38Z</time></trkpt><trkpt lat="43.42579520933195" lon="11.353506390163055"><ele>402.2</ele><time>2026-04-08T13:24:39Z</time></trkpt><trkpt lat="43.42578062099777" lon="11.353366028426551"><ele>400.6</ele><time>2026-04-08T13:24:40Z</time></trkpt><trkpt lat="43.425771842637076" lon="11.353218927437567"><ele>399.0</ele><time>2026-04-08T13:24:41Z</time></trkpt><trkpt lat="43.42577811736053" lon="11.353080017516682"><ele>399.4</ele><time>2026-04-08T13:24:42Z</time></trkpt><trkpt lat="43.42578970854247" lon="11.352941818972182"><ele>399.79999999999995</ele><time>2026-04-08T13:24:43Z</time></trkpt><trkpt lat="43.425806985162254" lon="11.35279456598671"><ele>400.20000000000005</ele><time>2026-04-08T13:24:44Z</time></trkpt><trkpt lat="43.42582972181232" lon="11.352639819357918"><ele>400.6</ele><time>2026-04-08T13:24:45Z</time></trkpt><trkpt lat="43.425859116089214" lon="11.352499079765508"><ele>401.0</ele><time>2026-04-08T13:24:46Z</time></trkpt><trkpt lat="43.4258861458635" lon="11.352365306533265"><ele>401.0</ele><time>2026-04-08T13:24:47Z</time></trkpt><trkpt lat="43.42593040168708" lon="11.352245665327127"><ele>401.0</ele><time>2026-04-08T13:24:48Z</time></trkpt><trkpt lat="43.42599053876664" lon="11.352141764859178"><ele>401.0</ele><time>2026-04-08T13:24:49Z</time></trkpt><trkpt lat="43.42606506466711" lon="11.352057512398954"><ele>401.0</ele><time>2026-04-08T13:24:50Z</time></trkpt><trkpt lat="43.426157490678925" lon="11.3519861107612"><ele>401.0</ele><time>2026-04-08T13:24:51Z</time></trkpt><trkpt lat="43.42623601022074" lon="11.351917642769648"><ele>398.99999999999994</ele><time>2026-04-08T13:24:52Z</time></trkpt><trkpt lat="43.42631722674014" lon="11.351854014883541"><ele>397.0</ele><time>2026-04-08T13:24:54Z</time></trkpt><trkpt lat="43.42640537303719" lon="11.351750195621365"><ele>395.0</ele><time>2026-04-08T13:38:40Z</time></trkpt><trkpt lat="43.42645792695195" lon="11.351684046307337"><ele>393.0</ele><time>2026-04-08T13:38:41Z</time></trkpt><trkpt lat="43.42651566378826" lon="11.351606562670963"><ele>390.99999999999994</ele><time>2026-04-08T13:38:42Z</time></trkpt><trkpt lat="43.42656969109277" lon="11.351533801484898"><ele>389.0</ele><time>2026-04-08T13:38:43Z</time></trkpt><trkpt lat="43.4266043512473" lon="11.351451722706502"><ele>389.8333333333333</ele><time>2026-04-08T13:38:44Z</time></trkpt><trkpt lat="43.426674939686805" lon="11.35129948175903"><ele>390.66666666666663</ele><time>2026-04-08T13:38:46Z</time></trkpt><trkpt lat="43.426705227239054" lon="11.35121435266672"><ele>391.5</ele><time>2026-04-08T13:38:47Z</time></trkpt><trkpt lat="43.4267476599637" lon="11.351122407758881"><ele>392.33333333333337</ele><time>2026-04-08T13:38:48Z</time></trkpt><trkpt lat="43.42678424519385" lon="11.351034811676291"><ele>393.1666666666667</ele><time>2026-04-08T13:38:49Z</time></trkpt><trkpt lat="43.426815175020366" lon="11.350953067131332"><ele>394.0</ele><time>2026-04-08T13:38:50Z</time></trkpt><trkpt lat="43.426874078260724" lon="11.350798408383552"><ele>394.00000000000006</ele><time>2026-04-08T13:38:52Z</time></trkpt><trkpt lat="43.42693671238167" lon="11.350667021254313"><ele>394.0</ele><time>2026-04-08T13:38:54Z</time></trkpt><trkpt lat="43.426973714197345" lon="11.350593985385903"><ele>394.0</ele><time>2026-04-08T13:38:55Z</time></trkpt><trkpt lat="43.4270256097977" lon="11.350538652771055"><ele>394.0</ele><time>2026-04-08T13:38:56Z</time></trkpt><trkpt lat="43.427091912332855" lon="11.350502468894433"><ele>394.00000000000006</ele><time>2026-04-08T13:38:57Z</time></trkpt><trkpt lat="43.42715758470363" lon="11.350471259734668"><ele>394.0</ele><time>2026-04-08T13:38:58Z</time></trkpt><trkpt lat="43.427237473691385" lon="11.35044075515611"><ele>390.0</ele><time>2026-04-08T13:38:59Z</time></trkpt><trkpt lat="43.42733099314534" lon="11.350406610000459"><ele>386.0</ele><time>2026-04-08T13:39:00Z</time></trkpt><trkpt lat="43.427446777064404" lon="11.350381826616383"><ele>382.0</ele><time>2026-04-08T13:39:01Z</time></trkpt><trkpt lat="43.42756410796922" lon="11.350340983995526"><ele>378.0</ele><time>2026-04-08T13:39:02Z</time></trkpt><trkpt lat="43.427681976125456" lon="11.350292027494556"><ele>378.0</ele><time>2026-04-08T13:39:03Z</time></trkpt><trkpt lat="43.42779277819716" lon="11.35022973868755"><ele>378.0</ele><time>2026-04-08T13:39:04Z</time></trkpt><trkpt lat="43.42788022853089" lon="11.350172841255157"><ele>378.0</ele><time>2026-04-08T13:39:05Z</time></trkpt><trkpt lat="43.42797794455201" lon="11.350110884364831"><ele>378.0</ele><time>2026-04-08T13:39:06Z</time></trkpt><trkpt lat="43.42808303098" lon="11.350051394574644"><ele>378.0</ele><time>2026-04-08T13:39:07Z</time></trkpt><trkpt lat="43.42817425423664" lon="11.35002395767663"><ele>377.79999999999995</ele><time>2026-04-08T13:39:08Z</time></trkpt><trkpt lat="43.42826401777183" lon="11.350021110993932"><ele>377.6</ele><time>2026-04-08T13:39:09Z</time></trkpt><trkpt lat="43.428365607823" lon="11.350030379991264"><ele>377.4</ele><time>2026-04-08T13:39:10Z</time></trkpt><trkpt lat="43.428468974658124" lon="11.350056819696631"><ele>377.20000000000005</ele><time>2026-04-08T13:39:11Z</time></trkpt><trkpt lat="43.4285647026761" lon="11.350094479071426"><ele>377.0</ele><time>2026-04-08T13:39:12Z</time></trkpt><trkpt lat="43.428656737817725" lon="11.350170057162332"><ele>377.0</ele><time>2026-04-08T13:39:13Z</time></trkpt><trkpt lat="43.42874451657534" lon="11.350256059235415"><ele>377.0</ele><time>2026-04-08T13:39:14Z</time></trkpt><trkpt lat="43.42885229732294" lon="11.350344662427235"><ele>377.0</ele><time>2026-04-08T13:39:15Z</time></trkpt><trkpt lat="43.42896962678456" lon="11.350423346518292"><ele>377.0</ele><time>2026-04-08T13:39:16Z</time></trkpt><trkpt lat="43.42906243616238" lon="11.350506946551981"><ele>376.33333333333337</ele><time>2026-04-08T13:39:17Z</time></trkpt><trkpt lat="43.429144653555596" lon="11.350547937611145"><ele>375.6666666666667</ele><time>2026-04-08T13:39:18Z</time></trkpt><trkpt lat="43.42921908123213" lon="11.350600392545449"><ele>375.0</ele><time>2026-04-08T13:39:19Z</time></trkpt><trkpt lat="43.4292975468176" lon="11.350654915999236"><ele>374.3333333333333</ele><time>2026-04-08T13:39:20Z</time></trkpt><trkpt lat="43.42938004914421" lon="11.350710702004578"><ele>373.66666666666663</ele><time>2026-04-08T13:39:21Z</time></trkpt><trkpt lat="43.42946452793914" lon="11.350770987647676"><ele>373.0</ele><time>2026-04-08T13:39:22Z</time></trkpt><trkpt lat="43.42954655643594" lon="11.350830420027155"><ele>373.0</ele><time>2026-04-08T13:39:23Z</time></trkpt><trkpt lat="43.42961906206604" lon="11.350875298473346"><ele>373.0</ele><time>2026-04-08T13:39:24Z</time></trkpt><trkpt lat="43.42969579618961" lon="11.350919586575952"><ele>373.0</ele><time>2026-04-08T13:39:25Z</time></trkpt><trkpt lat="43.429793985536136" lon="11.350909523251227"><ele>373.0</ele><time>2026-04-08T13:39:26Z</time></trkpt><trkpt lat="43.42988527585615" lon="11.350904805661504"><ele>373.0</ele><time>2026-04-08T13:39:27Z</time></trkpt><trkpt lat="43.429967191486305" lon="11.350877597288878"><ele>373.0</ele><time>2026-04-08T13:39:28Z</time></trkpt><trkpt lat="43.43005596554066" lon="11.35086173822454"><ele>374.2</ele><time>2026-04-08T13:39:29Z</time></trkpt><trkpt lat="43.430147688449814" lon="11.350856084418265"><ele>375.4</ele><time>2026-04-08T13:39:30Z</time></trkpt><trkpt lat="43.43023943386946" lon="11.350861402322021"><ele>376.59999999999997</ele><time>2026-04-08T13:39:31Z</time></trkpt><trkpt lat="43.43033950524585" lon="11.35086116171786"><ele>377.79999999999995</ele><time>2026-04-08T13:39:32Z</time></trkpt><trkpt lat="43.43045053761049" lon="11.350871111372227"><ele>379.0</ele><time>2026-04-08T13:39:33Z</time></trkpt><trkpt lat="43.43055495879841" lon="11.350889917089786"><ele>379.6</ele><time>2026-04-08T13:39:34Z</time></trkpt><trkpt lat="43.43063889441527" lon="11.350908255093044"><ele>380.2</ele><time>2026-04-08T13:39:35Z</time></trkpt><trkpt lat="43.43072355704649" lon="11.35093122415661"><ele>380.8</ele><time>2026-04-08T13:39:36Z</time></trkpt><trkpt lat="43.43081446378652" lon="11.350937599014978"><ele>381.40000000000003</ele><time>2026-04-08T13:39:37Z</time></trkpt><trkpt lat="43.430909491609036" lon="11.350917968840738"><ele>382.0</ele><time>2026-04-08T13:39:38Z</time></trkpt><trkpt lat="43.43100357956198" lon="11.350881349099337"><ele>382.0</ele><time>2026-04-08T13:39:39Z</time></trkpt><trkpt lat="43.43109471902997" lon="11.350822313141675"><ele>382.0</ele><time>2026-04-08T13:39:40Z</time></trkpt><trkpt lat="43.43118178775814" lon="11.350754609531059"><ele>382.0</ele><time>2026-04-08T13:39:41Z</time></trkpt><trkpt lat="43.43125979450955" lon="11.350704185266224"><ele>382.0</ele><time>2026-04-08T13:39:42Z</time></trkpt><trkpt lat="43.43132841085743" lon="11.350672608732195"><ele>382.0</ele><time>2026-04-08T13:39:43Z</time></trkpt><trkpt lat="43.43139196038025" lon="11.350675127750534"><ele>382.0</ele><time>2026-04-08T13:39:44Z</time></trkpt><trkpt lat="43.43148440102233" lon="11.350745332141434"><ele>384.3333333333333</ele><time>2026-04-08T13:39:46Z</time></trkpt><trkpt lat="43.431567498269665" lon="11.35087882249477"><ele>386.66666666666663</ele><time>2026-04-08T13:39:48Z</time></trkpt><trkpt lat="43.43161308046661" lon="11.350958848801087"><ele>389.0</ele><time>2026-04-08T13:39:49Z</time></trkpt><trkpt lat="43.43167593044096" lon="11.351056374249339"><ele>391.3333333333333</ele><time>2026-04-08T13:39:50Z</time></trkpt><trkpt lat="43.43173537099619" lon="11.351128491578109"><ele>393.6666666666667</ele><time>2026-04-08T13:39:51Z</time></trkpt><trkpt lat="43.43178705230738" lon="11.35117877127622"><ele>396.0</ele><time>2026-04-08T13:39:52Z</time></trkpt><trkpt lat="43.431832604434845" lon="11.3512410661099"><ele>396.0</ele><time>2026-04-08T13:39:53Z</time></trkpt><trkpt lat="43.43189639732497" lon="11.351291316358383"><ele>396.0</ele><time>2026-04-08T13:39:54Z</time></trkpt><trkpt lat="43.43198735050539" lon="11.351354065929543"><ele>396.0</ele><time>2026-04-08T13:39:56Z</time></trkpt><trkpt lat="43.43205882647137" lon="11.351357666675609"><ele>396.0</ele><time>2026-04-08T13:39:57Z</time></trkpt><trkpt lat="43.4321400768313" lon="11.351374457842933"><ele>396.0</ele><time>2026-04-08T13:39:58Z</time></trkpt><trkpt lat="43.43223376803794" lon="11.35138279456705"><ele>396.0</ele><time>2026-04-08T13:39:59Z</time></trkpt><trkpt lat="43.43231782017499" lon="11.351391209604023"><ele>395.0</ele><time>2026-04-08T13:40:00Z</time></trkpt><trkpt lat="43.432405383141436" lon="11.351409273833047"><ele>394.0</ele><time>2026-04-08T13:40:01Z</time></trkpt><trkpt lat="43.432491138361684" lon="11.351409474057263"><ele>393.0</ele><time>2026-04-08T13:40:02Z</time></trkpt><trkpt lat="43.43256689468332" lon="11.351420449365703"><ele>392.0</ele><time>2026-04-08T13:40:03Z</time></trkpt><trkpt lat="43.43264405015278" lon="11.35142659810114"><ele>391.0</ele><time>2026-04-08T13:40:04Z</time></trkpt><trkpt lat="43.432707553243105" lon="11.351414931053446"><ele>390.0</ele><time>2026-04-08T13:40:05Z</time></trkpt><trkpt lat="43.432788293085615" lon="11.351383021969736"><ele>391.4</ele><time>2026-04-08T13:40:06Z</time></trkpt><trkpt lat="43.43287002901564" lon="11.351329470725151"><ele>392.8</ele><time>2026-04-08T13:40:07Z</time></trkpt><trkpt lat="43.43294295639143" lon="11.351273669852638"><ele>394.20000000000005</ele><time>2026-04-08T13:40:07.999Z</time></trkpt><trkpt lat="43.433019857635905" lon="11.351212603735451"><ele>395.6</ele><time>2026-04-08T13:40:08.999Z</time></trkpt><trkpt lat="43.43311274035495" lon="11.35114202047533"><ele>397.0</ele><time>2026-04-08T13:40:09.999Z</time></trkpt><trkpt lat="43.43320899871918" lon="11.35106053311568"><ele>393.8</ele><time>2026-04-08T13:40:10.999Z</time></trkpt><trkpt lat="43.43331805903788" lon="11.35097247643916"><ele>390.6</ele><time>2026-04-08T13:40:11.999Z</time></trkpt><trkpt lat="43.4334135056077" lon="11.350881489411755"><ele>387.40000000000003</ele><time>2026-04-08T13:40:12.999Z</time></trkpt><trkpt lat="43.43350039106147" lon="11.350799355320227"><ele>384.20000000000005</ele><time>2026-04-08T13:40:13.999Z</time></trkpt><trkpt lat="43.43357720366243" lon="11.350720350992368"><ele>381.0</ele><time>2026-04-08T13:40:14.999Z</time></trkpt><trkpt lat="43.43365846389804" lon="11.35062702529288"><ele>381.20000000000005</ele><time>2026-04-08T13:40:15.999Z</time></trkpt><trkpt lat="43.43374907278946" lon="11.350523683511131"><ele>381.40000000000003</ele><time>2026-04-08T13:40:16.999Z</time></trkpt><trkpt lat="43.43383519780514" lon="11.350424886700155"><ele>381.6</ele><time>2026-04-08T13:40:17.999Z</time></trkpt><trkpt lat="43.433908134308844" lon="11.350331006013459"><ele>381.8</ele><time>2026-04-08T13:40:18.999Z</time></trkpt><trkpt lat="43.433981200229745" lon="11.350245840317209"><ele>382.0</ele><time>2026-04-08T13:40:19.999Z</time></trkpt><trkpt lat="43.43406465932592" lon="11.350148743422723"><ele>382.0</ele><time>2026-04-08T13:40:20.999Z</time></trkpt><trkpt lat="43.43414618327282" lon="11.350049190768635"><ele>382.0</ele><time>2026-04-08T13:40:21.999Z</time></trkpt><trkpt lat="43.43420840164629" lon="11.349970788041789"><ele>382.0</ele><time>2026-04-08T13:40:22.999Z</time></trkpt><trkpt lat="43.43427153988391" lon="11.349894222682124"><ele>382.0</ele><time>2026-04-08T13:40:23.999Z</time></trkpt><trkpt lat="43.434314545986226" lon="11.349816137094617"><ele>382.0</ele><time>2026-04-08T13:40:24.999Z</time></trkpt><trkpt lat="43.434362468980346" lon="11.349719662062862"><ele>382.0</ele><time>2026-04-08T13:40:25.999Z</time></trkpt><trkpt lat="43.43440987788726" lon="11.349589210092743"><ele>384.0</ele><time>2026-04-08T13:40:26.999Z</time></trkpt><trkpt lat="43.43446029684235" lon="11.349441131324209"><ele>386.0</ele><time>2026-04-08T13:40:27.999Z</time></trkpt><trkpt lat="43.43450980251782" lon="11.349307868750126"><ele>388.0</ele><time>2026-04-08T13:40:28.999Z</time></trkpt><trkpt lat="43.43455368325224" lon="11.349178694229131"><ele>390.0</ele><time>2026-04-08T13:40:29.999Z</time></trkpt><trkpt lat="43.434593377700104" lon="11.349052245226238"><ele>392.0</ele><time>2026-04-08T13:40:30.999Z</time></trkpt><trkpt lat="43.4346282929367" lon="11.348947700611271"><ele>390.66666666666663</ele><time>2026-04-08T13:40:31.999Z</time></trkpt><trkpt lat="43.434661951671735" lon="11.348855734732156"><ele>389.3333333333333</ele><time>2026-04-08T13:40:32.999Z</time></trkpt><trkpt lat="43.43472133303151" lon="11.348797895818555"><ele>388.0</ele><time>2026-04-08T13:40:33.999Z</time></trkpt><trkpt lat="43.434797568109836" lon="11.348743818433203"><ele>386.66666666666663</ele><time>2026-04-08T13:40:34.999Z</time></trkpt><trkpt lat="43.43487943759186" lon="11.34872858022739"><ele>385.3333333333333</ele><time>2026-04-08T13:40:35.999Z</time></trkpt><trkpt lat="43.434966313909214" lon="11.34874106656471"><ele>384.0</ele><time>2026-04-08T13:40:36.999Z</time></trkpt><trkpt lat="43.4350611715833" lon="11.348776933658558"><ele>384.0</ele><time>2026-04-08T13:40:37.999Z</time></trkpt><trkpt lat="43.43512970499038" lon="11.3488162375729"><ele>384.0</ele><time>2026-04-08T13:40:38.999Z</time></trkpt><trkpt lat="43.43521714910551" lon="11.348833280963262"><ele>384.0</ele><time>2026-04-08T13:40:39.999Z</time></trkpt><trkpt lat="43.43530793114071" lon="11.348816367311942"><ele>384.0</ele><time>2026-04-08T13:40:41Z</time></trkpt><trkpt lat="43.43541423803777" lon="11.348791141593477"><ele>384.0</ele><time>2026-04-08T13:40:42Z</time></trkpt><trkpt lat="43.43553008925074" lon="11.348749347915655"><ele>383.79999999999995</ele><time>2026-04-08T13:40:43Z</time></trkpt><trkpt lat="43.43563211096989" lon="11.348718446178317"><ele>383.59999999999997</ele><time>2026-04-08T13:40:44Z</time></trkpt><trkpt lat="43.4357179686015" lon="11.348684467548496"><ele>383.4</ele><time>2026-04-08T13:40:45Z</time></trkpt><trkpt lat="43.43581632954808" lon="11.348679068174242"><ele>383.2</ele><time>2026-04-08T13:40:46Z</time></trkpt><trkpt lat="43.43592090911359" lon="11.348700246537549"><ele>383.0</ele><time>2026-04-08T13:40:47Z</time></trkpt><trkpt lat="43.43601075309358" lon="11.348739359392011"><ele>383.0</ele><time>2026-04-08T13:40:48Z</time></trkpt><trkpt lat="43.436088554502454" lon="11.34879737495581"><ele>383.0</ele><time>2026-04-08T13:40:49Z</time></trkpt><trkpt lat="43.43617924203264" lon="11.348861473820998"><ele>383.0</ele><time>2026-04-08T13:40:50Z</time></trkpt><trkpt lat="43.436267068991704" lon="11.348933290894875"><ele>383.0</ele><time>2026-04-08T13:40:51Z</time></trkpt><trkpt lat="43.43636513568833" lon="11.349010200008903"><ele>383.0</ele><time>2026-04-08T13:40:52Z</time></trkpt><trkpt lat="43.43645371309333" lon="11.349087404211645"><ele>381.33333333333337</ele><time>2026-04-08T13:40:53Z</time></trkpt><trkpt lat="43.436529888442124" lon="11.349170475989952"><ele>379.6666666666667</ele><time>2026-04-08T13:40:54Z</time></trkpt><trkpt lat="43.43660173250764" lon="11.349236668023046"><ele>378.0</ele><time>2026-04-08T13:40:55Z</time></trkpt><trkpt lat="43.43666050162253" lon="11.349298696154442"><ele>376.3333333333333</ele><time>2026-04-08T13:40:56Z</time></trkpt><trkpt lat="43.43672472638737" lon="11.349357963211835"><ele>374.66666666666663</ele><time>2026-04-08T13:40:57Z</time></trkpt><trkpt lat="43.43678586185393" lon="11.349386810978768"><ele>373.0</ele><time>2026-04-08T13:40:58Z</time></trkpt><trkpt lat="43.43685597815514" lon="11.349396924557464"><ele>373.0</ele><time>2026-04-08T13:40:59Z</time></trkpt><trkpt lat="43.43693963437166" lon="11.349390082821868"><ele>373.0</ele><time>2026-04-08T13:41:00Z</time></trkpt><trkpt lat="43.4370064253074" lon="11.349361377821936"><ele>373.0</ele><time>2026-04-08T13:41:01Z</time></trkpt><trkpt lat="43.43706780980191" lon="11.349310565281076"><ele>373.0</ele><time>2026-04-08T13:41:02Z</time></trkpt><trkpt lat="43.437113789968336" lon="11.349242719810155"><ele>373.0</ele><time>2026-04-08T13:41:03Z</time></trkpt><trkpt lat="43.437157278047145" lon="11.349165481785477"><ele>373.0</ele><time>2026-04-08T13:41:04Z</time></trkpt><trkpt lat="43.43718347831776" lon="11.349069637606972"><ele>373.0</ele><time>2026-04-08T13:41:05Z</time></trkpt><trkpt lat="43.437215393463376" lon="11.348957253515687"><ele>373.66666666666663</ele><time>2026-04-08T13:41:06Z</time></trkpt><trkpt lat="43.4372516640893" lon="11.348829566171153"><ele>374.3333333333333</ele><time>2026-04-08T13:41:07Z</time></trkpt><trkpt lat="43.437282639366664" lon="11.348695816144009"><ele>375.0</ele><time>2026-04-08T13:41:08Z</time></trkpt><trkpt lat="43.43731636226271" lon="11.348590068984402"><ele>375.6666666666667</ele><time>2026-04-08T13:41:09Z</time></trkpt><trkpt lat="43.437357352615514" lon="11.348506575945416"><ele>376.33333333333337</ele><time>2026-04-08T13:41:10Z</time></trkpt><trkpt lat="43.43741825989758" lon="11.348417679901663"><ele>377.0</ele><time>2026-04-08T13:41:11Z</time></trkpt><trkpt lat="43.43750685011555" lon="11.348359693931721"><ele>377.0</ele><time>2026-04-08T13:41:12Z</time></trkpt><trkpt lat="43.43760950243549" lon="11.348348350649951"><ele>377.0</ele><time>2026-04-08T13:41:13Z</time></trkpt><trkpt lat="43.43770650685455" lon="11.34838321115347"><ele>377.0</ele><time>2026-04-08T13:41:14Z</time></trkpt><trkpt lat="43.437797353073734" lon="11.348451664391689"><ele>377.0</ele><time>2026-04-08T13:41:15Z</time></trkpt><trkpt lat="43.437862334499414" lon="11.348576592816904"><ele>377.0</ele><time>2026-04-08T13:41:16Z</time></trkpt><trkpt lat="43.437920407092406" lon="11.34872664608324"><ele>375.0</ele><time>2026-04-08T13:41:17Z</time></trkpt><trkpt lat="43.43795877533036" lon="11.348919068803566"><ele>373.0</ele><time>2026-04-08T13:41:18Z</time></trkpt><trkpt lat="43.43799951527721" lon="11.349143748728698"><ele>371.0</ele><time>2026-04-08T13:41:19Z</time></trkpt><trkpt lat="43.43804434615052" lon="11.349321698977135"><ele>372.0</ele><time>2026-04-08T13:41:20Z</time></trkpt><trkpt lat="43.438101124315686" lon="11.349463654947582"><ele>373.0</ele><time>2026-04-08T13:41:21Z</time></trkpt><trkpt lat="43.438176103645716" lon="11.349591398792358"><ele>374.0</ele><time>2026-04-08T13:41:22Z</time></trkpt><trkpt lat="43.43827641725849" lon="11.34972842090358"><ele>375.0</ele><time>2026-04-08T13:41:23Z</time></trkpt><trkpt lat="43.438375358932376" lon="11.349814824415455"><ele>375.0</ele><time>2026-04-08T13:41:24Z</time></trkpt><trkpt lat="43.4384702975191" lon="11.349874462084077"><ele>375.0</ele><time>2026-04-08T13:41:25Z</time></trkpt><trkpt lat="43.438562621187664" lon="11.349920314670795"><ele>375.0</ele><time>2026-04-08T13:41:26Z</time></trkpt><trkpt lat="43.43867483038607" lon="11.349971745960838"><ele>375.0</ele><time>2026-04-08T13:41:27Z</time></trkpt><trkpt lat="43.43879122197079" lon="11.35001970158555"><ele>375.0</ele><time>2026-04-08T13:41:28Z</time></trkpt><trkpt lat="43.43889332511914" lon="11.350058724903368"><ele>375.4</ele><time>2026-04-08T13:41:29Z</time></trkpt><trkpt lat="43.438981980934976" lon="11.350094798298375"><ele>375.8</ele><time>2026-04-08T13:41:30Z</time></trkpt><trkpt lat="43.43906750276152" lon="11.350129493851314"><ele>376.20000000000005</ele><time>2026-04-08T13:41:31Z</time></trkpt><trkpt lat="43.43915716397178" lon="11.35016719482598"><ele>376.6</ele><time>2026-04-08T13:41:32Z</time></trkpt><trkpt lat="43.43924665459734" lon="11.350211439400212"><ele>377.0</ele><time>2026-04-08T13:41:33Z</time></trkpt><trkpt lat="43.43933799695694" lon="11.350255270851054"><ele>377.0</ele><time>2026-04-08T13:41:34Z</time></trkpt><trkpt lat="43.439427537209866" lon="11.350294187686972"><ele>377.0</ele><time>2026-04-08T13:41:35Z</time></trkpt><trkpt lat="43.43950939425076" lon="11.350320949584553"><ele>377.0</ele><time>2026-04-08T13:41:36Z</time></trkpt><trkpt lat="43.43959449408394" lon="11.350359902771189"><ele>377.0</ele><time>2026-04-08T13:41:37Z</time></trkpt><trkpt lat="43.43969452498418" lon="11.350408167817566"><ele>377.0</ele><time>2026-04-08T13:41:38Z</time></trkpt><trkpt lat="43.439785419327166" lon="11.350464981015444"><ele>376.8</ele><time>2026-04-08T13:41:39Z</time></trkpt><trkpt lat="43.43989481580397" lon="11.350534211592391"><ele>376.6</ele><time>2026-04-08T13:41:40Z</time></trkpt><trkpt lat="43.43998093360956" lon="11.350594378702825"><ele>376.40000000000003</ele><time>2026-04-08T13:41:41Z</time></trkpt><trkpt lat="43.440069651996794" lon="11.350656990873098"><ele>376.20000000000005</ele><time>2026-04-08T13:41:42Z</time></trkpt><trkpt lat="43.44013730547092" lon="11.35072926610876"><ele>376.0</ele><time>2026-04-08T13:41:43Z</time></trkpt><trkpt lat="43.44020883811389" lon="11.35082229371319"><ele>375.4</ele><time>2026-04-08T13:41:44Z</time></trkpt><trkpt lat="43.44027533918393" lon="11.35093214955675"><ele>374.8</ele><time>2026-04-08T13:41:45Z</time></trkpt><trkpt lat="43.440303965555664" lon="11.351070953851833"><ele>374.2</ele><time>2026-04-08T13:41:46Z</time></trkpt><trkpt lat="43.44035483436166" lon="11.35119478811626"><ele>373.59999999999997</ele><time>2026-04-08T13:41:47Z</time></trkpt><trkpt lat="43.44040083289536" lon="11.351345470503453"><ele>373.0</ele><time>2026-04-08T13:41:48Z</time></trkpt><trkpt lat="43.44044835359335" lon="11.351473032363492"><ele>373.0</ele><time>2026-04-08T13:41:49Z</time></trkpt><trkpt lat="43.440499330828516" lon="11.35158040336285"><ele>373.0</ele><time>2026-04-08T13:41:50Z</time></trkpt><trkpt lat="43.4405512522776" lon="11.351672379395996"><ele>373.0</ele><time>2026-04-08T13:41:51Z</time></trkpt><trkpt lat="43.440583823096325" lon="11.351773005068543"><ele>373.0</ele><time>2026-04-08T13:41:52Z</time></trkpt><trkpt lat="43.44055009271389" lon="11.35188562678894"><ele>373.0</ele><time>2026-04-08T13:41:53Z</time></trkpt><trkpt lat="43.44056283097632" lon="11.352013727147"><ele>373.0</ele><time>2026-04-08T13:41:54Z</time></trkpt><trkpt lat="43.440581334410815" lon="11.352151001084057"><ele>371.5</ele><time>2026-04-08T13:41:55Z</time></trkpt><trkpt lat="43.44062126871561" lon="11.352306795274375"><ele>370.0</ele><time>2026-04-08T13:41:55.999Z</time></trkpt><trkpt lat="43.44064723338484" lon="11.352473868037462"><ele>368.5</ele><time>2026-04-08T13:41:56.999Z</time></trkpt><trkpt lat="43.440675810025354" lon="11.352645918508241"><ele>367.0</ele><time>2026-04-08T13:41:57.999Z</time></trkpt><trkpt lat="43.44069041503671" lon="11.352835153821934"><ele>367.0</ele><time>2026-04-08T13:41:58.999Z</time></trkpt><trkpt lat="43.44072688133647" lon="11.353030970700265"><ele>367.0</ele><time>2026-04-08T13:41:59.999Z</time></trkpt><trkpt lat="43.4407431226244" lon="11.353203496380887"><ele>367.0</ele><time>2026-04-08T13:42:00.999Z</time></trkpt><trkpt lat="43.44075815551685" lon="11.353345387468186"><ele>367.0</ele><time>2026-04-08T13:42:01.999Z</time></trkpt><trkpt lat="43.44076979775588" lon="11.353488395231022"><ele>365.8</ele><time>2026-04-08T13:42:02.999Z</time></trkpt><trkpt lat="43.440786551998876" lon="11.353637451588796"><ele>364.6</ele><time>2026-04-08T13:42:03.999Z</time></trkpt><trkpt lat="43.440799465166855" lon="11.353762230071194"><ele>363.40000000000003</ele><time>2026-04-08T13:42:04.999Z</time></trkpt><trkpt lat="43.440811589726515" lon="11.353896508415062"><ele>362.20000000000005</ele><time>2026-04-08T13:42:05.999Z</time></trkpt><trkpt lat="43.440826443049424" lon="11.354032304498118"><ele>361.0</ele><time>2026-04-08T13:42:06.999Z</time></trkpt><trkpt lat="43.44085433831849" lon="11.354174420582217"><ele>359.5</ele><time>2026-04-08T13:42:07.999Z</time></trkpt><trkpt lat="43.44088533474184" lon="11.35432414978969"><ele>358.0</ele><time>2026-04-08T13:42:08.999Z</time></trkpt><trkpt lat="43.440916007914836" lon="11.354485286911554"><ele>356.5</ele><time>2026-04-08T13:42:09.999Z</time></trkpt><trkpt lat="43.4409519272182" lon="11.354639855393158"><ele>355.0</ele><time>2026-04-08T13:42:10.999Z</time></trkpt><trkpt lat="43.44098410211232" lon="11.354785032553856"><ele>354.66666666666663</ele><time>2026-04-08T13:42:11.999Z</time></trkpt><trkpt lat="43.441005566337594" lon="11.354904953965617"><ele>354.3333333333333</ele><time>2026-04-08T13:42:12.999Z</time></trkpt><trkpt lat="43.44102264189634" lon="11.355029929416727"><ele>354.0</ele><time>2026-04-08T13:42:13.999Z</time></trkpt><trkpt lat="43.441035437307775" lon="11.35513886464129"><ele>353.6666666666667</ele><time>2026-04-08T13:42:14.999Z</time></trkpt><trkpt lat="43.44104471886327" lon="11.355245076742914"><ele>353.33333333333337</ele><time>2026-04-08T13:42:15.999Z</time></trkpt><trkpt lat="43.44104769394808" lon="11.355338119971877"><ele>353.0</ele><time>2026-04-08T13:42:16.999Z</time></trkpt><trkpt lat="43.441039471009475" lon="11.355488895333506"><ele>352.83333333333337</ele><time>2026-04-08T13:42:18.999Z</time></trkpt><trkpt lat="43.44099046614525" lon="11.35557913826571"><ele>352.6666666666667</ele><time>2026-04-08T13:42:20.999Z</time></trkpt><trkpt lat="43.44097723685932" lon="11.35568431056514"><ele>352.5</ele><time>2026-04-08T13:42:22.999Z</time></trkpt><trkpt lat="43.44098026910181" lon="11.355774068570602"><ele>352.3333333333333</ele><time>2026-04-08T13:42:24.999Z</time></trkpt><trkpt lat="43.44103412443316" lon="11.355843560758021"><ele>352.16666666666663</ele><time>2026-04-08T13:42:26.999Z</time></trkpt><trkpt lat="43.441122212957545" lon="11.35586367669903"><ele>352.0</ele><time>2026-04-08T13:42:28.999Z</time></trkpt><trkpt lat="43.44122970276269" lon="11.35583058781819"><ele>352.6</ele><time>2026-04-08T13:42:30.999Z</time></trkpt><trkpt lat="43.441330715314805" lon="11.35575404721259"><ele>353.20000000000005</ele><time>2026-04-08T13:42:32.999Z</time></trkpt><trkpt lat="43.44141436407095" lon="11.355663768311658"><ele>353.8</ele><time>2026-04-08T13:42:34.999Z</time></trkpt><trkpt lat="43.441479622754095" lon="11.355531995191436"><ele>354.4</ele><time>2026-04-08T13:42:36.999Z</time></trkpt><trkpt lat="43.44151896391817" lon="11.35546332489102"><ele>355.0</ele><time>2026-04-08T13:42:37.999Z</time></trkpt><trkpt lat="43.441595761839224" lon="11.355365415502888"><ele>355.0</ele><time>2026-04-08T13:42:39.999Z</time></trkpt><trkpt lat="43.44173199023386" lon="11.355313675244885"><ele>355.0</ele><time>2026-04-08T13:42:41.999Z</time></trkpt><trkpt lat="43.44179873520473" lon="11.355309634539251"><ele>355.0</ele><time>2026-04-08T13:42:42.999Z</time></trkpt><trkpt lat="43.44186549739954" lon="11.355305875152817"><ele>355.0</ele><time>2026-04-08T13:42:43.999Z</time></trkpt><trkpt lat="43.44193311758952" lon="11.355302454368514"><ele>355.0</ele><time>2026-04-08T13:42:44.999Z</time></trkpt><trkpt lat="43.44206144632155" lon="11.355291446705492"><ele>355.0</ele><time>2026-04-08T13:42:47Z</time></trkpt><trkpt lat="43.44212443481687" lon="11.355277381863596"><ele>355.0</ele><time>2026-04-08T13:42:48Z</time></trkpt><trkpt lat="43.442200158563075" lon="11.355252789200525"><ele>355.0</ele><time>2026-04-08T13:42:49Z</time></trkpt><trkpt lat="43.44227138006817" lon="11.355223313423302"><ele>355.0</ele><time>2026-04-08T13:42:50Z</time></trkpt><trkpt lat="43.442335207670794" lon="11.355178129001924"><ele>355.0</ele><time>2026-04-08T13:42:51Z</time></trkpt><trkpt lat="43.44242032167387" lon="11.35510810762646"><ele>355.0</ele><time>2026-04-08T13:42:52Z</time></trkpt><trkpt lat="43.442495376886114" lon="11.355039148064078"><ele>351.2</ele><time>2026-04-08T13:42:53Z</time></trkpt><trkpt lat="43.44257626128171" lon="11.3549727876115"><ele>347.4</ele><time>2026-04-08T13:42:54Z</time></trkpt><trkpt lat="43.442645869015735" lon="11.354909672544991"><ele>343.6</ele><time>2026-04-08T13:42:55Z</time></trkpt><trkpt lat="43.442719857013195" lon="11.354851212229407"><ele>339.8</ele><time>2026-04-08T13:42:56Z</time></trkpt><trkpt lat="43.44280488966524" lon="11.354781673643789"><ele>336.0</ele><time>2026-04-08T13:42:57Z</time></trkpt><trkpt lat="43.4428884562204" lon="11.354732947374503"><ele>335.6</ele><time>2026-04-08T13:42:58Z</time></trkpt><trkpt lat="43.44296836480222" lon="11.354694347932217"><ele>335.20000000000005</ele><time>2026-04-08T13:42:59Z</time></trkpt><trkpt lat="43.44305137674477" lon="11.354652443189705"><ele>334.79999999999995</ele><time>2026-04-08T13:43:00Z</time></trkpt><trkpt lat="43.44315032861885" lon="11.3545921606277"><ele>334.4</ele><time>2026-04-08T13:43:01Z</time></trkpt><trkpt lat="43.44325271444598" lon="11.354526501832636"><ele>334.0</ele><time>2026-04-08T13:43:02Z</time></trkpt><trkpt lat="43.443361623637344" lon="11.35445046269829"><ele>334.0</ele><time>2026-04-08T13:43:03Z</time></trkpt><trkpt lat="43.44347393939373" lon="11.354376862943859"><ele>334.0</ele><time>2026-04-08T13:43:04Z</time></trkpt><trkpt lat="43.44357441557471" lon="11.354316364020077"><ele>334.0</ele><time>2026-04-08T13:43:05Z</time></trkpt><trkpt lat="43.44367216874852" lon="11.354249706551721"><ele>334.0</ele><time>2026-04-08T13:43:06Z</time></trkpt><trkpt lat="43.44376702001664" lon="11.354193956786862"><ele>334.0</ele><time>2026-04-08T13:43:07Z</time></trkpt><trkpt lat="43.44385856831704" lon="11.354140256284216"><ele>332.0</ele><time>2026-04-08T13:43:08Z</time></trkpt><trkpt lat="43.44396213725409" lon="11.354073610841535"><ele>330.0</ele><time>2026-04-08T13:43:09Z</time></trkpt><trkpt lat="43.44407313980106" lon="11.354002723181248"><ele>328.0</ele><time>2026-04-08T13:43:10Z</time></trkpt><trkpt lat="43.444168360704055" lon="11.353954169780627"><ele>326.0</ele><time>2026-04-08T13:43:11Z</time></trkpt><trkpt lat="43.44426059520887" lon="11.353918618142835"><ele>324.0</ele><time>2026-04-08T13:43:12Z</time></trkpt><trkpt lat="43.44436560935233" lon="11.353881199902348"><ele>324.6</ele><time>2026-04-08T13:43:13Z</time></trkpt><trkpt lat="43.444470173588925" lon="11.35384746777056"><ele>325.2</ele><time>2026-04-08T13:43:14Z</time></trkpt><trkpt lat="43.44456704338204" lon="11.35382161281391"><ele>325.8</ele><time>2026-04-08T13:43:15Z</time></trkpt><trkpt lat="43.44465288482378" lon="11.353790832558252"><ele>326.40000000000003</ele><time>2026-04-08T13:43:16Z</time></trkpt><trkpt lat="43.444726489161106" lon="11.353766663255017"><ele>327.0</ele><time>2026-04-08T13:43:17Z</time></trkpt><trkpt lat="43.44483509623568" lon="11.353768599109486"><ele>327.0</ele><time>2026-04-08T13:43:19Z</time></trkpt><trkpt lat="43.444905199765365" lon="11.353826940704815"><ele>327.0</ele><time>2026-04-08T13:43:21Z</time></trkpt><trkpt lat="43.44492627373894" lon="11.35391606808708"><ele>327.0</ele><time>2026-04-08T13:43:23Z</time></trkpt><trkpt lat="43.44491788645111" lon="11.354070480151172"><ele>327.0</ele><time>2026-04-08T13:43:25Z</time></trkpt><trkpt lat="43.44493952116923" lon="11.354162993552714"><ele>327.0</ele><time>2026-04-08T13:43:26Z</time></trkpt><trkpt lat="43.44494977877984" lon="11.35427979503509"><ele>327.0</ele><time>2026-04-08T13:43:27Z</time></trkpt><trkpt lat="43.44495484567086" lon="11.35438133026653"><ele>327.1666666666667</ele><time>2026-04-08T13:43:28Z</time></trkpt><trkpt lat="43.4449832198276" lon="11.35447499944481"><ele>327.3333333333333</ele><time>2026-04-08T13:43:29Z</time></trkpt><trkpt lat="43.44502280308898" lon="11.354567387510926"><ele>327.5</ele><time>2026-04-08T13:43:30Z</time></trkpt><trkpt lat="43.44508709282472" lon="11.354644833284707"><ele>327.66666666666663</ele><time>2026-04-08T13:43:31Z</time></trkpt><trkpt lat="43.44514473131974" lon="11.35473741053727"><ele>327.8333333333333</ele><time>2026-04-08T13:43:32Z</time></trkpt><trkpt lat="43.44521125014299" lon="11.354817091969316"><ele>328.0</ele><time>2026-04-08T13:43:33Z</time></trkpt><trkpt lat="43.44528619556391" lon="11.354893668535885"><ele>327.5</ele><time>2026-04-08T13:43:34Z</time></trkpt><trkpt lat="43.44537422360188" lon="11.354972698551165"><ele>327.0</ele><time>2026-04-08T13:43:35Z</time></trkpt><trkpt lat="43.44546255573742" lon="11.355069181440946"><ele>326.5</ele><time>2026-04-08T13:43:36Z</time></trkpt><trkpt lat="43.445579062255604" lon="11.355115040912855"><ele>326.0</ele><time>2026-04-08T13:43:37Z</time></trkpt><trkpt lat="43.44569873402385" lon="11.35516919344515"><ele>327.20000000000005</ele><time>2026-04-08T13:43:38Z</time></trkpt><trkpt lat="43.4458066199256" lon="11.355197081110987"><ele>328.40000000000003</ele><time>2026-04-08T13:43:39Z</time></trkpt><trkpt lat="43.44591047976323" lon="11.355214489061892"><ele>329.6</ele><time>2026-04-08T13:43:40Z</time></trkpt><trkpt lat="43.446019796773825" lon="11.355214110012092"><ele>330.8</ele><time>2026-04-08T13:43:41Z</time></trkpt><trkpt lat="43.446136845602915" lon="11.355221544551494"><ele>332.0</ele><time>2026-04-08T13:43:42Z</time></trkpt><trkpt lat="43.44626679063877" lon="11.355242457389004"><ele>333.25</ele><time>2026-04-08T13:43:43Z</time></trkpt><trkpt lat="43.44641315421244" lon="11.35526109826516"><ele>334.5</ele><time>2026-04-08T13:43:44Z</time></trkpt><trkpt lat="43.446532723186" lon="11.355281708155454"><ele>335.75</ele><time>2026-04-08T13:43:45Z</time></trkpt><trkpt lat="43.44664019383723" lon="11.355302786637173"><ele>337.0</ele><time>2026-04-08T13:43:46Z</time></trkpt><trkpt lat="43.44673824213434" lon="11.35532694713888"><ele>337.0</ele><time>2026-04-08T13:43:47Z</time></trkpt><trkpt lat="43.4468563127435" lon="11.355349164189098"><ele>337.0</ele><time>2026-04-08T13:43:48Z</time></trkpt><trkpt lat="43.44698425042445" lon="11.355375227773937"><ele>337.0</ele><time>2026-04-08T13:43:49Z</time></trkpt><trkpt lat="43.44709536386635" lon="11.35539584348072"><ele>337.0</ele><time>2026-04-08T13:43:50Z</time></trkpt><trkpt lat="43.44719550925712" lon="11.35541740184417"><ele>336.0</ele><time>2026-04-08T13:43:51Z</time></trkpt><trkpt lat="43.44728160707527" lon="11.35543710260944"><ele>335.0</ele><time>2026-04-08T13:43:51.999Z</time></trkpt><trkpt lat="43.44735345673954" lon="11.355461256872712"><ele>334.0</ele><time>2026-04-08T13:43:52.999Z</time></trkpt><trkpt lat="43.447441601188586" lon="11.355487850662099"><ele>333.0</ele><time>2026-04-08T13:43:53.999Z</time></trkpt><trkpt lat="43.44752663913227" lon="11.355525365212788"><ele>332.0</ele><time>2026-04-08T13:43:54.999Z</time></trkpt><trkpt lat="43.447618754873446" lon="11.355561736145408"><ele>331.0</ele><time>2026-04-08T13:43:55.999Z</time></trkpt><trkpt lat="43.44771677979677" lon="11.35561752525685"><ele>331.0</ele><time>2026-04-08T13:43:56.999Z</time></trkpt><trkpt lat="43.44780069093906" lon="11.355670068380721"><ele>331.0</ele><time>2026-04-08T13:43:57.999Z</time></trkpt><trkpt lat="43.44787840956046" lon="11.355723059259969"><ele>331.0</ele><time>2026-04-08T13:43:58.999Z</time></trkpt><trkpt lat="43.44796988265904" lon="11.355779118911105"><ele>331.0</ele><time>2026-04-08T13:43:59.999Z</time></trkpt><trkpt lat="43.448073005945346" lon="11.355838616481137"><ele>331.0</ele><time>2026-04-08T13:44:00.999Z</time></trkpt><trkpt lat="43.44817413566239" lon="11.355901547191873"><ele>332.25</ele><time>2026-04-08T13:44:01.999Z</time></trkpt><trkpt lat="43.448285959217905" lon="11.355965826947152"><ele>333.5</ele><time>2026-04-08T13:44:02.999Z</time></trkpt><trkpt lat="43.44840854641361" lon="11.356037164426935"><ele>334.75</ele><time>2026-04-08T13:44:03.999Z</time></trkpt><trkpt lat="43.4485319897911" lon="11.356109325547108"><ele>336.0</ele><time>2026-04-08T13:44:04.999Z</time></trkpt><trkpt lat="43.44865612123572" lon="11.3561815522577"><ele>336.0</ele><time>2026-04-08T13:44:05.999Z</time></trkpt><trkpt lat="43.44876238891748" lon="11.356240723214947"><ele>336.0</ele><time>2026-04-08T13:44:06.999Z</time></trkpt><trkpt lat="43.448856861565446" lon="11.356300869655364"><ele>336.0</ele><time>2026-04-08T13:44:07.999Z</time></trkpt><trkpt lat="43.44894739590329" lon="11.35636405801611"><ele>336.0</ele><time>2026-04-08T13:44:08.999Z</time></trkpt><trkpt lat="43.449035594422966" lon="11.356442179982519"><ele>336.0</ele><time>2026-04-08T13:44:09.999Z</time></trkpt><trkpt lat="43.44911271636112" lon="11.356509792691508"><ele>335.3333333333333</ele><time>2026-04-08T13:44:10.999Z</time></trkpt><trkpt lat="43.44918403098125" lon="11.356574517367735"><ele>334.6666666666667</ele><time>2026-04-08T13:44:11.999Z</time></trkpt><trkpt lat="43.449259216026846" lon="11.356637068071516"><ele>334.0</ele><time>2026-04-08T13:44:12.999Z</time></trkpt><trkpt lat="43.44934300512766" lon="11.35667919615614"><ele>333.33333333333337</ele><time>2026-04-08T13:44:13.999Z</time></trkpt><trkpt lat="43.449432877763726" lon="11.356707376776145"><ele>332.6666666666667</ele><time>2026-04-08T13:44:14.999Z</time></trkpt><trkpt lat="43.44952607217022" lon="11.356723656516639"><ele>332.0</ele><time>2026-04-08T13:44:15.999Z</time></trkpt><trkpt lat="43.44960510140016" lon="11.356739590995778"><ele>333.6</ele><time>2026-04-08T13:44:16.999Z</time></trkpt><trkpt lat="43.44969699165781" lon="11.356755675256718"><ele>335.20000000000005</ele><time>2026-04-08T13:44:17.999Z</time></trkpt><trkpt lat="43.449802092919874" lon="11.356769770593239"><ele>336.8</ele><time>2026-04-08T13:44:18.999Z</time></trkpt><trkpt lat="43.449898143889484" lon="11.356775564253908"><ele>338.4</ele><time>2026-04-08T13:44:19.999Z</time></trkpt><trkpt lat="43.44997650011542" lon="11.356770290255088"><ele>340.0</ele><time>2026-04-08T13:44:20.999Z</time></trkpt><trkpt lat="43.45007471876809" lon="11.356749216334512"><ele>340.0</ele><time>2026-04-08T13:44:21.999Z</time></trkpt><trkpt lat="43.45016289016782" lon="11.356692719870232"><ele>340.0</ele><time>2026-04-08T13:44:22.999Z</time></trkpt><trkpt lat="43.45024843013934" lon="11.356615168244534"><ele>340.0</ele><time>2026-04-08T13:44:23.999Z</time></trkpt><trkpt lat="43.450336694551254" lon="11.356537388993749"><ele>340.0</ele><time>2026-04-08T13:44:24.999Z</time></trkpt><trkpt lat="43.45043360909868" lon="11.356450222304243"><ele>340.0</ele><time>2026-04-08T13:44:25.999Z</time></trkpt><trkpt lat="43.45053315488643" lon="11.356359469290952"><ele>341.4</ele><time>2026-04-08T13:44:26.999Z</time></trkpt><trkpt lat="43.45061803099415" lon="11.356269417502448"><ele>342.8</ele><time>2026-04-08T13:44:27.999Z</time></trkpt><trkpt lat="43.45068085006882" lon="11.35619693129689"><ele>344.20000000000005</ele><time>2026-04-08T13:44:28.999Z</time></trkpt><trkpt lat="43.4507455702144" lon="11.356124818052281"><ele>345.6</ele><time>2026-04-08T13:44:29.999Z</time></trkpt><trkpt lat="43.45081499472975" lon="11.356039817006833"><ele>347.0</ele><time>2026-04-08T13:44:30.999Z</time></trkpt><trkpt lat="43.45089605785921" lon="11.355947706333904"><ele>347.0</ele><time>2026-04-08T13:44:31.999Z</time></trkpt><trkpt lat="43.45097232744535" lon="11.35586146619071"><ele>347.0</ele><time>2026-04-08T13:44:32.999Z</time></trkpt><trkpt lat="43.451056254832636" lon="11.355770054413922"><ele>347.0</ele><time>2026-04-08T13:44:33.999Z</time></trkpt><trkpt lat="43.45114336684311" lon="11.355670239103949"><ele>347.0</ele><time>2026-04-08T13:44:34.999Z</time></trkpt><trkpt lat="43.45123152196759" lon="11.355595567436659"><ele>347.0</ele><time>2026-04-08T13:44:35.999Z</time></trkpt><trkpt lat="43.45134600372563" lon="11.355525195750346"><ele>347.40000000000003</ele><time>2026-04-08T13:44:36.999Z</time></trkpt><trkpt lat="43.45144510157686" lon="11.3554648002734"><ele>347.8</ele><time>2026-04-08T13:44:37.999Z</time></trkpt><trkpt lat="43.451529832090586" lon="11.355404706303354"><ele>348.2</ele><time>2026-04-08T13:44:38.999Z</time></trkpt><trkpt lat="43.45161473325041" lon="11.355350589356037"><ele>348.6</ele><time>2026-04-08T13:44:39.999Z</time></trkpt><trkpt lat="43.45170016476869" lon="11.355336679434707"><ele>349.0</ele><time>2026-04-08T13:44:40.999Z</time></trkpt><trkpt lat="43.45178783206924" lon="11.35531786664109"><ele>349.0</ele><time>2026-04-08T13:44:41.999Z</time></trkpt><trkpt lat="43.45188274460263" lon="11.355288340246613"><ele>349.0</ele><time>2026-04-08T13:44:42.999Z</time></trkpt><trkpt lat="43.45198504621866" lon="11.355271585557375"><ele>349.0</ele><time>2026-04-08T13:44:43.999Z</time></trkpt><trkpt lat="43.45207332530906" lon="11.355252453673819"><ele>349.0</ele><time>2026-04-08T13:44:44.999Z</time></trkpt><trkpt lat="43.45215890450657" lon="11.355220099054298"><ele>349.0</ele><time>2026-04-08T13:44:45.999Z</time></trkpt><trkpt lat="43.452257275831876" lon="11.355174078342158"><ele>347.6</ele><time>2026-04-08T13:44:46.999Z</time></trkpt><trkpt lat="43.45235873410552" lon="11.355127702274842"><ele>346.2</ele><time>2026-04-08T13:44:47.999Z</time></trkpt><trkpt lat="43.45245070553872" lon="11.35508183040513"><ele>344.8</ele><time>2026-04-08T13:44:48.999Z</time></trkpt><trkpt lat="43.45254032467465" lon="11.355041070609028"><ele>343.40000000000003</ele><time>2026-04-08T13:44:49.999Z</time></trkpt><trkpt lat="43.45263146942578" lon="11.354994796573308"><ele>342.0</ele><time>2026-04-08T13:44:50.999Z</time></trkpt><trkpt lat="43.45272709951868" lon="11.354935597274181"><ele>342.0</ele><time>2026-04-08T13:44:51.999Z</time></trkpt><trkpt lat="43.45282886471531" lon="11.354872888180552"><ele>342.0</ele><time>2026-04-08T13:44:53Z</time></trkpt><trkpt lat="43.45293253043761" lon="11.354804725546673"><ele>342.0</ele><time>2026-04-08T13:44:54Z</time></trkpt><trkpt lat="43.45303412382173" lon="11.354742275006325"><ele>342.0</ele><time>2026-04-08T13:44:55Z</time></trkpt><trkpt lat="43.453148061326786" lon="11.354681456558875"><ele>342.5</ele><time>2026-04-08T13:44:56Z</time></trkpt><trkpt lat="43.45326124095144" lon="11.354621508822634"><ele>343.0</ele><time>2026-04-08T13:44:57Z</time></trkpt><trkpt lat="43.453376495750085" lon="11.354562806629124"><ele>343.5</ele><time>2026-04-08T13:44:58Z</time></trkpt><trkpt lat="43.45349487224416" lon="11.3545052228136"><ele>344.0</ele><time>2026-04-08T13:44:59Z</time></trkpt><trkpt lat="43.453609809675726" lon="11.354448163691384"><ele>344.0</ele><time>2026-04-08T13:45:00Z</time></trkpt><trkpt lat="43.45371180821212" lon="11.354399639930813"><ele>344.0</ele><time>2026-04-08T13:45:01Z</time></trkpt><trkpt lat="43.4537910880274" lon="11.354353150673054"><ele>344.0</ele><time>2026-04-08T13:45:02Z</time></trkpt><trkpt lat="43.4538717895051" lon="11.35432003571652"><ele>344.0</ele><time>2026-04-08T13:45:03Z</time></trkpt><trkpt lat="43.45393613533774" lon="11.354278109296034"><ele>344.0</ele><time>2026-04-08T13:45:04Z</time></trkpt><trkpt lat="43.45400564290197" lon="11.354265919294358"><ele>344.0</ele><time>2026-04-08T13:45:05Z</time></trkpt><trkpt lat="43.454122666147406" lon="11.35430841144924"><ele>342.6666666666667</ele><time>2026-04-08T13:45:07Z</time></trkpt><trkpt lat="43.454191671991346" lon="11.354362155072069"><ele>341.33333333333337</ele><time>2026-04-08T13:45:08Z</time></trkpt><trkpt lat="43.45426595883441" lon="11.3543835633226"><ele>340.0</ele><time>2026-04-08T13:45:09Z</time></trkpt><trkpt lat="43.454345357428274" lon="11.354372484564008"><ele>338.6666666666667</ele><time>2026-04-08T13:45:10Z</time></trkpt><trkpt lat="43.45442613171557" lon="11.354343034230455"><ele>337.3333333333333</ele><time>2026-04-08T13:45:11Z</time></trkpt><trkpt lat="43.4545023712867" lon="11.354298277446741"><ele>336.0</ele><time>2026-04-08T13:45:12Z</time></trkpt><trkpt lat="43.45457597401609" lon="11.354256619968398"><ele>337.1666666666667</ele><time>2026-04-08T13:45:13Z</time></trkpt><trkpt lat="43.4546509638449" lon="11.354204073894394"><ele>338.3333333333333</ele><time>2026-04-08T13:45:14Z</time></trkpt><trkpt lat="43.45472523631999" lon="11.354156815483746"><ele>339.5</ele><time>2026-04-08T13:45:15Z</time></trkpt><trkpt lat="43.45482817823371" lon="11.354086829707306"><ele>340.66666666666663</ele><time>2026-04-08T13:45:17Z</time></trkpt><trkpt lat="43.45488990882456" lon="11.354058139709197"><ele>341.8333333333333</ele><time>2026-04-08T13:45:18Z</time></trkpt><trkpt lat="43.4549760555285" lon="11.354031571821444"><ele>343.0</ele><time>2026-04-08T13:45:19Z</time></trkpt><trkpt lat="43.455067914790774" lon="11.3540040109667"><ele>343.0</ele><time>2026-04-08T13:45:20Z</time></trkpt><trkpt lat="43.45515880797083" lon="11.353981919686987"><ele>343.0</ele><time>2026-04-08T13:45:21Z</time></trkpt><trkpt lat="43.45525236163263" lon="11.353960082495393"><ele>343.0</ele><time>2026-04-08T13:45:22Z</time></trkpt><trkpt lat="43.455326169109135" lon="11.35393551598643"><ele>343.0</ele><time>2026-04-08T13:45:23Z</time></trkpt><trkpt lat="43.45538875172021" lon="11.353922000111915"><ele>343.0</ele><time>2026-04-08T13:45:24Z</time></trkpt><trkpt lat="43.455459419039144" lon="11.353921101883651"><ele>343.0</ele><time>2026-04-08T13:45:25Z</time></trkpt><trkpt lat="43.45553138527545" lon="11.353941369485538"><ele>343.4</ele><time>2026-04-08T13:45:26Z</time></trkpt><trkpt lat="43.455620881959575" lon="11.353976655732566"><ele>343.79999999999995</ele><time>2026-04-08T13:45:27Z</time></trkpt><trkpt lat="43.45572017887485" lon="11.354011911696759"><ele>344.2</ele><time>2026-04-08T13:45:28Z</time></trkpt><trkpt lat="43.45582531590892" lon="11.354053906341727"><ele>344.6</ele><time>2026-04-08T13:45:29Z</time></trkpt><trkpt lat="43.45592222335536" lon="11.354098430795387"><ele>345.0</ele><time>2026-04-08T13:45:30Z</time></trkpt><trkpt lat="43.456013146537025" lon="11.35413214894678"><ele>345.0</ele><time>2026-04-08T13:45:31Z</time></trkpt><trkpt lat="43.45611163931448" lon="11.354161592953613"><ele>345.0</ele><time>2026-04-08T13:45:32Z</time></trkpt><trkpt lat="43.45619509629905" lon="11.354182588896462"><ele>345.0</ele><time>2026-04-08T13:45:33Z</time></trkpt><trkpt lat="43.456289883100034" lon="11.354199823169486"><ele>345.0</ele><time>2026-04-08T13:45:34Z</time></trkpt><trkpt lat="43.456388860481184" lon="11.354199569440924"><ele>345.0</ele><time>2026-04-08T13:45:35Z</time></trkpt><trkpt lat="43.45649079592161" lon="11.354208354493421"><ele>345.25</ele><time>2026-04-08T13:45:36Z</time></trkpt><trkpt lat="43.45660385563142" lon="11.354226702893412"><ele>345.5</ele><time>2026-04-08T13:45:37Z</time></trkpt><trkpt lat="43.45670857126496" lon="11.35425032434033"><ele>345.75</ele><time>2026-04-08T13:45:38Z</time></trkpt><trkpt lat="43.45682093594135" lon="11.354281602052543"><ele>346.0</ele><time>2026-04-08T13:45:39Z</time></trkpt><trkpt lat="43.45695165370962" lon="11.35430948911652"><ele>346.0</ele><time>2026-04-08T13:45:40Z</time></trkpt><trkpt lat="43.45707267275726" lon="11.35434694294562"><ele>346.0</ele><time>2026-04-08T13:45:41Z</time></trkpt><trkpt lat="43.45717651862147" lon="11.354375256489764"><ele>346.0</ele><time>2026-04-08T13:45:42Z</time></trkpt><trkpt lat="43.457271951252814" lon="11.354422548722566"><ele>346.0</ele><time>2026-04-08T13:45:43Z</time></trkpt><trkpt lat="43.45738500835964" lon="11.354495365196627"><ele>348.25</ele><time>2026-04-08T13:45:44Z</time></trkpt><trkpt lat="43.45750164524742" lon="11.3545615860882"><ele>350.5</ele><time>2026-04-08T13:45:45Z</time></trkpt><trkpt lat="43.457625600379785" lon="11.354620187763912"><ele>352.75</ele><time>2026-04-08T13:45:46Z</time></trkpt><trkpt lat="43.457752883805064" lon="11.354667831352849"><ele>355.0</ele><time>2026-04-08T13:45:47Z</time></trkpt><trkpt lat="43.457869124000105" lon="11.354694709850188"><ele>354.0</ele><time>2026-04-08T13:45:48Z</time></trkpt><trkpt lat="43.45799197787935" lon="11.354732791069747"><ele>353.0</ele><time>2026-04-08T13:45:49Z</time></trkpt><trkpt lat="43.45808650419389" lon="11.354774097652916"><ele>352.0</ele><time>2026-04-08T13:45:50Z</time></trkpt><trkpt lat="43.458166779012025" lon="11.354827109765543"><ele>351.0</ele><time>2026-04-08T13:45:51Z</time></trkpt><trkpt lat="43.45825441337676" lon="11.35489257025542"><ele>350.0</ele><time>2026-04-08T13:45:52Z</time></trkpt><trkpt lat="43.45835369990842" lon="11.354992876355883"><ele>350.0</ele><time>2026-04-08T13:45:53Z</time></trkpt><trkpt lat="43.45846561807702" lon="11.355097338085002"><ele>350.0</ele><time>2026-04-08T13:45:54Z</time></trkpt><trkpt lat="43.458583993113116" lon="11.355204254397776"><ele>350.0</ele><time>2026-04-08T13:45:55Z</time></trkpt><trkpt lat="43.45870340651562" lon="11.35529965073285"><ele>350.0</ele><time>2026-04-08T13:45:56Z</time></trkpt><trkpt lat="43.458791313595796" lon="11.35540511615526"><ele>351.5</ele><time>2026-04-08T13:45:57Z</time></trkpt><trkpt lat="43.458910844132696" lon="11.35542181273117"><ele>353.0</ele><time>2026-04-08T13:45:58Z</time></trkpt><trkpt lat="43.45902022804527" lon="11.355464572710064"><ele>354.5</ele><time>2026-04-08T13:45:59Z</time></trkpt><trkpt lat="43.45914068403603" lon="11.355498034614904"><ele>356.0</ele><time>2026-04-08T13:46:00Z</time></trkpt><trkpt lat="43.45926224055635" lon="11.35552679707163"><ele>355.0</ele><time>2026-04-08T13:46:01Z</time></trkpt><trkpt lat="43.459389439093414" lon="11.355551858852396"><ele>354.0</ele><time>2026-04-08T13:46:01.999Z</time></trkpt><trkpt lat="43.45950919308189" lon="11.355575318428155"><ele>353.0</ele><time>2026-04-08T13:46:02.999Z</time></trkpt><trkpt lat="43.459610602651566" lon="11.355592759001503"><ele>352.0</ele><time>2026-04-08T13:46:03.999Z</time></trkpt><trkpt lat="43.4596958425955" lon="11.35559713898691"><ele>351.0</ele><time>2026-04-08T13:46:04.999Z</time></trkpt><trkpt lat="43.459780544354885" lon="11.355594538280162"><ele>351.0</ele><time>2026-04-08T13:46:05.999Z</time></trkpt><trkpt lat="43.45989299303029" lon="11.35559215719587"><ele>351.0</ele><time>2026-04-08T13:46:06.999Z</time></trkpt><trkpt lat="43.459998861973794" lon="11.35555557696445"><ele>351.0</ele><time>2026-04-08T13:46:07.999Z</time></trkpt><trkpt lat="43.46010166982756" lon="11.355515007640811"><ele>351.0</ele><time>2026-04-08T13:46:08.999Z</time></trkpt><trkpt lat="43.46019342634652" lon="11.355501127155309"><ele>351.0</ele><time>2026-04-08T13:46:09.999Z</time></trkpt><trkpt lat="43.46028802062638" lon="11.355516947993566"><ele>351.0</ele><time>2026-04-08T13:46:10.999Z</time></trkpt><trkpt lat="43.46040114969661" lon="11.355551421909343"><ele>351.0</ele><time>2026-04-08T13:46:11.999Z</time></trkpt><trkpt lat="43.46051827948277" lon="11.355587309220887"><ele>351.0</ele><time>2026-04-08T13:46:12.999Z</time></trkpt><trkpt lat="43.46064265699469" lon="11.355616078695666"><ele>351.0</ele><time>2026-04-08T13:46:13.999Z</time></trkpt><trkpt lat="43.46076003443741" lon="11.355629653079296"><ele>351.6</ele><time>2026-04-08T13:46:14.999Z</time></trkpt><trkpt lat="43.460864899583996" lon="11.355630658623138"><ele>352.20000000000005</ele><time>2026-04-08T13:46:15.999Z</time></trkpt><trkpt lat="43.46097460751776" lon="11.355618465477914"><ele>352.79999999999995</ele><time>2026-04-08T13:46:16.999Z</time></trkpt><trkpt lat="43.46108206637301" lon="11.355587503827682"><ele>353.4</ele><time>2026-04-08T13:46:17.999Z</time></trkpt><trkpt lat="43.461198809005396" lon="11.355554352851675"><ele>354.0</ele><time>2026-04-08T13:46:18.999Z</time></trkpt><trkpt lat="43.4612994768986" lon="11.355532248246059"><ele>354.4</ele><time>2026-04-08T13:46:19.999Z</time></trkpt><trkpt lat="43.46138795156687" lon="11.35553098352784"><ele>354.79999999999995</ele><time>2026-04-08T13:46:20.999Z</time></trkpt><trkpt lat="43.46148256268373" lon="11.35555585970496"><ele>355.20000000000005</ele><time>2026-04-08T13:46:21.999Z</time></trkpt><trkpt lat="43.4615662405609" lon="11.35560665658804"><ele>355.6</ele><time>2026-04-08T13:46:22.999Z</time></trkpt><trkpt lat="43.46164932300429" lon="11.35567268309263"><ele>356.0</ele><time>2026-04-08T13:46:23.999Z</time></trkpt><trkpt lat="43.46174261397107" lon="11.355753085677565"><ele>356.0</ele><time>2026-04-08T13:46:24.999Z</time></trkpt><trkpt lat="43.46185146174025" lon="11.355842360766434"><ele>356.0</ele><time>2026-04-08T13:46:25.999Z</time></trkpt><trkpt lat="43.461969153146" lon="11.355939887089871"><ele>356.0</ele><time>2026-04-08T13:46:26.999Z</time></trkpt><trkpt lat="43.462089263965645" lon="11.356043386834003"><ele>356.0</ele><time>2026-04-08T13:46:27.999Z</time></trkpt><trkpt lat="43.46220600306291" lon="11.35616802592424"><ele>355.75</ele><time>2026-04-08T13:46:28.999Z</time></trkpt><trkpt lat="43.462330948435515" lon="11.356289374533027"><ele>355.5</ele><time>2026-04-08T13:46:29.999Z</time></trkpt><trkpt lat="43.46244312319261" lon="11.356393692536642"><ele>355.25</ele><time>2026-04-08T13:46:30.999Z</time></trkpt><trkpt lat="43.462545832156636" lon="11.356481233193493"><ele>355.0</ele><time>2026-04-08T13:46:31.999Z</time></trkpt><trkpt lat="43.46265094177388" lon="11.356578021943802"><ele>355.0</ele><time>2026-04-08T13:46:32.999Z</time></trkpt><trkpt lat="43.4627425175571" lon="11.35666623777047"><ele>355.0</ele><time>2026-04-08T13:46:33.999Z</time></trkpt><trkpt lat="43.462823991544" lon="11.356743666036488"><ele>355.0</ele><time>2026-04-08T13:46:34.999Z</time></trkpt><trkpt lat="43.46289764583584" lon="11.356823040913733"><ele>355.0</ele><time>2026-04-08T13:46:35.999Z</time></trkpt><trkpt lat="43.4629678994766" lon="11.356891585182854"><ele>355.0</ele><time>2026-04-08T13:46:36.999Z</time></trkpt><trkpt lat="43.46303647313154" lon="11.35695054888178"><ele>357.16666666666663</ele><time>2026-04-08T13:46:37.999Z</time></trkpt><trkpt lat="43.46310610517263" lon="11.356991004300207"><ele>359.3333333333333</ele><time>2026-04-08T13:46:38.999Z</time></trkpt><trkpt lat="43.463183936525255" lon="11.357020535026406"><ele>361.5</ele><time>2026-04-08T13:46:39.999Z</time></trkpt><trkpt lat="43.463268752082094" lon="11.357028105267519"><ele>363.6666666666667</ele><time>2026-04-08T13:46:40.999Z</time></trkpt><trkpt lat="43.463361391924565" lon="11.357021133978229"><ele>365.83333333333337</ele><time>2026-04-08T13:46:41.999Z</time></trkpt><trkpt lat="43.463455918426426" lon="11.35703030776204"><ele>368.0</ele><time>2026-04-08T13:46:42.999Z</time></trkpt><trkpt lat="43.46357703027729" lon="11.357063644096588"><ele>368.0</ele><time>2026-04-08T13:46:43.999Z</time></trkpt><trkpt lat="43.46369197211906" lon="11.357088853309056"><ele>368.0</ele><time>2026-04-08T13:46:44.999Z</time></trkpt><trkpt lat="43.46377395108785" lon="11.357097999049524"><ele>368.0</ele><time>2026-04-08T13:46:45.999Z</time></trkpt><trkpt lat="43.46386255443817" lon="11.357118288305122"><ele>368.0</ele><time>2026-04-08T13:46:46.999Z</time></trkpt><trkpt lat="43.463960918588626" lon="11.357157170038306"><ele>368.0</ele><time>2026-04-08T13:46:47.999Z</time></trkpt><trkpt lat="43.46406918600757" lon="11.357222895267254"><ele>367.0</ele><time>2026-04-08T13:46:48.999Z</time></trkpt><trkpt lat="43.46416654490692" lon="11.357305761391668"><ele>366.0</ele><time>2026-04-08T13:46:49.999Z</time></trkpt><trkpt lat="43.464265289451994" lon="11.357390686465537"><ele>365.0</ele><time>2026-04-08T13:46:50.999Z</time></trkpt><trkpt lat="43.46435158553616" lon="11.35747623994588"><ele>364.0</ele><time>2026-04-08T13:46:51.999Z</time></trkpt><trkpt lat="43.46444354178936" lon="11.357568851597314"><ele>364.0</ele><time>2026-04-08T13:46:52.999Z</time></trkpt><trkpt lat="43.464523009555855" lon="11.357681451784453"><ele>364.0</ele><time>2026-04-08T13:46:53.999Z</time></trkpt><trkpt lat="43.464618071762175" lon="11.357828699808346"><ele>364.0</ele><time>2026-04-08T13:46:54.999Z</time></trkpt><trkpt lat="43.46467849594043" lon="11.357945053578845"><ele>364.0</ele><time>2026-04-08T13:46:55.999Z</time></trkpt><trkpt lat="43.464724627683275" lon="11.35806609645393"><ele>365.25</ele><time>2026-04-08T13:46:56.999Z</time></trkpt><trkpt lat="43.464764802477404" lon="11.358199701069799"><ele>366.5</ele><time>2026-04-08T13:46:57.999Z</time></trkpt><trkpt lat="43.46480863491954" lon="11.358349720155775"><ele>367.75</ele><time>2026-04-08T13:46:59Z</time></trkpt><trkpt lat="43.46485550815931" lon="11.358504953792455"><ele>369.0</ele><time>2026-04-08T13:47:00Z</time></trkpt><trkpt lat="43.464895137219706" lon="11.358674482276667"><ele>369.0</ele><time>2026-04-08T13:47:01Z</time></trkpt><trkpt lat="43.46493159174933" lon="11.35884354338595"><ele>369.0</ele><time>2026-04-08T13:47:02Z</time></trkpt><trkpt lat="43.46495345544347" lon="11.358988792572108"><ele>369.0</ele><time>2026-04-08T13:47:03Z</time></trkpt><trkpt lat="43.46496912915159" lon="11.35913976998548"><ele>369.0</ele><time>2026-04-08T13:47:04Z</time></trkpt><trkpt lat="43.464982923210364" lon="11.35927553030016"><ele>369.0</ele><time>2026-04-08T13:47:05Z</time></trkpt><trkpt lat="43.46500269382716" lon="11.359405969980775"><ele>368.2</ele><time>2026-04-08T13:47:06Z</time></trkpt><trkpt lat="43.465037337515206" lon="11.35953192764839"><ele>367.4</ele><time>2026-04-08T13:47:07Z</time></trkpt><trkpt lat="43.46508105053108" lon="11.359666684259123"><ele>366.6</ele><time>2026-04-08T13:47:08Z</time></trkpt><trkpt lat="43.46512955303146" lon="11.359786547054995"><ele>365.8</ele><time>2026-04-08T13:47:09Z</time></trkpt><trkpt lat="43.465176556009844" lon="11.35990410825592"><ele>365.0</ele><time>2026-04-08T13:47:10Z</time></trkpt><trkpt lat="43.465231022074995" lon="11.360014584204361"><ele>364.6</ele><time>2026-04-08T13:47:11Z</time></trkpt><trkpt lat="43.46528723069977" lon="11.360096537271374"><ele>364.2</ele><time>2026-04-08T13:47:12Z</time></trkpt><trkpt lat="43.4653525425848" lon="11.360168896254905"><ele>363.79999999999995</ele><time>2026-04-08T13:47:13Z</time></trkpt><trkpt lat="43.4654218968936" lon="11.36025594154951"><ele>363.4</ele><time>2026-04-08T13:47:14Z</time></trkpt><trkpt lat="43.465486295563025" lon="11.360356841602943"><ele>363.0</ele><time>2026-04-08T13:47:15Z</time></trkpt><trkpt lat="43.465544155313054" lon="11.360471399497612"><ele>364.4</ele><time>2026-04-08T13:47:16Z</time></trkpt><trkpt lat="43.46560243782918" lon="11.36059432578678"><ele>365.79999999999995</ele><time>2026-04-08T13:47:17Z</time></trkpt><trkpt lat="43.46566135932431" lon="11.360709532723936"><ele>367.2</ele><time>2026-04-08T13:47:18Z</time></trkpt><trkpt lat="43.46571730340083" lon="11.36080014551869"><ele>368.6</ele><time>2026-04-08T13:47:19Z</time></trkpt><trkpt lat="43.46577759020701" lon="11.360879579191018"><ele>370.0</ele><time>2026-04-08T13:47:20Z</time></trkpt><trkpt lat="43.465839160211566" lon="11.360939937737273"><ele>370.0</ele><time>2026-04-08T13:47:21Z</time></trkpt><trkpt lat="43.46590614784569" lon="11.36099600778832"><ele>370.0</ele><time>2026-04-08T13:47:22Z</time></trkpt><trkpt lat="43.465967642549955" lon="11.361036409057041"><ele>370.0</ele><time>2026-04-08T13:47:23Z</time></trkpt><trkpt lat="43.4660354545197" lon="11.361083734175995"><ele>370.0</ele><time>2026-04-08T13:47:24Z</time></trkpt><trkpt lat="43.466096808904126" lon="11.361155968721734"><ele>370.0</ele><time>2026-04-08T13:47:25Z</time></trkpt><trkpt lat="43.46615049097295" lon="11.361234008312998"><ele>370.0</ele><time>2026-04-08T13:47:26Z</time></trkpt><trkpt lat="43.46618472954331" lon="11.361322659143948"><ele>369.4</ele><time>2026-04-08T13:47:27Z</time></trkpt><trkpt lat="43.46621483210716" lon="11.36142128748178"><ele>368.8</ele><time>2026-04-08T13:47:28Z</time></trkpt><trkpt lat="43.466251619112356" lon="11.361549992813629"><ele>368.20000000000005</ele><time>2026-04-08T13:47:29Z</time></trkpt><trkpt lat="43.46629206971326" lon="11.361696521036103"><ele>367.6</ele><time>2026-04-08T13:47:30Z</time></trkpt><trkpt lat="43.466331554542435" lon="11.36185843363437"><ele>367.0</ele><time>2026-04-08T13:47:31Z</time></trkpt><trkpt lat="43.46637721313146" lon="11.362030174521786"><ele>367.40000000000003</ele><time>2026-04-08T13:47:32Z</time></trkpt><trkpt lat="43.46642978346687" lon="11.362165412371448"><ele>367.8</ele><time>2026-04-08T13:47:33Z</time></trkpt><trkpt lat="43.4664754243243" lon="11.362285972872488"><ele>368.2</ele><time>2026-04-08T13:47:34Z</time></trkpt><trkpt lat="43.46652827410235" lon="11.362408720395281"><ele>368.6</ele><time>2026-04-08T13:47:35Z</time></trkpt><trkpt lat="43.466586328574266" lon="11.362531867443886"><ele>369.0</ele><time>2026-04-08T13:47:36Z</time></trkpt><trkpt lat="43.466667953808745" lon="11.362651359534048"><ele>369.0</ele><time>2026-04-08T13:47:37Z</time></trkpt><trkpt lat="43.46672578321815" lon="11.362750367220439"><ele>369.0</ele><time>2026-04-08T13:47:38Z</time></trkpt><trkpt lat="43.46678679605164" lon="11.362839930494507"><ele>369.0</ele><time>2026-04-08T13:47:39Z</time></trkpt><trkpt lat="43.4668249898113" lon="11.36292878846362"><ele>369.0</ele><time>2026-04-08T13:47:40Z</time></trkpt><trkpt lat="43.46684610358438" lon="11.363032758925945"><ele>369.0</ele><time>2026-04-08T13:47:41Z</time></trkpt><trkpt lat="43.46685392589235" lon="11.363145931728535"><ele>369.0</ele><time>2026-04-08T13:47:42Z</time></trkpt><trkpt lat="43.46683176765707" lon="11.36327274503095"><ele>369.0</ele><time>2026-04-08T13:47:43Z</time></trkpt><trkpt lat="43.46679599935763" lon="11.36341832202301"><ele>369.0</ele><time>2026-04-08T13:47:44Z</time></trkpt><trkpt lat="43.466756033815315" lon="11.363584962626033"><ele>369.0</ele><time>2026-04-08T13:47:45Z</time></trkpt><trkpt lat="43.46671714345976" lon="11.363762758568399"><ele>369.0</ele><time>2026-04-08T13:47:46Z</time></trkpt><trkpt lat="43.466671782730366" lon="11.36397008520727"><ele>369.0</ele><time>2026-04-08T13:47:47Z</time></trkpt><trkpt lat="43.466631354593574" lon="11.364163114716389"><ele>369.0</ele><time>2026-04-08T13:47:48Z</time></trkpt><trkpt lat="43.46658472765409" lon="11.364380469407473"><ele>369.0</ele><time>2026-04-08T13:47:49Z</time></trkpt><trkpt lat="43.46653246439475" lon="11.364606054544412"><ele>369.3333333333333</ele><time>2026-04-08T13:47:50Z</time></trkpt><trkpt lat="43.466480077298684" lon="11.36484950160712"><ele>369.66666666666663</ele><time>2026-04-08T13:47:51Z</time></trkpt><trkpt lat="43.466426974877194" lon="11.36508715800311"><ele>370.0</ele><time>2026-04-08T13:47:52Z</time></trkpt><trkpt lat="43.46638117535765" lon="11.365322595346948"><ele>369.3333333333333</ele><time>2026-04-08T13:47:53Z</time></trkpt><trkpt lat="43.466327289869064" lon="11.365572501527753"><ele>368.6666666666667</ele><time>2026-04-08T13:47:54Z</time></trkpt><trkpt lat="43.46627167101345" lon="11.36583347068686"><ele>368.0</ele><time>2026-04-08T13:47:55Z</time></trkpt><trkpt lat="43.466212184073015" lon="11.366088570889334"><ele>368.0</ele><time>2026-04-08T13:47:56Z</time></trkpt><trkpt lat="43.46615695149671" lon="11.36632546658173"><ele>368.0</ele><time>2026-04-08T13:47:57Z</time></trkpt><trkpt lat="43.46611501742544" lon="11.366530190994313"><ele>368.0</ele><time>2026-04-08T13:47:58Z</time></trkpt><trkpt lat="43.46607630871303" lon="11.366713993446915"><ele>368.25</ele><time>2026-04-08T13:47:59Z</time></trkpt><trkpt lat="43.466034511919666" lon="11.366908629323907"><ele>368.5</ele><time>2026-04-08T13:48:00Z</time></trkpt><trkpt lat="43.46598949400923" lon="11.36711222662952"><ele>368.75</ele><time>2026-04-08T13:48:01Z</time></trkpt><trkpt lat="43.465952676456624" lon="11.367287021796992"><ele>369.0</ele><time>2026-04-08T13:48:02Z</time></trkpt><trkpt lat="43.465916824426955" lon="11.36746924745449"><ele>369.5</ele><time>2026-04-08T13:48:03Z</time></trkpt><trkpt lat="43.46587923604318" lon="11.367668113651478"><ele>370.0</ele><time>2026-04-08T13:48:04Z</time></trkpt><trkpt lat="43.46584105404723" lon="11.367858327296"><ele>370.5</ele><time>2026-04-08T13:48:05Z</time></trkpt><trkpt lat="43.46580553018843" lon="11.368037282059083"><ele>371.0</ele><time>2026-04-08T13:48:06Z</time></trkpt><trkpt lat="43.46577483101187" lon="11.368198757590505"><ele>371.75</ele><time>2026-04-08T13:48:07Z</time></trkpt><trkpt lat="43.46575472007932" lon="11.368350341584772"><ele>372.5</ele><time>2026-04-08T13:48:08Z</time></trkpt><trkpt lat="43.46575129448536" lon="11.368500588356875"><ele>373.25</ele><time>2026-04-08T13:48:09Z</time></trkpt><trkpt lat="43.46575878700195" lon="11.368661868393032"><ele>374.0</ele><time>2026-04-08T13:48:09.999Z</time></trkpt><trkpt lat="43.46578415497422" lon="11.368826521585019"><ele>374.0</ele><time>2026-04-08T13:48:10.999Z</time></trkpt><trkpt lat="43.465822056997524" lon="11.368989489693295"><ele>374.0</ele><time>2026-04-08T13:48:11.999Z</time></trkpt><trkpt lat="43.46586084514631" lon="11.36916552908067"><ele>374.0</ele><time>2026-04-08T13:48:12.999Z</time></trkpt><trkpt lat="43.465906323886536" lon="11.369335043795886"><ele>374.0</ele><time>2026-04-08T13:48:13.999Z</time></trkpt><trkpt lat="43.465955677293714" lon="11.369513634139363"><ele>374.5</ele><time>2026-04-08T13:48:14.999Z</time></trkpt><trkpt lat="43.466005245966436" lon="11.369692479914642"><ele>375.0</ele><time>2026-04-08T13:48:15.999Z</time></trkpt><trkpt lat="43.46606426958889" lon="11.36987384033925"><ele>375.5</ele><time>2026-04-08T13:48:16.999Z</time></trkpt><trkpt lat="43.466127867981896" lon="11.370062886108883"><ele>376.0</ele><time>2026-04-08T13:48:17.999Z</time></trkpt><trkpt lat="43.466207809190514" lon="11.37022753012525"><ele>377.0</ele><time>2026-04-08T13:48:18.999Z</time></trkpt><trkpt lat="43.46629750135403" lon="11.370406367378001"><ele>378.0</ele><time>2026-04-08T13:48:19.999Z</time></trkpt><trkpt lat="43.4663955591119" lon="11.370585664245823"><ele>379.0</ele><time>2026-04-08T13:48:20.999Z</time></trkpt><trkpt lat="43.466500645925116" lon="11.370771332584441"><ele>379.0</ele><time>2026-04-08T13:48:21.999Z</time></trkpt><trkpt lat="43.46660057288679" lon="11.370921621739456"><ele>379.0</ele><time>2026-04-08T13:48:22.999Z</time></trkpt><trkpt lat="43.46669135415194" lon="11.37106628586532"><ele>379.0</ele><time>2026-04-08T13:48:23.999Z</time></trkpt><trkpt lat="43.46676976660934" lon="11.371177911032527"><ele>379.0</ele><time>2026-04-08T13:48:24.999Z</time></trkpt><trkpt lat="43.4668616608224" lon="11.371269513436049"><ele>379.0</ele><time>2026-04-08T13:48:25.999Z</time></trkpt><trkpt lat="43.466959074782096" lon="11.371343160488568"><ele>379.0</ele><time>2026-04-08T13:48:26.999Z</time></trkpt><trkpt lat="43.46706702065231" lon="11.371413288546622"><ele>379.0</ele><time>2026-04-08T13:48:27.999Z</time></trkpt><trkpt lat="43.4671786571122" lon="11.371487652314729"><ele>379.0</ele><time>2026-04-08T13:48:28.999Z</time></trkpt><trkpt lat="43.46727826272804" lon="11.371555801329906"><ele>379.2</ele><time>2026-04-08T13:48:29.999Z</time></trkpt><trkpt lat="43.46737131157303" lon="11.371627179251837"><ele>379.4</ele><time>2026-04-08T13:48:30.999Z</time></trkpt><trkpt lat="43.4674520857237" lon="11.371718604272086"><ele>379.6</ele><time>2026-04-08T13:48:31.999Z</time></trkpt><trkpt lat="43.46752004860021" lon="11.37182184755928"><ele>379.8</ele><time>2026-04-08T13:48:32.999Z</time></trkpt><trkpt lat="43.46757624672085" lon="11.371934322600604"><ele>380.0</ele><time>2026-04-08T13:48:33.999Z</time></trkpt><trkpt lat="43.46762774422546" lon="11.37207370404602"><ele>379.2</ele><time>2026-04-08T13:48:34.999Z</time></trkpt><trkpt lat="43.46768039121338" lon="11.372227248227206"><ele>378.4</ele><time>2026-04-08T13:48:35.999Z</time></trkpt><trkpt lat="43.46773496627454" lon="11.372377954550169"><ele>377.6</ele><time>2026-04-08T13:48:36.999Z</time></trkpt><trkpt lat="43.46778224207453" lon="11.372505211942794"><ele>376.8</ele><time>2026-04-08T13:48:37.999Z</time></trkpt><trkpt lat="43.467816870220176" lon="11.372625716796687"><ele>376.0</ele><time>2026-04-08T13:48:38.999Z</time></trkpt><trkpt lat="43.46783903681706" lon="11.372734116025091"><ele>376.0</ele><time>2026-04-08T13:48:39.999Z</time></trkpt><trkpt lat="43.467856727058354" lon="11.372840966556254"><ele>376.0</ele><time>2026-04-08T13:48:40.999Z</time></trkpt><trkpt lat="43.467866701335346" lon="11.37301438001784"><ele>376.0</ele><time>2026-04-08T13:48:42.999Z</time></trkpt><trkpt lat="43.467883356157486" lon="11.373099226184896"><ele>376.0</ele><time>2026-04-08T13:48:44.999Z</time></trkpt><trkpt lat="43.46789318134384" lon="11.37320730281053"><ele>376.0</ele><time>2026-04-08T13:49:10Z</time></trkpt><trkpt lat="43.46800362593284" lon="11.373302658699062"><ele>377.4</ele><time>2026-04-08T13:49:12Z</time></trkpt><trkpt lat="43.46808402959181" lon="11.373341571734152"><ele>378.8</ele><time>2026-04-08T13:49:13Z</time></trkpt><trkpt lat="43.468185303772906" lon="11.373392798127831"><ele>380.2</ele><time>2026-04-08T13:49:14Z</time></trkpt><trkpt lat="43.46829706962634" lon="11.37344866858323"><ele>381.59999999999997</ele><time>2026-04-08T13:49:15Z</time></trkpt><trkpt lat="43.46841388264596" lon="11.373520257129485"><ele>383.0</ele><time>2026-04-08T13:49:16Z</time></trkpt><trkpt lat="43.468530048092845" lon="11.373613219510837"><ele>383.0</ele><time>2026-04-08T13:49:17Z</time></trkpt><trkpt lat="43.46860534951071" lon="11.373700015232618"><ele>383.0</ele><time>2026-04-08T13:49:18Z</time></trkpt><trkpt lat="43.46868242855187" lon="11.373828972760158"><ele>383.0</ele><time>2026-04-08T13:49:19Z</time></trkpt><trkpt lat="43.468770797429684" lon="11.373965697500974"><ele>383.0</ele><time>2026-04-08T13:49:20Z</time></trkpt><trkpt lat="43.468858466318935" lon="11.37407135676579"><ele>383.5</ele><time>2026-04-08T13:49:21Z</time></trkpt><trkpt lat="43.46896707555366" lon="11.374175806698755"><ele>384.0</ele><time>2026-04-08T13:49:22Z</time></trkpt><trkpt lat="43.469090018617294" lon="11.374239994834417"><ele>384.5</ele><time>2026-04-08T13:49:23Z</time></trkpt><trkpt lat="43.469188320740045" lon="11.374272626948772"><ele>385.0</ele><time>2026-04-08T13:49:24Z</time></trkpt><trkpt lat="43.4693089099177" lon="11.374266768992905"><ele>385.0</ele><time>2026-04-08T13:49:25Z</time></trkpt><trkpt lat="43.46943625706299" lon="11.374267573648384"><ele>385.0</ele><time>2026-04-08T13:49:26Z</time></trkpt><trkpt lat="43.46957163874741" lon="11.374262580962865"><ele>385.0</ele><time>2026-04-08T13:49:27Z</time></trkpt><trkpt lat="43.469706191923386" lon="11.374259541959972"><ele>385.0</ele><time>2026-04-08T13:49:28Z</time></trkpt><trkpt lat="43.46985824312147" lon="11.37427180452861"><ele>387.33333333333337</ele><time>2026-04-08T13:49:29Z</time></trkpt><trkpt lat="43.47003267028527" lon="11.374280956587304"><ele>389.66666666666663</ele><time>2026-04-08T13:49:30Z</time></trkpt><trkpt lat="43.47021779970066" lon="11.374283233979249"><ele>392.0</ele><time>2026-04-08T13:49:31Z</time></trkpt><trkpt lat="43.47037022595538" lon="11.374294706547143"><ele>392.75</ele><time>2026-04-08T13:49:32Z</time></trkpt><trkpt lat="43.47050635876212" lon="11.374300229528865"><ele>393.5</ele><time>2026-04-08T13:49:33Z</time></trkpt><trkpt lat="43.47063153843002" lon="11.37430738165949"><ele>394.25</ele><time>2026-04-08T13:49:34Z</time></trkpt><trkpt lat="43.47075900157631" lon="11.37431199636662"><ele>395.0</ele><time>2026-04-08T13:49:35Z</time></trkpt><trkpt lat="43.47090680108445" lon="11.374292398677762"><ele>395.0</ele><time>2026-04-08T13:49:36Z</time></trkpt><trkpt lat="43.471072987231615" lon="11.374256638374268"><ele>395.0</ele><time>2026-04-08T13:49:37Z</time></trkpt><trkpt lat="43.47125882416378" lon="11.374205868655645"><ele>395.0</ele><time>2026-04-08T13:49:38Z</time></trkpt><trkpt lat="43.47145592793643" lon="11.374144413962945"><ele>395.66666666666663</ele><time>2026-04-08T13:49:39Z</time></trkpt><trkpt lat="43.4716246107404" lon="11.37409097237959"><ele>396.33333333333337</ele><time>2026-04-08T13:49:40Z</time></trkpt><trkpt lat="43.47176574894339" lon="11.37404998226415"><ele>397.0</ele><time>2026-04-08T13:49:41Z</time></trkpt><trkpt lat="43.47189572634593" lon="11.374012589367592"><ele>397.0</ele><time>2026-04-08T13:49:42Z</time></trkpt><trkpt lat="43.47203602300579" lon="11.373980078732895"><ele>397.0</ele><time>2026-04-08T13:49:43Z</time></trkpt><trkpt lat="43.472183931101874" lon="11.373950940706498"><ele>397.0</ele><time>2026-04-08T13:49:44Z</time></trkpt><trkpt lat="43.47231593170759" lon="11.373937185196215"><ele>397.0</ele><time>2026-04-08T13:49:45Z</time></trkpt><trkpt lat="43.472441994464376" lon="11.373941040924691"><ele>398.5</ele><time>2026-04-08T13:49:46Z</time></trkpt><trkpt lat="43.47256528623192" lon="11.373980877968618"><ele>400.0</ele><time>2026-04-08T13:49:47Z</time></trkpt><trkpt lat="43.472681911727676" lon="11.374042098721018"><ele>401.5</ele><time>2026-04-08T13:49:48Z</time></trkpt><trkpt lat="43.47279807374047" lon="11.374132828690996"><ele>403.0</ele><time>2026-04-08T13:49:49Z</time></trkpt><trkpt lat="43.472944539743104" lon="11.374228039891344"><ele>405.75</ele><time>2026-04-08T13:49:50Z</time></trkpt><trkpt lat="43.47309556548587" lon="11.374319945942641"><ele>408.5</ele><time>2026-04-08T13:49:51Z</time></trkpt><trkpt lat="43.473230338799006" lon="11.374380648953256"><ele>411.25</ele><time>2026-04-08T13:49:52Z</time></trkpt><trkpt lat="43.47334816591817" lon="11.374413730463761"><ele>414.0</ele><time>2026-04-08T13:49:53Z</time></trkpt><trkpt lat="43.47346080184183" lon="11.374421798322972"><ele>414.0</ele><time>2026-04-08T13:49:54Z</time></trkpt><trkpt lat="43.47357621646518" lon="11.374383236269722"><ele>414.0</ele><time>2026-04-08T13:49:55Z</time></trkpt><trkpt lat="43.473692724959044" lon="11.374305141421262"><ele>414.0</ele><time>2026-04-08T13:49:56Z</time></trkpt><trkpt lat="43.47379758209428" lon="11.374185373648464"><ele>414.0</ele><time>2026-04-08T13:49:57Z</time></trkpt><trkpt lat="43.47388086945266" lon="11.374039009908932"><ele>414.0</ele><time>2026-04-08T13:49:58Z</time></trkpt><trkpt lat="43.473978173727055" lon="11.373866425979422"><ele>414.0</ele><time>2026-04-08T13:49:59Z</time></trkpt><trkpt lat="43.4740883849661" lon="11.373742888955482"><ele>414.0</ele><time>2026-04-08T13:50:00Z</time></trkpt><trkpt lat="43.474205174166556" lon="11.37364696256603"><ele>414.0</ele><time>2026-04-08T13:50:01Z</time></trkpt><trkpt lat="43.47433728854453" lon="11.373600860249152"><ele>415.2</ele><time>2026-04-08T13:50:02Z</time></trkpt><trkpt lat="43.47445104779267" lon="11.37359465593739"><ele>416.4</ele><time>2026-04-08T13:50:03Z</time></trkpt><trkpt lat="43.47455723967483" lon="11.37362311278198"><ele>417.6</ele><time>2026-04-08T13:50:04Z</time></trkpt><trkpt lat="43.47463071000457" lon="11.373681174869862"><ele>418.8</ele><time>2026-04-08T13:50:05Z</time></trkpt><trkpt lat="43.47472229201408" lon="11.373789538572709"><ele>420.0</ele><time>2026-04-08T13:50:06Z</time></trkpt><trkpt lat="43.47480186345734" lon="11.37391006264989"><ele>420.0</ele><time>2026-04-08T13:50:07Z</time></trkpt><trkpt lat="43.474892185490624" lon="11.37397747987729"><ele>420.0</ele><time>2026-04-08T13:50:08Z</time></trkpt><trkpt lat="43.47501897336351" lon="11.373988856935238"><ele>420.0</ele><time>2026-04-08T13:50:09Z</time></trkpt><trkpt lat="43.47518300356944" lon="11.373970063295001"><ele>420.0</ele><time>2026-04-08T13:50:10Z</time></trkpt><trkpt lat="43.475351486452894" lon="11.37393456754789"><ele>422.0</ele><time>2026-04-08T13:50:11Z</time></trkpt><trkpt lat="43.475514966436045" lon="11.37390126668168"><ele>424.0</ele><time>2026-04-08T13:50:12Z</time></trkpt><trkpt lat="43.475689795194036" lon="11.373869600173053"><ele>426.0</ele><time>2026-04-08T13:50:13Z</time></trkpt><trkpt lat="43.47588481030071" lon="11.373843343572778"><ele>428.0</ele><time>2026-04-08T13:50:14Z</time></trkpt><trkpt lat="43.47605496857507" lon="11.373816784624466"><ele>430.0</ele><time>2026-04-08T13:50:15Z</time></trkpt><trkpt lat="43.47619435791844" lon="11.373811456268536"><ele>432.0</ele><time>2026-04-08T13:50:16Z</time></trkpt><trkpt lat="43.476316478747265" lon="11.373796341351998"><ele>434.0</ele><time>2026-04-08T13:50:17Z</time></trkpt><trkpt lat="43.476407271865924" lon="11.373767833693483"><ele>434.0</ele><time>2026-04-08T13:50:18Z</time></trkpt><trkpt lat="43.476482693855864" lon="11.373701782721895"><ele>434.0</ele><time>2026-04-08T13:50:19Z</time></trkpt><trkpt lat="43.47653932678383" lon="11.373597833568757"><ele>434.0</ele><time>2026-04-08T13:50:20Z</time></trkpt><trkpt lat="43.47657242045938" lon="11.373460110670598"><ele>434.0</ele><time>2026-04-08T13:50:21Z</time></trkpt><trkpt lat="43.47659261979888" lon="11.373267563834977"><ele>434.0</ele><time>2026-04-08T13:50:22Z</time></trkpt><trkpt lat="43.4766139770391" lon="11.373046863048094"><ele>438.0</ele><time>2026-04-08T13:50:22.999Z</time></trkpt><trkpt lat="43.4766474394897" lon="11.37279622834423"><ele>442.0</ele><time>2026-04-08T13:50:23.999Z</time></trkpt><trkpt lat="43.476684517682735" lon="11.372552325883726"><ele>446.0</ele><time>2026-04-08T13:50:24.999Z</time></trkpt><trkpt lat="43.476708964275254" lon="11.372337662845437"><ele>448.25</ele><time>2026-04-08T13:50:25.999Z</time></trkpt><trkpt lat="43.47672972949432" lon="11.372154980722247"><ele>450.5</ele><time>2026-04-08T13:50:26.999Z</time></trkpt><trkpt lat="43.476766205356874" lon="11.372009326608364"><ele>452.75</ele><time>2026-04-08T13:50:27.999Z</time></trkpt><trkpt lat="43.47683422177541" lon="11.37189746029383"><ele>455.0</ele><time>2026-04-08T13:50:28.999Z</time></trkpt><trkpt lat="43.47693783031075" lon="11.371827579498875"><ele>455.0</ele><time>2026-04-08T13:50:29.999Z</time></trkpt><trkpt lat="43.47705261442275" lon="11.371805313772034"><ele>455.0</ele><time>2026-04-08T13:50:30.999Z</time></trkpt><trkpt lat="43.47717717363125" lon="11.371849968908842"><ele>455.0</ele><time>2026-04-08T13:50:31.999Z</time></trkpt><trkpt lat="43.477319160725166" lon="11.371905339249233"><ele>455.0</ele><time>2026-04-08T13:50:32.999Z</time></trkpt><trkpt lat="43.47746691162847" lon="11.371992339553065"><ele>455.66666666666663</ele><time>2026-04-08T13:50:33.999Z</time></trkpt><trkpt lat="43.47763073368781" lon="11.372035930303317"><ele>456.33333333333337</ele><time>2026-04-08T13:50:34.999Z</time></trkpt><trkpt lat="43.477782347808954" lon="11.372016555543144"><ele>457.0</ele><time>2026-04-08T13:50:35.999Z</time></trkpt><trkpt lat="43.47791361652362" lon="11.371994013353762"><ele>456.25</ele><time>2026-04-08T13:50:36.999Z</time></trkpt><trkpt lat="43.47802068251444" lon="11.371949239250837"><ele>455.5</ele><time>2026-04-08T13:50:37.999Z</time></trkpt><trkpt lat="43.47811324618383" lon="11.371858021490143"><ele>454.75</ele><time>2026-04-08T13:50:38.999Z</time></trkpt><trkpt lat="43.47819843234217" lon="11.371732201597773"><ele>454.0</ele><time>2026-04-08T13:50:39.999Z</time></trkpt><trkpt lat="43.47825615931746" lon="11.371572669074876"><ele>454.0</ele><time>2026-04-08T13:50:40.999Z</time></trkpt><trkpt lat="43.478269864349535" lon="11.371416352222075"><ele>454.0</ele><time>2026-04-08T13:50:41.999Z</time></trkpt><trkpt lat="43.47825763989622" lon="11.371252267209925"><ele>454.0</ele><time>2026-04-08T13:50:42.999Z</time></trkpt><trkpt lat="43.47821376553743" lon="11.371070751177125"><ele>454.0</ele><time>2026-04-08T13:50:43.999Z</time></trkpt><trkpt lat="43.47815240255963" lon="11.370870673061676"><ele>457.0</ele><time>2026-04-08T13:50:44.999Z</time></trkpt><trkpt lat="43.47808348186453" lon="11.370648269003105"><ele>460.0</ele><time>2026-04-08T13:50:45.999Z</time></trkpt><trkpt lat="43.47802819546075" lon="11.37043972585298"><ele>463.0</ele><time>2026-04-08T13:50:46.999Z</time></trkpt><trkpt lat="43.477986035655825" lon="11.370258508194"><ele>464.59999999999997</ele><time>2026-04-08T13:50:47.999Z</time></trkpt><trkpt lat="43.47795944213028" lon="11.370105400421465"><ele>466.19999999999993</ele><time>2026-04-08T13:50:48.999Z</time></trkpt><trkpt lat="43.47796379648062" lon="11.369974175465718"><ele>467.8</ele><time>2026-04-08T13:50:49.999Z</time></trkpt><trkpt lat="43.478017639936475" lon="11.36986589130538"><ele>469.4</ele><time>2026-04-08T13:50:50.999Z</time></trkpt><trkpt lat="43.47809858796342" lon="11.369797619500703"><ele>471.0</ele><time>2026-04-08T13:50:51.999Z</time></trkpt><trkpt lat="43.47820434966912" lon="11.36978026422136"><ele>471.0</ele><time>2026-04-08T13:50:52.999Z</time></trkpt><trkpt lat="43.478316907100435" lon="11.36982309414034"><ele>471.0</ele><time>2026-04-08T13:50:53.999Z</time></trkpt><trkpt lat="43.47844590798844" lon="11.369832875244875"><ele>471.0</ele><time>2026-04-08T13:50:54.999Z</time></trkpt><trkpt lat="43.47857786252242" lon="11.369838905422267"><ele>471.0</ele><time>2026-04-08T13:50:55.999Z</time></trkpt><trkpt lat="43.47869941566303" lon="11.369789367086216"><ele>469.66666666666663</ele><time>2026-04-08T13:50:56.999Z</time></trkpt><trkpt lat="43.4788079047651" lon="11.36969563040816"><ele>468.3333333333333</ele><time>2026-04-08T13:50:57.999Z</time></trkpt><trkpt lat="43.478917280138894" lon="11.369550044413115"><ele>467.0</ele><time>2026-04-08T13:50:58.999Z</time></trkpt><trkpt lat="43.47904556510942" lon="11.369342010788243"><ele>471.66666666666663</ele><time>2026-04-08T13:50:59.999Z</time></trkpt><trkpt lat="43.4791539244479" lon="11.369180145804963"><ele>476.33333333333337</ele><time>2026-04-08T13:51:00.999Z</time></trkpt><trkpt lat="43.4792954728334" lon="11.368991622770624"><ele>481.0</ele><time>2026-04-08T13:51:01.999Z</time></trkpt><trkpt lat="43.47943651458118" lon="11.36879279488832"><ele>481.33333333333337</ele><time>2026-04-08T13:51:02.999Z</time></trkpt><trkpt lat="43.47955863542163" lon="11.368614598335686"><ele>481.66666666666663</ele><time>2026-04-08T13:51:03.999Z</time></trkpt><trkpt lat="43.47969542429494" lon="11.368420089278782"><ele>482.0</ele><time>2026-04-08T13:51:04.999Z</time></trkpt><trkpt lat="43.47981482344515" lon="11.368248623666625"><ele>482.0</ele><time>2026-04-08T13:51:05.999Z</time></trkpt><trkpt lat="43.47992320454725" lon="11.368094878356212"><ele>482.0</ele><time>2026-04-08T13:51:06.999Z</time></trkpt><trkpt lat="43.48002081364732" lon="11.36794426004544"><ele>482.0</ele><time>2026-04-08T13:51:07.999Z</time></trkpt><trkpt lat="43.48011548972083" lon="11.367794614587206"><ele>482.0</ele><time>2026-04-08T13:51:08.999Z</time></trkpt><trkpt lat="43.480202287313304" lon="11.367682322420603"><ele>483.6</ele><time>2026-04-08T13:51:09.999Z</time></trkpt><trkpt lat="43.480293607376794" lon="11.367614666122606"><ele>485.20000000000005</ele><time>2026-04-08T13:51:11Z</time></trkpt><trkpt lat="43.48038691164218" lon="11.367654765191784"><ele>486.8</ele><time>2026-04-08T13:51:12Z</time></trkpt><trkpt lat="43.48045931063761" lon="11.367706774088665"><ele>488.4</ele><time>2026-04-08T13:51:13Z</time></trkpt><trkpt lat="43.48055433734891" lon="11.367765182205464"><ele>490.0</ele><time>2026-04-08T13:51:14Z</time></trkpt><trkpt lat="43.48063675136465" lon="11.367781947915505"><ele>490.0</ele><time>2026-04-08T13:51:15Z</time></trkpt><trkpt lat="43.48073489179473" lon="11.367759986612274"><ele>490.0</ele><time>2026-04-08T13:51:16Z</time></trkpt><trkpt lat="43.480820736982665" lon="11.367677458007366"><ele>490.0</ele><time>2026-04-08T13:51:17Z</time></trkpt><trkpt lat="43.48089941246036" lon="11.367564088815824"><ele>490.0</ele><time>2026-04-08T13:51:18Z</time></trkpt><trkpt lat="43.48098289994816" lon="11.367411192850204"><ele>490.0</ele><time>2026-04-08T13:51:19Z</time></trkpt><trkpt lat="43.48106614792943" lon="11.3672725836515"><ele>490.0</ele><time>2026-04-08T13:51:20Z</time></trkpt><trkpt lat="43.48116114566023" lon="11.367171304556292"><ele>490.0</ele><time>2026-04-08T13:51:21Z</time></trkpt><trkpt lat="43.481288965675525" lon="11.367134207619797"><ele>490.0</ele><time>2026-04-08T13:51:22Z</time></trkpt><trkpt lat="43.481417467385654" lon="11.36714588848788"><ele>491.5</ele><time>2026-04-08T13:51:23Z</time></trkpt><trkpt lat="43.48154594447845" lon="11.367147933027157"><ele>493.0</ele><time>2026-04-08T13:51:24Z</time></trkpt><trkpt lat="43.4816545363678" lon="11.367116316084294"><ele>494.5</ele><time>2026-04-08T13:51:25Z</time></trkpt><trkpt lat="43.48176008640154" lon="11.36707833426777"><ele>496.0</ele><time>2026-04-08T13:51:26Z</time></trkpt><trkpt lat="43.48185181626355" lon="11.36699736744417"><ele>496.0</ele><time>2026-04-08T13:51:27Z</time></trkpt><trkpt lat="43.4819461085241" lon="11.36689064568587"><ele>496.0</ele><time>2026-04-08T13:51:28Z</time></trkpt><trkpt lat="43.482040215542234" lon="11.366759689541826"><ele>496.0</ele><time>2026-04-08T13:51:29Z</time></trkpt><trkpt lat="43.482129237757796" lon="11.366615434212925"><ele>496.0</ele><time>2026-04-08T13:51:30Z</time></trkpt><trkpt lat="43.48221804236512" lon="11.36648388644236"><ele>495.0</ele><time>2026-04-08T13:51:31Z</time></trkpt><trkpt lat="43.482319790106" lon="11.36639916598293"><ele>494.0</ele><time>2026-04-08T13:51:32Z</time></trkpt><trkpt lat="43.48242959977055" lon="11.366404630342545"><ele>493.0</ele><time>2026-04-08T13:51:33Z</time></trkpt><trkpt lat="43.482540092421914" lon="11.36643182806985"><ele>492.0</ele><time>2026-04-08T13:51:34Z</time></trkpt><trkpt lat="43.482673822858054" lon="11.366439073133918"><ele>492.0</ele><time>2026-04-08T13:51:35Z</time></trkpt><trkpt lat="43.482801051295645" lon="11.366492116298009"><ele>492.00000000000006</ele><time>2026-04-08T13:51:36Z</time></trkpt><trkpt lat="43.482909877167906" lon="11.366511183040554"><ele>492.00000000000006</ele><time>2026-04-08T13:51:37Z</time></trkpt><trkpt lat="43.48300330917273" lon="11.366530062616508"><ele>492.0</ele><time>2026-04-08T13:51:38Z</time></trkpt><trkpt lat="43.48308287765937" lon="11.366523369847332"><ele>492.0</ele><time>2026-04-08T13:51:39Z</time></trkpt><trkpt lat="43.48316255201203" lon="11.366494905652937"><ele>492.20000000000005</ele><time>2026-04-08T13:51:40Z</time></trkpt><trkpt lat="43.48325221873842" lon="11.366432668685357"><ele>492.40000000000003</ele><time>2026-04-08T13:51:41Z</time></trkpt><trkpt lat="43.4833527436942" lon="11.366347345427569"><ele>492.59999999999997</ele><time>2026-04-08T13:51:42Z</time></trkpt><trkpt lat="43.48344395252016" lon="11.366241841591705"><ele>492.79999999999995</ele><time>2026-04-08T13:51:43Z</time></trkpt><trkpt lat="43.483517017945886" lon="11.366145613745873"><ele>493.0</ele><time>2026-04-08T13:51:44Z</time></trkpt><trkpt lat="43.48356892026912" lon="11.366058924659432"><ele>494.59999999999997</ele><time>2026-04-08T13:51:45Z</time></trkpt><trkpt lat="43.48363141211112" lon="11.365966668632161"><ele>496.19999999999993</ele><time>2026-04-08T13:51:46Z</time></trkpt><trkpt lat="43.48370454914544" lon="11.365864800068408"><ele>497.8</ele><time>2026-04-08T13:51:47Z</time></trkpt><trkpt lat="43.483767649052126" lon="11.365760240694994"><ele>499.4</ele><time>2026-04-08T13:51:48Z</time></trkpt><trkpt lat="43.48383089323701" lon="11.36567015211355"><ele>501.0</ele><time>2026-04-08T13:51:49Z</time></trkpt><trkpt lat="43.48389048002302" lon="11.365604411751235"><ele>501.0</ele><time>2026-04-08T13:51:50Z</time></trkpt><trkpt lat="43.48399098388916" lon="11.365536457045028"><ele>501.0</ele><time>2026-04-08T13:51:52Z</time></trkpt><trkpt lat="43.4840583230913" lon="11.365521648038412"><ele>501.0</ele><time>2026-04-08T13:51:54Z</time></trkpt><trkpt lat="43.48419084935325" lon="11.365577662904451"><ele>501.0</ele><time>2026-04-08T13:51:56Z</time></trkpt><trkpt lat="43.48426446491796" lon="11.365645785683926"><ele>501.0</ele><time>2026-04-08T13:51:57Z</time></trkpt><trkpt lat="43.48433678842451" lon="11.365725946100403"><ele>501.0</ele><time>2026-04-08T13:51:58Z</time></trkpt><trkpt lat="43.48439582996291" lon="11.365818758829445"><ele>501.0</ele><time>2026-04-08T13:51:59Z</time></trkpt><trkpt lat="43.48441991400457" lon="11.3659373201845"><ele>501.0</ele><time>2026-04-08T13:52:00Z</time></trkpt><trkpt lat="43.48441733741373" lon="11.366048646496223"><ele>501.0</ele><time>2026-04-08T13:52:01Z</time></trkpt><trkpt lat="43.48438591781909" lon="11.366163783920939"><ele>501.0</ele><time>2026-04-08T13:52:02Z</time></trkpt><trkpt lat="43.48438288711728" lon="11.366285594699157"><ele>501.0</ele><time>2026-04-08T13:52:03Z</time></trkpt><trkpt lat="43.484354535979875" lon="11.366425975969833"><ele>499.8</ele><time>2026-04-08T13:52:04Z</time></trkpt><trkpt lat="43.48434622854279" lon="11.366573268154085"><ele>498.6</ele><time>2026-04-08T13:52:05Z</time></trkpt><trkpt lat="43.48434390959341" lon="11.366709046097835"><ele>497.4</ele><time>2026-04-08T13:52:06Z</time></trkpt><trkpt lat="43.484362489324" lon="11.366821845394394"><ele>496.2</ele><time>2026-04-08T13:52:07Z</time></trkpt><trkpt lat="43.484390383500305" lon="11.366926298602113"><ele>495.0</ele><time>2026-04-08T13:52:08Z</time></trkpt><trkpt lat="43.484426420486535" lon="11.367024874524898"><ele>495.0</ele><time>2026-04-08T13:52:09Z</time></trkpt><trkpt lat="43.484465862500734" lon="11.367148721525167"><ele>495.0</ele><time>2026-04-08T13:52:10Z</time></trkpt><trkpt lat="43.48449850683714" lon="11.367283575827454"><ele>495.0</ele><time>2026-04-08T13:52:11Z</time></trkpt><trkpt lat="43.48453036468877" lon="11.367407656089947"><ele>495.0</ele><time>2026-04-08T13:52:12Z</time></trkpt><trkpt lat="43.484545401260746" lon="11.36753094250965"><ele>495.0</ele><time>2026-04-08T13:52:13Z</time></trkpt><trkpt lat="43.48457987374436" lon="11.367634007265492"><ele>494.2</ele><time>2026-04-08T13:52:14Z</time></trkpt><trkpt lat="43.48460585381016" lon="11.367750118011365"><ele>493.4</ele><time>2026-04-08T13:52:15Z</time></trkpt><trkpt lat="43.48461905776922" lon="11.36786469898392"><ele>492.6</ele><time>2026-04-08T13:52:16Z</time></trkpt><trkpt lat="43.484639467735114" lon="11.367995893242108"><ele>491.8</ele><time>2026-04-08T13:52:17Z</time></trkpt><trkpt lat="43.48465341708656" lon="11.368138187381406"><ele>491.0</ele><time>2026-04-08T13:52:18Z</time></trkpt><trkpt lat="43.48465869646919" lon="11.368266262938393"><ele>493.20000000000005</ele><time>2026-04-08T13:52:19Z</time></trkpt><trkpt lat="43.484687850454414" lon="11.368383883148713"><ele>495.40000000000003</ele><time>2026-04-08T13:52:20Z</time></trkpt><trkpt lat="43.484705422239635" lon="11.368513568521186"><ele>497.6</ele><time>2026-04-08T13:52:21Z</time></trkpt><trkpt lat="43.484705016279385" lon="11.368643124020723"><ele>499.8</ele><time>2026-04-08T13:52:22Z</time></trkpt><trkpt lat="43.48473538457787" lon="11.368778137419948"><ele>502.0</ele><time>2026-04-08T13:52:23Z</time></trkpt><trkpt lat="43.48474957216277" lon="11.36891045987297"><ele>503.25</ele><time>2026-04-08T13:52:24Z</time></trkpt><trkpt lat="43.48477471908915" lon="11.369053741401977"><ele>504.5</ele><time>2026-04-08T13:52:25Z</time></trkpt><trkpt lat="43.48480847563704" lon="11.36919780985682"><ele>505.75</ele><time>2026-04-08T13:52:26Z</time></trkpt><trkpt lat="43.48484678141819" lon="11.369345511970284"><ele>507.0</ele><time>2026-04-08T13:52:27Z</time></trkpt><trkpt lat="43.48492277857515" lon="11.369472329441521"><ele>507.0</ele><time>2026-04-08T13:52:28Z</time></trkpt><trkpt lat="43.48501791029055" lon="11.369582395891753"><ele>507.00000000000006</ele><time>2026-04-08T13:52:29Z</time></trkpt><trkpt lat="43.485095355892405" lon="11.369667261000934"><ele>507.00000000000006</ele><time>2026-04-08T13:52:30Z</time></trkpt><trkpt lat="43.485190784202615" lon="11.369751696258842"><ele>507.0</ele><time>2026-04-08T13:52:31Z</time></trkpt><trkpt lat="43.485279434885214" lon="11.369807844616515"><ele>507.0</ele><time>2026-04-08T13:52:32Z</time></trkpt><trkpt lat="43.485378877057514" lon="11.36984955207413"><ele>508.0</ele><time>2026-04-08T13:52:32.999Z</time></trkpt><trkpt lat="43.4854760719133" lon="11.369881550650758"><ele>509.00000000000006</ele><time>2026-04-08T13:52:33.999Z</time></trkpt><trkpt lat="43.48557684489033" lon="11.369900689643124"><ele>510.00000000000006</ele><time>2026-04-08T13:52:34.999Z</time></trkpt><trkpt lat="43.48567515560045" lon="11.369938141064754"><ele>511.0</ele><time>2026-04-08T13:52:35.999Z</time></trkpt><trkpt lat="43.48576898867456" lon="11.370013920005384"><ele>512.0</ele><time>2026-04-08T13:52:36.999Z</time></trkpt><trkpt lat="43.485836035024725" lon="11.37012893907802"><ele>512.0</ele><time>2026-04-08T13:52:37.999Z</time></trkpt><trkpt lat="43.48589035829717" lon="11.370235254017581"><ele>512.0</ele><time>2026-04-08T13:52:38.999Z</time></trkpt><trkpt lat="43.48594741942754" lon="11.370321246557921"><ele>512.0</ele><time>2026-04-08T13:52:39.999Z</time></trkpt><trkpt lat="43.48597817749092" lon="11.370448611503766"><ele>512.0</ele><time>2026-04-08T13:52:40.999Z</time></trkpt><trkpt lat="43.48602189599891" lon="11.370575568787963"><ele>512.0</ele><time>2026-04-08T13:52:41.999Z</time></trkpt><trkpt lat="43.486080582966295" lon="11.370707724085397"><ele>513.4</ele><time>2026-04-08T13:52:42.999Z</time></trkpt><trkpt lat="43.48613070060737" lon="11.370871057603596"><ele>514.8000000000001</ele><time>2026-04-08T13:52:43.999Z</time></trkpt><trkpt lat="43.48617874012508" lon="11.371020688908093"><ele>516.2</ele><time>2026-04-08T13:52:44.999Z</time></trkpt><trkpt lat="43.48620773895024" lon="11.37114619445327"><ele>517.6</ele><time>2026-04-08T13:52:45.999Z</time></trkpt><trkpt lat="43.4862128929309" lon="11.371276346963558"><ele>519.0</ele><time>2026-04-08T13:52:46.999Z</time></trkpt><trkpt lat="43.48623804728702" lon="11.371413348588376"><ele>516.0</ele><time>2026-04-08T13:52:47.999Z</time></trkpt><trkpt lat="43.48626271622852" lon="11.371556734975032"><ele>513.0</ele><time>2026-04-08T13:52:48.999Z</time></trkpt><trkpt lat="43.486292990940015" lon="11.371689477044166"><ele>510.0</ele><time>2026-04-08T13:52:49.999Z</time></trkpt><trkpt lat="43.48629797011268" lon="11.371809510584889"><ele>507.0</ele><time>2026-04-08T13:52:50.999Z</time></trkpt><trkpt lat="43.48631218756579" lon="11.371929299232931"><ele>504.0</ele><time>2026-04-08T13:52:51.999Z</time></trkpt><trkpt lat="43.4863210845411" lon="11.372060583262972"><ele>506.2</ele><time>2026-04-08T13:52:52.999Z</time></trkpt><trkpt lat="43.48633840962303" lon="11.372205198745533"><ele>508.4</ele><time>2026-04-08T13:52:53.999Z</time></trkpt><trkpt lat="43.4863573325698" lon="11.372350144745761"><ele>510.6</ele><time>2026-04-08T13:52:54.999Z</time></trkpt><trkpt lat="43.48637515702944" lon="11.372501625391221"><ele>512.8</ele><time>2026-04-08T13:52:55.999Z</time></trkpt><trkpt lat="43.48638737093567" lon="11.37263773105237"><ele>515.0</ele><time>2026-04-08T13:52:56.999Z</time></trkpt><trkpt lat="43.486393415845974" lon="11.372749829806372"><ele>515.0</ele><time>2026-04-08T13:52:57.999Z</time></trkpt><trkpt lat="43.48639706763568" lon="11.372841164747708"><ele>515.0</ele><time>2026-04-08T13:52:58.999Z</time></trkpt><trkpt lat="43.48641250206103" lon="11.372932380210564"><ele>515.0</ele><time>2026-04-08T13:52:59.999Z</time></trkpt><trkpt lat="43.486401760789924" lon="11.373020133558207"><ele>515.0</ele><time>2026-04-08T13:53:00.999Z</time></trkpt><trkpt lat="43.48639351330362" lon="11.373181673687476"><ele>515.0</ele><time>2026-04-08T13:53:02.999Z</time></trkpt><trkpt lat="43.48638217760941" lon="11.37327102716595"><ele>515.0</ele><time>2026-04-08T13:53:03.999Z</time></trkpt><trkpt lat="43.486349953850755" lon="11.3734162129419"><ele>515.8</ele><time>2026-04-08T13:53:05.999Z</time></trkpt><trkpt lat="43.48630367407593" lon="11.373568380006352"><ele>516.6</ele><time>2026-04-08T13:53:07.999Z</time></trkpt><trkpt lat="43.48626929340409" lon="11.37366258498185"><ele>517.4</ele><time>2026-04-08T13:53:08.999Z</time></trkpt><trkpt lat="43.486228976009365" lon="11.373782055772285"><ele>518.2</ele><time>2026-04-08T13:53:09.999Z</time></trkpt><trkpt lat="43.48620063007071" lon="11.373911162946056"><ele>519.0</ele><time>2026-04-08T13:53:10.999Z</time></trkpt><trkpt lat="43.486180750396684" lon="11.374018301943178"><ele>519.3333333333334</ele><time>2026-04-08T13:53:11.999Z</time></trkpt><trkpt lat="43.48614622211192" lon="11.374107272654681"><ele>519.6666666666666</ele><time>2026-04-08T13:53:12.999Z</time></trkpt><trkpt lat="43.48613771404997" lon="11.374202554114499"><ele>520.0</ele><time>2026-04-08T13:53:13.999Z</time></trkpt><trkpt lat="43.4861118564608" lon="11.374313981659029"><ele>520.3333333333333</ele><time>2026-04-08T13:53:14.999Z</time></trkpt><trkpt lat="43.48611076699684" lon="11.374421601003597"><ele>520.6666666666666</ele><time>2026-04-08T13:53:15.999Z</time></trkpt><trkpt lat="43.48612847355285" lon="11.374505497011409"><ele>521.0</ele><time>2026-04-08T13:53:17Z</time></trkpt><trkpt lat="43.48617400637733" lon="11.374651586269204"><ele>520.4</ele><time>2026-04-08T13:53:19Z</time></trkpt><trkpt lat="43.486258804558545" lon="11.374788751419652"><ele>519.8</ele><time>2026-04-08T13:53:21Z</time></trkpt><trkpt lat="43.48634107146572" lon="11.37492255464651"><ele>519.1999999999999</ele><time>2026-04-08T13:53:23Z</time></trkpt><trkpt lat="43.48638557398862" lon="11.374984241382009"><ele>518.6</ele><time>2026-04-08T13:53:24Z</time></trkpt><trkpt lat="43.48642848424431" lon="11.375054813450921"><ele>518.0</ele><time>2026-04-08T13:53:25Z</time></trkpt><trkpt lat="43.486513336809715" lon="11.375188896583985"><ele>518.8</ele><time>2026-04-08T13:53:27Z</time></trkpt><trkpt lat="43.48658038756698" lon="11.375331702938169"><ele>519.5999999999999</ele><time>2026-04-08T13:53:29Z</time></trkpt><trkpt lat="43.486649863040206" lon="11.375419721070203"><ele>520.4000000000001</ele><time>2026-04-08T13:53:31Z</time></trkpt><trkpt lat="43.486716124595" lon="11.37553101576021"><ele>521.2</ele><time>2026-04-08T13:53:33Z</time></trkpt><trkpt lat="43.48676639598408" lon="11.375611177966656"><ele>522.0</ele><time>2026-04-08T13:53:35Z</time></trkpt><trkpt lat="43.4868470350073" lon="11.375744884689698"><ele>522.0</ele><time>2026-04-08T13:53:37Z</time></trkpt><trkpt lat="43.4868866813979" lon="11.375829385461563"><ele>522.0</ele><time>2026-04-08T13:53:38Z</time></trkpt><trkpt lat="43.48691507002584" lon="11.375938826541985"><ele>522.0</ele><time>2026-04-08T13:53:39Z</time></trkpt><trkpt lat="43.48692530766114" lon="11.376069465845754"><ele>522.0</ele><time>2026-04-08T13:53:40Z</time></trkpt><trkpt lat="43.486900122981524" lon="11.376211520883599"><ele>522.0</ele><time>2026-04-08T13:53:41Z</time></trkpt><trkpt lat="43.48689050809742" lon="11.376357956243623"><ele>520.6</ele><time>2026-04-08T13:53:42Z</time></trkpt><trkpt lat="43.48688011033563" lon="11.376500874639891"><ele>519.2</ele><time>2026-04-08T13:53:43Z</time></trkpt><trkpt lat="43.48687013171434" lon="11.376638329457693"><ele>517.8</ele><time>2026-04-08T13:53:44Z</time></trkpt><trkpt lat="43.486860067656025" lon="11.376779157177666"><ele>516.4</ele><time>2026-04-08T13:53:45Z</time></trkpt><trkpt lat="43.48684954561257" lon="11.376926393631797"><ele>515.0</ele><time>2026-04-08T13:53:46Z</time></trkpt><trkpt lat="43.48684052319621" lon="11.377052645692629"><ele>515.0</ele><time>2026-04-08T13:53:47Z</time></trkpt><trkpt lat="43.486831453671" lon="11.377179556938378"><ele>515.0</ele><time>2026-04-08T13:53:48Z</time></trkpt><trkpt lat="43.486823845204675" lon="11.377289790420928"><ele>515.0</ele><time>2026-04-08T13:53:49Z</time></trkpt><trkpt lat="43.486819715847055" lon="11.377403394677085"><ele>515.0</ele><time>2026-04-08T13:53:50Z</time></trkpt><trkpt lat="43.48682015140868" lon="11.377531557329089"><ele>515.0</ele><time>2026-04-08T13:53:51Z</time></trkpt><trkpt lat="43.48681472340644" lon="11.377649264020068"><ele>515.0</ele><time>2026-04-08T13:53:52Z</time></trkpt><trkpt lat="43.48681251016883" lon="11.377779397806762"><ele>515.0</ele><time>2026-04-08T13:53:53Z</time></trkpt><trkpt lat="43.48681130842354" lon="11.37793129942298"><ele>515.0</ele><time>2026-04-08T13:53:54Z</time></trkpt><trkpt lat="43.48683664308899" lon="11.378086325235381"><ele>515.0</ele><time>2026-04-08T13:53:55Z</time></trkpt><trkpt lat="43.48686963305041" lon="11.378221900077472"><ele>515.0</ele><time>2026-04-08T13:53:56Z</time></trkpt><trkpt lat="43.48690603738357" lon="11.37834970109221"><ele>515.0</ele><time>2026-04-08T13:53:57Z</time></trkpt><trkpt lat="43.48695619080337" lon="11.378475528747213"><ele>515.8</ele><time>2026-04-08T13:53:58Z</time></trkpt><trkpt lat="43.48701138806114" lon="11.37859171567456"><ele>516.6</ele><time>2026-04-08T13:53:59Z</time></trkpt><trkpt lat="43.48708510406154" lon="11.378696822571076"><ele>517.4</ele><time>2026-04-08T13:54:00Z</time></trkpt><trkpt lat="43.4871522106138" lon="11.378816762813628"><ele>518.2</ele><time>2026-04-08T13:54:01Z</time></trkpt><trkpt lat="43.48721878385787" lon="11.37893681919023"><ele>519.0</ele><time>2026-04-08T13:54:02Z</time></trkpt><trkpt lat="43.48727190125823" lon="11.379067676400629"><ele>516.4</ele><time>2026-04-08T13:54:03Z</time></trkpt><trkpt lat="43.48733475655605" lon="11.379183970319158"><ele>513.8</ele><time>2026-04-08T13:54:04Z</time></trkpt><trkpt lat="43.487395311822674" lon="11.379292789037025"><ele>511.20000000000005</ele><time>2026-04-08T13:54:05Z</time></trkpt><trkpt lat="43.48746412932608" lon="11.379401672264157"><ele>508.6</ele><time>2026-04-08T13:54:06Z</time></trkpt><trkpt lat="43.48755008394405" lon="11.379505674852172"><ele>506.0</ele><time>2026-04-08T13:54:07Z</time></trkpt><trkpt lat="43.48765083478411" lon="11.379579954180983"><ele>506.0</ele><time>2026-04-08T13:54:08Z</time></trkpt><trkpt lat="43.4877335770254" lon="11.379678880132014"><ele>506.0</ele><time>2026-04-08T13:54:09Z</time></trkpt><trkpt lat="43.48779653428099" lon="11.379786998756819"><ele>506.0</ele><time>2026-04-08T13:54:10Z</time></trkpt><trkpt lat="43.48783317419748" lon="11.379903179594361"><ele>506.0</ele><time>2026-04-08T13:54:11Z</time></trkpt><trkpt lat="43.48783340257546" lon="11.380062044595995"><ele>506.0</ele><time>2026-04-08T13:54:12Z</time></trkpt><trkpt lat="43.487850858713806" lon="11.380251844782592"><ele>505.25</ele><time>2026-04-08T13:54:13Z</time></trkpt><trkpt lat="43.487868586398804" lon="11.380456952276946"><ele>504.5</ele><time>2026-04-08T13:54:14Z</time></trkpt><trkpt lat="43.487890701937964" lon="11.380639054138978"><ele>503.75</ele><time>2026-04-08T13:54:15Z</time></trkpt><trkpt lat="43.48791840064941" lon="11.380822548516129"><ele>503.0</ele><time>2026-04-08T13:54:16Z</time></trkpt><trkpt lat="43.487951118793795" lon="11.38099498671202"><ele>498.75</ele><time>2026-04-08T13:54:17Z</time></trkpt><trkpt lat="43.487992836509534" lon="11.381161548670043"><ele>494.5</ele><time>2026-04-08T13:54:18Z</time></trkpt><trkpt lat="43.48804315370283" lon="11.381319335713322"><ele>490.25</ele><time>2026-04-08T13:54:19Z</time></trkpt><trkpt lat="43.48809640177049" lon="11.381468978024177"><ele>486.0</ele><time>2026-04-08T13:54:20Z</time></trkpt><trkpt lat="43.48816241504703" lon="11.381600575776009"><ele>486.0</ele><time>2026-04-08T13:54:21Z</time></trkpt><trkpt lat="43.48820643629507" lon="11.3817400292474"><ele>486.0</ele><time>2026-04-08T13:54:22Z</time></trkpt><trkpt lat="43.48825427462425" lon="11.381876288527284"><ele>486.0</ele><time>2026-04-08T13:54:23Z</time></trkpt><trkpt lat="43.48831744759207" lon="11.382002899060266"><ele>486.0</ele><time>2026-04-08T13:54:24Z</time></trkpt><trkpt lat="43.488386814423045" lon="11.38215165003588"><ele>484.5</ele><time>2026-04-08T13:54:25Z</time></trkpt><trkpt lat="43.48846390632664" lon="11.382294590670039"><ele>483.0</ele><time>2026-04-08T13:54:26Z</time></trkpt><trkpt lat="43.488539795190064" lon="11.382426476234272"><ele>481.5</ele><time>2026-04-08T13:54:27Z</time></trkpt><trkpt lat="43.48862464812847" lon="11.382541923333218"><ele>480.0</ele><time>2026-04-08T13:54:28Z</time></trkpt><trkpt lat="43.48871644003992" lon="11.382640345534682"><ele>479.5</ele><time>2026-04-08T13:54:29Z</time></trkpt><trkpt lat="43.48881338258638" lon="11.382730223212219"><ele>479.0</ele><time>2026-04-08T13:54:30Z</time></trkpt><trkpt lat="43.48891753803208" lon="11.382820331287446"><ele>478.5</ele><time>2026-04-08T13:54:31Z</time></trkpt><trkpt lat="43.48903370327649" lon="11.38292504858557"><ele>478.0</ele><time>2026-04-08T13:54:32Z</time></trkpt><trkpt lat="43.48914107167563" lon="11.383029434815906"><ele>476.0</ele><time>2026-04-08T13:54:33Z</time></trkpt><trkpt lat="43.48924231757556" lon="11.383134855787736"><ele>474.0</ele><time>2026-04-08T13:54:34Z</time></trkpt><trkpt lat="43.489340692888725" lon="11.383241060882293"><ele>472.0</ele><time>2026-04-08T13:54:35Z</time></trkpt><trkpt lat="43.489446002262675" lon="11.383355703407545"><ele>470.0</ele><time>2026-04-08T13:54:36Z</time></trkpt><trkpt lat="43.489552922596154" lon="11.383469192003941"><ele>468.25</ele><time>2026-04-08T13:54:37Z</time></trkpt><trkpt lat="43.48965539463178" lon="11.3835772631822"><ele>466.5</ele><time>2026-04-08T13:54:38Z</time></trkpt><trkpt lat="43.489756013164104" lon="11.383683918347765"><ele>464.75</ele><time>2026-04-08T13:54:39Z</time></trkpt><trkpt lat="43.489848455350234" lon="11.383796039406896"><ele>463.0</ele><time>2026-04-08T13:54:40Z</time></trkpt><trkpt lat="43.48992137962673" lon="11.383924189852191"><ele>463.0</ele><time>2026-04-08T13:54:41Z</time></trkpt><trkpt lat="43.48998263907896" lon="11.384059259330096"><ele>463.0</ele><time>2026-04-08T13:54:42Z</time></trkpt><trkpt lat="43.4900224736796" lon="11.384211803711493"><ele>463.0</ele><time>2026-04-08T13:54:43Z</time></trkpt><trkpt lat="43.49004080078348" lon="11.3843714004925"><ele>463.0</ele><time>2026-04-08T13:54:44Z</time></trkpt><trkpt lat="43.49004237080033" lon="11.38452607561446"><ele>463.0</ele><time>2026-04-08T13:54:45Z</time></trkpt><trkpt lat="43.490062786175486" lon="11.38466888794163"><ele>462.99999999999994</ele><time>2026-04-08T13:54:46Z</time></trkpt><trkpt lat="43.490098989828574" lon="11.384802401880139"><ele>462.99999999999994</ele><time>2026-04-08T13:54:47Z</time></trkpt><trkpt lat="43.490162298195074" lon="11.38492434229293"><ele>463.0</ele><time>2026-04-08T13:54:48Z</time></trkpt><trkpt lat="43.49023897605594" lon="11.385041354846072"><ele>463.0</ele><time>2026-04-08T13:54:50Z</time></trkpt><trkpt lat="43.49028200148869" lon="11.385118747323267"><ele>462.2</ele><time>2026-04-08T13:54:51Z</time></trkpt><trkpt lat="43.49029105618702" lon="11.385231265200211"><ele>461.4</ele><time>2026-04-08T13:54:52Z</time></trkpt><trkpt lat="43.490298569392884" lon="11.385360357418724"><ele>460.59999999999997</ele><time>2026-04-08T13:54:53Z</time></trkpt><trkpt lat="43.49029199906393" lon="11.385506598339967"><ele>459.79999999999995</ele><time>2026-04-08T13:54:54Z</time></trkpt><trkpt lat="43.49029288888389" lon="11.385663852259817"><ele>459.0</ele><time>2026-04-08T13:54:55Z</time></trkpt><trkpt lat="43.49029220233206" lon="11.385798908410857"><ele>459.0</ele><time>2026-04-08T13:54:56Z</time></trkpt><trkpt lat="43.49027761650235" lon="11.385934623617745"><ele>459.0</ele><time>2026-04-08T13:54:57Z</time></trkpt><trkpt lat="43.490238805980674" lon="11.386049176196748"><ele>459.0</ele><time>2026-04-08T13:54:57.999Z</time></trkpt><trkpt lat="43.49018292350465" lon="11.386130647787475"><ele>459.0</ele><time>2026-04-08T13:54:58.999Z</time></trkpt><trkpt lat="43.49011654431159" lon="11.386203780293293"><ele>459.0</ele><time>2026-04-08T13:54:59.999Z</time></trkpt><trkpt lat="43.49003934370069" lon="11.386275905119597"><ele>459.0</ele><time>2026-04-08T13:55:00.999Z</time></trkpt><trkpt lat="43.48997392789464" lon="11.386308613240564"><ele>459.0</ele><time>2026-04-08T13:55:01.999Z</time></trkpt><trkpt lat="43.489863184892236" lon="11.386310526448625"><ele>459.0</ele><time>2026-04-08T13:55:03.999Z</time></trkpt><trkpt lat="43.48981971745138" lon="11.386246805823781"><ele>459.0</ele><time>2026-04-08T13:55:04.999Z</time></trkpt><trkpt lat="43.489709009766784" lon="11.386233616964715"><ele>459.0</ele><time>2026-04-08T13:55:06.999Z</time></trkpt><trkpt lat="43.489637480064445" lon="11.386374491270313"><ele>460.0</ele><time>2026-04-08T13:55:08.999Z</time></trkpt><trkpt lat="43.48964634901046" lon="11.38651830449081"><ele>461.0</ele><time>2026-04-08T13:55:09.999Z</time></trkpt><trkpt lat="43.489598501575834" lon="11.38666286938673"><ele>462.0</ele><time>2026-04-08T13:55:10.999Z</time></trkpt><trkpt lat="43.489560339361404" lon="11.386846279260102"><ele>463.0</ele><time>2026-04-08T13:55:11.999Z</time></trkpt><trkpt lat="43.489535906268095" lon="11.38700590891074"><ele>460.0</ele><time>2026-04-08T13:55:12.999Z</time></trkpt><trkpt lat="43.48951952518231" lon="11.387162597561042"><ele>456.99999999999994</ele><time>2026-04-08T13:55:13.999Z</time></trkpt><trkpt lat="43.48950703807267" lon="11.387298530259324"><ele>453.99999999999994</ele><time>2026-04-08T13:55:14.999Z</time></trkpt><trkpt lat="43.48949408658745" lon="11.387445318746462"><ele>451.0</ele><time>2026-04-08T13:55:15.999Z</time></trkpt><trkpt lat="43.48947841944815" lon="11.387602285536962"><ele>448.0</ele><time>2026-04-08T13:55:16.999Z</time></trkpt><trkpt lat="43.48946174665031" lon="11.387769060990642"><ele>448.0</ele><time>2026-04-08T13:55:17.999Z</time></trkpt><trkpt lat="43.48947011522291" lon="11.387938873713434"><ele>448.0</ele><time>2026-04-08T13:55:18.999Z</time></trkpt><trkpt lat="43.48945137511915" lon="11.388103618953528"><ele>448.0</ele><time>2026-04-08T13:55:19.999Z</time></trkpt><trkpt lat="43.489432176366485" lon="11.388285873479283"><ele>448.0</ele><time>2026-04-08T13:55:20.999Z</time></trkpt><trkpt lat="43.48941083503006" lon="11.3884774680791"><ele>448.75</ele><time>2026-04-08T13:55:21.999Z</time></trkpt><trkpt lat="43.48936338181263" lon="11.388668277535563"><ele>449.5</ele><time>2026-04-08T13:55:23Z</time></trkpt><trkpt lat="43.489318508627335" lon="11.388859987034465"><ele>450.25</ele><time>2026-04-08T13:55:24Z</time></trkpt><trkpt lat="43.489269013028434" lon="11.389025526178056"><ele>451.0</ele><time>2026-04-08T13:55:25Z</time></trkpt><trkpt lat="43.48924331411945" lon="11.389167337380606"><ele>451.5</ele><time>2026-04-08T13:55:26Z</time></trkpt><trkpt lat="43.48924754987907" lon="11.389323494652736"><ele>452.0</ele><time>2026-04-08T13:55:27Z</time></trkpt><trkpt lat="43.48933138142115" lon="11.38948672551175"><ele>452.5</ele><time>2026-04-08T13:55:28Z</time></trkpt><trkpt lat="43.48938121332719" lon="11.389669413139071"><ele>453.0</ele><time>2026-04-08T13:55:29Z</time></trkpt><trkpt lat="43.48943316816771" lon="11.389820171021023"><ele>453.0</ele><time>2026-04-08T13:55:30Z</time></trkpt><trkpt lat="43.4894765934642" lon="11.389944697536299"><ele>452.99999999999994</ele><time>2026-04-08T13:55:31Z</time></trkpt><trkpt lat="43.48952093194133" lon="11.390071684786575"><ele>452.99999999999994</ele><time>2026-04-08T13:55:32Z</time></trkpt><trkpt lat="43.48956891578731" lon="11.390216510423047"><ele>453.0</ele><time>2026-04-08T13:55:33Z</time></trkpt><trkpt lat="43.48963738162229" lon="11.390361464611685"><ele>453.0</ele><time>2026-04-08T13:55:34Z</time></trkpt><trkpt lat="43.489697418375506" lon="11.390511168090132"><ele>454.5</ele><time>2026-04-08T13:55:35Z</time></trkpt><trkpt lat="43.48974831032366" lon="11.390673168127623"><ele>456.0</ele><time>2026-04-08T13:55:36Z</time></trkpt><trkpt lat="43.48982886060294" lon="11.390786115982499"><ele>457.5</ele><time>2026-04-08T13:55:37Z</time></trkpt><trkpt lat="43.489905961727615" lon="11.390909297405518"><ele>459.0</ele><time>2026-04-08T13:55:38Z</time></trkpt><trkpt lat="43.48999965752229" lon="11.391040326956858"><ele>459.0</ele><time>2026-04-08T13:55:39Z</time></trkpt><trkpt lat="43.49011008335502" lon="11.391166677795997"><ele>459.0</ele><time>2026-04-08T13:55:40Z</time></trkpt><trkpt lat="43.49017110776159" lon="11.391319920102701"><ele>459.0</ele><time>2026-04-08T13:55:41Z</time></trkpt><trkpt lat="43.49020089426588" lon="11.391484372727744"><ele>459.0</ele><time>2026-04-08T13:55:42Z</time></trkpt><trkpt lat="43.490229591979954" lon="11.391665720190852"><ele>458.33333333333337</ele><time>2026-04-08T13:55:43Z</time></trkpt><trkpt lat="43.49020064779172" lon="11.391876573002401"><ele>457.6666666666667</ele><time>2026-04-08T13:55:44Z</time></trkpt><trkpt lat="43.490185290957406" lon="11.392103475833915"><ele>457.0</ele><time>2026-04-08T13:55:45Z</time></trkpt><trkpt lat="43.49019413165849" lon="11.392336493239245"><ele>457.0</ele><time>2026-04-08T13:55:46Z</time></trkpt><trkpt lat="43.49022619526746" lon="11.392542209066832"><ele>457.0</ele><time>2026-04-08T13:55:47Z</time></trkpt><trkpt lat="43.490280442941696" lon="11.392753937011802"><ele>457.0</ele><time>2026-04-08T13:55:48Z</time></trkpt><trkpt lat="43.49034858850592" lon="11.392970447288715"><ele>457.75</ele><time>2026-04-08T13:55:49Z</time></trkpt><trkpt lat="43.49039702740471" lon="11.393163064048576"><ele>458.5</ele><time>2026-04-08T13:55:50Z</time></trkpt><trkpt lat="43.49042478178507" lon="11.393321631544747"><ele>459.25</ele><time>2026-04-08T13:55:51Z</time></trkpt><trkpt lat="43.490431800223966" lon="11.393473672528678"><ele>460.0</ele><time>2026-04-08T13:55:52Z</time></trkpt><trkpt lat="43.490392149070416" lon="11.393617949177898"><ele>460.0</ele><time>2026-04-08T13:55:53Z</time></trkpt><trkpt lat="43.4903286825016" lon="11.393748507523512"><ele>460.0</ele><time>2026-04-08T13:55:54Z</time></trkpt><trkpt lat="43.49028175964044" lon="11.393909091719403"><ele>460.0</ele><time>2026-04-08T13:55:55Z</time></trkpt><trkpt lat="43.49021431945877" lon="11.394066150480434"><ele>460.0</ele><time>2026-04-08T13:55:56Z</time></trkpt><trkpt lat="43.49014920221617" lon="11.394232450696116"><ele>461.33333333333337</ele><time>2026-04-08T13:55:57Z</time></trkpt><trkpt lat="43.49009744043752" lon="11.394415947148108"><ele>462.66666666666663</ele><time>2026-04-08T13:55:58Z</time></trkpt><trkpt lat="43.490077009677165" lon="11.394626618981931"><ele>464.0</ele><time>2026-04-08T13:55:59Z</time></trkpt><trkpt lat="43.49008753895807" lon="11.394859147234747"><ele>465.66666666666663</ele><time>2026-04-08T13:56:00Z</time></trkpt><trkpt lat="43.4901122025723" lon="11.395117688167787"><ele>467.33333333333337</ele><time>2026-04-08T13:56:01Z</time></trkpt><trkpt lat="43.49010900796004" lon="11.395405615959849"><ele>469.0</ele><time>2026-04-08T13:56:02Z</time></trkpt><trkpt lat="43.490097497328804" lon="11.395672037331327"><ele>470.33333333333337</ele><time>2026-04-08T13:56:03Z</time></trkpt><trkpt lat="43.490069466454564" lon="11.395931241866679"><ele>471.66666666666663</ele><time>2026-04-08T13:56:04Z</time></trkpt><trkpt lat="43.49003004307428" lon="11.396166455348302"><ele>473.0</ele><time>2026-04-08T13:56:05Z</time></trkpt><trkpt lat="43.48998199530772" lon="11.396343454977197"><ele>473.0</ele><time>2026-04-08T13:56:06Z</time></trkpt><trkpt lat="43.48991677888775" lon="11.396475341896545"><ele>473.0</ele><time>2026-04-08T13:56:07Z</time></trkpt><trkpt lat="43.48982722054417" lon="11.396579481985597"><ele>473.0</ele><time>2026-04-08T13:56:08Z</time></trkpt><trkpt lat="43.48971376573693" lon="11.39671352790452"><ele>473.0</ele><time>2026-04-08T13:56:09Z</time></trkpt><trkpt lat="43.489625171942336" lon="11.396872074677539"><ele>478.0</ele><time>2026-04-08T13:56:10Z</time></trkpt><trkpt lat="43.48953421261469" lon="11.397074878644503"><ele>483.0</ele><time>2026-04-08T13:56:11Z</time></trkpt><trkpt lat="43.48944932404253" lon="11.397287609579166"><ele>488.0</ele><time>2026-04-08T13:56:12Z</time></trkpt><trkpt lat="43.48934592550547" lon="11.397470340017959"><ele>488.5</ele><time>2026-04-08T13:56:13Z</time></trkpt><trkpt lat="43.48925660920398" lon="11.397656250946117"><ele>489.0</ele><time>2026-04-08T13:56:14Z</time></trkpt><trkpt lat="43.48917247584417" lon="11.397831373680031"><ele>489.5</ele><time>2026-04-08T13:56:15Z</time></trkpt><trkpt lat="43.4890990375516" lon="11.397985442552434"><ele>490.0</ele><time>2026-04-08T13:56:16Z</time></trkpt><trkpt lat="43.489026387982236" lon="11.398140073353197"><ele>488.0</ele><time>2026-04-08T13:56:17Z</time></trkpt><trkpt lat="43.48894608850891" lon="11.398310986407335"><ele>486.0</ele><time>2026-04-08T13:56:18Z</time></trkpt><trkpt lat="43.488875249859845" lon="11.398502807606226"><ele>484.0</ele><time>2026-04-08T13:56:19Z</time></trkpt><trkpt lat="43.488786813211725" lon="11.39869054839409"><ele>489.33333333333337</ele><time>2026-04-08T13:56:20Z</time></trkpt><trkpt lat="43.48868295938785" lon="11.398876121537434"><ele>494.66666666666663</ele><time>2026-04-08T13:56:21Z</time></trkpt><trkpt lat="43.48860479301888" lon="11.399082076900243"><ele>500.0</ele><time>2026-04-08T13:56:22Z</time></trkpt><trkpt lat="43.48852953479276" lon="11.399247643852814"><ele>500.0</ele><time>2026-04-08T13:56:23Z</time></trkpt><trkpt lat="43.48845174265207" lon="11.399406920511607"><ele>500.0</ele><time>2026-04-08T13:56:24Z</time></trkpt><trkpt lat="43.48837255078769" lon="11.399541144806717"><ele>500.0</ele><time>2026-04-08T13:56:25Z</time></trkpt><trkpt lat="43.48826813472725" lon="11.399612983676308"><ele>500.0</ele><time>2026-04-08T13:56:26Z</time></trkpt><trkpt lat="43.48814720345191" lon="11.3996760026185"><ele>500.2</ele><time>2026-04-08T13:56:27Z</time></trkpt><trkpt lat="43.48801296902092" lon="11.399713643867452"><ele>500.4</ele><time>2026-04-08T13:56:28Z</time></trkpt><trkpt lat="43.487898209046946" lon="11.399720004733132"><ele>500.6</ele><time>2026-04-08T13:56:29Z</time></trkpt><trkpt lat="43.48780043475695" lon="11.39973189292552"><ele>500.8</ele><time>2026-04-08T13:56:30Z</time></trkpt><trkpt lat="43.48771645510744" lon="11.399740355207824"><ele>501.0</ele><time>2026-04-08T13:56:31Z</time></trkpt><trkpt lat="43.48763981365624" lon="11.399781317242109"><ele>501.0</ele><time>2026-04-08T13:56:32Z</time></trkpt><trkpt lat="43.48757581722602" lon="11.399900887697726"><ele>501.0</ele><time>2026-04-08T13:56:33Z</time></trkpt><trkpt lat="43.487548899795755" lon="11.40007238879211"><ele>501.0</ele><time>2026-04-08T13:56:34Z</time></trkpt><trkpt lat="43.48756752621528" lon="11.400278495288447"><ele>501.0</ele><time>2026-04-08T13:56:35Z</time></trkpt><trkpt lat="43.4875713899541" lon="11.400501761320413"><ele>502.0</ele><time>2026-04-08T13:56:36Z</time></trkpt><trkpt lat="43.487561247760574" lon="11.400733458536898"><ele>503.0</ele><time>2026-04-08T13:56:37Z</time></trkpt><trkpt lat="43.487538011778675" lon="11.400912422248378"><ele>504.0</ele><time>2026-04-08T13:56:38Z</time></trkpt><trkpt lat="43.48749116814803" lon="11.401047758242306"><ele>505.0</ele><time>2026-04-08T13:56:39Z</time></trkpt><trkpt lat="43.48746861142043" lon="11.40116344566181"><ele>505.00000000000006</ele><time>2026-04-08T13:56:40Z</time></trkpt><trkpt lat="43.48749600741496" lon="11.401265476864504"><ele>505.0</ele><time>2026-04-08T13:56:41Z</time></trkpt><trkpt lat="43.48757751520163" lon="11.401310022646609"><ele>505.0</ele><time>2026-04-08T13:56:42Z</time></trkpt><trkpt lat="43.48765833874985" lon="11.40128357171038"><ele>505.0</ele><time>2026-04-08T13:56:43Z</time></trkpt><trkpt lat="43.48773158595945" lon="11.401208968022827"><ele>505.00000000000006</ele><time>2026-04-08T13:56:44Z</time></trkpt><trkpt lat="43.487789047733024" lon="11.401091929608905"><ele>505.0</ele><time>2026-04-08T13:56:45Z</time></trkpt><trkpt lat="43.48785029264667" lon="11.400944619317473"><ele>507.0</ele><time>2026-04-08T13:56:46Z</time></trkpt><trkpt lat="43.48793838582313" lon="11.400797963539185"><ele>509.0</ele><time>2026-04-08T13:56:47Z</time></trkpt><trkpt lat="43.488024557672645" lon="11.40071214184507"><ele>511.0</ele><time>2026-04-08T13:56:48Z</time></trkpt><trkpt lat="43.48813270075024" lon="11.400710346676457"><ele>513.0</ele><time>2026-04-08T13:56:49Z</time></trkpt><trkpt lat="43.48823561906513" lon="11.400796211023053"><ele>513.0</ele><time>2026-04-08T13:56:50Z</time></trkpt><trkpt lat="43.488362264273746" lon="11.40088862091528"><ele>513.0</ele><time>2026-04-08T13:56:51Z</time></trkpt><trkpt lat="43.48850792835943" lon="11.400972249163704"><ele>513.0</ele><time>2026-04-08T13:56:52Z</time></trkpt><trkpt lat="43.48863544144324" lon="11.401079087662785"><ele>512.75</ele><time>2026-04-08T13:56:53Z</time></trkpt><trkpt lat="43.48876460009581" lon="11.401179509929412"><ele>512.5</ele><time>2026-04-08T13:56:54Z</time></trkpt><trkpt lat="43.488851238011065" lon="11.401293041896603"><ele>512.25</ele><time>2026-04-08T13:56:55Z</time></trkpt><trkpt lat="43.488908203126535" lon="11.401398742533331"><ele>512.0</ele><time>2026-04-08T13:56:56Z</time></trkpt><trkpt lat="43.488925147273086" lon="11.40153072124035"><ele>512.0</ele><time>2026-04-08T13:56:57Z</time></trkpt><trkpt lat="43.48891881994213" lon="11.401699006426318"><ele>512.0</ele><time>2026-04-08T13:56:58Z</time></trkpt><trkpt lat="43.488864129149334" lon="11.4018670593871"><ele>512.0</ele><time>2026-04-08T13:56:59Z</time></trkpt><trkpt lat="43.488803248617636" lon="11.402054379686943"><ele>512.0</ele><time>2026-04-08T13:57:00Z</time></trkpt><trkpt lat="43.48877266086831" lon="11.40226895670755"><ele>512.3333333333333</ele><time>2026-04-08T13:57:01Z</time></trkpt><trkpt lat="43.488764600651216" lon="11.402493318327329"><ele>512.6666666666666</ele><time>2026-04-08T13:57:02Z</time></trkpt><trkpt lat="43.48874102390672" lon="11.402750150932725"><ele>513.0</ele><time>2026-04-08T13:57:03Z</time></trkpt><trkpt lat="43.488721159843585" lon="11.403046007250696"><ele>521.3333333333334</ele><time>2026-04-08T13:57:04Z</time></trkpt><trkpt lat="43.48874229341671" lon="11.403331683305382"><ele>529.6666666666667</ele><time>2026-04-08T13:57:05Z</time></trkpt><trkpt lat="43.48874321807167" lon="11.403557118577151"><ele>538.0</ele><time>2026-04-08T13:57:05.999Z</time></trkpt><trkpt lat="43.48870823638107" lon="11.403756888058814"><ele>538.6666666666667</ele><time>2026-04-08T13:57:06.999Z</time></trkpt><trkpt lat="43.48867426389564" lon="11.403966559939835"><ele>539.3333333333334</ele><time>2026-04-08T13:57:07.999Z</time></trkpt><trkpt lat="43.48866736955487" lon="11.404189755581344"><ele>540.0</ele><time>2026-04-08T13:57:08.999Z</time></trkpt><trkpt lat="43.48867891148722" lon="11.404437190726881"><ele>540.0</ele><time>2026-04-08T13:57:09.999Z</time></trkpt><trkpt lat="43.48873929177912" lon="11.40465001196177"><ele>540.0</ele><time>2026-04-08T13:57:10.999Z</time></trkpt><trkpt lat="43.48881016422168" lon="11.404835880694067"><ele>540.0</ele><time>2026-04-08T13:57:11.999Z</time></trkpt><trkpt lat="43.48887492127793" lon="11.405045424797574"><ele>538.0</ele><time>2026-04-08T13:57:12.999Z</time></trkpt><trkpt lat="43.48893834677237" lon="11.405260921229452"><ele>536.0</ele><time>2026-04-08T13:57:13.999Z</time></trkpt><trkpt lat="43.48898372896607" lon="11.405484163762685"><ele>534.0</ele><time>2026-04-08T13:57:14.999Z</time></trkpt><trkpt lat="43.48902125871728" lon="11.405724523669935"><ele>534.0</ele><time>2026-04-08T13:57:15.999Z</time></trkpt><trkpt lat="43.4890573573506" lon="11.405939506379854"><ele>534.0</ele><time>2026-04-08T13:57:16.999Z</time></trkpt><trkpt lat="43.48913013732446" lon="11.406143484290437"><ele>534.0</ele><time>2026-04-08T13:57:17.999Z</time></trkpt><trkpt lat="43.489188225312326" lon="11.406362824732934"><ele>534.0</ele><time>2026-04-08T13:57:18.999Z</time></trkpt><trkpt lat="43.48930787470548" lon="11.4065677648953"><ele>534.0</ele><time>2026-04-08T13:57:19.999Z</time></trkpt><trkpt lat="43.489435756189245" lon="11.406761119577158"><ele>534.0</ele><time>2026-04-08T13:57:20.999Z</time></trkpt><trkpt lat="43.48957940535995" lon="11.406954939576112"><ele>534.25</ele><time>2026-04-08T13:57:21.999Z</time></trkpt><trkpt lat="43.4896833133886" lon="11.407143170539777"><ele>534.5</ele><time>2026-04-08T13:57:22.999Z</time></trkpt><trkpt lat="43.48977688149776" lon="11.40729309845487"><ele>534.75</ele><time>2026-04-08T13:57:23.999Z</time></trkpt><trkpt lat="43.48985147848719" lon="11.407432676092869"><ele>535.0</ele><time>2026-04-08T13:57:24.999Z</time></trkpt><trkpt lat="43.48990897590115" lon="11.407589037085119"><ele>536.6666666666667</ele><time>2026-04-08T13:57:25.999Z</time></trkpt><trkpt lat="43.48994591096016" lon="11.407785321675744"><ele>538.3333333333334</ele><time>2026-04-08T13:57:26.999Z</time></trkpt><trkpt lat="43.489971363388534" lon="11.407988815842078"><ele>540.0</ele><time>2026-04-08T13:57:27.999Z</time></trkpt><trkpt lat="43.48999196273323" lon="11.408219497666499"><ele>540.6666666666666</ele><time>2026-04-08T13:57:29Z</time></trkpt><trkpt lat="43.49000286013783" lon="11.408452870765505"><ele>541.3333333333333</ele><time>2026-04-08T13:57:30Z</time></trkpt><trkpt lat="43.490012055664884" lon="11.408716131583784"><ele>542.0</ele><time>2026-04-08T13:57:31Z</time></trkpt><trkpt lat="43.49001435010981" lon="11.408987505736995"><ele>543.3333333333333</ele><time>2026-04-08T13:57:32Z</time></trkpt><trkpt lat="43.490000939792786" lon="11.409222087645226"><ele>544.6666666666666</ele><time>2026-04-08T13:57:33Z</time></trkpt><trkpt lat="43.48998534527119" lon="11.409447254846311"><ele>546.0</ele><time>2026-04-08T13:57:34Z</time></trkpt><trkpt lat="43.4899681837007" lon="11.409695048374642"><ele>546.5</ele><time>2026-04-08T13:57:35Z</time></trkpt><trkpt lat="43.48995315288752" lon="11.409912076945965"><ele>547.0</ele><time>2026-04-08T13:57:36Z</time></trkpt><trkpt lat="43.48990750745513" lon="11.410072837062291"><ele>547.5</ele><time>2026-04-08T13:57:37Z</time></trkpt><trkpt lat="43.489846045106056" lon="11.41022672932855"><ele>548.0</ele><time>2026-04-08T13:57:38Z</time></trkpt><trkpt lat="43.489761024650534" lon="11.41040779439931"><ele>548.3333333333333</ele><time>2026-04-08T13:57:39Z</time></trkpt><trkpt lat="43.48965261739147" lon="11.410596682672278"><ele>548.6666666666666</ele><time>2026-04-08T13:57:40Z</time></trkpt><trkpt lat="43.489547395088294" lon="11.410761498035926"><ele>549.0</ele><time>2026-04-08T13:57:41Z</time></trkpt><trkpt lat="43.48946788121396" lon="11.410918178969226"><ele>549.0</ele><time>2026-04-08T13:57:42Z</time></trkpt><trkpt lat="43.48941342920816" lon="11.41108932919709"><ele>549.0</ele><time>2026-04-08T13:57:43Z</time></trkpt><trkpt lat="43.48940107116134" lon="11.411277670422491"><ele>549.0</ele><time>2026-04-08T13:57:44Z</time></trkpt><trkpt lat="43.48940947771527" lon="11.411471400055067"><ele>549.0</ele><time>2026-04-08T13:57:45Z</time></trkpt><trkpt lat="43.489451559785415" lon="11.411677955575009"><ele>549.75</ele><time>2026-04-08T13:57:46Z</time></trkpt><trkpt lat="43.48952136833025" lon="11.411884497668632"><ele>550.5</ele><time>2026-04-08T13:57:47Z</time></trkpt><trkpt lat="43.48959382104279" lon="11.412047404689794"><ele>551.25</ele><time>2026-04-08T13:57:48Z</time></trkpt><trkpt lat="43.48969157338443" lon="11.4121864693758"><ele>552.0</ele><time>2026-04-08T13:57:49Z</time></trkpt><trkpt lat="43.48983000375254" lon="11.412323761013191"><ele>554.0</ele><time>2026-04-08T13:57:50Z</time></trkpt><trkpt lat="43.48998155832446" lon="11.41245307828558"><ele>556.0</ele><time>2026-04-08T13:57:51Z</time></trkpt><trkpt lat="43.49013360672799" lon="11.412590362468958"><ele>558.0</ele><time>2026-04-08T13:57:52Z</time></trkpt><trkpt lat="43.490293590177224" lon="11.412795204049136"><ele>558.0</ele><time>2026-04-08T13:57:53Z</time></trkpt><trkpt lat="43.49041836492262" lon="11.41297457019918"><ele>558.0</ele><time>2026-04-08T13:57:54Z</time></trkpt><trkpt lat="43.49051236207458" lon="11.413140554550226"><ele>558.0</ele><time>2026-04-08T13:57:55Z</time></trkpt><trkpt lat="43.49056898591884" lon="11.413313323867596"><ele>556.75</ele><time>2026-04-08T13:57:56Z</time></trkpt><trkpt lat="43.490585789053796" lon="11.413484810406068"><ele>555.5</ele><time>2026-04-08T13:57:57Z</time></trkpt><trkpt lat="43.49057248872444" lon="11.413670667634054"><ele>554.25</ele><time>2026-04-08T13:57:58Z</time></trkpt><trkpt lat="43.49053638491833" lon="11.41389486872509"><ele>553.0</ele><time>2026-04-08T13:57:59Z</time></trkpt><trkpt lat="43.49049191253322" lon="11.414156425566587"><ele>553.0</ele><time>2026-04-08T13:58:00Z</time></trkpt><trkpt lat="43.49044466081986" lon="11.414459887084474"><ele>553.0</ele><time>2026-04-08T13:58:01Z</time></trkpt><trkpt lat="43.4904010437452" lon="11.414751205999956"><ele>553.0</ele><time>2026-04-08T13:58:02Z</time></trkpt><trkpt lat="43.49035566699891" lon="11.415055723152344"><ele>553.3333333333334</ele><time>2026-04-08T13:58:03Z</time></trkpt><trkpt lat="43.49030486218256" lon="11.415350505938582"><ele>553.6666666666666</ele><time>2026-04-08T13:58:04Z</time></trkpt><trkpt lat="43.49025163452205" lon="11.41561413611147"><ele>554.0</ele><time>2026-04-08T13:58:05Z</time></trkpt><trkpt lat="43.49019575696784" lon="11.415853293329526"><ele>554.6666666666666</ele><time>2026-04-08T13:58:06Z</time></trkpt><trkpt lat="43.49014567362392" lon="11.416063128869395"><ele>555.3333333333334</ele><time>2026-04-08T13:58:07Z</time></trkpt><trkpt lat="43.49009832836534" lon="11.41626310899569"><ele>556.0</ele><time>2026-04-08T13:58:08Z</time></trkpt><trkpt lat="43.49006345639253" lon="11.416455343297914"><ele>558.0</ele><time>2026-04-08T13:58:09Z</time></trkpt><trkpt lat="43.490067398822056" lon="11.416653408524848"><ele>560.0</ele><time>2026-04-08T13:58:10Z</time></trkpt><trkpt lat="43.49007114886076" lon="11.41686929699282"><ele>562.0</ele><time>2026-04-08T13:58:11Z</time></trkpt><trkpt lat="43.49010780558178" lon="11.41709226648857"><ele>563.3333333333334</ele><time>2026-04-08T13:58:12Z</time></trkpt><trkpt lat="43.49016500390962" lon="11.417309051991374"><ele>564.6666666666666</ele><time>2026-04-08T13:58:13Z</time></trkpt><trkpt lat="43.490205355937746" lon="11.417521069688894"><ele>566.0</ele><time>2026-04-08T13:58:14Z</time></trkpt><trkpt lat="43.49028970617299" lon="11.417702260317776"><ele>566.0</ele><time>2026-04-08T13:58:15Z</time></trkpt><trkpt lat="43.4903779577988" lon="11.417872676432884"><ele>566.0</ele><time>2026-04-08T13:58:16Z</time></trkpt><trkpt lat="43.490485912878846" lon="11.417999253163403"><ele>566.0</ele><time>2026-04-08T13:58:17Z</time></trkpt><trkpt lat="43.490606441196164" lon="11.418067712697567"><ele>566.0</ele><time>2026-04-08T13:58:18Z</time></trkpt><trkpt lat="43.49073169863312" lon="11.418127232149384"><ele>566.4</ele><time>2026-04-08T13:58:19Z</time></trkpt><trkpt lat="43.490844394301725" lon="11.418179074775514"><ele>566.8</ele><time>2026-04-08T13:58:20Z</time></trkpt><trkpt lat="43.49092948451181" lon="11.418263207764525"><ele>567.1999999999999</ele><time>2026-04-08T13:58:21Z</time></trkpt><trkpt lat="43.490957137811705" lon="11.418405777218252"><ele>567.6</ele><time>2026-04-08T13:58:22Z</time></trkpt><trkpt lat="43.490968928396626" lon="11.418551074666405"><ele>568.0</ele><time>2026-04-08T13:58:23Z</time></trkpt><trkpt lat="43.49095608245867" lon="11.418735767766158"><ele>566.3333333333334</ele><time>2026-04-08T13:58:24Z</time></trkpt><trkpt lat="43.490959565322555" lon="11.418959781357673"><ele>564.6666666666666</ele><time>2026-04-08T13:58:25Z</time></trkpt><trkpt lat="43.49101042668801" lon="11.419185336223483"><ele>563.0</ele><time>2026-04-08T13:58:26Z</time></trkpt><trkpt lat="43.491054976010425" lon="11.41941316531338"><ele>563.0</ele><time>2026-04-08T13:58:27Z</time></trkpt><trkpt lat="43.49110244752675" lon="11.419644237711443"><ele>563.0</ele><time>2026-04-08T13:58:28Z</time></trkpt><trkpt lat="43.491168043285015" lon="11.419861720174127"><ele>563.0</ele><time>2026-04-08T13:58:29Z</time></trkpt><trkpt lat="43.4912061995603" lon="11.420071297012125"><ele>562.25</ele><time>2026-04-08T13:58:30Z</time></trkpt><trkpt lat="43.49123690279302" lon="11.42026851545073"><ele>561.5</ele><time>2026-04-08T13:58:31Z</time></trkpt><trkpt lat="43.49126058440957" lon="11.420449454668846"><ele>560.75</ele><time>2026-04-08T13:58:32Z</time></trkpt><trkpt lat="43.49125602806113" lon="11.420608405966206"><ele>560.0</ele><time>2026-04-08T13:58:33Z</time></trkpt><trkpt lat="43.49127981017841" lon="11.420763524820481"><ele>560.0</ele><time>2026-04-08T13:58:34Z</time></trkpt><trkpt lat="43.49129917844436" lon="11.42089078299567"><ele>560.0</ele><time>2026-04-08T13:58:35Z</time></trkpt><trkpt lat="43.49131032218353" lon="11.420997453963228"><ele>560.0</ele><time>2026-04-08T13:58:36Z</time></trkpt><trkpt lat="43.491285585342084" lon="11.421144116532869"><ele>560.0</ele><time>2026-04-08T13:58:38Z</time></trkpt><trkpt lat="43.49120143043319" lon="11.421245513667163"><ele>560.0</ele><time>2026-04-08T13:58:41Z</time></trkpt><trkpt lat="43.49114125190668" lon="11.421203207729146"><ele>560.0</ele><time>2026-04-08T13:58:43Z</time></trkpt><trkpt lat="43.49103210658076" lon="11.421228923759436"><ele>560.0</ele><time>2026-04-08T13:58:45Z</time></trkpt><trkpt lat="43.49096571685758" lon="11.42124275451223"><ele>560.0</ele><time>2026-04-08T13:58:46Z</time></trkpt><trkpt lat="43.4908861734589" lon="11.421264375307498"><ele>560.0</ele><time>2026-04-08T13:58:47Z</time></trkpt><trkpt lat="43.49080479392832" lon="11.421282829109408"><ele>560.0</ele><time>2026-04-08T13:58:48Z</time></trkpt><trkpt lat="43.490732069975806" lon="11.421311474319221"><ele>560.0</ele><time>2026-04-08T13:58:49Z</time></trkpt><trkpt lat="43.490651765846835" lon="11.42133258261405"><ele>561.6</ele><time>2026-04-08T13:58:50Z</time></trkpt><trkpt lat="43.4905643756641" lon="11.42135731302907"><ele>563.2</ele><time>2026-04-08T13:58:51Z</time></trkpt><trkpt lat="43.4904705661959" lon="11.421381054520932"><ele>564.8</ele><time>2026-04-08T13:58:52Z</time></trkpt><trkpt lat="43.490372118327734" lon="11.421405300973232"><ele>566.4</ele><time>2026-04-08T13:58:53Z</time></trkpt><trkpt lat="43.490277374449164" lon="11.421433668805996"><ele>568.0</ele><time>2026-04-08T13:58:54Z</time></trkpt><trkpt lat="43.49018525824821" lon="11.421434350070195"><ele>568.0</ele><time>2026-04-08T13:58:55Z</time></trkpt><trkpt lat="43.4900952764419" lon="11.42144585533289"><ele>568.0</ele><time>2026-04-08T13:58:56Z</time></trkpt><trkpt lat="43.489990304161175" lon="11.421512974929676"><ele>568.0</ele><time>2026-04-08T13:58:57Z</time></trkpt><trkpt lat="43.489895121963464" lon="11.421547262816278"><ele>568.0</ele><time>2026-04-08T13:58:58Z</time></trkpt><trkpt lat="43.48977455089998" lon="11.42157222107104"><ele>568.0</ele><time>2026-04-08T13:58:59Z</time></trkpt><trkpt lat="43.48965662545943" lon="11.421634129828895"><ele>564.0</ele><time>2026-04-08T13:59:00Z</time></trkpt><trkpt lat="43.48954460651626" lon="11.421701592381593"><ele>560.0</ele><time>2026-04-08T13:59:00.999Z</time></trkpt><trkpt lat="43.4894434132734" lon="11.421765925299322"><ele>556.0</ele><time>2026-04-08T13:59:01.999Z</time></trkpt><trkpt lat="43.48934032169248" lon="11.421838334584512"><ele>552.0</ele><time>2026-04-08T13:59:02.999Z</time></trkpt><trkpt lat="43.48923441125821" lon="11.421891045698926"><ele>552.0</ele><time>2026-04-08T13:59:03.999Z</time></trkpt><trkpt lat="43.489130212945284" lon="11.421902744742182"><ele>552.0</ele><time>2026-04-08T13:59:04.999Z</time></trkpt><trkpt lat="43.48903137744806" lon="11.421884122321943"><ele>552.0</ele><time>2026-04-08T13:59:05.999Z</time></trkpt><trkpt lat="43.488942678553485" lon="11.421888016483047"><ele>552.0</ele><time>2026-04-08T13:59:06.999Z</time></trkpt><trkpt lat="43.48885572014771" lon="11.421906886040228"><ele>552.0</ele><time>2026-04-08T13:59:07.999Z</time></trkpt><trkpt lat="43.48876564040389" lon="11.42193479147668"><ele>553.0</ele><time>2026-04-08T13:59:08.999Z</time></trkpt><trkpt lat="43.48868484639043" lon="11.421951837751743"><ele>554.0</ele><time>2026-04-08T13:59:09.999Z</time></trkpt><trkpt lat="43.488609400668516" lon="11.42199156152896"><ele>555.0</ele><time>2026-04-08T13:59:10.999Z</time></trkpt><trkpt lat="43.488533619017815" lon="11.422038558910776"><ele>556.0</ele><time>2026-04-08T13:59:11.999Z</time></trkpt><trkpt lat="43.48846333659537" lon="11.422089841791562"><ele>557.0</ele><time>2026-04-08T13:59:12.999Z</time></trkpt><trkpt lat="43.48840790369733" lon="11.42214730225349"><ele>558.0</ele><time>2026-04-08T13:59:13.999Z</time></trkpt><trkpt lat="43.48836249488577" lon="11.422221860448111"><ele>558.0</ele><time>2026-04-08T13:59:14.999Z</time></trkpt><trkpt lat="43.48832796969739" lon="11.422320925406197"><ele>558.0</ele><time>2026-04-08T13:59:15.999Z</time></trkpt><trkpt lat="43.48830244104174" lon="11.422419283258908"><ele>558.0</ele><time>2026-04-08T13:59:16.999Z</time></trkpt><trkpt lat="43.4882695588377" lon="11.42259284256898"><ele>558.0</ele><time>2026-04-08T13:59:18.999Z</time></trkpt><trkpt lat="43.48822445900652" lon="11.422730059505204"><ele>558.0</ele><time>2026-04-08T13:59:20.999Z</time></trkpt><trkpt lat="43.48814369123484" lon="11.4227986446482"><ele>558.0</ele><time>2026-04-08T13:59:22.999Z</time></trkpt><trkpt lat="43.48807424442101" lon="11.422779400768666"><ele>558.0</ele><time>2026-04-08T13:59:23.999Z</time></trkpt><trkpt lat="43.48800065289608" lon="11.422731969329844"><ele>558.0</ele><time>2026-04-08T13:59:24.999Z</time></trkpt><trkpt lat="43.48793343180321" lon="11.422661157207774"><ele>558.0</ele><time>2026-04-08T13:59:25.999Z</time></trkpt><trkpt lat="43.48786372911437" lon="11.422590456454216"><ele>558.0</ele><time>2026-04-08T13:59:26.999Z</time></trkpt><trkpt lat="43.48778652309483" lon="11.422519813451293"><ele>558.0</ele><time>2026-04-08T13:59:27.999Z</time></trkpt><trkpt lat="43.487705440581124" lon="11.422437538376732"><ele>557.1999999999999</ele><time>2026-04-08T13:59:28.999Z</time></trkpt><trkpt lat="43.48760869398121" lon="11.422349146044345"><ele>556.4</ele><time>2026-04-08T13:59:29.999Z</time></trkpt><trkpt lat="43.48752313692912" lon="11.422273359289568"><ele>555.5999999999999</ele><time>2026-04-08T13:59:30.999Z</time></trkpt><trkpt lat="43.48744693857787" lon="11.422204159013392"><ele>554.8</ele><time>2026-04-08T13:59:31.999Z</time></trkpt><trkpt lat="43.48737488031851" lon="11.422136362537755"><ele>554.0</ele><time>2026-04-08T13:59:32.999Z</time></trkpt><trkpt lat="43.487305848180846" lon="11.422066614702093"><ele>552.1666666666666</ele><time>2026-04-08T13:59:33.999Z</time></trkpt><trkpt lat="43.48725378059522" lon="11.422001892564957"><ele>550.3333333333333</ele><time>2026-04-08T13:59:35Z</time></trkpt><trkpt lat="43.487192691007586" lon="11.4219239091295"><ele>548.5</ele><time>2026-04-08T13:59:36Z</time></trkpt><trkpt lat="43.48713466516459" lon="11.421834915431582"><ele>546.6666666666666</ele><time>2026-04-08T13:59:37Z</time></trkpt><trkpt lat="43.487076784599054" lon="11.421731680274672"><ele>544.8333333333334</ele><time>2026-04-08T13:59:38Z</time></trkpt><trkpt lat="43.48701878314076" lon="11.421625198620038"><ele>543.0</ele><time>2026-04-08T13:59:39Z</time></trkpt><trkpt lat="43.48695884070133" lon="11.421510157267551"><ele>543.0</ele><time>2026-04-08T13:59:40Z</time></trkpt><trkpt lat="43.48689682796691" lon="11.421390433485033"><ele>543.0</ele><time>2026-04-08T13:59:41Z</time></trkpt><trkpt lat="43.486833729723514" lon="11.421271694746167"><ele>543.0</ele><time>2026-04-08T13:59:42Z</time></trkpt><trkpt lat="43.486775036540394" lon="11.421156864896334"><ele>543.0</ele><time>2026-04-08T13:59:43Z</time></trkpt><trkpt lat="43.48672046344757" lon="11.421049449952635"><ele>543.0</ele><time>2026-04-08T13:59:44Z</time></trkpt><trkpt lat="43.48665825198493" lon="11.420939912726638"><ele>542.8</ele><time>2026-04-08T13:59:45Z</time></trkpt><trkpt lat="43.486595524632165" lon="11.42083243461445"><ele>542.5999999999999</ele><time>2026-04-08T13:59:46Z</time></trkpt><trkpt lat="43.48653055673451" lon="11.420729016019115"><ele>542.4000000000001</ele><time>2026-04-08T13:59:47Z</time></trkpt><trkpt lat="43.48645974943947" lon="11.420630592306095"><ele>542.2</ele><time>2026-04-08T13:59:48Z</time></trkpt><trkpt lat="43.4863982278689" lon="11.420558905591502"><ele>542.0</ele><time>2026-04-08T13:59:49Z</time></trkpt><trkpt lat="43.486334510320326" lon="11.42049459629059"><ele>543.0</ele><time>2026-04-08T13:59:50Z</time></trkpt><trkpt lat="43.486250889657924" lon="11.42042735013949"><ele>544.0</ele><time>2026-04-08T13:59:51Z</time></trkpt><trkpt lat="43.48616506123984" lon="11.42035574912642"><ele>545.0</ele><time>2026-04-08T13:59:52Z</time></trkpt><trkpt lat="43.48607270089916" lon="11.42029112711421"><ele>546.0</ele><time>2026-04-08T13:59:53Z</time></trkpt><trkpt lat="43.48597606486686" lon="11.420237593724464"><ele>547.0</ele><time>2026-04-08T13:59:54Z</time></trkpt><trkpt lat="43.485869483066864" lon="11.420176049417153"><ele>547.0</ele><time>2026-04-08T13:59:55Z</time></trkpt><trkpt lat="43.48576468484628" lon="11.420117502358341"><ele>547.0</ele><time>2026-04-08T13:59:56Z</time></trkpt><trkpt lat="43.48566097851584" lon="11.42004676652857"><ele>547.0</ele><time>2026-04-08T13:59:57Z</time></trkpt><trkpt lat="43.48555773179595" lon="11.419989320512597"><ele>547.0</ele><time>2026-04-08T13:59:58Z</time></trkpt><trkpt lat="43.48545343016796" lon="11.419936343252694"><ele>548.75</ele><time>2026-04-08T13:59:59Z</time></trkpt><trkpt lat="43.485348396387955" lon="11.419879060455798"><ele>550.5</ele><time>2026-04-08T14:00:00Z</time></trkpt><trkpt lat="43.48524578006267" lon="11.419820666723952"><ele>552.25</ele><time>2026-04-08T14:00:01Z</time></trkpt><trkpt lat="43.48513749156369" lon="11.419756879929848"><ele>554.0</ele><time>2026-04-08T14:00:02Z</time></trkpt><trkpt lat="43.485019828973925" lon="11.419692188719258"><ele>552.8</ele><time>2026-04-08T14:00:03Z</time></trkpt><trkpt lat="43.4848985766336" lon="11.419600438815387"><ele>551.5999999999999</ele><time>2026-04-08T14:00:04Z</time></trkpt><trkpt lat="43.484785162204766" lon="11.41955500833389"><ele>550.4</ele><time>2026-04-08T14:00:05Z</time></trkpt><trkpt lat="43.48469585353299" lon="11.419510877871163"><ele>549.1999999999999</ele><time>2026-04-08T14:00:06Z</time></trkpt><trkpt lat="43.484613598774686" lon="11.419477761974992"><ele>548.0</ele><time>2026-04-08T14:00:07Z</time></trkpt><trkpt lat="43.48453302955589" lon="11.419428164678964"><ele>548.0</ele><time>2026-04-08T14:00:08Z</time></trkpt><trkpt lat="43.48444995137623" lon="11.419416127853692"><ele>548.0</ele><time>2026-04-08T14:00:09Z</time></trkpt><trkpt lat="43.484369368575905" lon="11.419411149541002"><ele>548.0</ele><time>2026-04-08T14:00:10Z</time></trkpt><trkpt lat="43.484285079385366" lon="11.419418834021485"><ele>548.0</ele><time>2026-04-08T14:00:11Z</time></trkpt><trkpt lat="43.48419612944197" lon="11.419442238552211"><ele>548.0</ele><time>2026-04-08T14:00:12Z</time></trkpt><trkpt lat="43.484106825025314" lon="11.419474055249369"><ele>548.0</ele><time>2026-04-08T14:00:13Z</time></trkpt><trkpt lat="43.48401261380587" lon="11.41951785061709"><ele>548.0</ele><time>2026-04-08T14:00:14Z</time></trkpt><trkpt lat="43.483902586301134" lon="11.41958514764172"><ele>548.0</ele><time>2026-04-08T14:00:15Z</time></trkpt><trkpt lat="43.48378346091768" lon="11.419664811634753"><ele>548.0</ele><time>2026-04-08T14:00:16Z</time></trkpt><trkpt lat="43.48367542189455" lon="11.419758385187913"><ele>548.0</ele><time>2026-04-08T14:00:17Z</time></trkpt><trkpt lat="43.48355873229859" lon="11.419809179272097"><ele>547.25</ele><time>2026-04-08T14:00:18Z</time></trkpt><trkpt lat="43.48344656684109" lon="11.419881235357733"><ele>546.5</ele><time>2026-04-08T14:00:19Z</time></trkpt><trkpt lat="43.48332581841226" lon="11.41995904616189"><ele>545.75</ele><time>2026-04-08T14:00:20Z</time></trkpt><trkpt lat="43.48320252257551" lon="11.420039236500477"><ele>545.0</ele><time>2026-04-08T14:00:21Z</time></trkpt><trkpt lat="43.483093159285986" lon="11.420135421228592"><ele>545.0</ele><time>2026-04-08T14:00:22Z</time></trkpt><trkpt lat="43.482967820647076" lon="11.420194745353342"><ele>545.0</ele><time>2026-04-08T14:00:23Z</time></trkpt><trkpt lat="43.48285806945288" lon="11.420269498603343"><ele>545.0</ele><time>2026-04-08T14:00:24Z</time></trkpt><trkpt lat="43.48275278251318" lon="11.420341211194554"><ele>545.0</ele><time>2026-04-08T14:00:25Z</time></trkpt><trkpt lat="43.48265439004928" lon="11.420423877206897"><ele>544.75</ele><time>2026-04-08T14:00:26Z</time></trkpt><trkpt lat="43.48255236110456" lon="11.420496306316107"><ele>544.5</ele><time>2026-04-08T14:00:27Z</time></trkpt><trkpt lat="43.48243948220845" lon="11.420574615856449"><ele>544.25</ele><time>2026-04-08T14:00:28Z</time></trkpt><trkpt lat="43.482320885624254" lon="11.420638801134244"><ele>544.0</ele><time>2026-04-08T14:00:29Z</time></trkpt><trkpt lat="43.482211185682786" lon="11.420718210835917"><ele>544.0</ele><time>2026-04-08T14:00:30Z</time></trkpt><trkpt lat="43.482100510673774" lon="11.420799802021703"><ele>544.0</ele><time>2026-04-08T14:00:31Z</time></trkpt><trkpt lat="43.48200358804397" lon="11.420871942413674"><ele>544.0</ele><time>2026-04-08T14:00:32Z</time></trkpt><trkpt lat="43.481910818883485" lon="11.420942409412561"><ele>544.0</ele><time>2026-04-08T14:00:33Z</time></trkpt><trkpt lat="43.48181973981378" lon="11.421013316159017"><ele>544.0</ele><time>2026-04-08T14:00:34Z</time></trkpt><trkpt lat="43.48172273283208" lon="11.421089750295062"><ele>542.25</ele><time>2026-04-08T14:00:35Z</time></trkpt><trkpt lat="43.48162231080098" lon="11.421169527705954"><ele>540.5</ele><time>2026-04-08T14:00:36Z</time></trkpt><trkpt lat="43.481526870036554" lon="11.421272007320086"><ele>538.75</ele><time>2026-04-08T14:00:37Z</time></trkpt><trkpt lat="43.48141390659527" lon="11.421336916147531"><ele>537.0</ele><time>2026-04-08T14:00:38Z</time></trkpt><trkpt lat="43.48131126063677" lon="11.4214209655727"><ele>537.25</ele><time>2026-04-08T14:00:39Z</time></trkpt><trkpt lat="43.48121004449018" lon="11.421504868978852"><ele>537.5</ele><time>2026-04-08T14:00:40Z</time></trkpt><trkpt lat="43.48110530759814" lon="11.421591690712646"><ele>537.75</ele><time>2026-04-08T14:00:41Z</time></trkpt><trkpt lat="43.4810090979549" lon="11.42167212733095"><ele>538.0</ele><time>2026-04-08T14:00:42Z</time></trkpt><trkpt lat="43.4809168046584" lon="11.42174865805939"><ele>538.0</ele><time>2026-04-08T14:00:43Z</time></trkpt><trkpt lat="43.48082880768837" lon="11.421841345531453"><ele>538.0</ele><time>2026-04-08T14:00:44Z</time></trkpt><trkpt lat="43.480727287125646" lon="11.421927344904946"><ele>538.0</ele><time>2026-04-08T14:00:45Z</time></trkpt><trkpt lat="43.48059389828425" lon="11.422002912178117"><ele>538.0</ele><time>2026-04-08T14:00:46Z</time></trkpt><trkpt lat="43.48049586884993" lon="11.42209155295867"><ele>537.0</ele><time>2026-04-08T14:00:47Z</time></trkpt><trkpt lat="43.48039620446531" lon="11.42216213245196"><ele>536.0</ele><time>2026-04-08T14:00:48Z</time></trkpt><trkpt lat="43.48030815866284" lon="11.422237174477306"><ele>535.0</ele><time>2026-04-08T14:00:49Z</time></trkpt><trkpt lat="43.48021521698083" lon="11.42231860259303"><ele>534.0</ele><time>2026-04-08T14:00:50Z</time></trkpt><trkpt lat="43.48012384101496" lon="11.422410878937258"><ele>533.0</ele><time>2026-04-08T14:00:51Z</time></trkpt><trkpt lat="43.48002974391723" lon="11.422509111081375"><ele>533.0</ele><time>2026-04-08T14:00:52Z</time></trkpt><trkpt lat="43.47992863648984" lon="11.422613821866166"><ele>533.0</ele><time>2026-04-08T14:00:53Z</time></trkpt><trkpt lat="43.47983821062705" lon="11.422718363752548"><ele>533.0</ele><time>2026-04-08T14:00:54Z</time></trkpt><trkpt lat="43.479757165388484" lon="11.422809540845625"><ele>533.0</ele><time>2026-04-08T14:00:55Z</time></trkpt><trkpt lat="43.47968193466777" lon="11.422885475849672"><ele>533.0</ele><time>2026-04-08T14:00:56Z</time></trkpt><trkpt lat="43.479605261112674" lon="11.422968201671802"><ele>533.25</ele><time>2026-04-08T14:00:57Z</time></trkpt><trkpt lat="43.479529485775636" lon="11.423085592398758"><ele>533.5</ele><time>2026-04-08T14:00:58Z</time></trkpt><trkpt lat="43.47945449611488" lon="11.423206050320214"><ele>533.75</ele><time>2026-04-08T14:00:59Z</time></trkpt><trkpt lat="43.47938805601507" lon="11.423339621674433"><ele>534.0</ele><time>2026-04-08T14:01:00Z</time></trkpt><trkpt lat="43.47932562475044" lon="11.423474441263798"><ele>534.0</ele><time>2026-04-08T14:01:01Z</time></trkpt><trkpt lat="43.47925863212241" lon="11.42360598033301"><ele>534.0</ele><time>2026-04-08T14:01:02Z</time></trkpt><trkpt lat="43.47920008602286" lon="11.423712068022354"><ele>534.0</ele><time>2026-04-08T14:01:03Z</time></trkpt><trkpt lat="43.47913573519626" lon="11.423798336034835"><ele>534.0</ele><time>2026-04-08T14:01:04Z</time></trkpt><trkpt lat="43.47906266135826" lon="11.423909033883652"><ele>534.0</ele><time>2026-04-08T14:01:05Z</time></trkpt><trkpt lat="43.47899174834992" lon="11.424010803179582"><ele>532.8</ele><time>2026-04-08T14:01:06Z</time></trkpt><trkpt lat="43.47891730583721" lon="11.424097577548086"><ele>531.5999999999999</ele><time>2026-04-08T14:01:07Z</time></trkpt><trkpt lat="43.47884068361275" lon="11.424187180394448"><ele>530.4</ele><time>2026-04-08T14:01:08Z</time></trkpt><trkpt lat="43.47875509395377" lon="11.42425921347145"><ele>529.1999999999999</ele><time>2026-04-08T14:01:09Z</time></trkpt><trkpt lat="43.47867000168022" lon="11.424320186509066"><ele>528.0</ele><time>2026-04-08T14:01:10Z</time></trkpt><trkpt lat="43.47858036037175" lon="11.424362809041737"><ele>527.0</ele><time>2026-04-08T14:01:11Z</time></trkpt><trkpt lat="43.47849776984474" lon="11.42441727157811"><ele>526.0</ele><time>2026-04-08T14:01:11.999Z</time></trkpt><trkpt lat="43.47842674265165" lon="11.424473410917852"><ele>525.0</ele><time>2026-04-08T14:01:12.999Z</time></trkpt><trkpt lat="43.4783522436845" lon="11.4245248533969"><ele>524.0</ele><time>2026-04-08T14:01:13.999Z</time></trkpt><trkpt lat="43.47829069785484" lon="11.424576814921478"><ele>523.0</ele><time>2026-04-08T14:01:14.999Z</time></trkpt><trkpt lat="43.47818475743035" lon="11.424646707945735"><ele>522.0</ele><time>2026-04-08T14:01:16.999Z</time></trkpt><trkpt lat="43.478098215755686" lon="11.424683737167525"><ele>522.0</ele><time>2026-04-08T14:01:18.999Z</time></trkpt><trkpt lat="43.4780222012449" lon="11.424687664617467"><ele>522.0</ele><time>2026-04-08T14:01:36.999Z</time></trkpt><trkpt lat="43.47794534915446" lon="11.424594630471544"><ele>522.0</ele><time>2026-04-08T14:01:39.999Z</time></trkpt><trkpt lat="43.477874908315506" lon="11.424475860025668"><ele>522.0</ele><time>2026-04-08T14:01:42Z</time></trkpt><trkpt lat="43.47782989186321" lon="11.42439564203752"><ele>522.0</ele><time>2026-04-08T14:01:43Z</time></trkpt><trkpt lat="43.477776876935955" lon="11.424303554119746"><ele>522.0</ele><time>2026-04-08T14:01:44Z</time></trkpt><trkpt lat="43.477720948281046" lon="11.42420557903967"><ele>519.2</ele><time>2026-04-08T14:01:45Z</time></trkpt><trkpt lat="43.47765607170846" lon="11.424107531820118"><ele>516.4000000000001</ele><time>2026-04-08T14:01:46Z</time></trkpt><trkpt lat="43.47758238517423" lon="11.424003165017858"><ele>513.5999999999999</ele><time>2026-04-08T14:01:47Z</time></trkpt><trkpt lat="43.47750539552194" lon="11.423901011980464"><ele>510.79999999999995</ele><time>2026-04-08T14:01:48Z</time></trkpt><trkpt lat="43.47744138819365" lon="11.423796264127246"><ele>508.0</ele><time>2026-04-08T14:01:49Z</time></trkpt><trkpt lat="43.47736354044738" lon="11.423694197877394"><ele>508.0</ele><time>2026-04-08T14:01:50Z</time></trkpt><trkpt lat="43.47729089073095" lon="11.423586941087772"><ele>507.99999999999994</ele><time>2026-04-08T14:01:51Z</time></trkpt><trkpt lat="43.47721455053399" lon="11.42347755298183"><ele>507.99999999999994</ele><time>2026-04-08T14:01:52Z</time></trkpt><trkpt lat="43.477135710859756" lon="11.423378071980782"><ele>508.0</ele><time>2026-04-08T14:01:53Z</time></trkpt><trkpt lat="43.47706295109718" lon="11.42328477620549"><ele>508.0</ele><time>2026-04-08T14:01:54Z</time></trkpt><trkpt lat="43.47699495545212" lon="11.423187202917427"><ele>507.59999999999997</ele><time>2026-04-08T14:01:55Z</time></trkpt><trkpt lat="43.47692041929462" lon="11.423093838412257"><ele>507.19999999999993</ele><time>2026-04-08T14:01:56Z</time></trkpt><trkpt lat="43.47684100847708" lon="11.423009344467815"><ele>506.8</ele><time>2026-04-08T14:01:57Z</time></trkpt><trkpt lat="43.47676358164548" lon="11.422908560825938"><ele>506.4</ele><time>2026-04-08T14:01:58Z</time></trkpt><trkpt lat="43.47666654328664" lon="11.422835836877118"><ele>506.0</ele><time>2026-04-08T14:01:59Z</time></trkpt><trkpt lat="43.47656729178168" lon="11.422774318066015"><ele>506.0</ele><time>2026-04-08T14:02:00Z</time></trkpt><trkpt lat="43.47645888699947" lon="11.422734115687662"><ele>506.0</ele><time>2026-04-08T14:02:01Z</time></trkpt><trkpt lat="43.476356733550745" lon="11.422648945409911"><ele>506.0</ele><time>2026-04-08T14:02:02Z</time></trkpt><trkpt lat="43.47624143692649" lon="11.422580294320271"><ele>506.0</ele><time>2026-04-08T14:02:03Z</time></trkpt><trkpt lat="43.47611592719037" lon="11.422529777852139"><ele>506.0</ele><time>2026-04-08T14:02:04Z</time></trkpt><trkpt lat="43.476004819722874" lon="11.422462602185135"><ele>506.0</ele><time>2026-04-08T14:02:05Z</time></trkpt><trkpt lat="43.47590762916145" lon="11.422401250722412"><ele>506.0</ele><time>2026-04-08T14:02:06Z</time></trkpt><trkpt lat="43.475794772610776" lon="11.42236596208705"><ele>506.0</ele><time>2026-04-08T14:02:07Z</time></trkpt><trkpt lat="43.47569011980851" lon="11.4223175046113"><ele>506.0</ele><time>2026-04-08T14:02:08Z</time></trkpt><trkpt lat="43.4755984406211" lon="11.422311421542167"><ele>506.0</ele><time>2026-04-08T14:02:09Z</time></trkpt><trkpt lat="43.4754949523734" lon="11.422335034058161"><ele>506.0</ele><time>2026-04-08T14:02:10Z</time></trkpt><trkpt lat="43.47539551357631" lon="11.42236776763803"><ele>506.0</ele><time>2026-04-08T14:02:11Z</time></trkpt><trkpt lat="43.475296057636946" lon="11.422429775089073"><ele>506.0</ele><time>2026-04-08T14:02:12Z</time></trkpt><trkpt lat="43.47520396582317" lon="11.422506549420023"><ele>508.20000000000005</ele><time>2026-04-08T14:02:13Z</time></trkpt><trkpt lat="43.475101533306464" lon="11.422569648590342"><ele>510.40000000000003</ele><time>2026-04-08T14:02:14Z</time></trkpt><trkpt lat="43.474999614621495" lon="11.422589775897075"><ele>512.6</ele><time>2026-04-08T14:02:15Z</time></trkpt><trkpt lat="43.474904284647685" lon="11.42261183657384"><ele>514.8000000000001</ele><time>2026-04-08T14:02:16Z</time></trkpt><trkpt lat="43.474825145795506" lon="11.422631689553826"><ele>517.0</ele><time>2026-04-08T14:02:17Z</time></trkpt><trkpt lat="43.474742966383296" lon="11.422590332377135"><ele>517.0</ele><time>2026-04-08T14:02:18Z</time></trkpt><trkpt lat="43.474647050472576" lon="11.422561767845739"><ele>517.0</ele><time>2026-04-08T14:02:19Z</time></trkpt><trkpt lat="43.47454046293853" lon="11.42254771863555"><ele>517.0</ele><time>2026-04-08T14:02:20Z</time></trkpt><trkpt lat="43.47442673788818" lon="11.422504704236035"><ele>517.0</ele><time>2026-04-08T14:02:21Z</time></trkpt><trkpt lat="43.47429504682369" lon="11.42246345231312"><ele>517.75</ele><time>2026-04-08T14:02:22Z</time></trkpt><trkpt lat="43.474174539901384" lon="11.422416199941818"><ele>518.5</ele><time>2026-04-08T14:02:23Z</time></trkpt><trkpt lat="43.474063949957895" lon="11.42239750191641"><ele>519.25</ele><time>2026-04-08T14:02:24Z</time></trkpt><trkpt lat="43.47395098889802" lon="11.422382847086633"><ele>520.0</ele><time>2026-04-08T14:02:25Z</time></trkpt><trkpt lat="43.473831154766785" lon="11.422359217203338"><ele>519.5</ele><time>2026-04-08T14:02:26Z</time></trkpt><trkpt lat="43.47371465245361" lon="11.422328473814247"><ele>519.0</ele><time>2026-04-08T14:02:27Z</time></trkpt><trkpt lat="43.4736105208547" lon="11.422290493601855"><ele>518.5</ele><time>2026-04-08T14:02:28Z</time></trkpt><trkpt lat="43.473504432792694" lon="11.42224755666843"><ele>518.0</ele><time>2026-04-08T14:02:29Z</time></trkpt><trkpt lat="43.473393916730814" lon="11.422202789106477"><ele>518.0</ele><time>2026-04-08T14:02:30Z</time></trkpt><trkpt lat="43.473296649344256" lon="11.422161696307443"><ele>518.0</ele><time>2026-04-08T14:02:31Z</time></trkpt><trkpt lat="43.47319913122063" lon="11.422104039953062"><ele>518.0</ele><time>2026-04-08T14:02:32Z</time></trkpt><trkpt lat="43.47310653965355" lon="11.422037635204997"><ele>518.0</ele><time>2026-04-08T14:02:33Z</time></trkpt><trkpt lat="43.47301482798171" lon="11.421944234167382"><ele>518.0</ele><time>2026-04-08T14:02:34Z</time></trkpt><trkpt lat="43.47292928163353" lon="11.42183141453311"><ele>517.75</ele><time>2026-04-08T14:02:35Z</time></trkpt><trkpt lat="43.472835642084895" lon="11.421722445528282"><ele>517.5</ele><time>2026-04-08T14:02:36Z</time></trkpt><trkpt lat="43.472737301717096" lon="11.421609727621245"><ele>517.25</ele><time>2026-04-08T14:02:37Z</time></trkpt><trkpt lat="43.472643565136956" lon="11.42150764493203"><ele>517.0</ele><time>2026-04-08T14:02:38Z</time></trkpt><trkpt lat="43.47254423737332" lon="11.421428396913738"><ele>517.0</ele><time>2026-04-08T14:02:39Z</time></trkpt><trkpt lat="43.472450667095174" lon="11.421369718872525"><ele>517.0</ele><time>2026-04-08T14:02:40Z</time></trkpt><trkpt lat="43.47235032426913" lon="11.421296945594852"><ele>517.0</ele><time>2026-04-08T14:02:41Z</time></trkpt><trkpt lat="43.472240466536284" lon="11.42124423683045"><ele>517.0</ele><time>2026-04-08T14:02:42Z</time></trkpt><trkpt lat="43.47213302435255" lon="11.421184668731216"><ele>517.0</ele><time>2026-04-08T14:02:43Z</time></trkpt><trkpt lat="43.47203968108994" lon="11.421142455095573"><ele>518.0</ele><time>2026-04-08T14:02:44Z</time></trkpt><trkpt lat="43.47194989945159" lon="11.421089441802884"><ele>519.0</ele><time>2026-04-08T14:02:45Z</time></trkpt><trkpt lat="43.47186310726543" lon="11.421018834338302"><ele>520.0</ele><time>2026-04-08T14:02:46Z</time></trkpt><trkpt lat="43.471775100617165" lon="11.42091888046312"><ele>521.0</ele><time>2026-04-08T14:02:47Z</time></trkpt><trkpt lat="43.47169838567653" lon="11.420791084374708"><ele>522.0</ele><time>2026-04-08T14:02:48Z</time></trkpt><trkpt lat="43.47160714993874" lon="11.42066209989415"><ele>522.0</ele><time>2026-04-08T14:02:49Z</time></trkpt><trkpt lat="43.47151561342449" lon="11.420523270918384"><ele>522.0</ele><time>2026-04-08T14:02:50Z</time></trkpt><trkpt lat="43.47143732298505" lon="11.420369974328311"><ele>522.0</ele><time>2026-04-08T14:02:51Z</time></trkpt><trkpt lat="43.47135372295343" lon="11.420250830074272"><ele>522.0</ele><time>2026-04-08T14:02:52Z</time></trkpt><trkpt lat="43.47128259700364" lon="11.420114407842313"><ele>519.75</ele><time>2026-04-08T14:02:53Z</time></trkpt><trkpt lat="43.47119265371766" lon="11.419972043806233"><ele>517.5</ele><time>2026-04-08T14:02:54Z</time></trkpt><trkpt lat="43.47110225285397" lon="11.419822116923452"><ele>515.25</ele><time>2026-04-08T14:02:55Z</time></trkpt><trkpt lat="43.471009983619034" lon="11.419690148105673"><ele>513.0</ele><time>2026-04-08T14:02:56Z</time></trkpt><trkpt lat="43.47091655273988" lon="11.419563183178473"><ele>511.25</ele><time>2026-04-08T14:02:57Z</time></trkpt><trkpt lat="43.47083134498493" lon="11.419431019268915"><ele>509.5</ele><time>2026-04-08T14:02:58Z</time></trkpt><trkpt lat="43.47074949118376" lon="11.419300308670438"><ele>507.75</ele><time>2026-04-08T14:02:59Z</time></trkpt><trkpt lat="43.47068072159145" lon="11.419170023758946"><ele>506.0</ele><time>2026-04-08T14:03:00Z</time></trkpt><trkpt lat="43.470614150226545" lon="11.419039583567391"><ele>505.99999999999994</ele><time>2026-04-08T14:03:01Z</time></trkpt><trkpt lat="43.47055228117479" lon="11.418921220681161"><ele>506.0</ele><time>2026-04-08T14:03:02Z</time></trkpt><trkpt lat="43.47049536904104" lon="11.418817643988158"><ele>506.0</ele><time>2026-04-08T14:03:03Z</time></trkpt><trkpt lat="43.4704457049336" lon="11.418727011304693"><ele>506.0</ele><time>2026-04-08T14:03:04Z</time></trkpt><trkpt lat="43.47039561703163" lon="11.41865007434356"><ele>505.99999999999994</ele><time>2026-04-08T14:03:05Z</time></trkpt><trkpt lat="43.47035217722275" lon="11.418584647712347"><ele>506.0</ele><time>2026-04-08T14:03:06Z</time></trkpt><trkpt lat="43.47026621426082" lon="11.418473232163256"><ele>505.6</ele><time>2026-04-08T14:03:08Z</time></trkpt><trkpt lat="43.47018712198776" lon="11.418482779198861"><ele>505.20000000000005</ele><time>2026-04-08T14:03:09Z</time></trkpt><trkpt lat="43.47011375106709" lon="11.41860807290088"><ele>504.79999999999995</ele><time>2026-04-08T14:03:10Z</time></trkpt><trkpt lat="43.47006601947787" lon="11.418700001240385"><ele>504.4</ele><time>2026-04-08T14:03:11Z</time></trkpt><trkpt lat="43.47001360337538" lon="11.418793155744806"><ele>504.0</ele><time>2026-04-08T14:03:12Z</time></trkpt><trkpt lat="43.469938670813534" lon="11.418910976147608"><ele>504.0</ele><time>2026-04-08T14:03:13Z</time></trkpt><trkpt lat="43.46985950813221" lon="11.419033647584852"><ele>504.0</ele><time>2026-04-08T14:03:14Z</time></trkpt><trkpt lat="43.469792582397375" lon="11.41914091466414"><ele>504.0</ele><time>2026-04-08T14:03:15Z</time></trkpt><trkpt lat="43.46973755915129" lon="11.419243493434536"><ele>504.0</ele><time>2026-04-08T14:03:16Z</time></trkpt><trkpt lat="43.4696906638392" lon="11.419353570049159"><ele>504.0</ele><time>2026-04-08T14:03:17Z</time></trkpt><trkpt lat="43.46966639279768" lon="11.4194671802104"><ele>504.0</ele><time>2026-04-08T14:03:18Z</time></trkpt><trkpt lat="43.469705733718655" lon="11.419582399214953"><ele>504.0</ele><time>2026-04-08T14:03:19Z</time></trkpt><trkpt lat="43.46974556475202" lon="11.419713205779507"><ele>504.0</ele><time>2026-04-08T14:03:20Z</time></trkpt><trkpt lat="43.4697865806235" lon="11.419877811480966"><ele>504.0</ele><time>2026-04-08T14:03:21Z</time></trkpt><trkpt lat="43.469864091730784" lon="11.420041855333801"><ele>503.0</ele><time>2026-04-08T14:03:22Z</time></trkpt><trkpt lat="43.4699681371949" lon="11.420209816995179"><ele>502.0</ele><time>2026-04-08T14:03:23Z</time></trkpt><trkpt lat="43.47006735194204" lon="11.420414945605708"><ele>501.0</ele><time>2026-04-08T14:03:24Z</time></trkpt><trkpt lat="43.470153666204865" lon="11.420615798521004"><ele>498.25</ele><time>2026-04-08T14:03:25Z</time></trkpt><trkpt lat="43.47024048816915" lon="11.420794663599214"><ele>495.5</ele><time>2026-04-08T14:03:25.999Z</time></trkpt><trkpt lat="43.47031833011372" lon="11.420952772235808"><ele>492.75</ele><time>2026-04-08T14:03:26.999Z</time></trkpt><trkpt lat="43.47036222528786" lon="11.421105912548828"><ele>490.0</ele><time>2026-04-08T14:03:28.999Z</time></trkpt><trkpt lat="43.47036384726256" lon="11.4212464480314"><ele>490.6</ele><time>2026-04-08T14:03:29.999Z</time></trkpt><trkpt lat="43.47031144122836" lon="11.421369627877628"><ele>491.2</ele><time>2026-04-08T14:03:30.999Z</time></trkpt><trkpt lat="43.47022729855376" lon="11.42144844311086"><ele>491.79999999999995</ele><time>2026-04-08T14:03:31.999Z</time></trkpt><trkpt lat="43.47014176409722" lon="11.421535544925748"><ele>492.4</ele><time>2026-04-08T14:03:32.999Z</time></trkpt><trkpt lat="43.470035909430976" lon="11.42162571754733"><ele>493.0</ele><time>2026-04-08T14:03:33.999Z</time></trkpt><trkpt lat="43.469916512147755" lon="11.421707336285365"><ele>493.0</ele><time>2026-04-08T14:03:34.999Z</time></trkpt><trkpt lat="43.46977607776268" lon="11.421797997271408"><ele>493.0</ele><time>2026-04-08T14:03:35.999Z</time></trkpt><trkpt lat="43.46962600221093" lon="11.42190082198626"><ele>493.0</ele><time>2026-04-08T14:03:36.999Z</time></trkpt><trkpt lat="43.469490445884105" lon="11.421999370605052"><ele>492.25</ele><time>2026-04-08T14:03:37.999Z</time></trkpt><trkpt lat="43.469373922317054" lon="11.422109468300492"><ele>491.5</ele><time>2026-04-08T14:03:38.999Z</time></trkpt><trkpt lat="43.469241925445914" lon="11.422183537038286"><ele>490.75</ele><time>2026-04-08T14:03:39.999Z</time></trkpt><trkpt lat="43.46913182914083" lon="11.42226238227934"><ele>490.0</ele><time>2026-04-08T14:03:40.999Z</time></trkpt><trkpt lat="43.46903230605342" lon="11.422332303328211"><ele>490.0</ele><time>2026-04-08T14:03:41.999Z</time></trkpt><trkpt lat="43.46892574222796" lon="11.422407170925327"><ele>490.0</ele><time>2026-04-08T14:03:42.999Z</time></trkpt><trkpt lat="43.46884904967281" lon="11.422461316104656"><ele>490.0</ele><time>2026-04-08T14:03:43.999Z</time></trkpt><trkpt lat="43.46877741296018" lon="11.422513212129461"><ele>490.0</ele><time>2026-04-08T14:03:44.999Z</time></trkpt><trkpt lat="43.468369449912785" lon="11.422827369785987"><ele>487.75</ele><time>2026-04-08T14:03:45.999Z</time></trkpt><trkpt lat="43.46824391793199" lon="11.422923086772593"><ele>485.5</ele><time>2026-04-08T14:03:47Z</time></trkpt><trkpt lat="43.46813179164147" lon="11.422996264119286"><ele>483.25</ele><time>2026-04-08T14:03:48Z</time></trkpt><trkpt lat="43.468019322364086" lon="11.423046912616877"><ele>481.0</ele><time>2026-04-08T14:03:49Z</time></trkpt><trkpt lat="43.467917901292985" lon="11.423055991102972"><ele>480.6666666666667</ele><time>2026-04-08T14:03:50Z</time></trkpt><trkpt lat="43.46780242462177" lon="11.423069682126444"><ele>480.33333333333337</ele><time>2026-04-08T14:03:51Z</time></trkpt><trkpt lat="43.467718117412986" lon="11.42310218976518"><ele>480.0</ele><time>2026-04-08T14:03:52Z</time></trkpt><trkpt lat="43.467653543103125" lon="11.423158382235547"><ele>479.66666666666663</ele><time>2026-04-08T14:03:53Z</time></trkpt><trkpt lat="43.46761246157255" lon="11.423229356440187"><ele>479.3333333333333</ele><time>2026-04-08T14:03:54Z</time></trkpt><trkpt lat="43.46762313756076" lon="11.423338841673878"><ele>479.0</ele><time>2026-04-08T14:03:55Z</time></trkpt><trkpt lat="43.467636841391275" lon="11.42345652941181"><ele>479.0</ele><time>2026-04-08T14:03:56Z</time></trkpt><trkpt lat="43.46768013788889" lon="11.423549380767515"><ele>479.0</ele><time>2026-04-08T14:03:57Z</time></trkpt><trkpt lat="43.467749386675465" lon="11.423625783697293"><ele>479.0</ele><time>2026-04-08T14:03:58Z</time></trkpt><trkpt lat="43.4678496545381" lon="11.423740379115873"><ele>479.0</ele><time>2026-04-08T14:03:59Z</time></trkpt><trkpt lat="43.46798527772583" lon="11.423837655267544"><ele>476.5</ele><time>2026-04-08T14:04:00Z</time></trkpt><trkpt lat="43.46811366945731" lon="11.423934427920788"><ele>474.0</ele><time>2026-04-08T14:04:01Z</time></trkpt><trkpt lat="43.46822943060964" lon="11.424031589730188"><ele>471.5</ele><time>2026-04-08T14:04:02Z</time></trkpt><trkpt lat="43.46833436454406" lon="11.424130970782434"><ele>469.0</ele><time>2026-04-08T14:04:03Z</time></trkpt><trkpt lat="43.468430600166165" lon="11.424209777093436"><ele>469.0</ele><time>2026-04-08T14:04:04Z</time></trkpt><trkpt lat="43.46852707696138" lon="11.424279068391382"><ele>469.0</ele><time>2026-04-08T14:04:05Z</time></trkpt><trkpt lat="43.46863220006936" lon="11.424327556729837"><ele>469.0</ele><time>2026-04-08T14:04:06Z</time></trkpt><trkpt lat="43.46875289494888" lon="11.424357572411903"><ele>469.0</ele><time>2026-04-08T14:04:07Z</time></trkpt><trkpt lat="43.468886786398144" lon="11.424370380688627"><ele>468.5</ele><time>2026-04-08T14:04:08Z</time></trkpt><trkpt lat="43.469046145745786" lon="11.42436984071264"><ele>468.0</ele><time>2026-04-08T14:04:09Z</time></trkpt><trkpt lat="43.469168917335814" lon="11.424389074415622"><ele>467.5</ele><time>2026-04-08T14:04:10Z</time></trkpt><trkpt lat="43.4692839450026" lon="11.424433930190542"><ele>467.0</ele><time>2026-04-08T14:04:11Z</time></trkpt><trkpt lat="43.469393834206706" lon="11.424467389191745"><ele>467.0</ele><time>2026-04-08T14:04:12Z</time></trkpt><trkpt lat="43.46950293185656" lon="11.424508129558944"><ele>467.00000000000006</ele><time>2026-04-08T14:04:13Z</time></trkpt><trkpt lat="43.46960485065762" lon="11.424554771409245"><ele>467.00000000000006</ele><time>2026-04-08T14:04:14Z</time></trkpt><trkpt lat="43.469697157631984" lon="11.424617069052642"><ele>467.0</ele><time>2026-04-08T14:04:15Z</time></trkpt><trkpt lat="43.46976561912856" lon="11.424729314412264"><ele>467.0</ele><time>2026-04-08T14:04:16Z</time></trkpt><trkpt lat="43.46981782178208" lon="11.424847041333617"><ele>465.25</ele><time>2026-04-08T14:04:17Z</time></trkpt><trkpt lat="43.469846828235994" lon="11.424981559156818"><ele>463.5</ele><time>2026-04-08T14:04:18Z</time></trkpt><trkpt lat="43.46986423472473" lon="11.4251694920693"><ele>461.75</ele><time>2026-04-08T14:04:19Z</time></trkpt><trkpt lat="43.469869473382055" lon="11.425372507411028"><ele>460.0</ele><time>2026-04-08T14:04:20Z</time></trkpt><trkpt lat="43.46988092480378" lon="11.425577501074306"><ele>457.0</ele><time>2026-04-08T14:04:21Z</time></trkpt><trkpt lat="43.469895205477236" lon="11.425764518575924"><ele>454.0</ele><time>2026-04-08T14:04:22Z</time></trkpt><trkpt lat="43.46990488998415" lon="11.425943372715471"><ele>451.0</ele><time>2026-04-08T14:04:23Z</time></trkpt><trkpt lat="43.46990430151324" lon="11.426108490769268"><ele>448.0</ele><time>2026-04-08T14:04:24Z</time></trkpt><trkpt lat="43.4698985668081" lon="11.426281293506861"><ele>446.0</ele><time>2026-04-08T14:04:25Z</time></trkpt><trkpt lat="43.46988919055752" lon="11.42644692178605"><ele>444.0</ele><time>2026-04-08T14:04:26Z</time></trkpt><trkpt lat="43.46988593077875" lon="11.426612527360286"><ele>442.0</ele><time>2026-04-08T14:04:27Z</time></trkpt><trkpt lat="43.46986538856924" lon="11.426773342621441"><ele>440.0</ele><time>2026-04-08T14:04:28Z</time></trkpt><trkpt lat="43.469844844585616" lon="11.426932749244216"><ele>440.0</ele><time>2026-04-08T14:04:29Z</time></trkpt><trkpt lat="43.46979610326417" lon="11.427084743443777"><ele>440.0</ele><time>2026-04-08T14:04:30Z</time></trkpt><trkpt lat="43.469742952329725" lon="11.427242035236867"><ele>440.0</ele><time>2026-04-08T14:04:31Z</time></trkpt><trkpt lat="43.46967793571234" lon="11.427396021249713"><ele>440.0</ele><time>2026-04-08T14:04:32Z</time></trkpt><trkpt lat="43.46959674334195" lon="11.427554490441265"><ele>434.0</ele><time>2026-04-08T14:04:33Z</time></trkpt><trkpt lat="43.46950577751058" lon="11.427711696567936"><ele>428.0</ele><time>2026-04-08T14:04:34Z</time></trkpt><trkpt lat="43.46940815196032" lon="11.427870829331717"><ele>422.0</ele><time>2026-04-08T14:04:35Z</time></trkpt><trkpt lat="43.46930770862926" lon="11.428032028849548"><ele>421.75</ele><time>2026-04-08T14:04:36Z</time></trkpt><trkpt lat="43.469211874275416" lon="11.428188302482154"><ele>421.5</ele><time>2026-04-08T14:04:37Z</time></trkpt><trkpt lat="43.469115707684026" lon="11.428348028801746"><ele>421.25</ele><time>2026-04-08T14:04:38Z</time></trkpt><trkpt lat="43.46902265179308" lon="11.428501639367852"><ele>421.0</ele><time>2026-04-08T14:04:39Z</time></trkpt><trkpt lat="43.46893362124625" lon="11.428646674444552"><ele>421.0</ele><time>2026-04-08T14:04:40Z</time></trkpt><trkpt lat="43.46884084501887" lon="11.428797160861345"><ele>421.0</ele><time>2026-04-08T14:04:41Z</time></trkpt><trkpt lat="43.46875124470351" lon="11.42893899004034"><ele>421.0</ele><time>2026-04-08T14:04:42Z</time></trkpt><trkpt lat="43.46865921281374" lon="11.429084668182092"><ele>421.0</ele><time>2026-04-08T14:04:43Z</time></trkpt><trkpt lat="43.46857171667098" lon="11.429219980847357"><ele>417.75</ele><time>2026-04-08T14:04:44Z</time></trkpt><trkpt lat="43.46848864089608" lon="11.429347627463445"><ele>414.5</ele><time>2026-04-08T14:04:45Z</time></trkpt><trkpt lat="43.46840739529632" lon="11.429466632317991"><ele>411.25</ele><time>2026-04-08T14:04:46Z</time></trkpt><trkpt lat="43.46832481452651" lon="11.429564419275279"><ele>408.0</ele><time>2026-04-08T14:04:47Z</time></trkpt><trkpt lat="43.46823252788515" lon="11.429648225453846"><ele>406.75</ele><time>2026-04-08T14:04:48Z</time></trkpt><trkpt lat="43.46811664398029" lon="11.42972057399235"><ele>405.5</ele><time>2026-04-08T14:04:49Z</time></trkpt><trkpt lat="43.46799962097014" lon="11.429798570597868"><ele>404.25</ele><time>2026-04-08T14:04:50Z</time></trkpt><trkpt lat="43.46787598391848" lon="11.429885134599209"><ele>403.0</ele><time>2026-04-08T14:04:51Z</time></trkpt><trkpt lat="43.467758050834725" lon="11.42996770498999"><ele>401.75</ele><time>2026-04-08T14:04:52Z</time></trkpt><trkpt lat="43.467646665185576" lon="11.430045691212335"><ele>400.5</ele><time>2026-04-08T14:04:53Z</time></trkpt><trkpt lat="43.46753431368365" lon="11.430123855467642"><ele>399.25</ele><time>2026-04-08T14:04:54Z</time></trkpt><trkpt lat="43.467426664879376" lon="11.430197604436785"><ele>398.0</ele><time>2026-04-08T14:04:55Z</time></trkpt><trkpt lat="43.46732256458093" lon="11.43026696493231"><ele>398.0</ele><time>2026-04-08T14:04:56Z</time></trkpt><trkpt lat="43.46722592242544" lon="11.43032962174498"><ele>398.0</ele><time>2026-04-08T14:04:57Z</time></trkpt><trkpt lat="43.46713054586264" lon="11.430396555694358"><ele>398.0</ele><time>2026-04-08T14:04:58Z</time></trkpt><trkpt lat="43.46704107204637" lon="11.43045548272454"><ele>398.0</ele><time>2026-04-08T14:04:59Z</time></trkpt><trkpt lat="43.46694699094612" lon="11.430515276487329"><ele>398.0</ele><time>2026-04-08T14:05:00Z</time></trkpt><trkpt lat="43.46686729769636" lon="11.430588253050924"><ele>396.57142857142856</ele><time>2026-04-08T14:05:01Z</time></trkpt><trkpt lat="43.46678926243809" lon="11.430634621478609"><ele>395.1428571428571</ele><time>2026-04-08T14:05:02Z</time></trkpt><trkpt lat="43.46672013140926" lon="11.43067804651662"><ele>393.71428571428567</ele><time>2026-04-08T14:05:03Z</time></trkpt><trkpt lat="43.466665059687095" lon="11.430720305903828"><ele>392.2857142857143</ele><time>2026-04-08T14:05:04Z</time></trkpt><trkpt lat="43.466605917637125" lon="11.430767355446596"><ele>390.8571428571429</ele><time>2026-04-08T14:05:05Z</time></trkpt><trkpt lat="43.466587758514706" lon="11.430852307178307"><ele>389.4285714285714</ele><time>2026-04-08T14:05:06Z</time></trkpt><trkpt lat="43.46659934963778" lon="11.43094267605213"><ele>388.0</ele><time>2026-04-08T14:05:07Z</time></trkpt><trkpt lat="43.46667405142321" lon="11.43102061852394"><ele>388.0</ele><time>2026-04-08T14:05:08Z</time></trkpt><trkpt lat="43.46673873785881" lon="11.431119239231242"><ele>388.0</ele><time>2026-04-08T14:05:09Z</time></trkpt><trkpt lat="43.4668301318155" lon="11.431209059084606"><ele>388.0</ele><time>2026-04-08T14:05:10Z</time></trkpt><trkpt lat="43.4669372771431" lon="11.431282976001102"><ele>388.0</ele><time>2026-04-08T14:05:11Z</time></trkpt><trkpt lat="43.46705741129007" lon="11.431339020312102"><ele>385.0</ele><time>2026-04-08T14:05:12Z</time></trkpt><trkpt lat="43.4671775473564" lon="11.431374536811248"><ele>382.0</ele><time>2026-04-08T14:05:13Z</time></trkpt><trkpt lat="43.46729019276813" lon="11.431407965925569"><ele>379.0</ele><time>2026-04-08T14:05:14Z</time></trkpt><trkpt lat="43.46738564921256" lon="11.431479097981951"><ele>376.0</ele><time>2026-04-08T14:05:15Z</time></trkpt><trkpt lat="43.467481778652264" lon="11.431539345087822"><ele>376.0</ele><time>2026-04-08T14:05:16Z</time></trkpt><trkpt lat="43.46757895640417" lon="11.431607851333942"><ele>376.0</ele><time>2026-04-08T14:05:17Z</time></trkpt><trkpt lat="43.46766585962179" lon="11.431678896862453"><ele>376.0</ele><time>2026-04-08T14:05:18Z</time></trkpt><trkpt lat="43.46776456461707" lon="11.431745965819667"><ele>376.0</ele><time>2026-04-08T14:05:19Z</time></trkpt><trkpt lat="43.4678521529788" lon="11.431867087594386"><ele>376.0</ele><time>2026-04-08T14:05:20Z</time></trkpt><trkpt lat="43.467948436533085" lon="11.43197466655063"><ele>375.8</ele><time>2026-04-08T14:05:21Z</time></trkpt><trkpt lat="43.468023400514475" lon="11.432064042107879"><ele>375.6</ele><time>2026-04-08T14:05:22Z</time></trkpt><trkpt lat="43.46807754100155" lon="11.432128827793193"><ele>375.4</ele><time>2026-04-08T14:05:23Z</time></trkpt><trkpt lat="43.46814125028396" lon="11.432197601964814"><ele>375.2</ele><time>2026-04-08T14:05:25Z</time></trkpt><trkpt lat="43.46802882673041" lon="11.432283702174415"><ele>375.0</ele><time>2026-04-08T14:05:28.999Z</time></trkpt><trkpt lat="43.46795087125244" lon="11.43232702874876"><ele>372.4</ele><time>2026-04-08T14:05:29.999Z</time></trkpt><trkpt lat="43.46786388829947" lon="11.432382108162765"><ele>369.8</ele><time>2026-04-08T14:05:30.999Z</time></trkpt><trkpt lat="43.46777449472194" lon="11.432438553154244"><ele>367.20000000000005</ele><time>2026-04-08T14:05:31.999Z</time></trkpt><trkpt lat="43.467678284183876" lon="11.43249944054955"><ele>364.6</ele><time>2026-04-08T14:05:32.999Z</time></trkpt><trkpt lat="43.46755958517467" lon="11.432575629769524"><ele>362.0</ele><time>2026-04-08T14:05:33.999Z</time></trkpt><trkpt lat="43.467464595844916" lon="11.432636600458864"><ele>362.0</ele><time>2026-04-08T14:05:34.999Z</time></trkpt><trkpt lat="43.46737175323174" lon="11.432719645001757"><ele>362.0</ele><time>2026-04-08T14:05:35.999Z</time></trkpt><trkpt lat="43.467263809351344" lon="11.432777052353938"><ele>362.0</ele><time>2026-04-08T14:05:36.999Z</time></trkpt><trkpt lat="43.4671730705758" lon="11.432829905397337"><ele>362.0</ele><time>2026-04-08T14:05:37.999Z</time></trkpt><trkpt lat="43.467090530068525" lon="11.432888716089485"><ele>362.0</ele><time>2026-04-08T14:05:38.999Z</time></trkpt><trkpt lat="43.467012803423806" lon="11.43294141363352"><ele>360.33333333333337</ele><time>2026-04-08T14:05:39.999Z</time></trkpt><trkpt lat="43.46693812064902" lon="11.43299097084345"><ele>358.6666666666667</ele><time>2026-04-08T14:05:40.999Z</time></trkpt><trkpt lat="43.46685967917451" lon="11.43303995476448"><ele>357.0</ele><time>2026-04-08T14:05:41.999Z</time></trkpt><trkpt lat="43.466771349897954" lon="11.433097666436618"><ele>355.3333333333333</ele><time>2026-04-08T14:05:42.999Z</time></trkpt><trkpt lat="43.46668855036759" lon="11.433151197146417"><ele>353.66666666666663</ele><time>2026-04-08T14:05:43.999Z</time></trkpt><trkpt lat="43.46661294878062" lon="11.433201414720376"><ele>352.0</ele><time>2026-04-08T14:05:44.999Z</time></trkpt><trkpt lat="43.4665327936988" lon="11.433252115547747"><ele>352.0</ele><time>2026-04-08T14:05:45.999Z</time></trkpt><trkpt lat="43.466435952499815" lon="11.433313521202836"><ele>352.0</ele><time>2026-04-08T14:05:46.999Z</time></trkpt><trkpt lat="43.46632709950861" lon="11.433376604911222"><ele>352.0</ele><time>2026-04-08T14:05:47.999Z</time></trkpt><trkpt lat="43.4662364462353" lon="11.433418629791175"><ele>352.0</ele><time>2026-04-08T14:05:48.999Z</time></trkpt><trkpt lat="43.46614424770191" lon="11.433439153607736"><ele>352.0</ele><time>2026-04-08T14:05:49.999Z</time></trkpt><trkpt lat="43.466043244788615" lon="11.433426998453301"><ele>351.20000000000005</ele><time>2026-04-08T14:05:50.999Z</time></trkpt><trkpt lat="43.465945760465814" lon="11.433403914815655"><ele>350.4</ele><time>2026-04-08T14:05:51.999Z</time></trkpt><trkpt lat="43.46586722374993" lon="11.433380225376188"><ele>349.6</ele><time>2026-04-08T14:05:53Z</time></trkpt><trkpt lat="43.46577643536037" lon="11.433353396498863"><ele>348.79999999999995</ele><time>2026-04-08T14:05:54Z</time></trkpt><trkpt lat="43.46565719031541" lon="11.433323669953168"><ele>348.0</ele><time>2026-04-08T14:05:55Z</time></trkpt><trkpt lat="43.46554970964797" lon="11.433299618713317"><ele>348.0</ele><time>2026-04-08T14:05:56Z</time></trkpt><trkpt lat="43.46546213074217" lon="11.433258647031955"><ele>348.0</ele><time>2026-04-08T14:05:57Z</time></trkpt><trkpt lat="43.46538481738441" lon="11.433196036469187"><ele>348.0</ele><time>2026-04-08T14:05:58Z</time></trkpt><trkpt lat="43.46531200509908" lon="11.433125383860249"><ele>348.0</ele><time>2026-04-08T14:05:59Z</time></trkpt><trkpt lat="43.46524336762483" lon="11.43306942375939"><ele>348.0</ele><time>2026-04-08T14:06:00Z</time></trkpt><trkpt lat="43.46516609496158" lon="11.433042718952928"><ele>348.0</ele><time>2026-04-08T14:06:01Z</time></trkpt><trkpt lat="43.46509651255242" lon="11.433035087768523"><ele>348.0</ele><time>2026-04-08T14:06:02Z</time></trkpt><trkpt lat="43.46500317600881" lon="11.43310118420634"><ele>348.0</ele><time>2026-04-08T14:06:04Z</time></trkpt><trkpt lat="43.46498388151489" lon="11.43321630522581"><ele>348.0</ele><time>2026-04-08T14:06:07Z</time></trkpt><trkpt lat="43.46502008422561" lon="11.433336561879408"><ele>348.0</ele><time>2026-04-08T14:06:09Z</time></trkpt><trkpt lat="43.46506809424881" lon="11.433405409546504"><ele>348.0</ele><time>2026-04-08T14:06:10Z</time></trkpt><trkpt lat="43.46513064684988" lon="11.433483134777568"><ele>348.0</ele><time>2026-04-08T14:06:11Z</time></trkpt><trkpt lat="43.465194914106675" lon="11.433571345330048"><ele>348.0</ele><time>2026-04-08T14:06:12Z</time></trkpt><trkpt lat="43.46526106124785" lon="11.433667188411485"><ele>348.0</ele><time>2026-04-08T14:06:13Z</time></trkpt><trkpt lat="43.465334163121845" lon="11.433781186393134"><ele>348.0</ele><time>2026-04-08T14:06:14Z</time></trkpt><trkpt lat="43.46539804324048" lon="11.433911049034744"><ele>348.0</ele><time>2026-04-08T14:06:15Z</time></trkpt><trkpt lat="43.46549374050913" lon="11.434001040717693"><ele>348.0</ele><time>2026-04-08T14:06:16Z</time></trkpt><trkpt lat="43.46559034215606" lon="11.434097358459212"><ele>348.0</ele><time>2026-04-08T14:06:17Z</time></trkpt><trkpt lat="43.465683746187025" lon="11.434158783727689"><ele>348.0</ele><time>2026-04-08T14:06:18Z</time></trkpt><trkpt lat="43.46577607342513" lon="11.434200109299454"><ele>348.0</ele><time>2026-04-08T14:06:19Z</time></trkpt><trkpt lat="43.46588079138967" lon="11.434238323121757"><ele>348.0</ele><time>2026-04-08T14:06:20Z</time></trkpt><trkpt lat="43.465976798246906" lon="11.434274799652192"><ele>348.0</ele><time>2026-04-08T14:06:21Z</time></trkpt><trkpt lat="43.46607138570184" lon="11.434306250972565"><ele>348.0</ele><time>2026-04-08T14:06:22Z</time></trkpt><trkpt lat="43.46617033549052" lon="11.434338303339864"><ele>348.0</ele><time>2026-04-08T14:06:23Z</time></trkpt><trkpt lat="43.46627001386815" lon="11.434358233716955"><ele>348.0</ele><time>2026-04-08T14:06:24Z</time></trkpt><trkpt lat="43.4663725996043" lon="11.434371315249704"><ele>348.0</ele><time>2026-04-08T14:06:25Z</time></trkpt><trkpt lat="43.46647893364019" lon="11.434377962793524"><ele>348.0</ele><time>2026-04-08T14:06:26Z</time></trkpt><trkpt lat="43.46657330512411" lon="11.434384646286594"><ele>348.5</ele><time>2026-04-08T14:06:27Z</time></trkpt><trkpt lat="43.46666098360198" lon="11.434388382328645"><ele>349.0</ele><time>2026-04-08T14:06:28Z</time></trkpt><trkpt lat="43.46674693279333" lon="11.434385461951766"><ele>349.5</ele><time>2026-04-08T14:06:29Z</time></trkpt><trkpt lat="43.466834768372095" lon="11.434370656604708"><ele>350.0</ele><time>2026-04-08T14:06:30Z</time></trkpt><trkpt lat="43.46692570195383" lon="11.434358078857416"><ele>350.5</ele><time>2026-04-08T14:06:31Z</time></trkpt><trkpt lat="43.467013445598596" lon="11.434338082959375"><ele>351.0</ele><time>2026-04-08T14:06:32Z</time></trkpt><trkpt lat="43.467088961294074" lon="11.434318670467862"><ele>351.5</ele><time>2026-04-08T14:06:33Z</time></trkpt><trkpt lat="43.467157068614945" lon="11.434306065210807"><ele>352.0</ele><time>2026-04-08T14:06:34Z</time></trkpt><trkpt lat="43.467247277253996" lon="11.434298780667124"><ele>352.5</ele><time>2026-04-08T14:06:36Z</time></trkpt><trkpt lat="43.46731345347258" lon="11.434288900297695"><ele>353.0</ele><time>2026-04-08T14:06:40Z</time></trkpt><trkpt lat="43.467373565606636" lon="11.434247183740911"><ele>353.5</ele><time>2026-04-08T14:07:57.999Z</time></trkpt><trkpt lat="43.46748682824229" lon="11.434218118994051"><ele>354.0</ele><time>2026-04-08T14:08:00Z</time></trkpt><trkpt lat="43.467554228243095" lon="11.43422269971321"><ele>354.0</ele><time>2026-04-08T14:08:02Z</time></trkpt><trkpt lat="43.46752449940093" lon="11.434318115511216"><ele>354.0</ele><time>2026-04-08T14:08:04Z</time></trkpt><trkpt lat="43.467502580804435" lon="11.434408588564802"><ele>354.0</ele><time>2026-04-08T14:10:32Z</time></trkpt><trkpt lat="43.46742545734118" lon="11.434434776178295"><ele>354.0</ele><time>2026-04-08T14:10:33Z</time></trkpt><trkpt lat="43.4674853684764" lon="11.434334094040382"><ele>354.0</ele><time>2026-04-08T14:10:39Z</time></trkpt><trkpt lat="43.46755509473825" lon="11.434281333420216"><ele>354.0</ele><time>2026-04-08T14:10:43Z</time></trkpt><trkpt lat="43.467515413838775" lon="11.43437739045274"><ele>354.0</ele><time>2026-04-08T14:11:07Z</time></trkpt><trkpt lat="43.467458625142" lon="11.434415174853857"><ele>354.0</ele><time>2026-04-08T14:11:11Z</time></trkpt><trkpt lat="43.4673947020851" lon="11.43445347622832"><ele>354.0</ele><time>2026-04-08T14:11:16Z</time></trkpt><trkpt lat="43.46733379568159" lon="11.434480694473724"><ele>354.0</ele><time>2026-04-08T14:11:20Z</time></trkpt><trkpt lat="43.467282536979376" lon="11.434536476924956"><ele>354.0</ele><time>2026-04-08T14:11:24Z</time></trkpt><trkpt lat="43.46721465861312" lon="11.434504340928921"><ele>354.0</ele><time>2026-04-08T14:11:35.999Z</time></trkpt><trkpt lat="43.46717197475297" lon="11.434578076398155"><ele>354.0</ele><time>2026-04-08T14:11:40.999Z</time></trkpt><trkpt lat="43.4672282421759" lon="11.434535032656727"><ele>354.0</ele><time>2026-04-08T14:12:03.999Z</time></trkpt><trkpt lat="43.46729490814452" lon="11.434498745615127"><ele>354.0</ele><time>2026-04-08T14:12:09.999Z</time></trkpt><trkpt lat="43.467349692936295" lon="11.434444780738344"><ele>354.0</ele><time>2026-04-08T14:12:15Z</time></trkpt><trkpt lat="43.46740633179967" lon="11.434388103502526"><ele>354.0</ele><time>2026-04-08T14:12:21Z</time></trkpt><trkpt lat="43.46745568108239" lon="11.434334075695174"><ele>354.0</ele><time>2026-04-08T14:12:28Z</time></trkpt><trkpt lat="43.467503811917794" lon="11.434276488876458"><ele>354.0</ele><time>2026-04-08T14:12:36Z</time></trkpt><trkpt lat="43.46756837655146" lon="11.434256586113197"><ele>354.0</ele><time>2026-04-08T14:12:42Z</time></trkpt><trkpt lat="43.467530710231976" lon="11.434343755762091"><ele>354.0</ele><time>2026-04-08T14:13:28Z</time></trkpt><trkpt lat="43.46747959434283" lon="11.43442136969293"><ele>354.0</ele><time>2026-04-08T14:13:30Z</time></trkpt><trkpt lat="43.46744120159276" lon="11.434349626878825"><ele>354.0</ele><time>2026-04-08T14:13:37.999Z</time></trkpt><trkpt lat="43.467506175935405" lon="11.434335469198793"><ele>354.0</ele><time>2026-04-08T14:16:07.999Z</time></trkpt><trkpt lat="43.46757454390749" lon="11.434338992717777"><ele>354.0</ele><time>2026-04-08T14:16:18.999Z</time></trkpt><trkpt lat="43.467641504848054" lon="11.434342625268057"><ele>354.0</ele><time>2026-04-08T14:16:25Z</time></trkpt><trkpt lat="43.46771357178988" lon="11.434347277450367"><ele>354.0</ele><time>2026-04-08T14:16:32Z</time></trkpt><trkpt lat="43.4677874364154" lon="11.434323637446733"><ele>354.0</ele><time>2026-04-08T14:16:39Z</time></trkpt><trkpt lat="43.46784580804477" lon="11.434290167404178"><ele>354.0</ele><time>2026-04-08T14:16:45Z</time></trkpt><trkpt lat="43.467911185323416" lon="11.434278345382443"><ele>354.0</ele><time>2026-04-08T14:16:50Z</time></trkpt><trkpt lat="43.46794830857089" lon="11.434202683484452"><ele>354.0</ele><time>2026-04-08T14:16:54Z</time></trkpt><trkpt lat="43.468006684554354" lon="11.434162063401478"><ele>354.0</ele><time>2026-04-08T14:17:00Z</time></trkpt><trkpt lat="43.4680699546407" lon="11.434117060038483"><ele>354.0</ele><time>2026-04-08T14:17:06Z</time></trkpt><trkpt lat="43.46813238889186" lon="11.43406702936344"><ele>354.0</ele><time>2026-04-08T14:17:13Z</time></trkpt><trkpt lat="43.468192048137276" lon="11.43401862040875"><ele>354.5714285714286</ele><time>2026-04-08T14:17:19Z</time></trkpt><trkpt lat="43.468254655931254" lon="11.434000678325523"><ele>355.1428571428571</ele><time>2026-04-08T14:17:24Z</time></trkpt><trkpt lat="43.46831793186106" lon="11.433990576884073"><ele>355.7142857142857</ele><time>2026-04-08T14:17:30Z</time></trkpt><trkpt lat="43.46835563715161" lon="11.43390988878387"><ele>356.28571428571433</ele><time>2026-04-08T14:17:36Z</time></trkpt><trkpt lat="43.468425694243614" lon="11.433869474203812"><ele>356.8571428571429</ele><time>2026-04-08T14:17:56.999Z</time></trkpt><trkpt lat="43.46836043415468" lon="11.433945118750502"><ele>357.42857142857144</ele><time>2026-04-08T14:20:29Z</time></trkpt><trkpt lat="43.4683758317068" lon="11.433848303440511"><ele>358.0</ele><time>2026-04-08T14:27:46Z</time></trkpt><trkpt lat="43.46835639058033" lon="11.433958002510346"><ele>358.00000000000006</ele><time>2026-04-08T14:28:14.999Z</time></trkpt><trkpt lat="43.46836953232274" lon="11.433871759328975"><ele>358.0</ele><time>2026-04-08T14:28:31.999Z</time></trkpt><trkpt lat="43.46833611913096" lon="11.433767422988177"><ele>358.0</ele><time>2026-04-08T14:28:43.999Z</time></trkpt><trkpt lat="43.46829709789316" lon="11.433854661093443"><ele>358.0</ele><time>2026-04-08T14:28:49Z</time></trkpt><trkpt lat="43.468236935950515" lon="11.433886594032261"><ele>358.0</ele><time>2026-04-08T14:28:54Z</time></trkpt><trkpt lat="43.46817708754112" lon="11.433916312845373"><ele>358.00000000000006</ele><time>2026-04-08T14:29:01Z</time></trkpt><trkpt lat="43.46813398877178" lon="11.433993131192107"><ele>358.0</ele><time>2026-04-08T14:29:06Z</time></trkpt><trkpt lat="43.468081886977565" lon="11.43405433354592"><ele>358.00000000000006</ele><time>2026-04-08T14:29:14Z</time></trkpt><trkpt lat="43.468023949258004" lon="11.434100227296865"><ele>358.0</ele><time>2026-04-08T14:29:22Z</time></trkpt><trkpt lat="43.46797473999368" lon="11.434156815154882"><ele>358.0</ele><time>2026-04-08T14:29:27Z</time></trkpt><trkpt lat="43.4679221554106" lon="11.434219094088311"><ele>358.0</ele><time>2026-04-08T14:29:32Z</time></trkpt><trkpt lat="43.467852826133075" lon="11.434263546396576"><ele>358.0</ele><time>2026-04-08T14:29:39Z</time></trkpt><trkpt lat="43.4677753566284" lon="11.434271400940819"><ele>358.00000000000006</ele><time>2026-04-08T14:29:48Z</time></trkpt><trkpt lat="43.467708916185885" lon="11.434268630406297"><ele>358.0</ele><time>2026-04-08T14:29:53Z</time></trkpt><trkpt lat="43.46764550799523" lon="11.434287025049972"><ele>357.42857142857144</ele><time>2026-04-08T14:29:59Z</time></trkpt><trkpt lat="43.46759005358158" lon="11.434239676947636"><ele>356.8571428571429</ele><time>2026-04-08T14:30:08Z</time></trkpt><trkpt lat="43.46754885279853" lon="11.434144515951715"><ele>356.28571428571433</ele><time>2026-04-08T14:30:15Z</time></trkpt><trkpt lat="43.46753508205956" lon="11.434045482045303"><ele>355.7142857142857</ele><time>2026-04-08T14:30:18.999Z</time></trkpt><trkpt lat="43.46748522567619" lon="11.433986964936187"><ele>355.1428571428571</ele><time>2026-04-08T14:30:25.999Z</time></trkpt><trkpt lat="43.467416399508565" lon="11.433981555060987"><ele>354.5714285714286</ele><time>2026-04-08T14:30:30.999Z</time></trkpt><trkpt lat="43.46735299156242" lon="11.433930141656434"><ele>354.0</ele><time>2026-04-08T14:30:38.999Z</time></trkpt><trkpt lat="43.467336302254274" lon="11.433827113184535"><ele>354.14285714285717</ele><time>2026-04-08T14:30:43.999Z</time></trkpt><trkpt lat="43.46733774513226" lon="11.433730826376884"><ele>354.2857142857143</ele><time>2026-04-08T14:30:46.999Z</time></trkpt><trkpt lat="43.46735686802439" lon="11.433627396702041"><ele>354.42857142857144</ele><time>2026-04-08T14:30:49.999Z</time></trkpt><trkpt lat="43.46734885083803" lon="11.433537194720264"><ele>354.57142857142856</ele><time>2026-04-08T14:30:54Z</time></trkpt><trkpt lat="43.467309063617755" lon="11.433469918103503"><ele>354.7142857142857</ele><time>2026-04-08T14:31:01Z</time></trkpt><trkpt lat="43.4673280557502" lon="11.433556699613652"><ele>354.85714285714283</ele><time>2026-04-08T14:31:33Z</time></trkpt><trkpt lat="43.467378348224834" lon="11.433619389671497"><ele>355.0</ele><time>2026-04-08T14:31:38Z</time></trkpt><trkpt lat="43.467389970564305" lon="11.433737812523892"><ele>354.85714285714283</ele><time>2026-04-08T14:31:42Z</time></trkpt><trkpt lat="43.467421866954254" lon="11.433837927115421"><ele>354.7142857142857</ele><time>2026-04-08T14:31:47Z</time></trkpt><trkpt lat="43.46746776206768" lon="11.433898405528298"><ele>354.57142857142856</ele><time>2026-04-08T14:31:53Z</time></trkpt><trkpt lat="43.46751030611682" lon="11.43397542676102"><ele>354.42857142857144</ele><time>2026-04-08T14:32:00Z</time></trkpt><trkpt lat="43.46753093070318" lon="11.434057809833568"><ele>354.2857142857143</ele><time>2026-04-08T14:32:08Z</time></trkpt><trkpt lat="43.467534880045434" lon="11.434153421084225"><ele>354.14285714285717</ele><time>2026-04-08T14:32:14Z</time></trkpt><trkpt lat="43.467488030104114" lon="11.434218035567854"><ele>354.0</ele><time>2026-04-08T14:32:22Z</time></trkpt><trkpt lat="43.46745587643482" lon="11.434296584765551"><ele>354.0</ele><time>2026-04-08T14:32:32Z</time></trkpt><trkpt lat="43.46742848828741" lon="11.43439326134288"><ele>354.0</ele><time>2026-04-08T14:33:45Z</time></trkpt><trkpt lat="43.46735639388086" lon="11.434384717669712"><ele>354.0</ele><time>2026-04-08T14:33:50Z</time></trkpt><trkpt lat="43.46728814160106" lon="11.434401571829522"><ele>354.0</ele><time>2026-04-08T14:33:56Z</time></trkpt><trkpt lat="43.467213450525726" lon="11.434429533757049"><ele>354.0</ele><time>2026-04-08T14:34:03Z</time></trkpt><trkpt lat="43.4672786288294" lon="11.434428576051268"><ele>354.0</ele><time>2026-04-08T14:34:29Z</time></trkpt><trkpt lat="43.4673436908728" lon="11.434382322107055"><ele>354.0</ele><time>2026-04-08T14:34:35Z</time></trkpt><trkpt lat="43.46740816958687" lon="11.434335079327619"><ele>354.0</ele><time>2026-04-08T14:34:42Z</time></trkpt><trkpt lat="43.46747490735989" lon="11.434386889447767"><ele>354.0</ele><time>2026-04-08T14:36:43Z</time></trkpt><trkpt lat="43.46752645300429" lon="11.434336107322157"><ele>354.0</ele><time>2026-04-08T14:36:45Z</time></trkpt><trkpt lat="43.467507787043346" lon="11.434250859430737"><ele>354.0</ele><time>2026-04-08T14:37:01.999Z</time></trkpt><trkpt lat="43.46743852810738" lon="11.4341564799689"><ele>354.0</ele><time>2026-04-08T14:37:08.999Z</time></trkpt><trkpt lat="43.467317562719906" lon="11.434204549147125"><ele>354.0</ele><time>2026-04-08T14:37:11Z</time></trkpt><trkpt lat="43.46719429409321" lon="11.434243277362294"><ele>354.0</ele><time>2026-04-08T14:37:13Z</time></trkpt><trkpt lat="43.46712577374762" lon="11.434261556529574"><ele>354.0</ele><time>2026-04-08T14:37:14Z</time></trkpt><trkpt lat="43.46705488948385" lon="11.434279358832633"><ele>354.0</ele><time>2026-04-08T14:37:15Z</time></trkpt><trkpt lat="43.46698839761256" lon="11.434298295287208"><ele>354.0</ele><time>2026-04-08T14:37:16Z</time></trkpt><trkpt lat="43.46688950530945" lon="11.43431644103426"><ele>354.0</ele><time>2026-04-08T14:37:18Z</time></trkpt><trkpt lat="43.46679270299452" lon="11.434333256130303"><ele>354.0</ele><time>2026-04-08T14:37:20Z</time></trkpt><trkpt lat="43.46666553460742" lon="11.434340879588598"><ele>353.4</ele><time>2026-04-08T14:37:22Z</time></trkpt><trkpt lat="43.466597867902586" lon="11.434342422520265"><ele>352.79999999999995</ele><time>2026-04-08T14:37:23Z</time></trkpt><trkpt lat="43.466493377444" lon="11.434336882849225"><ele>352.20000000000005</ele><time>2026-04-08T14:37:25Z</time></trkpt><trkpt lat="43.46641994097305" lon="11.434334089229075"><ele>351.6</ele><time>2026-04-08T14:37:27Z</time></trkpt><trkpt lat="43.4663433551831" lon="11.434280490005394"><ele>351.0</ele><time>2026-04-08T14:37:31Z</time></trkpt><trkpt lat="43.46636158847432" lon="11.43447606983579"><ele>351.00000000000006</ele><time>2026-04-08T14:38:16Z</time></trkpt><trkpt lat="43.466360808326286" lon="11.43457761864336"><ele>351.0</ele><time>2026-04-08T14:38:21Z</time></trkpt><trkpt lat="43.46635555764834" lon="11.434679045480605"><ele>351.0</ele><time>2026-04-08T14:38:26Z</time></trkpt><trkpt lat="43.46633621017485" lon="11.434776033391612"><ele>351.0</ele><time>2026-04-08T14:38:31Z</time></trkpt><trkpt lat="43.46634127677672" lon="11.434867606450979"><ele>351.0</ele><time>2026-04-08T14:38:58.999Z</time></trkpt><trkpt lat="43.46629292651851" lon="11.434767724938885"><ele>351.00000000000006</ele><time>2026-04-08T14:39:08.999Z</time></trkpt><trkpt lat="43.46634311337577" lon="11.434839384247795"><ele>351.0</ele><time>2026-04-08T14:39:47Z</time></trkpt><trkpt lat="43.466349298604264" lon="11.434748348704614"><ele>351.6</ele><time>2026-04-08T14:40:22Z</time></trkpt><trkpt lat="43.46631320139349" lon="11.434673780142193"><ele>352.20000000000005</ele><time>2026-04-08T14:40:49.999Z</time></trkpt><trkpt lat="43.46631676356526" lon="11.434765534704749"><ele>352.79999999999995</ele><time>2026-04-08T14:40:59.999Z</time></trkpt><trkpt lat="43.46631675973986" lon="11.434859457761824"><ele>353.4</ele><time>2026-04-08T14:41:10.999Z</time></trkpt><trkpt lat="43.46636116064871" lon="11.435175065294713"><ele>354.0</ele><time>2026-04-08T14:41:29Z</time></trkpt><trkpt lat="43.466344652738144" lon="11.435078205551427"><ele>354.0</ele><time>2026-04-08T14:41:39Z</time></trkpt><trkpt lat="43.46629329511305" lon="11.43485347306532"><ele>354.0</ele><time>2026-04-08T14:41:42Z</time></trkpt><trkpt lat="43.46632338933879" lon="11.434710955414698"><ele>354.0</ele><time>2026-04-08T14:42:16Z</time></trkpt><trkpt lat="43.46635096599296" lon="11.434632194082486"><ele>354.0</ele><time>2026-04-08T14:42:26Z</time></trkpt><trkpt lat="43.46635493571361" lon="11.434544884470235"><ele>354.0</ele><time>2026-04-08T14:42:31Z</time></trkpt><trkpt lat="43.46634730572837" lon="11.434456397456755"><ele>353.5</ele><time>2026-04-08T14:42:35.999Z</time></trkpt><trkpt lat="43.46635492206915" lon="11.434364620825598"><ele>353.0</ele><time>2026-04-08T14:42:42.999Z</time></trkpt><trkpt lat="43.466332750641165" lon="11.434277957033766"><ele>352.5</ele><time>2026-04-08T14:42:47.999Z</time></trkpt><trkpt lat="43.466372642854175" lon="11.434209448941788"><ele>352.0</ele><time>2026-04-08T14:46:25Z</time></trkpt><trkpt lat="43.46637002664965" lon="11.434307314174209"><ele>351.5</ele><time>2026-04-08T14:46:30Z</time></trkpt><trkpt lat="43.46630727206216" lon="11.43434301475637"><ele>351.0</ele><time>2026-04-08T14:46:32Z</time></trkpt><trkpt lat="43.466194288190984" lon="11.434331473231715"><ele>350.4</ele><time>2026-04-08T14:46:34Z</time></trkpt><trkpt lat="43.46609671193775" lon="11.434300837667301"><ele>349.8</ele><time>2026-04-08T14:46:35Z</time></trkpt><trkpt lat="43.46599437385825" lon="11.43426243166916"><ele>349.2</ele><time>2026-04-08T14:46:36Z</time></trkpt><trkpt lat="43.46588273696313" lon="11.43422013680224"><ele>348.59999999999997</ele><time>2026-04-08T14:46:37Z</time></trkpt><trkpt lat="43.46577312323239" lon="11.43418176337676"><ele>348.0</ele><time>2026-04-08T14:46:38Z</time></trkpt><trkpt lat="43.46566031774295" lon="11.43412189602546"><ele>348.0</ele><time>2026-04-08T14:46:39Z</time></trkpt><trkpt lat="43.46555548967054" lon="11.434038423736926"><ele>348.0</ele><time>2026-04-08T14:46:40Z</time></trkpt><trkpt lat="43.46546991542106" lon="11.433944299283898"><ele>348.0</ele><time>2026-04-08T14:46:41Z</time></trkpt><trkpt lat="43.46538894868975" lon="11.433833674037075"><ele>348.0</ele><time>2026-04-08T14:46:42Z</time></trkpt><trkpt lat="43.465311604371934" lon="11.433712161951636"><ele>348.0</ele><time>2026-04-08T14:46:43Z</time></trkpt><trkpt lat="43.465240288821754" lon="11.433607651659187"><ele>348.0</ele><time>2026-04-08T14:46:44Z</time></trkpt><trkpt lat="43.46517242584317" lon="11.433488124369035"><ele>348.0</ele><time>2026-04-08T14:46:45Z</time></trkpt><trkpt lat="43.465083666116506" lon="11.433367113689348"><ele>348.0</ele><time>2026-04-08T14:46:46Z</time></trkpt><trkpt lat="43.4649771729012" lon="11.43325845951928"><ele>348.0</ele><time>2026-04-08T14:46:47Z</time></trkpt><trkpt lat="43.46488332227344" lon="11.433198212817883"><ele>348.0</ele><time>2026-04-08T14:46:48Z</time></trkpt><trkpt lat="43.46478916484502" lon="11.433127976996449"><ele>348.0</ele><time>2026-04-08T14:46:49Z</time></trkpt><trkpt lat="43.46469814237552" lon="11.433058878283031"><ele>348.0</ele><time>2026-04-08T14:46:50Z</time></trkpt><trkpt lat="43.464611561270964" lon="11.432989319348286"><ele>348.0</ele><time>2026-04-08T14:46:51Z</time></trkpt><trkpt lat="43.4645112843341" lon="11.432903074502082"><ele>348.25</ele><time>2026-04-08T14:46:52Z</time></trkpt><trkpt lat="43.464419774826645" lon="11.432802544694496"><ele>348.5</ele><time>2026-04-08T14:46:53Z</time></trkpt><trkpt lat="43.46432678347342" lon="11.4326820289165"><ele>348.75</ele><time>2026-04-08T14:46:54Z</time></trkpt><trkpt lat="43.46424130410936" lon="11.432552301089732"><ele>349.0</ele><time>2026-04-08T14:46:55Z</time></trkpt><trkpt lat="43.46416549700442" lon="11.432399762762653"><ele>349.0</ele><time>2026-04-08T14:46:56Z</time></trkpt><trkpt lat="43.46409726021161" lon="11.432240039976438"><ele>349.0</ele><time>2026-04-08T14:46:57Z</time></trkpt><trkpt lat="43.46403367870534" lon="11.43207315604803"><ele>349.0</ele><time>2026-04-08T14:46:58Z</time></trkpt><trkpt lat="43.463968280992134" lon="11.431899984293604"><ele>349.0</ele><time>2026-04-08T14:46:59Z</time></trkpt><trkpt lat="43.46390295897465" lon="11.431726996494227"><ele>348.5</ele><time>2026-04-08T14:47:00Z</time></trkpt><trkpt lat="43.46383430339991" lon="11.431552171682068"><ele>348.0</ele><time>2026-04-08T14:47:01Z</time></trkpt><trkpt lat="43.46375600746541" lon="11.431377010534913"><ele>347.5</ele><time>2026-04-08T14:47:02Z</time></trkpt><trkpt lat="43.46368356381324" lon="11.431190833604903"><ele>347.0</ele><time>2026-04-08T14:47:03Z</time></trkpt><trkpt lat="43.46360632650061" lon="11.431030463724618"><ele>347.0</ele><time>2026-04-08T14:47:04Z</time></trkpt><trkpt lat="43.463530670078775" lon="11.430878308923639"><ele>347.0</ele><time>2026-04-08T14:47:05Z</time></trkpt><trkpt lat="43.46343999879182" lon="11.430717947302028"><ele>347.0</ele><time>2026-04-08T14:47:06Z</time></trkpt><trkpt lat="43.46333139125717" lon="11.430554973608759"><ele>347.0</ele><time>2026-04-08T14:47:07Z</time></trkpt><trkpt lat="43.463219183296026" lon="11.430393464535674"><ele>346.75</ele><time>2026-04-08T14:47:08Z</time></trkpt><trkpt lat="43.463124608830235" lon="11.430229073323261"><ele>346.5</ele><time>2026-04-08T14:47:09Z</time></trkpt><trkpt lat="43.463047074842876" lon="11.430078781728296"><ele>346.25</ele><time>2026-04-08T14:47:10Z</time></trkpt><trkpt lat="43.462963951848714" lon="11.429923700172939"><ele>346.0</ele><time>2026-04-08T14:47:11Z</time></trkpt><trkpt lat="43.4628592447558" lon="11.429770451078983"><ele>346.0</ele><time>2026-04-08T14:47:12Z</time></trkpt><trkpt lat="43.46275101190433" lon="11.429619574219206"><ele>346.0</ele><time>2026-04-08T14:47:13Z</time></trkpt><trkpt lat="43.46265377691943" lon="11.429485004075554"><ele>346.0</ele><time>2026-04-08T14:47:14Z</time></trkpt><trkpt lat="43.46254362723499" lon="11.429348122796679"><ele>346.0</ele><time>2026-04-08T14:47:15Z</time></trkpt><trkpt lat="43.46242367767615" lon="11.429193549717388"><ele>346.0</ele><time>2026-04-08T14:47:15.999Z</time></trkpt><trkpt lat="43.46231067052578" lon="11.429052918007491"><ele>346.0</ele><time>2026-04-08T14:47:16.999Z</time></trkpt><trkpt lat="43.46220404663463" lon="11.428922046498304"><ele>346.0</ele><time>2026-04-08T14:47:17.999Z</time></trkpt><trkpt lat="43.462095815949844" lon="11.428791214900153"><ele>346.0</ele><time>2026-04-08T14:47:18.999Z</time></trkpt><trkpt lat="43.461977556868526" lon="11.428651769120057"><ele>344.66666666666663</ele><time>2026-04-08T14:47:19.999Z</time></trkpt><trkpt lat="43.46186521250241" lon="11.42851743758183"><ele>343.3333333333333</ele><time>2026-04-08T14:47:20.999Z</time></trkpt><trkpt lat="43.46174236303395" lon="11.428376381463515"><ele>342.0</ele><time>2026-04-08T14:47:21.999Z</time></trkpt><trkpt lat="43.461618519452166" lon="11.42821684487493"><ele>342.0</ele><time>2026-04-08T14:47:22.999Z</time></trkpt><trkpt lat="43.46149149288119" lon="11.428082421931308"><ele>342.0</ele><time>2026-04-08T14:47:23.999Z</time></trkpt><trkpt lat="43.46136009505648" lon="11.427953180385138"><ele>342.0</ele><time>2026-04-08T14:47:24.999Z</time></trkpt><trkpt lat="43.461229491922566" lon="11.427817096145592"><ele>341.3333333333333</ele><time>2026-04-08T14:47:25.999Z</time></trkpt><trkpt lat="43.461100976374965" lon="11.42767974490235"><ele>340.66666666666663</ele><time>2026-04-08T14:47:26.999Z</time></trkpt><trkpt lat="43.46096707073886" lon="11.42753212806335"><ele>340.0</ele><time>2026-04-08T14:47:27.999Z</time></trkpt><trkpt lat="43.46083309671906" lon="11.42739270454389"><ele>340.0</ele><time>2026-04-08T14:47:28.999Z</time></trkpt><trkpt lat="43.460705662782786" lon="11.427260354583035"><ele>340.0</ele><time>2026-04-08T14:47:29.999Z</time></trkpt><trkpt lat="43.46057420530285" lon="11.427149997477878"><ele>340.0</ele><time>2026-04-08T14:47:30.999Z</time></trkpt><trkpt lat="43.46042592257601" lon="11.427060444175728"><ele>341.0</ele><time>2026-04-08T14:47:31.999Z</time></trkpt><trkpt lat="43.460264705604324" lon="11.42698870150553"><ele>342.0</ele><time>2026-04-08T14:47:32.999Z</time></trkpt><trkpt lat="43.460093719856175" lon="11.426920761250225"><ele>343.0</ele><time>2026-04-08T14:47:33.999Z</time></trkpt><trkpt lat="43.45992205521014" lon="11.426852340339394"><ele>343.0</ele><time>2026-04-08T14:47:34.999Z</time></trkpt><trkpt lat="43.459746892474655" lon="11.426776977817054"><ele>343.0</ele><time>2026-04-08T14:47:35.999Z</time></trkpt><trkpt lat="43.459561515350124" lon="11.426690679160622"><ele>343.0</ele><time>2026-04-08T14:47:36.999Z</time></trkpt><trkpt lat="43.459357621914705" lon="11.426597247806903"><ele>341.66666666666663</ele><time>2026-04-08T14:47:37.999Z</time></trkpt><trkpt lat="43.45916605239457" lon="11.426513780982098"><ele>340.3333333333333</ele><time>2026-04-08T14:47:38.999Z</time></trkpt><trkpt lat="43.45899207762072" lon="11.426444342409527"><ele>339.0</ele><time>2026-04-08T14:47:39.999Z</time></trkpt><trkpt lat="43.458831777074934" lon="11.426374915568779"><ele>338.0</ele><time>2026-04-08T14:47:41Z</time></trkpt><trkpt lat="43.45868453718282" lon="11.426309459414858"><ele>337.0</ele><time>2026-04-08T14:47:42Z</time></trkpt><trkpt lat="43.45854129120924" lon="11.426247884566706"><ele>336.0</ele><time>2026-04-08T14:47:43Z</time></trkpt><trkpt lat="43.45838961832726" lon="11.426181671685312"><ele>336.0</ele><time>2026-04-08T14:47:44Z</time></trkpt><trkpt lat="43.458234269432545" lon="11.426112373876075"><ele>336.0</ele><time>2026-04-08T14:47:45Z</time></trkpt><trkpt lat="43.458073906020125" lon="11.426041240767983"><ele>336.0</ele><time>2026-04-08T14:47:46Z</time></trkpt><trkpt lat="43.45790844720957" lon="11.425968422858691"><ele>336.0</ele><time>2026-04-08T14:47:47Z</time></trkpt><trkpt lat="43.45774014245048" lon="11.425897206468429"><ele>336.0</ele><time>2026-04-08T14:47:48Z</time></trkpt><trkpt lat="43.45756178339041" lon="11.425815715168849"><ele>336.0</ele><time>2026-04-08T14:47:49Z</time></trkpt><trkpt lat="43.45737905759909" lon="11.425739119215743"><ele>336.0</ele><time>2026-04-08T14:47:50Z</time></trkpt><trkpt lat="43.457223855616704" lon="11.42566627727243"><ele>336.0</ele><time>2026-04-08T14:47:51Z</time></trkpt><trkpt lat="43.45707356515772" lon="11.425611071497743"><ele>336.0</ele><time>2026-04-08T14:47:52Z</time></trkpt><trkpt lat="43.456914706338985" lon="11.425556912627654"><ele>338.0</ele><time>2026-04-08T14:47:53Z</time></trkpt><trkpt lat="43.456743495534425" lon="11.425527848944672"><ele>340.0</ele><time>2026-04-08T14:47:54Z</time></trkpt><trkpt lat="43.456578570957475" lon="11.425501382237522"><ele>342.0</ele><time>2026-04-08T14:47:55Z</time></trkpt><trkpt lat="43.456431035016635" lon="11.425490481331863"><ele>340.75</ele><time>2026-04-08T14:47:56Z</time></trkpt><trkpt lat="43.4563040041331" lon="11.425472532797281"><ele>339.5</ele><time>2026-04-08T14:47:57Z</time></trkpt><trkpt lat="43.4561884757781" lon="11.42542490252026"><ele>338.25</ele><time>2026-04-08T14:47:58Z</time></trkpt><trkpt lat="43.456068169143585" lon="11.42532869290565"><ele>337.0</ele><time>2026-04-08T14:47:59Z</time></trkpt><trkpt lat="43.45594348470087" lon="11.425192164858398"><ele>337.0</ele><time>2026-04-08T14:48:00Z</time></trkpt><trkpt lat="43.45580530148644" lon="11.425039445325325"><ele>337.0</ele><time>2026-04-08T14:48:01Z</time></trkpt><trkpt lat="43.45566793904987" lon="11.42489892920545"><ele>337.0</ele><time>2026-04-08T14:48:02Z</time></trkpt><trkpt lat="43.455525788496516" lon="11.424759018473692"><ele>335.66666666666663</ele><time>2026-04-08T14:48:03Z</time></trkpt><trkpt lat="43.45537229097808" lon="11.424602199123413"><ele>334.3333333333333</ele><time>2026-04-08T14:48:04Z</time></trkpt><trkpt lat="43.4552151063999" lon="11.424439213076703"><ele>333.0</ele><time>2026-04-08T14:48:05Z</time></trkpt><trkpt lat="43.45506736746787" lon="11.424276931941318"><ele>333.0</ele><time>2026-04-08T14:48:06Z</time></trkpt><trkpt lat="43.45493147880863" lon="11.424128303903064"><ele>333.0</ele><time>2026-04-08T14:48:07Z</time></trkpt><trkpt lat="43.454807597016426" lon="11.424001793321334"><ele>333.0</ele><time>2026-04-08T14:48:08Z</time></trkpt><trkpt lat="43.454685235264265" lon="11.423880618353838"><ele>332.5</ele><time>2026-04-08T14:48:09Z</time></trkpt><trkpt lat="43.45456791505032" lon="11.423763794021443"><ele>332.0</ele><time>2026-04-08T14:48:10Z</time></trkpt><trkpt lat="43.45445581401323" lon="11.423642287680812"><ele>331.5</ele><time>2026-04-08T14:48:11Z</time></trkpt><trkpt lat="43.45433797602176" lon="11.423501046063002"><ele>331.0</ele><time>2026-04-08T14:48:12Z</time></trkpt><trkpt lat="43.45421869504301" lon="11.423337234263844"><ele>331.0</ele><time>2026-04-08T14:48:13Z</time></trkpt><trkpt lat="43.45410639137812" lon="11.423162015098772"><ele>331.0</ele><time>2026-04-08T14:48:14Z</time></trkpt><trkpt lat="43.45399270947622" lon="11.42297257656863"><ele>331.0</ele><time>2026-04-08T14:48:15Z</time></trkpt><trkpt lat="43.45387828681403" lon="11.422794357247872"><ele>329.0</ele><time>2026-04-08T14:48:16Z</time></trkpt><trkpt lat="43.453757580154786" lon="11.422608539259262"><ele>327.0</ele><time>2026-04-08T14:48:17Z</time></trkpt><trkpt lat="43.453632618255035" lon="11.422423230460838"><ele>325.0</ele><time>2026-04-08T14:48:18Z</time></trkpt><trkpt lat="43.4535074807178" lon="11.422230315371442"><ele>327.3333333333333</ele><time>2026-04-08T14:48:19Z</time></trkpt><trkpt lat="43.45339238577158" lon="11.422052106100596"><ele>329.6666666666667</ele><time>2026-04-08T14:48:20Z</time></trkpt><trkpt lat="43.45328783669411" lon="11.421889022880778"><ele>332.0</ele><time>2026-04-08T14:48:21Z</time></trkpt><trkpt lat="43.4531899562871" lon="11.421733309057114"><ele>332.0</ele><time>2026-04-08T14:48:22Z</time></trkpt><trkpt lat="43.45308131463758" lon="11.421579789793839"><ele>332.0</ele><time>2026-04-08T14:48:23Z</time></trkpt><trkpt lat="43.45295086888417" lon="11.421436245912682"><ele>332.0</ele><time>2026-04-08T14:48:24Z</time></trkpt><trkpt lat="43.45280535300245" lon="11.421329804735445"><ele>333.0</ele><time>2026-04-08T14:48:25Z</time></trkpt><trkpt lat="43.45265573252038" lon="11.421247770566197"><ele>334.0</ele><time>2026-04-08T14:48:26Z</time></trkpt><trkpt lat="43.4525341514109" lon="11.42113675448117"><ele>335.0</ele><time>2026-04-08T14:48:27Z</time></trkpt><trkpt lat="43.452422753255995" lon="11.420986313668685"><ele>335.0</ele><time>2026-04-08T14:48:28Z</time></trkpt><trkpt lat="43.45231368919991" lon="11.420811786415033"><ele>335.0</ele><time>2026-04-08T14:48:29Z</time></trkpt><trkpt lat="43.45218955700079" lon="11.420614637897547"><ele>335.0</ele><time>2026-04-08T14:48:30Z</time></trkpt><trkpt lat="43.45206174915607" lon="11.420419212055473"><ele>333.6666666666667</ele><time>2026-04-08T14:48:31Z</time></trkpt><trkpt lat="43.45193953727502" lon="11.420231996416401"><ele>332.3333333333333</ele><time>2026-04-08T14:48:32Z</time></trkpt><trkpt lat="43.45183885001704" lon="11.420067360383435"><ele>331.0</ele><time>2026-04-08T14:48:33Z</time></trkpt><trkpt lat="43.45174282936954" lon="11.419916191388372"><ele>331.0</ele><time>2026-04-08T14:48:34Z</time></trkpt><trkpt lat="43.45165579908956" lon="11.41977702838816"><ele>331.0</ele><time>2026-04-08T14:48:35Z</time></trkpt><trkpt lat="43.45156545626495" lon="11.419644019804279"><ele>331.0</ele><time>2026-04-08T14:48:36Z</time></trkpt><trkpt lat="43.45144423452838" lon="11.419515724845901"><ele>331.0</ele><time>2026-04-08T14:48:37Z</time></trkpt><trkpt lat="43.451318473603166" lon="11.419399007201154"><ele>329.75</ele><time>2026-04-08T14:48:38Z</time></trkpt><trkpt lat="43.45120152941875" lon="11.419296663281438"><ele>328.5</ele><time>2026-04-08T14:48:39Z</time></trkpt><trkpt lat="43.451090952915116" lon="11.419214200351327"><ele>327.25</ele><time>2026-04-08T14:48:40Z</time></trkpt><trkpt lat="43.450985052563055" lon="11.419156883311643"><ele>326.0</ele><time>2026-04-08T14:48:41Z</time></trkpt><trkpt lat="43.45086751326626" lon="11.419108340736003"><ele>326.0</ele><time>2026-04-08T14:48:42Z</time></trkpt><trkpt lat="43.45072368068617" lon="11.419061451391075"><ele>326.0</ele><time>2026-04-08T14:48:43Z</time></trkpt><trkpt lat="43.45057050553919" lon="11.419026634579307"><ele>326.0</ele><time>2026-04-08T14:48:44Z</time></trkpt><trkpt lat="43.450416569797405" lon="11.418983189095488"><ele>325.33333333333337</ele><time>2026-04-08T14:48:45Z</time></trkpt><trkpt lat="43.45024930213161" lon="11.418959420654822"><ele>324.6666666666667</ele><time>2026-04-08T14:48:46Z</time></trkpt><trkpt lat="43.450073037993555" lon="11.418923201917622"><ele>324.0</ele><time>2026-04-08T14:48:47Z</time></trkpt><trkpt lat="43.4498893388175" lon="11.418861138283567"><ele>325.3333333333333</ele><time>2026-04-08T14:48:48Z</time></trkpt><trkpt lat="43.44970803201695" lon="11.418773627928442"><ele>326.66666666666663</ele><time>2026-04-08T14:48:49Z</time></trkpt><trkpt lat="43.449550402379664" lon="11.41869020295461"><ele>328.0</ele><time>2026-04-08T14:48:50Z</time></trkpt><trkpt lat="43.44939653556044" lon="11.418624405647414"><ele>329.0</ele><time>2026-04-08T14:48:51Z</time></trkpt><trkpt lat="43.449248930582804" lon="11.418582295057965"><ele>330.0</ele><time>2026-04-08T14:48:52Z</time></trkpt><trkpt lat="43.44908091245779" lon="11.41854729874666"><ele>331.0</ele><time>2026-04-08T14:48:53Z</time></trkpt><trkpt lat="43.44891404896882" lon="11.418537626102017"><ele>331.0</ele><time>2026-04-08T14:48:54Z</time></trkpt><trkpt lat="43.44873931271924" lon="11.418535482395049"><ele>331.0</ele><time>2026-04-08T14:48:55Z</time></trkpt><trkpt lat="43.44857670092813" lon="11.418518500143817"><ele>331.0</ele><time>2026-04-08T14:48:56Z</time></trkpt><trkpt lat="43.44843740315245" lon="11.418491459584892"><ele>331.0</ele><time>2026-04-08T14:48:57Z</time></trkpt><trkpt lat="43.44831044039437" lon="11.418429006560958"><ele>331.0</ele><time>2026-04-08T14:48:58Z</time></trkpt><trkpt lat="43.4481784367319" lon="11.418315827199983"><ele>331.0</ele><time>2026-04-08T14:48:59Z</time></trkpt><trkpt lat="43.448038810742446" lon="11.418182327526043"><ele>329.0</ele><time>2026-04-08T14:49:00Z</time></trkpt><trkpt lat="43.44789479717538" lon="11.418058271864352"><ele>327.0</ele><time>2026-04-08T14:49:01Z</time></trkpt><trkpt lat="43.44778493847011" lon="11.417938944124321"><ele>325.0</ele><time>2026-04-08T14:49:02Z</time></trkpt><trkpt lat="43.447660583118214" lon="11.417839454824245"><ele>329.3333333333333</ele><time>2026-04-08T14:49:03Z</time></trkpt><trkpt lat="43.44751547326576" lon="11.41776316243065"><ele>333.6666666666667</ele><time>2026-04-08T14:49:04Z</time></trkpt><trkpt lat="43.44735100022446" lon="11.417724382040248"><ele>338.0</ele><time>2026-04-08T14:49:05Z</time></trkpt><trkpt lat="43.447172996925005" lon="11.417682904611612"><ele>338.6666666666667</ele><time>2026-04-08T14:49:06Z</time></trkpt><trkpt lat="43.44698066057189" lon="11.417641872351304"><ele>339.3333333333333</ele><time>2026-04-08T14:49:07Z</time></trkpt><trkpt lat="43.44678392260841" lon="11.417592251841645"><ele>340.0</ele><time>2026-04-08T14:49:08Z</time></trkpt><trkpt lat="43.446605354306826" lon="11.417547913275273"><ele>340.0</ele><time>2026-04-08T14:49:09Z</time></trkpt><trkpt lat="43.446464433372824" lon="11.41751048716297"><ele>340.0</ele><time>2026-04-08T14:49:10Z</time></trkpt><trkpt lat="43.446341156741184" lon="11.41748167037562"><ele>340.0</ele><time>2026-04-08T14:49:11Z</time></trkpt><trkpt lat="43.446223013339406" lon="11.417471442229651"><ele>340.0</ele><time>2026-04-08T14:49:12Z</time></trkpt><trkpt lat="43.44610306919021" lon="11.417501043693107"><ele>340.5</ele><time>2026-04-08T14:49:13Z</time></trkpt><trkpt lat="43.44600922807237" lon="11.417583741428908"><ele>341.0</ele><time>2026-04-08T14:49:14Z</time></trkpt><trkpt lat="43.445929487410574" lon="11.417692897417934"><ele>341.5</ele><time>2026-04-08T14:49:14.999Z</time></trkpt><trkpt lat="43.44584895716764" lon="11.417854881889227"><ele>342.0</ele><time>2026-04-08T14:49:15.999Z</time></trkpt><trkpt lat="43.44577822123318" lon="11.418069340324784"><ele>342.0</ele><time>2026-04-08T14:49:16.999Z</time></trkpt><trkpt lat="43.44570387617154" lon="11.418285676611214"><ele>342.0</ele><time>2026-04-08T14:49:17.999Z</time></trkpt><trkpt lat="43.445657222497076" lon="11.418522098572089"><ele>342.0</ele><time>2026-04-08T14:49:18.999Z</time></trkpt><trkpt lat="43.445630263289544" lon="11.418782242325056"><ele>340.0</ele><time>2026-04-08T14:49:19.999Z</time></trkpt><trkpt lat="43.445641033646076" lon="11.419008183803937"><ele>338.0</ele><time>2026-04-08T14:49:20.999Z</time></trkpt><trkpt lat="43.44562854586895" lon="11.419208632199902"><ele>336.0</ele><time>2026-04-08T14:49:21.999Z</time></trkpt><trkpt lat="43.44562113422614" lon="11.419384488794451"><ele>334.0</ele><time>2026-04-08T14:49:22.999Z</time></trkpt><trkpt lat="43.44559677398381" lon="11.419544339954259"><ele>335.25</ele><time>2026-04-08T14:49:23.999Z</time></trkpt><trkpt lat="43.44554784921728" lon="11.419666202526725"><ele>336.5</ele><time>2026-04-08T14:49:24.999Z</time></trkpt><trkpt lat="43.44545432530784" lon="11.419723221484704"><ele>337.75</ele><time>2026-04-08T14:49:25.999Z</time></trkpt><trkpt lat="43.44534204452442" lon="11.419785059382827"><ele>339.0</ele><time>2026-04-08T14:49:26.999Z</time></trkpt><trkpt lat="43.44520349839815" lon="11.419865284277952"><ele>339.0</ele><time>2026-04-08T14:49:27.999Z</time></trkpt><trkpt lat="43.44505434341021" lon="11.419953022626778"><ele>339.0</ele><time>2026-04-08T14:49:28.999Z</time></trkpt><trkpt lat="43.44491479889224" lon="11.420057796843318"><ele>339.0</ele><time>2026-04-08T14:49:29.999Z</time></trkpt><trkpt lat="43.444785763071025" lon="11.420120963442402"><ele>339.0</ele><time>2026-04-08T14:49:30.999Z</time></trkpt><trkpt lat="43.444667173011915" lon="11.4202058757813"><ele>339.0</ele><time>2026-04-08T14:49:31.999Z</time></trkpt><trkpt lat="43.44455728973701" lon="11.4203367410487"><ele>339.0</ele><time>2026-04-08T14:49:32.999Z</time></trkpt><trkpt lat="43.44443772707394" lon="11.420514514738823"><ele>338.3333333333333</ele><time>2026-04-08T14:49:33.999Z</time></trkpt><trkpt lat="43.44431629607248" lon="11.420679101904792"><ele>337.66666666666663</ele><time>2026-04-08T14:49:34.999Z</time></trkpt><trkpt lat="43.44419711356093" lon="11.420830520170886"><ele>337.0</ele><time>2026-04-08T14:49:35.999Z</time></trkpt><trkpt lat="43.44405996159709" lon="11.420955800516676"><ele>337.0</ele><time>2026-04-08T14:49:36.999Z</time></trkpt><trkpt lat="43.44391307584179" lon="11.421064650251296"><ele>337.0</ele><time>2026-04-08T14:49:37.999Z</time></trkpt><trkpt lat="43.44374577763428" lon="11.421181888793052"><ele>337.0</ele><time>2026-04-08T14:49:38.999Z</time></trkpt><trkpt lat="43.443603239328205" lon="11.421307868061742"><ele>334.0</ele><time>2026-04-08T14:49:39.999Z</time></trkpt><trkpt lat="43.44346337620878" lon="11.421407281907076"><ele>331.0</ele><time>2026-04-08T14:49:40.999Z</time></trkpt><trkpt lat="43.44331882352457" lon="11.421477120389458"><ele>328.0</ele><time>2026-04-08T14:49:41.999Z</time></trkpt><trkpt lat="43.44317564620029" lon="11.421533586557338"><ele>328.0</ele><time>2026-04-08T14:49:42.999Z</time></trkpt><trkpt lat="43.44302803461517" lon="11.421554261024355"><ele>328.0</ele><time>2026-04-08T14:49:43.999Z</time></trkpt><trkpt lat="43.44286637506175" lon="11.421560009119583"><ele>328.0</ele><time>2026-04-08T14:49:44.999Z</time></trkpt><trkpt lat="43.4426947883544" lon="11.421575768834357"><ele>328.0</ele><time>2026-04-08T14:49:45.999Z</time></trkpt><trkpt lat="43.44250913303685" lon="11.421555648990696"><ele>328.0</ele><time>2026-04-08T14:49:47Z</time></trkpt><trkpt lat="43.442314126048565" lon="11.42153174156911"><ele>328.0</ele><time>2026-04-08T14:49:48Z</time></trkpt><trkpt lat="43.44210952627968" lon="11.421502599539911"><ele>326.3333333333333</ele><time>2026-04-08T14:49:49Z</time></trkpt><trkpt lat="43.44190193672458" lon="11.421478446835444"><ele>324.6666666666667</ele><time>2026-04-08T14:49:50Z</time></trkpt><trkpt lat="43.44169159374415" lon="11.421443691694021"><ele>323.0</ele><time>2026-04-08T14:49:51Z</time></trkpt><trkpt lat="43.44149898546508" lon="11.421411844449544"><ele>323.0</ele><time>2026-04-08T14:49:52Z</time></trkpt><trkpt lat="43.441327681601805" lon="11.421381904203866"><ele>323.0</ele><time>2026-04-08T14:49:53Z</time></trkpt><trkpt lat="43.44116146380799" lon="11.421340452760257"><ele>323.0</ele><time>2026-04-08T14:49:54Z</time></trkpt><trkpt lat="43.44101700142581" lon="11.421239926355728"><ele>325.33333333333337</ele><time>2026-04-08T14:49:55Z</time></trkpt><trkpt lat="43.440857071088004" lon="11.421131275164932"><ele>327.6666666666667</ele><time>2026-04-08T14:49:56Z</time></trkpt><trkpt lat="43.44069908973227" lon="11.420995623980254"><ele>330.0</ele><time>2026-04-08T14:49:57Z</time></trkpt><trkpt lat="43.4405430670326" lon="11.42085526522996"><ele>329.6666666666667</ele><time>2026-04-08T14:49:58Z</time></trkpt><trkpt lat="43.440378358302205" lon="11.420713614839482"><ele>329.33333333333337</ele><time>2026-04-08T14:49:59Z</time></trkpt><trkpt lat="43.44020679084408" lon="11.420571890239714"><ele>329.0</ele><time>2026-04-08T14:50:00Z</time></trkpt><trkpt lat="43.440033782517624" lon="11.420426744598336"><ele>329.0</ele><time>2026-04-08T14:50:01Z</time></trkpt><trkpt lat="43.43985355097393" lon="11.420269019797958"><ele>329.0</ele><time>2026-04-08T14:50:02Z</time></trkpt><trkpt lat="43.43968576329742" lon="11.420120320818857"><ele>329.0</ele><time>2026-04-08T14:50:03Z</time></trkpt><trkpt lat="43.439523285181096" lon="11.41999202074224"><ele>325.33333333333337</ele><time>2026-04-08T14:50:04Z</time></trkpt><trkpt lat="43.43936439552291" lon="11.419873232881505"><ele>321.6666666666667</ele><time>2026-04-08T14:50:05Z</time></trkpt><trkpt lat="43.4392028016086" lon="11.419779111503845"><ele>318.0</ele><time>2026-04-08T14:50:06Z</time></trkpt><trkpt lat="43.439019101594646" lon="11.419700620266115"><ele>318.0</ele><time>2026-04-08T14:50:07Z</time></trkpt><trkpt lat="43.43882380949667" lon="11.419656960001399"><ele>318.0</ele><time>2026-04-08T14:50:08Z</time></trkpt><trkpt lat="43.43861638163635" lon="11.419624816420438"><ele>318.0</ele><time>2026-04-08T14:50:09Z</time></trkpt><trkpt lat="43.43839773942235" lon="11.419604803782002"><ele>320.5</ele><time>2026-04-08T14:50:10Z</time></trkpt><trkpt lat="43.438169040554996" lon="11.419579451750142"><ele>323.0</ele><time>2026-04-08T14:50:11Z</time></trkpt><trkpt lat="43.437926212558565" lon="11.41954232946315"><ele>323.0</ele><time>2026-04-08T14:50:12Z</time></trkpt><trkpt lat="43.437706743715246" lon="11.419507718021077"><ele>323.0</ele><time>2026-04-08T14:50:13Z</time></trkpt><trkpt lat="43.43749835333235" lon="11.419467463852387"><ele>323.0</ele><time>2026-04-08T14:50:14Z</time></trkpt><trkpt lat="43.437297651689576" lon="11.419430962368724"><ele>322.0</ele><time>2026-04-08T14:50:15Z</time></trkpt><trkpt lat="43.43709869069377" lon="11.419390672038274"><ele>321.0</ele><time>2026-04-08T14:50:16Z</time></trkpt><trkpt lat="43.43689088380789" lon="11.41934884588747"><ele>320.0</ele><time>2026-04-08T14:50:17Z</time></trkpt><trkpt lat="43.436679732670065" lon="11.419310486829215"><ele>320.0</ele><time>2026-04-08T14:50:18Z</time></trkpt><trkpt lat="43.436482347039004" lon="11.41927581833134"><ele>320.0</ele><time>2026-04-08T14:50:19Z</time></trkpt><trkpt lat="43.43629285439944" lon="11.419235575061554"><ele>320.0</ele><time>2026-04-08T14:50:20Z</time></trkpt><trkpt lat="43.436102936661186" lon="11.419198228894194"><ele>318.6666666666667</ele><time>2026-04-08T14:50:21Z</time></trkpt><trkpt lat="43.4358996635145" lon="11.41916465351195"><ele>317.3333333333333</ele><time>2026-04-08T14:50:22Z</time></trkpt><trkpt lat="43.43572690861794" lon="11.419124497323367"><ele>316.0</ele><time>2026-04-08T14:50:23Z</time></trkpt><trkpt lat="43.435568157568795" lon="11.419095555464631"><ele>316.75</ele><time>2026-04-08T14:50:24Z</time></trkpt><trkpt lat="43.43542717646913" lon="11.419079699075594"><ele>317.5</ele><time>2026-04-08T14:50:25Z</time></trkpt><trkpt lat="43.435290504924716" lon="11.419094918001417"><ele>318.25</ele><time>2026-04-08T14:50:26Z</time></trkpt><trkpt lat="43.43516132670894" lon="11.419153847320695"><ele>319.0</ele><time>2026-04-08T14:50:27Z</time></trkpt><trkpt lat="43.435019611962396" lon="11.41924501887579"><ele>319.0</ele><time>2026-04-08T14:50:28Z</time></trkpt><trkpt lat="43.43488526233605" lon="11.419359681759289"><ele>319.0</ele><time>2026-04-08T14:50:29Z</time></trkpt><trkpt lat="43.43474281152291" lon="11.419480779304509"><ele>319.0</ele><time>2026-04-08T14:50:30Z</time></trkpt><trkpt lat="43.43460608050158" lon="11.419631792313535"><ele>318.0</ele><time>2026-04-08T14:50:31Z</time></trkpt><trkpt lat="43.43444352979929" lon="11.419785240096092"><ele>317.0</ele><time>2026-04-08T14:50:32Z</time></trkpt><trkpt lat="43.434295015120156" lon="11.41995779738732"><ele>316.0</ele><time>2026-04-08T14:50:33Z</time></trkpt><trkpt lat="43.43417510005544" lon="11.420125309182037"><ele>316.0</ele><time>2026-04-08T14:50:34Z</time></trkpt><trkpt lat="43.434053585690215" lon="11.420262888164853"><ele>316.0</ele><time>2026-04-08T14:50:35Z</time></trkpt><trkpt lat="43.433948603378845" lon="11.42039736502444"><ele>316.0</ele><time>2026-04-08T14:50:36Z</time></trkpt><trkpt lat="43.433835670693796" lon="11.420505129003141"><ele>316.0</ele><time>2026-04-08T14:50:37Z</time></trkpt><trkpt lat="43.43374884134937" lon="11.420616866837426"><ele>313.40000000000003</ele><time>2026-04-08T14:50:38Z</time></trkpt><trkpt lat="43.43367627269412" lon="11.420709257640922"><ele>310.8</ele><time>2026-04-08T14:50:39Z</time></trkpt><trkpt lat="43.433608429486675" lon="11.420780092813043"><ele>308.20000000000005</ele><time>2026-04-08T14:50:40Z</time></trkpt><trkpt lat="43.43347277492308" lon="11.4208751491649"><ele>305.6</ele><time>2026-04-08T14:50:41Z</time></trkpt><trkpt lat="43.43337104120421" lon="11.420869451781158"><ele>303.0</ele><time>2026-04-08T14:50:42Z</time></trkpt><trkpt lat="43.433278916808064" lon="11.420811418468634"><ele>303.0</ele><time>2026-04-08T14:50:43Z</time></trkpt><trkpt lat="43.43318794224569" lon="11.420707872737124"><ele>303.0</ele><time>2026-04-08T14:50:44Z</time></trkpt><trkpt lat="43.433100862884984" lon="11.420548473857588"><ele>303.0</ele><time>2026-04-08T14:50:45Z</time></trkpt><trkpt lat="43.433019579536435" lon="11.420346910344684"><ele>303.0</ele><time>2026-04-08T14:50:46Z</time></trkpt><trkpt lat="43.43293240149915" lon="11.420134398294756"><ele>303.3333333333333</ele><time>2026-04-08T14:50:47Z</time></trkpt><trkpt lat="43.432838899434365" lon="11.419908481852016"><ele>303.66666666666663</ele><time>2026-04-08T14:50:48Z</time></trkpt><trkpt lat="43.43273401285237" lon="11.419702078373875"><ele>304.0</ele><time>2026-04-08T14:50:49Z</time></trkpt><trkpt lat="43.4326280864974" lon="11.419489301680857"><ele>304.0</ele><time>2026-04-08T14:50:50Z</time></trkpt><trkpt lat="43.432506810693354" lon="11.419288937680562"><ele>304.0</ele><time>2026-04-08T14:50:51Z</time></trkpt><trkpt lat="43.43237404792786" lon="11.419096054771643"><ele>304.0</ele><time>2026-04-08T14:50:52Z</time></trkpt><trkpt lat="43.43223965100539" lon="11.418896477574565"><ele>302.3333333333333</ele><time>2026-04-08T14:50:53Z</time></trkpt><trkpt lat="43.43210780133286" lon="11.418710414367537"><ele>300.6666666666667</ele><time>2026-04-08T14:50:54Z</time></trkpt><trkpt lat="43.43198901694748" lon="11.418541054120794"><ele>299.0</ele><time>2026-04-08T14:50:55Z</time></trkpt><trkpt lat="43.43188305343703" lon="11.41838726090058"><ele>299.0</ele><time>2026-04-08T14:50:56Z</time></trkpt><trkpt lat="43.431785639003394" lon="11.418248836232955"><ele>299.0</ele><time>2026-04-08T14:50:57Z</time></trkpt><trkpt lat="43.43169193514899" lon="11.418115904748166"><ele>299.0</ele><time>2026-04-08T14:50:58Z</time></trkpt><trkpt lat="43.43161695918195" lon="11.417997806283246"><ele>299.0</ele><time>2026-04-08T14:50:59Z</time></trkpt><trkpt lat="43.431530308161925" lon="11.417857427930931"><ele>299.4</ele><time>2026-04-08T14:51:00Z</time></trkpt><trkpt lat="43.43145521087118" lon="11.417748992753163"><ele>299.79999999999995</ele><time>2026-04-08T14:51:01Z</time></trkpt><trkpt lat="43.431390247355814" lon="11.417651348565864"><ele>300.20000000000005</ele><time>2026-04-08T14:51:02Z</time></trkpt><trkpt lat="43.43133933496411" lon="11.417586333407188"><ele>300.6</ele><time>2026-04-08T14:51:03Z</time></trkpt><trkpt lat="43.43128002850861" lon="11.417510141652318"><ele>301.0</ele><time>2026-04-08T14:51:05Z</time></trkpt><trkpt lat="43.43096741126079" lon="11.41777515681862"><ele>301.0</ele><time>2026-04-08T14:51:07Z</time></trkpt><trkpt lat="43.430849538873" lon="11.417875395619394"><ele>301.0</ele><time>2026-04-08T14:51:08Z</time></trkpt><trkpt lat="43.43071360439781" lon="11.41797755731436"><ele>301.0</ele><time>2026-04-08T14:51:09Z</time></trkpt><trkpt lat="43.430571340839016" lon="11.41807005887679"><ele>301.3333333333333</ele><time>2026-04-08T14:51:10Z</time></trkpt><trkpt lat="43.430426424967614" lon="11.418177200799196"><ele>301.6666666666667</ele><time>2026-04-08T14:51:11Z</time></trkpt><trkpt lat="43.43027730452787" lon="11.418283399432706"><ele>302.0</ele><time>2026-04-08T14:51:12Z</time></trkpt><trkpt lat="43.43013760524883" lon="11.418390200880037"><ele>302.0</ele><time>2026-04-08T14:51:13Z</time></trkpt><trkpt lat="43.43000925621929" lon="11.418487638316066"><ele>302.0</ele><time>2026-04-08T14:51:14Z</time></trkpt><trkpt lat="43.42989430540308" lon="11.41856869773481"><ele>302.0</ele><time>2026-04-08T14:51:15Z</time></trkpt><trkpt lat="43.42977882081332" lon="11.41865883424043"><ele>302.0</ele><time>2026-04-08T14:51:15.999Z</time></trkpt><trkpt lat="43.42964477893065" lon="11.418757706970673"><ele>304.6666666666667</ele><time>2026-04-08T14:51:16.999Z</time></trkpt><trkpt lat="43.42950761753858" lon="11.418859873010824"><ele>307.3333333333333</ele><time>2026-04-08T14:51:17.999Z</time></trkpt><trkpt lat="43.42935516068674" lon="11.418952870976877"><ele>310.0</ele><time>2026-04-08T14:51:18.999Z</time></trkpt><trkpt lat="43.4291989019065" lon="11.419028731551263"><ele>310.0</ele><time>2026-04-08T14:51:19.999Z</time></trkpt><trkpt lat="43.429031947281906" lon="11.419086813877044"><ele>310.0</ele><time>2026-04-08T14:51:20.999Z</time></trkpt><trkpt lat="43.42886971299162" lon="11.419128571870539"><ele>310.0</ele><time>2026-04-08T14:51:21.999Z</time></trkpt><trkpt lat="43.428718562257025" lon="11.419154338320485"><ele>310.3333333333333</ele><time>2026-04-08T14:51:22.999Z</time></trkpt><trkpt lat="43.42857179645825" lon="11.419189839385556"><ele>310.6666666666667</ele><time>2026-04-08T14:51:23.999Z</time></trkpt><trkpt lat="43.4284190323943" lon="11.41925044500544"><ele>311.0</ele><time>2026-04-08T14:51:24.999Z</time></trkpt><trkpt lat="43.42827064285782" lon="11.419352932812004"><ele>311.0</ele><time>2026-04-08T14:51:25.999Z</time></trkpt><trkpt lat="43.42813169133588" lon="11.419494642556906"><ele>311.0</ele><time>2026-04-08T14:51:26.999Z</time></trkpt><trkpt lat="43.42800714139962" lon="11.41964428934668"><ele>311.0</ele><time>2026-04-08T14:51:27.999Z</time></trkpt><trkpt lat="43.427901839560164" lon="11.419803864110337"><ele>311.40000000000003</ele><time>2026-04-08T14:51:28.999Z</time></trkpt><trkpt lat="43.42782537236629" lon="11.419933695705831"><ele>311.8</ele><time>2026-04-08T14:51:29.999Z</time></trkpt><trkpt lat="43.4277586015203" lon="11.420050539873857"><ele>312.20000000000005</ele><time>2026-04-08T14:51:30.999Z</time></trkpt><trkpt lat="43.427719105090965" lon="11.420180611496871"><ele>312.6</ele><time>2026-04-08T14:51:31.999Z</time></trkpt><trkpt lat="43.427712548854494" lon="11.420309358462967"><ele>313.0</ele><time>2026-04-08T14:51:32.999Z</time></trkpt><trkpt lat="43.4277318496072" lon="11.420461439238798"><ele>312.5</ele><time>2026-04-08T14:51:33.999Z</time></trkpt><trkpt lat="43.42776927940178" lon="11.420636109949498"><ele>312.0</ele><time>2026-04-08T14:51:34.999Z</time></trkpt><trkpt lat="43.42780930172706" lon="11.42082422400201"><ele>311.5</ele><time>2026-04-08T14:51:35.999Z</time></trkpt><trkpt lat="43.42784302434051" lon="11.421029325701976"><ele>311.0</ele><time>2026-04-08T14:51:36.999Z</time></trkpt><trkpt lat="43.42785972778103" lon="11.421252578365804"><ele>310.6666666666667</ele><time>2026-04-08T14:51:37.999Z</time></trkpt><trkpt lat="43.42784895164574" lon="11.421501637434503"><ele>310.3333333333333</ele><time>2026-04-08T14:51:38.999Z</time></trkpt><trkpt lat="43.427831727030934" lon="11.42175391481621"><ele>310.0</ele><time>2026-04-08T14:51:39.999Z</time></trkpt><trkpt lat="43.42779018765425" lon="11.422002340568037"><ele>312.0</ele><time>2026-04-08T14:51:40.999Z</time></trkpt><trkpt lat="43.427734889853824" lon="11.42221145765618"><ele>314.0</ele><time>2026-04-08T14:51:41.999Z</time></trkpt><trkpt lat="43.42766902845886" lon="11.422388183795453"><ele>316.0</ele><time>2026-04-08T14:51:42.999Z</time></trkpt><trkpt lat="43.427591790299154" lon="11.422538440643732"><ele>318.0</ele><time>2026-04-08T14:51:43.999Z</time></trkpt><trkpt lat="43.427489692540526" lon="11.422628310256844"><ele>318.0</ele><time>2026-04-08T14:51:44.999Z</time></trkpt><trkpt lat="43.42738981288007" lon="11.422696901502015"><ele>318.0</ele><time>2026-04-08T14:51:45.999Z</time></trkpt><trkpt lat="43.42727313693353" lon="11.42271607385851"><ele>318.0</ele><time>2026-04-08T14:51:46.999Z</time></trkpt><trkpt lat="43.427118718244124" lon="11.422754549674679"><ele>318.0</ele><time>2026-04-08T14:51:47.999Z</time></trkpt><trkpt lat="43.42693929631857" lon="11.422794654357032"><ele>316.6666666666667</ele><time>2026-04-08T14:51:48.999Z</time></trkpt><trkpt lat="43.426747342991476" lon="11.422831603083237"><ele>315.33333333333337</ele><time>2026-04-08T14:51:49.999Z</time></trkpt><trkpt lat="43.42659033345965" lon="11.422872165044135"><ele>314.0</ele><time>2026-04-08T14:51:50.999Z</time></trkpt><trkpt lat="43.4264506032943" lon="11.422908503503935"><ele>314.0</ele><time>2026-04-08T14:51:51.999Z</time></trkpt><trkpt lat="43.426337124646025" lon="11.422962682756774"><ele>314.0</ele><time>2026-04-08T14:51:53Z</time></trkpt><trkpt lat="43.42623221927743" lon="11.423038515390177"><ele>314.0</ele><time>2026-04-08T14:51:54Z</time></trkpt><trkpt lat="43.42616055930853" lon="11.423150562100314"><ele>314.0</ele><time>2026-04-08T14:51:55Z</time></trkpt><trkpt lat="43.4261341703141" lon="11.423297323834511"><ele>314.33333333333337</ele><time>2026-04-08T14:51:56Z</time></trkpt><trkpt lat="43.42614908647993" lon="11.423477465659996"><ele>314.6666666666667</ele><time>2026-04-08T14:51:57Z</time></trkpt><trkpt lat="43.42618947158832" lon="11.423672439489241"><ele>315.0</ele><time>2026-04-08T14:51:58Z</time></trkpt><trkpt lat="43.42625671571688" lon="11.423889200966975"><ele>316.0</ele><time>2026-04-08T14:51:59Z</time></trkpt><trkpt lat="43.42630030058464" lon="11.424132874734491"><ele>317.0</ele><time>2026-04-08T14:52:00Z</time></trkpt><trkpt lat="43.42635207265988" lon="11.42436827362418"><ele>318.0</ele><time>2026-04-08T14:52:01Z</time></trkpt><trkpt lat="43.42640644884929" lon="11.424618483225636"><ele>321.6666666666667</ele><time>2026-04-08T14:52:02Z</time></trkpt><trkpt lat="43.42647685592216" lon="11.424884391597809"><ele>325.33333333333337</ele><time>2026-04-08T14:52:03Z</time></trkpt><trkpt lat="43.42651341695506" lon="11.425134794285508"><ele>329.0</ele><time>2026-04-08T14:52:04Z</time></trkpt><trkpt lat="43.42654487372481" lon="11.42534927548164"><ele>329.33333333333337</ele><time>2026-04-08T14:52:05Z</time></trkpt><trkpt lat="43.42654649267369" lon="11.425564971318709"><ele>329.6666666666667</ele><time>2026-04-08T14:52:06Z</time></trkpt><trkpt lat="43.426532484887225" lon="11.425806926438923"><ele>330.0</ele><time>2026-04-08T14:52:07Z</time></trkpt><trkpt lat="43.42650799409944" lon="11.426054018612804"><ele>332.3333333333333</ele><time>2026-04-08T14:52:08Z</time></trkpt><trkpt lat="43.42646550394448" lon="11.426315996574779"><ele>334.66666666666663</ele><time>2026-04-08T14:52:09Z</time></trkpt><trkpt lat="43.42640439246738" lon="11.426574175573244"><ele>337.0</ele><time>2026-04-08T14:52:10Z</time></trkpt><trkpt lat="43.42633438894718" lon="11.426795209070901"><ele>335.0</ele><time>2026-04-08T14:52:11Z</time></trkpt><trkpt lat="43.426256426001345" lon="11.4269861145682"><ele>333.0</ele><time>2026-04-08T14:52:12Z</time></trkpt><trkpt lat="43.42615789686506" lon="11.427132837487385"><ele>331.0</ele><time>2026-04-08T14:52:13Z</time></trkpt><trkpt lat="43.42605375204934" lon="11.42727415488709"><ele>330.0</ele><time>2026-04-08T14:52:14Z</time></trkpt><trkpt lat="43.425965406745355" lon="11.427403890214766"><ele>329.0</ele><time>2026-04-08T14:52:15Z</time></trkpt><trkpt lat="43.42590976522085" lon="11.427551411239735"><ele>328.0</ele><time>2026-04-08T14:52:16Z</time></trkpt><trkpt lat="43.425894802659904" lon="11.427726835334035"><ele>327.0</ele><time>2026-04-08T14:52:17Z</time></trkpt><trkpt lat="43.42590891456272" lon="11.427955257242708"><ele>327.3333333333333</ele><time>2026-04-08T14:52:18Z</time></trkpt><trkpt lat="43.42589989662295" lon="11.428213314616654"><ele>327.66666666666663</ele><time>2026-04-08T14:52:19Z</time></trkpt><trkpt lat="43.42590135334523" lon="11.428486017361504"><ele>328.0</ele><time>2026-04-08T14:52:20Z</time></trkpt><trkpt lat="43.42590277738279" lon="11.428752600782184"><ele>329.3333333333333</ele><time>2026-04-08T14:52:21Z</time></trkpt><trkpt lat="43.42590429620945" lon="11.429036929081374"><ele>330.6666666666667</ele><time>2026-04-08T14:52:22Z</time></trkpt><trkpt lat="43.425905878560826" lon="11.429333832248556"><ele>332.0</ele><time>2026-04-08T14:52:23Z</time></trkpt><trkpt lat="43.42590734121082" lon="11.429642299825657"><ele>332.0</ele><time>2026-04-08T14:52:24Z</time></trkpt><trkpt lat="43.42590871755837" lon="11.429932566325295"><ele>332.0</ele><time>2026-04-08T14:52:25Z</time></trkpt><trkpt lat="43.42590272982522" lon="11.430188232792858"><ele>332.0</ele><time>2026-04-08T14:52:26Z</time></trkpt><trkpt lat="43.42587674625575" lon="11.430420366115799"><ele>332.6666666666667</ele><time>2026-04-08T14:52:27Z</time></trkpt><trkpt lat="43.4258235745215" lon="11.430648912417404"><ele>333.3333333333333</ele><time>2026-04-08T14:52:28Z</time></trkpt><trkpt lat="43.42574010729604" lon="11.43087741348863"><ele>334.0</ele><time>2026-04-08T14:52:29Z</time></trkpt><trkpt lat="43.425649769795896" lon="11.431120537404581"><ele>336.0</ele><time>2026-04-08T14:52:30Z</time></trkpt><trkpt lat="43.42556125978786" lon="11.431362337624881"><ele>338.0</ele><time>2026-04-08T14:52:31Z</time></trkpt><trkpt lat="43.42548229413479" lon="11.431581082549224"><ele>340.0</ele><time>2026-04-08T14:52:32Z</time></trkpt><trkpt lat="43.42541641897275" lon="11.431770637803336"><ele>340.0</ele><time>2026-04-08T14:52:33Z</time></trkpt><trkpt lat="43.42536632631814" lon="11.431919772506124"><ele>340.0</ele><time>2026-04-08T14:52:34Z</time></trkpt><trkpt lat="43.42533314845716" lon="11.432011116604404"><ele>340.0</ele><time>2026-04-08T14:52:35Z</time></trkpt><trkpt lat="43.42529662943936" lon="11.432106982942475"><ele>340.0</ele><time>2026-04-08T14:52:36Z</time></trkpt><trkpt lat="43.42524837480107" lon="11.432177847115803"><ele>340.0</ele><time>2026-04-08T14:52:37Z</time></trkpt><trkpt lat="43.42517907619479" lon="11.432204448524372"><ele>340.0</ele><time>2026-04-08T14:52:38Z</time></trkpt><trkpt lat="43.425087118604" lon="11.432219655150295"><ele>340.0</ele><time>2026-04-08T14:52:39Z</time></trkpt><trkpt lat="43.42500295516956" lon="11.432281700394064"><ele>340.0</ele><time>2026-04-08T14:52:40Z</time></trkpt><trkpt lat="43.42492263636042" lon="11.432379002434377"><ele>340.0</ele><time>2026-04-08T14:52:41Z</time></trkpt><trkpt lat="43.424894119364936" lon="11.432553329889197"><ele>340.0</ele><time>2026-04-08T14:52:42Z</time></trkpt><trkpt lat="43.424812603691834" lon="11.432732481962832"><ele>340.0</ele><time>2026-04-08T14:52:43Z</time></trkpt><trkpt lat="43.424742426897566" lon="11.43291995158249"><ele>340.0</ele><time>2026-04-08T14:52:44Z</time></trkpt><trkpt lat="43.424674088453244" lon="11.433102510060808"><ele>340.0</ele><time>2026-04-08T14:52:45Z</time></trkpt><trkpt lat="43.42460061819775" lon="11.433298777748442"><ele>342.75</ele><time>2026-04-08T14:52:46Z</time></trkpt><trkpt lat="43.424526264172194" lon="11.433499227352133"><ele>345.5</ele><time>2026-04-08T14:52:47Z</time></trkpt><trkpt lat="43.42446230994177" lon="11.43367726005498"><ele>348.25</ele><time>2026-04-08T14:52:48Z</time></trkpt><trkpt lat="43.424415447929064" lon="11.433846732277852"><ele>351.0</ele><time>2026-04-08T14:52:49Z</time></trkpt><trkpt lat="43.424379134761445" lon="11.434025889389954"><ele>351.0</ele><time>2026-04-08T14:52:50Z</time></trkpt><trkpt lat="43.42435900060706" lon="11.434203555572678"><ele>351.0</ele><time>2026-04-08T14:52:51Z</time></trkpt><trkpt lat="43.42434436268191" lon="11.43435838110545"><ele>351.0</ele><time>2026-04-08T14:52:52Z</time></trkpt><trkpt lat="43.424343187286205" lon="11.434512202722816"><ele>351.0</ele><time>2026-04-08T14:52:53Z</time></trkpt><trkpt lat="43.424344495090175" lon="11.4346385430573"><ele>351.0</ele><time>2026-04-08T14:52:54Z</time></trkpt><trkpt lat="43.42439969484607" lon="11.434776977163164"><ele>350.5</ele><time>2026-04-08T14:52:55Z</time></trkpt><trkpt lat="43.42446386703451" lon="11.434906216118646"><ele>350.0</ele><time>2026-04-08T14:52:56Z</time></trkpt><trkpt lat="43.42456678281067" lon="11.435017307568378"><ele>349.5</ele><time>2026-04-08T14:52:57Z</time></trkpt><trkpt lat="43.4246976336499" lon="11.435089477946704"><ele>349.0</ele><time>2026-04-08T14:52:58Z</time></trkpt><trkpt lat="43.42483359280133" lon="11.43519113976879"><ele>350.0</ele><time>2026-04-08T14:52:59Z</time></trkpt><trkpt lat="43.42499851689108" lon="11.435294733589966"><ele>351.0</ele><time>2026-04-08T14:53:00Z</time></trkpt><trkpt lat="43.425138510075236" lon="11.435417171573276"><ele>352.0</ele><time>2026-04-08T14:53:01Z</time></trkpt><trkpt lat="43.425257001256135" lon="11.43551959392292"><ele>352.0</ele><time>2026-04-08T14:53:02Z</time></trkpt><trkpt lat="43.42532839002147" lon="11.435623308883892"><ele>352.0</ele><time>2026-04-08T14:53:03Z</time></trkpt><trkpt lat="43.425354335638076" lon="11.43573477267784"><ele>352.0</ele><time>2026-04-08T14:53:04Z</time></trkpt><trkpt lat="43.42533664915489" lon="11.435847197368128"><ele>352.0</ele><time>2026-04-08T14:53:05Z</time></trkpt><trkpt lat="43.42530180207083" lon="11.43597645301803"><ele>352.0</ele><time>2026-04-08T14:53:06Z</time></trkpt><trkpt lat="43.42518211928119" lon="11.436067994337542"><ele>352.0</ele><time>2026-04-08T14:53:07Z</time></trkpt><trkpt lat="43.425094028611554" lon="11.436207164527135"><ele>352.0</ele><time>2026-04-08T14:53:08Z</time></trkpt><trkpt lat="43.42501829866844" lon="11.436390554501944"><ele>352.0</ele><time>2026-04-08T14:53:09Z</time></trkpt><trkpt lat="43.42496718114447" lon="11.436582476041377"><ele>352.0</ele><time>2026-04-08T14:53:10Z</time></trkpt><trkpt lat="43.424937065502235" lon="11.436808189616883"><ele>353.0</ele><time>2026-04-08T14:53:11Z</time></trkpt><trkpt lat="43.42492604309715" lon="11.437041371296814"><ele>354.0</ele><time>2026-04-08T14:53:12Z</time></trkpt><trkpt lat="43.42492384940967" lon="11.437291751830516"><ele>355.0</ele><time>2026-04-08T14:53:13Z</time></trkpt><trkpt lat="43.42494162712153" lon="11.437531412661455"><ele>355.0</ele><time>2026-04-08T14:53:14Z</time></trkpt><trkpt lat="43.42497843077934" lon="11.437760010709804"><ele>355.0</ele><time>2026-04-08T14:53:15Z</time></trkpt><trkpt lat="43.42502681954069" lon="11.438019644478421"><ele>355.0</ele><time>2026-04-08T14:53:16Z</time></trkpt><trkpt lat="43.42508695008193" lon="11.4382939315449"><ele>358.0</ele><time>2026-04-08T14:53:17Z</time></trkpt><trkpt lat="43.42515526534906" lon="11.4385788669229"><ele>361.0</ele><time>2026-04-08T14:53:18Z</time></trkpt><trkpt lat="43.42527005962207" lon="11.439038193576792"><ele>359.5</ele><time>2026-04-08T14:53:20Z</time></trkpt><trkpt lat="43.42531558373734" lon="11.439210623909126"><ele>358.0</ele><time>2026-04-08T14:53:20.999Z</time></trkpt><trkpt lat="43.42537632131928" lon="11.439336237095626"><ele>356.5</ele><time>2026-04-08T14:53:21.999Z</time></trkpt><trkpt lat="43.42546419056374" lon="11.439402829816618"><ele>355.0</ele><time>2026-04-08T14:53:22.999Z</time></trkpt><trkpt lat="43.425587868546714" lon="11.439429204309892"><ele>355.0</ele><time>2026-04-08T14:53:23.999Z</time></trkpt><trkpt lat="43.42574283447948" lon="11.439420793995405"><ele>355.0</ele><time>2026-04-08T14:53:24.999Z</time></trkpt><trkpt lat="43.42587885512637" lon="11.439389521596855"><ele>355.0</ele><time>2026-04-08T14:53:25.999Z</time></trkpt><trkpt lat="43.42598719824184" lon="11.439426760138078"><ele>355.0</ele><time>2026-04-08T14:53:26.999Z</time></trkpt><trkpt lat="43.426054487618984" lon="11.439584434334368"><ele>356.5</ele><time>2026-04-08T14:53:27.999Z</time></trkpt><trkpt lat="43.426080683748225" lon="11.439730263775859"><ele>358.0</ele><time>2026-04-08T14:53:28.999Z</time></trkpt><trkpt lat="43.42609156362508" lon="11.439896997240934"><ele>359.5</ele><time>2026-04-08T14:53:29.999Z</time></trkpt><trkpt lat="43.426104309891436" lon="11.440128984280237"><ele>361.0</ele><time>2026-04-08T14:53:30.999Z</time></trkpt><trkpt lat="43.42611674010401" lon="11.440405986472108"><ele>362.66666666666663</ele><time>2026-04-08T14:53:31.999Z</time></trkpt><trkpt lat="43.42612832849551" lon="11.440664229423476"><ele>364.3333333333333</ele><time>2026-04-08T14:53:32.999Z</time></trkpt><trkpt lat="43.42613937586575" lon="11.440908866009451"><ele>366.0</ele><time>2026-04-08T14:53:33.999Z</time></trkpt><trkpt lat="43.42614830418203" lon="11.441103979924288"><ele>366.0</ele><time>2026-04-08T14:53:34.999Z</time></trkpt><trkpt lat="43.42614079768383" lon="11.441248921108427"><ele>366.0</ele><time>2026-04-08T14:53:35.999Z</time></trkpt><trkpt lat="43.42610638676627" lon="11.44136719142232"><ele>366.0</ele><time>2026-04-08T14:53:36.999Z</time></trkpt><trkpt lat="43.426029742478185" lon="11.441462930229106"><ele>366.0</ele><time>2026-04-08T14:53:37.999Z</time></trkpt><trkpt lat="43.42591609604003" lon="11.441525914563131"><ele>366.0</ele><time>2026-04-08T14:53:38.999Z</time></trkpt><trkpt lat="43.4257853396958" lon="11.441595994346718"><ele>365.3333333333333</ele><time>2026-04-08T14:53:39.999Z</time></trkpt><trkpt lat="43.42563711785081" lon="11.441675807113358"><ele>364.66666666666663</ele><time>2026-04-08T14:53:40.999Z</time></trkpt><trkpt lat="43.425484541886675" lon="11.441767312087903"><ele>364.0</ele><time>2026-04-08T14:53:41.999Z</time></trkpt><trkpt lat="43.42535278039072" lon="11.441836350904081"><ele>365.25</ele><time>2026-04-08T14:53:42.999Z</time></trkpt><trkpt lat="43.42524803242665" lon="11.441917946201645"><ele>366.5</ele><time>2026-04-08T14:53:43.999Z</time></trkpt><trkpt lat="43.425151182266596" lon="11.442051326835065"><ele>367.75</ele><time>2026-04-08T14:53:44.999Z</time></trkpt><trkpt lat="43.425059848938425" lon="11.442227460681138"><ele>369.0</ele><time>2026-04-08T14:53:45.999Z</time></trkpt><trkpt lat="43.42499002154935" lon="11.442441346249177"><ele>369.0</ele><time>2026-04-08T14:53:46.999Z</time></trkpt><trkpt lat="43.42493329619605" lon="11.442655897702242"><ele>369.0</ele><time>2026-04-08T14:53:47.999Z</time></trkpt><trkpt lat="43.42486857410514" lon="11.442890724747475"><ele>369.0</ele><time>2026-04-08T14:53:48.999Z</time></trkpt><trkpt lat="43.42484059031499" lon="11.443144585992277"><ele>368.75</ele><time>2026-04-08T14:53:49.999Z</time></trkpt><trkpt lat="43.424832138440884" lon="11.443359788856199"><ele>368.5</ele><time>2026-04-08T14:53:50.999Z</time></trkpt><trkpt lat="43.42483067143972" lon="11.443552533578028"><ele>368.25</ele><time>2026-04-08T14:53:51.999Z</time></trkpt><trkpt lat="43.424803533981716" lon="11.44372010316514"><ele>368.0</ele><time>2026-04-08T14:53:52.999Z</time></trkpt><trkpt lat="43.42476553485115" lon="11.443860974789217"><ele>367.5</ele><time>2026-04-08T14:53:53.999Z</time></trkpt><trkpt lat="43.42468609916573" lon="11.443996917452084"><ele>367.0</ele><time>2026-04-08T14:53:54.999Z</time></trkpt><trkpt lat="43.42458586264739" lon="11.444128646259546"><ele>366.5</ele><time>2026-04-08T14:53:55.999Z</time></trkpt><trkpt lat="43.42447047187834" lon="11.444275894963699"><ele>366.0</ele><time>2026-04-08T14:53:56.999Z</time></trkpt><trkpt lat="43.424382487769094" lon="11.444449433125456"><ele>370.6666666666667</ele><time>2026-04-08T14:53:57.999Z</time></trkpt><trkpt lat="43.42429860293284" lon="11.444640116848928"><ele>375.33333333333337</ele><time>2026-04-08T14:53:59Z</time></trkpt><trkpt lat="43.424213768193184" lon="11.444848211864242"><ele>380.0</ele><time>2026-04-08T14:54:00Z</time></trkpt><trkpt lat="43.42412670978843" lon="11.445054622694807"><ele>380.0</ele><time>2026-04-08T14:54:01Z</time></trkpt><trkpt lat="43.42401878682895" lon="11.445249963742059"><ele>380.0</ele><time>2026-04-08T14:54:02Z</time></trkpt><trkpt lat="43.42395795925917" lon="11.445443018550638"><ele>380.0</ele><time>2026-04-08T14:54:03Z</time></trkpt><trkpt lat="43.423895160918285" lon="11.445591432876936"><ele>380.0</ele><time>2026-04-08T14:54:04Z</time></trkpt><trkpt lat="43.423862505759764" lon="11.445721399380298"><ele>380.0</ele><time>2026-04-08T14:54:05Z</time></trkpt><trkpt lat="43.42385619737821" lon="11.445854114553228"><ele>380.0</ele><time>2026-04-08T14:54:06Z</time></trkpt><trkpt lat="43.42389088622653" lon="11.445988082741467"><ele>380.0</ele><time>2026-04-08T14:54:07Z</time></trkpt><trkpt lat="43.42395607089853" lon="11.44610656441616"><ele>380.0</ele><time>2026-04-08T14:54:08Z</time></trkpt><trkpt lat="43.42406170895397" lon="11.446167072303997"><ele>380.0</ele><time>2026-04-08T14:54:09Z</time></trkpt><trkpt lat="43.424180853358855" lon="11.446209177285553"><ele>380.0</ele><time>2026-04-08T14:54:10Z</time></trkpt><trkpt lat="43.42430751680667" lon="11.446236038390015"><ele>380.0</ele><time>2026-04-08T14:54:11Z</time></trkpt><trkpt lat="43.42438122229902" lon="11.446360165945261"><ele>380.0</ele><time>2026-04-08T14:54:12Z</time></trkpt><trkpt lat="43.42444464880191" lon="11.446498107584993"><ele>382.5</ele><time>2026-04-08T14:54:13Z</time></trkpt><trkpt lat="43.424476076397106" lon="11.446678657951175"><ele>385.0</ele><time>2026-04-08T14:54:14Z</time></trkpt><trkpt lat="43.42446784458556" lon="11.446869542281094"><ele>387.5</ele><time>2026-04-08T14:54:15Z</time></trkpt><trkpt lat="43.42443908483987" lon="11.447061166146186"><ele>390.0</ele><time>2026-04-08T14:54:16Z</time></trkpt><trkpt lat="43.424401304829054" lon="11.447252377852768"><ele>391.0</ele><time>2026-04-08T14:54:17Z</time></trkpt><trkpt lat="43.424331326178674" lon="11.447442111886824"><ele>392.0</ele><time>2026-04-08T14:54:18Z</time></trkpt><trkpt lat="43.42424130332242" lon="11.44757253876332"><ele>393.0</ele><time>2026-04-08T14:54:19Z</time></trkpt><trkpt lat="43.42412199643417" lon="11.44770297961882"><ele>394.0</ele><time>2026-04-08T14:54:20Z</time></trkpt><trkpt lat="43.42400388343183" lon="11.44782498156366"><ele>394.0</ele><time>2026-04-08T14:54:21Z</time></trkpt><trkpt lat="43.42392345689014" lon="11.447948950527131"><ele>394.0</ele><time>2026-04-08T14:54:22Z</time></trkpt><trkpt lat="43.423852227229006" lon="11.448054029382998"><ele>394.0</ele><time>2026-04-08T14:54:23Z</time></trkpt><trkpt lat="43.42381657490815" lon="11.448195181629886"><ele>394.0</ele><time>2026-04-08T14:54:24Z</time></trkpt><trkpt lat="43.42380364951811" lon="11.448381301078442"><ele>393.33333333333337</ele><time>2026-04-08T14:54:25Z</time></trkpt><trkpt lat="43.42385436848307" lon="11.448568155787898"><ele>392.66666666666663</ele><time>2026-04-08T14:54:26Z</time></trkpt><trkpt lat="43.42391910807263" lon="11.448772166597696"><ele>392.0</ele><time>2026-04-08T14:54:27Z</time></trkpt><trkpt lat="43.423978493862386" lon="11.448963627657342"><ele>392.0</ele><time>2026-04-08T14:54:28Z</time></trkpt><trkpt lat="43.42398650534201" lon="11.449129240044059"><ele>392.0</ele><time>2026-04-08T14:54:29Z</time></trkpt><trkpt lat="43.42398719650665" lon="11.449295881762836"><ele>392.0</ele><time>2026-04-08T14:54:30Z</time></trkpt><trkpt lat="43.42395769349388" lon="11.449472054674436"><ele>392.0</ele><time>2026-04-08T14:54:31Z</time></trkpt><trkpt lat="43.423909472500426" lon="11.449657741570832"><ele>390.0</ele><time>2026-04-08T14:54:32Z</time></trkpt><trkpt lat="43.42384975733317" lon="11.449811188182261"><ele>388.0</ele><time>2026-04-08T14:54:33Z</time></trkpt><trkpt lat="43.42377433958097" lon="11.44995590402182"><ele>386.0</ele><time>2026-04-08T14:54:34Z</time></trkpt><trkpt lat="43.423661973964784" lon="11.450118429715275"><ele>384.0</ele><time>2026-04-08T14:54:35Z</time></trkpt><trkpt lat="43.42354912483726" lon="11.450280348714406"><ele>388.33333333333337</ele><time>2026-04-08T14:54:36Z</time></trkpt><trkpt lat="43.42343511630916" lon="11.450448567937634"><ele>392.6666666666667</ele><time>2026-04-08T14:54:37Z</time></trkpt><trkpt lat="43.42331120210344" lon="11.450608638768262"><ele>397.0</ele><time>2026-04-08T14:54:38Z</time></trkpt><trkpt lat="43.42316408500479" lon="11.45076420830675"><ele>397.0</ele><time>2026-04-08T14:54:39Z</time></trkpt><trkpt lat="43.42301242769892" lon="11.450906331774311"><ele>397.0</ele><time>2026-04-08T14:54:40Z</time></trkpt><trkpt lat="43.42286484079476" lon="11.451036346725369"><ele>397.0</ele><time>2026-04-08T14:54:41Z</time></trkpt><trkpt lat="43.422735531397954" lon="11.451144312465887"><ele>396.6666666666667</ele><time>2026-04-08T14:54:42Z</time></trkpt><trkpt lat="43.42260653769585" lon="11.451229373051657"><ele>396.33333333333337</ele><time>2026-04-08T14:54:43Z</time></trkpt><trkpt lat="43.42245346624944" lon="11.451292321969126"><ele>396.0</ele><time>2026-04-08T14:54:44Z</time></trkpt><trkpt lat="43.422302963879204" lon="11.451323126396757"><ele>396.0</ele><time>2026-04-08T14:54:45Z</time></trkpt><trkpt lat="43.42215620536071" lon="11.451324785220681"><ele>396.0</ele><time>2026-04-08T14:54:46Z</time></trkpt><trkpt lat="43.42204783212764" lon="11.451339323497242"><ele>396.0</ele><time>2026-04-08T14:54:47Z</time></trkpt><trkpt lat="43.42194647780767" lon="11.451360883065904"><ele>396.0</ele><time>2026-04-08T14:54:48Z</time></trkpt><trkpt lat="43.421845975821064" lon="11.451449609653496"><ele>401.75</ele><time>2026-04-08T14:54:49Z</time></trkpt><trkpt lat="43.42177178475445" lon="11.451590589641759"><ele>407.5</ele><time>2026-04-08T14:54:50Z</time></trkpt><trkpt lat="43.421753297378324" lon="11.451787716777865"><ele>413.25</ele><time>2026-04-08T14:54:51Z</time></trkpt><trkpt lat="43.42178304655472" lon="11.451993269097386"><ele>419.0</ele><time>2026-04-08T14:54:52Z</time></trkpt><trkpt lat="43.42175561911799" lon="11.452162599435697"><ele>419.0</ele><time>2026-04-08T14:54:53Z</time></trkpt><trkpt lat="43.42171019549302" lon="11.45230802336113"><ele>419.0</ele><time>2026-04-08T14:54:54Z</time></trkpt><trkpt lat="43.421649646724" lon="11.452488911154811"><ele>419.0</ele><time>2026-04-08T14:54:55Z</time></trkpt><trkpt lat="43.421583872333805" lon="11.452672294989087"><ele>419.0</ele><time>2026-04-08T14:54:56Z</time></trkpt><trkpt lat="43.4215463950606" lon="11.452833166007997"><ele>418.0</ele><time>2026-04-08T14:54:57Z</time></trkpt><trkpt lat="43.421547449566326" lon="11.452994642652504"><ele>417.0</ele><time>2026-04-08T14:54:58Z</time></trkpt><trkpt lat="43.421625674329334" lon="11.45315099305904"><ele>416.0</ele><time>2026-04-08T14:54:59Z</time></trkpt><trkpt lat="43.42171601451567" lon="11.453295849873466"><ele>415.0</ele><time>2026-04-08T14:55:00Z</time></trkpt><trkpt lat="43.421784278115844" lon="11.453441945228045"><ele>415.0</ele><time>2026-04-08T14:55:01Z</time></trkpt><trkpt lat="43.42182292736979" lon="11.453567914334133"><ele>415.0</ele><time>2026-04-08T14:55:02Z</time></trkpt><trkpt lat="43.42182603379757" lon="11.453714243732687"><ele>415.0</ele><time>2026-04-08T14:55:03Z</time></trkpt><trkpt lat="43.42180610016302" lon="11.453870039755998"><ele>415.0</ele><time>2026-04-08T14:55:04Z</time></trkpt><trkpt lat="43.421750140555524" lon="11.453999425300175"><ele>415.0</ele><time>2026-04-08T14:55:05Z</time></trkpt><trkpt lat="43.421663043949614" lon="11.454139519607004"><ele>414.5</ele><time>2026-04-08T14:55:06Z</time></trkpt><trkpt lat="43.42154628677881" lon="11.454253724015159"><ele>414.0</ele><time>2026-04-08T14:55:07Z</time></trkpt><trkpt lat="43.421427278524405" lon="11.45435648265442"><ele>413.5</ele><time>2026-04-08T14:55:08Z</time></trkpt><trkpt lat="43.42130755410028" lon="11.454450747496704"><ele>413.0</ele><time>2026-04-08T14:55:09Z</time></trkpt><trkpt lat="43.42117025737479" lon="11.454540765281191"><ele>416.0</ele><time>2026-04-08T14:55:10Z</time></trkpt><trkpt lat="43.42103561291205" lon="11.454663124385803"><ele>419.0</ele><time>2026-04-08T14:55:11Z</time></trkpt><trkpt lat="43.420920736281275" lon="11.454840131651034"><ele>422.0</ele><time>2026-04-08T14:55:12Z</time></trkpt><trkpt lat="43.420823994396244" lon="11.45504129063966"><ele>422.0</ele><time>2026-04-08T14:55:13Z</time></trkpt><trkpt lat="43.420721460396976" lon="11.455213894429413"><ele>422.0</ele><time>2026-04-08T14:55:14Z</time></trkpt><trkpt lat="43.42059705663998" lon="11.45538111833952"><ele>422.0</ele><time>2026-04-08T14:55:15Z</time></trkpt><trkpt lat="43.42046484280863" lon="11.455565403497548"><ele>424.0</ele><time>2026-04-08T14:55:16Z</time></trkpt><trkpt lat="43.42032760795839" lon="11.455759034114681"><ele>426.0</ele><time>2026-04-08T14:55:17Z</time></trkpt><trkpt lat="43.420194685333826" lon="11.455954318896978"><ele>428.0</ele><time>2026-04-08T14:55:18Z</time></trkpt><trkpt lat="43.42006310199709" lon="11.456149435302573"><ele>426.3333333333333</ele><time>2026-04-08T14:55:19Z</time></trkpt><trkpt lat="43.419927980703356" lon="11.456348609060955"><ele>424.66666666666663</ele><time>2026-04-08T14:55:20Z</time></trkpt><trkpt lat="43.419808455987464" lon="11.45651705210054"><ele>423.0</ele><time>2026-04-08T14:55:21Z</time></trkpt><trkpt lat="43.419701472669935" lon="11.456653861334818"><ele>426.25</ele><time>2026-04-08T14:55:22Z</time></trkpt><trkpt lat="43.419598387904685" lon="11.45675128973465"><ele>429.5</ele><time>2026-04-08T14:55:22.999Z</time></trkpt><trkpt lat="43.419484819103836" lon="11.456813314178625"><ele>432.75</ele><time>2026-04-08T14:55:23.999Z</time></trkpt><trkpt lat="43.41935472851353" lon="11.456842681931269"><ele>436.0</ele><time>2026-04-08T14:55:24.999Z</time></trkpt><trkpt lat="43.41924514998133" lon="11.456882353234905"><ele>436.0</ele><time>2026-04-08T14:55:25.999Z</time></trkpt><trkpt lat="43.41914938116303" lon="11.45690780683905"><ele>436.0</ele><time>2026-04-08T14:55:26.999Z</time></trkpt><trkpt lat="43.41907456855764" lon="11.457005105450326"><ele>436.0</ele><time>2026-04-08T14:55:27.999Z</time></trkpt><trkpt lat="43.419003907141935" lon="11.457159253205687"><ele>436.0</ele><time>2026-04-08T14:55:28.999Z</time></trkpt><trkpt lat="43.41898835520855" lon="11.457355849096174"><ele>435.4</ele><time>2026-04-08T14:55:29.999Z</time></trkpt><trkpt lat="43.41896737340527" lon="11.457500768373768"><ele>434.8</ele><time>2026-04-08T14:55:30.999Z</time></trkpt><trkpt lat="43.4189294211873" lon="11.457623291019166"><ele>434.19999999999993</ele><time>2026-04-08T14:55:31.999Z</time></trkpt><trkpt lat="43.418862027067306" lon="11.457735811937775"><ele>433.59999999999997</ele><time>2026-04-08T14:55:32.999Z</time></trkpt><trkpt lat="43.41876640082896" lon="11.457807513588088"><ele>433.0</ele><time>2026-04-08T14:55:33.999Z</time></trkpt><trkpt lat="43.41863267198684" lon="11.457914963990545"><ele>433.0</ele><time>2026-04-08T14:55:34.999Z</time></trkpt><trkpt lat="43.418503106829995" lon="11.458043005000366"><ele>433.0</ele><time>2026-04-08T14:55:35.999Z</time></trkpt><trkpt lat="43.41835576580461" lon="11.458149180438689"><ele>433.0</ele><time>2026-04-08T14:55:36.999Z</time></trkpt><trkpt lat="43.418215140640605" lon="11.458264413823667"><ele>433.0</ele><time>2026-04-08T14:55:37.999Z</time></trkpt><trkpt lat="43.41808385385793" lon="11.458333779004667"><ele>433.0</ele><time>2026-04-08T14:55:38.999Z</time></trkpt><trkpt lat="43.41797061918102" lon="11.458393870835073"><ele>433.0</ele><time>2026-04-08T14:55:39.999Z</time></trkpt><trkpt lat="43.41786046393125" lon="11.458402407419413"><ele>433.0</ele><time>2026-04-08T14:55:40.999Z</time></trkpt><trkpt lat="43.41772804040494" lon="11.458362404511268"><ele>434.5</ele><time>2026-04-08T14:55:41.999Z</time></trkpt><trkpt lat="43.41758838964031" lon="11.458275843629268"><ele>436.0</ele><time>2026-04-08T14:55:42.999Z</time></trkpt><trkpt lat="43.41745659167229" lon="11.458199515569133"><ele>437.5</ele><time>2026-04-08T14:55:43.999Z</time></trkpt><trkpt lat="43.417324903891426" lon="11.458091292936446"><ele>439.0</ele><time>2026-04-08T14:55:44.999Z</time></trkpt><trkpt lat="43.41717112073482" lon="11.458014395581714"><ele>439.6666666666667</ele><time>2026-04-08T14:55:45.999Z</time></trkpt><trkpt lat="43.417002284593224" lon="11.457997435426714"><ele>440.33333333333337</ele><time>2026-04-08T14:55:46.999Z</time></trkpt><trkpt lat="43.416841779736934" lon="11.4579898434535"><ele>441.0</ele><time>2026-04-08T14:55:47.999Z</time></trkpt><trkpt lat="43.41671001840566" lon="11.457976775077785"><ele>441.0</ele><time>2026-04-08T14:55:48.999Z</time></trkpt><trkpt lat="43.416587073873295" lon="11.457970137265804"><ele>441.0</ele><time>2026-04-08T14:55:49.999Z</time></trkpt><trkpt lat="43.416462475332786" lon="11.457996614544093"><ele>441.0</ele><time>2026-04-08T14:55:50.999Z</time></trkpt><trkpt lat="43.4163398595871" lon="11.458077026172116"><ele>441.0</ele><time>2026-04-08T14:55:51.999Z</time></trkpt><trkpt lat="43.41620513491722" lon="11.458164227705582"><ele>442.25</ele><time>2026-04-08T14:55:52.999Z</time></trkpt><trkpt lat="43.41607639917003" lon="11.458268601314263"><ele>443.5</ele><time>2026-04-08T14:55:53.999Z</time></trkpt><trkpt lat="43.415971044395214" lon="11.458354018600858"><ele>444.75</ele><time>2026-04-08T14:55:54.999Z</time></trkpt><trkpt lat="43.41587655576494" lon="11.458430626067392"><ele>446.0</ele><time>2026-04-08T14:55:55.999Z</time></trkpt><trkpt lat="43.41590233942826" lon="11.458780484612943"><ele>446.8</ele><time>2026-04-08T14:55:56.999Z</time></trkpt><trkpt lat="43.415872742365366" lon="11.458960482099304"><ele>447.6</ele><time>2026-04-08T14:55:57.999Z</time></trkpt><trkpt lat="43.41586681798222" lon="11.459104430321272"><ele>448.4</ele><time>2026-04-08T14:55:58.999Z</time></trkpt><trkpt lat="43.41586983058531" lon="11.459219537189632"><ele>449.2</ele><time>2026-04-08T14:55:59.999Z</time></trkpt><trkpt lat="43.415885873484115" lon="11.459348358175356"><ele>450.0</ele><time>2026-04-08T14:56:01.999Z</time></trkpt><trkpt lat="43.41589029967898" lon="11.459460768708762"><ele>450.0</ele><time>2026-04-08T14:56:47Z</time></trkpt><trkpt lat="43.41589911650158" lon="11.45956025369684"><ele>450.0</ele><time>2026-04-08T14:56:48Z</time></trkpt><trkpt lat="43.415898657040536" lon="11.459667886053374"><ele>450.0</ele><time>2026-04-08T14:56:49Z</time></trkpt><trkpt lat="43.415900224249675" lon="11.459786754729116"><ele>450.0</ele><time>2026-04-08T14:56:50Z</time></trkpt><trkpt lat="43.415900173699946" lon="11.459938099179482"><ele>450.0</ele><time>2026-04-08T14:56:51Z</time></trkpt><trkpt lat="43.415903323035" lon="11.460115357338076"><ele>451.4</ele><time>2026-04-08T14:56:52Z</time></trkpt><trkpt lat="43.41590652094223" lon="11.460288977726343"><ele>452.8</ele><time>2026-04-08T14:56:53Z</time></trkpt><trkpt lat="43.415910847138065" lon="11.46043534430917"><ele>454.20000000000005</ele><time>2026-04-08T14:56:54Z</time></trkpt><trkpt lat="43.41591795850696" lon="11.46057164291179"><ele>455.6</ele><time>2026-04-08T14:56:55Z</time></trkpt><trkpt lat="43.41594198166267" lon="11.460704057417562"><ele>457.0</ele><time>2026-04-08T14:56:56Z</time></trkpt><trkpt lat="43.41598296423579" lon="11.46081535704818"><ele>459.8</ele><time>2026-04-08T14:56:57Z</time></trkpt><trkpt lat="43.41607059204842" lon="11.460964134013508"><ele>462.6</ele><time>2026-04-08T14:56:59Z</time></trkpt><trkpt lat="43.4160990736387" lon="11.461051973744713"><ele>465.40000000000003</ele><time>2026-04-08T14:57:00Z</time></trkpt><trkpt lat="43.41613774105317" lon="11.461198615898036"><ele>468.20000000000005</ele><time>2026-04-08T14:57:02Z</time></trkpt><trkpt lat="43.41608978035992" lon="11.46134208548877"><ele>471.0</ele><time>2026-04-08T14:57:04Z</time></trkpt><trkpt lat="43.41601020027368" lon="11.461380088184088"><ele>471.0</ele><time>2026-04-08T14:57:05Z</time></trkpt><trkpt lat="43.41592414415613" lon="11.461414900173423"><ele>471.0</ele><time>2026-04-08T14:57:06Z</time></trkpt><trkpt lat="43.4158467312866" lon="11.461423310811444"><ele>471.0</ele><time>2026-04-08T14:57:07Z</time></trkpt><trkpt lat="43.41575381736501" lon="11.461331162605411"><ele>471.0</ele><time>2026-04-08T14:57:09Z</time></trkpt><trkpt lat="43.415688852500104" lon="11.461158655731507"><ele>471.0</ele><time>2026-04-08T14:57:11Z</time></trkpt><trkpt lat="43.41565799410376" lon="11.461056649475664"><ele>471.0</ele><time>2026-04-08T14:57:12Z</time></trkpt><trkpt lat="43.41562001929874" lon="11.460943984289418"><ele>471.0</ele><time>2026-04-08T14:57:13Z</time></trkpt><trkpt lat="43.41559624320552" lon="11.460836697755399"><ele>471.0</ele><time>2026-04-08T14:57:14Z</time></trkpt><trkpt lat="43.415553742227786" lon="11.460729434548709"><ele>471.0</ele><time>2026-04-08T14:57:15Z</time></trkpt><trkpt lat="43.41546374339022" lon="11.460665645137365"><ele>471.0</ele><time>2026-04-08T14:57:16Z</time></trkpt><trkpt lat="43.415383673601575" lon="11.460620409642006"><ele>471.0</ele><time>2026-04-08T14:57:17Z</time></trkpt><trkpt lat="43.41528556761942" lon="11.460567312240947"><ele>472.8</ele><time>2026-04-08T14:57:19Z</time></trkpt><trkpt lat="43.41529133765864" lon="11.460761675786516"><ele>474.6</ele><time>2026-04-08T14:57:23Z</time></trkpt><trkpt lat="43.41537321780322" lon="11.460872027542289"><ele>476.4</ele><time>2026-04-08T14:57:25Z</time></trkpt><trkpt lat="43.41543266851325" lon="11.460945962779496"><ele>478.2</ele><time>2026-04-08T14:57:26Z</time></trkpt><trkpt lat="43.41546791323403" lon="11.461054594118131"><ele>480.0</ele><time>2026-04-08T14:57:28Z</time></trkpt><trkpt lat="43.415467249732686" lon="11.461213726061935"><ele>482.0</ele><time>2026-04-08T14:57:30Z</time></trkpt><trkpt lat="43.41542802751865" lon="11.46128716284036"><ele>484.0</ele><time>2026-04-08T14:57:31Z</time></trkpt><trkpt lat="43.41539118997499" lon="11.461479152162696"><ele>486.0</ele><time>2026-04-08T14:57:32.999Z</time></trkpt><trkpt lat="43.41538395231206" lon="11.461567081551586"><ele>488.0</ele><time>2026-04-08T14:57:33.999Z</time></trkpt><trkpt lat="43.41535964798315" lon="11.461715167832605"><ele>490.0</ele><time>2026-04-08T14:57:35.999Z</time></trkpt><trkpt lat="43.415294929727054" lon="11.461728500877898"><ele>490.0</ele><time>2026-04-08T14:57:38.999Z</time></trkpt><trkpt lat="43.415255491391925" lon="11.46163561256366"><ele>490.0</ele><time>2026-04-08T14:57:41.999Z</time></trkpt><trkpt lat="43.41524345368069" lon="11.461548593803062"><ele>490.0</ele><time>2026-04-08T14:57:42.999Z</time></trkpt><trkpt lat="43.415215632556496" lon="11.461465670159772"><ele>490.0</ele><time>2026-04-08T14:57:43.999Z</time></trkpt><trkpt lat="43.41517464571854" lon="11.461391914065224"><ele>490.0</ele><time>2026-04-08T14:57:44.999Z</time></trkpt><trkpt lat="43.4150858335558" lon="11.46132582483123"><ele>490.0</ele><time>2026-04-08T14:57:46.999Z</time></trkpt><trkpt lat="43.41502471203215" lon="11.461371714299759"><ele>490.0</ele><time>2026-04-08T14:57:47.999Z</time></trkpt><trkpt lat="43.41501682477991" lon="11.461476033158352"><ele>490.0</ele><time>2026-04-08T14:57:48.999Z</time></trkpt><trkpt lat="43.41498635541873" lon="11.4616248483068"><ele>490.0</ele><time>2026-04-08T14:57:50.999Z</time></trkpt><trkpt lat="43.41497896624795" lon="11.461725878693471"><ele>490.0</ele><time>2026-04-08T14:57:51.999Z</time></trkpt><trkpt lat="43.41492420773452" lon="11.461819285687262"><ele>490.0</ele><time>2026-04-08T14:57:52.999Z</time></trkpt><trkpt lat="43.414886648004796" lon="11.461944524245212"><ele>490.0</ele><time>2026-04-08T14:57:53.999Z</time></trkpt><trkpt lat="43.41483613746687" lon="11.462041638419612"><ele>491.1428571428571</ele><time>2026-04-08T14:57:54.999Z</time></trkpt><trkpt lat="43.414800773714106" lon="11.462129983823685"><ele>492.2857142857143</ele><time>2026-04-08T14:57:55.999Z</time></trkpt><trkpt lat="43.41475443740664" lon="11.462201935302947"><ele>493.42857142857144</ele><time>2026-04-08T14:57:56.999Z</time></trkpt><trkpt lat="43.4147091359437" lon="11.462268198251193"><ele>494.57142857142856</ele><time>2026-04-08T14:57:57.999Z</time></trkpt><trkpt lat="43.41471558587277" lon="11.462373792070704"><ele>495.71428571428567</ele><time>2026-04-08T14:57:58.999Z</time></trkpt><trkpt lat="43.41469930638972" lon="11.4624603130383"><ele>496.85714285714283</ele><time>2026-04-08T14:57:59.999Z</time></trkpt><trkpt lat="43.41465666056254" lon="11.462556115743961"><ele>498.0</ele><time>2026-04-08T14:58:00.999Z</time></trkpt><trkpt lat="43.414628056140515" lon="11.46263757806504"><ele>500.4</ele><time>2026-04-08T14:58:01.999Z</time></trkpt><trkpt lat="43.41461378759723" lon="11.462745736930662"><ele>502.79999999999995</ele><time>2026-04-08T14:58:02.999Z</time></trkpt><trkpt lat="43.414575022383424" lon="11.462833068411786"><ele>505.2</ele><time>2026-04-08T14:58:03.999Z</time></trkpt><trkpt lat="43.41456116677548" lon="11.462951397712063"><ele>507.6</ele><time>2026-04-08T14:58:04.999Z</time></trkpt><trkpt lat="43.414538251413326" lon="11.463053328524536"><ele>510.0</ele><time>2026-04-08T14:58:05.999Z</time></trkpt><trkpt lat="43.4145674107033" lon="11.463241403164776"><ele>512.3333333333334</ele><time>2026-04-08T14:58:07.999Z</time></trkpt><trkpt lat="43.41457480039195" lon="11.463383703862464"><ele>514.6666666666666</ele><time>2026-04-08T14:58:08.999Z</time></trkpt><trkpt lat="43.41459036880993" lon="11.463515856254057"><ele>517.0</ele><time>2026-04-08T14:58:09.999Z</time></trkpt><trkpt lat="43.41458398875215" lon="11.463624764420787"><ele>519.3333333333333</ele><time>2026-04-08T14:58:11Z</time></trkpt><trkpt lat="43.41456017593712" lon="11.463718450541633"><ele>521.6666666666666</ele><time>2026-04-08T14:58:12Z</time></trkpt><trkpt lat="43.41453847428726" lon="11.463821495127654"><ele>524.0</ele><time>2026-04-08T14:58:13Z</time></trkpt><trkpt lat="43.414504290149445" lon="11.463921360834394"><ele>524.0</ele><time>2026-04-08T14:58:14Z</time></trkpt><trkpt lat="43.41446121419205" lon="11.46401884600725"><ele>524.0</ele><time>2026-04-08T14:58:15Z</time></trkpt><trkpt lat="43.41440266663764" lon="11.464091509545092"><ele>524.0</ele><time>2026-04-08T14:58:16Z</time></trkpt><trkpt lat="43.414339398208995" lon="11.464182293130161"><ele>524.0</ele><time>2026-04-08T14:58:17Z</time></trkpt><trkpt lat="43.414241314562474" lon="11.464255467355764"><ele>524.0</ele><time>2026-04-08T14:58:18Z</time></trkpt><trkpt lat="43.41416184512003" lon="11.464327506191436"><ele>524.0</ele><time>2026-04-08T14:58:19Z</time></trkpt><trkpt lat="43.41408600196343" lon="11.46439078970739"><ele>524.0</ele><time>2026-04-08T14:58:20Z</time></trkpt><trkpt lat="43.41400227266166" lon="11.464453803746267"><ele>524.0</ele><time>2026-04-08T14:58:21Z</time></trkpt><trkpt lat="43.413903939614876" lon="11.464516418542125"><ele>524.0</ele><time>2026-04-08T14:58:22Z</time></trkpt><trkpt lat="43.41381940708716" lon="11.464564824624706"><ele>524.0</ele><time>2026-04-08T14:58:23Z</time></trkpt><trkpt lat="43.41373716595454" lon="11.464594026935401"><ele>525.4</ele><time>2026-04-08T14:58:24Z</time></trkpt><trkpt lat="43.41362794526588" lon="11.46461241728799"><ele>526.8</ele><time>2026-04-08T14:58:25Z</time></trkpt><trkpt lat="43.413536998604236" lon="11.464636021605559"><ele>528.2</ele><time>2026-04-08T14:58:26Z</time></trkpt><trkpt lat="43.41343537325222" lon="11.464619949785309"><ele>529.6</ele><time>2026-04-08T14:58:27Z</time></trkpt><trkpt lat="43.41335031482704" lon="11.464600470245527"><ele>531.0</ele><time>2026-04-08T14:58:28Z</time></trkpt><trkpt lat="43.413255014151034" lon="11.464553757867662"><ele>531.0</ele><time>2026-04-08T14:58:29Z</time></trkpt><trkpt lat="43.413176978831004" lon="11.464511440027543"><ele>531.0</ele><time>2026-04-08T14:58:30Z</time></trkpt><trkpt lat="43.41312549693145" lon="11.464450720119144"><ele>531.0</ele><time>2026-04-08T14:58:31Z</time></trkpt><trkpt lat="43.41299735698013" lon="11.464391714165487"><ele>531.0</ele><time>2026-04-08T14:58:33Z</time></trkpt><trkpt lat="43.41287998819618" lon="11.46437818964606"><ele>531.0</ele><time>2026-04-08T14:58:35Z</time></trkpt><trkpt lat="43.412755293561695" lon="11.464370300636338"><ele>527.6</ele><time>2026-04-08T14:58:37Z</time></trkpt><trkpt lat="43.41264250324523" lon="11.46433534017691"><ele>524.2</ele><time>2026-04-08T14:58:39Z</time></trkpt><trkpt lat="43.41253038297568" lon="11.464326638027355"><ele>520.8</ele><time>2026-04-08T14:58:41Z</time></trkpt><trkpt lat="43.412429828365674" lon="11.464359003217915"><ele>517.4</ele><time>2026-04-08T14:58:43Z</time></trkpt><trkpt lat="43.41233141764055" lon="11.46442283865962"><ele>514.0</ele><time>2026-04-08T14:58:45Z</time></trkpt><trkpt lat="43.41222373035201" lon="11.464496984781269"><ele>512.1666666666667</ele><time>2026-04-08T14:58:47Z</time></trkpt><trkpt lat="43.41211949453514" lon="11.464568511261787"><ele>510.33333333333337</ele><time>2026-04-08T14:58:49Z</time></trkpt><trkpt lat="43.412058774223865" lon="11.464609004217431"><ele>508.5</ele><time>2026-04-08T14:58:50Z</time></trkpt><trkpt lat="43.41198928794892" lon="11.46465534297753"><ele>506.66666666666663</ele><time>2026-04-08T14:58:51Z</time></trkpt><trkpt lat="43.41192683564589" lon="11.46469489801362"><ele>504.8333333333333</ele><time>2026-04-08T14:58:52Z</time></trkpt><trkpt lat="43.41187006903201" lon="11.464737274725978"><ele>503.0</ele><time>2026-04-08T14:58:53Z</time></trkpt><trkpt lat="43.41176813024737" lon="11.46477495307328"><ele>502.99999999999994</ele><time>2026-04-08T14:58:55Z</time></trkpt><trkpt lat="43.41166626216546" lon="11.464804272545486"><ele>503.0</ele><time>2026-04-08T14:58:57Z</time></trkpt><trkpt lat="43.411567439877636" lon="11.46480352596007"><ele>503.0</ele><time>2026-04-08T14:58:59Z</time></trkpt><trkpt lat="43.411491033717574" lon="11.464768420591588"><ele>503.0</ele><time>2026-04-08T14:59:00Z</time></trkpt><trkpt lat="43.41141707667903" lon="11.46472438132855"><ele>502.99999999999994</ele><time>2026-04-08T14:59:01Z</time></trkpt><trkpt lat="43.411352220340746" lon="11.464657367000374"><ele>503.0</ele><time>2026-04-08T14:59:02Z</time></trkpt><trkpt lat="43.41128206648619" lon="11.46462936558752"><ele>501.49999999999994</ele><time>2026-04-08T14:59:03Z</time></trkpt><trkpt lat="43.411216722445175" lon="11.464569238538715"><ele>500.0</ele><time>2026-04-08T14:59:04Z</time></trkpt><trkpt lat="43.41116281154407" lon="11.46452429557777"><ele>498.5</ele><time>2026-04-08T14:59:05Z</time></trkpt><trkpt lat="43.411054432485194" lon="11.464465239352975"><ele>497.0</ele><time>2026-04-08T14:59:07Z</time></trkpt><trkpt lat="43.41099854147726" lon="11.464419775320213"><ele>495.49999999999994</ele><time>2026-04-08T14:59:08Z</time></trkpt><trkpt lat="43.41090374302308" lon="11.464411836957916"><ele>494.0</ele><time>2026-04-08T14:59:09Z</time></trkpt><trkpt lat="43.410827015289435" lon="11.464417531019878"><ele>494.0</ele><time>2026-04-08T14:59:10Z</time></trkpt><trkpt lat="43.410757177787936" lon="11.4644275539149"><ele>494.0</ele><time>2026-04-08T14:59:11Z</time></trkpt><trkpt lat="43.41064770224614" lon="11.464442002511"><ele>494.0</ele><time>2026-04-08T14:59:13Z</time></trkpt><trkpt lat="43.41056785183561" lon="11.464449937177026"><ele>494.0</ele><time>2026-04-08T14:59:16Z</time></trkpt><trkpt lat="43.41064897868043" lon="11.464410045337619"><ele>494.0</ele><time>2026-04-08T14:59:40.999Z</time></trkpt><trkpt lat="43.41077088951297" lon="11.464390223647333"><ele>493.99999999999994</ele><time>2026-04-08T14:59:42.999Z</time></trkpt><trkpt lat="43.41086167187823" lon="11.464355869331529"><ele>494.0</ele><time>2026-04-08T14:59:43.999Z</time></trkpt><trkpt lat="43.41095240716952" lon="11.464322070787007"><ele>494.0</ele><time>2026-04-08T14:59:45.999Z</time></trkpt><trkpt lat="43.41101618333766" lon="11.464343951914405"><ele>494.0</ele><time>2026-04-08T14:59:48.999Z</time></trkpt><trkpt lat="43.41091891868274" lon="11.464338857911178"><ele>493.99999999999994</ele><time>2026-04-08T14:59:59.999Z</time></trkpt><trkpt lat="43.41084469631248" lon="11.464349266332007"><ele>494.0</ele><time>2026-04-08T15:00:00.999Z</time></trkpt><trkpt lat="43.41076814905789" lon="11.464357653743996"><ele>493.99999999999994</ele><time>2026-04-08T15:00:01.999Z</time></trkpt><trkpt lat="43.410708233229236" lon="11.464411925183859"><ele>494.0</ele><time>2026-04-08T15:00:03.999Z</time></trkpt><trkpt lat="43.410630430901726" lon="11.464385797733257"><ele>494.0</ele><time>2026-04-08T15:01:35Z</time></trkpt><trkpt lat="43.41055921852701" lon="11.464421006675472"><ele>494.0</ele><time>2026-04-08T15:01:37Z</time></trkpt><trkpt lat="43.41048097714502" lon="11.464468560444242"><ele>493.99999999999994</ele><time>2026-04-08T15:01:38.999Z</time></trkpt><trkpt lat="43.41037905907592" lon="11.464474516795788"><ele>494.0</ele><time>2026-04-08T15:01:40.999Z</time></trkpt><trkpt lat="43.41025075686269" lon="11.464476883626753"><ele>493.6</ele><time>2026-04-08T15:01:42.999Z</time></trkpt><trkpt lat="43.41016527291194" lon="11.464456508973546"><ele>493.2</ele><time>2026-04-08T15:01:43.999Z</time></trkpt><trkpt lat="43.41007227811534" lon="11.464458290643163"><ele>492.80000000000007</ele><time>2026-04-08T15:01:44.999Z</time></trkpt><trkpt lat="43.40997428251808" lon="11.464460416841382"><ele>492.40000000000003</ele><time>2026-04-08T15:01:45.999Z</time></trkpt><trkpt lat="43.409883413086874" lon="11.464462388423145"><ele>492.0</ele><time>2026-04-08T15:01:46.999Z</time></trkpt><trkpt lat="43.40977672324497" lon="11.464466412234069"><ele>492.0</ele><time>2026-04-08T15:01:47.999Z</time></trkpt><trkpt lat="43.40966558047068" lon="11.464471909882048"><ele>492.00000000000006</ele><time>2026-04-08T15:01:48.999Z</time></trkpt><trkpt lat="43.40955335916791" lon="11.46447771682214"><ele>492.00000000000006</ele><time>2026-04-08T15:01:49.999Z</time></trkpt><trkpt lat="43.409454730693604" lon="11.464484434267476"><ele>492.0</ele><time>2026-04-08T15:01:50.999Z</time></trkpt><trkpt lat="43.40936289850136" lon="11.46449068882902"><ele>492.0</ele><time>2026-04-08T15:01:51.999Z</time></trkpt><trkpt lat="43.40927360493896" lon="11.464498663512195"><ele>492.1666666666667</ele><time>2026-04-08T15:01:52.999Z</time></trkpt><trkpt lat="43.409183536350284" lon="11.464508526072999"><ele>492.33333333333337</ele><time>2026-04-08T15:01:53.999Z</time></trkpt><trkpt lat="43.40910403083185" lon="11.4645182497679"><ele>492.5</ele><time>2026-04-08T15:01:54.999Z</time></trkpt><trkpt lat="43.409029158692654" lon="11.464527406792042"><ele>492.6666666666667</ele><time>2026-04-08T15:01:55.999Z</time></trkpt><trkpt lat="43.40895543015364" lon="11.46453481548804"><ele>492.83333333333337</ele><time>2026-04-08T15:01:56.999Z</time></trkpt><trkpt lat="43.40886591746485" lon="11.46454371295782"><ele>493.0</ele><time>2026-04-08T15:01:57.999Z</time></trkpt><trkpt lat="43.40877564155427" lon="11.464571292515839"><ele>492.33333333333337</ele><time>2026-04-08T15:01:58.999Z</time></trkpt><trkpt lat="43.40868020369884" lon="11.464569712702597"><ele>491.6666666666667</ele><time>2026-04-08T15:01:59.999Z</time></trkpt><trkpt lat="43.40859181178247" lon="11.464561403496973"><ele>491.0</ele><time>2026-04-08T15:02:00.999Z</time></trkpt><trkpt lat="43.4085033077942" lon="11.464554841391132"><ele>490.33333333333337</ele><time>2026-04-08T15:02:01.999Z</time></trkpt><trkpt lat="43.408419745785736" lon="11.464545690812505"><ele>489.6666666666667</ele><time>2026-04-08T15:02:02.999Z</time></trkpt><trkpt lat="43.40833791778461" lon="11.464536391209288"><ele>489.0</ele><time>2026-04-08T15:02:03.999Z</time></trkpt><trkpt lat="43.40825533431311" lon="11.46453565794377"><ele>489.0</ele><time>2026-04-08T15:02:04.999Z</time></trkpt><trkpt lat="43.40817209842284" lon="11.464530744809343"><ele>489.0</ele><time>2026-04-08T15:02:05.999Z</time></trkpt><trkpt lat="43.408066169567995" lon="11.464536819798688"><ele>489.0</ele><time>2026-04-08T15:02:06.999Z</time></trkpt><trkpt lat="43.407963134920706" lon="11.464544722412882"><ele>489.0</ele><time>2026-04-08T15:02:07.999Z</time></trkpt><trkpt lat="43.407857578284556" lon="11.464558443061954"><ele>489.0</ele><time>2026-04-08T15:02:08.999Z</time></trkpt><trkpt lat="43.40773913966008" lon="11.464564878452494"><ele>487.0</ele><time>2026-04-08T15:02:09.999Z</time></trkpt><trkpt lat="43.40761097273275" lon="11.464588161205914"><ele>485.0</ele><time>2026-04-08T15:02:10.999Z</time></trkpt><trkpt lat="43.407473908759336" lon="11.464607209780015"><ele>483.0</ele><time>2026-04-08T15:02:11.999Z</time></trkpt><trkpt lat="43.40735443753202" lon="11.464617827194395"><ele>481.0</ele><time>2026-04-08T15:02:12.999Z</time></trkpt><trkpt lat="43.40724175643541" lon="11.464635591222338"><ele>480.4</ele><time>2026-04-08T15:02:13.999Z</time></trkpt><trkpt lat="43.40713495401972" lon="11.464646556540906"><ele>479.8</ele><time>2026-04-08T15:02:14.999Z</time></trkpt><trkpt lat="43.4070424155448" lon="11.464651407427912"><ele>479.19999999999993</ele><time>2026-04-08T15:02:15.999Z</time></trkpt><trkpt lat="43.40695640967035" lon="11.46464411248267"><ele>478.59999999999997</ele><time>2026-04-08T15:02:16.999Z</time></trkpt><trkpt lat="43.40686371189688" lon="11.464602776776664"><ele>478.0</ele><time>2026-04-08T15:02:17.999Z</time></trkpt><trkpt lat="43.40676368585672" lon="11.464588093910812"><ele>477.33333333333337</ele><time>2026-04-08T15:02:18.999Z</time></trkpt><trkpt lat="43.40667426441977" lon="11.46454904721262"><ele>476.6666666666667</ele><time>2026-04-08T15:02:19.999Z</time></trkpt><trkpt lat="43.40659475700837" lon="11.464526429703584"><ele>476.0</ele><time>2026-04-08T15:02:20.999Z</time></trkpt><trkpt lat="43.4065184419168" lon="11.464496150716702"><ele>475.33333333333337</ele><time>2026-04-08T15:02:21.999Z</time></trkpt><trkpt lat="43.406437649533764" lon="11.464476763405255"><ele>474.6666666666667</ele><time>2026-04-08T15:02:23Z</time></trkpt><trkpt lat="43.40636782016543" lon="11.464450367295088"><ele>474.0</ele><time>2026-04-08T15:02:24Z</time></trkpt><trkpt lat="43.40629042521047" lon="11.46442273186092"><ele>473.0</ele><time>2026-04-08T15:02:25Z</time></trkpt><trkpt lat="43.40621806053618" lon="11.464396251504297"><ele>472.0</ele><time>2026-04-08T15:02:26Z</time></trkpt><trkpt lat="43.40613885573862" lon="11.464360896777455"><ele>471.0</ele><time>2026-04-08T15:02:27Z</time></trkpt><trkpt lat="43.40606608646422" lon="11.464327735881747"><ele>470.0</ele><time>2026-04-08T15:02:28Z</time></trkpt><trkpt lat="43.405997987868616" lon="11.464280773608879"><ele>469.0</ele><time>2026-04-08T15:02:29Z</time></trkpt><trkpt lat="43.405927393663866" lon="11.464227999164986"><ele>468.0</ele><time>2026-04-08T15:02:30Z</time></trkpt><trkpt lat="43.40585485888831" lon="11.464178230386375"><ele>468.0</ele><time>2026-04-08T15:02:31Z</time></trkpt><trkpt lat="43.40576689656032" lon="11.464101714169137"><ele>467.99999999999994</ele><time>2026-04-08T15:02:32Z</time></trkpt><trkpt lat="43.40568413127096" lon="11.464030139716897"><ele>467.99999999999994</ele><time>2026-04-08T15:02:33Z</time></trkpt><trkpt lat="43.40560884671594" lon="11.46396171939392"><ele>468.0</ele><time>2026-04-08T15:02:34Z</time></trkpt><trkpt lat="43.405539105990215" lon="11.463894599823115"><ele>468.0</ele><time>2026-04-08T15:02:35Z</time></trkpt><trkpt lat="43.40547093635984" lon="11.463827348147445"><ele>465.0</ele><time>2026-04-08T15:02:36Z</time></trkpt><trkpt lat="43.405402486346475" lon="11.463756644976693"><ele>461.99999999999994</ele><time>2026-04-08T15:02:37Z</time></trkpt><trkpt lat="43.40532020207162" lon="11.463671694631179"><ele>458.99999999999994</ele><time>2026-04-08T15:02:38Z</time></trkpt><trkpt lat="43.405236299620064" lon="11.463565835994817"><ele>456.0</ele><time>2026-04-08T15:02:39Z</time></trkpt><trkpt lat="43.40516616962141" lon="11.463468877261349"><ele>453.0</ele><time>2026-04-08T15:02:40Z</time></trkpt><trkpt lat="43.405103278137425" lon="11.46337723949232"><ele>453.0</ele><time>2026-04-08T15:02:41Z</time></trkpt><trkpt lat="43.4050361065416" lon="11.463294712533942"><ele>452.99999999999994</ele><time>2026-04-08T15:02:42Z</time></trkpt><trkpt lat="43.40497479235872" lon="11.463199626940993"><ele>452.99999999999994</ele><time>2026-04-08T15:02:43Z</time></trkpt><trkpt lat="43.4049136463036" lon="11.463092190936532"><ele>453.0</ele><time>2026-04-08T15:02:44Z</time></trkpt><trkpt lat="43.40485191794949" lon="11.462972958153319"><ele>453.0</ele><time>2026-04-08T15:02:45Z</time></trkpt><trkpt lat="43.40479001935968" lon="11.462841683008755"><ele>452.6666666666667</ele><time>2026-04-08T15:02:46Z</time></trkpt><trkpt lat="43.404746587642954" lon="11.462714775363064"><ele>452.33333333333337</ele><time>2026-04-08T15:02:47Z</time></trkpt><trkpt lat="43.40472695283198" lon="11.462602881872822"><ele>452.0</ele><time>2026-04-08T15:02:48Z</time></trkpt><trkpt lat="43.404721746505984" lon="11.462500473871128"><ele>451.6666666666667</ele><time>2026-04-08T15:02:49Z</time></trkpt><trkpt lat="43.40470377298607" lon="11.462400091367392"><ele>451.33333333333337</ele><time>2026-04-08T15:02:51Z</time></trkpt><trkpt lat="43.404676710528186" lon="11.462298524303128"><ele>451.0</ele><time>2026-04-08T15:03:00Z</time></trkpt><trkpt lat="43.404660401971746" lon="11.462190548270678"><ele>452.0</ele><time>2026-04-08T15:03:01Z</time></trkpt><trkpt lat="43.40464658291422" lon="11.462074788320127"><ele>453.0</ele><time>2026-04-08T15:03:02Z</time></trkpt><trkpt lat="43.40462385152776" lon="11.461940860629483"><ele>454.0</ele><time>2026-04-08T15:03:03Z</time></trkpt><trkpt lat="43.404593481900555" lon="11.46178716241439"><ele>455.0</ele><time>2026-04-08T15:03:04Z</time></trkpt><trkpt lat="43.404564004125355" lon="11.461646852724838"><ele>456.0</ele><time>2026-04-08T15:03:05Z</time></trkpt><trkpt lat="43.404522745448084" lon="11.461538534250002"><ele>456.0</ele><time>2026-04-08T15:03:06Z</time></trkpt><trkpt lat="43.404464264778866" lon="11.461425907618294"><ele>456.0</ele><time>2026-04-08T15:03:07Z</time></trkpt><trkpt lat="43.40440983285612" lon="11.461274881329375"><ele>456.0</ele><time>2026-04-08T15:03:08Z</time></trkpt><trkpt lat="43.40434829230228" lon="11.461146566441446"><ele>456.0</ele><time>2026-04-08T15:03:09Z</time></trkpt><trkpt lat="43.404272569874315" lon="11.461007408513558"><ele>456.0</ele><time>2026-04-08T15:03:10Z</time></trkpt><trkpt lat="43.404214219370616" lon="11.460885450492825"><ele>456.0</ele><time>2026-04-08T15:03:11Z</time></trkpt><trkpt lat="43.40417058647699" lon="11.460775889194721"><ele>456.0</ele><time>2026-04-08T15:03:12Z</time></trkpt><trkpt lat="43.40413045379451" lon="11.460657511364575"><ele>456.0</ele><time>2026-04-08T15:03:13Z</time></trkpt><trkpt lat="43.40409791008778" lon="11.460532553975472"><ele>456.0</ele><time>2026-04-08T15:03:14Z</time></trkpt><trkpt lat="43.404087740810446" lon="11.460409505525178"><ele>456.0</ele><time>2026-04-08T15:03:15Z</time></trkpt><trkpt lat="43.40410004934132" lon="11.460266312672344"><ele>456.0</ele><time>2026-04-08T15:03:16Z</time></trkpt><trkpt lat="43.40412259990803" lon="11.460145726981407"><ele>456.0</ele><time>2026-04-08T15:03:17Z</time></trkpt><trkpt lat="43.40414224173267" lon="11.460028412737104"><ele>456.0</ele><time>2026-04-08T15:03:18Z</time></trkpt><trkpt lat="43.40415837648521" lon="11.459913644593446"><ele>456.0</ele><time>2026-04-08T15:03:19Z</time></trkpt><trkpt lat="43.404179243056795" lon="11.45979944676086"><ele>456.0</ele><time>2026-04-08T15:03:20Z</time></trkpt><trkpt lat="43.40420698127305" lon="11.459678645991797"><ele>456.0</ele><time>2026-04-08T15:03:21Z</time></trkpt><trkpt lat="43.40423999788541" lon="11.45955672033193"><ele>456.0</ele><time>2026-04-08T15:03:22Z</time></trkpt><trkpt lat="43.40429074508719" lon="11.459436892230405"><ele>456.0</ele><time>2026-04-08T15:03:23Z</time></trkpt><trkpt lat="43.404349686487016" lon="11.459321279354247"><ele>456.0</ele><time>2026-04-08T15:03:24Z</time></trkpt><trkpt lat="43.40441754033206" lon="11.459213382573713"><ele>455.8333333333333</ele><time>2026-04-08T15:03:25Z</time></trkpt><trkpt lat="43.404487812248355" lon="11.45910799053138"><ele>455.66666666666663</ele><time>2026-04-08T15:03:26Z</time></trkpt><trkpt lat="43.404553874583" lon="11.459012402677429"><ele>455.5</ele><time>2026-04-08T15:03:26.999Z</time></trkpt><trkpt lat="43.404607722920346" lon="11.4589419500129"><ele>455.3333333333333</ele><time>2026-04-08T15:03:27.999Z</time></trkpt><trkpt lat="43.404663973435305" lon="11.458868635209909"><ele>455.16666666666663</ele><time>2026-04-08T15:03:28.999Z</time></trkpt><trkpt lat="43.404713951507375" lon="11.458790106962283"><ele>455.0</ele><time>2026-04-08T15:03:29.999Z</time></trkpt><trkpt lat="43.4047577756683" lon="11.45870837887665"><ele>454.3333333333333</ele><time>2026-04-08T15:03:30.999Z</time></trkpt><trkpt lat="43.40478750008139" lon="11.458625155855934"><ele>453.66666666666663</ele><time>2026-04-08T15:03:31.999Z</time></trkpt><trkpt lat="43.40480679781671" lon="11.458537923192518"><ele>453.0</ele><time>2026-04-08T15:03:32.999Z</time></trkpt><trkpt lat="43.404829167462076" lon="11.458448563708872"><ele>452.33333333333337</ele><time>2026-04-08T15:03:33.999Z</time></trkpt><trkpt lat="43.404869919525346" lon="11.458290622769178"><ele>451.6666666666667</ele><time>2026-04-08T15:03:35.999Z</time></trkpt><trkpt lat="43.40490003732721" lon="11.458211214843413"><ele>451.0</ele><time>2026-04-08T15:03:36.999Z</time></trkpt><trkpt lat="43.40497773610813" lon="11.458084107202552"><ele>449.6666666666667</ele><time>2026-04-08T15:03:38.999Z</time></trkpt><trkpt lat="43.40503495459468" lon="11.457938546717854"><ele>448.33333333333337</ele><time>2026-04-08T15:03:40.999Z</time></trkpt><trkpt lat="43.40504567145024" lon="11.45784092028814"><ele>447.0</ele><time>2026-04-08T15:03:41.999Z</time></trkpt><trkpt lat="43.405040737557194" lon="11.457734773883413"><ele>445.66666666666663</ele><time>2026-04-08T15:03:42.999Z</time></trkpt><trkpt lat="43.40502866384608" lon="11.45762510091579"><ele>444.3333333333333</ele><time>2026-04-08T15:03:43.999Z</time></trkpt><trkpt lat="43.405015835209134" lon="11.457509605279451"><ele>443.0</ele><time>2026-04-08T15:03:44.999Z</time></trkpt><trkpt lat="43.405007183956485" lon="11.457385164399138"><ele>442.99999999999994</ele><time>2026-04-08T15:03:45.999Z</time></trkpt><trkpt lat="43.40499348449782" lon="11.45726576193016"><ele>443.0</ele><time>2026-04-08T15:03:46.999Z</time></trkpt><trkpt lat="43.40498589875393" lon="11.457155272010075"><ele>443.0</ele><time>2026-04-08T15:03:47.999Z</time></trkpt><trkpt lat="43.40496909409409" lon="11.457042429522948"><ele>443.0</ele><time>2026-04-08T15:03:48.999Z</time></trkpt><trkpt lat="43.40494621081255" lon="11.456945443223331"><ele>442.99999999999994</ele><time>2026-04-08T15:03:49.999Z</time></trkpt><trkpt lat="43.40491817075613" lon="11.456862929072848"><ele>443.0</ele><time>2026-04-08T15:03:50.999Z</time></trkpt><trkpt lat="43.40486521294818" lon="11.456699187778224"><ele>441.59999999999997</ele><time>2026-04-08T15:03:52.999Z</time></trkpt><trkpt lat="43.404823108018505" lon="11.45655184775931"><ele>440.19999999999993</ele><time>2026-04-08T15:03:54.999Z</time></trkpt><trkpt lat="43.404841331941014" lon="11.456411720041485"><ele>438.8</ele><time>2026-04-08T15:03:56.999Z</time></trkpt><trkpt lat="43.404959038071496" lon="11.456351527688753"><ele>437.4</ele><time>2026-04-08T15:03:58.999Z</time></trkpt><trkpt lat="43.405047614111105" lon="11.456357790028232"><ele>436.0</ele><time>2026-04-08T15:03:59.999Z</time></trkpt><trkpt lat="43.40514931930263" lon="11.456372963022368"><ele>436.00000000000006</ele><time>2026-04-08T15:04:00.999Z</time></trkpt><trkpt lat="43.405248066218306" lon="11.456391774559703"><ele>436.0</ele><time>2026-04-08T15:04:01.999Z</time></trkpt><trkpt lat="43.4053305747126" lon="11.456401859001032"><ele>436.0</ele><time>2026-04-08T15:04:02.999Z</time></trkpt><trkpt lat="43.405405547113276" lon="11.456409405695839"><ele>436.0</ele><time>2026-04-08T15:04:03.999Z</time></trkpt><trkpt lat="43.40547514488847" lon="11.456415869200699"><ele>436.00000000000006</ele><time>2026-04-08T15:04:04.999Z</time></trkpt><trkpt lat="43.40554437992267" lon="11.456416608704258"><ele>436.0</ele><time>2026-04-08T15:04:05.999Z</time></trkpt><trkpt lat="43.40561669226036" lon="11.456403568438379"><ele>434.50000000000006</ele><time>2026-04-08T15:04:06.999Z</time></trkpt><trkpt lat="43.405682121002755" lon="11.456367639589935"><ele>433.0</ele><time>2026-04-08T15:04:07.999Z</time></trkpt><trkpt lat="43.40575687501329" lon="11.456312153761028"><ele>431.5</ele><time>2026-04-08T15:04:08.999Z</time></trkpt><trkpt lat="43.40582148545461" lon="11.456230234713585"><ele>430.0</ele><time>2026-04-08T15:04:09.999Z</time></trkpt><trkpt lat="43.40588737173845" lon="11.456137930921022"><ele>428.50000000000006</ele><time>2026-04-08T15:04:10.999Z</time></trkpt><trkpt lat="43.40594007866216" lon="11.456051933461968"><ele>427.0</ele><time>2026-04-08T15:04:11.999Z</time></trkpt><trkpt lat="43.405988410192506" lon="11.455954383891186"><ele>426.8</ele><time>2026-04-08T15:04:12.999Z</time></trkpt><trkpt lat="43.40602928668885" lon="11.455837560697864"><ele>426.6</ele><time>2026-04-08T15:04:13.999Z</time></trkpt><trkpt lat="43.40605337451065" lon="11.455709589962275"><ele>426.40000000000003</ele><time>2026-04-08T15:04:14.999Z</time></trkpt><trkpt lat="43.40606995921055" lon="11.455577157921367"><ele>426.20000000000005</ele><time>2026-04-08T15:04:15.999Z</time></trkpt><trkpt lat="43.40608156954798" lon="11.455459840083813"><ele>426.0</ele><time>2026-04-08T15:04:16.999Z</time></trkpt><trkpt lat="43.40609843524673" lon="11.455351438519193"><ele>425.3333333333333</ele><time>2026-04-08T15:04:17.999Z</time></trkpt><trkpt lat="43.40612858790742" lon="11.455235536414772"><ele>424.66666666666663</ele><time>2026-04-08T15:04:18.999Z</time></trkpt><trkpt lat="43.40616079720879" lon="11.455116674346314"><ele>424.0</ele><time>2026-04-08T15:04:19.999Z</time></trkpt><trkpt lat="43.406181151290724" lon="11.455014322545786"><ele>423.3333333333333</ele><time>2026-04-08T15:04:20.999Z</time></trkpt><trkpt lat="43.406208619921365" lon="11.45490907534477"><ele>422.66666666666663</ele><time>2026-04-08T15:04:21.999Z</time></trkpt><trkpt lat="43.406240455943184" lon="11.454806041077111"><ele>422.0</ele><time>2026-04-08T15:04:22.999Z</time></trkpt><trkpt lat="43.40627354707351" lon="11.454712884760744"><ele>421.20000000000005</ele><time>2026-04-08T15:04:23.999Z</time></trkpt><trkpt lat="43.40632511289752" lon="11.454608257073614"><ele>420.4</ele><time>2026-04-08T15:04:24.999Z</time></trkpt><trkpt lat="43.406396782479845" lon="11.454498472552764"><ele>419.6</ele><time>2026-04-08T15:04:25.999Z</time></trkpt><trkpt lat="43.40646963668357" lon="11.454367884477529"><ele>418.79999999999995</ele><time>2026-04-08T15:04:26.999Z</time></trkpt><trkpt lat="43.40652122620885" lon="11.454217559070981"><ele>418.0</ele><time>2026-04-08T15:04:27.999Z</time></trkpt><trkpt lat="43.40655146894853" lon="11.454072118241708"><ele>416.79999999999995</ele><time>2026-04-08T15:04:29Z</time></trkpt><trkpt lat="43.40657123079935" lon="11.45393197455392"><ele>415.6</ele><time>2026-04-08T15:04:30Z</time></trkpt><trkpt lat="43.40658482274606" lon="11.453804939378905"><ele>414.4</ele><time>2026-04-08T15:04:31Z</time></trkpt><trkpt lat="43.406571200920375" lon="11.453694867588624"><ele>413.20000000000005</ele><time>2026-04-08T15:04:32Z</time></trkpt><trkpt lat="43.406540820420915" lon="11.453562426269833"><ele>412.0</ele><time>2026-04-08T15:04:33Z</time></trkpt><trkpt lat="43.406503194330696" lon="11.45342775723748"><ele>412.0</ele><time>2026-04-08T15:04:34Z</time></trkpt><trkpt lat="43.40647070824049" lon="11.45330827244076"><ele>412.0</ele><time>2026-04-08T15:04:35Z</time></trkpt><trkpt lat="43.40645875071937" lon="11.45317739990088"><ele>412.0</ele><time>2026-04-08T15:04:36Z</time></trkpt><trkpt lat="43.40646054722801" lon="11.453041965621681"><ele>412.0</ele><time>2026-04-08T15:04:37Z</time></trkpt><trkpt lat="43.40647541097661" lon="11.452901973211139"><ele>412.0</ele><time>2026-04-08T15:04:38Z</time></trkpt><trkpt lat="43.406506314199206" lon="11.45275414949111"><ele>411.25</ele><time>2026-04-08T15:04:39Z</time></trkpt><trkpt lat="43.40653103923967" lon="11.452598070602416"><ele>410.5</ele><time>2026-04-08T15:04:40Z</time></trkpt><trkpt lat="43.40653819753106" lon="11.452448282447932"><ele>409.75</ele><time>2026-04-08T15:04:41Z</time></trkpt><trkpt lat="43.40653658730036" lon="11.452291641449865"><ele>409.0</ele><time>2026-04-08T15:04:42Z</time></trkpt><trkpt lat="43.406528385630494" lon="11.452133070401041"><ele>407.5</ele><time>2026-04-08T15:04:43Z</time></trkpt><trkpt lat="43.40650689088061" lon="11.45199979503131"><ele>406.0</ele><time>2026-04-08T15:04:44Z</time></trkpt><trkpt lat="43.40646851450565" lon="11.451868807222759"><ele>404.5</ele><time>2026-04-08T15:04:45Z</time></trkpt><trkpt lat="43.406409512186016" lon="11.451730944413619"><ele>403.0</ele><time>2026-04-08T15:04:46Z</time></trkpt><trkpt lat="43.4063306138263" lon="11.451572632929512"><ele>405.0</ele><time>2026-04-08T15:04:47Z</time></trkpt><trkpt lat="43.406253188243525" lon="11.45138642594559"><ele>407.0</ele><time>2026-04-08T15:04:48Z</time></trkpt><trkpt lat="43.40616723775561" lon="11.45125912583949"><ele>409.0</ele><time>2026-04-08T15:04:49Z</time></trkpt><trkpt lat="43.406107490292975" lon="11.451141160991929"><ele>411.0</ele><time>2026-04-08T15:04:50Z</time></trkpt><trkpt lat="43.40605172411762" lon="11.451031589390068"><ele>411.0</ele><time>2026-04-08T15:04:51Z</time></trkpt><trkpt lat="43.40600134394016" lon="11.450905277826312"><ele>411.0</ele><time>2026-04-08T15:04:52Z</time></trkpt><trkpt lat="43.40596153500256" lon="11.450760760865299"><ele>411.0</ele><time>2026-04-08T15:04:53Z</time></trkpt><trkpt lat="43.40592493107361" lon="11.450607431292049"><ele>411.0</ele><time>2026-04-08T15:04:54Z</time></trkpt><trkpt lat="43.40589594476568" lon="11.450471275731067"><ele>411.0</ele><time>2026-04-08T15:04:55Z</time></trkpt><trkpt lat="43.40585172285878" lon="11.450339221618215"><ele>410.25</ele><time>2026-04-08T15:04:56Z</time></trkpt><trkpt lat="43.40579974147704" lon="11.450201559356012"><ele>409.5</ele><time>2026-04-08T15:04:57Z</time></trkpt><trkpt lat="43.40574190065352" lon="11.45005365030118"><ele>408.75</ele><time>2026-04-08T15:04:58Z</time></trkpt><trkpt lat="43.40567605548127" lon="11.449921910143813"><ele>408.0</ele><time>2026-04-08T15:04:59Z</time></trkpt><trkpt lat="43.40561101487206" lon="11.449795660281152"><ele>408.0</ele><time>2026-04-08T15:05:00Z</time></trkpt><trkpt lat="43.40554484802688" lon="11.449676346302233"><ele>408.0</ele><time>2026-04-08T15:05:01Z</time></trkpt><trkpt lat="43.405475874014776" lon="11.449555379564881"><ele>408.0</ele><time>2026-04-08T15:05:02Z</time></trkpt><trkpt lat="43.405400275348136" lon="11.44942337605238"><ele>408.0</ele><time>2026-04-08T15:05:03Z</time></trkpt><trkpt lat="43.405323682969865" lon="11.449294378848931"><ele>406.59999999999997</ele><time>2026-04-08T15:05:04Z</time></trkpt><trkpt lat="43.40525032106221" lon="11.449186946596564"><ele>405.2</ele><time>2026-04-08T15:05:05Z</time></trkpt><trkpt lat="43.405192957333135" lon="11.449083902337021"><ele>403.8</ele><time>2026-04-08T15:05:06Z</time></trkpt><trkpt lat="43.40513227678675" lon="11.448975805254241"><ele>402.4</ele><time>2026-04-08T15:05:07Z</time></trkpt><trkpt lat="43.4050962735771" lon="11.448835302698209"><ele>401.0</ele><time>2026-04-08T15:05:08Z</time></trkpt><trkpt lat="43.40505834695892" lon="11.448696376310828"><ele>400.6</ele><time>2026-04-08T15:05:09Z</time></trkpt><trkpt lat="43.404932639204596" lon="11.448600174584344"><ele>400.20000000000005</ele><time>2026-04-08T15:05:10Z</time></trkpt><trkpt lat="43.4048640079204" lon="11.44853871871056"><ele>399.79999999999995</ele><time>2026-04-08T15:05:11Z</time></trkpt><trkpt lat="43.40479629735937" lon="11.44848165609895"><ele>399.4</ele><time>2026-04-08T15:05:12Z</time></trkpt><trkpt lat="43.40470165944215" lon="11.448429292338329"><ele>399.0</ele><time>2026-04-08T15:05:13Z</time></trkpt><trkpt lat="43.404615228870114" lon="11.448335396844708"><ele>398.75</ele><time>2026-04-08T15:05:14Z</time></trkpt><trkpt lat="43.404503561599675" lon="11.448265064489117"><ele>398.5</ele><time>2026-04-08T15:05:15Z</time></trkpt><trkpt lat="43.40439653604334" lon="11.448184549956483"><ele>398.25</ele><time>2026-04-08T15:05:16Z</time></trkpt><trkpt lat="43.4042841485026" lon="11.448096647032724"><ele>398.0</ele><time>2026-04-08T15:05:17Z</time></trkpt><trkpt lat="43.40415800818031" lon="11.448000668666742"><ele>398.25</ele><time>2026-04-08T15:05:18Z</time></trkpt><trkpt lat="43.404026059493496" lon="11.447911967860753"><ele>398.5</ele><time>2026-04-08T15:05:19Z</time></trkpt><trkpt lat="43.403888618144784" lon="11.447837159177107"><ele>398.75</ele><time>2026-04-08T15:05:20Z</time></trkpt><trkpt lat="43.40374419576344" lon="11.44778210515557"><ele>399.0</ele><time>2026-04-08T15:05:21Z</time></trkpt><trkpt lat="43.40358873003647" lon="11.447723105565933"><ele>399.0</ele><time>2026-04-08T15:05:22Z</time></trkpt><trkpt lat="43.40342646824821" lon="11.447646058598744"><ele>399.0</ele><time>2026-04-08T15:05:23Z</time></trkpt><trkpt lat="43.40326581383188" lon="11.447557840781045"><ele>399.0</ele><time>2026-04-08T15:05:24Z</time></trkpt><trkpt lat="43.40312435569832" lon="11.447477783016893"><ele>397.0</ele><time>2026-04-08T15:05:25Z</time></trkpt><trkpt lat="43.40299588780216" lon="11.447402542141962"><ele>395.0</ele><time>2026-04-08T15:05:26Z</time></trkpt><trkpt lat="43.40287089653259" lon="11.447329694928095"><ele>393.0</ele><time>2026-04-08T15:05:27Z</time></trkpt><trkpt lat="43.40275597343239" lon="11.44726450499651"><ele>391.0</ele><time>2026-04-08T15:05:28Z</time></trkpt><trkpt lat="43.402643842331756" lon="11.44719963708455"><ele>393.0</ele><time>2026-04-08T15:05:29Z</time></trkpt><trkpt lat="43.40251752100599" lon="11.447123349076426"><ele>395.0</ele><time>2026-04-08T15:05:30Z</time></trkpt><trkpt lat="43.40238949597316" lon="11.447048626842404"><ele>397.0</ele><time>2026-04-08T15:05:31Z</time></trkpt><trkpt lat="43.40227838029546" lon="11.446978947247086"><ele>399.0</ele><time>2026-04-08T15:05:32Z</time></trkpt><trkpt lat="43.40217401704343" lon="11.446903660456936"><ele>396.25</ele><time>2026-04-08T15:05:33Z</time></trkpt><trkpt lat="43.402065292662826" lon="11.446819021385721"><ele>393.5</ele><time>2026-04-08T15:05:34Z</time></trkpt><trkpt lat="43.401946917329546" lon="11.446718104663152"><ele>390.75</ele><time>2026-04-08T15:05:35Z</time></trkpt><trkpt lat="43.40182803693123" lon="11.446595136617463"><ele>388.0</ele><time>2026-04-08T15:05:36Z</time></trkpt><trkpt lat="43.401707372964765" lon="11.446451835226727"><ele>388.0</ele><time>2026-04-08T15:05:37Z</time></trkpt><trkpt lat="43.40158267032623" lon="11.44629728359908"><ele>388.0</ele><time>2026-04-08T15:05:38Z</time></trkpt><trkpt lat="43.40147335614591" lon="11.446157437279215"><ele>388.0</ele><time>2026-04-08T15:05:39Z</time></trkpt><trkpt lat="43.401372479730114" lon="11.446018988851582"><ele>386.75</ele><time>2026-04-08T15:05:40Z</time></trkpt><trkpt lat="43.40127556668874" lon="11.44586570957048"><ele>385.5</ele><time>2026-04-08T15:05:41Z</time></trkpt><trkpt lat="43.40118178341744" lon="11.445712868991574"><ele>384.25</ele><time>2026-04-08T15:05:42Z</time></trkpt><trkpt lat="43.40108809137855" lon="11.445549161777873"><ele>383.0</ele><time>2026-04-08T15:05:43Z</time></trkpt><trkpt lat="43.400988232674166" lon="11.44538181160399"><ele>382.6666666666667</ele><time>2026-04-08T15:05:43.999Z</time></trkpt><trkpt lat="43.40087528701408" lon="11.445217957052073"><ele>382.3333333333333</ele><time>2026-04-08T15:05:44.999Z</time></trkpt><trkpt lat="43.40074905168745" lon="11.445049499941948"><ele>382.0</ele><time>2026-04-08T15:05:45.999Z</time></trkpt><trkpt lat="43.40061560877055" lon="11.444879352677159"><ele>380.3333333333333</ele><time>2026-04-08T15:05:46.999Z</time></trkpt><trkpt lat="43.40048455822277" lon="11.444710118322162"><ele>378.6666666666667</ele><time>2026-04-08T15:05:47.999Z</time></trkpt><trkpt lat="43.400364263033815" lon="11.444549817575934"><ele>377.0</ele><time>2026-04-08T15:05:48.999Z</time></trkpt><trkpt lat="43.40024354456089" lon="11.444386069302023"><ele>377.0</ele><time>2026-04-08T15:05:49.999Z</time></trkpt><trkpt lat="43.40012490698493" lon="11.444226403521126"><ele>377.0</ele><time>2026-04-08T15:05:50.999Z</time></trkpt><trkpt lat="43.40001644543278" lon="11.444082542168527"><ele>377.0</ele><time>2026-04-08T15:05:51.999Z</time></trkpt><trkpt lat="43.39991567500848" lon="11.443949276042087"><ele>377.0</ele><time>2026-04-08T15:05:52.999Z</time></trkpt><trkpt lat="43.39982468013415" lon="11.443840171687853"><ele>377.0</ele><time>2026-04-08T15:05:53.999Z</time></trkpt><trkpt lat="43.39972137212105" lon="11.443743183761585"><ele>377.0</ele><time>2026-04-08T15:05:54.999Z</time></trkpt><trkpt lat="43.399605185333215" lon="11.443676193957275"><ele>377.0</ele><time>2026-04-08T15:05:55.999Z</time></trkpt><trkpt lat="43.39947995839441" lon="11.44360601800859"><ele>376.8</ele><time>2026-04-08T15:05:56.999Z</time></trkpt><trkpt lat="43.39936457330451" lon="11.443560736851285"><ele>376.6</ele><time>2026-04-08T15:05:57.999Z</time></trkpt><trkpt lat="43.39926475141212" lon="11.443529016956974"><ele>376.40000000000003</ele><time>2026-04-08T15:05:58.999Z</time></trkpt><trkpt lat="43.399174897964926" lon="11.443495335042542"><ele>376.20000000000005</ele><time>2026-04-08T15:05:59.999Z</time></trkpt><trkpt lat="43.39907404098793" lon="11.44346412814952"><ele>376.0</ele><time>2026-04-08T15:06:00.999Z</time></trkpt><trkpt lat="43.39896014619353" lon="11.443433750048776"><ele>376.0</ele><time>2026-04-08T15:06:01.999Z</time></trkpt><trkpt lat="43.39883269298336" lon="11.443470513861529"><ele>376.0</ele><time>2026-04-08T15:06:02.999Z</time></trkpt><trkpt lat="43.39869070178178" lon="11.44349175095273"><ele>376.0</ele><time>2026-04-08T15:06:03.999Z</time></trkpt><trkpt lat="43.39854170758008" lon="11.44351089398311"><ele>376.0</ele><time>2026-04-08T15:06:04.999Z</time></trkpt><trkpt lat="43.39837812929026" lon="11.443554357420922"><ele>376.0</ele><time>2026-04-08T15:06:05.999Z</time></trkpt><trkpt lat="43.398220975410396" lon="11.4435685943018"><ele>376.0</ele><time>2026-04-08T15:06:06.999Z</time></trkpt><trkpt lat="43.39808177247537" lon="11.443593421097223"><ele>376.0</ele><time>2026-04-08T15:06:07.999Z</time></trkpt><trkpt lat="43.39795316481304" lon="11.443619752781604"><ele>376.0</ele><time>2026-04-08T15:06:08.999Z</time></trkpt><trkpt lat="43.39783926106532" lon="11.443625464631848"><ele>375.25</ele><time>2026-04-08T15:06:09.999Z</time></trkpt><trkpt lat="43.397730898043854" lon="11.443574036330642"><ele>374.5</ele><time>2026-04-08T15:06:10.999Z</time></trkpt><trkpt lat="43.39758767104667" lon="11.443536199873506"><ele>373.75</ele><time>2026-04-08T15:06:11.999Z</time></trkpt><trkpt lat="43.39743761148294" lon="11.443469920441373"><ele>373.0</ele><time>2026-04-08T15:06:12.999Z</time></trkpt><trkpt lat="43.39728375536843" lon="11.443414401034586"><ele>372.3333333333333</ele><time>2026-04-08T15:06:13.999Z</time></trkpt><trkpt lat="43.39712625650019" lon="11.443358254188956"><ele>371.6666666666667</ele><time>2026-04-08T15:06:14.999Z</time></trkpt><trkpt lat="43.39695514036887" lon="11.443283796845856"><ele>371.0</ele><time>2026-04-08T15:06:15.999Z</time></trkpt><trkpt lat="43.39678392485326" lon="11.443221949455241"><ele>371.0</ele><time>2026-04-08T15:06:16.999Z</time></trkpt><trkpt lat="43.3966058727801" lon="11.443148341055027"><ele>371.0</ele><time>2026-04-08T15:06:17.999Z</time></trkpt><trkpt lat="43.39643661127129" lon="11.443079319145248"><ele>371.0</ele><time>2026-04-08T15:06:18.999Z</time></trkpt><trkpt lat="43.396282155377136" lon="11.44302028241006"><ele>370.0</ele><time>2026-04-08T15:06:19.999Z</time></trkpt><trkpt lat="43.39613904853374" lon="11.442965954184798"><ele>369.0</ele><time>2026-04-08T15:06:20.999Z</time></trkpt><trkpt lat="43.39600145431791" lon="11.442911914284139"><ele>368.0</ele><time>2026-04-08T15:06:21.999Z</time></trkpt><trkpt lat="43.39586964819032" lon="11.442858065662891"><ele>367.0</ele><time>2026-04-08T15:06:22.999Z</time></trkpt><trkpt lat="43.39573021996841" lon="11.44280292107378"><ele>367.0</ele><time>2026-04-08T15:06:23.999Z</time></trkpt><trkpt lat="43.39560103270084" lon="11.442756653074484"><ele>367.0</ele><time>2026-04-08T15:06:24.999Z</time></trkpt><trkpt lat="43.395467024810685" lon="11.442710080485387"><ele>367.0</ele><time>2026-04-08T15:06:25.999Z</time></trkpt><trkpt lat="43.3953183106659" lon="11.442677612155762"><ele>367.0</ele><time>2026-04-08T15:06:26.999Z</time></trkpt><trkpt lat="43.395167114018335" lon="11.442671715679664"><ele>367.3333333333333</ele><time>2026-04-08T15:06:27.999Z</time></trkpt><trkpt lat="43.395008375053585" lon="11.442662542239391"><ele>367.6666666666667</ele><time>2026-04-08T15:06:28.999Z</time></trkpt><trkpt lat="43.39484028969158" lon="11.442677056605817"><ele>368.0</ele><time>2026-04-08T15:06:29.999Z</time></trkpt><trkpt lat="43.39467183429262" lon="11.442687257144422"><ele>368.0</ele><time>2026-04-08T15:06:30.999Z</time></trkpt><trkpt lat="43.394523050274515" lon="11.442684868430677"><ele>368.0</ele><time>2026-04-08T15:06:31.999Z</time></trkpt><trkpt lat="43.39436948139856" lon="11.442670823354447"><ele>368.0</ele><time>2026-04-08T15:06:32.999Z</time></trkpt><trkpt lat="43.394200215153035" lon="11.442669764167775"><ele>368.0</ele><time>2026-04-08T15:06:33.999Z</time></trkpt><trkpt lat="43.394029632768486" lon="11.442646347542002"><ele>368.0</ele><time>2026-04-08T15:06:35Z</time></trkpt><trkpt lat="43.39385923120737" lon="11.442596807556727"><ele>368.0</ele><time>2026-04-08T15:06:36Z</time></trkpt><trkpt lat="43.3937051659426" lon="11.442566847648713"><ele>368.0</ele><time>2026-04-08T15:06:37Z</time></trkpt><trkpt lat="43.39354750078005" lon="11.442520074033668"><ele>368.0</ele><time>2026-04-08T15:06:38Z</time></trkpt><trkpt lat="43.393386744000885" lon="11.442443471704827"><ele>368.0</ele><time>2026-04-08T15:06:39Z</time></trkpt><trkpt lat="43.39322628910776" lon="11.442364575287973"><ele>368.0</ele><time>2026-04-08T15:06:40Z</time></trkpt><trkpt lat="43.39307772551936" lon="11.442326731576236"><ele>368.0</ele><time>2026-04-08T15:06:41Z</time></trkpt><trkpt lat="43.3929339605339" lon="11.442301800222474"><ele>368.0</ele><time>2026-04-08T15:06:42Z</time></trkpt><trkpt lat="43.39278472244654" lon="11.442285712131428"><ele>368.0</ele><time>2026-04-08T15:06:43Z</time></trkpt><trkpt lat="43.39262340818499" lon="11.442318268653397"><ele>368.25</ele><time>2026-04-08T15:06:44Z</time></trkpt><trkpt lat="43.39247590665183" lon="11.442361042984793"><ele>368.5</ele><time>2026-04-08T15:06:45Z</time></trkpt><trkpt lat="43.392347674005045" lon="11.44242179567286"><ele>368.75</ele><time>2026-04-08T15:06:46Z</time></trkpt><trkpt lat="43.392211349861824" lon="11.442499784147609"><ele>369.0</ele><time>2026-04-08T15:06:47Z</time></trkpt><trkpt lat="43.392068840413714" lon="11.442582650612096"><ele>368.0</ele><time>2026-04-08T15:06:48Z</time></trkpt><trkpt lat="43.39192459658" lon="11.442681611355544"><ele>367.0</ele><time>2026-04-08T15:06:49Z</time></trkpt><trkpt lat="43.39177799105338" lon="11.442779623300401"><ele>366.0</ele><time>2026-04-08T15:06:50Z</time></trkpt><trkpt lat="43.391624313131345" lon="11.442825956557956"><ele>366.0</ele><time>2026-04-08T15:06:51Z</time></trkpt><trkpt lat="43.39146481084977" lon="11.442830645685863"><ele>366.0</ele><time>2026-04-08T15:06:52Z</time></trkpt><trkpt lat="43.39129590916461" lon="11.442834903961485"><ele>366.0</ele><time>2026-04-08T15:06:53Z</time></trkpt><trkpt lat="43.391120710392556" lon="11.442852551515305"><ele>366.6666666666667</ele><time>2026-04-08T15:06:54Z</time></trkpt><trkpt lat="43.39093938193513" lon="11.442888263979945"><ele>367.33333333333337</ele><time>2026-04-08T15:06:55Z</time></trkpt><trkpt lat="43.39076268045937" lon="11.442921508618854"><ele>368.0</ele><time>2026-04-08T15:06:56Z</time></trkpt><trkpt lat="43.39061182909456" lon="11.44294002595669"><ele>367.25</ele><time>2026-04-08T15:06:57Z</time></trkpt><trkpt lat="43.3904758143028" lon="11.442937666194267"><ele>366.5</ele><time>2026-04-08T15:06:58Z</time></trkpt><trkpt lat="43.390344016098226" lon="11.442920962881683"><ele>365.75</ele><time>2026-04-08T15:06:59Z</time></trkpt><trkpt lat="43.39021818710959" lon="11.442903153329857"><ele>365.0</ele><time>2026-04-08T15:07:00Z</time></trkpt><trkpt lat="43.39011118114594" lon="11.442887038267862"><ele>365.0</ele><time>2026-04-08T15:07:01Z</time></trkpt><trkpt lat="43.39000092048364" lon="11.442886394695451"><ele>365.0</ele><time>2026-04-08T15:07:02Z</time></trkpt><trkpt lat="43.38990525618962" lon="11.442833481207149"><ele>365.0</ele><time>2026-04-08T15:07:03Z</time></trkpt><trkpt lat="43.389815684860174" lon="11.4427465516117"><ele>365.0</ele><time>2026-04-08T15:07:04Z</time></trkpt><trkpt lat="43.389749423717724" lon="11.442615705732823"><ele>365.0</ele><time>2026-04-08T15:07:05Z</time></trkpt><trkpt lat="43.38968340799042" lon="11.442461667940366"><ele>363.0</ele><time>2026-04-08T15:07:06Z</time></trkpt><trkpt lat="43.38962768582225" lon="11.44230036458289"><ele>361.0</ele><time>2026-04-08T15:07:07Z</time></trkpt><trkpt lat="43.38954704702592" lon="11.442132568504997"><ele>359.0</ele><time>2026-04-08T15:07:08Z</time></trkpt><trkpt lat="43.38944804295109" lon="11.441975306335825"><ele>357.0</ele><time>2026-04-08T15:07:09Z</time></trkpt><trkpt lat="43.389341424163234" lon="11.441822724580394"><ele>357.0</ele><time>2026-04-08T15:07:10Z</time></trkpt><trkpt lat="43.3892314372132" lon="11.441663383410829"><ele>357.0</ele><time>2026-04-08T15:07:11Z</time></trkpt><trkpt lat="43.38912360807562" lon="11.441491259131526"><ele>357.0</ele><time>2026-04-08T15:07:12Z</time></trkpt><trkpt lat="43.38902266787724" lon="11.44133442601117"><ele>356.25</ele><time>2026-04-08T15:07:13Z</time></trkpt><trkpt lat="43.388923384188786" lon="11.441188184007311"><ele>355.5</ele><time>2026-04-08T15:07:14Z</time></trkpt><trkpt lat="43.38882799832326" lon="11.441053134750303"><ele>354.75</ele><time>2026-04-08T15:07:15Z</time></trkpt><trkpt lat="43.38872144333217" lon="11.44091901364573"><ele>354.0</ele><time>2026-04-08T15:07:16Z</time></trkpt><trkpt lat="43.38859837173086" lon="11.440784541078457"><ele>354.0</ele><time>2026-04-08T15:07:17Z</time></trkpt><trkpt lat="43.38846949308273" lon="11.440641001477692"><ele>354.0</ele><time>2026-04-08T15:07:18Z</time></trkpt><trkpt lat="43.38835306804727" lon="11.440509431750824"><ele>354.0</ele><time>2026-04-08T15:07:19Z</time></trkpt><trkpt lat="43.38824124685826" lon="11.440353246783529"><ele>351.3333333333333</ele><time>2026-04-08T15:07:20Z</time></trkpt><trkpt lat="43.38812508897852" lon="11.440175355234876"><ele>348.66666666666663</ele><time>2026-04-08T15:07:21Z</time></trkpt><trkpt lat="43.388007911781216" lon="11.439998881366135"><ele>346.0</ele><time>2026-04-08T15:07:22Z</time></trkpt><trkpt lat="43.38790770691331" lon="11.439826132820015"><ele>346.0</ele><time>2026-04-08T15:07:23Z</time></trkpt><trkpt lat="43.38781769049332" lon="11.439656311371309"><ele>346.0</ele><time>2026-04-08T15:07:24Z</time></trkpt><trkpt lat="43.3877265173994" lon="11.439489120723875"><ele>346.0</ele><time>2026-04-08T15:07:25Z</time></trkpt><trkpt lat="43.38762314423172" lon="11.4393133746198"><ele>344.66666666666663</ele><time>2026-04-08T15:07:26Z</time></trkpt><trkpt lat="43.38750815236804" lon="11.439121515709108"><ele>343.3333333333333</ele><time>2026-04-08T15:07:27Z</time></trkpt><trkpt lat="43.38741237637333" lon="11.43894230604867"><ele>342.0</ele><time>2026-04-08T15:07:28Z</time></trkpt><trkpt lat="43.38731685169132" lon="11.4387946471914"><ele>342.25</ele><time>2026-04-08T15:07:29Z</time></trkpt><trkpt lat="43.38723299942066" lon="11.438649573989826"><ele>342.5</ele><time>2026-04-08T15:07:30Z</time></trkpt><trkpt lat="43.387163171060955" lon="11.438504815638488"><ele>342.75</ele><time>2026-04-08T15:07:31Z</time></trkpt><trkpt lat="43.387102707453515" lon="11.43833349193282"><ele>343.0</ele><time>2026-04-08T15:07:32Z</time></trkpt><trkpt lat="43.38705032978723" lon="11.438130042387487"><ele>343.3333333333333</ele><time>2026-04-08T15:07:33Z</time></trkpt><trkpt lat="43.38699938987876" lon="11.43792444512153"><ele>343.6666666666667</ele><time>2026-04-08T15:07:34Z</time></trkpt><trkpt lat="43.3869500125667" lon="11.43769322626225"><ele>344.0</ele><time>2026-04-08T15:07:35Z</time></trkpt><trkpt lat="43.386891771034385" lon="11.437492080284501"><ele>344.0</ele><time>2026-04-08T15:07:36Z</time></trkpt><trkpt lat="43.38683703333707" lon="11.437305907011838"><ele>344.0</ele><time>2026-04-08T15:07:37Z</time></trkpt><trkpt lat="43.38677527231308" lon="11.437145030775918"><ele>344.0</ele><time>2026-04-08T15:07:38Z</time></trkpt><trkpt lat="43.386701557444304" lon="11.437001431100605"><ele>344.0</ele><time>2026-04-08T15:07:39Z</time></trkpt><trkpt lat="43.38659782629343" lon="11.436862704957814"><ele>342.33333333333337</ele><time>2026-04-08T15:07:40Z</time></trkpt><trkpt lat="43.38645771436801" lon="11.43672396618999"><ele>340.6666666666667</ele><time>2026-04-08T15:07:41Z</time></trkpt><trkpt lat="43.386309572324954" lon="11.436573202830525"><ele>339.0</ele><time>2026-04-08T15:07:42Z</time></trkpt><trkpt lat="43.386190569162686" lon="11.436428482109816"><ele>338.25</ele><time>2026-04-08T15:07:43Z</time></trkpt><trkpt lat="43.38608344623865" lon="11.436289011140197"><ele>337.5</ele><time>2026-04-08T15:07:44Z</time></trkpt><trkpt lat="43.385990243163825" lon="11.43616379509027"><ele>336.75</ele><time>2026-04-08T15:07:45Z</time></trkpt><trkpt lat="43.3859075594595" lon="11.43603818710322"><ele>336.0</ele><time>2026-04-08T15:07:46Z</time></trkpt><trkpt lat="43.38582855691927" lon="11.43593238872994"><ele>336.0</ele><time>2026-04-08T15:07:47Z</time></trkpt><trkpt lat="43.38572472492225" lon="11.435841080017463"><ele>336.0</ele><time>2026-04-08T15:07:48Z</time></trkpt><trkpt lat="43.38560129242486" lon="11.435741739674144"><ele>336.0</ele><time>2026-04-08T15:07:48.999Z</time></trkpt><trkpt lat="43.38547926989475" lon="11.43565741387644"><ele>336.0</ele><time>2026-04-08T15:07:49.999Z</time></trkpt><trkpt lat="43.38535541025529" lon="11.435558754060574"><ele>334.25</ele><time>2026-04-08T15:07:50.999Z</time></trkpt><trkpt lat="43.38522618475145" lon="11.43545252205202"><ele>332.5</ele><time>2026-04-08T15:07:51.999Z</time></trkpt><trkpt lat="43.385095370183905" lon="11.43534885632073"><ele>330.75</ele><time>2026-04-08T15:07:52.999Z</time></trkpt><trkpt lat="43.384977337033654" lon="11.435253349315389"><ele>329.0</ele><time>2026-04-08T15:07:53.999Z</time></trkpt><trkpt lat="43.38483790173977" lon="11.435205945576502"><ele>329.0</ele><time>2026-04-08T15:07:54.999Z</time></trkpt><trkpt lat="43.384681826889135" lon="11.435161930695742"><ele>329.0</ele><time>2026-04-08T15:07:55.999Z</time></trkpt><trkpt lat="43.38451585685232" lon="11.435121253012023"><ele>329.0</ele><time>2026-04-08T15:07:56.999Z</time></trkpt><trkpt lat="43.384339838747195" lon="11.435081554250667"><ele>327.6666666666667</ele><time>2026-04-08T15:07:57.999Z</time></trkpt><trkpt lat="43.384170759789406" lon="11.435042325188682"><ele>326.3333333333333</ele><time>2026-04-08T15:07:58.999Z</time></trkpt><trkpt lat="43.38402097722805" lon="11.435007443533568"><ele>325.0</ele><time>2026-04-08T15:07:59.999Z</time></trkpt><trkpt lat="43.38387539816742" lon="11.434947830309596"><ele>324.66666666666663</ele><time>2026-04-08T15:08:00.999Z</time></trkpt><trkpt lat="43.38373600700753" lon="11.434902768378485"><ele>324.3333333333333</ele><time>2026-04-08T15:08:01.999Z</time></trkpt><trkpt lat="43.383581078143145" lon="11.434862484941556"><ele>324.0</ele><time>2026-04-08T15:08:02.999Z</time></trkpt><trkpt lat="43.38343460335473" lon="11.43475271884494"><ele>324.0</ele><time>2026-04-08T15:08:03.999Z</time></trkpt><trkpt lat="43.383280750233496" lon="11.434660888080725"><ele>324.0</ele><time>2026-04-08T15:08:04.999Z</time></trkpt><trkpt lat="43.38315705794832" lon="11.43452027305593"><ele>324.0</ele><time>2026-04-08T15:08:05.999Z</time></trkpt><trkpt lat="43.38303874115399" lon="11.434403796858087"><ele>324.75</ele><time>2026-04-08T15:08:06.999Z</time></trkpt><trkpt lat="43.38293304601807" lon="11.434301584005008"><ele>325.5</ele><time>2026-04-08T15:08:07.999Z</time></trkpt><trkpt lat="43.38281428954164" lon="11.434207045690338"><ele>326.25</ele><time>2026-04-08T15:08:08.999Z</time></trkpt><trkpt lat="43.38268389762336" lon="11.434158282312037"><ele>327.0</ele><time>2026-04-08T15:08:09.999Z</time></trkpt><trkpt lat="43.3825623702484" lon="11.434112471404333"><ele>327.0</ele><time>2026-04-08T15:08:10.999Z</time></trkpt><trkpt lat="43.382426517377326" lon="11.434075509685648"><ele>327.0</ele><time>2026-04-08T15:08:11.999Z</time></trkpt><trkpt lat="43.38227167741579" lon="11.434038271334249"><ele>327.0</ele><time>2026-04-08T15:08:12.999Z</time></trkpt><trkpt lat="43.38211378184047" lon="11.434014845109925"><ele>326.5</ele><time>2026-04-08T15:08:13.999Z</time></trkpt><trkpt lat="43.381974728672176" lon="11.43399450226196"><ele>326.0</ele><time>2026-04-08T15:08:14.999Z</time></trkpt><trkpt lat="43.38184729887565" lon="11.433982922848415"><ele>325.5</ele><time>2026-04-08T15:08:15.999Z</time></trkpt><trkpt lat="43.38172929030335" lon="11.433960966800768"><ele>325.0</ele><time>2026-04-08T15:08:16.999Z</time></trkpt><trkpt lat="43.381629052500195" lon="11.433882506836524"><ele>325.0</ele><time>2026-04-08T15:08:17.999Z</time></trkpt><trkpt lat="43.38151168016315" lon="11.433824850630149"><ele>325.0</ele><time>2026-04-08T15:08:18.999Z</time></trkpt><trkpt lat="43.38138776976181" lon="11.433741450437944"><ele>325.0</ele><time>2026-04-08T15:08:19.999Z</time></trkpt><trkpt lat="43.38126339897847" lon="11.433660865040085"><ele>325.0</ele><time>2026-04-08T15:08:20.999Z</time></trkpt><trkpt lat="43.38114438370957" lon="11.43358574929078"><ele>323.0</ele><time>2026-04-08T15:08:21.999Z</time></trkpt><trkpt lat="43.38104017665186" lon="11.433497340156222"><ele>321.0</ele><time>2026-04-08T15:08:22.999Z</time></trkpt><trkpt lat="43.380944368954204" lon="11.433387184432698"><ele>319.0</ele><time>2026-04-08T15:08:23.999Z</time></trkpt><trkpt lat="43.380854922306064" lon="11.43325636519745"><ele>317.0</ele><time>2026-04-08T15:08:24.999Z</time></trkpt><trkpt lat="43.380783237359466" lon="11.4331221121724"><ele>317.0</ele><time>2026-04-08T15:08:25.999Z</time></trkpt><trkpt lat="43.3807240477705" lon="11.432975370165455"><ele>317.0</ele><time>2026-04-08T15:08:26.999Z</time></trkpt><trkpt lat="43.3806632667818" lon="11.432849695560929"><ele>317.0</ele><time>2026-04-08T15:08:27.999Z</time></trkpt><trkpt lat="43.38057859747682" lon="11.432766300067978"><ele>317.0</ele><time>2026-04-08T15:08:28.999Z</time></trkpt><trkpt lat="43.38046801940358" lon="11.432717376588998"><ele>318.0</ele><time>2026-04-08T15:08:29.999Z</time></trkpt><trkpt lat="43.38035012440947" lon="11.43268496859719"><ele>319.0</ele><time>2026-04-08T15:08:30.999Z</time></trkpt><trkpt lat="43.38022045662437" lon="11.432632441112949"><ele>320.0</ele><time>2026-04-08T15:08:31.999Z</time></trkpt><trkpt lat="43.38007314769324" lon="11.43260498674025"><ele>321.0</ele><time>2026-04-08T15:08:32.999Z</time></trkpt><trkpt lat="43.37993124734245" lon="11.43258951178785"><ele>321.0</ele><time>2026-04-08T15:08:33.999Z</time></trkpt><trkpt lat="43.379807561124245" lon="11.432572749408196"><ele>321.0</ele><time>2026-04-08T15:08:34.999Z</time></trkpt><trkpt lat="43.37967851117351" lon="11.432560987072078"><ele>321.0</ele><time>2026-04-08T15:08:35.999Z</time></trkpt><trkpt lat="43.37953475408619" lon="11.432502017256965"><ele>321.0</ele><time>2026-04-08T15:08:36.999Z</time></trkpt><trkpt lat="43.37939059394152" lon="11.43240620281862"><ele>320.0</ele><time>2026-04-08T15:08:37.999Z</time></trkpt><trkpt lat="43.379221537357" lon="11.432352253007695"><ele>319.0</ele><time>2026-04-08T15:08:38.999Z</time></trkpt><trkpt lat="43.37905234486858" lon="11.43226687138863"><ele>318.0</ele><time>2026-04-08T15:08:39.999Z</time></trkpt><trkpt lat="43.37888060560244" lon="11.432186990381565"><ele>317.6666666666667</ele><time>2026-04-08T15:08:41Z</time></trkpt><trkpt lat="43.378718546243796" lon="11.432112387824835"><ele>317.33333333333337</ele><time>2026-04-08T15:08:42Z</time></trkpt><trkpt lat="43.37854680457916" lon="11.43200297630428"><ele>317.0</ele><time>2026-04-08T15:08:43Z</time></trkpt><trkpt lat="43.37836067693604" lon="11.431932623457408"><ele>317.0</ele><time>2026-04-08T15:08:44Z</time></trkpt><trkpt lat="43.3781665322662" lon="11.43182856128722"><ele>317.0</ele><time>2026-04-08T15:08:45Z</time></trkpt><trkpt lat="43.377967926489525" lon="11.43172164672452"><ele>317.0</ele><time>2026-04-08T15:08:46Z</time></trkpt><trkpt lat="43.37777699195188" lon="11.431624815361845"><ele>317.6666666666667</ele><time>2026-04-08T15:08:47Z</time></trkpt><trkpt lat="43.37760887941432" lon="11.431543416235717"><ele>318.3333333333333</ele><time>2026-04-08T15:08:48Z</time></trkpt><trkpt lat="43.377459505103445" lon="11.431475115743451"><ele>319.0</ele><time>2026-04-08T15:08:49Z</time></trkpt><trkpt lat="43.37731120339374" lon="11.431415597893682"><ele>318.0</ele><time>2026-04-08T15:08:50Z</time></trkpt><trkpt lat="43.37715386277212" lon="11.431357224426847"><ele>317.0</ele><time>2026-04-08T15:08:51Z</time></trkpt><trkpt lat="43.37699292235561" lon="11.431333484183929"><ele>316.0</ele><time>2026-04-08T15:08:52Z</time></trkpt><trkpt lat="43.37684370027235" lon="11.431315589491483"><ele>315.25</ele><time>2026-04-08T15:08:53Z</time></trkpt><trkpt lat="43.37670466161859" lon="11.431299674828892"><ele>314.5</ele><time>2026-04-08T15:08:54Z</time></trkpt><trkpt lat="43.37655718595952" lon="11.431282794455802"><ele>313.75</ele><time>2026-04-08T15:08:55Z</time></trkpt><trkpt lat="43.37641756770573" lon="11.431263359140472"><ele>313.0</ele><time>2026-04-08T15:08:56Z</time></trkpt><trkpt lat="43.376293468246324" lon="11.431244702367096"><ele>313.0</ele><time>2026-04-08T15:08:57Z</time></trkpt><trkpt lat="43.37616966721012" lon="11.431224081662346"><ele>313.0</ele><time>2026-04-08T15:08:58Z</time></trkpt><trkpt lat="43.37605047700212" lon="11.43120181977242"><ele>313.0</ele><time>2026-04-08T15:08:59Z</time></trkpt><trkpt lat="43.375917183548545" lon="11.43119037845809"><ele>313.0</ele><time>2026-04-08T15:09:00Z</time></trkpt><trkpt lat="43.37577645150862" lon="11.431130360438601"><ele>313.0</ele><time>2026-04-08T15:09:01Z</time></trkpt><trkpt lat="43.375618523483645" lon="11.431053508384121"><ele>313.0</ele><time>2026-04-08T15:09:02Z</time></trkpt><trkpt lat="43.37547535864297" lon="11.430919084611373"><ele>313.0</ele><time>2026-04-08T15:09:03Z</time></trkpt><trkpt lat="43.37532979949047" lon="11.430828488420698"><ele>310.75</ele><time>2026-04-08T15:09:04Z</time></trkpt><trkpt lat="43.37519562696625" lon="11.430723016717284"><ele>308.5</ele><time>2026-04-08T15:09:05Z</time></trkpt><trkpt lat="43.37507251039837" lon="11.430639364135416"><ele>306.25</ele><time>2026-04-08T15:09:06Z</time></trkpt><trkpt lat="43.37494783887677" lon="11.430573147121542"><ele>304.0</ele><time>2026-04-08T15:09:07Z</time></trkpt><trkpt lat="43.37481624102612" lon="11.430486863238185"><ele>304.25</ele><time>2026-04-08T15:09:08Z</time></trkpt><trkpt lat="43.37467065373615" lon="11.430426392664646"><ele>304.5</ele><time>2026-04-08T15:09:09Z</time></trkpt><trkpt lat="43.374538763984056" lon="11.430405573388404"><ele>304.75</ele><time>2026-04-08T15:09:10Z</time></trkpt><trkpt lat="43.37440845721438" lon="11.430365001128644"><ele>305.0</ele><time>2026-04-08T15:09:11Z</time></trkpt><trkpt lat="43.37427529202098" lon="11.430300408283221"><ele>305.0</ele><time>2026-04-08T15:09:12Z</time></trkpt><trkpt lat="43.3741199838161" lon="11.430274618732723"><ele>305.0</ele><time>2026-04-08T15:09:13Z</time></trkpt><trkpt lat="43.373959122904786" lon="11.430218911077915"><ele>305.0</ele><time>2026-04-08T15:09:14Z</time></trkpt><trkpt lat="43.373794446071834" lon="11.430156013905663"><ele>304.6666666666667</ele><time>2026-04-08T15:09:15Z</time></trkpt><trkpt lat="43.37362176390325" lon="11.430077352161423"><ele>304.3333333333333</ele><time>2026-04-08T15:09:16Z</time></trkpt><trkpt lat="43.373456532689765" lon="11.429991276749272"><ele>304.0</ele><time>2026-04-08T15:09:17Z</time></trkpt><trkpt lat="43.37329653939412" lon="11.429882703287726"><ele>304.0</ele><time>2026-04-08T15:09:18Z</time></trkpt><trkpt lat="43.37312797143024" lon="11.429805067955325"><ele>304.0</ele><time>2026-04-08T15:09:19Z</time></trkpt><trkpt lat="43.37298712053309" lon="11.429697524612104"><ele>304.0</ele><time>2026-04-08T15:09:20Z</time></trkpt><trkpt lat="43.372832955772544" lon="11.429631051514914"><ele>301.66666666666663</ele><time>2026-04-08T15:09:21Z</time></trkpt><trkpt lat="43.37268061637802" lon="11.429534582396048"><ele>299.3333333333333</ele><time>2026-04-08T15:09:22Z</time></trkpt><trkpt lat="43.372522467494406" lon="11.42944167695912"><ele>297.0</ele><time>2026-04-08T15:09:23Z</time></trkpt><trkpt lat="43.37236459246543" lon="11.429354346274291"><ele>297.0</ele><time>2026-04-08T15:09:24Z</time></trkpt><trkpt lat="43.372203278884555" lon="11.429266068047777"><ele>297.0</ele><time>2026-04-08T15:09:25Z</time></trkpt><trkpt lat="43.37204213070884" lon="11.42917197827356"><ele>297.0</ele><time>2026-04-08T15:09:26Z</time></trkpt><trkpt lat="43.37186794291191" lon="11.429072742293092"><ele>295.6666666666667</ele><time>2026-04-08T15:09:27Z</time></trkpt><trkpt lat="43.37170563588698" lon="11.428972931619562"><ele>294.33333333333337</ele><time>2026-04-08T15:09:28Z</time></trkpt><trkpt lat="43.371551272813676" lon="11.428892863559241"><ele>293.0</ele><time>2026-04-08T15:09:29Z</time></trkpt><trkpt lat="43.37140395687255" lon="11.428828205902771"><ele>293.33333333333337</ele><time>2026-04-08T15:09:30Z</time></trkpt><trkpt lat="43.37126265345756" lon="11.428775173589235"><ele>293.6666666666667</ele><time>2026-04-08T15:09:31Z</time></trkpt><trkpt lat="43.37111073697766" lon="11.428739519153805"><ele>294.0</ele><time>2026-04-08T15:09:32Z</time></trkpt><trkpt lat="43.37094554255491" lon="11.428702455829036"><ele>294.0</ele><time>2026-04-08T15:09:33Z</time></trkpt><trkpt lat="43.370779134970576" lon="11.428671242692944"><ele>294.0</ele><time>2026-04-08T15:09:34Z</time></trkpt><trkpt lat="43.370615844094914" lon="11.428620977540858"><ele>294.0</ele><time>2026-04-08T15:09:35Z</time></trkpt><trkpt lat="43.37044238498082" lon="11.428595044592836"><ele>291.6666666666667</ele><time>2026-04-08T15:09:36Z</time></trkpt><trkpt lat="43.37026426392277" lon="11.428570831120632"><ele>289.33333333333337</ele><time>2026-04-08T15:09:37Z</time></trkpt><trkpt lat="43.370079695366044" lon="11.428547103205242"><ele>287.0</ele><time>2026-04-08T15:09:38Z</time></trkpt><trkpt lat="43.36989163459425" lon="11.428524208831135"><ele>287.0</ele><time>2026-04-08T15:09:39Z</time></trkpt><trkpt lat="43.3696961780209" lon="11.428504422155392"><ele>287.0</ele><time>2026-04-08T15:09:40Z</time></trkpt><trkpt lat="43.369499900188586" lon="11.428488339498072"><ele>287.0</ele><time>2026-04-08T15:09:41Z</time></trkpt><trkpt lat="43.36931508068059" lon="11.428479018660695"><ele>286.0</ele><time>2026-04-08T15:09:42Z</time></trkpt><trkpt lat="43.36914048355013" lon="11.428473481504598"><ele>285.0</ele><time>2026-04-08T15:09:43Z</time></trkpt><trkpt lat="43.36898965965612" lon="11.428466594133791"><ele>284.0</ele><time>2026-04-08T15:09:44Z</time></trkpt><trkpt lat="43.36885328838844" lon="11.428473204600158"><ele>284.0</ele><time>2026-04-08T15:09:45Z</time></trkpt><trkpt lat="43.36872728093276" lon="11.428434037354497"><ele>284.0</ele><time>2026-04-08T15:09:46Z</time></trkpt><trkpt lat="43.368596760147994" lon="11.428359157744161"><ele>284.0</ele><time>2026-04-08T15:09:47Z</time></trkpt><trkpt lat="43.368456547808655" lon="11.428248264315869"><ele>284.0</ele><time>2026-04-08T15:09:48Z</time></trkpt><trkpt lat="43.36832141574276" lon="11.428111156734571"><ele>282.6666666666667</ele><time>2026-04-08T15:09:49Z</time></trkpt><trkpt lat="43.36821204839597" lon="11.427966237488391"><ele>281.3333333333333</ele><time>2026-04-08T15:09:50Z</time></trkpt><trkpt lat="43.368131248636786" lon="11.427799568476088"><ele>280.0</ele><time>2026-04-08T15:09:51Z</time></trkpt><trkpt lat="43.368070027823244" lon="11.4276020764054"><ele>280.75</ele><time>2026-04-08T15:09:52Z</time></trkpt><trkpt lat="43.36802100497913" lon="11.427403603282414"><ele>281.5</ele><time>2026-04-08T15:09:53Z</time></trkpt><trkpt lat="43.36797565257392" lon="11.427219202652456"><ele>282.25</ele><time>2026-04-08T15:09:53.999Z</time></trkpt><trkpt lat="43.36791979096064" lon="11.427066027974284"><ele>283.0</ele><time>2026-04-08T15:09:54.999Z</time></trkpt><trkpt lat="43.36784232192654" lon="11.426937863053928"><ele>283.25</ele><time>2026-04-08T15:09:55.999Z</time></trkpt><trkpt lat="43.3677458208126" lon="11.426833301991314"><ele>283.5</ele><time>2026-04-08T15:09:56.999Z</time></trkpt><trkpt lat="43.367625383073396" lon="11.426756404843465"><ele>283.75</ele><time>2026-04-08T15:09:57.999Z</time></trkpt><trkpt lat="43.3674754920453" lon="11.42669376266688"><ele>284.0</ele><time>2026-04-08T15:09:58.999Z</time></trkpt><trkpt lat="43.367305241565596" lon="11.426629925790008"><ele>285.6666666666667</ele><time>2026-04-08T15:09:59.999Z</time></trkpt><trkpt lat="43.3671400645245" lon="11.42656983582637"><ele>287.3333333333333</ele><time>2026-04-08T15:10:00.999Z</time></trkpt><trkpt lat="43.36697776462374" lon="11.42650336856424"><ele>289.0</ele><time>2026-04-08T15:10:01.999Z</time></trkpt><trkpt lat="43.366815943149554" lon="11.426438947557308"><ele>289.0</ele><time>2026-04-08T15:10:02.999Z</time></trkpt><trkpt lat="43.366665068285926" lon="11.426378158764434"><ele>289.0</ele><time>2026-04-08T15:10:03.999Z</time></trkpt><trkpt lat="43.36653215109812" lon="11.426340563598286"><ele>289.0</ele><time>2026-04-08T15:10:04.999Z</time></trkpt><trkpt lat="43.36639958424214" lon="11.426346596339085"><ele>289.0</ele><time>2026-04-08T15:10:05.999Z</time></trkpt><trkpt lat="43.36626366588549" lon="11.426370672973983"><ele>289.25</ele><time>2026-04-08T15:10:06.999Z</time></trkpt><trkpt lat="43.36613270694082" lon="11.426403983680034"><ele>289.5</ele><time>2026-04-08T15:10:07.999Z</time></trkpt><trkpt lat="43.3660113586008" lon="11.426387819359995"><ele>289.75</ele><time>2026-04-08T15:10:08.999Z</time></trkpt><trkpt lat="43.365905499126164" lon="11.426361796247571"><ele>290.0</ele><time>2026-04-08T15:10:09.999Z</time></trkpt><trkpt lat="43.36580230352261" lon="11.426299387037325"><ele>290.0</ele><time>2026-04-08T15:10:10.999Z</time></trkpt><trkpt lat="43.36570982470892" lon="11.426163496271691"><ele>290.0</ele><time>2026-04-08T15:10:11.999Z</time></trkpt><trkpt lat="43.36561473381433" lon="11.42599876922218"><ele>290.0</ele><time>2026-04-08T15:10:12.999Z</time></trkpt><trkpt lat="43.36551199633977" lon="11.425821177618298"><ele>287.33333333333337</ele><time>2026-04-08T15:10:13.999Z</time></trkpt><trkpt lat="43.36539732864733" lon="11.425634681722991"><ele>284.6666666666667</ele><time>2026-04-08T15:10:14.999Z</time></trkpt><trkpt lat="43.36528887791456" lon="11.425462998463548"><ele>282.0</ele><time>2026-04-08T15:10:15.999Z</time></trkpt><trkpt lat="43.36518794484812" lon="11.42529283803981"><ele>281.75</ele><time>2026-04-08T15:10:16.999Z</time></trkpt><trkpt lat="43.365089048491996" lon="11.425137609738176"><ele>281.5</ele><time>2026-04-08T15:10:17.999Z</time></trkpt><trkpt lat="43.36499236516026" lon="11.424972468449015"><ele>281.25</ele><time>2026-04-08T15:10:18.999Z</time></trkpt><trkpt lat="43.36490467602015" lon="11.424818213443542"><ele>281.0</ele><time>2026-04-08T15:10:19.999Z</time></trkpt><trkpt lat="43.36482477777567" lon="11.424670241125442"><ele>280.5</ele><time>2026-04-08T15:10:20.999Z</time></trkpt><trkpt lat="43.364752217601136" lon="11.42452237150867"><ele>280.0</ele><time>2026-04-08T15:10:21.999Z</time></trkpt><trkpt lat="43.364688710210054" lon="11.424374479229805"><ele>279.5</ele><time>2026-04-08T15:10:22.999Z</time></trkpt><trkpt lat="43.36464236598805" lon="11.424181572018213"><ele>279.0</ele><time>2026-04-08T15:10:23.999Z</time></trkpt><trkpt lat="43.364603044202084" lon="11.423976413941691"><ele>276.3333333333333</ele><time>2026-04-08T15:10:24.999Z</time></trkpt><trkpt lat="43.36457026464241" lon="11.423754651335459"><ele>273.66666666666663</ele><time>2026-04-08T15:10:25.999Z</time></trkpt><trkpt lat="43.36454637709288" lon="11.42351523588502"><ele>271.0</ele><time>2026-04-08T15:10:26.999Z</time></trkpt><trkpt lat="43.364532204981224" lon="11.42325042579123"><ele>268.66666666666663</ele><time>2026-04-08T15:10:27.999Z</time></trkpt><trkpt lat="43.36451907937297" lon="11.422950618901478"><ele>266.3333333333333</ele><time>2026-04-08T15:10:28.999Z</time></trkpt><trkpt lat="43.36450381963218" lon="11.422655969361822"><ele>264.0</ele><time>2026-04-08T15:10:29.999Z</time></trkpt><trkpt lat="43.364493630454916" lon="11.422386366737936"><ele>261.6666666666667</ele><time>2026-04-08T15:10:30.999Z</time></trkpt><trkpt lat="43.36447828029932" lon="11.422135722052104"><ele>259.33333333333337</ele><time>2026-04-08T15:10:31.999Z</time></trkpt><trkpt lat="43.364469258503654" lon="11.421901476401809"><ele>257.0</ele><time>2026-04-08T15:10:32.999Z</time></trkpt><trkpt lat="43.36446002231857" lon="11.421691904553551"><ele>257.0</ele><time>2026-04-08T15:10:33.999Z</time></trkpt><trkpt lat="43.364437753465616" lon="11.421492013267564"><ele>257.0</ele><time>2026-04-08T15:10:34.999Z</time></trkpt><trkpt lat="43.36439760648213" lon="11.421283690003463"><ele>257.0</ele><time>2026-04-08T15:10:35.999Z</time></trkpt><trkpt lat="43.36433230750763" lon="11.42106293296292"><ele>256.6666666666667</ele><time>2026-04-08T15:10:36.999Z</time></trkpt><trkpt lat="43.36425681131139" lon="11.420851939598005"><ele>256.3333333333333</ele><time>2026-04-08T15:10:37.999Z</time></trkpt><trkpt lat="43.36418766329837" lon="11.420654985651362"><ele>256.0</ele><time>2026-04-08T15:10:38.999Z</time></trkpt><trkpt lat="43.36414433300407" lon="11.420456306245532"><ele>255.33333333333331</ele><time>2026-04-08T15:10:39.999Z</time></trkpt><trkpt lat="43.364109610305434" lon="11.420236053354502"><ele>254.66666666666669</ele><time>2026-04-08T15:10:40.999Z</time></trkpt><trkpt lat="43.36409226562625" lon="11.420008279321726"><ele>254.0</ele><time>2026-04-08T15:10:41.999Z</time></trkpt><trkpt lat="43.36407834861675" lon="11.419795335839664"><ele>253.0</ele><time>2026-04-08T15:10:42.999Z</time></trkpt><trkpt lat="43.36406364291309" lon="11.419587140888856"><ele>252.0</ele><time>2026-04-08T15:10:43.999Z</time></trkpt><trkpt lat="43.36404612004104" lon="11.419391404730781"><ele>251.0</ele><time>2026-04-08T15:10:44.999Z</time></trkpt><trkpt lat="43.36403577888867" lon="11.419208683810378"><ele>250.0</ele><time>2026-04-08T15:10:45.999Z</time></trkpt><trkpt lat="43.364031346240694" lon="11.419056429387291"><ele>250.0</ele><time>2026-04-08T15:10:47Z</time></trkpt><trkpt lat="43.364029334035024" lon="11.418931044605001"><ele>250.0</ele><time>2026-04-08T15:10:48Z</time></trkpt><trkpt lat="43.364024961055684" lon="11.41881437778888"><ele>250.0</ele><time>2026-04-08T15:10:49Z</time></trkpt><trkpt lat="43.36393911701885" lon="11.418659427598195"><ele>250.0</ele><time>2026-04-08T15:10:51Z</time></trkpt><trkpt lat="43.36387012529183" lon="11.418617040527142"><ele>250.0</ele><time>2026-04-08T15:10:52Z</time></trkpt><trkpt lat="43.363777564271146" lon="11.418551072753388"><ele>248.0</ele><time>2026-04-08T15:10:54Z</time></trkpt><trkpt lat="43.36369213824679" lon="11.41850419444801"><ele>246.0</ele><time>2026-04-08T15:10:56Z</time></trkpt><trkpt lat="43.363604479537145" lon="11.418490507875001"><ele>244.0</ele><time>2026-04-08T15:10:57Z</time></trkpt><trkpt lat="43.3634989431137" lon="11.418477515964984"><ele>242.0</ele><time>2026-04-08T15:10:58Z</time></trkpt><trkpt lat="43.3633710278365" lon="11.418475043508424"><ele>240.0</ele><time>2026-04-08T15:10:59Z</time></trkpt><trkpt lat="43.36322529371844" lon="11.418466205083101"><ele>240.0</ele><time>2026-04-08T15:11:00Z</time></trkpt><trkpt lat="43.36308210976331" lon="11.418449223316081"><ele>240.0</ele><time>2026-04-08T15:11:01Z</time></trkpt><trkpt lat="43.36293470699787" lon="11.418414331241504"><ele>240.0</ele><time>2026-04-08T15:11:02Z</time></trkpt><trkpt lat="43.3627879240354" lon="11.418365728673754"><ele>240.0</ele><time>2026-04-08T15:11:03Z</time></trkpt><trkpt lat="43.36264875871065" lon="11.418315544946507"><ele>239.25</ele><time>2026-04-08T15:11:04Z</time></trkpt><trkpt lat="43.36251964528696" lon="11.418266503841808"><ele>238.5</ele><time>2026-04-08T15:11:05Z</time></trkpt><trkpt lat="43.36239638190756" lon="11.418237450902458"><ele>237.75</ele><time>2026-04-08T15:11:06Z</time></trkpt><trkpt lat="43.36227774495184" lon="11.41824588927095"><ele>237.0</ele><time>2026-04-08T15:11:07Z</time></trkpt><trkpt lat="43.362166601753515" lon="11.418307746038128"><ele>235.0</ele><time>2026-04-08T15:11:08Z</time></trkpt><trkpt lat="43.36205775784002" lon="11.418419691007609"><ele>233.0</ele><time>2026-04-08T15:11:09Z</time></trkpt><trkpt lat="43.36193627530065" lon="11.418549962063498"><ele>231.0</ele><time>2026-04-08T15:11:10Z</time></trkpt><trkpt lat="43.36182724956181" lon="11.41873507686884"><ele>232.75</ele><time>2026-04-08T15:11:11Z</time></trkpt><trkpt lat="43.361740642435706" lon="11.418885092310532"><ele>234.5</ele><time>2026-04-08T15:11:12Z</time></trkpt><trkpt lat="43.36164934547386" lon="11.419014689781159"><ele>236.25</ele><time>2026-04-08T15:11:13Z</time></trkpt><trkpt lat="43.361537108669886" lon="11.419106918498331"><ele>238.0</ele><time>2026-04-08T15:11:14Z</time></trkpt><trkpt lat="43.36138996532282" lon="11.419168629929981"><ele>236.0</ele><time>2026-04-08T15:11:15Z</time></trkpt><trkpt lat="43.36122484241183" lon="11.419224968672104"><ele>234.0</ele><time>2026-04-08T15:11:16Z</time></trkpt><trkpt lat="43.361046702575564" lon="11.419308776792832"><ele>232.0</ele><time>2026-04-08T15:11:17Z</time></trkpt><trkpt lat="43.36083266442997" lon="11.41938333657641"><ele>232.0</ele><time>2026-04-08T15:11:18Z</time></trkpt><trkpt lat="43.36061968300177" lon="11.419467899971314"><ele>232.0</ele><time>2026-04-08T15:11:19Z</time></trkpt><trkpt lat="43.360395328787426" lon="11.419549825659248"><ele>232.0</ele><time>2026-04-08T15:11:20Z</time></trkpt><trkpt lat="43.36016423539322" lon="11.419612410454649"><ele>232.0</ele><time>2026-04-08T15:11:21Z</time></trkpt><trkpt lat="43.359965472623365" lon="11.419686896526722"><ele>232.0</ele><time>2026-04-08T15:11:22Z</time></trkpt><trkpt lat="43.35976957309222" lon="11.419777899529132"><ele>230.66666666666666</ele><time>2026-04-08T15:11:23Z</time></trkpt><trkpt lat="43.35957887175564" lon="11.419844121423226"><ele>229.33333333333331</ele><time>2026-04-08T15:11:24Z</time></trkpt><trkpt lat="43.359409711081405" lon="11.41990730855984"><ele>228.0</ele><time>2026-04-08T15:11:25Z</time></trkpt><trkpt lat="43.35926893385832" lon="11.419954670223834"><ele>228.0</ele><time>2026-04-08T15:11:26Z</time></trkpt><trkpt lat="43.359150503304285" lon="11.41994496976864"><ele>228.0</ele><time>2026-04-08T15:11:27Z</time></trkpt><trkpt lat="43.35904152106236" lon="11.419917383862902"><ele>228.0</ele><time>2026-04-08T15:11:28Z</time></trkpt><trkpt lat="43.35896387183209" lon="11.419846038935624"><ele>228.0</ele><time>2026-04-08T15:11:29Z</time></trkpt><trkpt lat="43.358885598183505" lon="11.419733383741516"><ele>228.0</ele><time>2026-04-08T15:11:30Z</time></trkpt><trkpt lat="43.35878860938902" lon="11.419579689924387"><ele>226.0</ele><time>2026-04-08T15:11:31Z</time></trkpt><trkpt lat="43.3586708887497" lon="11.419398775620994"><ele>224.0</ele><time>2026-04-08T15:11:32Z</time></trkpt><trkpt lat="43.358539855527006" lon="11.41922603463586"><ele>222.0</ele><time>2026-04-08T15:11:33Z</time></trkpt><trkpt lat="43.35841570997144" lon="11.419020055887087"><ele>222.0</ele><time>2026-04-08T15:11:34Z</time></trkpt><trkpt lat="43.3583048935995" lon="11.41883726482225"><ele>222.0</ele><time>2026-04-08T15:11:35Z</time></trkpt><trkpt lat="43.358200101216475" lon="11.41867049287578"><ele>222.0</ele><time>2026-04-08T15:11:36Z</time></trkpt><trkpt lat="43.35809108520564" lon="11.418496719730955"><ele>221.33333333333331</ele><time>2026-04-08T15:11:37Z</time></trkpt><trkpt lat="43.35797300322113" lon="11.418315430024839"><ele>220.66666666666666</ele><time>2026-04-08T15:11:38Z</time></trkpt><trkpt lat="43.35784888057143" lon="11.418127045879118"><ele>220.0</ele><time>2026-04-08T15:11:39Z</time></trkpt><trkpt lat="43.357739133578015" lon="11.417956808335916"><ele>220.0</ele><time>2026-04-08T15:11:40Z</time></trkpt><trkpt lat="43.35763471645812" lon="11.4177998788665"><ele>220.0</ele><time>2026-04-08T15:11:41Z</time></trkpt><trkpt lat="43.35753884370877" lon="11.417649802659595"><ele>220.0</ele><time>2026-04-08T15:11:42Z</time></trkpt><trkpt lat="43.357441866573495" lon="11.417504223143673"><ele>220.0</ele><time>2026-04-08T15:11:43Z</time></trkpt><trkpt lat="43.357354828159544" lon="11.417370324206153"><ele>220.0</ele><time>2026-04-08T15:11:44Z</time></trkpt><trkpt lat="43.357273196867595" lon="11.417245568686889"><ele>220.0</ele><time>2026-04-08T15:11:45Z</time></trkpt><trkpt lat="43.3571886977205" lon="11.417115053406427"><ele>220.0</ele><time>2026-04-08T15:11:46Z</time></trkpt><trkpt lat="43.35709690504205" lon="11.416980763178504"><ele>220.0</ele><time>2026-04-08T15:11:47Z</time></trkpt><trkpt lat="43.35699823068392" lon="11.416830791915839"><ele>219.75</ele><time>2026-04-08T15:11:48Z</time></trkpt><trkpt lat="43.35690850056363" lon="11.416687419785294"><ele>219.5</ele><time>2026-04-08T15:11:49Z</time></trkpt><trkpt lat="43.35682789845613" lon="11.416561074871598"><ele>219.25</ele><time>2026-04-08T15:11:50Z</time></trkpt><trkpt lat="43.35675291573674" lon="11.41644463298133"><ele>219.0</ele><time>2026-04-08T15:11:51Z</time></trkpt><trkpt lat="43.356688373628906" lon="11.416337077871278"><ele>219.39999999999998</ele><time>2026-04-08T15:11:52Z</time></trkpt><trkpt lat="43.35662146902176" lon="11.416225426674293"><ele>219.79999999999998</ele><time>2026-04-08T15:11:53Z</time></trkpt><trkpt lat="43.35655267688579" lon="11.4161172351608"><ele>220.20000000000002</ele><time>2026-04-08T15:11:54Z</time></trkpt><trkpt lat="43.356488474181255" lon="11.416017843423608"><ele>220.60000000000002</ele><time>2026-04-08T15:11:55Z</time></trkpt><trkpt lat="43.35641860869335" lon="11.415927899534795"><ele>221.0</ele><time>2026-04-08T15:11:56Z</time></trkpt><trkpt lat="43.35633076470404" lon="11.41585776308299"><ele>221.25</ele><time>2026-04-08T15:11:57Z</time></trkpt><trkpt lat="43.35621440187891" lon="11.415839811698797"><ele>221.5</ele><time>2026-04-08T15:11:57.999Z</time></trkpt><trkpt lat="43.35610200917255" lon="11.415868142963754"><ele>221.75</ele><time>2026-04-08T15:11:58.999Z</time></trkpt><trkpt lat="43.35598013224958" lon="11.41592416289637"><ele>222.0</ele><time>2026-04-08T15:11:59.999Z</time></trkpt><trkpt lat="43.355848902646834" lon="11.415978443651886"><ele>222.0</ele><time>2026-04-08T15:12:00.999Z</time></trkpt><trkpt lat="43.35572773726756" lon="11.416063749695631"><ele>222.0</ele><time>2026-04-08T15:12:01.999Z</time></trkpt><trkpt lat="43.35560168973545" lon="11.416155253116566"><ele>222.0</ele><time>2026-04-08T15:12:02.999Z</time></trkpt><trkpt lat="43.35547802583789" lon="11.416218241798994"><ele>222.0</ele><time>2026-04-08T15:12:03.999Z</time></trkpt><trkpt lat="43.355360435019996" lon="11.416240417167705"><ele>223.25</ele><time>2026-04-08T15:12:04.999Z</time></trkpt><trkpt lat="43.35523445879964" lon="11.41623075368284"><ele>224.5</ele><time>2026-04-08T15:12:05.999Z</time></trkpt><trkpt lat="43.355096872270785" lon="11.416231913107534"><ele>225.75</ele><time>2026-04-08T15:12:06.999Z</time></trkpt><trkpt lat="43.35497332849183" lon="11.416214291369908"><ele>227.0</ele><time>2026-04-08T15:12:07.999Z</time></trkpt><trkpt lat="43.3548543832953" lon="11.416201424105994"><ele>227.0</ele><time>2026-04-08T15:12:08.999Z</time></trkpt><trkpt lat="43.35474220919339" lon="11.416185939459977"><ele>227.0</ele><time>2026-04-08T15:12:09.999Z</time></trkpt><trkpt lat="43.35463924826703" lon="11.416177505470168"><ele>227.0</ele><time>2026-04-08T15:12:10.999Z</time></trkpt><trkpt lat="43.35453742049981" lon="11.416159997645988"><ele>227.0</ele><time>2026-04-08T15:12:11.999Z</time></trkpt><trkpt lat="43.35443711732747" lon="11.416149089541827"><ele>227.0</ele><time>2026-04-08T15:12:12.999Z</time></trkpt><trkpt lat="43.354336036283456" lon="11.416138177689865"><ele>226.5</ele><time>2026-04-08T15:12:13.999Z</time></trkpt><trkpt lat="43.354234188340264" lon="11.416125829696384"><ele>226.0</ele><time>2026-04-08T15:12:14.999Z</time></trkpt><trkpt lat="43.35412119199615" lon="11.416105010819523"><ele>225.5</ele><time>2026-04-08T15:12:15.999Z</time></trkpt><trkpt lat="43.353997573284865" lon="11.416090681696605"><ele>225.0</ele><time>2026-04-08T15:12:16.999Z</time></trkpt><trkpt lat="43.3538664436588" lon="11.416077269873512"><ele>224.5</ele><time>2026-04-08T15:12:17.999Z</time></trkpt><trkpt lat="43.35373513704638" lon="11.416055808184963"><ele>224.0</ele><time>2026-04-08T15:12:18.999Z</time></trkpt><trkpt lat="43.35360568798166" lon="11.416021093525021"><ele>223.5</ele><time>2026-04-08T15:12:19.999Z</time></trkpt><trkpt lat="43.35347255432644" lon="11.415987923464646"><ele>223.0</ele><time>2026-04-08T15:12:20.999Z</time></trkpt><trkpt lat="43.353340671201416" lon="11.415951560946983"><ele>222.99999999999997</ele><time>2026-04-08T15:12:21.999Z</time></trkpt><trkpt lat="43.353224974911654" lon="11.415919610985169"><ele>223.0</ele><time>2026-04-08T15:12:22.999Z</time></trkpt><trkpt lat="43.35313085155908" lon="11.415889688590632"><ele>223.0</ele><time>2026-04-08T15:12:23.999Z</time></trkpt><trkpt lat="43.35305442613665" lon="11.415865043507628"><ele>223.0</ele><time>2026-04-08T15:12:24.999Z</time></trkpt><trkpt lat="43.35298168386564" lon="11.415844383379413"><ele>222.99999999999997</ele><time>2026-04-08T15:12:25.999Z</time></trkpt><trkpt lat="43.35290499851306" lon="11.415823927539083"><ele>223.0</ele><time>2026-04-08T15:12:26.999Z</time></trkpt><trkpt lat="43.35281439957334" lon="11.415800816933302"><ele>223.0</ele><time>2026-04-08T15:12:27.999Z</time></trkpt><trkpt lat="43.35271853311506" lon="11.415762519552603"><ele>223.0</ele><time>2026-04-08T15:12:28.999Z</time></trkpt><trkpt lat="43.35260998348165" lon="11.415726655074339"><ele>223.0</ele><time>2026-04-08T15:12:29.999Z</time></trkpt><trkpt lat="43.352498909304686" lon="11.415695717505967"><ele>223.0</ele><time>2026-04-08T15:12:30.999Z</time></trkpt><trkpt lat="43.35239462330028" lon="11.415671266219423"><ele>223.0</ele><time>2026-04-08T15:12:31.999Z</time></trkpt><trkpt lat="43.352300378703475" lon="11.415648353755802"><ele>222.99999999999997</ele><time>2026-04-08T15:12:32.999Z</time></trkpt><trkpt lat="43.35221236349483" lon="11.415626977333128"><ele>223.0</ele><time>2026-04-08T15:12:33.999Z</time></trkpt><trkpt lat="43.352125453842305" lon="11.415602034213904"><ele>223.0</ele><time>2026-04-08T15:12:34.999Z</time></trkpt><trkpt lat="43.35203607696005" lon="11.41556126215209"><ele>223.0</ele><time>2026-04-08T15:12:35.999Z</time></trkpt><trkpt lat="43.35195517849297" lon="11.415558432592098"><ele>222.99999999999997</ele><time>2026-04-08T15:12:36.999Z</time></trkpt><trkpt lat="43.35187060765273" lon="11.415532889636847"><ele>223.0</ele><time>2026-04-08T15:12:37.999Z</time></trkpt><trkpt lat="43.35177470903092" lon="11.415507957628778"><ele>222.5</ele><time>2026-04-08T15:12:38.999Z</time></trkpt><trkpt lat="43.35166711654816" lon="11.41547071292606"><ele>222.0</ele><time>2026-04-08T15:12:39.999Z</time></trkpt><trkpt lat="43.35154782392632" lon="11.41543632172606"><ele>221.5</ele><time>2026-04-08T15:12:40.999Z</time></trkpt><trkpt lat="43.351420615730945" lon="11.415404326271481"><ele>221.0</ele><time>2026-04-08T15:12:41.999Z</time></trkpt><trkpt lat="43.35128502366833" lon="11.415361611472122"><ele>220.75</ele><time>2026-04-08T15:12:42.999Z</time></trkpt><trkpt lat="43.35115955773122" lon="11.415322517775392"><ele>220.5</ele><time>2026-04-08T15:12:43.999Z</time></trkpt><trkpt lat="43.35102484211175" lon="11.415282069306858"><ele>220.25</ele><time>2026-04-08T15:12:44.999Z</time></trkpt><trkpt lat="43.35088192375287" lon="11.415241895758484"><ele>220.0</ele><time>2026-04-08T15:12:45.999Z</time></trkpt><trkpt lat="43.35073129331468" lon="11.415195616435145"><ele>220.0</ele><time>2026-04-08T15:12:46.999Z</time></trkpt><trkpt lat="43.35057883698006" lon="11.41515445369129"><ele>220.0</ele><time>2026-04-08T15:12:47.999Z</time></trkpt><trkpt lat="43.35044182838946" lon="11.415103752741768"><ele>220.0</ele><time>2026-04-08T15:12:48.999Z</time></trkpt><trkpt lat="43.35031139522364" lon="11.415067243513972"><ele>220.0</ele><time>2026-04-08T15:12:49.999Z</time></trkpt><trkpt lat="43.350184756418585" lon="11.415006504930714"><ele>220.5</ele><time>2026-04-08T15:12:50.999Z</time></trkpt><trkpt lat="43.35007348741603" lon="11.414900185327376"><ele>221.0</ele><time>2026-04-08T15:12:51.999Z</time></trkpt><trkpt lat="43.34997687238902" lon="11.414747708211028"><ele>221.5</ele><time>2026-04-08T15:12:53Z</time></trkpt><trkpt lat="43.34988540607088" lon="11.414589171187481"><ele>222.0</ele><time>2026-04-08T15:12:54Z</time></trkpt><trkpt lat="43.349802800848686" lon="11.41442174995585"><ele>222.0</ele><time>2026-04-08T15:12:55Z</time></trkpt><trkpt lat="43.349710380082726" lon="11.414248928902518"><ele>222.0</ele><time>2026-04-08T15:12:56Z</time></trkpt><trkpt lat="43.34962146827669" lon="11.414084867144073"><ele>222.0</ele><time>2026-04-08T15:12:57Z</time></trkpt><trkpt lat="43.349552118703876" lon="11.413921924983494"><ele>222.0</ele><time>2026-04-08T15:12:58Z</time></trkpt><trkpt lat="43.34949562269011" lon="11.413776331151727"><ele>223.25</ele><time>2026-04-08T15:12:59Z</time></trkpt><trkpt lat="43.34945016731259" lon="11.413618805181562"><ele>224.5</ele><time>2026-04-08T15:13:00Z</time></trkpt><trkpt lat="43.34940095489115" lon="11.413453450379519"><ele>225.75</ele><time>2026-04-08T15:13:01Z</time></trkpt><trkpt lat="43.349328376962106" lon="11.413285685298726"><ele>227.0</ele><time>2026-04-08T15:13:02Z</time></trkpt><trkpt lat="43.34923415426979" lon="11.413123704154494"><ele>226.33333333333334</ele><time>2026-04-08T15:13:03Z</time></trkpt><trkpt lat="43.34912438196501" lon="11.41296453480044"><ele>225.66666666666669</ele><time>2026-04-08T15:13:04Z</time></trkpt><trkpt lat="43.34900510757032" lon="11.412803236730888"><ele>225.0</ele><time>2026-04-08T15:13:05Z</time></trkpt><trkpt lat="43.34888819801105" lon="11.412649745663526"><ele>226.75</ele><time>2026-04-08T15:13:06Z</time></trkpt><trkpt lat="43.3488035499" lon="11.412494628021056"><ele>228.5</ele><time>2026-04-08T15:13:07Z</time></trkpt><trkpt lat="43.348735457963436" lon="11.412329760136895"><ele>230.25</ele><time>2026-04-08T15:13:08Z</time></trkpt><trkpt lat="43.3486741888672" lon="11.412155483217134"><ele>232.0</ele><time>2026-04-08T15:13:09Z</time></trkpt><trkpt lat="43.34861714223888" lon="11.411966643807908"><ele>232.0</ele><time>2026-04-08T15:13:10Z</time></trkpt><trkpt lat="43.34857547077832" lon="11.41179211794846"><ele>232.0</ele><time>2026-04-08T15:13:11Z</time></trkpt><trkpt lat="43.348553631378664" lon="11.4116050225084"><ele>232.0</ele><time>2026-04-08T15:13:12Z</time></trkpt><trkpt lat="43.348536022915994" lon="11.41139281000144"><ele>232.0</ele><time>2026-04-08T15:13:13Z</time></trkpt><trkpt lat="43.34852823376235" lon="11.411167452147223"><ele>234.0</ele><time>2026-04-08T15:13:14Z</time></trkpt><trkpt lat="43.34851503901244" lon="11.410957338418786"><ele>236.0</ele><time>2026-04-08T15:13:15Z</time></trkpt><trkpt lat="43.34849068078909" lon="11.410752815406136"><ele>238.0</ele><time>2026-04-08T15:13:16Z</time></trkpt><trkpt lat="43.34845045353882" lon="11.410541930814365"><ele>238.66666666666666</ele><time>2026-04-08T15:13:17Z</time></trkpt><trkpt lat="43.348401281328336" lon="11.410300020301547"><ele>239.33333333333331</ele><time>2026-04-08T15:13:18Z</time></trkpt><trkpt lat="43.34833493089111" lon="11.410049268797051"><ele>240.0</ele><time>2026-04-08T15:13:19Z</time></trkpt><trkpt lat="43.348267053565706" lon="11.409799356328756"><ele>240.0</ele><time>2026-04-08T15:13:20Z</time></trkpt><trkpt lat="43.348196178582015" lon="11.409534314191927"><ele>240.0</ele><time>2026-04-08T15:13:21Z</time></trkpt><trkpt lat="43.34814050756092" lon="11.409309019666619"><ele>240.0</ele><time>2026-04-08T15:13:22Z</time></trkpt><trkpt lat="43.34809228840609" lon="11.40908970515964"><ele>240.0</ele><time>2026-04-08T15:13:23Z</time></trkpt><trkpt lat="43.34805706552779" lon="11.40884933945878"><ele>240.0</ele><time>2026-04-08T15:13:24Z</time></trkpt><trkpt lat="43.34804406266574" lon="11.408600309092712"><ele>240.0</ele><time>2026-04-08T15:13:25Z</time></trkpt><trkpt lat="43.348035945646764" lon="11.408346782779564"><ele>242.0</ele><time>2026-04-08T15:13:26Z</time></trkpt><trkpt lat="43.348035922056155" lon="11.408086004179136"><ele>244.0</ele><time>2026-04-08T15:13:27Z</time></trkpt><trkpt lat="43.348040678410555" lon="11.407827560218731"><ele>246.0</ele><time>2026-04-08T15:13:28Z</time></trkpt><trkpt lat="43.34804870318676" lon="11.407560941128528"><ele>246.0</ele><time>2026-04-08T15:13:29Z</time></trkpt><trkpt lat="43.348062342807644" lon="11.407285677135697"><ele>246.0</ele><time>2026-04-08T15:13:30Z</time></trkpt><trkpt lat="43.34807940332586" lon="11.407031697419933"><ele>246.0</ele><time>2026-04-08T15:13:31Z</time></trkpt><trkpt lat="43.348100664458435" lon="11.40680776214787"><ele>247.0</ele><time>2026-04-08T15:13:32Z</time></trkpt><trkpt lat="43.34811953731621" lon="11.40659383226124"><ele>248.0</ele><time>2026-04-08T15:13:33Z</time></trkpt><trkpt lat="43.34815492366555" lon="11.406370814032837"><ele>249.0</ele><time>2026-04-08T15:13:34Z</time></trkpt><trkpt lat="43.34820926244459" lon="11.406156706804229"><ele>251.33333333333331</ele><time>2026-04-08T15:13:35Z</time></trkpt><trkpt lat="43.348280264203495" lon="11.405944943692889"><ele>253.66666666666666</ele><time>2026-04-08T15:13:36Z</time></trkpt><trkpt lat="43.34834918992184" lon="11.405738210349158"><ele>256.0</ele><time>2026-04-08T15:13:37Z</time></trkpt><trkpt lat="43.34840667626547" lon="11.405507897105071"><ele>259.66666666666663</ele><time>2026-04-08T15:13:38Z</time></trkpt><trkpt lat="43.3484476556179" lon="11.405268423191895"><ele>263.3333333333333</ele><time>2026-04-08T15:13:39Z</time></trkpt><trkpt lat="43.34847248753093" lon="11.405021782399091"><ele>267.0</ele><time>2026-04-08T15:13:40Z</time></trkpt><trkpt lat="43.34848349408054" lon="11.404801869808475"><ele>267.6666666666667</ele><time>2026-04-08T15:13:41Z</time></trkpt><trkpt lat="43.348510733991354" lon="11.404591697038203"><ele>268.33333333333337</ele><time>2026-04-08T15:13:42Z</time></trkpt><trkpt lat="43.34858121652371" lon="11.404379332649956"><ele>269.0</ele><time>2026-04-08T15:13:43Z</time></trkpt><trkpt lat="43.34866931310207" lon="11.404178836895131"><ele>269.0</ele><time>2026-04-08T15:13:44Z</time></trkpt><trkpt lat="43.34879829319798" lon="11.40401249370746"><ele>269.0</ele><time>2026-04-08T15:13:45Z</time></trkpt><trkpt lat="43.34891128194766" lon="11.40388299155441"><ele>269.0</ele><time>2026-04-08T15:13:46Z</time></trkpt><trkpt lat="43.34899983289659" lon="11.403753775696162"><ele>269.75</ele><time>2026-04-08T15:13:47Z</time></trkpt><trkpt lat="43.34907649533601" lon="11.403589937260922"><ele>270.5</ele><time>2026-04-08T15:13:48Z</time></trkpt><trkpt lat="43.349121383162526" lon="11.403424395205347"><ele>271.25</ele><time>2026-04-08T15:13:49Z</time></trkpt><trkpt lat="43.349144443614975" lon="11.403263631411956"><ele>272.0</ele><time>2026-04-08T15:13:50Z</time></trkpt><trkpt lat="43.34915480726942" lon="11.403094996272978"><ele>273.75</ele><time>2026-04-08T15:13:51Z</time></trkpt><trkpt lat="43.34915595115572" lon="11.40290994981936"><ele>275.5</ele><time>2026-04-08T15:13:52Z</time></trkpt><trkpt lat="43.34917423087133" lon="11.402697896823092"><ele>277.25</ele><time>2026-04-08T15:13:53Z</time></trkpt><trkpt lat="43.34919039663642" lon="11.402483932059233"><ele>279.0</ele><time>2026-04-08T15:13:54Z</time></trkpt><trkpt lat="43.34921099256289" lon="11.402279638047604"><ele>281.0</ele><time>2026-04-08T15:13:55Z</time></trkpt><trkpt lat="43.34923332678934" lon="11.402110561304175"><ele>283.0</ele><time>2026-04-08T15:13:56Z</time></trkpt><trkpt lat="43.34926352538627" lon="11.401965433646152"><ele>285.0</ele><time>2026-04-08T15:13:57Z</time></trkpt><trkpt lat="43.349307707026824" lon="11.401813662247719"><ele>287.0</ele><time>2026-04-08T15:13:58Z</time></trkpt><trkpt lat="43.349382083451054" lon="11.40167062672288"><ele>287.0</ele><time>2026-04-08T15:13:58.999Z</time></trkpt><trkpt lat="43.349476367750704" lon="11.401559764480817"><ele>287.0</ele><time>2026-04-08T15:13:59.999Z</time></trkpt><trkpt lat="43.3495863682449" lon="11.401521998781599"><ele>287.0</ele><time>2026-04-08T15:14:00.999Z</time></trkpt><trkpt lat="43.34970887901608" lon="11.401537526724287"><ele>287.0</ele><time>2026-04-08T15:14:01.999Z</time></trkpt><trkpt lat="43.34983126437696" lon="11.401597505768402"><ele>286.0</ele><time>2026-04-08T15:14:02.999Z</time></trkpt><trkpt lat="43.34992665232069" lon="11.40165287529552"><ele>285.0</ele><time>2026-04-08T15:14:03.999Z</time></trkpt><trkpt lat="43.35002193538001" lon="11.40166485126949"><ele>284.0</ele><time>2026-04-08T15:14:04.999Z</time></trkpt><trkpt lat="43.35010988662174" lon="11.401637481996671"><ele>283.0</ele><time>2026-04-08T15:14:05.999Z</time></trkpt><trkpt lat="43.350188615564804" lon="11.401566384720855"><ele>282.0</ele><time>2026-04-08T15:14:06.999Z</time></trkpt><trkpt lat="43.350236219141195" lon="11.40145424892757"><ele>284.0</ele><time>2026-04-08T15:14:07.999Z</time></trkpt><trkpt lat="43.35024384241088" lon="11.401318468769228"><ele>286.0</ele><time>2026-04-08T15:14:08.999Z</time></trkpt><trkpt lat="43.350208837997265" lon="11.401194958620724"><ele>288.0</ele><time>2026-04-08T15:14:09.999Z</time></trkpt><trkpt lat="43.35013805735779" lon="11.401076618608043"><ele>290.0</ele><time>2026-04-08T15:14:10.999Z</time></trkpt><trkpt lat="43.350042283787566" lon="11.400953660835464"><ele>292.0</ele><time>2026-04-08T15:14:11.999Z</time></trkpt><trkpt lat="43.34992706828734" lon="11.400821122301098"><ele>292.0</ele><time>2026-04-08T15:14:12.999Z</time></trkpt><trkpt lat="43.34982347555313" lon="11.400712567515862"><ele>292.0</ele><time>2026-04-08T15:14:13.999Z</time></trkpt><trkpt lat="43.349704745675425" lon="11.400647495195486"><ele>292.0</ele><time>2026-04-08T15:14:14.999Z</time></trkpt><trkpt lat="43.3495696958902" lon="11.40063197980809"><ele>292.0</ele><time>2026-04-08T15:14:15.999Z</time></trkpt><trkpt lat="43.34943088659137" lon="11.400670010521873"><ele>292.5</ele><time>2026-04-08T15:14:16.999Z</time></trkpt><trkpt lat="43.34930107548386" lon="11.400744625558062"><ele>293.0</ele><time>2026-04-08T15:14:17.999Z</time></trkpt><trkpt lat="43.3491596043508" lon="11.400802342667832"><ele>293.5</ele><time>2026-04-08T15:14:18.999Z</time></trkpt><trkpt lat="43.34903992942551" lon="11.400874035582158"><ele>294.0</ele><time>2026-04-08T15:14:19.999Z</time></trkpt><trkpt lat="43.34893396109421" lon="11.400944624501411"><ele>295.2</ele><time>2026-04-08T15:14:20.999Z</time></trkpt><trkpt lat="43.34884030525405" lon="11.401005643518776"><ele>296.4</ele><time>2026-04-08T15:14:21.999Z</time></trkpt><trkpt lat="43.348743705614716" lon="11.40107091799297"><ele>297.6</ele><time>2026-04-08T15:14:22.999Z</time></trkpt><trkpt lat="43.348640000299106" lon="11.401039814306213"><ele>298.8</ele><time>2026-04-08T15:14:23.999Z</time></trkpt><trkpt lat="43.34854469935829" lon="11.40100335580049"><ele>300.0</ele><time>2026-04-08T15:14:24.999Z</time></trkpt><trkpt lat="43.348441428037646" lon="11.400889599374496"><ele>300.0</ele><time>2026-04-08T15:14:25.999Z</time></trkpt><trkpt lat="43.34833699559404" lon="11.400759733352146"><ele>300.0</ele><time>2026-04-08T15:14:26.999Z</time></trkpt><trkpt lat="43.348232085382485" lon="11.400637317718013"><ele>300.0</ele><time>2026-04-08T15:14:27.999Z</time></trkpt><trkpt lat="43.34810820703695" lon="11.400520782870514"><ele>300.0</ele><time>2026-04-08T15:14:28.999Z</time></trkpt><trkpt lat="43.34798315565927" lon="11.40041745304574"><ele>301.4</ele><time>2026-04-08T15:14:29.999Z</time></trkpt><trkpt lat="43.347866884578075" lon="11.400343530904955"><ele>302.8</ele><time>2026-04-08T15:14:30.999Z</time></trkpt><trkpt lat="43.347750376462166" lon="11.400274512736638"><ele>304.2</ele><time>2026-04-08T15:14:31.999Z</time></trkpt><trkpt lat="43.34766364532964" lon="11.40020189867944"><ele>305.6</ele><time>2026-04-08T15:14:32.999Z</time></trkpt><trkpt lat="43.34758594690926" lon="11.400147782140172"><ele>307.0</ele><time>2026-04-08T15:14:33.999Z</time></trkpt><trkpt lat="43.3475242598042" lon="11.400091093464361"><ele>307.0</ele><time>2026-04-08T15:14:34.999Z</time></trkpt><trkpt lat="43.34749373923627" lon="11.399971986675252"><ele>307.0</ele><time>2026-04-08T15:14:35.999Z</time></trkpt><trkpt lat="43.34747772649361" lon="11.39982464832331"><ele>307.0</ele><time>2026-04-08T15:14:36.999Z</time></trkpt><trkpt lat="43.347462916256866" lon="11.399687298117502"><ele>307.0</ele><time>2026-04-08T15:14:37.999Z</time></trkpt><trkpt lat="43.3474705880404" lon="11.399582902213655"><ele>307.0</ele><time>2026-04-08T15:14:38.999Z</time></trkpt><trkpt lat="43.347525437378394" lon="11.39948774555161"><ele>307.2</ele><time>2026-04-08T15:14:39.999Z</time></trkpt><trkpt lat="43.347600723845495" lon="11.3993901737487"><ele>307.4</ele><time>2026-04-08T15:14:40.999Z</time></trkpt><trkpt lat="43.34768822978667" lon="11.399297920325"><ele>307.6</ele><time>2026-04-08T15:14:41.999Z</time></trkpt><trkpt lat="43.34777981556708" lon="11.399223194236162"><ele>307.8</ele><time>2026-04-08T15:14:42.999Z</time></trkpt><trkpt lat="43.34788396179642" lon="11.399156286268264"><ele>308.0</ele><time>2026-04-08T15:14:43.999Z</time></trkpt><trkpt lat="43.3479903349889" lon="11.399109222225043"><ele>308.4</ele><time>2026-04-08T15:14:44.999Z</time></trkpt><trkpt lat="43.3480834096995" lon="11.399074217810817"><ele>308.8</ele><time>2026-04-08T15:14:45.999Z</time></trkpt><trkpt lat="43.34817189605115" lon="11.399040951530047"><ele>309.2</ele><time>2026-04-08T15:14:46.999Z</time></trkpt><trkpt lat="43.34824217920935" lon="11.399022190013891"><ele>309.6</ele><time>2026-04-08T15:14:47.999Z</time></trkpt><trkpt lat="43.348349260080205" lon="11.399015913605101"><ele>310.0</ele><time>2026-04-08T15:14:49.999Z</time></trkpt><trkpt lat="43.34843246286014" lon="11.398983169289835"><ele>309.16666666666663</ele><time>2026-04-08T15:14:54.999Z</time></trkpt><trkpt lat="43.348391108805686" lon="11.398806623006353"><ele>308.3333333333333</ele><time>2026-04-08T15:14:57.999Z</time></trkpt><trkpt lat="43.34836012513744" lon="11.398718348592276"><ele>307.5</ele><time>2026-04-08T15:14:59Z</time></trkpt><trkpt lat="43.348323335442245" lon="11.398640273920496"><ele>306.6666666666667</ele><time>2026-04-08T15:15:00Z</time></trkpt><trkpt lat="43.34827804353081" lon="11.398562940246231"><ele>305.83333333333337</ele><time>2026-04-08T15:15:01Z</time></trkpt><trkpt lat="43.34821992511925" lon="11.398496090922928"><ele>305.0</ele><time>2026-04-08T15:15:02Z</time></trkpt><trkpt lat="43.34815194482983" lon="11.398459735907197"><ele>305.0</ele><time>2026-04-08T15:15:03Z</time></trkpt><trkpt lat="43.34808054868954" lon="11.398454933460224"><ele>305.0</ele><time>2026-04-08T15:15:04Z</time></trkpt><trkpt lat="43.348005235143305" lon="11.39847900911902"><ele>305.0</ele><time>2026-04-08T15:15:05Z</time></trkpt><trkpt lat="43.34793043027521" lon="11.398523031003833"><ele>305.0</ele><time>2026-04-08T15:15:06Z</time></trkpt><trkpt lat="43.34786092314394" lon="11.398562969677968"><ele>305.0</ele><time>2026-04-08T15:15:07Z</time></trkpt><trkpt lat="43.347790470229846" lon="11.398595488041114"><ele>305.0</ele><time>2026-04-08T15:15:08Z</time></trkpt><trkpt lat="43.34771685271755" lon="11.398620492679845"><ele>303.5</ele><time>2026-04-08T15:15:09Z</time></trkpt><trkpt lat="43.34761769992475" lon="11.398641610470328"><ele>302.0</ele><time>2026-04-08T15:15:10Z</time></trkpt><trkpt lat="43.34751338551704" lon="11.398658473207373"><ele>300.5</ele><time>2026-04-08T15:15:11Z</time></trkpt><trkpt lat="43.34739508024989" lon="11.39867712619185"><ele>299.0</ele><time>2026-04-08T15:15:12Z</time></trkpt><trkpt lat="43.34726995649784" lon="11.398698660176901"><ele>299.59999999999997</ele><time>2026-04-08T15:15:13Z</time></trkpt><trkpt lat="43.34714465351501" lon="11.39871872879204"><ele>300.2</ele><time>2026-04-08T15:15:14Z</time></trkpt><trkpt lat="43.347033179408804" lon="11.398740650325859"><ele>300.79999999999995</ele><time>2026-04-08T15:15:15Z</time></trkpt><trkpt lat="43.34693551643283" lon="11.398780268712969"><ele>301.4</ele><time>2026-04-08T15:15:16Z</time></trkpt><trkpt lat="43.34684242742635" lon="11.3988459187493"><ele>302.0</ele><time>2026-04-08T15:15:17Z</time></trkpt><trkpt lat="43.34675062848257" lon="11.398943227410529"><ele>302.0</ele><time>2026-04-08T15:15:18Z</time></trkpt><trkpt lat="43.34665791070241" lon="11.399063667220888"><ele>302.0</ele><time>2026-04-08T15:15:19Z</time></trkpt><trkpt lat="43.346575031873805" lon="11.399188927244793"><ele>302.0</ele><time>2026-04-08T15:15:20Z</time></trkpt><trkpt lat="43.346493624064905" lon="11.39931729810099"><ele>302.0</ele><time>2026-04-08T15:15:21Z</time></trkpt><trkpt lat="43.3464020257317" lon="11.3994634890171"><ele>301.25</ele><time>2026-04-08T15:15:22Z</time></trkpt><trkpt lat="43.34630648819641" lon="11.399615338565319"><ele>300.5</ele><time>2026-04-08T15:15:23Z</time></trkpt><trkpt lat="43.34622190593425" lon="11.399749120941147"><ele>299.75</ele><time>2026-04-08T15:15:24Z</time></trkpt><trkpt lat="43.34614674795686" lon="11.399865885456904"><ele>299.0</ele><time>2026-04-08T15:15:25Z</time></trkpt><trkpt lat="43.3460754122374" lon="11.399976475106898"><ele>299.0</ele><time>2026-04-08T15:15:26Z</time></trkpt><trkpt lat="43.34600387787635" lon="11.400087372825855"><ele>299.0</ele><time>2026-04-08T15:15:27Z</time></trkpt><trkpt lat="43.345931718070226" lon="11.40019924018621"><ele>299.0</ele><time>2026-04-08T15:15:28Z</time></trkpt><trkpt lat="43.34585826572831" lon="11.400313111191634"><ele>299.0</ele><time>2026-04-08T15:15:29Z</time></trkpt><trkpt lat="43.34578565355331" lon="11.400424768867504"><ele>299.0</ele><time>2026-04-08T15:15:30Z</time></trkpt><trkpt lat="43.34571618399563" lon="11.40054090139748"><ele>299.0</ele><time>2026-04-08T15:15:31Z</time></trkpt><trkpt lat="43.34565136505113" lon="11.400640597390014"><ele>299.0</ele><time>2026-04-08T15:15:32Z</time></trkpt><trkpt lat="43.345593974374864" lon="11.400729694143719"><ele>299.0</ele><time>2026-04-08T15:15:33Z</time></trkpt><trkpt lat="43.34554537383628" lon="11.40081026894785"><ele>299.0</ele><time>2026-04-08T15:15:34Z</time></trkpt><trkpt lat="43.34549560672938" lon="11.4008844854453"><ele>299.0</ele><time>2026-04-08T15:15:35Z</time></trkpt><trkpt lat="43.34543651163995" lon="11.400966746118012"><ele>299.0</ele><time>2026-04-08T15:15:36Z</time></trkpt><trkpt lat="43.34536222527282" lon="11.401022845502336"><ele>299.0</ele><time>2026-04-08T15:15:37Z</time></trkpt><trkpt lat="43.34530399121821" lon="11.401075757059752"><ele>299.0</ele><time>2026-04-08T15:15:38Z</time></trkpt><trkpt lat="43.34522964976539" lon="11.40111959483685"><ele>299.0</ele><time>2026-04-08T15:15:39Z</time></trkpt><trkpt lat="43.34513016110004" lon="11.40116311484804"><ele>299.0</ele><time>2026-04-08T15:15:40Z</time></trkpt><trkpt lat="43.345019649460376" lon="11.401208204872505"><ele>299.0</ele><time>2026-04-08T15:15:41Z</time></trkpt><trkpt lat="43.34492186338363" lon="11.401246214923338"><ele>299.0</ele><time>2026-04-08T15:15:42Z</time></trkpt><trkpt lat="43.34483743475812" lon="11.401290481404516"><ele>299.0</ele><time>2026-04-08T15:15:43Z</time></trkpt><trkpt lat="43.34475345520752" lon="11.401310801415152"><ele>299.0</ele><time>2026-04-08T15:15:44Z</time></trkpt><trkpt lat="43.34466398411743" lon="11.401323871347289"><ele>299.0</ele><time>2026-04-08T15:15:45Z</time></trkpt><trkpt lat="43.34456225258248" lon="11.401308636712523"><ele>299.0</ele><time>2026-04-08T15:15:46Z</time></trkpt><trkpt lat="43.34446484982239" lon="11.401323075719361"><ele>298.59999999999997</ele><time>2026-04-08T15:15:47Z</time></trkpt><trkpt lat="43.34436071393108" lon="11.401316423111075"><ele>298.2</ele><time>2026-04-08T15:15:48Z</time></trkpt><trkpt lat="43.34425370495293" lon="11.4013384378431"><ele>297.79999999999995</ele><time>2026-04-08T15:15:49Z</time></trkpt><trkpt lat="43.3441444223148" lon="11.401361944861632"><ele>297.4</ele><time>2026-04-08T15:15:50Z</time></trkpt><trkpt lat="43.344048389927536" lon="11.401388513642157"><ele>297.0</ele><time>2026-04-08T15:15:51Z</time></trkpt><trkpt lat="43.34395945365587" lon="11.401419745716177"><ele>296.2</ele><time>2026-04-08T15:15:52Z</time></trkpt><trkpt lat="43.34388045365105" lon="11.40146478948561"><ele>295.4</ele><time>2026-04-08T15:15:53Z</time></trkpt><trkpt lat="43.34378222198185" lon="11.401513824394279"><ele>294.6</ele><time>2026-04-08T15:15:54Z</time></trkpt><trkpt lat="43.34369425495441" lon="11.401579416683612"><ele>293.8</ele><time>2026-04-08T15:15:55Z</time></trkpt><trkpt lat="43.34359089266009" lon="11.401640391107568"><ele>293.0</ele><time>2026-04-08T15:15:56Z</time></trkpt><trkpt lat="43.34348717876334" lon="11.401692288046897"><ele>292.8</ele><time>2026-04-08T15:15:57Z</time></trkpt><trkpt lat="43.34341187302377" lon="11.401766635879701"><ele>292.6</ele><time>2026-04-08T15:15:58Z</time></trkpt><trkpt lat="43.343323670712174" lon="11.401829728552546"><ele>292.4</ele><time>2026-04-08T15:15:59Z</time></trkpt><trkpt lat="43.3432548479147" lon="11.401915453891572"><ele>292.2</ele><time>2026-04-08T15:16:00Z</time></trkpt><trkpt lat="43.34319441208843" lon="11.4020157848245"><ele>292.0</ele><time>2026-04-08T15:16:01Z</time></trkpt><trkpt lat="43.34313968606576" lon="11.402140655711145"><ele>291.4</ele><time>2026-04-08T15:16:02Z</time></trkpt><trkpt lat="43.3431042347782" lon="11.402287456194887"><ele>290.79999999999995</ele><time>2026-04-08T15:16:03Z</time></trkpt><trkpt lat="43.34307705522457" lon="11.402437409199484"><ele>290.2</ele><time>2026-04-08T15:16:04Z</time></trkpt><trkpt lat="43.34307601120267" lon="11.402568179785385"><ele>289.59999999999997</ele><time>2026-04-08T15:16:05Z</time></trkpt><trkpt lat="43.34307072900448" lon="11.402673679054928"><ele>289.0</ele><time>2026-04-08T15:16:05.999Z</time></trkpt><trkpt lat="43.34305234549997" lon="11.40278041296147"><ele>289.0</ele><time>2026-04-08T15:16:06.999Z</time></trkpt><trkpt lat="43.3430327044338" lon="11.402915023706756"><ele>289.0</ele><time>2026-04-08T15:16:07.999Z</time></trkpt><trkpt lat="43.343005198726594" lon="11.403044232423039"><ele>289.0</ele><time>2026-04-08T15:16:08.999Z</time></trkpt><trkpt lat="43.34296942574157" lon="11.403168462860828"><ele>289.0</ele><time>2026-04-08T15:16:09.999Z</time></trkpt><trkpt lat="43.34288704167074" lon="11.403241399420102"><ele>289.0</ele><time>2026-04-08T15:16:10.999Z</time></trkpt><trkpt lat="43.34281915601869" lon="11.40330773971665"><ele>289.0</ele><time>2026-04-08T15:16:11.999Z</time></trkpt><trkpt lat="43.3427151350056" lon="11.403291840626496"><ele>289.0</ele><time>2026-04-08T15:16:12.999Z</time></trkpt><trkpt lat="43.342593961759604" lon="11.403309182654752"><ele>289.0</ele><time>2026-04-08T15:16:13.999Z</time></trkpt><trkpt lat="43.34248740124772" lon="11.40335431625845"><ele>289.0</ele><time>2026-04-08T15:16:14.999Z</time></trkpt><trkpt lat="43.34239418556056" lon="11.403395720713355"><ele>289.0</ele><time>2026-04-08T15:16:15.999Z</time></trkpt><trkpt lat="43.34229198025489" lon="11.4034402046641"><ele>287.75</ele><time>2026-04-08T15:16:16.999Z</time></trkpt><trkpt lat="43.342188112904715" lon="11.4035568317205"><ele>286.5</ele><time>2026-04-08T15:16:17.999Z</time></trkpt><trkpt lat="43.34206917233075" lon="11.40369766787622"><ele>285.25</ele><time>2026-04-08T15:16:18.999Z</time></trkpt><trkpt lat="43.341958167052006" lon="11.403829107314149"><ele>284.0</ele><time>2026-04-08T15:16:19.999Z</time></trkpt><trkpt lat="43.34185869059802" lon="11.403941326680577"><ele>284.0</ele><time>2026-04-08T15:16:20.999Z</time></trkpt><trkpt lat="43.34177078494082" lon="11.404040303783379"><ele>284.0</ele><time>2026-04-08T15:16:21.999Z</time></trkpt><trkpt lat="43.341684234450476" lon="11.404137754954856"><ele>284.0</ele><time>2026-04-08T15:16:22.999Z</time></trkpt><trkpt lat="43.341584331401286" lon="11.404250691292894"><ele>284.0</ele><time>2026-04-08T15:16:23.999Z</time></trkpt><trkpt lat="43.34147786079433" lon="11.404371835406467"><ele>284.0</ele><time>2026-04-08T15:16:24.999Z</time></trkpt><trkpt lat="43.341388333704984" lon="11.404478677453259"><ele>284.0</ele><time>2026-04-08T15:16:25.999Z</time></trkpt><trkpt lat="43.341308307595874" lon="11.40459288337347"><ele>284.0</ele><time>2026-04-08T15:16:26.999Z</time></trkpt><trkpt lat="43.34123692115486" lon="11.40471795537482"><ele>284.0</ele><time>2026-04-08T15:16:27.999Z</time></trkpt><trkpt lat="43.341165363483675" lon="11.404844935329084"><ele>285.2</ele><time>2026-04-08T15:16:28.999Z</time></trkpt><trkpt lat="43.34108947817745" lon="11.404966124077424"><ele>286.4</ele><time>2026-04-08T15:16:29.999Z</time></trkpt><trkpt lat="43.341030111584686" lon="11.40508752877031"><ele>287.6</ele><time>2026-04-08T15:16:30.999Z</time></trkpt><trkpt lat="43.340956510956026" lon="11.405181333463059"><ele>288.8</ele><time>2026-04-08T15:16:31.999Z</time></trkpt><trkpt lat="43.34086189070736" lon="11.405246613153404"><ele>290.0</ele><time>2026-04-08T15:16:32.999Z</time></trkpt><trkpt lat="43.34077597483138" lon="11.405337834896116"><ele>290.0</ele><time>2026-04-08T15:16:33.999Z</time></trkpt><trkpt lat="43.3406696185335" lon="11.405408112884237"><ele>290.0</ele><time>2026-04-08T15:16:34.999Z</time></trkpt><trkpt lat="43.34055739184677" lon="11.405483391467182"><ele>290.0</ele><time>2026-04-08T15:16:35.999Z</time></trkpt><trkpt lat="43.34043770094827" lon="11.405557034064534"><ele>290.0</ele><time>2026-04-08T15:16:36.999Z</time></trkpt><trkpt lat="43.34031468550469" lon="11.4056332325855"><ele>290.0</ele><time>2026-04-08T15:16:37.999Z</time></trkpt><trkpt lat="43.340191122384134" lon="11.405709280802458"><ele>290.0</ele><time>2026-04-08T15:16:38.999Z</time></trkpt><trkpt lat="43.34007611228729" lon="11.405778733690877"><ele>290.0</ele><time>2026-04-08T15:16:39.999Z</time></trkpt><trkpt lat="43.33996877755984" lon="11.405835437273806"><ele>290.0</ele><time>2026-04-08T15:16:40.999Z</time></trkpt><trkpt lat="43.33986294251317" lon="11.405909798039477"><ele>290.0</ele><time>2026-04-08T15:16:41.999Z</time></trkpt><trkpt lat="43.339755737465566" lon="11.40597695031762"><ele>290.0</ele><time>2026-04-08T15:16:42.999Z</time></trkpt><trkpt lat="43.33967272584042" lon="11.406045111313466"><ele>290.0</ele><time>2026-04-08T15:16:43.999Z</time></trkpt><trkpt lat="43.339612785999655" lon="11.406122454515089"><ele>290.0</ele><time>2026-04-08T15:16:44.999Z</time></trkpt><trkpt lat="43.33954044456346" lon="11.406196109368837"><ele>290.0</ele><time>2026-04-08T15:16:45.999Z</time></trkpt><trkpt lat="43.339488667761216" lon="11.406318175152265"><ele>289.25</ele><time>2026-04-08T15:16:46.999Z</time></trkpt><trkpt lat="43.33945953350913" lon="11.406463161652981"><ele>288.5</ele><time>2026-04-08T15:16:47.999Z</time></trkpt><trkpt lat="43.33939389625421" lon="11.406592166342273"><ele>287.75</ele><time>2026-04-08T15:16:48.999Z</time></trkpt><trkpt lat="43.339290652072535" lon="11.406710129388085"><ele>287.0</ele><time>2026-04-08T15:16:49.999Z</time></trkpt><trkpt lat="43.33918356344407" lon="11.406840452019994"><ele>287.0</ele><time>2026-04-08T15:16:50.999Z</time></trkpt><trkpt lat="43.33907892784086" lon="11.406987888380385"><ele>287.0</ele><time>2026-04-08T15:16:51.999Z</time></trkpt><trkpt lat="43.33896020091415" lon="11.407135033752729"><ele>287.0</ele><time>2026-04-08T15:16:52.999Z</time></trkpt><trkpt lat="43.33883600094646" lon="11.407272834084797"><ele>287.5</ele><time>2026-04-08T15:16:53.999Z</time></trkpt><trkpt lat="43.338730809135996" lon="11.407407510123445"><ele>288.0</ele><time>2026-04-08T15:16:54.999Z</time></trkpt><trkpt lat="43.338622330165826" lon="11.407491347732012"><ele>288.5</ele><time>2026-04-08T15:16:55.999Z</time></trkpt><trkpt lat="43.33852954806052" lon="11.40757447229713"><ele>289.0</ele><time>2026-04-08T15:16:56.999Z</time></trkpt><trkpt lat="43.33844052190087" lon="11.407645411160532"><ele>289.0</ele><time>2026-04-08T15:16:57.999Z</time></trkpt><trkpt lat="43.338364305200244" lon="11.407723035782823"><ele>289.0</ele><time>2026-04-08T15:16:58.999Z</time></trkpt><trkpt lat="43.33828655757154" lon="11.407774249352306"><ele>289.0</ele><time>2026-04-08T15:16:59.999Z</time></trkpt><trkpt lat="43.33820932847729" lon="11.407810184020855"><ele>289.0</ele><time>2026-04-08T15:17:00.999Z</time></trkpt><trkpt lat="43.33812991591734" lon="11.407824893550433"><ele>289.0</ele><time>2026-04-08T15:17:01.999Z</time></trkpt><trkpt lat="43.338003951391244" lon="11.407770179227423"><ele>289.4</ele><time>2026-04-08T15:17:03.999Z</time></trkpt><trkpt lat="43.337931404239264" lon="11.407709414848402"><ele>289.79999999999995</ele><time>2026-04-08T15:17:05Z</time></trkpt><trkpt lat="43.337851956865876" lon="11.407635210146454"><ele>290.20000000000005</ele><time>2026-04-08T15:17:06Z</time></trkpt><trkpt lat="43.33777826655778" lon="11.40753792851065"><ele>290.6</ele><time>2026-04-08T15:17:07Z</time></trkpt><trkpt lat="43.337689275751956" lon="11.407461170604195"><ele>291.0</ele><time>2026-04-08T15:17:08Z</time></trkpt><trkpt lat="43.33759512405563" lon="11.407367131358615"><ele>291.0</ele><time>2026-04-08T15:17:09Z</time></trkpt><trkpt lat="43.33750211380647" lon="11.407275154922734"><ele>291.0</ele><time>2026-04-08T15:17:10Z</time></trkpt><trkpt lat="43.33740374522104" lon="11.40718462290803"><ele>291.0</ele><time>2026-04-08T15:17:11Z</time></trkpt><trkpt lat="43.337315152343706" lon="11.407103306876179"><ele>291.0</ele><time>2026-04-08T15:17:12Z</time></trkpt><trkpt lat="43.33723482681673" lon="11.407036697843969"><ele>291.0</ele><time>2026-04-08T15:17:13Z</time></trkpt><trkpt lat="43.337140478690465" lon="11.406985275320647"><ele>291.25</ele><time>2026-04-08T15:17:14Z</time></trkpt><trkpt lat="43.33703517375445" lon="11.406933884683855"><ele>291.5</ele><time>2026-04-08T15:17:15Z</time></trkpt><trkpt lat="43.33691915271148" lon="11.40688660738688"><ele>291.75</ele><time>2026-04-08T15:17:16Z</time></trkpt><trkpt lat="43.336802458968826" lon="11.406827231716617"><ele>292.0</ele><time>2026-04-08T15:17:17Z</time></trkpt><trkpt lat="43.3366858796167" lon="11.406783795010229"><ele>292.0</ele><time>2026-04-08T15:17:18Z</time></trkpt><trkpt lat="43.33658940387996" lon="11.406733620651673"><ele>292.0</ele><time>2026-04-08T15:17:19Z</time></trkpt><trkpt lat="43.33649301054709" lon="11.406688007263819"><ele>292.0</ele><time>2026-04-08T15:17:20Z</time></trkpt><trkpt lat="43.336403007410674" lon="11.406671642481509"><ele>292.0</ele><time>2026-04-08T15:17:21Z</time></trkpt><trkpt lat="43.33631963971196" lon="11.406659959906166"><ele>292.0</ele><time>2026-04-08T15:17:22Z</time></trkpt><trkpt lat="43.33622892670164" lon="11.406631987203788"><ele>293.4</ele><time>2026-04-08T15:17:23Z</time></trkpt><trkpt lat="43.33613232181847" lon="11.406658652485074"><ele>294.79999999999995</ele><time>2026-04-08T15:17:24Z</time></trkpt><trkpt lat="43.33604247493807" lon="11.406712454075608"><ele>296.2</ele><time>2026-04-08T15:17:25Z</time></trkpt><trkpt lat="43.335949130829626" lon="11.406779497059597"><ele>297.59999999999997</ele><time>2026-04-08T15:17:26Z</time></trkpt><trkpt lat="43.33584772146963" lon="11.406883879253831"><ele>299.0</ele><time>2026-04-08T15:17:27Z</time></trkpt><trkpt lat="43.33575231120249" lon="11.406995448805814"><ele>299.0</ele><time>2026-04-08T15:17:28Z</time></trkpt><trkpt lat="43.3356548847989" lon="11.407114762041331"><ele>299.0</ele><time>2026-04-08T15:17:29Z</time></trkpt><trkpt lat="43.3355663369581" lon="11.407220996763824"><ele>299.0</ele><time>2026-04-08T15:17:30Z</time></trkpt><trkpt lat="43.33549618743141" lon="11.407290920288952"><ele>299.0</ele><time>2026-04-08T15:17:31Z</time></trkpt><trkpt lat="43.33539096673406" lon="11.407353070698507"><ele>299.0</ele><time>2026-04-08T15:17:33Z</time></trkpt><trkpt lat="43.33547323829506" lon="11.40731085798164"><ele>299.0</ele><time>2026-04-08T15:17:58Z</time></trkpt><trkpt lat="43.335594763261476" lon="11.407298492099523"><ele>299.0</ele><time>2026-04-08T15:17:59Z</time></trkpt><trkpt lat="43.33566144424272" lon="11.407181742361702"><ele>299.0</ele><time>2026-04-08T15:18:00Z</time></trkpt><trkpt lat="43.33573957881942" lon="11.407084759484597"><ele>299.0</ele><time>2026-04-08T15:18:01Z</time></trkpt><trkpt lat="43.33580808756066" lon="11.407006831026624"><ele>299.0</ele><time>2026-04-08T15:18:02Z</time></trkpt><trkpt lat="43.33587874562059" lon="11.406924921464688"><ele>299.0</ele><time>2026-04-08T15:18:03Z</time></trkpt><trkpt lat="43.335956428720216" lon="11.406846258171065"><ele>299.0</ele><time>2026-04-08T15:18:04Z</time></trkpt><trkpt lat="43.336032957938485" lon="11.406783025729895"><ele>299.0</ele><time>2026-04-08T15:18:05Z</time></trkpt><trkpt lat="43.33612325561406" lon="11.406733219339701"><ele>299.0</ele><time>2026-04-08T15:18:07Z</time></trkpt><trkpt lat="43.33616574505616" lon="11.406651649568373"><ele>299.0</ele><time>2026-04-08T15:18:31.999Z</time></trkpt><trkpt lat="43.336024918175646" lon="11.406779513890582"><ele>299.0</ele><time>2026-04-08T15:18:55.999Z</time></trkpt><trkpt lat="43.33594228685834" lon="11.406841544506788"><ele>299.0</ele><time>2026-04-08T15:18:56.999Z</time></trkpt><trkpt lat="43.33583631842656" lon="11.406896914579407"><ele>299.0</ele><time>2026-04-08T15:18:57.999Z</time></trkpt><trkpt lat="43.3357461037857" lon="11.407002971101312"><ele>299.0</ele><time>2026-04-08T15:18:58.999Z</time></trkpt><trkpt lat="43.33564646646372" lon="11.407125101953804"><ele>298.6666666666667</ele><time>2026-04-08T15:18:59.999Z</time></trkpt><trkpt lat="43.33556540320774" lon="11.407222078220661"><ele>298.33333333333337</ele><time>2026-04-08T15:19:00.999Z</time></trkpt><trkpt lat="43.33548609325904" lon="11.407299451384828"><ele>298.0</ele><time>2026-04-08T15:19:01.999Z</time></trkpt><trkpt lat="43.335417210517804" lon="11.407342615597505"><ele>297.6666666666667</ele><time>2026-04-08T15:19:02.999Z</time></trkpt><trkpt lat="43.335345629949366" lon="11.407364812350988"><ele>297.3333333333333</ele><time>2026-04-08T15:19:03.999Z</time></trkpt><trkpt lat="43.33525783832925" lon="11.407369282780891"><ele>297.0</ele><time>2026-04-08T15:19:04.999Z</time></trkpt><trkpt lat="43.335154908849674" lon="11.40736936378591"><ele>297.0</ele><time>2026-04-08T15:19:05.999Z</time></trkpt><trkpt lat="43.335072341890786" lon="11.40739115198745"><ele>297.0</ele><time>2026-04-08T15:19:06.999Z</time></trkpt><trkpt lat="43.334984000735545" lon="11.40742392079479"><ele>297.0</ele><time>2026-04-08T15:19:07.999Z</time></trkpt><trkpt lat="43.334909824970964" lon="11.40746243199264"><ele>297.0</ele><time>2026-04-08T15:19:08.999Z</time></trkpt><trkpt lat="43.33483480421825" lon="11.407471401294814"><ele>297.0</ele><time>2026-04-08T15:19:09.999Z</time></trkpt><trkpt lat="43.33475806454948" lon="11.407473627486697"><ele>297.0</ele><time>2026-04-08T15:19:11Z</time></trkpt><trkpt lat="43.334682951714875" lon="11.407479179106756"><ele>295.8333333333333</ele><time>2026-04-08T15:19:12Z</time></trkpt><trkpt lat="43.3346008634317" lon="11.407482215504892"><ele>294.6666666666667</ele><time>2026-04-08T15:19:13Z</time></trkpt><trkpt lat="43.334521874559485" lon="11.40746117545654"><ele>293.5</ele><time>2026-04-08T15:19:14Z</time></trkpt><trkpt lat="43.33445016480492" lon="11.407457701067099"><ele>292.33333333333337</ele><time>2026-04-08T15:19:15Z</time></trkpt><trkpt lat="43.33436005909493" lon="11.407463215574845"><ele>291.1666666666667</ele><time>2026-04-08T15:19:17Z</time></trkpt><trkpt lat="43.3342862650667" lon="11.407373331216103"><ele>290.0</ele><time>2026-04-08T15:19:19Z</time></trkpt><trkpt lat="43.334261705540335" lon="11.407218103139703"><ele>289.8</ele><time>2026-04-08T15:19:21Z</time></trkpt><trkpt lat="43.3342453821895" lon="11.407106126123072"><ele>289.6</ele><time>2026-04-08T15:19:22Z</time></trkpt><trkpt lat="43.33423213290804" lon="11.40696512339913"><ele>289.4</ele><time>2026-04-08T15:19:23Z</time></trkpt><trkpt lat="43.33421552597279" lon="11.406817688454751"><ele>289.2</ele><time>2026-04-08T15:19:24Z</time></trkpt><trkpt lat="43.33419802277651" lon="11.406657983619198"><ele>289.0</ele><time>2026-04-08T15:19:25Z</time></trkpt><trkpt lat="43.33417560190817" lon="11.406508715458276"><ele>289.0</ele><time>2026-04-08T15:19:26Z</time></trkpt><trkpt lat="43.33415771370768" lon="11.406379697497044"><ele>289.0</ele><time>2026-04-08T15:19:27Z</time></trkpt><trkpt lat="43.33413895586348" lon="11.406256177903877"><ele>289.0</ele><time>2026-04-08T15:19:28Z</time></trkpt><trkpt lat="43.3341251900597" lon="11.406146226527612"><ele>289.0</ele><time>2026-04-08T15:19:29Z</time></trkpt><trkpt lat="43.334111025913764" lon="11.406038993803124"><ele>289.0</ele><time>2026-04-08T15:19:30Z</time></trkpt><trkpt lat="43.33410079502815" lon="11.405916799475007"><ele>289.0</ele><time>2026-04-08T15:19:31Z</time></trkpt><trkpt lat="43.334104093064056" lon="11.405780683773262"><ele>288.25</ele><time>2026-04-08T15:19:32Z</time></trkpt><trkpt lat="43.33411735981393" lon="11.405616105249981"><ele>287.5</ele><time>2026-04-08T15:19:33Z</time></trkpt><trkpt lat="43.33413493520267" lon="11.405439761478146"><ele>286.75</ele><time>2026-04-08T15:19:34Z</time></trkpt><trkpt lat="43.33414856907158" lon="11.40529018851413"><ele>286.0</ele><time>2026-04-08T15:19:35Z</time></trkpt><trkpt lat="43.33416137313872" lon="11.405133072201162"><ele>285.2</ele><time>2026-04-08T15:19:36Z</time></trkpt><trkpt lat="43.33417734568749" lon="11.40495813810505"><ele>284.40000000000003</ele><time>2026-04-08T15:19:37Z</time></trkpt><trkpt lat="43.33419409818016" lon="11.40480394422726"><ele>283.6</ele><time>2026-04-08T15:19:38Z</time></trkpt><trkpt lat="43.334203733895876" lon="11.404670000399058"><ele>282.8</ele><time>2026-04-08T15:19:39Z</time></trkpt><trkpt lat="43.33421085901988" lon="11.404541328004903"><ele>282.0</ele><time>2026-04-08T15:19:40Z</time></trkpt><trkpt lat="43.334221098628824" lon="11.40441160508117"><ele>282.0</ele><time>2026-04-08T15:19:41Z</time></trkpt><trkpt lat="43.33422774987818" lon="11.404307605979758"><ele>282.0</ele><time>2026-04-08T15:19:42Z</time></trkpt><trkpt lat="43.33421209547476" lon="11.404150607653197"><ele>282.0</ele><time>2026-04-08T15:19:44Z</time></trkpt><trkpt lat="43.3341611355136" lon="11.404020454216365"><ele>282.0</ele><time>2026-04-08T15:19:46Z</time></trkpt><trkpt lat="43.3340925202457" lon="11.403975955613454"><ele>282.0</ele><time>2026-04-08T15:19:47Z</time></trkpt><trkpt lat="43.33400298978699" lon="11.403982614120164"><ele>282.0</ele><time>2026-04-08T15:19:48Z</time></trkpt><trkpt lat="43.333917427824" lon="11.404066153216354"><ele>282.0</ele><time>2026-04-08T15:19:49Z</time></trkpt><trkpt lat="43.333833469667816" lon="11.404111405570577"><ele>282.0</ele><time>2026-04-08T15:19:50Z</time></trkpt><trkpt lat="43.333748526326175" lon="11.404155752095527"><ele>282.0</ele><time>2026-04-08T15:19:51Z</time></trkpt><trkpt lat="43.3336726164019" lon="11.40419389521869"><ele>282.0</ele><time>2026-04-08T15:19:52Z</time></trkpt><trkpt lat="43.33360845622697" lon="11.404226134426413"><ele>282.0</ele><time>2026-04-08T15:19:53Z</time></trkpt><trkpt lat="43.333538642880896" lon="11.404262284683965"><ele>281.8</ele><time>2026-04-08T15:19:54Z</time></trkpt><trkpt lat="43.33344917724098" lon="11.404308240647635"><ele>281.6</ele><time>2026-04-08T15:19:55Z</time></trkpt><trkpt lat="43.33335436672232" lon="11.40435477837363"><ele>281.40000000000003</ele><time>2026-04-08T15:19:56Z</time></trkpt><trkpt lat="43.333264109227834" lon="11.404399081090881"><ele>281.2</ele><time>2026-04-08T15:19:57Z</time></trkpt><trkpt lat="43.33315711020388" lon="11.40445186437534"><ele>281.0</ele><time>2026-04-08T15:19:58Z</time></trkpt><trkpt lat="43.33304258336902" lon="11.404511623531409"><ele>281.0</ele><time>2026-04-08T15:19:59Z</time></trkpt><trkpt lat="43.332927682246336" lon="11.404571355154042"><ele>281.0</ele><time>2026-04-08T15:20:00Z</time></trkpt><trkpt lat="43.33281613482965" lon="11.404632887753538"><ele>281.0</ele><time>2026-04-08T15:20:01Z</time></trkpt><trkpt lat="43.33270569168801" lon="11.404694023275082"><ele>281.0</ele><time>2026-04-08T15:20:02Z</time></trkpt><trkpt lat="43.33260203978886" lon="11.40475139945238"><ele>280.25</ele><time>2026-04-08T15:20:03Z</time></trkpt><trkpt lat="43.33250591088184" lon="11.404804037915145"><ele>279.5</ele><time>2026-04-08T15:20:04Z</time></trkpt><trkpt lat="43.33240655448296" lon="11.404857759254966"><ele>278.75</ele><time>2026-04-08T15:20:05Z</time></trkpt><trkpt lat="43.332285050710844" lon="11.404923455491678"><ele>278.0</ele><time>2026-04-08T15:20:06Z</time></trkpt><trkpt lat="43.332169323453044" lon="11.4049851622968"><ele>278.0</ele><time>2026-04-08T15:20:07Z</time></trkpt><trkpt lat="43.33207924599446" lon="11.4050331933791"><ele>278.0</ele><time>2026-04-08T15:20:08Z</time></trkpt><trkpt lat="43.33200072574878" lon="11.405075061930926"><ele>278.0</ele><time>2026-04-08T15:20:09Z</time></trkpt><trkpt lat="43.33191560230821" lon="11.405119322296017"><ele>278.0</ele><time>2026-04-08T15:20:10Z</time></trkpt><trkpt lat="43.33180225618544" lon="11.405172561590806"><ele>278.0</ele><time>2026-04-08T15:20:11Z</time></trkpt><trkpt lat="43.33170199144328" lon="11.405224857492394"><ele>278.0</ele><time>2026-04-08T15:20:12Z</time></trkpt><trkpt lat="43.33161252060533" lon="11.40524516912118"><ele>278.0</ele><time>2026-04-08T15:20:13Z</time></trkpt><trkpt lat="43.33151892324999" lon="11.405263940476182"><ele>278.0</ele><time>2026-04-08T15:20:14Z</time></trkpt><trkpt lat="43.331412594627366" lon="11.4052954458063"><ele>278.0</ele><time>2026-04-08T15:20:15Z</time></trkpt><trkpt lat="43.331292311011296" lon="11.405304248060274"><ele>278.0</ele><time>2026-04-08T15:20:16Z</time></trkpt><trkpt lat="43.331172070880314" lon="11.405334980867185"><ele>276.8</ele><time>2026-04-08T15:20:17Z</time></trkpt><trkpt lat="43.33105581765565" lon="11.405364694688808"><ele>275.6</ele><time>2026-04-08T15:20:18Z</time></trkpt><trkpt lat="43.330963725505896" lon="11.405411409078148"><ele>274.4</ele><time>2026-04-08T15:20:18.999Z</time></trkpt><trkpt lat="43.330869072690184" lon="11.405436803371797"><ele>273.2</ele><time>2026-04-08T15:20:19.999Z</time></trkpt><trkpt lat="43.33078063279133" lon="11.405456315220302"><ele>272.0</ele><time>2026-04-08T15:20:20.999Z</time></trkpt><trkpt lat="43.33068823840967" lon="11.405477398694414"><ele>271.4</ele><time>2026-04-08T15:20:21.999Z</time></trkpt><trkpt lat="43.33060117508372" lon="11.405511634321718"><ele>270.79999999999995</ele><time>2026-04-08T15:20:22.999Z</time></trkpt><trkpt lat="43.33050033892312" lon="11.405533239884624"><ele>270.2</ele><time>2026-04-08T15:20:23.999Z</time></trkpt><trkpt lat="43.330410340174886" lon="11.405584114136962"><ele>269.59999999999997</ele><time>2026-04-08T15:20:24.999Z</time></trkpt><trkpt lat="43.33030835948151" lon="11.40562298738475"><ele>269.0</ele><time>2026-04-08T15:20:25.999Z</time></trkpt><trkpt lat="43.3302035767219" lon="11.405651976807379"><ele>268.0</ele><time>2026-04-08T15:20:26.999Z</time></trkpt><trkpt lat="43.33009902301931" lon="11.405708202817266"><ele>267.0</ele><time>2026-04-08T15:20:27.999Z</time></trkpt><trkpt lat="43.330004388069845" lon="11.40578603004924"><ele>266.0</ele><time>2026-04-08T15:20:28.999Z</time></trkpt><trkpt lat="43.329914182865075" lon="11.405844785594548"><ele>265.0</ele><time>2026-04-08T15:20:29.999Z</time></trkpt><trkpt lat="43.329817883107154" lon="11.405900664700095"><ele>264.0</ele><time>2026-04-08T15:20:30.999Z</time></trkpt><trkpt lat="43.329730279502456" lon="11.40597992154328"><ele>262.75</ele><time>2026-04-08T15:20:31.999Z</time></trkpt><trkpt lat="43.3296341346685" lon="11.406060380197783"><ele>261.5</ele><time>2026-04-08T15:20:32.999Z</time></trkpt><trkpt lat="43.329542741194466" lon="11.40614870511308"><ele>260.25</ele><time>2026-04-08T15:20:33.999Z</time></trkpt><trkpt lat="43.32944666264754" lon="11.406250680723813"><ele>259.0</ele><time>2026-04-08T15:20:34.999Z</time></trkpt><trkpt lat="43.32935389329131" lon="11.406361254575316"><ele>258.8</ele><time>2026-04-08T15:20:35.999Z</time></trkpt><trkpt lat="43.32926786520157" lon="11.406469298689014"><ele>258.59999999999997</ele><time>2026-04-08T15:20:36.999Z</time></trkpt><trkpt lat="43.32918225408007" lon="11.406552004989615"><ele>258.4</ele><time>2026-04-08T15:20:37.999Z</time></trkpt><trkpt lat="43.32910385130143" lon="11.406643370167481"><ele>258.2</ele><time>2026-04-08T15:20:38.999Z</time></trkpt><trkpt lat="43.32902085234722" lon="11.406740091361254"><ele>258.0</ele><time>2026-04-08T15:20:39.999Z</time></trkpt><trkpt lat="43.3289388406603" lon="11.406837418030204"><ele>257.8</ele><time>2026-04-08T15:20:40.999Z</time></trkpt><trkpt lat="43.328864743755155" lon="11.406925948556454"><ele>257.6</ele><time>2026-04-08T15:20:41.999Z</time></trkpt><trkpt lat="43.32878800199897" lon="11.407017639197493"><ele>257.4</ele><time>2026-04-08T15:20:42.999Z</time></trkpt><trkpt lat="43.32872100115317" lon="11.407124482098633"><ele>257.2</ele><time>2026-04-08T15:20:43.999Z</time></trkpt><trkpt lat="43.32862931722415" lon="11.407227807388583"><ele>257.0</ele><time>2026-04-08T15:20:44.999Z</time></trkpt><trkpt lat="43.32853518914897" lon="11.407319027366572"><ele>256.0</ele><time>2026-04-08T15:20:45.999Z</time></trkpt><trkpt lat="43.32843932724823" lon="11.407433266478145"><ele>255.0</ele><time>2026-04-08T15:20:46.999Z</time></trkpt><trkpt lat="43.32834316241426" lon="11.407547866561377"><ele>254.0</ele><time>2026-04-08T15:20:47.999Z</time></trkpt><trkpt lat="43.32824605355629" lon="11.407663591721516"><ele>253.0</ele><time>2026-04-08T15:20:48.999Z</time></trkpt><trkpt lat="43.32814342334606" lon="11.407786500610607"><ele>253.0</ele><time>2026-04-08T15:20:49.999Z</time></trkpt><trkpt lat="43.32804901984703" lon="11.407899858795352"><ele>253.0</ele><time>2026-04-08T15:20:50.999Z</time></trkpt><trkpt lat="43.32796377307305" lon="11.408002221733122"><ele>253.0</ele><time>2026-04-08T15:20:51.999Z</time></trkpt><trkpt lat="43.32788623602425" lon="11.408117723242857"><ele>253.0</ele><time>2026-04-08T15:20:52.999Z</time></trkpt><trkpt lat="43.32779800360076" lon="11.408222367910216"><ele>253.0</ele><time>2026-04-08T15:20:53.999Z</time></trkpt><trkpt lat="43.32771047442116" lon="11.408324272698929"><ele>253.0</ele><time>2026-04-08T15:20:54.999Z</time></trkpt><trkpt lat="43.32762261986258" lon="11.40841932969053"><ele>253.0</ele><time>2026-04-08T15:20:55.999Z</time></trkpt><trkpt lat="43.32753442992847" lon="11.40851801788674"><ele>253.0</ele><time>2026-04-08T15:20:56.999Z</time></trkpt><trkpt lat="43.32744584378624" lon="11.408617106307096"><ele>253.0</ele><time>2026-04-08T15:20:57.999Z</time></trkpt><trkpt lat="43.32735677208723" lon="11.408724219227267"><ele>253.0</ele><time>2026-04-08T15:20:58.999Z</time></trkpt><trkpt lat="43.32726592002609" lon="11.408824912929644"><ele>253.0</ele><time>2026-04-08T15:20:59.999Z</time></trkpt><trkpt lat="43.32718211730869" lon="11.408917299424685"><ele>253.0</ele><time>2026-04-08T15:21:00.999Z</time></trkpt><trkpt lat="43.32710793941328" lon="11.408998079373216"><ele>253.0</ele><time>2026-04-08T15:21:01.999Z</time></trkpt><trkpt lat="43.32703396599249" lon="11.409085809277592"><ele>251.60000000000002</ele><time>2026-04-08T15:21:02.999Z</time></trkpt><trkpt lat="43.326972407875864" lon="11.409196310298393"><ele>250.20000000000002</ele><time>2026-04-08T15:21:03.999Z</time></trkpt><trkpt lat="43.32691257553647" lon="11.409312068355444"><ele>248.8</ele><time>2026-04-08T15:21:04.999Z</time></trkpt><trkpt lat="43.32684618617731" lon="11.409437945744576"><ele>247.4</ele><time>2026-04-08T15:21:05.999Z</time></trkpt><trkpt lat="43.326776231325084" lon="11.409556449732891"><ele>246.0</ele><time>2026-04-08T15:21:06.999Z</time></trkpt><trkpt lat="43.32669458544722" lon="11.409627101583162"><ele>245.4</ele><time>2026-04-08T15:21:07.999Z</time></trkpt><trkpt lat="43.32661232514214" lon="11.409715735180686"><ele>244.8</ele><time>2026-04-08T15:21:08.999Z</time></trkpt><trkpt lat="43.326538186775046" lon="11.409792530718654"><ele>244.20000000000002</ele><time>2026-04-08T15:21:09.999Z</time></trkpt><trkpt lat="43.32646628757209" lon="11.409867006709526"><ele>243.60000000000002</ele><time>2026-04-08T15:21:10.999Z</time></trkpt><trkpt lat="43.32641452312143" lon="11.409951960775786"><ele>243.0</ele><time>2026-04-08T15:21:11.999Z</time></trkpt><trkpt lat="43.32633801605354" lon="11.41000888286684"><ele>243.0</ele><time>2026-04-08T15:21:12.999Z</time></trkpt><trkpt lat="43.3262767539237" lon="11.410076715746824"><ele>243.0</ele><time>2026-04-08T15:21:13.999Z</time></trkpt><trkpt lat="43.3262174788238" lon="11.410144702521508"><ele>243.0</ele><time>2026-04-08T15:21:14.999Z</time></trkpt><trkpt lat="43.326163096313614" lon="11.41020719836078"><ele>243.0</ele><time>2026-04-08T15:21:15.999Z</time></trkpt><trkpt lat="43.32607877556095" lon="11.410305754279358"><ele>243.0</ele><time>2026-04-08T15:21:18Z</time></trkpt><trkpt lat="43.32601589031641" lon="11.41035136244291"><ele>243.0</ele><time>2026-04-08T15:21:20Z</time></trkpt><trkpt lat="43.32595170070158" lon="11.410257444213448"><ele>243.0</ele><time>2026-04-08T15:21:21Z</time></trkpt><trkpt lat="43.32591435981191" lon="11.41017132564471"><ele>243.0</ele><time>2026-04-08T15:21:22Z</time></trkpt><trkpt lat="43.32587651310434" lon="11.410056990316297"><ele>243.0</ele><time>2026-04-08T15:21:23Z</time></trkpt><trkpt lat="43.32584077196244" lon="11.409932045319852"><ele>243.0</ele><time>2026-04-08T15:21:24Z</time></trkpt><trkpt lat="43.32581383787985" lon="11.409787736850399"><ele>243.0</ele><time>2026-04-08T15:21:25Z</time></trkpt><trkpt lat="43.32580903482469" lon="11.40964588662233"><ele>241.4</ele><time>2026-04-08T15:21:26Z</time></trkpt><trkpt lat="43.32582457992148" lon="11.40952442847387"><ele>239.8</ele><time>2026-04-08T15:21:27Z</time></trkpt><trkpt lat="43.32584224525263" lon="11.409387095842256"><ele>238.2</ele><time>2026-04-08T15:21:28Z</time></trkpt><trkpt lat="43.32584831264786" lon="11.409233109875597"><ele>236.6</ele><time>2026-04-08T15:21:29Z</time></trkpt><trkpt lat="43.325836888445224" lon="11.409063782919208"><ele>235.0</ele><time>2026-04-08T15:21:30Z</time></trkpt><trkpt lat="43.32582767249718" lon="11.408887880345286"><ele>234.0</ele><time>2026-04-08T15:21:31Z</time></trkpt><trkpt lat="43.325808920304375" lon="11.408713194426808"><ele>233.0</ele><time>2026-04-08T15:21:32Z</time></trkpt><trkpt lat="43.32578924488805" lon="11.408530356884956"><ele>232.0</ele><time>2026-04-08T15:21:33Z</time></trkpt><trkpt lat="43.32576690795652" lon="11.408332287250882"><ele>231.0</ele><time>2026-04-08T15:21:34Z</time></trkpt><trkpt lat="43.32574552078618" lon="11.408128471037038"><ele>230.0</ele><time>2026-04-08T15:21:35Z</time></trkpt><trkpt lat="43.325723278692315" lon="11.407938520453936"><ele>229.0</ele><time>2026-04-08T15:21:36Z</time></trkpt><trkpt lat="43.325704154199066" lon="11.4077541529546"><ele>228.0</ele><time>2026-04-08T15:21:37Z</time></trkpt><trkpt lat="43.32568321466012" lon="11.407563214003307"><ele>227.0</ele><time>2026-04-08T15:21:38Z</time></trkpt><trkpt lat="43.3256650685948" lon="11.407374203675989"><ele>227.0</ele><time>2026-04-08T15:21:39Z</time></trkpt><trkpt lat="43.32564697191151" lon="11.407200406113127"><ele>227.0</ele><time>2026-04-08T15:21:40Z</time></trkpt><trkpt lat="43.32562434829554" lon="11.407021929966765"><ele>227.0</ele><time>2026-04-08T15:21:41Z</time></trkpt><trkpt lat="43.32559053667481" lon="11.406846952314387"><ele>227.0</ele><time>2026-04-08T15:21:42Z</time></trkpt><trkpt lat="43.32553700421984" lon="11.406685570993757"><ele>226.0</ele><time>2026-04-08T15:21:43Z</time></trkpt><trkpt lat="43.325467903631704" lon="11.406536281768865"><ele>225.0</ele><time>2026-04-08T15:21:44Z</time></trkpt><trkpt lat="43.32540400983459" lon="11.40636920246413"><ele>224.0</ele><time>2026-04-08T15:21:45Z</time></trkpt><trkpt lat="43.32531668872943" lon="11.406199679719599"><ele>223.0</ele><time>2026-04-08T15:21:46Z</time></trkpt><trkpt lat="43.325239931565825" lon="11.406031629017319"><ele>221.5</ele><time>2026-04-08T15:21:47Z</time></trkpt><trkpt lat="43.325169406834505" lon="11.405867771580423"><ele>220.0</ele><time>2026-04-08T15:21:48Z</time></trkpt><trkpt lat="43.32512646956337" lon="11.405702479100837"><ele>218.5</ele><time>2026-04-08T15:21:49Z</time></trkpt><trkpt lat="43.32507974934375" lon="11.405540960223043"><ele>217.0</ele><time>2026-04-08T15:21:50Z</time></trkpt><trkpt lat="43.325034893634985" lon="11.405360299517715"><ele>216.5</ele><time>2026-04-08T15:21:51Z</time></trkpt><trkpt lat="43.32499584260663" lon="11.40517006235436"><ele>216.0</ele><time>2026-04-08T15:21:52Z</time></trkpt><trkpt lat="43.32497388282107" lon="11.404971221118132"><ele>215.5</ele><time>2026-04-08T15:21:53Z</time></trkpt><trkpt lat="43.324963652152086" lon="11.40477724779844"><ele>215.0</ele><time>2026-04-08T15:21:54Z</time></trkpt><trkpt lat="43.32495539303582" lon="11.404581506231038"><ele>214.66666666666669</ele><time>2026-04-08T15:21:55Z</time></trkpt><trkpt lat="43.32494960585413" lon="11.404377979712994"><ele>214.33333333333331</ele><time>2026-04-08T15:21:56Z</time></trkpt><trkpt lat="43.32495071108049" lon="11.404171441873176"><ele>214.0</ele><time>2026-04-08T15:21:57Z</time></trkpt><trkpt lat="43.32495100471676" lon="11.403960095866749"><ele>213.33333333333331</ele><time>2026-04-08T15:21:58Z</time></trkpt><trkpt lat="43.32495503016985" lon="11.403743782880136"><ele>212.66666666666669</ele><time>2026-04-08T15:21:59Z</time></trkpt><trkpt lat="43.324964896477965" lon="11.403527857980365"><ele>212.0</ele><time>2026-04-08T15:22:00Z</time></trkpt><trkpt lat="43.32498459846048" lon="11.403296489426875"><ele>212.0</ele><time>2026-04-08T15:22:01Z</time></trkpt><trkpt lat="43.325006491501085" lon="11.40305505588581"><ele>212.0</ele><time>2026-04-08T15:22:02Z</time></trkpt><trkpt lat="43.32503204265599" lon="11.4027817023678"><ele>212.0</ele><time>2026-04-08T15:22:03Z</time></trkpt><trkpt lat="43.32505638924781" lon="11.40251558688483"><ele>213.33333333333334</ele><time>2026-04-08T15:22:04Z</time></trkpt><trkpt lat="43.32507869488051" lon="11.40223165191316"><ele>214.66666666666669</ele><time>2026-04-08T15:22:05Z</time></trkpt><trkpt lat="43.325096416489096" lon="11.401966764476382"><ele>216.0</ele><time>2026-04-08T15:22:06Z</time></trkpt><trkpt lat="43.32510641339701" lon="11.401763374969633"><ele>218.5</ele><time>2026-04-08T15:22:07Z</time></trkpt><trkpt lat="43.325107782239186" lon="11.40158360854151"><ele>221.0</ele><time>2026-04-08T15:22:08Z</time></trkpt><trkpt lat="43.32510261655857" lon="11.401377096171382"><ele>223.5</ele><time>2026-04-08T15:22:09Z</time></trkpt><trkpt lat="43.32509531570482" lon="11.401191170005237"><ele>226.0</ele><time>2026-04-08T15:22:10Z</time></trkpt><trkpt lat="43.32509048307246" lon="11.401044002111838"><ele>227.25</ele><time>2026-04-08T15:22:11Z</time></trkpt><trkpt lat="43.32509099379937" lon="11.400894890491399"><ele>228.5</ele><time>2026-04-08T15:22:12Z</time></trkpt><trkpt lat="43.325103495982695" lon="11.400731486157719"><ele>229.75</ele><time>2026-04-08T15:22:13Z</time></trkpt><trkpt lat="43.32512030848983" lon="11.400554058778319"><ele>231.0</ele><time>2026-04-08T15:22:14Z</time></trkpt><trkpt lat="43.3251455637961" lon="11.400368784648952"><ele>232.25</ele><time>2026-04-08T15:22:15Z</time></trkpt><trkpt lat="43.32517680847504" lon="11.400194280527359"><ele>233.5</ele><time>2026-04-08T15:22:16Z</time></trkpt><trkpt lat="43.32519085637793" lon="11.400042708584431"><ele>234.75</ele><time>2026-04-08T15:22:17Z</time></trkpt><trkpt lat="43.32519030269702" lon="11.39987242591554"><ele>236.0</ele><time>2026-04-08T15:22:18Z</time></trkpt><trkpt lat="43.32517805006477" lon="11.399687830677284"><ele>237.66666666666669</ele><time>2026-04-08T15:22:19Z</time></trkpt><trkpt lat="43.3251600393049" lon="11.399492799713125"><ele>239.33333333333331</ele><time>2026-04-08T15:22:20Z</time></trkpt><trkpt lat="43.32514386808179" lon="11.399287075763333"><ele>241.0</ele><time>2026-04-08T15:22:21Z</time></trkpt><trkpt lat="43.32513135898351" lon="11.399071353109331"><ele>241.0</ele><time>2026-04-08T15:22:21.999Z</time></trkpt><trkpt lat="43.325121928059446" lon="11.39889651783155"><ele>241.0</ele><time>2026-04-08T15:22:22.999Z</time></trkpt><trkpt lat="43.3251114783862" lon="11.398718239968389"><ele>241.0</ele><time>2026-04-08T15:22:23.999Z</time></trkpt><trkpt lat="43.32510259024834" lon="11.398529491650157"><ele>241.0</ele><time>2026-04-08T15:22:24.999Z</time></trkpt><trkpt lat="43.32509627816446" lon="11.39835660701483"><ele>242.5</ele><time>2026-04-08T15:22:25.999Z</time></trkpt><trkpt lat="43.325090320750036" lon="11.398180037396038"><ele>244.0</ele><time>2026-04-08T15:22:26.999Z</time></trkpt><trkpt lat="43.325092171200794" lon="11.398023376222534"><ele>245.5</ele><time>2026-04-08T15:22:27.999Z</time></trkpt><trkpt lat="43.32509959453549" lon="11.397873968320782"><ele>247.0</ele><time>2026-04-08T15:22:28.999Z</time></trkpt><trkpt lat="43.325126575670666" lon="11.397717798499954"><ele>247.0</ele><time>2026-04-08T15:22:29.999Z</time></trkpt><trkpt lat="43.325176366821275" lon="11.397552986896217"><ele>247.0</ele><time>2026-04-08T15:22:30.999Z</time></trkpt><trkpt lat="43.32524453008604" lon="11.397388843728464"><ele>247.0</ele><time>2026-04-08T15:22:31.999Z</time></trkpt><trkpt lat="43.325309127279084" lon="11.397227501939366"><ele>247.0</ele><time>2026-04-08T15:22:32.999Z</time></trkpt><trkpt lat="43.32536224667111" lon="11.397055952017407"><ele>247.0</ele><time>2026-04-08T15:22:33.999Z</time></trkpt><trkpt lat="43.32542144190133" lon="11.396865561868943"><ele>247.0</ele><time>2026-04-08T15:22:34.999Z</time></trkpt><trkpt lat="43.3254804557476" lon="11.396661229668176"><ele>247.0</ele><time>2026-04-08T15:22:35.999Z</time></trkpt><trkpt lat="43.325536475506865" lon="11.39646844915005"><ele>247.75</ele><time>2026-04-08T15:22:36.999Z</time></trkpt><trkpt lat="43.32558889850282" lon="11.396295302415528"><ele>248.5</ele><time>2026-04-08T15:22:37.999Z</time></trkpt><trkpt lat="43.32563585145086" lon="11.39613636586211"><ele>249.25</ele><time>2026-04-08T15:22:38.999Z</time></trkpt><trkpt lat="43.32567325067317" lon="11.395987490601362"><ele>250.0</ele><time>2026-04-08T15:22:39.999Z</time></trkpt><trkpt lat="43.32569551841314" lon="11.395812076401212"><ele>250.0</ele><time>2026-04-08T15:22:40.999Z</time></trkpt><trkpt lat="43.32570421746504" lon="11.395610075802285"><ele>250.0</ele><time>2026-04-08T15:22:41.999Z</time></trkpt><trkpt lat="43.32570368572162" lon="11.395425394784384"><ele>250.0</ele><time>2026-04-08T15:22:42.999Z</time></trkpt><trkpt lat="43.32570511634032" lon="11.395239939279147"><ele>250.0</ele><time>2026-04-08T15:22:43.999Z</time></trkpt><trkpt lat="43.32571239123423" lon="11.395052715095558"><ele>250.5</ele><time>2026-04-08T15:22:44.999Z</time></trkpt><trkpt lat="43.32571505203698" lon="11.394864075551283"><ele>251.0</ele><time>2026-04-08T15:22:45.999Z</time></trkpt><trkpt lat="43.32570463507278" lon="11.394672646369967"><ele>251.5</ele><time>2026-04-08T15:22:46.999Z</time></trkpt><trkpt lat="43.32567104319243" lon="11.394471318032373"><ele>252.0</ele><time>2026-04-08T15:22:47.999Z</time></trkpt><trkpt lat="43.32561851016965" lon="11.394269302393885"><ele>253.0</ele><time>2026-04-08T15:22:48.999Z</time></trkpt><trkpt lat="43.32555969547644" lon="11.394067729259424"><ele>254.0</ele><time>2026-04-08T15:22:49.999Z</time></trkpt><trkpt lat="43.32550267961403" lon="11.393872941254784"><ele>255.0</ele><time>2026-04-08T15:22:50.999Z</time></trkpt><trkpt lat="43.32544181951984" lon="11.393672830723645"><ele>256.6666666666667</ele><time>2026-04-08T15:22:51.999Z</time></trkpt><trkpt lat="43.32538301332297" lon="11.393472085643836"><ele>258.33333333333337</ele><time>2026-04-08T15:22:52.999Z</time></trkpt><trkpt lat="43.32532057464855" lon="11.39326643984987"><ele>260.0</ele><time>2026-04-08T15:22:53.999Z</time></trkpt><trkpt lat="43.325251600535026" lon="11.393063946096616"><ele>261.0</ele><time>2026-04-08T15:22:54.999Z</time></trkpt><trkpt lat="43.325191286038184" lon="11.392875393503624"><ele>262.0</ele><time>2026-04-08T15:22:55.999Z</time></trkpt><trkpt lat="43.32513450905655" lon="11.392722455587633"><ele>263.0</ele><time>2026-04-08T15:22:56.999Z</time></trkpt><trkpt lat="43.32507348273291" lon="11.392601052832209"><ele>264.0</ele><time>2026-04-08T15:22:57.999Z</time></trkpt><trkpt lat="43.325004253603375" lon="11.39251504304335"><ele>264.0</ele><time>2026-04-08T15:22:58.999Z</time></trkpt><trkpt lat="43.32491243142275" lon="11.392485855749626"><ele>264.0</ele><time>2026-04-08T15:22:59.999Z</time></trkpt><trkpt lat="43.324796793308465" lon="11.392511327983385"><ele>264.0</ele><time>2026-04-08T15:23:00.999Z</time></trkpt><trkpt lat="43.324678593895094" lon="11.392538569383373"><ele>264.0</ele><time>2026-04-08T15:23:01.999Z</time></trkpt><trkpt lat="43.32455391395548" lon="11.392547292389162"><ele>264.25</ele><time>2026-04-08T15:23:02.999Z</time></trkpt><trkpt lat="43.324439930215206" lon="11.392536770179483"><ele>264.5</ele><time>2026-04-08T15:23:03.999Z</time></trkpt><trkpt lat="43.32432632567681" lon="11.392483198002807"><ele>264.75</ele><time>2026-04-08T15:23:04.999Z</time></trkpt><trkpt lat="43.32421138775169" lon="11.392427386879552"><ele>265.0</ele><time>2026-04-08T15:23:05.999Z</time></trkpt><trkpt lat="43.324088664356246" lon="11.392377967742018"><ele>265.0</ele><time>2026-04-08T15:23:06.999Z</time></trkpt><trkpt lat="43.32396322327769" lon="11.392341010492899"><ele>265.0</ele><time>2026-04-08T15:23:07.999Z</time></trkpt><trkpt lat="43.32383239875155" lon="11.392306759437355"><ele>265.0</ele><time>2026-04-08T15:23:08.999Z</time></trkpt><trkpt lat="43.32370274644758" lon="11.39226603696393"><ele>265.0</ele><time>2026-04-08T15:23:09.999Z</time></trkpt><trkpt lat="43.323581192575375" lon="11.39221751408295"><ele>264.8</ele><time>2026-04-08T15:23:10.999Z</time></trkpt><trkpt lat="43.3234675321093" lon="11.392201936065163"><ele>264.6</ele><time>2026-04-08T15:23:11.999Z</time></trkpt><trkpt lat="43.323352782681134" lon="11.39217434351601"><ele>264.4</ele><time>2026-04-08T15:23:12.999Z</time></trkpt><trkpt lat="43.323245135348536" lon="11.392149597109114"><ele>264.2</ele><time>2026-04-08T15:23:13.999Z</time></trkpt><trkpt lat="43.32314005749558" lon="11.39212393506332"><ele>264.0</ele><time>2026-04-08T15:23:14.999Z</time></trkpt><trkpt lat="43.323019618946006" lon="11.392097417803189"><ele>262.25</ele><time>2026-04-08T15:23:15.999Z</time></trkpt><trkpt lat="43.32289034868426" lon="11.392059351485896"><ele>260.5</ele><time>2026-04-08T15:23:16.999Z</time></trkpt><trkpt lat="43.32277748417127" lon="11.392024096045303"><ele>258.75</ele><time>2026-04-08T15:23:17.999Z</time></trkpt><trkpt lat="43.32266851109578" lon="11.391995463438734"><ele>257.0</ele><time>2026-04-08T15:23:18.999Z</time></trkpt><trkpt lat="43.322559737335155" lon="11.391968654304081"><ele>257.0</ele><time>2026-04-08T15:23:19.999Z</time></trkpt><trkpt lat="43.3224459552736" lon="11.391937473623512"><ele>257.0</ele><time>2026-04-08T15:23:20.999Z</time></trkpt><trkpt lat="43.32232142678163" lon="11.391898190489812"><ele>257.0</ele><time>2026-04-08T15:23:21.999Z</time></trkpt><trkpt lat="43.32220317513531" lon="11.391866181740786"><ele>257.0</ele><time>2026-04-08T15:23:23Z</time></trkpt><trkpt lat="43.322091718359644" lon="11.391834128613123"><ele>256.0</ele><time>2026-04-08T15:23:24Z</time></trkpt><trkpt lat="43.32196497752679" lon="11.391801605013846"><ele>255.0</ele><time>2026-04-08T15:23:25Z</time></trkpt><trkpt lat="43.32183980225533" lon="11.391763547253452"><ele>254.0</ele><time>2026-04-08T15:23:26Z</time></trkpt><trkpt lat="43.32172126736206" lon="11.391718136491292"><ele>253.0</ele><time>2026-04-08T15:23:27Z</time></trkpt><trkpt lat="43.3216065235918" lon="11.391672481921175"><ele>253.0</ele><time>2026-04-08T15:23:28Z</time></trkpt><trkpt lat="43.32148601545586" lon="11.391614137553809"><ele>253.0</ele><time>2026-04-08T15:23:29Z</time></trkpt><trkpt lat="43.32135378736297" lon="11.391532215766883"><ele>253.0</ele><time>2026-04-08T15:23:30Z</time></trkpt><trkpt lat="43.32121356087672" lon="11.391433345384304"><ele>253.0</ele><time>2026-04-08T15:23:31Z</time></trkpt><trkpt lat="43.3210632376925" lon="11.391325430749445"><ele>251.5</ele><time>2026-04-08T15:23:32Z</time></trkpt><trkpt lat="43.32091689992723" lon="11.39122957517793"><ele>250.0</ele><time>2026-04-08T15:23:33Z</time></trkpt><trkpt lat="43.32078646503153" lon="11.391138849636114"><ele>248.5</ele><time>2026-04-08T15:23:34Z</time></trkpt><trkpt lat="43.32067548622789" lon="11.391071384107557"><ele>247.0</ele><time>2026-04-08T15:23:35Z</time></trkpt><trkpt lat="43.320575987940416" lon="11.390996281558886"><ele>247.39999999999998</ele><time>2026-04-08T15:23:36Z</time></trkpt><trkpt lat="43.32047549957964" lon="11.390954815771709"><ele>247.79999999999998</ele><time>2026-04-08T15:23:37Z</time></trkpt><trkpt lat="43.32037956731706" lon="11.390960958002607"><ele>248.2</ele><time>2026-04-08T15:23:38Z</time></trkpt><trkpt lat="43.32028445360189" lon="11.390941152605688"><ele>248.6</ele><time>2026-04-08T15:23:39Z</time></trkpt><trkpt lat="43.320193766743486" lon="11.390895335637186"><ele>249.0</ele><time>2026-04-08T15:23:40Z</time></trkpt><trkpt lat="43.3201299397327" lon="11.390812164471717"><ele>249.0</ele><time>2026-04-08T15:23:41Z</time></trkpt><trkpt lat="43.32009740944465" lon="11.39070255972091"><ele>248.99999999999997</ele><time>2026-04-08T15:23:42Z</time></trkpt><trkpt lat="43.32008401233899" lon="11.39057101921055"><ele>248.99999999999997</ele><time>2026-04-08T15:23:43Z</time></trkpt><trkpt lat="43.32006407899967" lon="11.390415197351881"><ele>249.0</ele><time>2026-04-08T15:23:44Z</time></trkpt><trkpt lat="43.32003332407834" lon="11.39024194583845"><ele>249.0</ele><time>2026-04-08T15:23:45Z</time></trkpt><trkpt lat="43.32000520382335" lon="11.390075094744347"><ele>248.5</ele><time>2026-04-08T15:23:46Z</time></trkpt><trkpt lat="43.31996847758401" lon="11.389902809612133"><ele>248.0</ele><time>2026-04-08T15:23:47Z</time></trkpt><trkpt lat="43.319926991298715" lon="11.389729300476832"><ele>247.5</ele><time>2026-04-08T15:23:48Z</time></trkpt><trkpt lat="43.319877749514426" lon="11.38955379035488"><ele>247.0</ele><time>2026-04-08T15:23:49Z</time></trkpt><trkpt lat="43.31982924547307" lon="11.389384793941046"><ele>246.0</ele><time>2026-04-08T15:23:50Z</time></trkpt><trkpt lat="43.31977674415588" lon="11.389232303435577"><ele>245.0</ele><time>2026-04-08T15:23:51Z</time></trkpt><trkpt lat="43.31973151849605" lon="11.389079120978257"><ele>244.0</ele><time>2026-04-08T15:23:52Z</time></trkpt><trkpt lat="43.319705267246064" lon="11.388900101050842"><ele>243.0</ele><time>2026-04-08T15:23:53Z</time></trkpt><trkpt lat="43.319647471690644" lon="11.38869964059988"><ele>239.5</ele><time>2026-04-08T15:23:54Z</time></trkpt><trkpt lat="43.31961873382135" lon="11.388489405626755"><ele>236.0</ele><time>2026-04-08T15:23:55Z</time></trkpt><trkpt lat="43.31958662992532" lon="11.388308422734267"><ele>232.5</ele><time>2026-04-08T15:23:56Z</time></trkpt><trkpt lat="43.319552879772914" lon="11.388137696621799"><ele>229.0</ele><time>2026-04-08T15:23:57Z</time></trkpt><trkpt lat="43.31952212916637" lon="11.387978550586961"><ele>229.0</ele><time>2026-04-08T15:23:58Z</time></trkpt><trkpt lat="43.31949749506246" lon="11.387833442535843"><ele>228.99999999999997</ele><time>2026-04-08T15:23:59Z</time></trkpt><trkpt lat="43.3194746860164" lon="11.387696871087588"><ele>228.99999999999997</ele><time>2026-04-08T15:24:00Z</time></trkpt><trkpt lat="43.31943335771719" lon="11.387578596301806"><ele>229.0</ele><time>2026-04-08T15:24:01Z</time></trkpt><trkpt lat="43.31936355345598" lon="11.387488687460257"><ele>229.0</ele><time>2026-04-08T15:24:02Z</time></trkpt><trkpt lat="43.31926607265318" lon="11.387427840637182"><ele>228.99999999999997</ele><time>2026-04-08T15:24:03Z</time></trkpt><trkpt lat="43.319183442206246" lon="11.387357297798474"><ele>229.0</ele><time>2026-04-08T15:24:04Z</time></trkpt><trkpt lat="43.31910395634027" lon="11.387325030726776"><ele>229.0</ele><time>2026-04-08T15:24:05Z</time></trkpt><trkpt lat="43.3190576032684" lon="11.387229541529392"><ele>229.0</ele><time>2026-04-08T15:24:06Z</time></trkpt><trkpt lat="43.319039949961336" lon="11.387123284376065"><ele>228.99999999999997</ele><time>2026-04-08T15:24:07Z</time></trkpt><trkpt lat="43.319049805828584" lon="11.386993088504228"><ele>229.0</ele><time>2026-04-08T15:24:08Z</time></trkpt><trkpt lat="43.31908012249897" lon="11.386849213631319"><ele>228.6</ele><time>2026-04-08T15:24:09Z</time></trkpt><trkpt lat="43.31912445808635" lon="11.386715465957865"><ele>228.2</ele><time>2026-04-08T15:24:10Z</time></trkpt><trkpt lat="43.31918141927723" lon="11.386609509283238"><ele>227.79999999999998</ele><time>2026-04-08T15:24:11Z</time></trkpt><trkpt lat="43.319250444966976" lon="11.386525720453319"><ele>227.39999999999998</ele><time>2026-04-08T15:24:12Z</time></trkpt><trkpt lat="43.319336690255454" lon="11.386458863831447"><ele>227.0</ele><time>2026-04-08T15:24:13Z</time></trkpt><trkpt lat="43.31943793066992" lon="11.386394203302693"><ele>226.2</ele><time>2026-04-08T15:24:14Z</time></trkpt><trkpt lat="43.319549566799225" lon="11.386327696912927"><ele>225.39999999999998</ele><time>2026-04-08T15:24:15Z</time></trkpt><trkpt lat="43.319660145241244" lon="11.386260870485467"><ele>224.60000000000002</ele><time>2026-04-08T15:24:16Z</time></trkpt><trkpt lat="43.3197594886271" lon="11.386202733045545"><ele>223.8</ele><time>2026-04-08T15:24:17Z</time></trkpt><trkpt lat="43.3198477310775" lon="11.386153910066495"><ele>223.0</ele><time>2026-04-08T15:24:18Z</time></trkpt><trkpt lat="43.31993148809486" lon="11.386094269789925"><ele>222.8</ele><time>2026-04-08T15:24:19Z</time></trkpt><trkpt lat="43.32000813749809" lon="11.38601932062463"><ele>222.60000000000002</ele><time>2026-04-08T15:24:20Z</time></trkpt><trkpt lat="43.320071094280614" lon="11.385917595888984"><ele>222.39999999999998</ele><time>2026-04-08T15:24:21Z</time></trkpt><trkpt lat="43.32010627569318" lon="11.385806389287174"><ele>222.2</ele><time>2026-04-08T15:24:22Z</time></trkpt><trkpt lat="43.32011858591925" lon="11.385682666159704"><ele>222.0</ele><time>2026-04-08T15:24:23Z</time></trkpt><trkpt lat="43.32011905982699" lon="11.385533843876933"><ele>221.0</ele><time>2026-04-08T15:24:24Z</time></trkpt><trkpt lat="43.3201186852873" lon="11.385368224344361"><ele>220.0</ele><time>2026-04-08T15:24:25Z</time></trkpt><trkpt lat="43.32012268975735" lon="11.385218133191652"><ele>219.0</ele><time>2026-04-08T15:24:26Z</time></trkpt><trkpt lat="43.32013959884801" lon="11.385092749333364"><ele>218.0</ele><time>2026-04-08T15:24:27Z</time></trkpt><trkpt lat="43.320193686538296" lon="11.384968419205885"><ele>217.0</ele><time>2026-04-08T15:24:28Z</time></trkpt><trkpt lat="43.320241308267406" lon="11.384835615571703"><ele>217.0</ele><time>2026-04-08T15:24:29Z</time></trkpt><trkpt lat="43.320343052965804" lon="11.384713278232015"><ele>217.0</ele><time>2026-04-08T15:24:30Z</time></trkpt><trkpt lat="43.320436348739356" lon="11.384592063077005"><ele>217.0</ele><time>2026-04-08T15:24:30.999Z</time></trkpt><trkpt lat="43.32053074295852" lon="11.384474888547395"><ele>217.0</ele><time>2026-04-08T15:24:31.999Z</time></trkpt><trkpt lat="43.320618840724315" lon="11.384367829689353"><ele>215.83333333333331</ele><time>2026-04-08T15:24:32.999Z</time></trkpt><trkpt lat="43.32069533276065" lon="11.384263017693392"><ele>214.66666666666666</ele><time>2026-04-08T15:24:33.999Z</time></trkpt><trkpt lat="43.32074767923014" lon="11.384147700433168"><ele>213.5</ele><time>2026-04-08T15:24:34.999Z</time></trkpt><trkpt lat="43.320775724812826" lon="11.38404737687117"><ele>212.33333333333331</ele><time>2026-04-08T15:24:35.999Z</time></trkpt><trkpt lat="43.32078568537832" lon="11.383950905370872"><ele>211.16666666666666</ele><time>2026-04-08T15:24:36.999Z</time></trkpt><trkpt lat="43.32077307704398" lon="11.383846619450505"><ele>210.0</ele><time>2026-04-08T15:24:37.999Z</time></trkpt><trkpt lat="43.32074705586811" lon="11.383711263725932"><ele>208.0</ele><time>2026-04-08T15:24:38.999Z</time></trkpt><trkpt lat="43.32070456089439" lon="11.383543470375088"><ele>206.0</ele><time>2026-04-08T15:24:39.999Z</time></trkpt><trkpt lat="43.32066148566281" lon="11.383351810458482"><ele>204.0</ele><time>2026-04-08T15:24:40.999Z</time></trkpt><trkpt lat="43.320627706875136" lon="11.383151362204632"><ele>202.0</ele><time>2026-04-08T15:24:41.999Z</time></trkpt><trkpt lat="43.32060404184457" lon="11.38292185832308"><ele>201.0</ele><time>2026-04-08T15:24:42.999Z</time></trkpt><trkpt lat="43.32057631027363" lon="11.382665569001418"><ele>200.0</ele><time>2026-04-08T15:24:43.999Z</time></trkpt><trkpt lat="43.32053967353061" lon="11.382384569630222"><ele>199.0</ele><time>2026-04-08T15:24:44.999Z</time></trkpt><trkpt lat="43.320503222868275" lon="11.382104878865203"><ele>198.75</ele><time>2026-04-08T15:24:45.999Z</time></trkpt><trkpt lat="43.32046452889499" lon="11.381815776284512"><ele>198.5</ele><time>2026-04-08T15:24:46.999Z</time></trkpt><trkpt lat="43.3204357393378" lon="11.381713056183859"><ele>198.25</ele><time>2026-04-08T15:24:47.999Z</time></trkpt><trkpt lat="43.320402080232206" lon="11.381507862784849"><ele>198.0</ele><time>2026-04-08T15:24:48.999Z</time></trkpt><trkpt lat="43.32036654955202" lon="11.381316205095061"><ele>197.75</ele><time>2026-04-08T15:24:49.999Z</time></trkpt><trkpt lat="43.32033642947938" lon="11.381128216364035"><ele>197.5</ele><time>2026-04-08T15:24:50.999Z</time></trkpt><trkpt lat="43.3203154614607" lon="11.380962858307113"><ele>197.25</ele><time>2026-04-08T15:24:51.999Z</time></trkpt><trkpt lat="43.32031282543116" lon="11.380784459346067"><ele>197.0</ele><time>2026-04-08T15:24:52.999Z</time></trkpt><trkpt lat="43.32033877601189" lon="11.380565477405622"><ele>197.0</ele><time>2026-04-08T15:24:53.999Z</time></trkpt><trkpt lat="43.32037594590555" lon="11.380332762566862"><ele>197.0</ele><time>2026-04-08T15:24:54.999Z</time></trkpt><trkpt lat="43.32041135926898" lon="11.380103139249238"><ele>197.0</ele><time>2026-04-08T15:24:55.999Z</time></trkpt><trkpt lat="43.32043783886355" lon="11.379890971797094"><ele>198.0</ele><time>2026-04-08T15:24:56.999Z</time></trkpt><trkpt lat="43.32046471549558" lon="11.379678703466219"><ele>199.0</ele><time>2026-04-08T15:24:57.999Z</time></trkpt><trkpt lat="43.32049366883155" lon="11.379456865659035"><ele>200.0</ele><time>2026-04-08T15:24:58.999Z</time></trkpt><trkpt lat="43.320522015428836" lon="11.37926439079253"><ele>200.0</ele><time>2026-04-08T15:24:59.999Z</time></trkpt><trkpt lat="43.32054696009137" lon="11.379084847213983"><ele>200.0</ele><time>2026-04-08T15:25:00.999Z</time></trkpt><trkpt lat="43.32056666625012" lon="11.378922020268462"><ele>200.0</ele><time>2026-04-08T15:25:01.999Z</time></trkpt><trkpt lat="43.320579909781046" lon="11.3787684907077"><ele>200.0</ele><time>2026-04-08T15:25:02.999Z</time></trkpt><trkpt lat="43.320598760564536" lon="11.37860776012594"><ele>201.5</ele><time>2026-04-08T15:25:03.999Z</time></trkpt><trkpt lat="43.32060777250817" lon="11.378438493774983"><ele>203.0</ele><time>2026-04-08T15:25:04.999Z</time></trkpt><trkpt lat="43.320599041517376" lon="11.378262469548819"><ele>204.5</ele><time>2026-04-08T15:25:05.999Z</time></trkpt><trkpt lat="43.320572240266145" lon="11.378069929782077"><ele>206.0</ele><time>2026-04-08T15:25:06.999Z</time></trkpt><trkpt lat="43.320545617764" lon="11.377868511540317"><ele>208.66666666666669</ele><time>2026-04-08T15:25:07.999Z</time></trkpt><trkpt lat="43.32052145753975" lon="11.3776685622198"><ele>211.33333333333331</ele><time>2026-04-08T15:25:08.999Z</time></trkpt><trkpt lat="43.32049172908736" lon="11.377463721379694"><ele>214.0</ele><time>2026-04-08T15:25:09.999Z</time></trkpt><trkpt lat="43.320459246430985" lon="11.377261280103935"><ele>217.33333333333331</ele><time>2026-04-08T15:25:10.999Z</time></trkpt><trkpt lat="43.32043573638667" lon="11.377034553059676"><ele>220.66666666666669</ele><time>2026-04-08T15:25:11.999Z</time></trkpt><trkpt lat="43.32042382266595" lon="11.376798362339283"><ele>224.0</ele><time>2026-04-08T15:25:12.999Z</time></trkpt><trkpt lat="43.32042996816305" lon="11.376562865006937"><ele>223.25</ele><time>2026-04-08T15:25:13.999Z</time></trkpt><trkpt lat="43.32045159408474" lon="11.376338698848102"><ele>222.5</ele><time>2026-04-08T15:25:14.999Z</time></trkpt><trkpt lat="43.3204711602621" lon="11.37614763016636"><ele>221.75</ele><time>2026-04-08T15:25:15.999Z</time></trkpt><trkpt lat="43.32051038881862" lon="11.376010166338407"><ele>221.0</ele><time>2026-04-08T15:25:16.999Z</time></trkpt><trkpt lat="43.32050055189358" lon="11.375845282127464"><ele>221.0</ele><time>2026-04-08T15:25:17.999Z</time></trkpt><trkpt lat="43.320505866434225" lon="11.375685856218473"><ele>221.00000000000003</ele><time>2026-04-08T15:25:18.999Z</time></trkpt><trkpt lat="43.32048914032546" lon="11.375575310015257"><ele>221.00000000000003</ele><time>2026-04-08T15:25:19.999Z</time></trkpt><trkpt lat="43.32046232493654" lon="11.375462180447276"><ele>221.0</ele><time>2026-04-08T15:25:20.999Z</time></trkpt><trkpt lat="43.32036923851761" lon="11.37533534927531"><ele>221.0</ele><time>2026-04-08T15:25:21.999Z</time></trkpt><trkpt lat="43.32028591378032" lon="11.375189658158456"><ele>221.0</ele><time>2026-04-08T15:25:22.999Z</time></trkpt><trkpt lat="43.32023589554716" lon="11.375100387560163"><ele>221.00000000000003</ele><time>2026-04-08T15:25:23.999Z</time></trkpt><trkpt lat="43.32020913358997" lon="11.374991914786444"><ele>221.00000000000003</ele><time>2026-04-08T15:25:24.999Z</time></trkpt><trkpt lat="43.320220410404154" lon="11.374858725064716"><ele>221.0</ele><time>2026-04-08T15:25:25.999Z</time></trkpt><trkpt lat="43.32026637790104" lon="11.374694873589172"><ele>221.0</ele><time>2026-04-08T15:25:26.999Z</time></trkpt><trkpt lat="43.32032370057253" lon="11.374499523593146"><ele>221.0</ele><time>2026-04-08T15:25:27.999Z</time></trkpt><trkpt lat="43.32037855596798" lon="11.374279877256093"><ele>221.0</ele><time>2026-04-08T15:25:29Z</time></trkpt><trkpt lat="43.320441586886815" lon="11.374064565069453"><ele>221.0</ele><time>2026-04-08T15:25:30Z</time></trkpt><trkpt lat="43.32050877004919" lon="11.373843183963738"><ele>223.0</ele><time>2026-04-08T15:25:31Z</time></trkpt><trkpt lat="43.32057770258353" lon="11.373664359769743"><ele>225.0</ele><time>2026-04-08T15:25:32Z</time></trkpt><trkpt lat="43.32064745286094" lon="11.373510769114151"><ele>227.0</ele><time>2026-04-08T15:25:33Z</time></trkpt><trkpt lat="43.32072249874081" lon="11.37335792165416"><ele>229.0</ele><time>2026-04-08T15:25:34Z</time></trkpt><trkpt lat="43.32080220103994" lon="11.373189988437803"><ele>229.0</ele><time>2026-04-08T15:25:35Z</time></trkpt><trkpt lat="43.32086960491989" lon="11.373055776383545"><ele>228.99999999999997</ele><time>2026-04-08T15:25:36Z</time></trkpt><trkpt lat="43.32092659765664" lon="11.372949668584273"><ele>228.99999999999997</ele><time>2026-04-08T15:25:37Z</time></trkpt><trkpt lat="43.32097210036137" lon="11.37285180475528"><ele>229.0</ele><time>2026-04-08T15:25:38Z</time></trkpt><trkpt lat="43.321008803210546" lon="11.372732262402327"><ele>229.0</ele><time>2026-04-08T15:25:39Z</time></trkpt><trkpt lat="43.32104051348697" lon="11.372589744008012"><ele>231.25</ele><time>2026-04-08T15:25:40Z</time></trkpt><trkpt lat="43.3210705056673" lon="11.372418833304852"><ele>233.5</ele><time>2026-04-08T15:25:41Z</time></trkpt><trkpt lat="43.32110001735754" lon="11.372219519141309"><ele>235.75</ele><time>2026-04-08T15:25:42Z</time></trkpt><trkpt lat="43.32113347277267" lon="11.37201205882417"><ele>238.0</ele><time>2026-04-08T15:25:43Z</time></trkpt><trkpt lat="43.32117363507969" lon="11.371822738605504"><ele>240.25</ele><time>2026-04-08T15:25:44Z</time></trkpt><trkpt lat="43.32117796877748" lon="11.371675044428713"><ele>242.5</ele><time>2026-04-08T15:25:45Z</time></trkpt><trkpt lat="43.32119172812002" lon="11.371490383393526"><ele>244.75</ele><time>2026-04-08T15:25:46Z</time></trkpt><trkpt lat="43.32121176138747" lon="11.37130527171834"><ele>247.0</ele><time>2026-04-08T15:25:47Z</time></trkpt><trkpt lat="43.32123661517495" lon="11.371136847639065"><ele>246.5</ele><time>2026-04-08T15:25:48Z</time></trkpt><trkpt lat="43.321276625905014" lon="11.37095503309945"><ele>246.0</ele><time>2026-04-08T15:25:49Z</time></trkpt><trkpt lat="43.3213313852916" lon="11.3707742080021"><ele>245.5</ele><time>2026-04-08T15:25:50Z</time></trkpt><trkpt lat="43.321402270088434" lon="11.370607828476118"><ele>245.0</ele><time>2026-04-08T15:25:51Z</time></trkpt><trkpt lat="43.32148352316874" lon="11.370441791323374"><ele>246.75</ele><time>2026-04-08T15:25:52Z</time></trkpt><trkpt lat="43.32157111717319" lon="11.37027297432279"><ele>248.5</ele><time>2026-04-08T15:25:53Z</time></trkpt><trkpt lat="43.32165874685121" lon="11.370102477567487"><ele>250.25</ele><time>2026-04-08T15:25:54Z</time></trkpt><trkpt lat="43.32173949062303" lon="11.369945648953278"><ele>252.0</ele><time>2026-04-08T15:25:55Z</time></trkpt><trkpt lat="43.32180975500741" lon="11.369809361826697"><ele>253.8</ele><time>2026-04-08T15:25:56Z</time></trkpt><trkpt lat="43.32187548938522" lon="11.369674627780295"><ele>255.6</ele><time>2026-04-08T15:25:57Z</time></trkpt><trkpt lat="43.3219340791861" lon="11.369551682165383"><ele>257.40000000000003</ele><time>2026-04-08T15:25:58Z</time></trkpt><trkpt lat="43.32198489625745" lon="11.369455486030155"><ele>259.2</ele><time>2026-04-08T15:25:59Z</time></trkpt><trkpt lat="43.3220210548925" lon="11.369382579372655"><ele>261.0</ele><time>2026-04-08T15:26:00Z</time></trkpt><trkpt lat="43.32202697414992" lon="11.369259489122218"><ele>261.0</ele><time>2026-04-08T15:26:02Z</time></trkpt><trkpt lat="43.32194538961236" lon="11.369132422330432"><ele>261.0</ele><time>2026-04-08T15:26:04Z</time></trkpt><trkpt lat="43.32185134139186" lon="11.369142194098735"><ele>261.0</ele><time>2026-04-08T15:26:05Z</time></trkpt><trkpt lat="43.321763098059115" lon="11.369225632247085"><ele>261.0</ele><time>2026-04-08T15:26:06Z</time></trkpt><trkpt lat="43.321674135116226" lon="11.369333324730295"><ele>261.0</ele><time>2026-04-08T15:26:07Z</time></trkpt><trkpt lat="43.3215913233359" lon="11.369399078326493"><ele>261.0</ele><time>2026-04-08T15:26:08Z</time></trkpt><trkpt lat="43.32152091996254" lon="11.369431036551616"><ele>261.0</ele><time>2026-04-08T15:26:09Z</time></trkpt><trkpt lat="43.321442572561814" lon="11.369411709552208"><ele>261.0</ele><time>2026-04-08T15:26:10Z</time></trkpt><trkpt lat="43.321369638078444" lon="11.369365807051892"><ele>261.0</ele><time>2026-04-08T15:26:11Z</time></trkpt><trkpt lat="43.321288374071344" lon="11.369278474213898"><ele>261.0</ele><time>2026-04-08T15:26:12Z</time></trkpt><trkpt lat="43.32118720340834" lon="11.369185457201562"><ele>261.40000000000003</ele><time>2026-04-08T15:26:13Z</time></trkpt><trkpt lat="43.321085447657396" lon="11.369068809889031"><ele>261.8</ele><time>2026-04-08T15:26:14Z</time></trkpt><trkpt lat="43.32100239763027" lon="11.368972295419123"><ele>262.20000000000005</ele><time>2026-04-08T15:26:15Z</time></trkpt><trkpt lat="43.32095599869301" lon="11.368894691578381"><ele>262.6</ele><time>2026-04-08T15:26:16Z</time></trkpt><trkpt lat="43.32095130773945" lon="11.368748948696782"><ele>263.0</ele><time>2026-04-08T15:26:18Z</time></trkpt><trkpt lat="43.3209740893768" lon="11.368651425803662"><ele>263.0</ele><time>2026-04-08T15:26:19Z</time></trkpt><trkpt lat="43.321013090133185" lon="11.368531353971305"><ele>263.0</ele><time>2026-04-08T15:26:20Z</time></trkpt><trkpt lat="43.32105763130753" lon="11.3683881534093"><ele>263.0</ele><time>2026-04-08T15:26:21Z</time></trkpt><trkpt lat="43.32108722613357" lon="11.368252340612617"><ele>263.0</ele><time>2026-04-08T15:26:22Z</time></trkpt><trkpt lat="43.32109794378835" lon="11.368098589875236"><ele>263.0</ele><time>2026-04-08T15:26:23Z</time></trkpt><trkpt lat="43.32110351233026" lon="11.367938618994884"><ele>264.0</ele><time>2026-04-08T15:26:24Z</time></trkpt><trkpt lat="43.32110961175841" lon="11.367770740700053"><ele>265.0</ele><time>2026-04-08T15:26:25Z</time></trkpt><trkpt lat="43.32111338374858" lon="11.367589230878636"><ele>266.0</ele><time>2026-04-08T15:26:26Z</time></trkpt><trkpt lat="43.32112144301821" lon="11.367426036679134"><ele>267.0</ele><time>2026-04-08T15:26:27Z</time></trkpt><trkpt lat="43.32112596282951" lon="11.367278532037108"><ele>268.0</ele><time>2026-04-08T15:26:28Z</time></trkpt><trkpt lat="43.32112587074667" lon="11.367125068332706"><ele>269.0</ele><time>2026-04-08T15:26:29Z</time></trkpt><trkpt lat="43.32112426506534" lon="11.366975884340091"><ele>270.0</ele><time>2026-04-08T15:26:30Z</time></trkpt><trkpt lat="43.32112812608019" lon="11.366813797551057"><ele>271.0</ele><time>2026-04-08T15:26:31Z</time></trkpt><trkpt lat="43.32112380308016" lon="11.366651562004943"><ele>271.0</ele><time>2026-04-08T15:26:32Z</time></trkpt><trkpt lat="43.32110183516614" lon="11.366479447726407"><ele>271.0</ele><time>2026-04-08T15:26:33Z</time></trkpt><trkpt lat="43.32107328408425" lon="11.366321347677598"><ele>271.0</ele><time>2026-04-08T15:26:34Z</time></trkpt><trkpt lat="43.32105156944458" lon="11.366183171880788"><ele>271.0</ele><time>2026-04-08T15:26:34.999Z</time></trkpt><trkpt lat="43.321031526412355" lon="11.366051260431641"><ele>271.0</ele><time>2026-04-08T15:26:35.999Z</time></trkpt><trkpt lat="43.32100688252837" lon="11.365907106666246"><ele>271.0</ele><time>2026-04-08T15:26:36.999Z</time></trkpt><trkpt lat="43.320977297709774" lon="11.365764239029291"><ele>271.0</ele><time>2026-04-08T15:26:37.999Z</time></trkpt><trkpt lat="43.320933207592724" lon="11.365613364854118"><ele>271.0</ele><time>2026-04-08T15:26:38.999Z</time></trkpt><trkpt lat="43.320879650791376" lon="11.36546046957276"><ele>271.0</ele><time>2026-04-08T15:26:39.999Z</time></trkpt><trkpt lat="43.320826583387344" lon="11.36532116634867"><ele>271.16666666666663</ele><time>2026-04-08T15:26:40.999Z</time></trkpt><trkpt lat="43.32077898416062" lon="11.365192987751094"><ele>271.3333333333333</ele><time>2026-04-08T15:26:41.999Z</time></trkpt><trkpt lat="43.320733104630776" lon="11.365081699982076"><ele>271.5</ele><time>2026-04-08T15:26:42.999Z</time></trkpt><trkpt lat="43.3206907941287" lon="11.364981602781024"><ele>271.6666666666667</ele><time>2026-04-08T15:26:43.999Z</time></trkpt><trkpt lat="43.32065293001543" lon="11.364908002418822"><ele>271.83333333333337</ele><time>2026-04-08T15:26:44.999Z</time></trkpt><trkpt lat="43.32061468705505" lon="11.364827907514213"><ele>272.0</ele><time>2026-04-08T15:26:45.999Z</time></trkpt><trkpt lat="43.32057547759008" lon="11.364750315149017"><ele>272.4</ele><time>2026-04-08T15:26:46.999Z</time></trkpt><trkpt lat="43.320532091071975" lon="11.364670037331898"><ele>272.79999999999995</ele><time>2026-04-08T15:26:47.999Z</time></trkpt><trkpt lat="43.32048939815134" lon="11.364595862952108"><ele>273.2</ele><time>2026-04-08T15:26:48.999Z</time></trkpt><trkpt lat="43.320443269226914" lon="11.364520968874922"><ele>273.59999999999997</ele><time>2026-04-08T15:26:49.999Z</time></trkpt><trkpt lat="43.32037132268751" lon="11.364390708649681"><ele>274.0</ele><time>2026-04-08T15:26:51.999Z</time></trkpt><trkpt lat="43.32028794607594" lon="11.364244747335402"><ele>274.0</ele><time>2026-04-08T15:26:53.999Z</time></trkpt><trkpt lat="43.3202337054705" lon="11.364187087860381"><ele>274.0</ele><time>2026-04-08T15:26:54.999Z</time></trkpt><trkpt lat="43.32018163993879" lon="11.364090599596894"><ele>274.0</ele><time>2026-04-08T15:26:55.999Z</time></trkpt><trkpt lat="43.32012469118371" lon="11.363990921599333"><ele>274.0</ele><time>2026-04-08T15:26:56.999Z</time></trkpt><trkpt lat="43.3200576341873" lon="11.363896713024308"><ele>274.0</ele><time>2026-04-08T15:26:57.999Z</time></trkpt><trkpt lat="43.3200030309445" lon="11.363796166779016"><ele>274.0</ele><time>2026-04-08T15:26:58.999Z</time></trkpt><trkpt lat="43.31995512024014" lon="11.363718551007405"><ele>274.59999999999997</ele><time>2026-04-08T15:26:59.999Z</time></trkpt><trkpt lat="43.31990617047558" lon="11.363646769758939"><ele>275.2</ele><time>2026-04-08T15:27:00.999Z</time></trkpt><trkpt lat="43.319822511338536" lon="11.363525181003917"><ele>275.79999999999995</ele><time>2026-04-08T15:27:02.999Z</time></trkpt><trkpt lat="43.319724423487564" lon="11.36341326768321"><ele>276.4</ele><time>2026-04-08T15:27:04.999Z</time></trkpt><trkpt lat="43.3196754079693" lon="11.363357430866348"><ele>277.0</ele><time>2026-04-08T15:27:05.999Z</time></trkpt><trkpt lat="43.31962584317026" lon="11.363292847981967"><ele>277.0</ele><time>2026-04-08T15:27:06.999Z</time></trkpt><trkpt lat="43.31958008156898" lon="11.363224262787572"><ele>277.0</ele><time>2026-04-08T15:27:07.999Z</time></trkpt><trkpt lat="43.3195410363468" lon="11.363144928487808"><ele>277.0</ele><time>2026-04-08T15:27:08.999Z</time></trkpt><trkpt lat="43.31950950541655" lon="11.363068572213267"><ele>277.0</ele><time>2026-04-08T15:27:09.999Z</time></trkpt><trkpt lat="43.31945939047793" lon="11.362932142244192"><ele>277.0</ele><time>2026-04-08T15:27:11.999Z</time></trkpt><trkpt lat="43.31943408628904" lon="11.36283275873665"><ele>277.0</ele><time>2026-04-08T15:27:12.999Z</time></trkpt><trkpt lat="43.3194208018204" lon="11.362741646479764"><ele>275.6</ele><time>2026-04-08T15:27:13.999Z</time></trkpt><trkpt lat="43.31939530971065" lon="11.36266001859357"><ele>274.2</ele><time>2026-04-08T15:27:14.999Z</time></trkpt><trkpt lat="43.31932501212026" lon="11.362530993088207"><ele>272.8</ele><time>2026-04-08T15:27:16.999Z</time></trkpt><trkpt lat="43.31924669778519" lon="11.362397781207628"><ele>271.4</ele><time>2026-04-08T15:27:18.999Z</time></trkpt><trkpt lat="43.319191141716345" lon="11.362313189966065"><ele>270.0</ele><time>2026-04-08T15:27:19.999Z</time></trkpt><trkpt lat="43.31913771756002" lon="11.36222983370935"><ele>269.3333333333333</ele><time>2026-04-08T15:27:20.999Z</time></trkpt><trkpt lat="43.319070908420606" lon="11.362155467978509"><ele>268.6666666666667</ele><time>2026-04-08T15:27:21.999Z</time></trkpt><trkpt lat="43.31901315906764" lon="11.362059928254528"><ele>268.0</ele><time>2026-04-08T15:27:22.999Z</time></trkpt><trkpt lat="43.31896637023579" lon="11.361978742103927"><ele>267.33333333333337</ele><time>2026-04-08T15:27:23.999Z</time></trkpt><trkpt lat="43.318912952905364" lon="11.361898313407025"><ele>266.6666666666667</ele><time>2026-04-08T15:27:24.999Z</time></trkpt><trkpt lat="43.31885699478629" lon="11.361808198445667"><ele>266.0</ele><time>2026-04-08T15:27:25.999Z</time></trkpt><trkpt lat="43.318794977573646" lon="11.361692503217258"><ele>266.0</ele><time>2026-04-08T15:27:26.999Z</time></trkpt><trkpt lat="43.318744580753574" lon="11.361584291653095"><ele>266.0</ele><time>2026-04-08T15:27:27.999Z</time></trkpt><trkpt lat="43.31869726807571" lon="11.361470193213364"><ele>266.0</ele><time>2026-04-08T15:27:28.999Z</time></trkpt><trkpt lat="43.318658675726255" lon="11.36136404604906"><ele>266.0</ele><time>2026-04-08T15:27:29.999Z</time></trkpt><trkpt lat="43.31862631956536" lon="11.36127075649905"><ele>266.0</ele><time>2026-04-08T15:27:30.999Z</time></trkpt><trkpt lat="43.318600392555275" lon="11.361174598879435"><ele>266.0</ele><time>2026-04-08T15:27:31.999Z</time></trkpt><trkpt lat="43.31857039522993" lon="11.361068670379751"><ele>264.6666666666667</ele><time>2026-04-08T15:27:32.999Z</time></trkpt><trkpt lat="43.31852726813264" lon="11.360955714969196"><ele>263.33333333333337</ele><time>2026-04-08T15:27:33.999Z</time></trkpt><trkpt lat="43.31848116862824" lon="11.360855997093122"><ele>262.0</ele><time>2026-04-08T15:27:35Z</time></trkpt><trkpt lat="43.31843362587799" lon="11.360759589812027"><ele>260.6666666666667</ele><time>2026-04-08T15:27:36Z</time></trkpt><trkpt lat="43.318386812077456" lon="11.360654800402461"><ele>259.3333333333333</ele><time>2026-04-08T15:27:37Z</time></trkpt><trkpt lat="43.31834270511464" lon="11.360552691648083"><ele>258.0</ele><time>2026-04-08T15:27:38Z</time></trkpt><trkpt lat="43.318301765883184" lon="11.360453008366576"><ele>256.8333333333333</ele><time>2026-04-08T15:27:39Z</time></trkpt><trkpt lat="43.318263633531345" lon="11.36037260068984"><ele>255.66666666666669</ele><time>2026-04-08T15:27:40Z</time></trkpt><trkpt lat="43.31822883370444" lon="11.36029123250465"><ele>254.5</ele><time>2026-04-08T15:27:41Z</time></trkpt><trkpt lat="43.318169530653016" lon="11.360170681747944"><ele>253.33333333333334</ele><time>2026-04-08T15:27:43Z</time></trkpt><trkpt lat="43.31809165202229" lon="11.360046215115704"><ele>252.16666666666669</ele><time>2026-04-08T15:27:45Z</time></trkpt><trkpt lat="43.318038346784306" lon="11.359968210072228"><ele>251.0</ele><time>2026-04-08T15:27:46Z</time></trkpt><trkpt lat="43.317979778854095" lon="11.359875917650335"><ele>251.00000000000003</ele><time>2026-04-08T15:27:47Z</time></trkpt><trkpt lat="43.31791602321949" lon="11.359761569259335"><ele>251.0</ele><time>2026-04-08T15:27:48Z</time></trkpt><trkpt lat="43.31786361537847" lon="11.359637533377084"><ele>251.0</ele><time>2026-04-08T15:27:49Z</time></trkpt><trkpt lat="43.31782904639417" lon="11.35952765993745"><ele>251.0</ele><time>2026-04-08T15:27:50Z</time></trkpt><trkpt lat="43.317801990880525" lon="11.359433092428453"><ele>251.00000000000003</ele><time>2026-04-08T15:27:51Z</time></trkpt><trkpt lat="43.31778349069452" lon="11.359332350236988"><ele>251.0</ele><time>2026-04-08T15:27:52Z</time></trkpt><trkpt lat="43.317761026751654" lon="11.359206980772155"><ele>249.33333333333334</ele><time>2026-04-08T15:27:53Z</time></trkpt><trkpt lat="43.31773885210116" lon="11.35908859256089"><ele>247.66666666666669</ele><time>2026-04-08T15:27:54Z</time></trkpt><trkpt lat="43.31771690104853" lon="11.358986238128153"><ele>246.0</ele><time>2026-04-08T15:27:55Z</time></trkpt><trkpt lat="43.31769380571188" lon="11.35889299234957"><ele>244.33333333333331</ele><time>2026-04-08T15:27:56Z</time></trkpt><trkpt lat="43.317661885706" lon="11.358787997167841"><ele>242.66666666666666</ele><time>2026-04-08T15:27:57Z</time></trkpt><trkpt lat="43.31761311690317" lon="11.358689002340364"><ele>241.0</ele><time>2026-04-08T15:27:58Z</time></trkpt><trkpt lat="43.31756021137716" lon="11.358597661257074"><ele>240.33333333333331</ele><time>2026-04-08T15:27:59Z</time></trkpt><trkpt lat="43.317505303396274" lon="11.358497344804979"><ele>239.66666666666666</ele><time>2026-04-08T15:28:00Z</time></trkpt><trkpt lat="43.31743738168596" lon="11.358427174464339"><ele>239.0</ele><time>2026-04-08T15:28:01Z</time></trkpt><trkpt lat="43.317360566920705" lon="11.358372505897185"><ele>238.33333333333331</ele><time>2026-04-08T15:28:02Z</time></trkpt><trkpt lat="43.31728484612182" lon="11.35833976166215"><ele>237.66666666666666</ele><time>2026-04-08T15:28:03Z</time></trkpt><trkpt lat="43.31721061535006" lon="11.358316056054186"><ele>237.0</ele><time>2026-04-08T15:28:04Z</time></trkpt><trkpt lat="43.31712970251228" lon="11.358306077253895"><ele>235.83333333333334</ele><time>2026-04-08T15:28:05Z</time></trkpt><trkpt lat="43.31704116040224" lon="11.358305012609081"><ele>234.66666666666669</ele><time>2026-04-08T15:28:06Z</time></trkpt><trkpt lat="43.3169607726621" lon="11.358298899465426"><ele>233.5</ele><time>2026-04-08T15:28:07Z</time></trkpt><trkpt lat="43.316882284153266" lon="11.35828890183362"><ele>232.33333333333334</ele><time>2026-04-08T15:28:08Z</time></trkpt><trkpt lat="43.31680765453627" lon="11.358291759089921"><ele>231.16666666666669</ele><time>2026-04-08T15:28:09Z</time></trkpt><trkpt lat="43.31673951271277" lon="11.358250662746546"><ele>230.0</ele><time>2026-04-08T15:28:10Z</time></trkpt><trkpt lat="43.3166809836107" lon="11.358193890624035"><ele>230.00000000000003</ele><time>2026-04-08T15:28:11Z</time></trkpt><trkpt lat="43.31662723449403" lon="11.358124595016935"><ele>230.0</ele><time>2026-04-08T15:28:12Z</time></trkpt><trkpt lat="43.31657404052579" lon="11.358047211110991"><ele>230.0</ele><time>2026-04-08T15:28:13Z</time></trkpt><trkpt lat="43.31652184762179" lon="11.35795881744883"><ele>230.0</ele><time>2026-04-08T15:28:14Z</time></trkpt><trkpt lat="43.31646985892181" lon="11.357865921008782"><ele>230.00000000000003</ele><time>2026-04-08T15:28:15Z</time></trkpt><trkpt lat="43.31641291240515" lon="11.357767680986163"><ele>230.0</ele><time>2026-04-08T15:28:16Z</time></trkpt><trkpt lat="43.31635734624064" lon="11.357683962086808"><ele>229.50000000000003</ele><time>2026-04-08T15:28:17Z</time></trkpt><trkpt lat="43.31630140305136" lon="11.357608773481047"><ele>229.0</ele><time>2026-04-08T15:28:18Z</time></trkpt><trkpt lat="43.31624525993392" lon="11.357523237416794"><ele>228.5</ele><time>2026-04-08T15:28:19Z</time></trkpt><trkpt lat="43.316191113842955" lon="11.357432785739775"><ele>228.0</ele><time>2026-04-08T15:28:20Z</time></trkpt><trkpt lat="43.31614538580179" lon="11.35730981094932"><ele>227.50000000000003</ele><time>2026-04-08T15:28:21Z</time></trkpt><trkpt lat="43.31611226202779" lon="11.357193482821268"><ele>227.0</ele><time>2026-04-08T15:28:22Z</time></trkpt><trkpt lat="43.316089496662975" lon="11.357091706034563"><ele>226.83333333333334</ele><time>2026-04-08T15:28:23Z</time></trkpt><trkpt lat="43.31607260122257" lon="11.356991813259876"><ele>226.66666666666669</ele><time>2026-04-08T15:28:24Z</time></trkpt><trkpt lat="43.3160616955816" lon="11.356889462722501"><ele>226.5</ele><time>2026-04-08T15:28:25Z</time></trkpt><trkpt lat="43.31605644227761" lon="11.356792601038984"><ele>226.33333333333331</ele><time>2026-04-08T15:28:26Z</time></trkpt><trkpt lat="43.31605722047821" lon="11.35668925111049"><ele>226.16666666666666</ele><time>2026-04-08T15:28:27Z</time></trkpt><trkpt lat="43.316050616083984" lon="11.356526611244176"><ele>226.0</ele><time>2026-04-08T15:28:29Z</time></trkpt><trkpt lat="43.316051941641355" lon="11.356389335315155"><ele>225.85714285714286</ele><time>2026-04-08T15:28:31Z</time></trkpt><trkpt lat="43.31603728952833" lon="11.356301847221882"><ele>225.71428571428572</ele><time>2026-04-08T15:28:34Z</time></trkpt><trkpt lat="43.31606240945497" lon="11.356199187138671"><ele>225.57142857142858</ele><time>2026-04-08T15:30:31Z</time></trkpt><trkpt lat="43.31607347813242" lon="11.356104886777526"><ele>225.42857142857144</ele><time>2026-04-08T15:30:39Z</time></trkpt><trkpt lat="43.31610872024189" lon="11.356032192152604"><ele>225.28571428571428</ele><time>2026-04-08T15:30:44Z</time></trkpt><trkpt lat="43.31615091811889" lon="11.355955732917808"><ele>225.14285714285717</ele><time>2026-04-08T15:30:46.999Z</time></trkpt><trkpt lat="43.31619918134508" lon="11.355859903990687"><ele>225.00000000000003</ele><time>2026-04-08T15:30:49.999Z</time></trkpt><trkpt lat="43.31625041911661" lon="11.35578136749075"><ele>225.0</ele><time>2026-04-08T15:30:51.999Z</time></trkpt><trkpt lat="43.31630432871101" lon="11.355700381195955"><ele>225.0</ele><time>2026-04-08T15:30:53.999Z</time></trkpt><trkpt lat="43.31636830858539" lon="11.355605410148792"><ele>225.0</ele><time>2026-04-08T15:30:55.999Z</time></trkpt><trkpt lat="43.31641162897356" lon="11.35550048145813"><ele>225.0</ele><time>2026-04-08T15:30:57.999Z</time></trkpt><trkpt lat="43.31640124463092" lon="11.355381965513661"><ele>225.0</ele><time>2026-04-08T15:30:59.999Z</time></trkpt><trkpt lat="43.3163895487705" lon="11.3552932841077"><ele>225.0</ele><time>2026-04-08T15:31:01.999Z</time></trkpt><trkpt lat="43.31630790278079" lon="11.355261012740279"><ele>225.4</ele><time>2026-04-08T15:31:02.999Z</time></trkpt><trkpt lat="43.3162049486185" lon="11.355220080685937"><ele>225.8</ele><time>2026-04-08T15:31:04.999Z</time></trkpt><trkpt lat="43.31613587622669" lon="11.355197418467643"><ele>226.2</ele><time>2026-04-08T15:31:06.999Z</time></trkpt><trkpt lat="43.31605174916175" lon="11.355135254296023"><ele>226.6</ele><time>2026-04-08T15:31:08.999Z</time></trkpt><trkpt lat="43.31597809945429" lon="11.354999271070415"><ele>227.0</ele><time>2026-04-08T15:31:10.999Z</time></trkpt><trkpt lat="43.31594721408444" lon="11.35490947147508"><ele>227.00000000000003</ele><time>2026-04-08T15:31:11.999Z</time></trkpt><trkpt lat="43.315923714835115" lon="11.354823342974338"><ele>227.0</ele><time>2026-04-08T15:31:12.999Z</time></trkpt><trkpt lat="43.31588597993983" lon="11.354668320937522"><ele>227.0</ele><time>2026-04-08T15:31:14.999Z</time></trkpt><trkpt lat="43.315863139772915" lon="11.354578296772356"><ele>227.0</ele><time>2026-04-08T15:31:15.999Z</time></trkpt><trkpt lat="43.315835224756924" lon="11.354476132925424"><ele>227.00000000000003</ele><time>2026-04-08T15:31:16.999Z</time></trkpt><trkpt lat="43.31580133936094" lon="11.35435855962451"><ele>227.0</ele><time>2026-04-08T15:31:17.999Z</time></trkpt><trkpt lat="43.315769894905316" lon="11.354250414597804"><ele>227.8</ele><time>2026-04-08T15:31:18.999Z</time></trkpt><trkpt lat="43.315744094099344" lon="11.35415489399767"><ele>228.6</ele><time>2026-04-08T15:31:19.999Z</time></trkpt><trkpt lat="43.31571485291823" lon="11.35405285494622"><ele>229.40000000000003</ele><time>2026-04-08T15:31:20.999Z</time></trkpt><trkpt lat="43.315681638334716" lon="11.353937747477316"><ele>230.20000000000002</ele><time>2026-04-08T15:31:21.999Z</time></trkpt><trkpt lat="43.31564584695352" lon="11.353798016902095"><ele>231.0</ele><time>2026-04-08T15:31:22.999Z</time></trkpt><trkpt lat="43.31561163605186" lon="11.353656460361757"><ele>231.60000000000002</ele><time>2026-04-08T15:31:23.999Z</time></trkpt><trkpt lat="43.31557260755906" lon="11.353509974471535"><ele>232.20000000000002</ele><time>2026-04-08T15:31:24.999Z</time></trkpt><trkpt lat="43.315532298203" lon="11.353355704824438"><ele>232.79999999999998</ele><time>2026-04-08T15:31:25.999Z</time></trkpt><trkpt lat="43.31549665798149" lon="11.35322681116987"><ele>233.39999999999998</ele><time>2026-04-08T15:31:26.999Z</time></trkpt><trkpt lat="43.31545818735496" lon="11.353093462352943"><ele>234.0</ele><time>2026-04-08T15:31:27.999Z</time></trkpt><trkpt lat="43.31541908760115" lon="11.352952404547803"><ele>234.75</ele><time>2026-04-08T15:31:28.999Z</time></trkpt><trkpt lat="43.31537990549999" lon="11.352795256613424"><ele>235.5</ele><time>2026-04-08T15:31:29.999Z</time></trkpt><trkpt lat="43.31533566993164" lon="11.352633149625436"><ele>236.25</ele><time>2026-04-08T15:31:30.999Z</time></trkpt><trkpt lat="43.315296337324796" lon="11.352483649752243"><ele>237.0</ele><time>2026-04-08T15:31:31.999Z</time></trkpt><trkpt lat="43.315262059200066" lon="11.352342486947245"><ele>238.75</ele><time>2026-04-08T15:31:32.999Z</time></trkpt><trkpt lat="43.31522619793605" lon="11.352196242030324"><ele>240.5</ele><time>2026-04-08T15:31:33.999Z</time></trkpt><trkpt lat="43.31518633154444" lon="11.35204568344363"><ele>242.25</ele><time>2026-04-08T15:31:34.999Z</time></trkpt><trkpt lat="43.315139432430975" lon="11.351897884288807"><ele>244.0</ele><time>2026-04-08T15:31:35.999Z</time></trkpt><trkpt lat="43.315084581563795" lon="11.351747599483351"><ele>244.0</ele><time>2026-04-08T15:31:36.999Z</time></trkpt><trkpt lat="43.315022346458264" lon="11.351600976870731"><ele>244.0</ele><time>2026-04-08T15:31:37.999Z</time></trkpt><trkpt lat="43.31496574775063" lon="11.3514726982509"><ele>244.0</ele><time>2026-04-08T15:31:38.999Z</time></trkpt><trkpt lat="43.31490650424916" lon="11.35134673640942"><ele>244.0</ele><time>2026-04-08T15:31:39.999Z</time></trkpt><trkpt lat="43.31484186097198" lon="11.35122342064902"><ele>243.79999999999998</ele><time>2026-04-08T15:31:40.999Z</time></trkpt><trkpt lat="43.31477419655127" lon="11.351109241541126"><ele>243.59999999999997</ele><time>2026-04-08T15:31:41.999Z</time></trkpt><trkpt lat="43.31470809015645" lon="11.351002493459992"><ele>243.4</ele><time>2026-04-08T15:31:42.999Z</time></trkpt><trkpt lat="43.31465835884604" lon="11.350909034004466"><ele>243.2</ele><time>2026-04-08T15:31:43.999Z</time></trkpt><trkpt lat="43.31460583877229" lon="11.350836579743714"><ele>243.0</ele><time>2026-04-08T15:31:44.999Z</time></trkpt><trkpt lat="43.3145446741397" lon="11.350745145649782"><ele>243.0</ele><time>2026-04-08T15:31:45.999Z</time></trkpt><trkpt lat="43.31447333305563" lon="11.350665510553611"><ele>243.0</ele><time>2026-04-08T15:31:47Z</time></trkpt><trkpt lat="43.31438715048284" lon="11.35049349996322"><ele>243.0</ele><time>2026-04-08T15:31:48Z</time></trkpt><trkpt lat="43.31435870337963" lon="11.350369805816221"><ele>243.0</ele><time>2026-04-08T15:31:49Z</time></trkpt><trkpt lat="43.31435981045179" lon="11.350236357237327"><ele>243.0</ele><time>2026-04-08T15:31:50Z</time></trkpt><trkpt lat="43.31437832135377" lon="11.350108944665061"><ele>243.5</ele><time>2026-04-08T15:31:51Z</time></trkpt><trkpt lat="43.31441014281807" lon="11.350016486967169"><ele>244.0</ele><time>2026-04-08T15:31:52Z</time></trkpt><trkpt lat="43.31445718018534" lon="11.349929433969583"><ele>244.5</ele><time>2026-04-08T15:31:53Z</time></trkpt><trkpt lat="43.314544305593735" lon="11.349876893427629"><ele>245.0</ele><time>2026-04-08T15:31:54Z</time></trkpt><trkpt lat="43.31462765568028" lon="11.349877940103237"><ele>245.5</ele><time>2026-04-08T15:31:55Z</time></trkpt><trkpt lat="43.31472471897322" lon="11.349866952940243"><ele>246.0</ele><time>2026-04-08T15:31:56Z</time></trkpt><trkpt lat="43.31483423459051" lon="11.349832353133113"><ele>248.5</ele><time>2026-04-08T15:31:57Z</time></trkpt><trkpt lat="43.31494780556228" lon="11.349806184516883"><ele>251.0</ele><time>2026-04-08T15:31:58Z</time></trkpt><trkpt lat="43.31502522814494" lon="11.349753654301676"><ele>253.5</ele><time>2026-04-08T15:31:59Z</time></trkpt><trkpt lat="43.315087868993835" lon="11.349675482667985"><ele>256.0</ele><time>2026-04-08T15:32:00Z</time></trkpt><trkpt lat="43.31512597198759" lon="11.349579804302993"><ele>258.5</ele><time>2026-04-08T15:32:01Z</time></trkpt><trkpt lat="43.315149140953004" lon="11.349476618847262"><ele>261.0</ele><time>2026-04-08T15:32:02Z</time></trkpt><trkpt lat="43.31513235854453" lon="11.349352803444704"><ele>261.5</ele><time>2026-04-08T15:32:03Z</time></trkpt><trkpt lat="43.315110717244046" lon="11.349227551015925"><ele>262.0</ele><time>2026-04-08T15:32:04Z</time></trkpt><trkpt lat="43.31506672425974" lon="11.349106869744332"><ele>262.5</ele><time>2026-04-08T15:32:05Z</time></trkpt><trkpt lat="43.31500576878454" lon="11.349032485859203"><ele>263.0</ele><time>2026-04-08T15:32:06Z</time></trkpt><trkpt lat="43.314934088303424" lon="11.348977014948703"><ele>263.5</ele><time>2026-04-08T15:32:07Z</time></trkpt><trkpt lat="43.31484886202427" lon="11.348925816642732"><ele>264.0</ele><time>2026-04-08T15:32:08Z</time></trkpt><trkpt lat="43.31477011958191" lon="11.348861316423454"><ele>262.5</ele><time>2026-04-08T15:32:09Z</time></trkpt><trkpt lat="43.31470046179565" lon="11.348818383196447"><ele>261.0</ele><time>2026-04-08T15:32:10Z</time></trkpt><trkpt lat="43.3146259653214" lon="11.34876538302797"><ele>259.5</ele><time>2026-04-08T15:32:11Z</time></trkpt><trkpt lat="43.31459217678969" lon="11.348690110296998"><ele>258.0</ele><time>2026-04-08T15:32:12Z</time></trkpt><trkpt lat="43.31456150711431" lon="11.348519251974361"><ele>256.5</ele><time>2026-04-08T15:32:14Z</time></trkpt><trkpt lat="43.31455843644182" lon="11.348416035980396"><ele>255.0</ele><time>2026-04-08T15:32:15Z</time></trkpt><trkpt lat="43.31457551600204" lon="11.34827421120363"><ele>255.0</ele><time>2026-04-08T15:32:16Z</time></trkpt><trkpt lat="43.314612684412474" lon="11.348121034830244"><ele>255.0</ele><time>2026-04-08T15:32:17Z</time></trkpt><trkpt lat="43.3146639129906" lon="11.347996416254992"><ele>255.0</ele><time>2026-04-08T15:32:18Z</time></trkpt><trkpt lat="43.314711822796646" lon="11.347905733516457"><ele>255.0</ele><time>2026-04-08T15:32:19Z</time></trkpt><trkpt lat="43.31478190245321" lon="11.347782153723227"><ele>255.0</ele><time>2026-04-08T15:32:21Z</time></trkpt><trkpt lat="43.314827927802455" lon="11.347703532574592"><ele>257.6666666666667</ele><time>2026-04-08T15:32:22Z</time></trkpt><trkpt lat="43.31487197412439" lon="11.34763603901858"><ele>260.3333333333333</ele><time>2026-04-08T15:32:23Z</time></trkpt><trkpt lat="43.31491856062781" lon="11.347568952624176"><ele>263.0</ele><time>2026-04-08T15:32:24Z</time></trkpt><trkpt lat="43.31496498059446" lon="11.347482327019552"><ele>265.66666666666663</ele><time>2026-04-08T15:32:25Z</time></trkpt><trkpt lat="43.31501474008235" lon="11.347410599559076"><ele>268.3333333333333</ele><time>2026-04-08T15:32:26Z</time></trkpt><trkpt lat="43.315064129665835" lon="11.347326606313898"><ele>271.0</ele><time>2026-04-08T15:32:27Z</time></trkpt><trkpt lat="43.31511956940176" lon="11.347219647972391"><ele>270.5</ele><time>2026-04-08T15:32:28Z</time></trkpt><trkpt lat="43.31517589507243" lon="11.347143942918075"><ele>270.0</ele><time>2026-04-08T15:32:29Z</time></trkpt><trkpt lat="43.31521877131873" lon="11.3470589188258"><ele>269.5</ele><time>2026-04-08T15:32:30Z</time></trkpt><trkpt lat="43.31526184750249" lon="11.346965727360583"><ele>269.0</ele><time>2026-04-08T15:32:31Z</time></trkpt><trkpt lat="43.31531504119805" lon="11.346881810653102"><ele>268.5</ele><time>2026-04-08T15:32:32Z</time></trkpt><trkpt lat="43.315367366702986" lon="11.346803175964467"><ele>268.0</ele><time>2026-04-08T15:32:33Z</time></trkpt><trkpt lat="43.31544395107129" lon="11.346669027990686"><ele>268.0</ele><time>2026-04-08T15:32:35Z</time></trkpt><trkpt lat="43.315525130014265" lon="11.346531871773449"><ele>268.0</ele><time>2026-04-08T15:32:37Z</time></trkpt><trkpt lat="43.31556312728774" lon="11.346460480020847"><ele>268.0</ele><time>2026-04-08T15:32:38Z</time></trkpt><trkpt lat="43.315623213791035" lon="11.346360885446488"><ele>268.0</ele><time>2026-04-08T15:32:40Z</time></trkpt><trkpt lat="43.31567117624198" lon="11.346281954755266"><ele>268.0</ele><time>2026-04-08T15:32:42Z</time></trkpt><trkpt lat="43.31573583171306" lon="11.346188555751434"><ele>270.4</ele><time>2026-04-08T15:32:44Z</time></trkpt><trkpt lat="43.31580544629117" lon="11.346041725522301"><ele>272.8</ele><time>2026-04-08T15:32:46Z</time></trkpt><trkpt lat="43.31586021135242" lon="11.345980863683813"><ele>275.2</ele><time>2026-04-08T15:32:47Z</time></trkpt><trkpt lat="43.31593687647028" lon="11.345860480114075"><ele>277.6</ele><time>2026-04-08T15:32:49Z</time></trkpt><trkpt lat="43.31601203339893" lon="11.345712475101184"><ele>280.0</ele><time>2026-04-08T15:32:51Z</time></trkpt><trkpt lat="43.31605519268753" lon="11.34563504302217"><ele>278.8333333333333</ele><time>2026-04-08T15:32:52Z</time></trkpt><trkpt lat="43.31614156252255" lon="11.34549454899816"><ele>277.66666666666663</ele><time>2026-04-08T15:32:53.999Z</time></trkpt><trkpt lat="43.31619846503657" lon="11.345396847030075"><ele>276.5</ele><time>2026-04-08T15:32:54.999Z</time></trkpt><trkpt lat="43.316244213628" lon="11.345317710343338"><ele>275.3333333333333</ele><time>2026-04-08T15:32:55.999Z</time></trkpt><trkpt lat="43.316296719675876" lon="11.345232986704646"><ele>274.1666666666667</ele><time>2026-04-08T15:32:56.999Z</time></trkpt><trkpt lat="43.31634178432515" lon="11.34516034026085"><ele>273.0</ele><time>2026-04-08T15:32:57.999Z</time></trkpt><trkpt lat="43.3163947978829" lon="11.345076259675507"><ele>274.8333333333333</ele><time>2026-04-08T15:32:58.999Z</time></trkpt><trkpt lat="43.316449460132105" lon="11.34500748315682"><ele>276.6666666666667</ele><time>2026-04-08T15:32:59.999Z</time></trkpt><trkpt lat="43.3165237779262" lon="11.344902286563741"><ele>278.5</ele><time>2026-04-08T15:33:01.999Z</time></trkpt><trkpt lat="43.31657622875172" lon="11.344817197928416"><ele>280.33333333333337</ele><time>2026-04-08T15:33:02.999Z</time></trkpt><trkpt lat="43.31662539335315" lon="11.344726653892078"><ele>282.1666666666667</ele><time>2026-04-08T15:33:03.999Z</time></trkpt><trkpt lat="43.31668645121714" lon="11.344620458396102"><ele>284.0</ele><time>2026-04-08T15:33:05.999Z</time></trkpt><trkpt lat="43.31674881840344" lon="11.34453066668883"><ele>284.0</ele><time>2026-04-08T15:33:07.999Z</time></trkpt><trkpt lat="43.31681488425667" lon="11.344409331882934"><ele>284.0</ele><time>2026-04-08T15:33:09.999Z</time></trkpt><trkpt lat="43.31685416414727" lon="11.344334222566289"><ele>284.0</ele><time>2026-04-08T15:33:13.999Z</time></trkpt><trkpt lat="43.31686285743807" lon="11.344227913460772"><ele>284.0</ele><time>2026-04-08T15:33:28.999Z</time></trkpt><trkpt lat="43.316797955323224" lon="11.344171775719987"><ele>284.0</ele><time>2026-04-08T15:33:31.999Z</time></trkpt><trkpt lat="43.31673338245276" lon="11.344132402257086"><ele>284.0</ele><time>2026-04-08T15:33:33.999Z</time></trkpt><trkpt lat="43.31664423852738" lon="11.344024145483314"><ele>284.0</ele><time>2026-04-08T15:33:35.999Z</time></trkpt><trkpt lat="43.31662122383538" lon="11.343880216949863"><ele>284.0</ele><time>2026-04-08T15:33:37.999Z</time></trkpt><trkpt lat="43.31664525009318" lon="11.343786337311386"><ele>284.0</ele><time>2026-04-08T15:33:38.999Z</time></trkpt><trkpt lat="43.31669290850156" lon="11.343684005731369"><ele>284.0</ele><time>2026-04-08T15:33:39.999Z</time></trkpt><trkpt lat="43.31673512809089" lon="11.343609888626995"><ele>284.0</ele><time>2026-04-08T15:33:40.999Z</time></trkpt><trkpt lat="43.31675798632615" lon="11.343518567506809"><ele>284.0</ele><time>2026-04-08T15:33:41.999Z</time></trkpt><trkpt lat="43.31677843675736" lon="11.343404961287511"><ele>283.6666666666667</ele><time>2026-04-08T15:33:42.999Z</time></trkpt><trkpt lat="43.31679549765185" lon="11.343282888416633"><ele>283.33333333333337</ele><time>2026-04-08T15:33:43.999Z</time></trkpt><trkpt lat="43.316808637149975" lon="11.343193312641802"><ele>283.0</ele><time>2026-04-08T15:33:44.999Z</time></trkpt><trkpt lat="43.316823024457456" lon="11.343092153473375"><ele>282.6666666666667</ele><time>2026-04-08T15:33:45.999Z</time></trkpt><trkpt lat="43.31684559641047" lon="11.342980459691884"><ele>282.3333333333333</ele><time>2026-04-08T15:33:46.999Z</time></trkpt><trkpt lat="43.316864170563626" lon="11.342871249970411"><ele>282.0</ele><time>2026-04-08T15:33:47.999Z</time></trkpt><trkpt lat="43.31687839697871" lon="11.342781975657973"><ele>281.2</ele><time>2026-04-08T15:33:48.999Z</time></trkpt><trkpt lat="43.31690023760265" lon="11.342676862264067"><ele>280.4</ele><time>2026-04-08T15:33:49.999Z</time></trkpt><trkpt lat="43.31690627206856" lon="11.342572167343393"><ele>279.6</ele><time>2026-04-08T15:33:50.999Z</time></trkpt><trkpt lat="43.316890653465606" lon="11.34247967709498"><ele>278.8</ele><time>2026-04-08T15:33:51.999Z</time></trkpt><trkpt lat="43.31678405943364" lon="11.342352371098597"><ele>278.0</ele><time>2026-04-08T15:33:54Z</time></trkpt><trkpt lat="43.31668626377551" lon="11.342313055825693"><ele>278.0</ele><time>2026-04-08T15:33:55Z</time></trkpt><trkpt lat="43.31656031131994" lon="11.342288056513668"><ele>278.0</ele><time>2026-04-08T15:33:56Z</time></trkpt><trkpt lat="43.316418110234196" lon="11.342225594667674"><ele>278.0</ele><time>2026-04-08T15:33:57Z</time></trkpt><trkpt lat="43.316262553424814" lon="11.342177535591777"><ele>278.0</ele><time>2026-04-08T15:33:58Z</time></trkpt><trkpt lat="43.3161009586497" lon="11.342138733552117"><ele>278.75</ele><time>2026-04-08T15:33:59Z</time></trkpt><trkpt lat="43.315958312823746" lon="11.342092372461037"><ele>279.5</ele><time>2026-04-08T15:34:00Z</time></trkpt><trkpt lat="43.315839225153674" lon="11.342046218306683"><ele>280.25</ele><time>2026-04-08T15:34:01Z</time></trkpt><trkpt lat="43.31574601993599" lon="11.342026242136606"><ele>281.0</ele><time>2026-04-08T15:34:02Z</time></trkpt><trkpt lat="43.31565742976703" lon="11.342049938377373"><ele>280.5</ele><time>2026-04-08T15:34:03Z</time></trkpt><trkpt lat="43.31556691136602" lon="11.342121758834892"><ele>280.0</ele><time>2026-04-08T15:34:04Z</time></trkpt><trkpt lat="43.315455947884736" lon="11.34221094614029"><ele>279.5</ele><time>2026-04-08T15:34:05Z</time></trkpt><trkpt lat="43.31534035878991" lon="11.342299228345727"><ele>279.0</ele><time>2026-04-08T15:34:06Z</time></trkpt><trkpt lat="43.31521434740623" lon="11.342409903189049"><ele>279.0</ele><time>2026-04-08T15:34:07Z</time></trkpt><trkpt lat="43.31508625899909" lon="11.342520933685503"><ele>279.0</ele><time>2026-04-08T15:34:08Z</time></trkpt><trkpt lat="43.314981043680724" lon="11.34260205196461"><ele>279.0</ele><time>2026-04-08T15:34:09Z</time></trkpt><trkpt lat="43.314880148289404" lon="11.34267941998348"><ele>279.0</ele><time>2026-04-08T15:34:10Z</time></trkpt><trkpt lat="43.31479500076189" lon="11.342743208884627"><ele>278.3333333333333</ele><time>2026-04-08T15:34:11Z</time></trkpt><trkpt lat="43.31471141999054" lon="11.34279824833456"><ele>277.6666666666667</ele><time>2026-04-08T15:34:12Z</time></trkpt><trkpt lat="43.31462529808572" lon="11.342831591465211"><ele>277.0</ele><time>2026-04-08T15:34:13Z</time></trkpt><trkpt lat="43.314536801058" lon="11.342830859115828"><ele>276.33333333333337</ele><time>2026-04-08T15:34:14Z</time></trkpt><trkpt lat="43.31446068360185" lon="11.34276320346505"><ele>275.6666666666667</ele><time>2026-04-08T15:34:15Z</time></trkpt><trkpt lat="43.31440370490197" lon="11.342685021063666"><ele>275.0</ele><time>2026-04-08T15:34:16Z</time></trkpt><trkpt lat="43.31437634940786" lon="11.3425614094923"><ele>275.0</ele><time>2026-04-08T15:34:17Z</time></trkpt><trkpt lat="43.314353247969045" lon="11.342425558299645"><ele>275.0</ele><time>2026-04-08T15:34:18Z</time></trkpt><trkpt lat="43.31433944542017" lon="11.342295722690968"><ele>275.0</ele><time>2026-04-08T15:34:19Z</time></trkpt><trkpt lat="43.31431841160635" lon="11.34219833823387"><ele>275.0</ele><time>2026-04-08T15:34:20Z</time></trkpt><trkpt lat="43.31430674217083" lon="11.342105037989253"><ele>275.0</ele><time>2026-04-08T15:34:21Z</time></trkpt><trkpt lat="43.31426308611407" lon="11.341997334518304"><ele>275.0</ele><time>2026-04-08T15:34:22Z</time></trkpt><trkpt lat="43.31421260134511" lon="11.341904511444378"><ele>275.33333333333337</ele><time>2026-04-08T15:34:23Z</time></trkpt><trkpt lat="43.31415440111741" lon="11.341844467474004"><ele>275.6666666666667</ele><time>2026-04-08T15:34:24Z</time></trkpt><trkpt lat="43.314094855854364" lon="11.341804599606874"><ele>276.0</ele><time>2026-04-08T15:34:25Z</time></trkpt><trkpt lat="43.31402049211745" lon="11.34176950016416"><ele>276.3333333333333</ele><time>2026-04-08T15:34:26Z</time></trkpt><trkpt lat="43.31392783627907" lon="11.341740554385472"><ele>276.66666666666663</ele><time>2026-04-08T15:34:27Z</time></trkpt><trkpt lat="43.31384859788969" lon="11.34171210686709"><ele>277.0</ele><time>2026-04-08T15:34:28Z</time></trkpt><trkpt lat="43.31377643188056" lon="11.341692665199192"><ele>277.0</ele><time>2026-04-08T15:34:29Z</time></trkpt><trkpt lat="43.31370104833067" lon="11.341673537206947"><ele>277.0</ele><time>2026-04-08T15:34:30Z</time></trkpt><trkpt lat="43.313614675730676" lon="11.341649986456991"><ele>277.0</ele><time>2026-04-08T15:34:31Z</time></trkpt><trkpt lat="43.31350720097288" lon="11.341599470014538"><ele>277.0</ele><time>2026-04-08T15:34:32Z</time></trkpt><trkpt lat="43.313385692066475" lon="11.341557102572327"><ele>277.0</ele><time>2026-04-08T15:34:33Z</time></trkpt><trkpt lat="43.313284998162516" lon="11.34152325836617"><ele>277.0</ele><time>2026-04-08T15:34:34Z</time></trkpt><trkpt lat="43.31319711752013" lon="11.341493295305407"><ele>277.0</ele><time>2026-04-08T15:34:35Z</time></trkpt><trkpt lat="43.31309702088254" lon="11.341462074570968"><ele>277.0</ele><time>2026-04-08T15:34:36Z</time></trkpt><trkpt lat="43.3129949896911" lon="11.341428463025512"><ele>277.0</ele><time>2026-04-08T15:34:37Z</time></trkpt><trkpt lat="43.3129077548091" lon="11.341401137348011"><ele>277.0</ele><time>2026-04-08T15:34:38Z</time></trkpt><trkpt lat="43.31283381585759" lon="11.3413762521694"><ele>278.4</ele><time>2026-04-08T15:34:39Z</time></trkpt><trkpt lat="43.312764751329816" lon="11.341355477400416"><ele>279.79999999999995</ele><time>2026-04-08T15:34:40Z</time></trkpt><trkpt lat="43.31264843659567" lon="11.341302941141342"><ele>281.2</ele><time>2026-04-08T15:34:42Z</time></trkpt><trkpt lat="43.31256364350176" lon="11.341191450172568"><ele>282.59999999999997</ele><time>2026-04-08T15:34:44Z</time></trkpt><trkpt lat="43.31254315336719" lon="11.3410799800019"><ele>284.0</ele><time>2026-04-08T15:34:45Z</time></trkpt><trkpt lat="43.31253013842797" lon="11.340969768607614"><ele>284.0</ele><time>2026-04-08T15:34:46Z</time></trkpt><trkpt lat="43.31250727034556" lon="11.340870371459655"><ele>284.0</ele><time>2026-04-08T15:34:47Z</time></trkpt><trkpt lat="43.31244341133511" lon="11.340766266785083"><ele>284.0</ele><time>2026-04-08T15:34:49Z</time></trkpt><trkpt lat="43.31237432055658" lon="11.340675277054181"><ele>284.0</ele><time>2026-04-08T15:34:51Z</time></trkpt><trkpt lat="43.312325093699584" lon="11.340613194028544"><ele>284.0</ele><time>2026-04-08T15:34:52Z</time></trkpt><trkpt lat="43.312268131213585" lon="11.34056312634052"><ele>284.0</ele><time>2026-04-08T15:34:53Z</time></trkpt><trkpt lat="43.31214113914287" lon="11.340482478299265"><ele>284.59999999999997</ele><time>2026-04-08T15:34:55Z</time></trkpt><trkpt lat="43.31204469084268" lon="11.340392484300121"><ele>285.2</ele><time>2026-04-08T15:34:57Z</time></trkpt><trkpt lat="43.31196249058253" lon="11.340313640631825"><ele>285.79999999999995</ele><time>2026-04-08T15:34:59Z</time></trkpt><trkpt lat="43.311896168721375" lon="11.34025915950917"><ele>286.4</ele><time>2026-04-08T15:35:02.999Z</time></trkpt><trkpt lat="43.311846064585765" lon="11.34012479889069"><ele>287.0</ele><time>2026-04-08T15:35:04.999Z</time></trkpt><trkpt lat="43.311803144173226" lon="11.340029317100973"><ele>287.0</ele><time>2026-04-08T15:35:06.999Z</time></trkpt><trkpt lat="43.31176239736414" lon="11.339882676192962"><ele>287.0</ele><time>2026-04-08T15:35:09.999Z</time></trkpt><trkpt lat="43.3117476554925" lon="11.339768747215722"><ele>287.0</ele><time>2026-04-08T15:35:10.999Z</time></trkpt><trkpt lat="43.31173718304432" lon="11.339650870386913"><ele>287.0</ele><time>2026-04-08T15:35:12.999Z</time></trkpt><trkpt lat="43.31173774302806" lon="11.339485078059099"><ele>287.0</ele><time>2026-04-08T15:35:14.999Z</time></trkpt><trkpt lat="43.31173855104641" lon="11.339374175068022"><ele>287.0</ele><time>2026-04-08T15:35:16.999Z</time></trkpt><trkpt lat="43.311539366341535" lon="11.339339478519378"><ele>287.0</ele><time>2026-04-08T15:35:18.999Z</time></trkpt><trkpt lat="43.31144178731391" lon="11.339327272511648"><ele>287.0</ele><time>2026-04-08T15:35:19.999Z</time></trkpt><trkpt lat="43.31135229229835" lon="11.339324367086705"><ele>287.0</ele><time>2026-04-08T15:35:20.999Z</time></trkpt><trkpt lat="43.31125710148216" lon="11.339321566052549"><ele>287.0</ele><time>2026-04-08T15:35:21.999Z</time></trkpt><trkpt lat="43.31115194651866" lon="11.339341265493694"><ele>287.0</ele><time>2026-04-08T15:35:22.999Z</time></trkpt><trkpt lat="43.31104822228655" lon="11.339330789714905"><ele>287.0</ele><time>2026-04-08T15:35:23.999Z</time></trkpt><trkpt lat="43.31094510046125" lon="11.339324841397628"><ele>287.0</ele><time>2026-04-08T15:35:24.999Z</time></trkpt><trkpt lat="43.310847953692" lon="11.339321489588428"><ele>287.0</ele><time>2026-04-08T15:35:25.999Z</time></trkpt><trkpt lat="43.310752041627076" lon="11.339315323316548"><ele>287.0</ele><time>2026-04-08T15:35:26.999Z</time></trkpt><trkpt lat="43.31064709094691" lon="11.339307851439575"><ele>287.0</ele><time>2026-04-08T15:35:27.999Z</time></trkpt><trkpt lat="43.31053861430663" lon="11.339289883624385"><ele>287.0</ele><time>2026-04-08T15:35:28.999Z</time></trkpt><trkpt lat="43.31044057989181" lon="11.339259227129075"><ele>287.0</ele><time>2026-04-08T15:35:29.999Z</time></trkpt><trkpt lat="43.3103361341711" lon="11.339234859882815"><ele>287.0</ele><time>2026-04-08T15:35:30.999Z</time></trkpt><trkpt lat="43.31021147319327" lon="11.33921170400437"><ele>286.4</ele><time>2026-04-08T15:35:31.999Z</time></trkpt><trkpt lat="43.31009191329629" lon="11.339191098446282"><ele>285.79999999999995</ele><time>2026-04-08T15:35:32.999Z</time></trkpt><trkpt lat="43.30997835727236" lon="11.339168508911301"><ele>285.2</ele><time>2026-04-08T15:35:33.999Z</time></trkpt><trkpt lat="43.30988030927106" lon="11.339145677947757"><ele>284.59999999999997</ele><time>2026-04-08T15:35:34.999Z</time></trkpt><trkpt lat="43.309782511763906" lon="11.339125442998021"><ele>284.0</ele><time>2026-04-08T15:35:35.999Z</time></trkpt><trkpt lat="43.309674840652114" lon="11.339107433314105"><ele>283.25</ele><time>2026-04-08T15:35:36.999Z</time></trkpt><trkpt lat="43.309565420650806" lon="11.339079495739783"><ele>282.5</ele><time>2026-04-08T15:35:37.999Z</time></trkpt><trkpt lat="43.30944083812539" lon="11.339070334855439"><ele>281.75</ele><time>2026-04-08T15:35:38.999Z</time></trkpt><trkpt lat="43.30931182432217" lon="11.339060133459727"><ele>281.0</ele><time>2026-04-08T15:35:39.999Z</time></trkpt><trkpt lat="43.309198054648554" lon="11.339039309380803"><ele>281.0</ele><time>2026-04-08T15:35:40.999Z</time></trkpt><trkpt lat="43.30908763056552" lon="11.33904635782329"><ele>281.0</ele><time>2026-04-08T15:35:41.999Z</time></trkpt><trkpt lat="43.30899109835582" lon="11.339023025362822"><ele>281.0</ele><time>2026-04-08T15:35:42.999Z</time></trkpt><trkpt lat="43.30887745862819" lon="11.339005870453214"><ele>281.0</ele><time>2026-04-08T15:35:43.999Z</time></trkpt><trkpt lat="43.30875429726515" lon="11.338994163196771"><ele>281.0</ele><time>2026-04-08T15:35:44.999Z</time></trkpt><trkpt lat="43.30864428101568" lon="11.338985188026049"><ele>279.8</ele><time>2026-04-08T15:35:45.999Z</time></trkpt><trkpt lat="43.30855898959424" lon="11.338973281732553"><ele>278.6</ele><time>2026-04-08T15:35:46.999Z</time></trkpt><trkpt lat="43.30847147110364" lon="11.338962071473587"><ele>277.4</ele><time>2026-04-08T15:35:47.999Z</time></trkpt><trkpt lat="43.30837878178646" lon="11.33896288121652"><ele>276.2</ele><time>2026-04-08T15:35:48.999Z</time></trkpt><trkpt lat="43.30827547238358" lon="11.338956326785544"><ele>275.0</ele><time>2026-04-08T15:35:49.999Z</time></trkpt><trkpt lat="43.30817503749603" lon="11.338937886170736"><ele>276.75</ele><time>2026-04-08T15:35:50.999Z</time></trkpt><trkpt lat="43.308062143150885" lon="11.338949270912865"><ele>278.5</ele><time>2026-04-08T15:35:51.999Z</time></trkpt><trkpt lat="43.30793691022024" lon="11.33895674069799"><ele>280.25</ele><time>2026-04-08T15:35:52.999Z</time></trkpt><trkpt lat="43.307809462707" lon="11.338985485351087"><ele>282.0</ele><time>2026-04-08T15:35:53.999Z</time></trkpt><trkpt lat="43.30768807249533" lon="11.339009554640732"><ele>282.0</ele><time>2026-04-08T15:35:54.999Z</time></trkpt><trkpt lat="43.30757808929399" lon="11.33901414433422"><ele>282.0</ele><time>2026-04-08T15:35:55.999Z</time></trkpt><trkpt lat="43.30749221837046" lon="11.339057150662992"><ele>282.0</ele><time>2026-04-08T15:35:56.999Z</time></trkpt><trkpt lat="43.307413677097514" lon="11.339081331325488"><ele>282.0</ele><time>2026-04-08T15:35:57.999Z</time></trkpt><trkpt lat="43.30730636107444" lon="11.339099741427166"><ele>282.0</ele><time>2026-04-08T15:35:59Z</time></trkpt><trkpt lat="43.30719065204589" lon="11.339143273781762"><ele>281.75</ele><time>2026-04-08T15:36:00Z</time></trkpt><trkpt lat="43.30706557825934" lon="11.339191272582003"><ele>281.5</ele><time>2026-04-08T15:36:01Z</time></trkpt><trkpt lat="43.30694790666035" lon="11.339183041865068"><ele>281.25</ele><time>2026-04-08T15:36:02Z</time></trkpt><trkpt lat="43.306849554058346" lon="11.339171656310796"><ele>281.0</ele><time>2026-04-08T15:36:03Z</time></trkpt><trkpt lat="43.30674200479632" lon="11.339150314049052"><ele>281.0</ele><time>2026-04-08T15:36:04Z</time></trkpt><trkpt lat="43.306637184794184" lon="11.339127614062349"><ele>281.0</ele><time>2026-04-08T15:36:05Z</time></trkpt><trkpt lat="43.306531561805464" lon="11.33910961115055"><ele>281.0</ele><time>2026-04-08T15:36:06Z</time></trkpt><trkpt lat="43.30642217749496" lon="11.339060764294072"><ele>281.0</ele><time>2026-04-08T15:36:07Z</time></trkpt><trkpt lat="43.30630723703431" lon="11.338992008767875"><ele>280.75</ele><time>2026-04-08T15:36:08Z</time></trkpt><trkpt lat="43.30620324795059" lon="11.338906431800018"><ele>280.5</ele><time>2026-04-08T15:36:09Z</time></trkpt><trkpt lat="43.30611001826156" lon="11.338816247352664"><ele>280.25</ele><time>2026-04-08T15:36:10Z</time></trkpt><trkpt lat="43.3060227658049" lon="11.33869777788779"><ele>280.0</ele><time>2026-04-08T15:36:11Z</time></trkpt><trkpt lat="43.30592490334205" lon="11.338569591646259"><ele>280.0</ele><time>2026-04-08T15:36:12Z</time></trkpt><trkpt lat="43.30583701442609" lon="11.338439499692129"><ele>280.0</ele><time>2026-04-08T15:36:13Z</time></trkpt><trkpt lat="43.30574148707267" lon="11.338317299685695"><ele>280.0</ele><time>2026-04-08T15:36:14Z</time></trkpt><trkpt lat="43.305646116173506" lon="11.338197002143522"><ele>280.0</ele><time>2026-04-08T15:36:15Z</time></trkpt><trkpt lat="43.30558005548913" lon="11.338072599653419"><ele>279.8</ele><time>2026-04-08T15:36:16Z</time></trkpt><trkpt lat="43.305498661921376" lon="11.337989913878236"><ele>279.6</ele><time>2026-04-08T15:36:17Z</time></trkpt><trkpt lat="43.305423637166946" lon="11.337902596448776"><ele>279.4</ele><time>2026-04-08T15:36:18Z</time></trkpt><trkpt lat="43.30533654810599" lon="11.33778975406492"><ele>279.2</ele><time>2026-04-08T15:36:19Z</time></trkpt><trkpt lat="43.3052515007346" lon="11.33767817326274"><ele>279.0</ele><time>2026-04-08T15:36:20Z</time></trkpt><trkpt lat="43.3051715621084" lon="11.337582316524836"><ele>279.0</ele><time>2026-04-08T15:36:21Z</time></trkpt><trkpt lat="43.305070036335856" lon="11.337516882341733"><ele>279.0</ele><time>2026-04-08T15:36:22Z</time></trkpt><trkpt lat="43.304956583341415" lon="11.337453195720892"><ele>279.0</ele><time>2026-04-08T15:36:23Z</time></trkpt><trkpt lat="43.304836089354076" lon="11.337380836517188"><ele>279.0</ele><time>2026-04-08T15:36:24Z</time></trkpt><trkpt lat="43.304709995973035" lon="11.337301557952781"><ele>277.0</ele><time>2026-04-08T15:36:25Z</time></trkpt><trkpt lat="43.30459780478391" lon="11.337208852072433"><ele>275.0</ele><time>2026-04-08T15:36:26Z</time></trkpt><trkpt lat="43.304496737972606" lon="11.33713206487872"><ele>273.0</ele><time>2026-04-08T15:36:27Z</time></trkpt><trkpt lat="43.304400352143645" lon="11.337060124575444"><ele>271.0</ele><time>2026-04-08T15:36:28Z</time></trkpt><trkpt lat="43.30430318947508" lon="11.337009532927087"><ele>271.0</ele><time>2026-04-08T15:36:29Z</time></trkpt><trkpt lat="43.30419934433138" lon="11.33698178404648"><ele>271.0</ele><time>2026-04-08T15:36:30Z</time></trkpt><trkpt lat="43.30409352871293" lon="11.336984703280912"><ele>271.0</ele><time>2026-04-08T15:36:31Z</time></trkpt><trkpt lat="43.3039808342896" lon="11.337017030422086"><ele>271.0</ele><time>2026-04-08T15:36:32Z</time></trkpt><trkpt lat="43.30385280625698" lon="11.337070930221023"><ele>270.75</ele><time>2026-04-08T15:36:33Z</time></trkpt><trkpt lat="43.30371581438281" lon="11.337123078295615"><ele>270.5</ele><time>2026-04-08T15:36:34Z</time></trkpt><trkpt lat="43.30359549934313" lon="11.337171523848557"><ele>270.25</ele><time>2026-04-08T15:36:35Z</time></trkpt><trkpt lat="43.303491324282135" lon="11.337220743706796"><ele>270.0</ele><time>2026-04-08T15:36:36Z</time></trkpt><trkpt lat="43.30338586193606" lon="11.337258590673084"><ele>270.0</ele><time>2026-04-08T15:36:37Z</time></trkpt><trkpt lat="43.303293569353706" lon="11.3373012837941"><ele>270.0</ele><time>2026-04-08T15:36:38Z</time></trkpt><trkpt lat="43.3032027102862" lon="11.337347299234075"><ele>270.0</ele><time>2026-04-08T15:36:39Z</time></trkpt><trkpt lat="43.3031138372925" lon="11.337397267630498"><ele>270.0</ele><time>2026-04-08T15:36:40Z</time></trkpt><trkpt lat="43.30302353805662" lon="11.337443315978584"><ele>270.0</ele><time>2026-04-08T15:36:41Z</time></trkpt><trkpt lat="43.30292968794606" lon="11.337496606303619"><ele>269.6</ele><time>2026-04-08T15:36:42Z</time></trkpt><trkpt lat="43.30283305823197" lon="11.337571301555212"><ele>269.2</ele><time>2026-04-08T15:36:43Z</time></trkpt><trkpt lat="43.30273877143628" lon="11.337638233127137"><ele>268.8</ele><time>2026-04-08T15:36:44Z</time></trkpt><trkpt lat="43.30265293176352" lon="11.337694185518039"><ele>268.4</ele><time>2026-04-08T15:36:45Z</time></trkpt><trkpt lat="43.30256887148878" lon="11.337759794191557"><ele>268.0</ele><time>2026-04-08T15:36:46Z</time></trkpt><trkpt lat="43.30247451789553" lon="11.337818318578947"><ele>268.0</ele><time>2026-04-08T15:36:47Z</time></trkpt><trkpt lat="43.30237653722455" lon="11.33787404071702"><ele>268.0</ele><time>2026-04-08T15:36:48Z</time></trkpt><trkpt lat="43.30225418212994" lon="11.337908353485062"><ele>268.0</ele><time>2026-04-08T15:36:49Z</time></trkpt><trkpt lat="43.3021313745381" lon="11.337936904446787"><ele>268.0</ele><time>2026-04-08T15:36:50Z</time></trkpt><trkpt lat="43.3020155529649" lon="11.33796509136124"><ele>265.0</ele><time>2026-04-08T15:36:51Z</time></trkpt><trkpt lat="43.301897139806805" lon="11.337995788491737"><ele>262.0</ele><time>2026-04-08T15:36:52Z</time></trkpt><trkpt lat="43.30178143554956" lon="11.338018558587747"><ele>259.0</ele><time>2026-04-08T15:36:53Z</time></trkpt><trkpt lat="43.301664534799194" lon="11.338026998115966"><ele>256.0</ele><time>2026-04-08T15:36:54Z</time></trkpt><trkpt lat="43.30152681736301" lon="11.337993862577846"><ele>255.25</ele><time>2026-04-08T15:36:55Z</time></trkpt><trkpt lat="43.301392383393186" lon="11.337948166173023"><ele>254.5</ele><time>2026-04-08T15:36:56Z</time></trkpt><trkpt lat="43.30127076161676" lon="11.337910107413052"><ele>253.75</ele><time>2026-04-08T15:36:57Z</time></trkpt><trkpt lat="43.301165020666936" lon="11.33785158503885"><ele>253.0</ele><time>2026-04-08T15:36:58Z</time></trkpt><trkpt lat="43.30106891953878" lon="11.337785010164515"><ele>253.0</ele><time>2026-04-08T15:36:59Z</time></trkpt><trkpt lat="43.30097673566521" lon="11.337706305730604"><ele>253.0</ele><time>2026-04-08T15:37:00Z</time></trkpt><trkpt lat="43.30089421083282" lon="11.33763166725636"><ele>253.0</ele><time>2026-04-08T15:37:01Z</time></trkpt><trkpt lat="43.300809777767405" lon="11.337559118337525"><ele>253.0</ele><time>2026-04-08T15:37:02Z</time></trkpt><trkpt lat="43.30072008582969" lon="11.33748427489159"><ele>253.0</ele><time>2026-04-08T15:37:03Z</time></trkpt><trkpt lat="43.300641754315535" lon="11.33742234898505"><ele>253.2</ele><time>2026-04-08T15:37:04Z</time></trkpt><trkpt lat="43.300555525632426" lon="11.337367903246914"><ele>253.4</ele><time>2026-04-08T15:37:05Z</time></trkpt><trkpt lat="43.300461984654746" lon="11.337325020773987"><ele>253.59999999999997</ele><time>2026-04-08T15:37:06Z</time></trkpt><trkpt lat="43.30036051296279" lon="11.337292653418757"><ele>253.79999999999998</ele><time>2026-04-08T15:37:06.999Z</time></trkpt><trkpt lat="43.300252553993275" lon="11.337258903658068"><ele>254.0</ele><time>2026-04-08T15:37:07.999Z</time></trkpt><trkpt lat="43.30013965099859" lon="11.337234101339313"><ele>252.79999999999998</ele><time>2026-04-08T15:37:08.999Z</time></trkpt><trkpt lat="43.300029185034354" lon="11.337206722612128"><ele>251.59999999999997</ele><time>2026-04-08T15:37:09.999Z</time></trkpt><trkpt lat="43.299928490784566" lon="11.337182572748196"><ele>250.4</ele><time>2026-04-08T15:37:10.999Z</time></trkpt><trkpt lat="43.29982517178223" lon="11.337160505303837"><ele>249.2</ele><time>2026-04-08T15:37:11.999Z</time></trkpt><trkpt lat="43.299719018368435" lon="11.337141501772104"><ele>248.0</ele><time>2026-04-08T15:37:12.999Z</time></trkpt><trkpt lat="43.299623355345716" lon="11.337140023630557"><ele>248.0</ele><time>2026-04-08T15:37:13.999Z</time></trkpt><trkpt lat="43.2995187121706" lon="11.337157426920005"><ele>248.0</ele><time>2026-04-08T15:37:14.999Z</time></trkpt><trkpt lat="43.2993943768977" lon="11.337171740391154"><ele>248.0</ele><time>2026-04-08T15:37:15.999Z</time></trkpt><trkpt lat="43.29926175832568" lon="11.337198553770648"><ele>248.0</ele><time>2026-04-08T15:37:16.999Z</time></trkpt><trkpt lat="43.299151663918394" lon="11.337228130877742"><ele>248.0</ele><time>2026-04-08T15:37:17.999Z</time></trkpt><trkpt lat="43.299050793914056" lon="11.337255039046845"><ele>248.0</ele><time>2026-04-08T15:37:18.999Z</time></trkpt><trkpt lat="43.29894598710931" lon="11.337291202116345"><ele>248.0</ele><time>2026-04-08T15:37:19.999Z</time></trkpt><trkpt lat="43.29883251674487" lon="11.337332174138908"><ele>248.0</ele><time>2026-04-08T15:37:20.999Z</time></trkpt><trkpt lat="43.298721630606025" lon="11.337388285752944"><ele>248.0</ele><time>2026-04-08T15:37:21.999Z</time></trkpt><trkpt lat="43.29860103251298" lon="11.337464905330856"><ele>247.0</ele><time>2026-04-08T15:37:22.999Z</time></trkpt><trkpt lat="43.29848925520117" lon="11.337553245055185"><ele>246.0</ele><time>2026-04-08T15:37:23.999Z</time></trkpt><trkpt lat="43.29838007086287" lon="11.337643996713794"><ele>245.0</ele><time>2026-04-08T15:37:24.999Z</time></trkpt><trkpt lat="43.298272291757854" lon="11.337745552449663"><ele>244.0</ele><time>2026-04-08T15:37:25.999Z</time></trkpt><trkpt lat="43.29817423004109" lon="11.337849779984246"><ele>243.25</ele><time>2026-04-08T15:37:26.999Z</time></trkpt><trkpt lat="43.29807736964288" lon="11.337977321380835"><ele>242.5</ele><time>2026-04-08T15:37:27.999Z</time></trkpt><trkpt lat="43.29798049349276" lon="11.338115252491637"><ele>241.75</ele><time>2026-04-08T15:37:28.999Z</time></trkpt><trkpt lat="43.297894313699985" lon="11.338246264924821"><ele>241.0</ele><time>2026-04-08T15:37:29.999Z</time></trkpt><trkpt lat="43.29781168132692" lon="11.338368854019091"><ele>241.0</ele><time>2026-04-08T15:37:30.999Z</time></trkpt><trkpt lat="43.2977143931353" lon="11.338503548624505"><ele>241.0</ele><time>2026-04-08T15:37:31.999Z</time></trkpt><trkpt lat="43.29762731813264" lon="11.338630039585826"><ele>241.0</ele><time>2026-04-08T15:37:32.999Z</time></trkpt><trkpt lat="43.29754636409495" lon="11.33874200055062"><ele>241.0</ele><time>2026-04-08T15:37:33.999Z</time></trkpt><trkpt lat="43.29746344465976" lon="11.3388554725815"><ele>240.75</ele><time>2026-04-08T15:37:34.999Z</time></trkpt><trkpt lat="43.29737347659117" lon="11.338962519255933"><ele>240.5</ele><time>2026-04-08T15:37:35.999Z</time></trkpt><trkpt lat="43.29728580191655" lon="11.339076801352196"><ele>240.25</ele><time>2026-04-08T15:37:36.999Z</time></trkpt><trkpt lat="43.29719982835387" lon="11.339193809577349"><ele>240.0</ele><time>2026-04-08T15:37:37.999Z</time></trkpt><trkpt lat="43.297111133577275" lon="11.339308566823247"><ele>240.0</ele><time>2026-04-08T15:37:38.999Z</time></trkpt><trkpt lat="43.29703274011002" lon="11.339417002872008"><ele>240.0</ele><time>2026-04-08T15:37:39.999Z</time></trkpt><trkpt lat="43.2969497103769" lon="11.339521882648075"><ele>240.0</ele><time>2026-04-08T15:37:40.999Z</time></trkpt><trkpt lat="43.29687145189053" lon="11.339641218358242"><ele>240.0</ele><time>2026-04-08T15:37:41.999Z</time></trkpt><trkpt lat="43.29678532474837" lon="11.339764876283516"><ele>240.5</ele><time>2026-04-08T15:37:42.999Z</time></trkpt><trkpt lat="43.296700550494315" lon="11.339897378101913"><ele>241.0</ele><time>2026-04-08T15:37:43.999Z</time></trkpt><trkpt lat="43.29661224157202" lon="11.340036601863991"><ele>241.5</ele><time>2026-04-08T15:37:44.999Z</time></trkpt><trkpt lat="43.29652457652463" lon="11.340183866448102"><ele>242.0</ele><time>2026-04-08T15:37:45.999Z</time></trkpt><trkpt lat="43.29644104101053" lon="11.340355388767504"><ele>242.5</ele><time>2026-04-08T15:37:46.999Z</time></trkpt><trkpt lat="43.296354926024655" lon="11.340510020901082"><ele>243.0</ele><time>2026-04-08T15:37:47.999Z</time></trkpt><trkpt lat="43.2962899853897" lon="11.340657291623172"><ele>243.5</ele><time>2026-04-08T15:37:48.999Z</time></trkpt><trkpt lat="43.29624779697126" lon="11.340801511046394"><ele>244.0</ele><time>2026-04-08T15:37:49.999Z</time></trkpt><trkpt lat="43.296195385659956" lon="11.340912676944308"><ele>244.16666666666666</ele><time>2026-04-08T15:37:50.999Z</time></trkpt><trkpt lat="43.296147351703574" lon="11.341019790254528"><ele>244.33333333333331</ele><time>2026-04-08T15:37:51.999Z</time></trkpt><trkpt lat="43.29610370427975" lon="11.3411281748279"><ele>244.5</ele><time>2026-04-08T15:37:52.999Z</time></trkpt><trkpt lat="43.296055100613344" lon="11.341220458174742"><ele>244.66666666666669</ele><time>2026-04-08T15:37:53.999Z</time></trkpt><trkpt lat="43.29599710621585" lon="11.341280540902378"><ele>244.83333333333334</ele><time>2026-04-08T15:37:54.999Z</time></trkpt><trkpt lat="43.29590514063233" lon="11.341332608428665"><ele>245.0</ele><time>2026-04-08T15:37:56.999Z</time></trkpt><trkpt lat="43.29583839934722" lon="11.341351309392442"><ele>245.0</ele><time>2026-04-08T15:37:58.999Z</time></trkpt><trkpt lat="43.29569173682996" lon="11.341372563441945"><ele>245.0</ele><time>2026-04-08T15:38:00.999Z</time></trkpt><trkpt lat="43.29560033948164" lon="11.341370670453877"><ele>245.0</ele><time>2026-04-08T15:38:01.999Z</time></trkpt><trkpt lat="43.29550503004297" lon="11.341344920091661"><ele>245.0</ele><time>2026-04-08T15:38:02.999Z</time></trkpt><trkpt lat="43.295408263582495" lon="11.341306680142171"><ele>245.0</ele><time>2026-04-08T15:38:03.999Z</time></trkpt><trkpt lat="43.29530897074861" lon="11.341253784639951"><ele>243.50000000000003</ele><time>2026-04-08T15:38:05Z</time></trkpt><trkpt lat="43.29522189128071" lon="11.341196267269774"><ele>242.0</ele><time>2026-04-08T15:38:06Z</time></trkpt><trkpt lat="43.29514269767683" lon="11.341134605799848"><ele>240.5</ele><time>2026-04-08T15:38:07Z</time></trkpt><trkpt lat="43.295083864504704" lon="11.34104849418806"><ele>239.0</ele><time>2026-04-08T15:38:08Z</time></trkpt><trkpt lat="43.29504462732814" lon="11.340948308116223"><ele>237.50000000000003</ele><time>2026-04-08T15:38:09Z</time></trkpt><trkpt lat="43.29502796412936" lon="11.340841355522048"><ele>236.0</ele><time>2026-04-08T15:38:10Z</time></trkpt><trkpt lat="43.29502576666672" lon="11.340721008613938"><ele>236.0</ele><time>2026-04-08T15:38:11Z</time></trkpt><trkpt lat="43.295029045438255" lon="11.340594846184654"><ele>236.00000000000003</ele><time>2026-04-08T15:38:12Z</time></trkpt><trkpt lat="43.295032974205" lon="11.340459807100077"><ele>236.00000000000003</ele><time>2026-04-08T15:38:13Z</time></trkpt><trkpt lat="43.29504480323504" lon="11.340312168321843"><ele>236.0</ele><time>2026-04-08T15:38:14Z</time></trkpt><trkpt lat="43.295058883129876" lon="11.340152161034462"><ele>236.0</ele><time>2026-04-08T15:38:15Z</time></trkpt><trkpt lat="43.29508247728653" lon="11.339983105474415"><ele>235.0</ele><time>2026-04-08T15:38:16Z</time></trkpt><trkpt lat="43.29511616639946" lon="11.339828585532988"><ele>234.0</ele><time>2026-04-08T15:38:17Z</time></trkpt><trkpt lat="43.2951600212096" lon="11.339677105761867"><ele>233.0</ele><time>2026-04-08T15:38:18Z</time></trkpt><trkpt lat="43.29520965184146" lon="11.339538516124481"><ele>232.0</ele><time>2026-04-08T15:38:19Z</time></trkpt><trkpt lat="43.29526013138887" lon="11.339403494496718"><ele>229.5</ele><time>2026-04-08T15:38:20Z</time></trkpt><trkpt lat="43.29530613883443" lon="11.339277057408882"><ele>227.0</ele><time>2026-04-08T15:38:21Z</time></trkpt><trkpt lat="43.2953623774112" lon="11.33914128743248"><ele>224.5</ele><time>2026-04-08T15:38:22Z</time></trkpt><trkpt lat="43.29543656593299" lon="11.339005473616945"><ele>222.0</ele><time>2026-04-08T15:38:23Z</time></trkpt><trkpt lat="43.29552406746567" lon="11.338894148464366"><ele>222.39999999999998</ele><time>2026-04-08T15:38:24Z</time></trkpt><trkpt lat="43.295610402390835" lon="11.338798788122988"><ele>222.79999999999998</ele><time>2026-04-08T15:38:25Z</time></trkpt><trkpt lat="43.295702205292365" lon="11.338719446481516"><ele>223.2</ele><time>2026-04-08T15:38:26Z</time></trkpt><trkpt lat="43.29579523453093" lon="11.33866020834992"><ele>223.6</ele><time>2026-04-08T15:38:27Z</time></trkpt><trkpt lat="43.295887349011586" lon="11.338624508061043"><ele>224.0</ele><time>2026-04-08T15:38:28Z</time></trkpt><trkpt lat="43.29599582562662" lon="11.338623201052101"><ele>224.0</ele><time>2026-04-08T15:38:29Z</time></trkpt><trkpt lat="43.2960847704365" lon="11.338639403112817"><ele>223.99999999999997</ele><time>2026-04-08T15:38:30Z</time></trkpt><trkpt lat="43.296163397054805" lon="11.338639024360836"><ele>223.99999999999997</ele><time>2026-04-08T15:38:31Z</time></trkpt><trkpt lat="43.296252885888016" lon="11.338627393094436"><ele>224.0</ele><time>2026-04-08T15:38:32Z</time></trkpt><trkpt lat="43.29633319880707" lon="11.338581205868778"><ele>224.0</ele><time>2026-04-08T15:38:33Z</time></trkpt><trkpt lat="43.29642549878925" lon="11.33849564868884"><ele>224.39999999999998</ele><time>2026-04-08T15:38:34Z</time></trkpt><trkpt lat="43.29649192136841" lon="11.33839589584945"><ele>224.79999999999998</ele><time>2026-04-08T15:38:35Z</time></trkpt><trkpt lat="43.29653656792179" lon="11.338272886901866"><ele>225.20000000000002</ele><time>2026-04-08T15:38:36Z</time></trkpt><trkpt lat="43.296550722515654" lon="11.338118194063945"><ele>225.60000000000002</ele><time>2026-04-08T15:38:37Z</time></trkpt><trkpt lat="43.29653563851617" lon="11.337978614988792"><ele>226.0</ele><time>2026-04-08T15:38:38Z</time></trkpt><trkpt lat="43.2964868346402" lon="11.337852320259357"><ele>224.60000000000002</ele><time>2026-04-08T15:38:39Z</time></trkpt><trkpt lat="43.29640334543423" lon="11.337747963828509"><ele>223.20000000000002</ele><time>2026-04-08T15:38:40Z</time></trkpt><trkpt lat="43.29630718445896" lon="11.337669346450147"><ele>221.79999999999998</ele><time>2026-04-08T15:38:41Z</time></trkpt><trkpt lat="43.296218790392686" lon="11.33760551348537"><ele>220.39999999999998</ele><time>2026-04-08T15:38:42Z</time></trkpt><trkpt lat="43.29613084507649" lon="11.33754267798742"><ele>219.0</ele><time>2026-04-08T15:38:43Z</time></trkpt><trkpt lat="43.29602731344134" lon="11.337455701042364"><ele>219.0</ele><time>2026-04-08T15:38:44Z</time></trkpt><trkpt lat="43.2959121285169" lon="11.337355715852238"><ele>219.0</ele><time>2026-04-08T15:38:45Z</time></trkpt><trkpt lat="43.295795554512196" lon="11.337260529952792"><ele>219.0</ele><time>2026-04-08T15:38:46Z</time></trkpt><trkpt lat="43.29568574576119" lon="11.337168446337147"><ele>219.0</ele><time>2026-04-08T15:38:47Z</time></trkpt><trkpt lat="43.29558832963306" lon="11.33707727459334"><ele>217.5</ele><time>2026-04-08T15:38:48Z</time></trkpt><trkpt lat="43.29551065073789" lon="11.336967775252027"><ele>216.0</ele><time>2026-04-08T15:38:49Z</time></trkpt><trkpt lat="43.295436602278656" lon="11.336831923317286"><ele>214.5</ele><time>2026-04-08T15:38:50Z</time></trkpt><trkpt lat="43.295375216877105" lon="11.336689994807399"><ele>213.0</ele><time>2026-04-08T15:38:51Z</time></trkpt><trkpt lat="43.29532770785375" lon="11.336533288252838"><ele>212.75</ele><time>2026-04-08T15:38:52Z</time></trkpt><trkpt lat="43.295299949148536" lon="11.336373746886016"><ele>212.5</ele><time>2026-04-08T15:38:53Z</time></trkpt><trkpt lat="43.29529451215424" lon="11.336218265500724"><ele>212.25</ele><time>2026-04-08T15:38:54Z</time></trkpt><trkpt lat="43.29531113041715" lon="11.336058635662448"><ele>212.0</ele><time>2026-04-08T15:38:55Z</time></trkpt><trkpt lat="43.29534041882782" lon="11.335891769985869"><ele>212.0</ele><time>2026-04-08T15:38:56Z</time></trkpt><trkpt lat="43.295401504343765" lon="11.335723188786327"><ele>212.0</ele><time>2026-04-08T15:38:57Z</time></trkpt><trkpt lat="43.295474504649775" lon="11.335572752737532"><ele>212.0</ele><time>2026-04-08T15:38:58Z</time></trkpt><trkpt lat="43.295552054836" lon="11.335444807792943"><ele>212.0</ele><time>2026-04-08T15:38:59Z</time></trkpt><trkpt lat="43.29562604962691" lon="11.335343780544585"><ele>212.2</ele><time>2026-04-08T15:39:00Z</time></trkpt><trkpt lat="43.295694816204325" lon="11.335241685428503"><ele>212.39999999999998</ele><time>2026-04-08T15:39:01Z</time></trkpt><trkpt lat="43.295763340279876" lon="11.335146580476367"><ele>212.60000000000002</ele><time>2026-04-08T15:39:02Z</time></trkpt><trkpt lat="43.29583291833834" lon="11.335045809589374"><ele>212.8</ele><time>2026-04-08T15:39:03Z</time></trkpt><trkpt lat="43.295893505367495" lon="11.334946409432352"><ele>213.0</ele><time>2026-04-08T15:39:04Z</time></trkpt><trkpt lat="43.295937779399424" lon="11.334875937917918"><ele>213.0</ele><time>2026-04-08T15:39:05Z</time></trkpt><trkpt lat="43.29599996731769" lon="11.334770308123197"><ele>213.0</ele><time>2026-04-08T15:39:07Z</time></trkpt><trkpt lat="43.296065910730185" lon="11.334669865841892"><ele>213.0</ele><time>2026-04-08T15:39:09Z</time></trkpt><trkpt lat="43.29613039163901" lon="11.3345661106539"><ele>213.0</ele><time>2026-04-08T15:39:11Z</time></trkpt><trkpt lat="43.29617739948764" lon="11.334487910165768"><ele>213.0</ele><time>2026-04-08T15:39:11.999Z</time></trkpt><trkpt lat="43.29621984045596" lon="11.334421515631783"><ele>213.0</ele><time>2026-04-08T15:39:12.999Z</time></trkpt><trkpt lat="43.29629533467738" lon="11.334303141169624"><ele>213.0</ele><time>2026-04-08T15:39:14.999Z</time></trkpt><trkpt lat="43.29639045693687" lon="11.334219805351363"><ele>213.0</ele><time>2026-04-08T15:39:16.999Z</time></trkpt><trkpt lat="43.296477612801226" lon="11.334123983136063"><ele>213.0</ele><time>2026-04-08T15:39:18.999Z</time></trkpt><trkpt lat="43.29650272151056" lon="11.333985579399053"><ele>213.0</ele><time>2026-04-08T15:39:20.999Z</time></trkpt><trkpt lat="43.29649296654934" lon="11.33379935981701"><ele>213.66666666666666</ele><time>2026-04-08T15:39:22.999Z</time></trkpt><trkpt lat="43.29649441108379" lon="11.333709326161744"><ele>214.33333333333331</ele><time>2026-04-08T15:39:23.999Z</time></trkpt><trkpt lat="43.29651525760422" lon="11.33362278528068"><ele>215.0</ele><time>2026-04-08T15:39:24.999Z</time></trkpt><trkpt lat="43.296544691470785" lon="11.333523376484022"><ele>215.66666666666666</ele><time>2026-04-08T15:39:25.999Z</time></trkpt><trkpt lat="43.29658402488324" lon="11.333423015716663"><ele>216.33333333333331</ele><time>2026-04-08T15:39:26.999Z</time></trkpt><trkpt lat="43.2966302704694" lon="11.333311903608733"><ele>217.0</ele><time>2026-04-08T15:39:27.999Z</time></trkpt><trkpt lat="43.2966838872784" lon="11.333193690403164"><ele>217.0</ele><time>2026-04-08T15:39:28.999Z</time></trkpt><trkpt lat="43.29674009564814" lon="11.333090362082658"><ele>217.0</ele><time>2026-04-08T15:39:29.999Z</time></trkpt><trkpt lat="43.29680476529153" lon="11.332991652479754"><ele>217.0</ele><time>2026-04-08T15:39:30.999Z</time></trkpt><trkpt lat="43.29688485665934" lon="11.332894410342686"><ele>217.0</ele><time>2026-04-08T15:39:31.999Z</time></trkpt><trkpt lat="43.296975748426696" lon="11.332807081728962"><ele>217.0</ele><time>2026-04-08T15:39:32.999Z</time></trkpt><trkpt lat="43.29707768360435" lon="11.332736081417512"><ele>217.25</ele><time>2026-04-08T15:39:33.999Z</time></trkpt><trkpt lat="43.29718587547589" lon="11.332675831936196"><ele>217.5</ele><time>2026-04-08T15:39:34.999Z</time></trkpt><trkpt lat="43.297293993226475" lon="11.332629225122522"><ele>217.75</ele><time>2026-04-08T15:39:35.999Z</time></trkpt><trkpt lat="43.297398223410205" lon="11.33259096589497"><ele>218.0</ele><time>2026-04-08T15:39:36.999Z</time></trkpt><trkpt lat="43.297504217470106" lon="11.332531539711058"><ele>218.75</ele><time>2026-04-08T15:39:37.999Z</time></trkpt><trkpt lat="43.29762103833684" lon="11.33243298475336"><ele>219.5</ele><time>2026-04-08T15:39:38.999Z</time></trkpt><trkpt lat="43.297710123404244" lon="11.332319463278195"><ele>220.25</ele><time>2026-04-08T15:39:39.999Z</time></trkpt><trkpt lat="43.29778370330062" lon="11.33221404819619"><ele>221.0</ele><time>2026-04-08T15:39:40.999Z</time></trkpt><trkpt lat="43.297846429165894" lon="11.332086280559055"><ele>221.0</ele><time>2026-04-08T15:39:41.999Z</time></trkpt><trkpt lat="43.297907337861055" lon="11.331940849219649"><ele>221.0</ele><time>2026-04-08T15:39:42.999Z</time></trkpt><trkpt lat="43.29796568785241" lon="11.33178372307165"><ele>221.0</ele><time>2026-04-08T15:39:43.999Z</time></trkpt><trkpt lat="43.29801563261886" lon="11.331649196596546"><ele>221.0</ele><time>2026-04-08T15:39:44.999Z</time></trkpt><trkpt lat="43.298065769456976" lon="11.331523816614423"><ele>222.5</ele><time>2026-04-08T15:39:45.999Z</time></trkpt><trkpt lat="43.298122693733134" lon="11.331384315662778"><ele>224.0</ele><time>2026-04-08T15:39:46.999Z</time></trkpt><trkpt lat="43.29818762425004" lon="11.331238549168393"><ele>225.5</ele><time>2026-04-08T15:39:47.999Z</time></trkpt><trkpt lat="43.29826504195833" lon="11.33108908573033"><ele>227.0</ele><time>2026-04-08T15:39:48.999Z</time></trkpt><trkpt lat="43.29834290689637" lon="11.330966805719276"><ele>227.00000000000003</ele><time>2026-04-08T15:39:49.999Z</time></trkpt><trkpt lat="43.2984040456153" lon="11.330879590482668"><ele>227.0</ele><time>2026-04-08T15:39:50.999Z</time></trkpt><trkpt lat="43.2984561116432" lon="11.33080662579987"><ele>227.0</ele><time>2026-04-08T15:39:51.999Z</time></trkpt><trkpt lat="43.298500558243994" lon="11.330737356347255"><ele>227.0</ele><time>2026-04-08T15:39:52.999Z</time></trkpt><trkpt lat="43.29855210706551" lon="11.330653426156395"><ele>227.00000000000003</ele><time>2026-04-08T15:39:53.999Z</time></trkpt><trkpt lat="43.29861067309883" lon="11.330573900470727"><ele>227.0</ele><time>2026-04-08T15:39:54.999Z</time></trkpt><trkpt lat="43.298662328621475" lon="11.330513754192035"><ele>227.00000000000003</ele><time>2026-04-08T15:39:55.999Z</time></trkpt><trkpt lat="43.298719312780385" lon="11.330448016365882"><ele>227.0</ele><time>2026-04-08T15:39:56.999Z</time></trkpt><trkpt lat="43.29876755412097" lon="11.330390426869455"><ele>227.0</ele><time>2026-04-08T15:39:57.999Z</time></trkpt><trkpt lat="43.298851078720794" lon="11.330308083913804"><ele>227.0</ele><time>2026-04-08T15:39:59.999Z</time></trkpt><trkpt lat="43.29894063509464" lon="11.330202811794123"><ele>227.00000000000003</ele><time>2026-04-08T15:40:01.999Z</time></trkpt><trkpt lat="43.29899622504058" lon="11.330140523190122"><ele>227.0</ele><time>2026-04-08T15:40:02.999Z</time></trkpt><trkpt lat="43.29905504054869" lon="11.330063391262055"><ele>227.00000000000003</ele><time>2026-04-08T15:40:03.999Z</time></trkpt><trkpt lat="43.2991370597968" lon="11.329940933717046"><ele>227.0</ele><time>2026-04-08T15:40:05.999Z</time></trkpt><trkpt lat="43.29918072432226" lon="11.329853703351903"><ele>227.0</ele><time>2026-04-08T15:40:06.999Z</time></trkpt><trkpt lat="43.29923961277055" lon="11.32974255323133"><ele>227.0</ele><time>2026-04-08T15:40:07.999Z</time></trkpt><trkpt lat="43.299286161454134" lon="11.32965274761025"><ele>227.00000000000003</ele><time>2026-04-08T15:40:08.999Z</time></trkpt><trkpt lat="43.299323281505636" lon="11.329569829113584"><ele>227.0</ele><time>2026-04-08T15:40:09.999Z</time></trkpt><trkpt lat="43.29935652210427" lon="11.32947909680804"><ele>226.66666666666669</ele><time>2026-04-08T15:40:11Z</time></trkpt><trkpt lat="43.29938529481943" lon="11.329397735540406"><ele>226.33333333333334</ele><time>2026-04-08T15:40:12Z</time></trkpt><trkpt lat="43.29943969632873" lon="11.32924933784971"><ele>226.0</ele><time>2026-04-08T15:40:14Z</time></trkpt><trkpt lat="43.299469492107285" lon="11.3291670279585"><ele>225.66666666666669</ele><time>2026-04-08T15:40:15Z</time></trkpt><trkpt lat="43.29950217167964" lon="11.329072619808255"><ele>225.33333333333334</ele><time>2026-04-08T15:40:16Z</time></trkpt><trkpt lat="43.29953176686618" lon="11.328985038163085"><ele>225.0</ele><time>2026-04-08T15:40:17Z</time></trkpt><trkpt lat="43.29956531462427" lon="11.32885592437567"><ele>225.2</ele><time>2026-04-08T15:40:19Z</time></trkpt><trkpt lat="43.29960016808648" lon="11.328714902066851"><ele>225.4</ele><time>2026-04-08T15:40:21Z</time></trkpt><trkpt lat="43.29965894645189" lon="11.328573405517211"><ele>225.60000000000002</ele><time>2026-04-08T15:40:23Z</time></trkpt><trkpt lat="43.29969761058609" lon="11.328477032096675"><ele>225.8</ele><time>2026-04-08T15:40:24Z</time></trkpt><trkpt lat="43.299732523708165" lon="11.328376797740496"><ele>226.0</ele><time>2026-04-08T15:40:25Z</time></trkpt><trkpt lat="43.29976564631415" lon="11.328291472481446"><ele>225.99999999999997</ele><time>2026-04-08T15:40:26Z</time></trkpt><trkpt lat="43.29979793950302" lon="11.328207130652896"><ele>226.0</ele><time>2026-04-08T15:40:27Z</time></trkpt><trkpt lat="43.29983079308896" lon="11.328124807676629"><ele>226.0</ele><time>2026-04-08T15:40:28Z</time></trkpt><trkpt lat="43.29986342433803" lon="11.32803847202109"><ele>226.0</ele><time>2026-04-08T15:40:29Z</time></trkpt><trkpt lat="43.29989812331108" lon="11.32794237954372"><ele>225.99999999999997</ele><time>2026-04-08T15:40:30Z</time></trkpt><trkpt lat="43.299934334229135" lon="11.327864130708623"><ele>226.0</ele><time>2026-04-08T15:40:31Z</time></trkpt><trkpt lat="43.29999828095151" lon="11.32773853727481"><ele>225.49999999999997</ele><time>2026-04-08T15:40:33Z</time></trkpt><trkpt lat="43.30006079173229" lon="11.327648828098614"><ele>225.0</ele><time>2026-04-08T15:40:35Z</time></trkpt><trkpt lat="43.30012943077161" lon="11.327590015521473"><ele>224.5</ele><time>2026-04-08T15:40:36Z</time></trkpt><trkpt lat="43.30020400259413" lon="11.327526677931631"><ele>224.0</ele><time>2026-04-08T15:40:37Z</time></trkpt><trkpt lat="43.300256833998525" lon="11.327469604754876"><ele>223.49999999999997</ele><time>2026-04-08T15:40:38Z</time></trkpt><trkpt lat="43.30029535731515" lon="11.327372686096572"><ele>223.0</ele><time>2026-04-08T15:40:39Z</time></trkpt><trkpt lat="43.300333975681454" lon="11.3272402646558"><ele>222.75</ele><time>2026-04-08T15:40:40Z</time></trkpt><trkpt lat="43.30038668562261" lon="11.327095236687454"><ele>222.5</ele><time>2026-04-08T15:40:41Z</time></trkpt><trkpt lat="43.300446608638666" lon="11.326961984687868"><ele>222.25</ele><time>2026-04-08T15:40:42Z</time></trkpt><trkpt lat="43.30050655877532" lon="11.326836457024033"><ele>222.0</ele><time>2026-04-08T15:40:43Z</time></trkpt><trkpt lat="43.30056837109865" lon="11.326698725576804"><ele>222.8</ele><time>2026-04-08T15:40:44Z</time></trkpt><trkpt lat="43.30062256226928" lon="11.326562195462094"><ele>223.6</ele><time>2026-04-08T15:40:45Z</time></trkpt><trkpt lat="43.3006751501257" lon="11.326445799211719"><ele>224.40000000000003</ele><time>2026-04-08T15:40:46Z</time></trkpt><trkpt lat="43.30072145842046" lon="11.326343473880915"><ele>225.20000000000002</ele><time>2026-04-08T15:40:47Z</time></trkpt><trkpt lat="43.3007621647725" lon="11.326276040996657"><ele>226.0</ele><time>2026-04-08T15:40:48Z</time></trkpt><trkpt lat="43.300862115627396" lon="11.32617908662732"><ele>225.99999999999997</ele><time>2026-04-08T15:40:50Z</time></trkpt><trkpt lat="43.300948536644434" lon="11.326103436591415"><ele>226.0</ele><time>2026-04-08T15:40:52Z</time></trkpt><trkpt lat="43.30100918948498" lon="11.326052117775468"><ele>226.0</ele><time>2026-04-08T15:40:54Z</time></trkpt><trkpt lat="43.30106276438761" lon="11.325981768495895"><ele>226.0</ele><time>2026-04-08T15:40:56Z</time></trkpt><trkpt lat="43.301065612805616" lon="11.325877552349365"><ele>225.99999999999997</ele><time>2026-04-08T15:40:57Z</time></trkpt><trkpt lat="43.301055056081225" lon="11.325770911264792"><ele>226.0</ele><time>2026-04-08T15:40:58Z</time></trkpt><trkpt lat="43.30103718896667" lon="11.325628622870786"><ele>225.60000000000002</ele><time>2026-04-08T15:41:00Z</time></trkpt><trkpt lat="43.301026586483594" lon="11.325483358029723"><ele>225.20000000000002</ele><time>2026-04-08T15:41:02Z</time></trkpt><trkpt lat="43.30107078446899" lon="11.325353709826647"><ele>224.79999999999998</ele><time>2026-04-08T15:41:04Z</time></trkpt><trkpt lat="43.30115031691668" lon="11.325219898921954"><ele>224.39999999999998</ele><time>2026-04-08T15:41:06Z</time></trkpt><trkpt lat="43.3012037331019" lon="11.325158444994136"><ele>224.0</ele><time>2026-04-08T15:41:07Z</time></trkpt><trkpt lat="43.30126389693887" lon="11.325104158394888"><ele>224.00000000000003</ele><time>2026-04-08T15:41:08Z</time></trkpt><trkpt lat="43.301324020318255" lon="11.325053283718692"><ele>224.0</ele><time>2026-04-08T15:41:09Z</time></trkpt><trkpt lat="43.30137876701973" lon="11.32500583343339"><ele>224.0</ele><time>2026-04-08T15:41:10Z</time></trkpt><trkpt lat="43.301476096602286" lon="11.324921664570155"><ele>224.0</ele><time>2026-04-08T15:41:12Z</time></trkpt><trkpt lat="43.3015344858492" lon="11.324874432934793"><ele>224.00000000000003</ele><time>2026-04-08T15:41:13Z</time></trkpt><trkpt lat="43.3015985777232" lon="11.324824228363147"><ele>224.0</ele><time>2026-04-08T15:41:14Z</time></trkpt><trkpt lat="43.30166997256962" lon="11.324765142426019"><ele>223.57142857142858</ele><time>2026-04-08T15:41:15Z</time></trkpt><trkpt lat="43.30174341344347" lon="11.324722207601955"><ele>223.14285714285714</ele><time>2026-04-08T15:41:16Z</time></trkpt><trkpt lat="43.30180601653562" lon="11.324684731053804"><ele>222.71428571428572</ele><time>2026-04-08T15:41:16.999Z</time></trkpt><trkpt lat="43.301872627960975" lon="11.324644635488157"><ele>222.28571428571428</ele><time>2026-04-08T15:41:17.999Z</time></trkpt><trkpt lat="43.30194706319873" lon="11.324597629246995"><ele>221.85714285714286</ele><time>2026-04-08T15:41:18.999Z</time></trkpt><trkpt lat="43.30201355254445" lon="11.324545793737427"><ele>221.42857142857144</ele><time>2026-04-08T15:41:19.999Z</time></trkpt><trkpt lat="43.30207209846862" lon="11.324498955135272"><ele>221.0</ele><time>2026-04-08T15:41:20.999Z</time></trkpt><trkpt lat="43.30213266126378" lon="11.324446354311691"><ele>221.00000000000003</ele><time>2026-04-08T15:41:21.999Z</time></trkpt><trkpt lat="43.302191589866815" lon="11.32439163857464"><ele>221.0</ele><time>2026-04-08T15:41:22.999Z</time></trkpt><trkpt lat="43.30224937272482" lon="11.324339498741423"><ele>221.0</ele><time>2026-04-08T15:41:23.999Z</time></trkpt><trkpt lat="43.302306424002396" lon="11.324286915511271"><ele>221.0</ele><time>2026-04-08T15:41:24.999Z</time></trkpt><trkpt lat="43.30236672706066" lon="11.324237107832925"><ele>221.0</ele><time>2026-04-08T15:41:25.999Z</time></trkpt><trkpt lat="43.302435790655366" lon="11.324181472850682"><ele>221.00000000000003</ele><time>2026-04-08T15:41:26.999Z</time></trkpt><trkpt lat="43.30250513074961" lon="11.324126012802346"><ele>221.0</ele><time>2026-04-08T15:41:27.999Z</time></trkpt><trkpt lat="43.30257023984396" lon="11.324083776919508"><ele>221.20000000000002</ele><time>2026-04-08T15:41:28.999Z</time></trkpt><trkpt lat="43.30265044928664" lon="11.324045879438426"><ele>221.40000000000003</ele><time>2026-04-08T15:41:29.999Z</time></trkpt><trkpt lat="43.30274523722822" lon="11.324006731867012"><ele>221.6</ele><time>2026-04-08T15:41:30.999Z</time></trkpt><trkpt lat="43.302847185080026" lon="11.32395980553232"><ele>221.8</ele><time>2026-04-08T15:41:31.999Z</time></trkpt><trkpt lat="43.30293793009024" lon="11.323921336520867"><ele>222.0</ele><time>2026-04-08T15:41:32.999Z</time></trkpt><trkpt lat="43.30302450087012" lon="11.323875539095157"><ele>222.6</ele><time>2026-04-08T15:41:33.999Z</time></trkpt><trkpt lat="43.30311033976003" lon="11.323815623910182"><ele>223.2</ele><time>2026-04-08T15:41:34.999Z</time></trkpt><trkpt lat="43.30320933253244" lon="11.323730211040898"><ele>223.8</ele><time>2026-04-08T15:41:35.999Z</time></trkpt><trkpt lat="43.30331120619515" lon="11.323640209182852"><ele>224.4</ele><time>2026-04-08T15:41:36.999Z</time></trkpt><trkpt lat="43.30339512328581" lon="11.323568382698735"><ele>225.0</ele><time>2026-04-08T15:41:37.999Z</time></trkpt><trkpt lat="43.30346639096245" lon="11.323517275010865"><ele>225.0</ele><time>2026-04-08T15:41:38.999Z</time></trkpt><trkpt lat="43.30357202760105" lon="11.323424839165378"><ele>225.0</ele><time>2026-04-08T15:41:40.999Z</time></trkpt><trkpt lat="43.303655134916134" lon="11.32336420073583"><ele>225.0</ele><time>2026-04-08T15:41:42.999Z</time></trkpt><trkpt lat="43.30375074157839" lon="11.323279618670158"><ele>225.0</ele><time>2026-04-08T15:41:44.999Z</time></trkpt><trkpt lat="43.303805414504545" lon="11.32323649267952"><ele>225.0</ele><time>2026-04-08T15:41:46.999Z</time></trkpt><trkpt lat="43.30390376394124" lon="11.323211554048303"><ele>225.6</ele><time>2026-04-08T15:41:51.999Z</time></trkpt><trkpt lat="43.303968917741024" lon="11.323208312534303"><ele>226.2</ele><time>2026-04-08T15:41:52.999Z</time></trkpt><trkpt lat="43.304065001588874" lon="11.323171940250184"><ele>226.8</ele><time>2026-04-08T15:41:54.999Z</time></trkpt><trkpt lat="43.30412110538347" lon="11.323077672234513"><ele>227.4</ele><time>2026-04-08T15:41:56.999Z</time></trkpt><trkpt lat="43.3041255022772" lon="11.322903801546792"><ele>228.0</ele><time>2026-04-08T15:41:58.999Z</time></trkpt><trkpt lat="43.304054826393035" lon="11.322766535385584"><ele>228.0</ele><time>2026-04-08T15:42:00.999Z</time></trkpt><trkpt lat="43.30406635776512" lon="11.322660570554376"><ele>228.0</ele><time>2026-04-08T15:42:01.999Z</time></trkpt><trkpt lat="43.304078283709885" lon="11.322499038385079"><ele>228.0</ele><time>2026-04-08T15:42:03.999Z</time></trkpt><trkpt lat="43.304094050986535" lon="11.322411701642098"><ele>228.0</ele><time>2026-04-08T15:42:04.999Z</time></trkpt><trkpt lat="43.30412979969676" lon="11.322320057957386"><ele>228.0</ele><time>2026-04-08T15:42:05.999Z</time></trkpt><trkpt lat="43.304160543042634" lon="11.322229959293473"><ele>228.0</ele><time>2026-04-08T15:42:06.999Z</time></trkpt><trkpt lat="43.304189341159486" lon="11.322151945175564"><ele>227.57142857142856</ele><time>2026-04-08T15:42:07.999Z</time></trkpt><trkpt lat="43.30421824364942" lon="11.322071585482508"><ele>227.1428571428571</ele><time>2026-04-08T15:42:08.999Z</time></trkpt><trkpt lat="43.30425006247926" lon="11.321988836346453"><ele>226.71428571428572</ele><time>2026-04-08T15:42:09.999Z</time></trkpt><trkpt lat="43.30428258592634" lon="11.321903860854645"><ele>226.28571428571428</ele><time>2026-04-08T15:42:10.999Z</time></trkpt><trkpt lat="43.304317921603314" lon="11.321815473419859"><ele>225.85714285714286</ele><time>2026-04-08T15:42:11.999Z</time></trkpt><trkpt lat="43.30435586403224" lon="11.321722563807805"><ele>225.42857142857144</ele><time>2026-04-08T15:42:12.999Z</time></trkpt><trkpt lat="43.30439264695663" lon="11.32162656126864"><ele>225.00000000000003</ele><time>2026-04-08T15:42:13.999Z</time></trkpt><trkpt lat="43.30443680639458" lon="11.321525904960199"><ele>225.0</ele><time>2026-04-08T15:42:14.999Z</time></trkpt><trkpt lat="43.30448019789441" lon="11.321425863355206"><ele>225.0</ele><time>2026-04-08T15:42:15.999Z</time></trkpt><trkpt lat="43.30452024521188" lon="11.321330371671584"><ele>225.0</ele><time>2026-04-08T15:42:17Z</time></trkpt><trkpt lat="43.30455544801866" lon="11.321249051573524"><ele>225.0</ele><time>2026-04-08T15:42:18Z</time></trkpt><trkpt lat="43.304592971114985" lon="11.321159227601731"><ele>225.0</ele><time>2026-04-08T15:42:19Z</time></trkpt><trkpt lat="43.30462997703742" lon="11.321069232881207"><ele>225.0</ele><time>2026-04-08T15:42:20Z</time></trkpt><trkpt lat="43.30466270992162" lon="11.320989797116727"><ele>225.00000000000003</ele><time>2026-04-08T15:42:21Z</time></trkpt><trkpt lat="43.30468023833732" lon="11.320898762666728"><ele>225.0</ele><time>2026-04-08T15:42:22Z</time></trkpt><trkpt lat="43.30472896528272" lon="11.320822085302378"><ele>225.00000000000003</ele><time>2026-04-08T15:42:23Z</time></trkpt><trkpt lat="43.304768671077056" lon="11.320723564840948"><ele>225.00000000000003</ele><time>2026-04-08T15:42:24Z</time></trkpt><trkpt lat="43.30478783387185" lon="11.320630700116755"><ele>225.0</ele><time>2026-04-08T15:42:25Z</time></trkpt><trkpt lat="43.30482014864383" lon="11.320550444719169"><ele>225.00000000000003</ele><time>2026-04-08T15:42:26Z</time></trkpt><trkpt lat="43.304863463042146" lon="11.32047448322252"><ele>225.00000000000003</ele><time>2026-04-08T15:42:27Z</time></trkpt><trkpt lat="43.30490127089631" lon="11.32038791545786"><ele>225.66666666666666</ele><time>2026-04-08T15:42:28Z</time></trkpt><trkpt lat="43.30493810668249" lon="11.320297023181014"><ele>226.33333333333331</ele><time>2026-04-08T15:42:29Z</time></trkpt><trkpt lat="43.30497587352795" lon="11.320203457569807"><ele>227.0</ele><time>2026-04-08T15:42:30Z</time></trkpt><trkpt lat="43.30501431048475" lon="11.32010915894922"><ele>227.66666666666666</ele><time>2026-04-08T15:42:31Z</time></trkpt><trkpt lat="43.30505393373622" lon="11.320012848436175"><ele>228.33333333333331</ele><time>2026-04-08T15:42:32Z</time></trkpt><trkpt lat="43.30508663453477" lon="11.319930577613384"><ele>229.0</ele><time>2026-04-08T15:42:33Z</time></trkpt><trkpt lat="43.305138777623725" lon="11.319787867019349"><ele>228.66666666666666</ele><time>2026-04-08T15:42:35Z</time></trkpt><trkpt lat="43.30520881519443" lon="11.31964304580824"><ele>228.33333333333331</ele><time>2026-04-08T15:42:37Z</time></trkpt><trkpt lat="43.30524453811229" lon="11.319569918657214"><ele>228.0</ele><time>2026-04-08T15:42:38Z</time></trkpt><trkpt lat="43.30528174905832" lon="11.319494833024088"><ele>227.66666666666669</ele><time>2026-04-08T15:42:39Z</time></trkpt><trkpt lat="43.30532837747862" lon="11.319408808211506"><ele>227.33333333333334</ele><time>2026-04-08T15:42:40Z</time></trkpt><trkpt lat="43.30538633266949" lon="11.31930691867143"><ele>227.0</ele><time>2026-04-08T15:42:41Z</time></trkpt><trkpt lat="43.3054479324997" lon="11.31920401580692"><ele>227.00000000000003</ele><time>2026-04-08T15:42:42Z</time></trkpt><trkpt lat="43.30550009171632" lon="11.319114114969981"><ele>227.0</ele><time>2026-04-08T15:42:43Z</time></trkpt><trkpt lat="43.30554459102553" lon="11.31902561604636"><ele>227.0</ele><time>2026-04-08T15:42:44Z</time></trkpt><trkpt lat="43.305591531949666" lon="11.318931323657141"><ele>227.0</ele><time>2026-04-08T15:42:45Z</time></trkpt><trkpt lat="43.305643137324594" lon="11.318826340533205"><ele>227.00000000000003</ele><time>2026-04-08T15:42:46Z</time></trkpt><trkpt lat="43.30569702088808" lon="11.318723747582522"><ele>227.0</ele><time>2026-04-08T15:42:47Z</time></trkpt><trkpt lat="43.30575220783883" lon="11.318631286507797"><ele>227.2</ele><time>2026-04-08T15:42:48Z</time></trkpt><trkpt lat="43.30581334054603" lon="11.318528637062341"><ele>227.39999999999998</ele><time>2026-04-08T15:42:49Z</time></trkpt><trkpt lat="43.30588377727583" lon="11.318418601570032"><ele>227.60000000000002</ele><time>2026-04-08T15:42:50Z</time></trkpt><trkpt lat="43.30594850480272" lon="11.318321129600404"><ele>227.8</ele><time>2026-04-08T15:42:51Z</time></trkpt><trkpt lat="43.30601505368009" lon="11.318223372904283"><ele>228.0</ele><time>2026-04-08T15:42:52Z</time></trkpt><trkpt lat="43.30607569221405" lon="11.318141333383434"><ele>228.0</ele><time>2026-04-08T15:42:53Z</time></trkpt><trkpt lat="43.30613174930592" lon="11.318079891112445"><ele>228.0</ele><time>2026-04-08T15:42:54Z</time></trkpt><trkpt lat="43.30619715540536" lon="11.318042145794037"><ele>228.0</ele><time>2026-04-08T15:42:55Z</time></trkpt><trkpt lat="43.30627399206592" lon="11.318027439219046"><ele>228.0</ele><time>2026-04-08T15:42:56Z</time></trkpt><trkpt lat="43.30635971967789" lon="11.318068623167521"><ele>228.0</ele><time>2026-04-08T15:42:57Z</time></trkpt><trkpt lat="43.30644737922149" lon="11.31805357804768"><ele>228.0</ele><time>2026-04-08T15:42:58Z</time></trkpt><trkpt lat="43.30654595994914" lon="11.317991746594378"><ele>228.66666666666666</ele><time>2026-04-08T15:43:00Z</time></trkpt><trkpt lat="43.30658290810825" lon="11.317919733396957"><ele>229.33333333333331</ele><time>2026-04-08T15:43:01Z</time></trkpt><trkpt lat="43.3065952049315" lon="11.31783343567781"><ele>230.0</ele><time>2026-04-08T15:43:02Z</time></trkpt><trkpt lat="43.30660894473526" lon="11.3177452719746"><ele>230.66666666666666</ele><time>2026-04-08T15:43:03Z</time></trkpt><trkpt lat="43.30672752117327" lon="11.317694629740046"><ele>231.33333333333331</ele><time>2026-04-08T15:43:04Z</time></trkpt><trkpt lat="43.306784179826145" lon="11.317655201600891"><ele>232.0</ele><time>2026-04-08T15:43:05Z</time></trkpt><trkpt lat="43.30690524862848" lon="11.317700194383708"><ele>232.0</ele><time>2026-04-08T15:43:07Z</time></trkpt><trkpt lat="43.306988575745805" lon="11.317734607578613"><ele>232.0</ele><time>2026-04-08T15:43:08Z</time></trkpt><trkpt lat="43.30708081991844" lon="11.317778246177156"><ele>232.0</ele><time>2026-04-08T15:43:10Z</time></trkpt><trkpt lat="43.307139802901844" lon="11.317812343346608"><ele>232.0</ele><time>2026-04-08T15:43:15Z</time></trkpt><trkpt lat="43.30721927380046" lon="11.317653474967429"><ele>232.0</ele><time>2026-04-08T15:43:18Z</time></trkpt><trkpt lat="43.307267927435575" lon="11.317557618707108"><ele>232.6</ele><time>2026-04-08T15:43:20Z</time></trkpt><trkpt lat="43.307341004500884" lon="11.317463832328242"><ele>233.2</ele><time>2026-04-08T15:43:22Z</time></trkpt><trkpt lat="43.307403609549965" lon="11.317333893120976"><ele>233.8</ele><time>2026-04-08T15:43:23.999Z</time></trkpt><trkpt lat="43.30747048363684" lon="11.317228569715958"><ele>234.4</ele><time>2026-04-08T15:43:25.999Z</time></trkpt><trkpt lat="43.307537750887846" lon="11.317127790393046"><ele>235.0</ele><time>2026-04-08T15:43:27.999Z</time></trkpt><trkpt lat="43.307589428721165" lon="11.31703758479826"><ele>234.99999999999997</ele><time>2026-04-08T15:43:29.999Z</time></trkpt><trkpt lat="43.30766147125146" lon="11.31696699773804"><ele>235.0</ele><time>2026-04-08T15:43:31.999Z</time></trkpt><trkpt lat="43.30771005536695" lon="11.316908901198586"><ele>235.0</ele><time>2026-04-08T15:43:33.999Z</time></trkpt><trkpt lat="43.307767604903646" lon="11.31682205976739"><ele>235.0</ele><time>2026-04-08T15:43:35.999Z</time></trkpt><trkpt lat="43.3078697896112" lon="11.316749561689099"><ele>234.99999999999997</ele><time>2026-04-08T15:43:37.999Z</time></trkpt><trkpt lat="43.3079234396479" lon="11.316703817667495"><ele>235.0</ele><time>2026-04-08T15:43:38.999Z</time></trkpt><trkpt lat="43.30800868127208" lon="11.316624146815366"><ele>235.0</ele><time>2026-04-08T15:43:40.999Z</time></trkpt><trkpt lat="43.30805712986174" lon="11.316568585997615"><ele>235.0</ele><time>2026-04-08T15:43:42.999Z</time></trkpt><trkpt lat="43.30811093413012" lon="11.316508800896003"><ele>239.0</ele><time>2026-04-08T15:43:51.999Z</time></trkpt><trkpt lat="43.308056094462046" lon="11.316412646625652"><ele>235.0</ele><time>2026-04-08T15:45:10Z</time></trkpt><trkpt lat="43.30813532436679" lon="11.3163696457141"><ele>234.0</ele><time>2026-04-08T15:47:11Z</time></trkpt></trkseg></trk></gpx>